<?xml version="1.0" encoding="UTF-8" standalone="no" ?>
<gpx xmlns="http://www.topografix.com/GPX/1/1" xmlns:xsi="http://www.w3.org/2001/XMLSchema-instance" xsi:schemaLocation="http://www.topografix.com/GPX/1/1 http://www.topografix.com/GPX/1/1/gpx.xsd" version="1.1" creator="VisuGPX - https://www.visugpx.com">
  <metadata>
    <name>Ballon Le Thillot </name>
    <desc><![CDATA[Boucle depuis la Malsaucy en passant par le Ballon d Alsace , le col des Croix et le col de la Chavestraye.
La montée du chemin du souvenir Français depuis Ternuay est assez compliquée avec quelques passages a 18%.]]></desc>
  </metadata>
  <trk>
    <name><![CDATA[Route : Ballon-Le_Thillot ]]></name>
    <trkseg>
      <trkpt lat="47.68423" lon="6.81539">
        <ele>392.4</ele>
        <time>2026-08-23T09:35:29.000Z</time>
      </trkpt>
      <trkpt lat="47.68427" lon="6.81557">
        <ele>392.2</ele>
        <time>2026-08-23T09:35:31.000Z</time>
      </trkpt>
      <trkpt lat="47.6843" lon="6.81572">
        <ele>392.2</ele>
        <time>2026-08-23T09:35:33.000Z</time>
      </trkpt>
      <trkpt lat="47.68432" lon="6.81586">
        <ele>392.2</ele>
        <time>2026-08-23T09:35:35.000Z</time>
      </trkpt>
      <trkpt lat="47.68433" lon="6.81599">
        <ele>392.4</ele>
        <time>2026-08-23T09:35:37.000Z</time>
      </trkpt>
      <trkpt lat="47.68435" lon="6.81612">
        <ele>392.4</ele>
        <time>2026-08-23T09:35:39.000Z</time>
      </trkpt>
      <trkpt lat="47.68438" lon="6.81623">
        <ele>392.6</ele>
        <time>2026-08-23T09:35:41.000Z</time>
      </trkpt>
      <trkpt lat="47.68443" lon="6.81635">
        <ele>392.8</ele>
        <time>2026-08-23T09:35:43.000Z</time>
      </trkpt>
      <trkpt lat="47.68447" lon="6.81647">
        <ele>393</ele>
        <time>2026-08-23T09:35:45.000Z</time>
      </trkpt>
      <trkpt lat="47.68451" lon="6.81661">
        <ele>393.2</ele>
        <time>2026-08-23T09:35:47.000Z</time>
      </trkpt>
      <trkpt lat="47.68452" lon="6.81676">
        <ele>393.2</ele>
        <time>2026-08-23T09:35:50.000Z</time>
      </trkpt>
      <trkpt lat="47.68453" lon="6.81691">
        <ele>393.4</ele>
        <time>2026-08-23T09:35:52.000Z</time>
      </trkpt>
      <trkpt lat="47.68456" lon="6.81706">
        <ele>393.4</ele>
        <time>2026-08-23T09:35:54.000Z</time>
      </trkpt>
      <trkpt lat="47.6846" lon="6.81721">
        <ele>393.8</ele>
        <time>2026-08-23T09:35:56.000Z</time>
      </trkpt>
      <trkpt lat="47.68463" lon="6.81736">
        <ele>394</ele>
        <time>2026-08-23T09:35:58.000Z</time>
      </trkpt>
      <trkpt lat="47.68466" lon="6.81751">
        <ele>394.2</ele>
        <time>2026-08-23T09:36:00.000Z</time>
      </trkpt>
      <trkpt lat="47.68468" lon="6.81766">
        <ele>394.4</ele>
        <time>2026-08-23T09:36:02.000Z</time>
      </trkpt>
      <trkpt lat="47.68469" lon="6.81781">
        <ele>394.2</ele>
        <time>2026-08-23T09:36:04.000Z</time>
      </trkpt>
      <trkpt lat="47.68471" lon="6.81797">
        <ele>394.2</ele>
        <time>2026-08-23T09:36:06.000Z</time>
      </trkpt>
      <trkpt lat="47.68474" lon="6.81813">
        <ele>394</ele>
        <time>2026-08-23T09:36:08.000Z</time>
      </trkpt>
      <trkpt lat="47.68479" lon="6.81829">
        <ele>394</ele>
        <time>2026-08-23T09:36:10.000Z</time>
      </trkpt>
      <trkpt lat="47.68484" lon="6.81843">
        <ele>394</ele>
        <time>2026-08-23T09:36:12.000Z</time>
      </trkpt>
      <trkpt lat="47.68489" lon="6.81857">
        <ele>394</ele>
        <time>2026-08-23T09:36:14.000Z</time>
      </trkpt>
      <trkpt lat="47.68494" lon="6.81872">
        <ele>394.2</ele>
        <time>2026-08-23T09:36:16.000Z</time>
      </trkpt>
      <trkpt lat="47.68499" lon="6.81886">
        <ele>394.4</ele>
        <time>2026-08-23T09:36:18.000Z</time>
      </trkpt>
      <trkpt lat="47.68504" lon="6.81901">
        <ele>394.6</ele>
        <time>2026-08-23T09:36:20.000Z</time>
      </trkpt>
      <trkpt lat="47.68509" lon="6.81915">
        <ele>395</ele>
        <time>2026-08-23T09:36:22.000Z</time>
      </trkpt>
      <trkpt lat="47.68514" lon="6.81928">
        <ele>395.2</ele>
        <time>2026-08-23T09:36:24.000Z</time>
      </trkpt>
      <trkpt lat="47.68519" lon="6.81941">
        <ele>395.6</ele>
        <time>2026-08-23T09:36:26.000Z</time>
      </trkpt>
      <trkpt lat="47.68524" lon="6.81953">
        <ele>395.6</ele>
        <time>2026-08-23T09:36:28.000Z</time>
      </trkpt>
      <trkpt lat="47.68529" lon="6.81965">
        <ele>395.8</ele>
        <time>2026-08-23T09:36:30.000Z</time>
      </trkpt>
      <trkpt lat="47.68534" lon="6.81976">
        <ele>396</ele>
        <time>2026-08-23T09:36:32.000Z</time>
      </trkpt>
      <trkpt lat="47.68537" lon="6.81989">
        <ele>396.2</ele>
        <time>2026-08-23T09:36:34.000Z</time>
      </trkpt>
      <trkpt lat="47.68539" lon="6.82001">
        <ele>396.2</ele>
        <time>2026-08-23T09:36:36.000Z</time>
      </trkpt>
      <trkpt lat="47.68541" lon="6.82014">
        <ele>396.2</ele>
        <time>2026-08-23T09:36:38.000Z</time>
      </trkpt>
      <trkpt lat="47.68541" lon="6.82028">
        <ele>396.4</ele>
        <time>2026-08-23T09:36:40.000Z</time>
      </trkpt>
      <trkpt lat="47.68541" lon="6.8204">
        <ele>396.4</ele>
        <time>2026-08-23T09:36:42.000Z</time>
      </trkpt>
      <trkpt lat="47.68544" lon="6.82051">
        <ele>396.4</ele>
        <time>2026-08-23T09:36:44.000Z</time>
      </trkpt>
      <trkpt lat="47.6855" lon="6.82063">
        <ele>396</ele>
        <time>2026-08-23T09:36:46.000Z</time>
      </trkpt>
      <trkpt lat="47.68558" lon="6.82075">
        <ele>395.6</ele>
        <time>2026-08-23T09:36:48.000Z</time>
      </trkpt>
      <trkpt lat="47.68566" lon="6.82088">
        <ele>395.2</ele>
        <time>2026-08-23T09:36:50.000Z</time>
      </trkpt>
      <trkpt lat="47.68574" lon="6.82101">
        <ele>395.2</ele>
        <time>2026-08-23T09:36:52.000Z</time>
      </trkpt>
      <trkpt lat="47.68582" lon="6.82114">
        <ele>395</ele>
        <time>2026-08-23T09:36:54.000Z</time>
      </trkpt>
      <trkpt lat="47.68589" lon="6.82126">
        <ele>395</ele>
        <time>2026-08-23T09:36:56.000Z</time>
      </trkpt>
      <trkpt lat="47.68596" lon="6.82138">
        <ele>395.2</ele>
        <time>2026-08-23T09:36:58.000Z</time>
      </trkpt>
      <trkpt lat="47.68604" lon="6.8215">
        <ele>395.4</ele>
        <time>2026-08-23T09:37:00.000Z</time>
      </trkpt>
      <trkpt lat="47.68611" lon="6.82163">
        <ele>395.4</ele>
        <time>2026-08-23T09:37:02.000Z</time>
      </trkpt>
      <trkpt lat="47.68618" lon="6.82175">
        <ele>395.4</ele>
        <time>2026-08-23T09:37:04.000Z</time>
      </trkpt>
      <trkpt lat="47.68625" lon="6.82188">
        <ele>395.6</ele>
        <time>2026-08-23T09:37:06.000Z</time>
      </trkpt>
      <trkpt lat="47.68633" lon="6.822">
        <ele>395.8</ele>
        <time>2026-08-23T09:37:08.000Z</time>
      </trkpt>
      <trkpt lat="47.6864" lon="6.82213">
        <ele>395.8</ele>
        <time>2026-08-23T09:37:10.000Z</time>
      </trkpt>
      <trkpt lat="47.68648" lon="6.82225">
        <ele>395.8</ele>
        <time>2026-08-23T09:37:12.000Z</time>
      </trkpt>
      <trkpt lat="47.68655" lon="6.82238">
        <ele>396</ele>
        <time>2026-08-23T09:37:14.000Z</time>
      </trkpt>
      <trkpt lat="47.68663" lon="6.82251">
        <ele>396.2</ele>
        <time>2026-08-23T09:37:17.000Z</time>
      </trkpt>
      <trkpt lat="47.6867" lon="6.82263">
        <ele>396.4</ele>
        <time>2026-08-23T09:37:19.000Z</time>
      </trkpt>
      <trkpt lat="47.68677" lon="6.82276">
        <ele>396.6</ele>
        <time>2026-08-23T09:37:21.000Z</time>
      </trkpt>
      <trkpt lat="47.68684" lon="6.82288">
        <ele>396.8</ele>
        <time>2026-08-23T09:37:23.000Z</time>
      </trkpt>
      <trkpt lat="47.68692" lon="6.823">
        <ele>396.8</ele>
        <time>2026-08-23T09:37:25.000Z</time>
      </trkpt>
      <trkpt lat="47.68699" lon="6.82313">
        <ele>396.8</ele>
        <time>2026-08-23T09:37:27.000Z</time>
      </trkpt>
      <trkpt lat="47.68707" lon="6.82325">
        <ele>397</ele>
        <time>2026-08-23T09:37:29.000Z</time>
      </trkpt>
      <trkpt lat="47.68714" lon="6.82337">
        <ele>397</ele>
        <time>2026-08-23T09:37:31.000Z</time>
      </trkpt>
      <trkpt lat="47.68722" lon="6.82349">
        <ele>397.4</ele>
        <time>2026-08-23T09:37:33.000Z</time>
      </trkpt>
      <trkpt lat="47.68731" lon="6.8236">
        <ele>397.4</ele>
        <time>2026-08-23T09:37:35.000Z</time>
      </trkpt>
      <trkpt lat="47.68739" lon="6.82371">
        <ele>397.4</ele>
        <time>2026-08-23T09:37:37.000Z</time>
      </trkpt>
      <trkpt lat="47.68747" lon="6.82381">
        <ele>397.6</ele>
        <time>2026-08-23T09:37:39.000Z</time>
      </trkpt>
      <trkpt lat="47.68756" lon="6.82392">
        <ele>397.8</ele>
        <time>2026-08-23T09:37:41.000Z</time>
      </trkpt>
      <trkpt lat="47.68764" lon="6.82402">
        <ele>398</ele>
        <time>2026-08-23T09:37:43.000Z</time>
      </trkpt>
      <trkpt lat="47.68773" lon="6.82411">
        <ele>398</ele>
        <time>2026-08-23T09:37:45.000Z</time>
      </trkpt>
      <trkpt lat="47.68782" lon="6.82421">
        <ele>398.2</ele>
        <time>2026-08-23T09:37:47.000Z</time>
      </trkpt>
      <trkpt lat="47.68791" lon="6.82429">
        <ele>398.6</ele>
        <time>2026-08-23T09:37:49.000Z</time>
      </trkpt>
      <trkpt lat="47.68799" lon="6.82436">
        <ele>398.8</ele>
        <time>2026-08-23T09:37:51.000Z</time>
      </trkpt>
      <trkpt lat="47.68802" lon="6.82447">
        <ele>398.8</ele>
        <time>2026-08-23T09:37:53.000Z</time>
      </trkpt>
      <trkpt lat="47.68801" lon="6.82459">
        <ele>398.8</ele>
        <time>2026-08-23T09:37:55.000Z</time>
      </trkpt>
      <trkpt lat="47.68794" lon="6.82469">
        <ele>398.6</ele>
        <time>2026-08-23T09:37:57.000Z</time>
      </trkpt>
      <trkpt lat="47.68784" lon="6.82475">
        <ele>398.2</ele>
        <time>2026-08-23T09:37:59.000Z</time>
      </trkpt>
      <trkpt lat="47.68772" lon="6.8248">
        <ele>398</ele>
        <time>2026-08-23T09:38:01.000Z</time>
      </trkpt>
      <trkpt lat="47.68761" lon="6.82484">
        <ele>397.8</ele>
        <time>2026-08-23T09:38:03.000Z</time>
      </trkpt>
      <trkpt lat="47.6875" lon="6.82488">
        <ele>397.6</ele>
        <time>2026-08-23T09:38:05.000Z</time>
      </trkpt>
      <trkpt lat="47.68734" lon="6.82497">
        <ele>397.6</ele>
        <time>2026-08-23T09:38:07.000Z</time>
      </trkpt>
      <trkpt lat="47.68723" lon="6.82507">
        <ele>397.4</ele>
        <time>2026-08-23T09:38:09.000Z</time>
      </trkpt>
      <trkpt lat="47.68714" lon="6.82518">
        <ele>397.4</ele>
        <time>2026-08-23T09:38:11.000Z</time>
      </trkpt>
      <trkpt lat="47.68706" lon="6.82531">
        <ele>397.2</ele>
        <time>2026-08-23T09:38:13.000Z</time>
      </trkpt>
      <trkpt lat="47.68699" lon="6.82545">
        <ele>397</ele>
        <time>2026-08-23T09:38:15.000Z</time>
      </trkpt>
      <trkpt lat="47.68693" lon="6.8256">
        <ele>396.8</ele>
        <time>2026-08-23T09:38:17.000Z</time>
      </trkpt>
      <trkpt lat="47.68688" lon="6.82575">
        <ele>396.6</ele>
        <time>2026-08-23T09:38:19.000Z</time>
      </trkpt>
      <trkpt lat="47.68684" lon="6.82591">
        <ele>396.6</ele>
        <time>2026-08-23T09:38:21.000Z</time>
      </trkpt>
      <trkpt lat="47.68681" lon="6.82605">
        <ele>396.4</ele>
        <time>2026-08-23T09:38:23.000Z</time>
      </trkpt>
      <trkpt lat="47.68674" lon="6.82617">
        <ele>396.6</ele>
        <time>2026-08-23T09:38:25.000Z</time>
      </trkpt>
      <trkpt lat="47.68666" lon="6.8263">
        <ele>396.6</ele>
        <time>2026-08-23T09:38:27.000Z</time>
      </trkpt>
      <trkpt lat="47.68664" lon="6.82645">
        <ele>397</ele>
        <time>2026-08-23T09:38:29.000Z</time>
      </trkpt>
      <trkpt lat="47.68669" lon="6.82662">
        <ele>397.2</ele>
        <time>2026-08-23T09:38:32.000Z</time>
      </trkpt>
      <trkpt lat="47.68675" lon="6.82678">
        <ele>397.4</ele>
        <time>2026-08-23T09:38:34.000Z</time>
      </trkpt>
      <trkpt lat="47.68683" lon="6.82694">
        <ele>397.6</ele>
        <time>2026-08-23T09:38:36.000Z</time>
      </trkpt>
      <trkpt lat="47.6869" lon="6.82709">
        <ele>397.8</ele>
        <time>2026-08-23T09:38:38.000Z</time>
      </trkpt>
      <trkpt lat="47.68696" lon="6.82725">
        <ele>398</ele>
        <time>2026-08-23T09:38:40.000Z</time>
      </trkpt>
      <trkpt lat="47.68702" lon="6.82741">
        <ele>398.2</ele>
        <time>2026-08-23T09:38:42.000Z</time>
      </trkpt>
      <trkpt lat="47.68708" lon="6.82757">
        <ele>398</ele>
        <time>2026-08-23T09:38:44.000Z</time>
      </trkpt>
      <trkpt lat="47.68715" lon="6.82774">
        <ele>397.8</ele>
        <time>2026-08-23T09:38:46.000Z</time>
      </trkpt>
      <trkpt lat="47.68721" lon="6.82791">
        <ele>397.6</ele>
        <time>2026-08-23T09:38:48.000Z</time>
      </trkpt>
      <trkpt lat="47.68728" lon="6.82807">
        <ele>397.4</ele>
        <time>2026-08-23T09:38:50.000Z</time>
      </trkpt>
      <trkpt lat="47.68734" lon="6.82824">
        <ele>397.4</ele>
        <time>2026-08-23T09:38:52.000Z</time>
      </trkpt>
      <trkpt lat="47.68741" lon="6.8284">
        <ele>397.2</ele>
        <time>2026-08-23T09:38:54.000Z</time>
      </trkpt>
      <trkpt lat="47.68747" lon="6.82856">
        <ele>397</ele>
        <time>2026-08-23T09:38:56.000Z</time>
      </trkpt>
      <trkpt lat="47.68753" lon="6.82873">
        <ele>396.8</ele>
        <time>2026-08-23T09:38:58.000Z</time>
      </trkpt>
      <trkpt lat="47.68757" lon="6.82891">
        <ele>396.8</ele>
        <time>2026-08-23T09:39:00.000Z</time>
      </trkpt>
      <trkpt lat="47.6876" lon="6.8291">
        <ele>396.8</ele>
        <time>2026-08-23T09:39:02.000Z</time>
      </trkpt>
      <trkpt lat="47.68763" lon="6.82928">
        <ele>396.8</ele>
        <time>2026-08-23T09:39:04.000Z</time>
      </trkpt>
      <trkpt lat="47.68765" lon="6.82947">
        <ele>396.8</ele>
        <time>2026-08-23T09:39:06.000Z</time>
      </trkpt>
      <trkpt lat="47.68768" lon="6.82965">
        <ele>396.8</ele>
        <time>2026-08-23T09:39:08.000Z</time>
      </trkpt>
      <trkpt lat="47.68771" lon="6.82984">
        <ele>397</ele>
        <time>2026-08-23T09:39:10.000Z</time>
      </trkpt>
      <trkpt lat="47.68773" lon="6.83002">
        <ele>397.2</ele>
        <time>2026-08-23T09:39:12.000Z</time>
      </trkpt>
      <trkpt lat="47.68776" lon="6.8302">
        <ele>397.2</ele>
        <time>2026-08-23T09:39:14.000Z</time>
      </trkpt>
      <trkpt lat="47.68778" lon="6.83038">
        <ele>397.4</ele>
        <time>2026-08-23T09:39:16.000Z</time>
      </trkpt>
      <trkpt lat="47.68782" lon="6.83061">
        <ele>397.4</ele>
        <time>2026-08-23T09:39:18.000Z</time>
      </trkpt>
      <trkpt lat="47.68785" lon="6.83084">
        <ele>397.4</ele>
        <time>2026-08-23T09:39:20.000Z</time>
      </trkpt>
      <trkpt lat="47.68787" lon="6.83104">
        <ele>397.6</ele>
        <time>2026-08-23T09:39:22.000Z</time>
      </trkpt>
      <trkpt lat="47.68789" lon="6.83121">
        <ele>397.4</ele>
        <time>2026-08-23T09:39:24.000Z</time>
      </trkpt>
      <trkpt lat="47.68791" lon="6.83137">
        <ele>397.6</ele>
        <time>2026-08-23T09:39:26.000Z</time>
      </trkpt>
      <trkpt lat="47.68793" lon="6.83152">
        <ele>397.8</ele>
        <time>2026-08-23T09:39:28.000Z</time>
      </trkpt>
      <trkpt lat="47.68797" lon="6.83162">
        <ele>398.2</ele>
        <time>2026-08-23T09:39:30.000Z</time>
      </trkpt>
      <trkpt lat="47.68802" lon="6.83165">
        <ele>398.6</ele>
        <time>2026-08-23T09:39:32.000Z</time>
      </trkpt>
      <trkpt lat="47.68809" lon="6.83159">
        <ele>398.8</ele>
        <time>2026-08-23T09:39:34.000Z</time>
      </trkpt>
      <trkpt lat="47.68817" lon="6.83149">
        <ele>399</ele>
        <time>2026-08-23T09:39:36.000Z</time>
      </trkpt>
      <trkpt lat="47.68825" lon="6.83138">
        <ele>399</ele>
        <time>2026-08-23T09:39:38.000Z</time>
      </trkpt>
      <trkpt lat="47.68835" lon="6.83127">
        <ele>399.2</ele>
        <time>2026-08-23T09:39:40.000Z</time>
      </trkpt>
      <trkpt lat="47.68844" lon="6.83116">
        <ele>399.4</ele>
        <time>2026-08-23T09:39:42.000Z</time>
      </trkpt>
      <trkpt lat="47.68853" lon="6.83106">
        <ele>399.4</ele>
        <time>2026-08-23T09:39:44.000Z</time>
      </trkpt>
      <trkpt lat="47.68864" lon="6.83097">
        <ele>399.6</ele>
        <time>2026-08-23T09:39:46.000Z</time>
      </trkpt>
      <trkpt lat="47.68875" lon="6.8309">
        <ele>399.6</ele>
        <time>2026-08-23T09:39:48.000Z</time>
      </trkpt>
      <trkpt lat="47.68886" lon="6.83084">
        <ele>399.6</ele>
        <time>2026-08-23T09:39:50.000Z</time>
      </trkpt>
      <trkpt lat="47.68898" lon="6.8308">
        <ele>399.2</ele>
        <time>2026-08-23T09:39:52.000Z</time>
      </trkpt>
      <trkpt lat="47.6891" lon="6.83079">
        <ele>399.2</ele>
        <time>2026-08-23T09:39:54.000Z</time>
      </trkpt>
      <trkpt lat="47.68923" lon="6.83082">
        <ele>399.2</ele>
        <time>2026-08-23T09:39:56.000Z</time>
      </trkpt>
      <trkpt lat="47.68935" lon="6.83088">
        <ele>399.4</ele>
        <time>2026-08-23T09:39:58.000Z</time>
      </trkpt>
      <trkpt lat="47.68946" lon="6.83097">
        <ele>399.4</ele>
        <time>2026-08-23T09:40:01.000Z</time>
      </trkpt>
      <trkpt lat="47.68957" lon="6.83106">
        <ele>399.6</ele>
        <time>2026-08-23T09:40:03.000Z</time>
      </trkpt>
      <trkpt lat="47.68967" lon="6.83116">
        <ele>399.8</ele>
        <time>2026-08-23T09:40:05.000Z</time>
      </trkpt>
      <trkpt lat="47.68976" lon="6.83127">
        <ele>399.8</ele>
        <time>2026-08-23T09:40:07.000Z</time>
      </trkpt>
      <trkpt lat="47.68985" lon="6.83139">
        <ele>400.2</ele>
        <time>2026-08-23T09:40:09.000Z</time>
      </trkpt>
      <trkpt lat="47.68994" lon="6.83149">
        <ele>400.6</ele>
        <time>2026-08-23T09:40:11.000Z</time>
      </trkpt>
      <trkpt lat="47.69001" lon="6.83159">
        <ele>400.8</ele>
        <time>2026-08-23T09:40:13.000Z</time>
      </trkpt>
      <trkpt lat="47.6901" lon="6.83167">
        <ele>401</ele>
        <time>2026-08-23T09:40:15.000Z</time>
      </trkpt>
      <trkpt lat="47.69021" lon="6.83173">
        <ele>401</ele>
        <time>2026-08-23T09:40:17.000Z</time>
      </trkpt>
      <trkpt lat="47.69032" lon="6.83179">
        <ele>401.2</ele>
        <time>2026-08-23T09:40:19.000Z</time>
      </trkpt>
      <trkpt lat="47.69045" lon="6.83183">
        <ele>401.2</ele>
        <time>2026-08-23T09:40:21.000Z</time>
      </trkpt>
      <trkpt lat="47.69057" lon="6.83186">
        <ele>401.4</ele>
        <time>2026-08-23T09:40:23.000Z</time>
      </trkpt>
      <trkpt lat="47.69069" lon="6.83188">
        <ele>401.6</ele>
        <time>2026-08-23T09:40:25.000Z</time>
      </trkpt>
      <trkpt lat="47.69081" lon="6.8319">
        <ele>401.6</ele>
        <time>2026-08-23T09:40:27.000Z</time>
      </trkpt>
      <trkpt lat="47.69093" lon="6.83191">
        <ele>401.8</ele>
        <time>2026-08-23T09:40:29.000Z</time>
      </trkpt>
      <trkpt lat="47.69106" lon="6.83191">
        <ele>402.2</ele>
        <time>2026-08-23T09:40:31.000Z</time>
      </trkpt>
      <trkpt lat="47.69118" lon="6.83191">
        <ele>402.4</ele>
        <time>2026-08-23T09:40:33.000Z</time>
      </trkpt>
      <trkpt lat="47.6913" lon="6.83191">
        <ele>402.6</ele>
        <time>2026-08-23T09:40:35.000Z</time>
      </trkpt>
      <trkpt lat="47.69142" lon="6.83189">
        <ele>402.8</ele>
        <time>2026-08-23T09:40:37.000Z</time>
      </trkpt>
      <trkpt lat="47.69155" lon="6.83187">
        <ele>403</ele>
        <time>2026-08-23T09:40:39.000Z</time>
      </trkpt>
      <trkpt lat="47.69167" lon="6.83185">
        <ele>403.2</ele>
        <time>2026-08-23T09:40:41.000Z</time>
      </trkpt>
      <trkpt lat="47.69179" lon="6.83181">
        <ele>403.4</ele>
        <time>2026-08-23T09:40:43.000Z</time>
      </trkpt>
      <trkpt lat="47.69191" lon="6.83178">
        <ele>403.6</ele>
        <time>2026-08-23T09:40:45.000Z</time>
      </trkpt>
      <trkpt lat="47.69202" lon="6.83176">
        <ele>403.8</ele>
        <time>2026-08-23T09:40:47.000Z</time>
      </trkpt>
      <trkpt lat="47.69214" lon="6.83176">
        <ele>404.2</ele>
        <time>2026-08-23T09:40:49.000Z</time>
      </trkpt>
      <trkpt lat="47.69226" lon="6.83177">
        <ele>404.6</ele>
        <time>2026-08-23T09:40:51.000Z</time>
      </trkpt>
      <trkpt lat="47.69238" lon="6.83178">
        <ele>404.8</ele>
        <time>2026-08-23T09:40:53.000Z</time>
      </trkpt>
      <trkpt lat="47.69251" lon="6.83179">
        <ele>405</ele>
        <time>2026-08-23T09:40:55.000Z</time>
      </trkpt>
      <trkpt lat="47.69263" lon="6.83181">
        <ele>405.2</ele>
        <time>2026-08-23T09:40:57.000Z</time>
      </trkpt>
      <trkpt lat="47.69276" lon="6.83183">
        <ele>405.4</ele>
        <time>2026-08-23T09:40:59.000Z</time>
      </trkpt>
      <trkpt lat="47.69292" lon="6.83187">
        <ele>405.4</ele>
        <time>2026-08-23T09:41:01.000Z</time>
      </trkpt>
      <trkpt lat="47.69306" lon="6.83186">
        <ele>405.8</ele>
        <time>2026-08-23T09:41:03.000Z</time>
      </trkpt>
      <trkpt lat="47.69316" lon="6.83186">
        <ele>405.8</ele>
        <time>2026-08-23T09:41:05.000Z</time>
      </trkpt>
      <trkpt lat="47.69326" lon="6.83188">
        <ele>406</ele>
        <time>2026-08-23T09:41:07.000Z</time>
      </trkpt>
      <trkpt lat="47.69337" lon="6.83192">
        <ele>406</ele>
        <time>2026-08-23T09:41:09.000Z</time>
      </trkpt>
      <trkpt lat="47.69349" lon="6.83196">
        <ele>406</ele>
        <time>2026-08-23T09:41:11.000Z</time>
      </trkpt>
      <trkpt lat="47.69361" lon="6.832">
        <ele>406</ele>
        <time>2026-08-23T09:41:13.000Z</time>
      </trkpt>
      <trkpt lat="47.69373" lon="6.83203">
        <ele>406</ele>
        <time>2026-08-23T09:41:15.000Z</time>
      </trkpt>
      <trkpt lat="47.69385" lon="6.83207">
        <ele>406.2</ele>
        <time>2026-08-23T09:41:17.000Z</time>
      </trkpt>
      <trkpt lat="47.69397" lon="6.8321">
        <ele>406.4</ele>
        <time>2026-08-23T09:41:19.000Z</time>
      </trkpt>
      <trkpt lat="47.69409" lon="6.83213">
        <ele>406.4</ele>
        <time>2026-08-23T09:41:21.000Z</time>
      </trkpt>
      <trkpt lat="47.69421" lon="6.83216">
        <ele>406.4</ele>
        <time>2026-08-23T09:41:23.000Z</time>
      </trkpt>
      <trkpt lat="47.69434" lon="6.83219">
        <ele>406.6</ele>
        <time>2026-08-23T09:41:25.000Z</time>
      </trkpt>
      <trkpt lat="47.69446" lon="6.83222">
        <ele>406.6</ele>
        <time>2026-08-23T09:41:27.000Z</time>
      </trkpt>
      <trkpt lat="47.69458" lon="6.83222">
        <ele>406.8</ele>
        <time>2026-08-23T09:41:29.000Z</time>
      </trkpt>
      <trkpt lat="47.69469" lon="6.83215">
        <ele>407.2</ele>
        <time>2026-08-23T09:41:31.000Z</time>
      </trkpt>
      <trkpt lat="47.69478" lon="6.83203">
        <ele>407.4</ele>
        <time>2026-08-23T09:41:34.000Z</time>
      </trkpt>
      <trkpt lat="47.69486" lon="6.8319">
        <ele>407.6</ele>
        <time>2026-08-23T09:41:36.000Z</time>
      </trkpt>
      <trkpt lat="47.69495" lon="6.83177">
        <ele>407.8</ele>
        <time>2026-08-23T09:41:38.000Z</time>
      </trkpt>
      <trkpt lat="47.69504" lon="6.83166">
        <ele>407.8</ele>
        <time>2026-08-23T09:41:40.000Z</time>
      </trkpt>
      <trkpt lat="47.69513" lon="6.83157">
        <ele>408.2</ele>
        <time>2026-08-23T09:41:42.000Z</time>
      </trkpt>
      <trkpt lat="47.69523" lon="6.83149">
        <ele>408.4</ele>
        <time>2026-08-23T09:41:44.000Z</time>
      </trkpt>
      <trkpt lat="47.69532" lon="6.83139">
        <ele>408.4</ele>
        <time>2026-08-23T09:41:46.000Z</time>
      </trkpt>
      <trkpt lat="47.69542" lon="6.83127">
        <ele>408.4</ele>
        <time>2026-08-23T09:41:48.000Z</time>
      </trkpt>
      <trkpt lat="47.69552" lon="6.83115">
        <ele>408.4</ele>
        <time>2026-08-23T09:41:50.000Z</time>
      </trkpt>
      <trkpt lat="47.69563" lon="6.83103">
        <ele>408.6</ele>
        <time>2026-08-23T09:41:52.000Z</time>
      </trkpt>
      <trkpt lat="47.69573" lon="6.83091">
        <ele>408.8</ele>
        <time>2026-08-23T09:41:54.000Z</time>
      </trkpt>
      <trkpt lat="47.69583" lon="6.8308">
        <ele>409</ele>
        <time>2026-08-23T09:41:56.000Z</time>
      </trkpt>
      <trkpt lat="47.69593" lon="6.83069">
        <ele>409.4</ele>
        <time>2026-08-23T09:41:58.000Z</time>
      </trkpt>
      <trkpt lat="47.69603" lon="6.83058">
        <ele>409.8</ele>
        <time>2026-08-23T09:42:00.000Z</time>
      </trkpt>
      <trkpt lat="47.69613" lon="6.83047">
        <ele>410</ele>
        <time>2026-08-23T09:42:02.000Z</time>
      </trkpt>
      <trkpt lat="47.69623" lon="6.83036">
        <ele>410.2</ele>
        <time>2026-08-23T09:42:04.000Z</time>
      </trkpt>
      <trkpt lat="47.69633" lon="6.83024">
        <ele>410.2</ele>
        <time>2026-08-23T09:42:06.000Z</time>
      </trkpt>
      <trkpt lat="47.69643" lon="6.83013">
        <ele>410.4</ele>
        <time>2026-08-23T09:42:08.000Z</time>
      </trkpt>
      <trkpt lat="47.69653" lon="6.83">
        <ele>410.6</ele>
        <time>2026-08-23T09:42:10.000Z</time>
      </trkpt>
      <trkpt lat="47.69663" lon="6.82988">
        <ele>410.6</ele>
        <time>2026-08-23T09:42:12.000Z</time>
      </trkpt>
      <trkpt lat="47.69673" lon="6.82976">
        <ele>410.8</ele>
        <time>2026-08-23T09:42:14.000Z</time>
      </trkpt>
      <trkpt lat="47.69685" lon="6.82961">
        <ele>410.8</ele>
        <time>2026-08-23T09:42:16.000Z</time>
      </trkpt>
      <trkpt lat="47.69698" lon="6.82946">
        <ele>411</ele>
        <time>2026-08-23T09:42:18.000Z</time>
      </trkpt>
      <trkpt lat="47.69708" lon="6.82933">
        <ele>411</ele>
        <time>2026-08-23T09:42:20.000Z</time>
      </trkpt>
      <trkpt lat="47.69718" lon="6.82922">
        <ele>411.2</ele>
        <time>2026-08-23T09:42:22.000Z</time>
      </trkpt>
      <trkpt lat="47.69727" lon="6.8291">
        <ele>411.2</ele>
        <time>2026-08-23T09:42:24.000Z</time>
      </trkpt>
      <trkpt lat="47.69737" lon="6.82899">
        <ele>411.4</ele>
        <time>2026-08-23T09:42:26.000Z</time>
      </trkpt>
      <trkpt lat="47.69747" lon="6.82887">
        <ele>411.6</ele>
        <time>2026-08-23T09:42:28.000Z</time>
      </trkpt>
      <trkpt lat="47.69756" lon="6.82875">
        <ele>411.6</ele>
        <time>2026-08-23T09:42:30.000Z</time>
      </trkpt>
      <trkpt lat="47.69766" lon="6.82863">
        <ele>411.6</ele>
        <time>2026-08-23T09:42:32.000Z</time>
      </trkpt>
      <trkpt lat="47.69777" lon="6.82851">
        <ele>411.6</ele>
        <time>2026-08-23T09:42:34.000Z</time>
      </trkpt>
      <trkpt lat="47.69787" lon="6.82839">
        <ele>411.8</ele>
        <time>2026-08-23T09:42:36.000Z</time>
      </trkpt>
      <trkpt lat="47.69797" lon="6.82827">
        <ele>411.8</ele>
        <time>2026-08-23T09:42:38.000Z</time>
      </trkpt>
      <trkpt lat="47.69807" lon="6.82815">
        <ele>411.8</ele>
        <time>2026-08-23T09:42:40.000Z</time>
      </trkpt>
      <trkpt lat="47.69817" lon="6.82803">
        <ele>411.8</ele>
        <time>2026-08-23T09:42:42.000Z</time>
      </trkpt>
      <trkpt lat="47.69827" lon="6.8279">
        <ele>412</ele>
        <time>2026-08-23T09:42:44.000Z</time>
      </trkpt>
      <trkpt lat="47.69836" lon="6.82778">
        <ele>412</ele>
        <time>2026-08-23T09:42:46.000Z</time>
      </trkpt>
      <trkpt lat="47.69846" lon="6.82766">
        <ele>412.2</ele>
        <time>2026-08-23T09:42:48.000Z</time>
      </trkpt>
      <trkpt lat="47.69854" lon="6.82755">
        <ele>412.4</ele>
        <time>2026-08-23T09:42:50.000Z</time>
      </trkpt>
      <trkpt lat="47.69862" lon="6.82745">
        <ele>412.4</ele>
        <time>2026-08-23T09:42:52.000Z</time>
      </trkpt>
      <trkpt lat="47.69871" lon="6.8274">
        <ele>412.4</ele>
        <time>2026-08-23T09:42:54.000Z</time>
      </trkpt>
      <trkpt lat="47.69878" lon="6.82746">
        <ele>412.6</ele>
        <time>2026-08-23T09:42:56.000Z</time>
      </trkpt>
      <trkpt lat="47.69885" lon="6.82756">
        <ele>412.6</ele>
        <time>2026-08-23T09:42:58.000Z</time>
      </trkpt>
      <trkpt lat="47.69895" lon="6.82762">
        <ele>412.6</ele>
        <time>2026-08-23T09:43:01.000Z</time>
      </trkpt>
      <trkpt lat="47.69907" lon="6.8276">
        <ele>412.6</ele>
        <time>2026-08-23T09:43:03.000Z</time>
      </trkpt>
      <trkpt lat="47.69919" lon="6.82753">
        <ele>412.6</ele>
        <time>2026-08-23T09:43:05.000Z</time>
      </trkpt>
      <trkpt lat="47.69931" lon="6.82746">
        <ele>412.6</ele>
        <time>2026-08-23T09:43:07.000Z</time>
      </trkpt>
      <trkpt lat="47.69944" lon="6.82745">
        <ele>412.4</ele>
        <time>2026-08-23T09:43:09.000Z</time>
      </trkpt>
      <trkpt lat="47.69956" lon="6.82748">
        <ele>412.6</ele>
        <time>2026-08-23T09:43:11.000Z</time>
      </trkpt>
      <trkpt lat="47.69969" lon="6.82752">
        <ele>412.8</ele>
        <time>2026-08-23T09:43:13.000Z</time>
      </trkpt>
      <trkpt lat="47.69981" lon="6.82756">
        <ele>412.8</ele>
        <time>2026-08-23T09:43:15.000Z</time>
      </trkpt>
      <trkpt lat="47.69992" lon="6.8276">
        <ele>413</ele>
        <time>2026-08-23T09:43:17.000Z</time>
      </trkpt>
      <trkpt lat="47.70004" lon="6.82766">
        <ele>413</ele>
        <time>2026-08-23T09:43:19.000Z</time>
      </trkpt>
      <trkpt lat="47.70014" lon="6.82775">
        <ele>413.2</ele>
        <time>2026-08-23T09:43:21.000Z</time>
      </trkpt>
      <trkpt lat="47.70024" lon="6.82786">
        <ele>413.2</ele>
        <time>2026-08-23T09:43:23.000Z</time>
      </trkpt>
      <trkpt lat="47.70035" lon="6.82795">
        <ele>413.4</ele>
        <time>2026-08-23T09:43:25.000Z</time>
      </trkpt>
      <trkpt lat="47.70047" lon="6.82798">
        <ele>413.6</ele>
        <time>2026-08-23T09:43:27.000Z</time>
      </trkpt>
      <trkpt lat="47.7006" lon="6.82796">
        <ele>413.8</ele>
        <time>2026-08-23T09:43:29.000Z</time>
      </trkpt>
      <trkpt lat="47.70073" lon="6.82793">
        <ele>413.8</ele>
        <time>2026-08-23T09:43:31.000Z</time>
      </trkpt>
      <trkpt lat="47.70085" lon="6.82791">
        <ele>414</ele>
        <time>2026-08-23T09:43:33.000Z</time>
      </trkpt>
      <trkpt lat="47.70098" lon="6.82791">
        <ele>414.2</ele>
        <time>2026-08-23T09:43:35.000Z</time>
      </trkpt>
      <trkpt lat="47.7011" lon="6.82792">
        <ele>414.4</ele>
        <time>2026-08-23T09:43:37.000Z</time>
      </trkpt>
      <trkpt lat="47.70122" lon="6.8279">
        <ele>414.6</ele>
        <time>2026-08-23T09:43:39.000Z</time>
      </trkpt>
      <trkpt lat="47.70132" lon="6.82782">
        <ele>415</ele>
        <time>2026-08-23T09:43:41.000Z</time>
      </trkpt>
      <trkpt lat="47.70142" lon="6.82774">
        <ele>415.2</ele>
        <time>2026-08-23T09:43:43.000Z</time>
      </trkpt>
      <trkpt lat="47.70154" lon="6.82768">
        <ele>415.4</ele>
        <time>2026-08-23T09:43:45.000Z</time>
      </trkpt>
      <trkpt lat="47.70172" lon="6.82764">
        <ele>415.4</ele>
        <time>2026-08-23T09:43:47.000Z</time>
      </trkpt>
      <trkpt lat="47.70186" lon="6.82763">
        <ele>415.6</ele>
        <time>2026-08-23T09:43:49.000Z</time>
      </trkpt>
      <trkpt lat="47.70199" lon="6.82764">
        <ele>415.8</ele>
        <time>2026-08-23T09:43:51.000Z</time>
      </trkpt>
      <trkpt lat="47.70211" lon="6.82762">
        <ele>415.8</ele>
        <time>2026-08-23T09:43:53.000Z</time>
      </trkpt>
      <trkpt lat="47.70223" lon="6.82759">
        <ele>415.8</ele>
        <time>2026-08-23T09:43:55.000Z</time>
      </trkpt>
      <trkpt lat="47.70235" lon="6.82755">
        <ele>415.8</ele>
        <time>2026-08-23T09:43:57.000Z</time>
      </trkpt>
      <trkpt lat="47.70248" lon="6.8275">
        <ele>416</ele>
        <time>2026-08-23T09:43:59.000Z</time>
      </trkpt>
      <trkpt lat="47.7026" lon="6.82745">
        <ele>416</ele>
        <time>2026-08-23T09:44:01.000Z</time>
      </trkpt>
      <trkpt lat="47.70273" lon="6.8274">
        <ele>416.2</ele>
        <time>2026-08-23T09:44:03.000Z</time>
      </trkpt>
      <trkpt lat="47.70285" lon="6.82737">
        <ele>416.4</ele>
        <time>2026-08-23T09:44:05.000Z</time>
      </trkpt>
      <trkpt lat="47.70298" lon="6.82736">
        <ele>416.6</ele>
        <time>2026-08-23T09:44:07.000Z</time>
      </trkpt>
      <trkpt lat="47.70311" lon="6.82736">
        <ele>416.8</ele>
        <time>2026-08-23T09:44:09.000Z</time>
      </trkpt>
      <trkpt lat="47.70323" lon="6.82737">
        <ele>417</ele>
        <time>2026-08-23T09:44:11.000Z</time>
      </trkpt>
      <trkpt lat="47.70336" lon="6.82739">
        <ele>417.2</ele>
        <time>2026-08-23T09:44:13.000Z</time>
      </trkpt>
      <trkpt lat="47.70349" lon="6.82741">
        <ele>417.4</ele>
        <time>2026-08-23T09:44:15.000Z</time>
      </trkpt>
      <trkpt lat="47.70361" lon="6.82742">
        <ele>417.6</ele>
        <time>2026-08-23T09:44:17.000Z</time>
      </trkpt>
      <trkpt lat="47.70374" lon="6.82744">
        <ele>417.8</ele>
        <time>2026-08-23T09:44:19.000Z</time>
      </trkpt>
      <trkpt lat="47.70386" lon="6.82745">
        <ele>418</ele>
        <time>2026-08-23T09:44:22.000Z</time>
      </trkpt>
      <trkpt lat="47.70399" lon="6.82746">
        <ele>418.2</ele>
        <time>2026-08-23T09:44:24.000Z</time>
      </trkpt>
      <trkpt lat="47.70411" lon="6.82748">
        <ele>418.4</ele>
        <time>2026-08-23T09:44:26.000Z</time>
      </trkpt>
      <trkpt lat="47.70423" lon="6.82749">
        <ele>418.6</ele>
        <time>2026-08-23T09:44:28.000Z</time>
      </trkpt>
      <trkpt lat="47.70436" lon="6.8275">
        <ele>418.8</ele>
        <time>2026-08-23T09:44:30.000Z</time>
      </trkpt>
      <trkpt lat="47.70448" lon="6.82751">
        <ele>418.8</ele>
        <time>2026-08-23T09:44:32.000Z</time>
      </trkpt>
      <trkpt lat="47.70461" lon="6.82752">
        <ele>419</ele>
        <time>2026-08-23T09:44:34.000Z</time>
      </trkpt>
      <trkpt lat="47.70474" lon="6.82754">
        <ele>419</ele>
        <time>2026-08-23T09:44:36.000Z</time>
      </trkpt>
      <trkpt lat="47.70486" lon="6.82758">
        <ele>419.2</ele>
        <time>2026-08-23T09:44:38.000Z</time>
      </trkpt>
      <trkpt lat="47.70499" lon="6.82766">
        <ele>419.4</ele>
        <time>2026-08-23T09:44:40.000Z</time>
      </trkpt>
      <trkpt lat="47.70509" lon="6.82776">
        <ele>419.8</ele>
        <time>2026-08-23T09:44:42.000Z</time>
      </trkpt>
      <trkpt lat="47.7052" lon="6.82785">
        <ele>420.4</ele>
        <time>2026-08-23T09:44:44.000Z</time>
      </trkpt>
      <trkpt lat="47.70531" lon="6.82787">
        <ele>421.2</ele>
        <time>2026-08-23T09:44:46.000Z</time>
      </trkpt>
      <trkpt lat="47.70542" lon="6.8278">
        <ele>421.6</ele>
        <time>2026-08-23T09:44:48.000Z</time>
      </trkpt>
      <trkpt lat="47.70553" lon="6.8277">
        <ele>422.2</ele>
        <time>2026-08-23T09:44:50.000Z</time>
      </trkpt>
      <trkpt lat="47.70564" lon="6.82765">
        <ele>423</ele>
        <time>2026-08-23T09:44:52.000Z</time>
      </trkpt>
      <trkpt lat="47.70576" lon="6.82764">
        <ele>423.6</ele>
        <time>2026-08-23T09:44:54.000Z</time>
      </trkpt>
      <trkpt lat="47.70587" lon="6.82766">
        <ele>424.2</ele>
        <time>2026-08-23T09:44:56.000Z</time>
      </trkpt>
      <trkpt lat="47.70597" lon="6.82768">
        <ele>424.2</ele>
        <time>2026-08-23T09:44:58.000Z</time>
      </trkpt>
      <trkpt lat="47.70609" lon="6.8277">
        <ele>423.8</ele>
        <time>2026-08-23T09:45:00.000Z</time>
      </trkpt>
      <trkpt lat="47.70625" lon="6.82772">
        <ele>423.6</ele>
        <time>2026-08-23T09:45:02.000Z</time>
      </trkpt>
      <trkpt lat="47.70642" lon="6.82774">
        <ele>423.6</ele>
        <time>2026-08-23T09:45:04.000Z</time>
      </trkpt>
      <trkpt lat="47.70656" lon="6.82776">
        <ele>423.4</ele>
        <time>2026-08-23T09:45:06.000Z</time>
      </trkpt>
      <trkpt lat="47.70668" lon="6.82778">
        <ele>423.6</ele>
        <time>2026-08-23T09:45:08.000Z</time>
      </trkpt>
      <trkpt lat="47.70681" lon="6.82779">
        <ele>423.8</ele>
        <time>2026-08-23T09:45:10.000Z</time>
      </trkpt>
      <trkpt lat="47.70694" lon="6.82781">
        <ele>424</ele>
        <time>2026-08-23T09:45:12.000Z</time>
      </trkpt>
      <trkpt lat="47.70707" lon="6.82782">
        <ele>424.2</ele>
        <time>2026-08-23T09:45:14.000Z</time>
      </trkpt>
      <trkpt lat="47.7072" lon="6.82784">
        <ele>424.4</ele>
        <time>2026-08-23T09:45:16.000Z</time>
      </trkpt>
      <trkpt lat="47.70732" lon="6.82785">
        <ele>424.6</ele>
        <time>2026-08-23T09:45:18.000Z</time>
      </trkpt>
      <trkpt lat="47.70745" lon="6.82787">
        <ele>424.8</ele>
        <time>2026-08-23T09:45:20.000Z</time>
      </trkpt>
      <trkpt lat="47.70758" lon="6.82788">
        <ele>425</ele>
        <time>2026-08-23T09:45:22.000Z</time>
      </trkpt>
      <trkpt lat="47.70771" lon="6.8279">
        <ele>425.2</ele>
        <time>2026-08-23T09:45:24.000Z</time>
      </trkpt>
      <trkpt lat="47.70784" lon="6.82791">
        <ele>425.4</ele>
        <time>2026-08-23T09:45:26.000Z</time>
      </trkpt>
      <trkpt lat="47.70797" lon="6.82792">
        <ele>425.4</ele>
        <time>2026-08-23T09:45:28.000Z</time>
      </trkpt>
      <trkpt lat="47.70809" lon="6.82794">
        <ele>425.4</ele>
        <time>2026-08-23T09:45:30.000Z</time>
      </trkpt>
      <trkpt lat="47.70822" lon="6.82796">
        <ele>425.6</ele>
        <time>2026-08-23T09:45:32.000Z</time>
      </trkpt>
      <trkpt lat="47.70835" lon="6.82797">
        <ele>425.6</ele>
        <time>2026-08-23T09:45:34.000Z</time>
      </trkpt>
      <trkpt lat="47.70848" lon="6.82799">
        <ele>425.8</ele>
        <time>2026-08-23T09:45:36.000Z</time>
      </trkpt>
      <trkpt lat="47.70861" lon="6.828">
        <ele>426</ele>
        <time>2026-08-23T09:45:38.000Z</time>
      </trkpt>
      <trkpt lat="47.70874" lon="6.82802">
        <ele>426</ele>
        <time>2026-08-23T09:45:40.000Z</time>
      </trkpt>
      <trkpt lat="47.70887" lon="6.82803">
        <ele>426</ele>
        <time>2026-08-23T09:45:43.000Z</time>
      </trkpt>
      <trkpt lat="47.709" lon="6.82805">
        <ele>426</ele>
        <time>2026-08-23T09:45:45.000Z</time>
      </trkpt>
      <trkpt lat="47.70912" lon="6.82807">
        <ele>426.2</ele>
        <time>2026-08-23T09:45:47.000Z</time>
      </trkpt>
      <trkpt lat="47.70925" lon="6.82808">
        <ele>426.2</ele>
        <time>2026-08-23T09:45:49.000Z</time>
      </trkpt>
      <trkpt lat="47.70938" lon="6.8281">
        <ele>426.2</ele>
        <time>2026-08-23T09:45:51.000Z</time>
      </trkpt>
      <trkpt lat="47.7095" lon="6.82811">
        <ele>426.4</ele>
        <time>2026-08-23T09:45:53.000Z</time>
      </trkpt>
      <trkpt lat="47.70962" lon="6.82813">
        <ele>426.6</ele>
        <time>2026-08-23T09:45:55.000Z</time>
      </trkpt>
      <trkpt lat="47.70972" lon="6.82813">
        <ele>427</ele>
        <time>2026-08-23T09:45:57.000Z</time>
      </trkpt>
      <trkpt lat="47.70981" lon="6.82813">
        <ele>427.2</ele>
        <time>2026-08-23T09:45:59.000Z</time>
      </trkpt>
      <trkpt lat="47.70989" lon="6.82815">
        <ele>427.2</ele>
        <time>2026-08-23T09:46:01.000Z</time>
      </trkpt>
      <trkpt lat="47.70996" lon="6.82817">
        <ele>427.4</ele>
        <time>2026-08-23T09:46:03.000Z</time>
      </trkpt>
      <trkpt lat="47.71005" lon="6.82819">
        <ele>427.6</ele>
        <time>2026-08-23T09:46:05.000Z</time>
      </trkpt>
      <trkpt lat="47.71015" lon="6.8282">
        <ele>427.8</ele>
        <time>2026-08-23T09:46:07.000Z</time>
      </trkpt>
      <trkpt lat="47.71027" lon="6.82822">
        <ele>427.8</ele>
        <time>2026-08-23T09:46:09.000Z</time>
      </trkpt>
      <trkpt lat="47.71039" lon="6.82825">
        <ele>428</ele>
        <time>2026-08-23T09:46:11.000Z</time>
      </trkpt>
      <trkpt lat="47.71051" lon="6.82828">
        <ele>428.2</ele>
        <time>2026-08-23T09:46:13.000Z</time>
      </trkpt>
      <trkpt lat="47.71062" lon="6.82833">
        <ele>428.4</ele>
        <time>2026-08-23T09:46:15.000Z</time>
      </trkpt>
      <trkpt lat="47.71073" lon="6.8284">
        <ele>428.6</ele>
        <time>2026-08-23T09:46:17.000Z</time>
      </trkpt>
      <trkpt lat="47.71084" lon="6.82845">
        <ele>428.8</ele>
        <time>2026-08-23T09:46:19.000Z</time>
      </trkpt>
      <trkpt lat="47.71096" lon="6.82848">
        <ele>429</ele>
        <time>2026-08-23T09:46:21.000Z</time>
      </trkpt>
      <trkpt lat="47.71108" lon="6.82848">
        <ele>429.2</ele>
        <time>2026-08-23T09:46:23.000Z</time>
      </trkpt>
      <trkpt lat="47.7112" lon="6.82847">
        <ele>429.2</ele>
        <time>2026-08-23T09:46:25.000Z</time>
      </trkpt>
      <trkpt lat="47.71132" lon="6.82845">
        <ele>429.4</ele>
        <time>2026-08-23T09:46:27.000Z</time>
      </trkpt>
      <trkpt lat="47.71144" lon="6.82845">
        <ele>429.6</ele>
        <time>2026-08-23T09:46:29.000Z</time>
      </trkpt>
      <trkpt lat="47.71156" lon="6.82846">
        <ele>429.8</ele>
        <time>2026-08-23T09:46:31.000Z</time>
      </trkpt>
      <trkpt lat="47.71167" lon="6.82849">
        <ele>430</ele>
        <time>2026-08-23T09:46:33.000Z</time>
      </trkpt>
      <trkpt lat="47.71179" lon="6.82853">
        <ele>430.2</ele>
        <time>2026-08-23T09:46:35.000Z</time>
      </trkpt>
      <trkpt lat="47.7119" lon="6.82858">
        <ele>430.4</ele>
        <time>2026-08-23T09:46:37.000Z</time>
      </trkpt>
      <trkpt lat="47.71202" lon="6.82863">
        <ele>430.6</ele>
        <time>2026-08-23T09:46:39.000Z</time>
      </trkpt>
      <trkpt lat="47.71213" lon="6.82867">
        <ele>430.8</ele>
        <time>2026-08-23T09:46:41.000Z</time>
      </trkpt>
      <trkpt lat="47.71225" lon="6.82872">
        <ele>431</ele>
        <time>2026-08-23T09:46:43.000Z</time>
      </trkpt>
      <trkpt lat="47.71239" lon="6.82879">
        <ele>431.2</ele>
        <time>2026-08-23T09:46:45.000Z</time>
      </trkpt>
      <trkpt lat="47.71253" lon="6.82888">
        <ele>431.4</ele>
        <time>2026-08-23T09:46:47.000Z</time>
      </trkpt>
      <trkpt lat="47.71264" lon="6.82897">
        <ele>431.8</ele>
        <time>2026-08-23T09:46:49.000Z</time>
      </trkpt>
      <trkpt lat="47.71274" lon="6.82903">
        <ele>432</ele>
        <time>2026-08-23T09:46:51.000Z</time>
      </trkpt>
      <trkpt lat="47.71285" lon="6.8291">
        <ele>432.2</ele>
        <time>2026-08-23T09:46:53.000Z</time>
      </trkpt>
      <trkpt lat="47.71295" lon="6.82916">
        <ele>432.4</ele>
        <time>2026-08-23T09:46:55.000Z</time>
      </trkpt>
      <trkpt lat="47.71306" lon="6.82923">
        <ele>432.4</ele>
        <time>2026-08-23T09:46:57.000Z</time>
      </trkpt>
      <trkpt lat="47.71317" lon="6.82929">
        <ele>432.6</ele>
        <time>2026-08-23T09:46:59.000Z</time>
      </trkpt>
      <trkpt lat="47.71328" lon="6.82935">
        <ele>432.6</ele>
        <time>2026-08-23T09:47:01.000Z</time>
      </trkpt>
      <trkpt lat="47.7134" lon="6.82941">
        <ele>432.8</ele>
        <time>2026-08-23T09:47:03.000Z</time>
      </trkpt>
      <trkpt lat="47.71351" lon="6.82945">
        <ele>433</ele>
        <time>2026-08-23T09:47:05.000Z</time>
      </trkpt>
      <trkpt lat="47.71363" lon="6.82946">
        <ele>433.2</ele>
        <time>2026-08-23T09:47:07.000Z</time>
      </trkpt>
      <trkpt lat="47.71375" lon="6.82947">
        <ele>433.4</ele>
        <time>2026-08-23T09:47:09.000Z</time>
      </trkpt>
      <trkpt lat="47.71387" lon="6.82946">
        <ele>433.4</ele>
        <time>2026-08-23T09:47:11.000Z</time>
      </trkpt>
      <trkpt lat="47.71399" lon="6.82947">
        <ele>433.6</ele>
        <time>2026-08-23T09:47:13.000Z</time>
      </trkpt>
      <trkpt lat="47.71411" lon="6.82948">
        <ele>433.8</ele>
        <time>2026-08-23T09:47:15.000Z</time>
      </trkpt>
      <trkpt lat="47.71422" lon="6.8295">
        <ele>434</ele>
        <time>2026-08-23T09:47:17.000Z</time>
      </trkpt>
      <trkpt lat="47.71434" lon="6.82954">
        <ele>434</ele>
        <time>2026-08-23T09:47:19.000Z</time>
      </trkpt>
      <trkpt lat="47.71445" lon="6.8296">
        <ele>434.2</ele>
        <time>2026-08-23T09:47:22.000Z</time>
      </trkpt>
      <trkpt lat="47.71456" lon="6.82965">
        <ele>434.4</ele>
        <time>2026-08-23T09:47:24.000Z</time>
      </trkpt>
      <trkpt lat="47.71467" lon="6.82971">
        <ele>434.6</ele>
        <time>2026-08-23T09:47:26.000Z</time>
      </trkpt>
      <trkpt lat="47.71479" lon="6.82976">
        <ele>434.8</ele>
        <time>2026-08-23T09:47:28.000Z</time>
      </trkpt>
      <trkpt lat="47.7149" lon="6.82981">
        <ele>435</ele>
        <time>2026-08-23T09:47:30.000Z</time>
      </trkpt>
      <trkpt lat="47.71502" lon="6.82985">
        <ele>435.2</ele>
        <time>2026-08-23T09:47:32.000Z</time>
      </trkpt>
      <trkpt lat="47.71513" lon="6.8299">
        <ele>435.4</ele>
        <time>2026-08-23T09:47:34.000Z</time>
      </trkpt>
      <trkpt lat="47.71525" lon="6.82994">
        <ele>435.6</ele>
        <time>2026-08-23T09:47:36.000Z</time>
      </trkpt>
      <trkpt lat="47.71537" lon="6.82998">
        <ele>435.8</ele>
        <time>2026-08-23T09:47:38.000Z</time>
      </trkpt>
      <trkpt lat="47.71548" lon="6.83001">
        <ele>436</ele>
        <time>2026-08-23T09:47:40.000Z</time>
      </trkpt>
      <trkpt lat="47.7156" lon="6.83002">
        <ele>436.2</ele>
        <time>2026-08-23T09:47:42.000Z</time>
      </trkpt>
      <trkpt lat="47.71572" lon="6.83002">
        <ele>436.4</ele>
        <time>2026-08-23T09:47:44.000Z</time>
      </trkpt>
      <trkpt lat="47.71584" lon="6.83002">
        <ele>436.6</ele>
        <time>2026-08-23T09:47:46.000Z</time>
      </trkpt>
      <trkpt lat="47.71596" lon="6.83002">
        <ele>436.8</ele>
        <time>2026-08-23T09:47:48.000Z</time>
      </trkpt>
      <trkpt lat="47.71608" lon="6.83002">
        <ele>437</ele>
        <time>2026-08-23T09:47:50.000Z</time>
      </trkpt>
      <trkpt lat="47.71619" lon="6.83002">
        <ele>437</ele>
        <time>2026-08-23T09:47:52.000Z</time>
      </trkpt>
      <trkpt lat="47.71631" lon="6.83001">
        <ele>437.2</ele>
        <time>2026-08-23T09:47:54.000Z</time>
      </trkpt>
      <trkpt lat="47.71643" lon="6.83001">
        <ele>437.2</ele>
        <time>2026-08-23T09:47:56.000Z</time>
      </trkpt>
      <trkpt lat="47.71655" lon="6.83">
        <ele>437.4</ele>
        <time>2026-08-23T09:47:58.000Z</time>
      </trkpt>
      <trkpt lat="47.71669" lon="6.83">
        <ele>437.6</ele>
        <time>2026-08-23T09:48:00.000Z</time>
      </trkpt>
      <trkpt lat="47.71682" lon="6.82999">
        <ele>437.8</ele>
        <time>2026-08-23T09:48:02.000Z</time>
      </trkpt>
      <trkpt lat="47.71697" lon="6.82999">
        <ele>438</ele>
        <time>2026-08-23T09:48:04.000Z</time>
      </trkpt>
      <trkpt lat="47.71709" lon="6.82999">
        <ele>438.2</ele>
        <time>2026-08-23T09:48:06.000Z</time>
      </trkpt>
      <trkpt lat="47.71721" lon="6.82998">
        <ele>438.4</ele>
        <time>2026-08-23T09:48:08.000Z</time>
      </trkpt>
      <trkpt lat="47.71733" lon="6.82998">
        <ele>438.6</ele>
        <time>2026-08-23T09:48:10.000Z</time>
      </trkpt>
      <trkpt lat="47.71744" lon="6.82997">
        <ele>438.8</ele>
        <time>2026-08-23T09:48:12.000Z</time>
      </trkpt>
      <trkpt lat="47.71756" lon="6.82996">
        <ele>439</ele>
        <time>2026-08-23T09:48:14.000Z</time>
      </trkpt>
      <trkpt lat="47.71768" lon="6.82995">
        <ele>439.2</ele>
        <time>2026-08-23T09:48:16.000Z</time>
      </trkpt>
      <trkpt lat="47.7178" lon="6.82995">
        <ele>439.2</ele>
        <time>2026-08-23T09:48:18.000Z</time>
      </trkpt>
      <trkpt lat="47.71792" lon="6.82993">
        <ele>439.4</ele>
        <time>2026-08-23T09:48:20.000Z</time>
      </trkpt>
      <trkpt lat="47.71803" lon="6.82992">
        <ele>439.6</ele>
        <time>2026-08-23T09:48:22.000Z</time>
      </trkpt>
      <trkpt lat="47.71815" lon="6.82991">
        <ele>439.8</ele>
        <time>2026-08-23T09:48:24.000Z</time>
      </trkpt>
      <trkpt lat="47.71827" lon="6.8299">
        <ele>440</ele>
        <time>2026-08-23T09:48:26.000Z</time>
      </trkpt>
      <trkpt lat="47.71838" lon="6.82989">
        <ele>440.2</ele>
        <time>2026-08-23T09:48:28.000Z</time>
      </trkpt>
      <trkpt lat="47.7185" lon="6.8299">
        <ele>440.4</ele>
        <time>2026-08-23T09:48:30.000Z</time>
      </trkpt>
      <trkpt lat="47.71861" lon="6.82991">
        <ele>440.4</ele>
        <time>2026-08-23T09:48:32.000Z</time>
      </trkpt>
      <trkpt lat="47.71873" lon="6.82992">
        <ele>440.8</ele>
        <time>2026-08-23T09:48:34.000Z</time>
      </trkpt>
      <trkpt lat="47.71885" lon="6.82992">
        <ele>440.8</ele>
        <time>2026-08-23T09:48:36.000Z</time>
      </trkpt>
      <trkpt lat="47.71897" lon="6.82992">
        <ele>441</ele>
        <time>2026-08-23T09:48:38.000Z</time>
      </trkpt>
      <trkpt lat="47.71909" lon="6.82993">
        <ele>441</ele>
        <time>2026-08-23T09:48:40.000Z</time>
      </trkpt>
      <trkpt lat="47.71921" lon="6.82995">
        <ele>441.2</ele>
        <time>2026-08-23T09:48:42.000Z</time>
      </trkpt>
      <trkpt lat="47.71932" lon="6.82998">
        <ele>441.4</ele>
        <time>2026-08-23T09:48:44.000Z</time>
      </trkpt>
      <trkpt lat="47.71944" lon="6.83002">
        <ele>441.6</ele>
        <time>2026-08-23T09:48:46.000Z</time>
      </trkpt>
      <trkpt lat="47.71955" lon="6.83005">
        <ele>442</ele>
        <time>2026-08-23T09:48:48.000Z</time>
      </trkpt>
      <trkpt lat="47.71966" lon="6.8301">
        <ele>442.2</ele>
        <time>2026-08-23T09:48:51.000Z</time>
      </trkpt>
      <trkpt lat="47.71977" lon="6.83014">
        <ele>442.4</ele>
        <time>2026-08-23T09:48:53.000Z</time>
      </trkpt>
      <trkpt lat="47.71988" lon="6.83018">
        <ele>442.6</ele>
        <time>2026-08-23T09:48:55.000Z</time>
      </trkpt>
      <trkpt lat="47.71999" lon="6.83023">
        <ele>442.8</ele>
        <time>2026-08-23T09:48:57.000Z</time>
      </trkpt>
      <trkpt lat="47.72011" lon="6.83027">
        <ele>442.8</ele>
        <time>2026-08-23T09:48:59.000Z</time>
      </trkpt>
      <trkpt lat="47.72022" lon="6.83033">
        <ele>443</ele>
        <time>2026-08-23T09:49:01.000Z</time>
      </trkpt>
      <trkpt lat="47.72033" lon="6.8304">
        <ele>443.2</ele>
        <time>2026-08-23T09:49:03.000Z</time>
      </trkpt>
      <trkpt lat="47.72044" lon="6.83047">
        <ele>443.4</ele>
        <time>2026-08-23T09:49:05.000Z</time>
      </trkpt>
      <trkpt lat="47.72054" lon="6.83055">
        <ele>443.8</ele>
        <time>2026-08-23T09:49:07.000Z</time>
      </trkpt>
      <trkpt lat="47.72065" lon="6.8306">
        <ele>444</ele>
        <time>2026-08-23T09:49:09.000Z</time>
      </trkpt>
      <trkpt lat="47.72077" lon="6.83064">
        <ele>444.4</ele>
        <time>2026-08-23T09:49:11.000Z</time>
      </trkpt>
      <trkpt lat="47.72089" lon="6.83069">
        <ele>444.6</ele>
        <time>2026-08-23T09:49:13.000Z</time>
      </trkpt>
      <trkpt lat="47.721" lon="6.83073">
        <ele>444.6</ele>
        <time>2026-08-23T09:49:15.000Z</time>
      </trkpt>
      <trkpt lat="47.72112" lon="6.83078">
        <ele>444.8</ele>
        <time>2026-08-23T09:49:17.000Z</time>
      </trkpt>
      <trkpt lat="47.72123" lon="6.83082">
        <ele>445</ele>
        <time>2026-08-23T09:49:19.000Z</time>
      </trkpt>
      <trkpt lat="47.72135" lon="6.83085">
        <ele>445.2</ele>
        <time>2026-08-23T09:49:21.000Z</time>
      </trkpt>
      <trkpt lat="47.72147" lon="6.83087">
        <ele>445.4</ele>
        <time>2026-08-23T09:49:23.000Z</time>
      </trkpt>
      <trkpt lat="47.72159" lon="6.83088">
        <ele>445.6</ele>
        <time>2026-08-23T09:49:25.000Z</time>
      </trkpt>
      <trkpt lat="47.7217" lon="6.83089">
        <ele>446</ele>
        <time>2026-08-23T09:49:27.000Z</time>
      </trkpt>
      <trkpt lat="47.72181" lon="6.83088">
        <ele>446.2</ele>
        <time>2026-08-23T09:49:29.000Z</time>
      </trkpt>
      <trkpt lat="47.72192" lon="6.83087">
        <ele>446.4</ele>
        <time>2026-08-23T09:49:31.000Z</time>
      </trkpt>
      <trkpt lat="47.72204" lon="6.83085">
        <ele>446.6</ele>
        <time>2026-08-23T09:49:33.000Z</time>
      </trkpt>
      <trkpt lat="47.72215" lon="6.83082">
        <ele>446.6</ele>
        <time>2026-08-23T09:49:35.000Z</time>
      </trkpt>
      <trkpt lat="47.72227" lon="6.83081">
        <ele>446.8</ele>
        <time>2026-08-23T09:49:37.000Z</time>
      </trkpt>
      <trkpt lat="47.72243" lon="6.8308">
        <ele>446.8</ele>
        <time>2026-08-23T09:49:39.000Z</time>
      </trkpt>
      <trkpt lat="47.72256" lon="6.8308">
        <ele>447</ele>
        <time>2026-08-23T09:49:41.000Z</time>
      </trkpt>
      <trkpt lat="47.72267" lon="6.83081">
        <ele>447.2</ele>
        <time>2026-08-23T09:49:43.000Z</time>
      </trkpt>
      <trkpt lat="47.72278" lon="6.83082">
        <ele>447.4</ele>
        <time>2026-08-23T09:49:45.000Z</time>
      </trkpt>
      <trkpt lat="47.72289" lon="6.83084">
        <ele>447.6</ele>
        <time>2026-08-23T09:49:47.000Z</time>
      </trkpt>
      <trkpt lat="47.723" lon="6.83086">
        <ele>447.6</ele>
        <time>2026-08-23T09:49:49.000Z</time>
      </trkpt>
      <trkpt lat="47.72312" lon="6.83088">
        <ele>447.8</ele>
        <time>2026-08-23T09:49:51.000Z</time>
      </trkpt>
      <trkpt lat="47.72323" lon="6.8309">
        <ele>448</ele>
        <time>2026-08-23T09:49:53.000Z</time>
      </trkpt>
      <trkpt lat="47.72335" lon="6.83091">
        <ele>448.2</ele>
        <time>2026-08-23T09:49:55.000Z</time>
      </trkpt>
      <trkpt lat="47.72347" lon="6.83093">
        <ele>448.2</ele>
        <time>2026-08-23T09:49:57.000Z</time>
      </trkpt>
      <trkpt lat="47.72358" lon="6.83093">
        <ele>448.6</ele>
        <time>2026-08-23T09:49:59.000Z</time>
      </trkpt>
      <trkpt lat="47.7237" lon="6.83093">
        <ele>448.8</ele>
        <time>2026-08-23T09:50:01.000Z</time>
      </trkpt>
      <trkpt lat="47.72382" lon="6.83093">
        <ele>449</ele>
        <time>2026-08-23T09:50:03.000Z</time>
      </trkpt>
      <trkpt lat="47.72393" lon="6.83093">
        <ele>449.2</ele>
        <time>2026-08-23T09:50:05.000Z</time>
      </trkpt>
      <trkpt lat="47.72405" lon="6.83091">
        <ele>449.4</ele>
        <time>2026-08-23T09:50:07.000Z</time>
      </trkpt>
      <trkpt lat="47.72417" lon="6.8309">
        <ele>449.4</ele>
        <time>2026-08-23T09:50:09.000Z</time>
      </trkpt>
      <trkpt lat="47.72429" lon="6.83089">
        <ele>449.6</ele>
        <time>2026-08-23T09:50:11.000Z</time>
      </trkpt>
      <trkpt lat="47.72441" lon="6.83087">
        <ele>449.8</ele>
        <time>2026-08-23T09:50:13.000Z</time>
      </trkpt>
      <trkpt lat="47.72453" lon="6.83085">
        <ele>450</ele>
        <time>2026-08-23T09:50:15.000Z</time>
      </trkpt>
      <trkpt lat="47.72464" lon="6.83084">
        <ele>450.2</ele>
        <time>2026-08-23T09:50:17.000Z</time>
      </trkpt>
      <trkpt lat="47.72476" lon="6.83083">
        <ele>450.4</ele>
        <time>2026-08-23T09:50:19.000Z</time>
      </trkpt>
      <trkpt lat="47.72488" lon="6.83081">
        <ele>450.6</ele>
        <time>2026-08-23T09:50:22.000Z</time>
      </trkpt>
      <trkpt lat="47.725" lon="6.83081">
        <ele>450.8</ele>
        <time>2026-08-23T09:50:24.000Z</time>
      </trkpt>
      <trkpt lat="47.72511" lon="6.83081">
        <ele>451</ele>
        <time>2026-08-23T09:50:26.000Z</time>
      </trkpt>
      <trkpt lat="47.72522" lon="6.83084">
        <ele>451.2</ele>
        <time>2026-08-23T09:50:28.000Z</time>
      </trkpt>
      <trkpt lat="47.72533" lon="6.83088">
        <ele>451.6</ele>
        <time>2026-08-23T09:50:30.000Z</time>
      </trkpt>
      <trkpt lat="47.72542" lon="6.83093">
        <ele>451.8</ele>
        <time>2026-08-23T09:50:32.000Z</time>
      </trkpt>
      <trkpt lat="47.7255" lon="6.83098">
        <ele>452.2</ele>
        <time>2026-08-23T09:50:34.000Z</time>
      </trkpt>
      <trkpt lat="47.72555" lon="6.83099">
        <ele>452.4</ele>
        <time>2026-08-23T09:50:36.000Z</time>
      </trkpt>
      <trkpt lat="47.7256" lon="6.83095">
        <ele>452.6</ele>
        <time>2026-08-23T09:50:38.000Z</time>
      </trkpt>
      <trkpt lat="47.72564" lon="6.8309">
        <ele>452.6</ele>
        <time>2026-08-23T09:50:40.000Z</time>
      </trkpt>
      <trkpt lat="47.72572" lon="6.83089">
        <ele>452.6</ele>
        <time>2026-08-23T09:50:42.000Z</time>
      </trkpt>
      <trkpt lat="47.72581" lon="6.8309">
        <ele>452.6</ele>
        <time>2026-08-23T09:50:44.000Z</time>
      </trkpt>
      <trkpt lat="47.72592" lon="6.8309">
        <ele>452.6</ele>
        <time>2026-08-23T09:50:46.000Z</time>
      </trkpt>
      <trkpt lat="47.72602" lon="6.83089">
        <ele>452.8</ele>
        <time>2026-08-23T09:50:48.000Z</time>
      </trkpt>
      <trkpt lat="47.72612" lon="6.83087">
        <ele>453</ele>
        <time>2026-08-23T09:50:50.000Z</time>
      </trkpt>
      <trkpt lat="47.72621" lon="6.83086">
        <ele>453</ele>
        <time>2026-08-23T09:50:52.000Z</time>
      </trkpt>
      <trkpt lat="47.72631" lon="6.83084">
        <ele>453.2</ele>
        <time>2026-08-23T09:50:54.000Z</time>
      </trkpt>
      <trkpt lat="47.72642" lon="6.83082">
        <ele>453.2</ele>
        <time>2026-08-23T09:50:56.000Z</time>
      </trkpt>
      <trkpt lat="47.72652" lon="6.8308">
        <ele>453.2</ele>
        <time>2026-08-23T09:50:58.000Z</time>
      </trkpt>
      <trkpt lat="47.72666" lon="6.83077">
        <ele>453.4</ele>
        <time>2026-08-23T09:51:00.000Z</time>
      </trkpt>
      <trkpt lat="47.72681" lon="6.83075">
        <ele>453.4</ele>
        <time>2026-08-23T09:51:02.000Z</time>
      </trkpt>
      <trkpt lat="47.72694" lon="6.83073">
        <ele>453.6</ele>
        <time>2026-08-23T09:51:04.000Z</time>
      </trkpt>
      <trkpt lat="47.72705" lon="6.8307">
        <ele>453.8</ele>
        <time>2026-08-23T09:51:06.000Z</time>
      </trkpt>
      <trkpt lat="47.72716" lon="6.83068">
        <ele>453.8</ele>
        <time>2026-08-23T09:51:08.000Z</time>
      </trkpt>
      <trkpt lat="47.72727" lon="6.83066">
        <ele>454</ele>
        <time>2026-08-23T09:51:10.000Z</time>
      </trkpt>
      <trkpt lat="47.72739" lon="6.83064">
        <ele>454.2</ele>
        <time>2026-08-23T09:51:12.000Z</time>
      </trkpt>
      <trkpt lat="47.7275" lon="6.83061">
        <ele>454.4</ele>
        <time>2026-08-23T09:51:14.000Z</time>
      </trkpt>
      <trkpt lat="47.72761" lon="6.83059">
        <ele>454.4</ele>
        <time>2026-08-23T09:51:16.000Z</time>
      </trkpt>
      <trkpt lat="47.72773" lon="6.83057">
        <ele>454.6</ele>
        <time>2026-08-23T09:51:18.000Z</time>
      </trkpt>
      <trkpt lat="47.72785" lon="6.83056">
        <ele>454.8</ele>
        <time>2026-08-23T09:51:20.000Z</time>
      </trkpt>
      <trkpt lat="47.72797" lon="6.83056">
        <ele>455</ele>
        <time>2026-08-23T09:51:22.000Z</time>
      </trkpt>
      <trkpt lat="47.72808" lon="6.83057">
        <ele>455.4</ele>
        <time>2026-08-23T09:51:24.000Z</time>
      </trkpt>
      <trkpt lat="47.7282" lon="6.83059">
        <ele>455.4</ele>
        <time>2026-08-23T09:51:26.000Z</time>
      </trkpt>
      <trkpt lat="47.72832" lon="6.83061">
        <ele>455.6</ele>
        <time>2026-08-23T09:51:28.000Z</time>
      </trkpt>
      <trkpt lat="47.72844" lon="6.83063">
        <ele>455.8</ele>
        <time>2026-08-23T09:51:30.000Z</time>
      </trkpt>
      <trkpt lat="47.72856" lon="6.83065">
        <ele>456</ele>
        <time>2026-08-23T09:51:32.000Z</time>
      </trkpt>
      <trkpt lat="47.72867" lon="6.83065">
        <ele>456.2</ele>
        <time>2026-08-23T09:51:34.000Z</time>
      </trkpt>
      <trkpt lat="47.72879" lon="6.83066">
        <ele>456.4</ele>
        <time>2026-08-23T09:51:36.000Z</time>
      </trkpt>
      <trkpt lat="47.7289" lon="6.83064">
        <ele>456.6</ele>
        <time>2026-08-23T09:51:38.000Z</time>
      </trkpt>
      <trkpt lat="47.72902" lon="6.83062">
        <ele>456.6</ele>
        <time>2026-08-23T09:51:41.000Z</time>
      </trkpt>
      <trkpt lat="47.72914" lon="6.83059">
        <ele>456.8</ele>
        <time>2026-08-23T09:51:43.000Z</time>
      </trkpt>
      <trkpt lat="47.72926" lon="6.83057">
        <ele>456.8</ele>
        <time>2026-08-23T09:51:45.000Z</time>
      </trkpt>
      <trkpt lat="47.72938" lon="6.83056">
        <ele>457</ele>
        <time>2026-08-23T09:51:47.000Z</time>
      </trkpt>
      <trkpt lat="47.7295" lon="6.83058">
        <ele>457</ele>
        <time>2026-08-23T09:51:49.000Z</time>
      </trkpt>
      <trkpt lat="47.72961" lon="6.83059">
        <ele>457.4</ele>
        <time>2026-08-23T09:51:51.000Z</time>
      </trkpt>
      <trkpt lat="47.72973" lon="6.8306">
        <ele>457.6</ele>
        <time>2026-08-23T09:51:53.000Z</time>
      </trkpt>
      <trkpt lat="47.72985" lon="6.8306">
        <ele>457.8</ele>
        <time>2026-08-23T09:51:55.000Z</time>
      </trkpt>
      <trkpt lat="47.72997" lon="6.8306">
        <ele>458.2</ele>
        <time>2026-08-23T09:51:57.000Z</time>
      </trkpt>
      <trkpt lat="47.73009" lon="6.8306">
        <ele>458.6</ele>
        <time>2026-08-23T09:51:59.000Z</time>
      </trkpt>
      <trkpt lat="47.7302" lon="6.83059">
        <ele>459</ele>
        <time>2026-08-23T09:52:01.000Z</time>
      </trkpt>
      <trkpt lat="47.73032" lon="6.83059">
        <ele>459.4</ele>
        <time>2026-08-23T09:52:03.000Z</time>
      </trkpt>
      <trkpt lat="47.73043" lon="6.83059">
        <ele>459.6</ele>
        <time>2026-08-23T09:52:05.000Z</time>
      </trkpt>
      <trkpt lat="47.73055" lon="6.83059">
        <ele>459.8</ele>
        <time>2026-08-23T09:52:07.000Z</time>
      </trkpt>
      <trkpt lat="47.73067" lon="6.83059">
        <ele>460.2</ele>
        <time>2026-08-23T09:52:09.000Z</time>
      </trkpt>
      <trkpt lat="47.73078" lon="6.83059">
        <ele>460.6</ele>
        <time>2026-08-23T09:52:11.000Z</time>
      </trkpt>
      <trkpt lat="47.73088" lon="6.83058">
        <ele>461</ele>
        <time>2026-08-23T09:52:13.000Z</time>
      </trkpt>
      <trkpt lat="47.73098" lon="6.83057">
        <ele>461.2</ele>
        <time>2026-08-23T09:52:15.000Z</time>
      </trkpt>
      <trkpt lat="47.73107" lon="6.83056">
        <ele>461.6</ele>
        <time>2026-08-23T09:52:17.000Z</time>
      </trkpt>
      <trkpt lat="47.73113" lon="6.83057">
        <ele>462</ele>
        <time>2026-08-23T09:52:19.000Z</time>
      </trkpt>
      <trkpt lat="47.73114" lon="6.83057">
        <ele>462.2</ele>
        <time>2026-08-23T09:52:21.000Z</time>
      </trkpt>
      <trkpt lat="47.73114" lon="6.83057">
        <ele>462.4</ele>
        <time>2026-08-23T09:52:23.000Z</time>
      </trkpt>
      <trkpt lat="47.73113" lon="6.83057">
        <ele>462.4</ele>
        <time>2026-08-23T09:52:25.000Z</time>
      </trkpt>
      <trkpt lat="47.73113" lon="6.83058">
        <ele>462.4</ele>
        <time>2026-08-23T09:52:27.000Z</time>
      </trkpt>
      <trkpt lat="47.73115" lon="6.83063">
        <ele>462.4</ele>
        <time>2026-08-23T09:52:29.000Z</time>
      </trkpt>
      <trkpt lat="47.73117" lon="6.83072">
        <ele>462.6</ele>
        <time>2026-08-23T09:52:31.000Z</time>
      </trkpt>
      <trkpt lat="47.73118" lon="6.83082">
        <ele>462.6</ele>
        <time>2026-08-23T09:52:33.000Z</time>
      </trkpt>
      <trkpt lat="47.73123" lon="6.83094">
        <ele>462.4</ele>
        <time>2026-08-23T09:52:35.000Z</time>
      </trkpt>
      <trkpt lat="47.73128" lon="6.83108">
        <ele>462</ele>
        <time>2026-08-23T09:52:37.000Z</time>
      </trkpt>
      <trkpt lat="47.73129" lon="6.83126">
        <ele>461.6</ele>
        <time>2026-08-23T09:52:39.000Z</time>
      </trkpt>
      <trkpt lat="47.73124" lon="6.83144">
        <ele>460.6</ele>
        <time>2026-08-23T09:52:41.000Z</time>
      </trkpt>
      <trkpt lat="47.73115" lon="6.83161">
        <ele>459.8</ele>
        <time>2026-08-23T09:52:43.000Z</time>
      </trkpt>
      <trkpt lat="47.73108" lon="6.8318">
        <ele>459.2</ele>
        <time>2026-08-23T09:52:45.000Z</time>
      </trkpt>
      <trkpt lat="47.73108" lon="6.83201">
        <ele>458.8</ele>
        <time>2026-08-23T09:52:47.000Z</time>
      </trkpt>
      <trkpt lat="47.73113" lon="6.8322">
        <ele>458.6</ele>
        <time>2026-08-23T09:52:49.000Z</time>
      </trkpt>
      <trkpt lat="47.73126" lon="6.83232">
        <ele>458.6</ele>
        <time>2026-08-23T09:52:51.000Z</time>
      </trkpt>
      <trkpt lat="47.73141" lon="6.83234">
        <ele>458.6</ele>
        <time>2026-08-23T09:52:53.000Z</time>
      </trkpt>
      <trkpt lat="47.73156" lon="6.8323">
        <ele>458.8</ele>
        <time>2026-08-23T09:52:55.000Z</time>
      </trkpt>
      <trkpt lat="47.7317" lon="6.83226">
        <ele>458.6</ele>
        <time>2026-08-23T09:52:57.000Z</time>
      </trkpt>
      <trkpt lat="47.73183" lon="6.83222">
        <ele>458.8</ele>
        <time>2026-08-23T09:52:59.000Z</time>
      </trkpt>
      <trkpt lat="47.73196" lon="6.8322">
        <ele>459</ele>
        <time>2026-08-23T09:53:01.000Z</time>
      </trkpt>
      <trkpt lat="47.7321" lon="6.83219">
        <ele>458.8</ele>
        <time>2026-08-23T09:53:03.000Z</time>
      </trkpt>
      <trkpt lat="47.73223" lon="6.83218">
        <ele>458.8</ele>
        <time>2026-08-23T09:53:05.000Z</time>
      </trkpt>
      <trkpt lat="47.73237" lon="6.83217">
        <ele>459</ele>
        <time>2026-08-23T09:53:07.000Z</time>
      </trkpt>
      <trkpt lat="47.7325" lon="6.83216">
        <ele>459</ele>
        <time>2026-08-23T09:53:09.000Z</time>
      </trkpt>
      <trkpt lat="47.73263" lon="6.83215">
        <ele>459.2</ele>
        <time>2026-08-23T09:53:12.000Z</time>
      </trkpt>
      <trkpt lat="47.73276" lon="6.83213">
        <ele>459.4</ele>
        <time>2026-08-23T09:53:14.000Z</time>
      </trkpt>
      <trkpt lat="47.73289" lon="6.8321">
        <ele>459.4</ele>
        <time>2026-08-23T09:53:16.000Z</time>
      </trkpt>
      <trkpt lat="47.73302" lon="6.83207">
        <ele>459.6</ele>
        <time>2026-08-23T09:53:18.000Z</time>
      </trkpt>
      <trkpt lat="47.73315" lon="6.83204">
        <ele>459.6</ele>
        <time>2026-08-23T09:53:20.000Z</time>
      </trkpt>
      <trkpt lat="47.73326" lon="6.83203">
        <ele>460</ele>
        <time>2026-08-23T09:53:22.000Z</time>
      </trkpt>
      <trkpt lat="47.73336" lon="6.83204">
        <ele>460.4</ele>
        <time>2026-08-23T09:53:24.000Z</time>
      </trkpt>
      <trkpt lat="47.73346" lon="6.83209">
        <ele>460.8</ele>
        <time>2026-08-23T09:53:26.000Z</time>
      </trkpt>
      <trkpt lat="47.73356" lon="6.83214">
        <ele>460.8</ele>
        <time>2026-08-23T09:53:28.000Z</time>
      </trkpt>
      <trkpt lat="47.73367" lon="6.83218">
        <ele>461</ele>
        <time>2026-08-23T09:53:30.000Z</time>
      </trkpt>
      <trkpt lat="47.73379" lon="6.8322">
        <ele>461.2</ele>
        <time>2026-08-23T09:53:32.000Z</time>
      </trkpt>
      <trkpt lat="47.73391" lon="6.83221">
        <ele>461.2</ele>
        <time>2026-08-23T09:53:34.000Z</time>
      </trkpt>
      <trkpt lat="47.73403" lon="6.83221">
        <ele>461.2</ele>
        <time>2026-08-23T09:53:36.000Z</time>
      </trkpt>
      <trkpt lat="47.73415" lon="6.8322">
        <ele>461.4</ele>
        <time>2026-08-23T09:53:38.000Z</time>
      </trkpt>
      <trkpt lat="47.73427" lon="6.83219">
        <ele>461.6</ele>
        <time>2026-08-23T09:53:40.000Z</time>
      </trkpt>
      <trkpt lat="47.73438" lon="6.83218">
        <ele>461.8</ele>
        <time>2026-08-23T09:53:42.000Z</time>
      </trkpt>
      <trkpt lat="47.7345" lon="6.83217">
        <ele>462</ele>
        <time>2026-08-23T09:53:44.000Z</time>
      </trkpt>
      <trkpt lat="47.73462" lon="6.83215">
        <ele>462.2</ele>
        <time>2026-08-23T09:53:46.000Z</time>
      </trkpt>
      <trkpt lat="47.73474" lon="6.83214">
        <ele>462.4</ele>
        <time>2026-08-23T09:53:48.000Z</time>
      </trkpt>
      <trkpt lat="47.7349" lon="6.83211">
        <ele>462.6</ele>
        <time>2026-08-23T09:53:50.000Z</time>
      </trkpt>
      <trkpt lat="47.73504" lon="6.83206">
        <ele>463</ele>
        <time>2026-08-23T09:53:52.000Z</time>
      </trkpt>
      <trkpt lat="47.73516" lon="6.832">
        <ele>463.4</ele>
        <time>2026-08-23T09:53:54.000Z</time>
      </trkpt>
      <trkpt lat="47.73526" lon="6.83192">
        <ele>463.8</ele>
        <time>2026-08-23T09:53:56.000Z</time>
      </trkpt>
      <trkpt lat="47.73536" lon="6.83182">
        <ele>464</ele>
        <time>2026-08-23T09:53:58.000Z</time>
      </trkpt>
      <trkpt lat="47.73544" lon="6.83169">
        <ele>464</ele>
        <time>2026-08-23T09:54:00.000Z</time>
      </trkpt>
      <trkpt lat="47.73551" lon="6.83154">
        <ele>464</ele>
        <time>2026-08-23T09:54:02.000Z</time>
      </trkpt>
      <trkpt lat="47.73559" lon="6.8314">
        <ele>464</ele>
        <time>2026-08-23T09:54:04.000Z</time>
      </trkpt>
      <trkpt lat="47.73568" lon="6.83129">
        <ele>464.2</ele>
        <time>2026-08-23T09:54:06.000Z</time>
      </trkpt>
      <trkpt lat="47.73579" lon="6.83119">
        <ele>464.4</ele>
        <time>2026-08-23T09:54:08.000Z</time>
      </trkpt>
      <trkpt lat="47.73589" lon="6.83111">
        <ele>464.8</ele>
        <time>2026-08-23T09:54:10.000Z</time>
      </trkpt>
      <trkpt lat="47.736" lon="6.83104">
        <ele>465</ele>
        <time>2026-08-23T09:54:12.000Z</time>
      </trkpt>
      <trkpt lat="47.73612" lon="6.83098">
        <ele>465.2</ele>
        <time>2026-08-23T09:54:14.000Z</time>
      </trkpt>
      <trkpt lat="47.73623" lon="6.83094">
        <ele>465.4</ele>
        <time>2026-08-23T09:54:16.000Z</time>
      </trkpt>
      <trkpt lat="47.73635" lon="6.83093">
        <ele>465.6</ele>
        <time>2026-08-23T09:54:18.000Z</time>
      </trkpt>
      <trkpt lat="47.73647" lon="6.83094">
        <ele>465.8</ele>
        <time>2026-08-23T09:54:20.000Z</time>
      </trkpt>
      <trkpt lat="47.73658" lon="6.83099">
        <ele>466</ele>
        <time>2026-08-23T09:54:22.000Z</time>
      </trkpt>
      <trkpt lat="47.73668" lon="6.83106">
        <ele>466.2</ele>
        <time>2026-08-23T09:54:24.000Z</time>
      </trkpt>
      <trkpt lat="47.73679" lon="6.83114">
        <ele>466.4</ele>
        <time>2026-08-23T09:54:26.000Z</time>
      </trkpt>
      <trkpt lat="47.7369" lon="6.83121">
        <ele>466.4</ele>
        <time>2026-08-23T09:54:28.000Z</time>
      </trkpt>
      <trkpt lat="47.73701" lon="6.83126">
        <ele>466.4</ele>
        <time>2026-08-23T09:54:30.000Z</time>
      </trkpt>
      <trkpt lat="47.73714" lon="6.83128">
        <ele>466.4</ele>
        <time>2026-08-23T09:54:33.000Z</time>
      </trkpt>
      <trkpt lat="47.73726" lon="6.83127">
        <ele>466.4</ele>
        <time>2026-08-23T09:54:35.000Z</time>
      </trkpt>
      <trkpt lat="47.73738" lon="6.83125">
        <ele>466.6</ele>
        <time>2026-08-23T09:54:37.000Z</time>
      </trkpt>
      <trkpt lat="47.7375" lon="6.83123">
        <ele>466.8</ele>
        <time>2026-08-23T09:54:39.000Z</time>
      </trkpt>
      <trkpt lat="47.73762" lon="6.8312">
        <ele>467</ele>
        <time>2026-08-23T09:54:41.000Z</time>
      </trkpt>
      <trkpt lat="47.73774" lon="6.83115">
        <ele>467.2</ele>
        <time>2026-08-23T09:54:43.000Z</time>
      </trkpt>
      <trkpt lat="47.73785" lon="6.8311">
        <ele>467.4</ele>
        <time>2026-08-23T09:54:45.000Z</time>
      </trkpt>
      <trkpt lat="47.73796" lon="6.83105">
        <ele>467.4</ele>
        <time>2026-08-23T09:54:47.000Z</time>
      </trkpt>
      <trkpt lat="47.73806" lon="6.83101">
        <ele>467.6</ele>
        <time>2026-08-23T09:54:49.000Z</time>
      </trkpt>
      <trkpt lat="47.73815" lon="6.83098">
        <ele>468</ele>
        <time>2026-08-23T09:54:51.000Z</time>
      </trkpt>
      <trkpt lat="47.73823" lon="6.83097">
        <ele>468.4</ele>
        <time>2026-08-23T09:54:53.000Z</time>
      </trkpt>
      <trkpt lat="47.73827" lon="6.83097">
        <ele>468.8</ele>
        <time>2026-08-23T09:54:55.000Z</time>
      </trkpt>
      <trkpt lat="47.73828" lon="6.83097">
        <ele>469</ele>
        <time>2026-08-23T09:54:57.000Z</time>
      </trkpt>
      <trkpt lat="47.73827" lon="6.83097">
        <ele>469.2</ele>
        <time>2026-08-23T09:54:59.000Z</time>
      </trkpt>
      <trkpt lat="47.73827" lon="6.83097">
        <ele>469.2</ele>
        <time>2026-08-23T09:55:01.000Z</time>
      </trkpt>
      <trkpt lat="47.73827" lon="6.83097">
        <ele>469.2</ele>
        <time>2026-08-23T09:55:03.000Z</time>
      </trkpt>
      <trkpt lat="47.73828" lon="6.83097">
        <ele>469.4</ele>
        <time>2026-08-23T09:55:05.000Z</time>
      </trkpt>
      <trkpt lat="47.73832" lon="6.83097">
        <ele>469.4</ele>
        <time>2026-08-23T09:55:07.000Z</time>
      </trkpt>
      <trkpt lat="47.73836" lon="6.83096">
        <ele>469.2</ele>
        <time>2026-08-23T09:55:09.000Z</time>
      </trkpt>
      <trkpt lat="47.73841" lon="6.83096">
        <ele>469.2</ele>
        <time>2026-08-23T09:55:11.000Z</time>
      </trkpt>
      <trkpt lat="47.73847" lon="6.83094">
        <ele>469.2</ele>
        <time>2026-08-23T09:55:13.000Z</time>
      </trkpt>
      <trkpt lat="47.73854" lon="6.8309">
        <ele>469.2</ele>
        <time>2026-08-23T09:55:15.000Z</time>
      </trkpt>
      <trkpt lat="47.73861" lon="6.83091">
        <ele>469.2</ele>
        <time>2026-08-23T09:55:17.000Z</time>
      </trkpt>
      <trkpt lat="47.73869" lon="6.83097">
        <ele>469.2</ele>
        <time>2026-08-23T09:55:19.000Z</time>
      </trkpt>
      <trkpt lat="47.73879" lon="6.83107">
        <ele>469.2</ele>
        <time>2026-08-23T09:55:21.000Z</time>
      </trkpt>
      <trkpt lat="47.73888" lon="6.83116">
        <ele>468.8</ele>
        <time>2026-08-23T09:55:23.000Z</time>
      </trkpt>
      <trkpt lat="47.73899" lon="6.83125">
        <ele>468.6</ele>
        <time>2026-08-23T09:55:25.000Z</time>
      </trkpt>
      <trkpt lat="47.7391" lon="6.83128">
        <ele>468.6</ele>
        <time>2026-08-23T09:55:27.000Z</time>
      </trkpt>
      <trkpt lat="47.7392" lon="6.83123">
        <ele>468.6</ele>
        <time>2026-08-23T09:55:29.000Z</time>
      </trkpt>
      <trkpt lat="47.7393" lon="6.83115">
        <ele>468.4</ele>
        <time>2026-08-23T09:55:31.000Z</time>
      </trkpt>
      <trkpt lat="47.7394" lon="6.83107">
        <ele>468.4</ele>
        <time>2026-08-23T09:55:33.000Z</time>
      </trkpt>
      <trkpt lat="47.73949" lon="6.83099">
        <ele>468.6</ele>
        <time>2026-08-23T09:55:35.000Z</time>
      </trkpt>
      <trkpt lat="47.73958" lon="6.83091">
        <ele>468.6</ele>
        <time>2026-08-23T09:55:37.000Z</time>
      </trkpt>
      <trkpt lat="47.73969" lon="6.83086">
        <ele>468.8</ele>
        <time>2026-08-23T09:55:39.000Z</time>
      </trkpt>
      <trkpt lat="47.7398" lon="6.83081">
        <ele>468.8</ele>
        <time>2026-08-23T09:55:41.000Z</time>
      </trkpt>
      <trkpt lat="47.73991" lon="6.83077">
        <ele>469</ele>
        <time>2026-08-23T09:55:43.000Z</time>
      </trkpt>
      <trkpt lat="47.74002" lon="6.83072">
        <ele>469.4</ele>
        <time>2026-08-23T09:55:45.000Z</time>
      </trkpt>
      <trkpt lat="47.74013" lon="6.83066">
        <ele>469.6</ele>
        <time>2026-08-23T09:55:47.000Z</time>
      </trkpt>
      <trkpt lat="47.74023" lon="6.8306">
        <ele>470</ele>
        <time>2026-08-23T09:55:49.000Z</time>
      </trkpt>
      <trkpt lat="47.74032" lon="6.83053">
        <ele>470.2</ele>
        <time>2026-08-23T09:55:51.000Z</time>
      </trkpt>
      <trkpt lat="47.74041" lon="6.83044">
        <ele>470.4</ele>
        <time>2026-08-23T09:55:53.000Z</time>
      </trkpt>
      <trkpt lat="47.74049" lon="6.83035">
        <ele>470.4</ele>
        <time>2026-08-23T09:55:55.000Z</time>
      </trkpt>
      <trkpt lat="47.74054" lon="6.83026">
        <ele>470.8</ele>
        <time>2026-08-23T09:55:57.000Z</time>
      </trkpt>
      <trkpt lat="47.74059" lon="6.83016">
        <ele>470.8</ele>
        <time>2026-08-23T09:55:59.000Z</time>
      </trkpt>
      <trkpt lat="47.74063" lon="6.83004">
        <ele>471</ele>
        <time>2026-08-23T09:56:02.000Z</time>
      </trkpt>
      <trkpt lat="47.74067" lon="6.8299">
        <ele>471</ele>
        <time>2026-08-23T09:56:04.000Z</time>
      </trkpt>
      <trkpt lat="47.7407" lon="6.82974">
        <ele>471</ele>
        <time>2026-08-23T09:56:06.000Z</time>
      </trkpt>
      <trkpt lat="47.74073" lon="6.82957">
        <ele>471.2</ele>
        <time>2026-08-23T09:56:08.000Z</time>
      </trkpt>
      <trkpt lat="47.74076" lon="6.82941">
        <ele>471.4</ele>
        <time>2026-08-23T09:56:10.000Z</time>
      </trkpt>
      <trkpt lat="47.74079" lon="6.82926">
        <ele>471.6</ele>
        <time>2026-08-23T09:56:12.000Z</time>
      </trkpt>
      <trkpt lat="47.74082" lon="6.82913">
        <ele>472</ele>
        <time>2026-08-23T09:56:14.000Z</time>
      </trkpt>
      <trkpt lat="47.74083" lon="6.82902">
        <ele>472.4</ele>
        <time>2026-08-23T09:56:16.000Z</time>
      </trkpt>
      <trkpt lat="47.74084" lon="6.82893">
        <ele>473</ele>
        <time>2026-08-23T09:56:18.000Z</time>
      </trkpt>
      <trkpt lat="47.74087" lon="6.82883">
        <ele>473.2</ele>
        <time>2026-08-23T09:56:20.000Z</time>
      </trkpt>
      <trkpt lat="47.7409" lon="6.8287">
        <ele>473.4</ele>
        <time>2026-08-23T09:56:22.000Z</time>
      </trkpt>
      <trkpt lat="47.74093" lon="6.82856">
        <ele>473.4</ele>
        <time>2026-08-23T09:56:24.000Z</time>
      </trkpt>
      <trkpt lat="47.74098" lon="6.82841">
        <ele>473.6</ele>
        <time>2026-08-23T09:56:26.000Z</time>
      </trkpt>
      <trkpt lat="47.74103" lon="6.82827">
        <ele>473.6</ele>
        <time>2026-08-23T09:56:28.000Z</time>
      </trkpt>
      <trkpt lat="47.74108" lon="6.82814">
        <ele>473.8</ele>
        <time>2026-08-23T09:56:30.000Z</time>
      </trkpt>
      <trkpt lat="47.74114" lon="6.82801">
        <ele>474.2</ele>
        <time>2026-08-23T09:56:32.000Z</time>
      </trkpt>
      <trkpt lat="47.74119" lon="6.8279">
        <ele>474.4</ele>
        <time>2026-08-23T09:56:34.000Z</time>
      </trkpt>
      <trkpt lat="47.74123" lon="6.8278">
        <ele>474.6</ele>
        <time>2026-08-23T09:56:36.000Z</time>
      </trkpt>
      <trkpt lat="47.74127" lon="6.8277">
        <ele>474.4</ele>
        <time>2026-08-23T09:56:38.000Z</time>
      </trkpt>
      <trkpt lat="47.74133" lon="6.82766">
        <ele>474.2</ele>
        <time>2026-08-23T09:56:40.000Z</time>
      </trkpt>
      <trkpt lat="47.74139" lon="6.82767">
        <ele>474.2</ele>
        <time>2026-08-23T09:56:42.000Z</time>
      </trkpt>
      <trkpt lat="47.74148" lon="6.82762">
        <ele>474.4</ele>
        <time>2026-08-23T09:56:44.000Z</time>
      </trkpt>
      <trkpt lat="47.74156" lon="6.82754">
        <ele>474.6</ele>
        <time>2026-08-23T09:56:46.000Z</time>
      </trkpt>
      <trkpt lat="47.74164" lon="6.82751">
        <ele>474.8</ele>
        <time>2026-08-23T09:56:48.000Z</time>
      </trkpt>
      <trkpt lat="47.74168" lon="6.82749">
        <ele>475</ele>
        <time>2026-08-23T09:56:50.000Z</time>
      </trkpt>
      <trkpt lat="47.74169" lon="6.82746">
        <ele>475.2</ele>
        <time>2026-08-23T09:56:52.000Z</time>
      </trkpt>
      <trkpt lat="47.74169" lon="6.8274">
        <ele>475.4</ele>
        <time>2026-08-23T09:56:54.000Z</time>
      </trkpt>
      <trkpt lat="47.74166" lon="6.8273">
        <ele>475.6</ele>
        <time>2026-08-23T09:56:56.000Z</time>
      </trkpt>
      <trkpt lat="47.74161" lon="6.8272">
        <ele>475.6</ele>
        <time>2026-08-23T09:56:58.000Z</time>
      </trkpt>
      <trkpt lat="47.74154" lon="6.82709">
        <ele>475.6</ele>
        <time>2026-08-23T09:57:00.000Z</time>
      </trkpt>
      <trkpt lat="47.74147" lon="6.82697">
        <ele>475.8</ele>
        <time>2026-08-23T09:57:02.000Z</time>
      </trkpt>
      <trkpt lat="47.74144" lon="6.82682">
        <ele>475.8</ele>
        <time>2026-08-23T09:57:04.000Z</time>
      </trkpt>
      <trkpt lat="47.74148" lon="6.82668">
        <ele>476.2</ele>
        <time>2026-08-23T09:57:06.000Z</time>
      </trkpt>
      <trkpt lat="47.74155" lon="6.82655">
        <ele>476.6</ele>
        <time>2026-08-23T09:57:08.000Z</time>
      </trkpt>
      <trkpt lat="47.74163" lon="6.82643">
        <ele>477</ele>
        <time>2026-08-23T09:57:10.000Z</time>
      </trkpt>
      <trkpt lat="47.74169" lon="6.8263">
        <ele>477.2</ele>
        <time>2026-08-23T09:57:12.000Z</time>
      </trkpt>
      <trkpt lat="47.74175" lon="6.82618">
        <ele>477.8</ele>
        <time>2026-08-23T09:57:14.000Z</time>
      </trkpt>
      <trkpt lat="47.7418" lon="6.82604">
        <ele>478</ele>
        <time>2026-08-23T09:57:16.000Z</time>
      </trkpt>
      <trkpt lat="47.74185" lon="6.8259">
        <ele>478.4</ele>
        <time>2026-08-23T09:57:18.000Z</time>
      </trkpt>
      <trkpt lat="47.74189" lon="6.82575">
        <ele>478.6</ele>
        <time>2026-08-23T09:57:21.000Z</time>
      </trkpt>
      <trkpt lat="47.74192" lon="6.8256">
        <ele>479</ele>
        <time>2026-08-23T09:57:23.000Z</time>
      </trkpt>
      <trkpt lat="47.74196" lon="6.82546">
        <ele>479.4</ele>
        <time>2026-08-23T09:57:25.000Z</time>
      </trkpt>
      <trkpt lat="47.74203" lon="6.82534">
        <ele>479.6</ele>
        <time>2026-08-23T09:57:27.000Z</time>
      </trkpt>
      <trkpt lat="47.74212" lon="6.82527">
        <ele>480</ele>
        <time>2026-08-23T09:57:29.000Z</time>
      </trkpt>
      <trkpt lat="47.74221" lon="6.82522">
        <ele>480.2</ele>
        <time>2026-08-23T09:57:31.000Z</time>
      </trkpt>
      <trkpt lat="47.7423" lon="6.82519">
        <ele>480.4</ele>
        <time>2026-08-23T09:57:33.000Z</time>
      </trkpt>
      <trkpt lat="47.7424" lon="6.82516">
        <ele>480.6</ele>
        <time>2026-08-23T09:57:35.000Z</time>
      </trkpt>
      <trkpt lat="47.7425" lon="6.82514">
        <ele>481</ele>
        <time>2026-08-23T09:57:37.000Z</time>
      </trkpt>
      <trkpt lat="47.7426" lon="6.82512">
        <ele>481.2</ele>
        <time>2026-08-23T09:57:39.000Z</time>
      </trkpt>
      <trkpt lat="47.74271" lon="6.8251">
        <ele>481.4</ele>
        <time>2026-08-23T09:57:41.000Z</time>
      </trkpt>
      <trkpt lat="47.74281" lon="6.82507">
        <ele>481.6</ele>
        <time>2026-08-23T09:57:43.000Z</time>
      </trkpt>
      <trkpt lat="47.74292" lon="6.82505">
        <ele>481.6</ele>
        <time>2026-08-23T09:57:45.000Z</time>
      </trkpt>
      <trkpt lat="47.74303" lon="6.82502">
        <ele>481.8</ele>
        <time>2026-08-23T09:57:47.000Z</time>
      </trkpt>
      <trkpt lat="47.74314" lon="6.82499">
        <ele>481.8</ele>
        <time>2026-08-23T09:57:49.000Z</time>
      </trkpt>
      <trkpt lat="47.74324" lon="6.82495">
        <ele>482</ele>
        <time>2026-08-23T09:57:51.000Z</time>
      </trkpt>
      <trkpt lat="47.74335" lon="6.82493">
        <ele>482</ele>
        <time>2026-08-23T09:57:53.000Z</time>
      </trkpt>
      <trkpt lat="47.74347" lon="6.82491">
        <ele>482.2</ele>
        <time>2026-08-23T09:57:55.000Z</time>
      </trkpt>
      <trkpt lat="47.74358" lon="6.82491">
        <ele>482.4</ele>
        <time>2026-08-23T09:57:57.000Z</time>
      </trkpt>
      <trkpt lat="47.7437" lon="6.82491">
        <ele>482.6</ele>
        <time>2026-08-23T09:57:59.000Z</time>
      </trkpt>
      <trkpt lat="47.74381" lon="6.8249">
        <ele>483.2</ele>
        <time>2026-08-23T09:58:01.000Z</time>
      </trkpt>
      <trkpt lat="47.74392" lon="6.82489">
        <ele>483.8</ele>
        <time>2026-08-23T09:58:03.000Z</time>
      </trkpt>
      <trkpt lat="47.74401" lon="6.82487">
        <ele>484.4</ele>
        <time>2026-08-23T09:58:05.000Z</time>
      </trkpt>
      <trkpt lat="47.74411" lon="6.82483">
        <ele>485</ele>
        <time>2026-08-23T09:58:07.000Z</time>
      </trkpt>
      <trkpt lat="47.7442" lon="6.8248">
        <ele>485.8</ele>
        <time>2026-08-23T09:58:09.000Z</time>
      </trkpt>
      <trkpt lat="47.74432" lon="6.82476">
        <ele>486.4</ele>
        <time>2026-08-23T09:58:11.000Z</time>
      </trkpt>
      <trkpt lat="47.74443" lon="6.82474">
        <ele>486.8</ele>
        <time>2026-08-23T09:58:13.000Z</time>
      </trkpt>
      <trkpt lat="47.74451" lon="6.82473">
        <ele>487.4</ele>
        <time>2026-08-23T09:58:15.000Z</time>
      </trkpt>
      <trkpt lat="47.74459" lon="6.8247">
        <ele>487.8</ele>
        <time>2026-08-23T09:58:17.000Z</time>
      </trkpt>
      <trkpt lat="47.74467" lon="6.82467">
        <ele>488.2</ele>
        <time>2026-08-23T09:58:19.000Z</time>
      </trkpt>
      <trkpt lat="47.74475" lon="6.82464">
        <ele>488.4</ele>
        <time>2026-08-23T09:58:21.000Z</time>
      </trkpt>
      <trkpt lat="47.74484" lon="6.82462">
        <ele>488.8</ele>
        <time>2026-08-23T09:58:23.000Z</time>
      </trkpt>
      <trkpt lat="47.74492" lon="6.8246">
        <ele>489</ele>
        <time>2026-08-23T09:58:25.000Z</time>
      </trkpt>
      <trkpt lat="47.74501" lon="6.82456">
        <ele>489</ele>
        <time>2026-08-23T09:58:27.000Z</time>
      </trkpt>
      <trkpt lat="47.7451" lon="6.82452">
        <ele>489.2</ele>
        <time>2026-08-23T09:58:29.000Z</time>
      </trkpt>
      <trkpt lat="47.74519" lon="6.82447">
        <ele>489.4</ele>
        <time>2026-08-23T09:58:31.000Z</time>
      </trkpt>
      <trkpt lat="47.74527" lon="6.82444">
        <ele>489.8</ele>
        <time>2026-08-23T09:58:33.000Z</time>
      </trkpt>
      <trkpt lat="47.74536" lon="6.8244">
        <ele>490</ele>
        <time>2026-08-23T09:58:35.000Z</time>
      </trkpt>
      <trkpt lat="47.74545" lon="6.82435">
        <ele>490.4</ele>
        <time>2026-08-23T09:58:37.000Z</time>
      </trkpt>
      <trkpt lat="47.74553" lon="6.82431">
        <ele>490.6</ele>
        <time>2026-08-23T09:58:39.000Z</time>
      </trkpt>
      <trkpt lat="47.74561" lon="6.82427">
        <ele>491</ele>
        <time>2026-08-23T09:58:41.000Z</time>
      </trkpt>
      <trkpt lat="47.7457" lon="6.82423">
        <ele>491.6</ele>
        <time>2026-08-23T09:58:43.000Z</time>
      </trkpt>
      <trkpt lat="47.74578" lon="6.82419">
        <ele>492</ele>
        <time>2026-08-23T09:58:45.000Z</time>
      </trkpt>
      <trkpt lat="47.74586" lon="6.82414">
        <ele>492.4</ele>
        <time>2026-08-23T09:58:47.000Z</time>
      </trkpt>
      <trkpt lat="47.74594" lon="6.82408">
        <ele>493</ele>
        <time>2026-08-23T09:58:49.000Z</time>
      </trkpt>
      <trkpt lat="47.74602" lon="6.82401">
        <ele>493.6</ele>
        <time>2026-08-23T09:58:51.000Z</time>
      </trkpt>
      <trkpt lat="47.7461" lon="6.82394">
        <ele>494</ele>
        <time>2026-08-23T09:58:53.000Z</time>
      </trkpt>
      <trkpt lat="47.74617" lon="6.82387">
        <ele>494.6</ele>
        <time>2026-08-23T09:58:55.000Z</time>
      </trkpt>
      <trkpt lat="47.74625" lon="6.8238">
        <ele>495.2</ele>
        <time>2026-08-23T09:58:58.000Z</time>
      </trkpt>
      <trkpt lat="47.74632" lon="6.82372">
        <ele>495.8</ele>
        <time>2026-08-23T09:59:00.000Z</time>
      </trkpt>
      <trkpt lat="47.7464" lon="6.82363">
        <ele>496.2</ele>
        <time>2026-08-23T09:59:02.000Z</time>
      </trkpt>
      <trkpt lat="47.74646" lon="6.82354">
        <ele>496.8</ele>
        <time>2026-08-23T09:59:04.000Z</time>
      </trkpt>
      <trkpt lat="47.74653" lon="6.82344">
        <ele>497</ele>
        <time>2026-08-23T09:59:06.000Z</time>
      </trkpt>
      <trkpt lat="47.74659" lon="6.82335">
        <ele>497.2</ele>
        <time>2026-08-23T09:59:08.000Z</time>
      </trkpt>
      <trkpt lat="47.74665" lon="6.82325">
        <ele>497.4</ele>
        <time>2026-08-23T09:59:10.000Z</time>
      </trkpt>
      <trkpt lat="47.74672" lon="6.82314">
        <ele>497.4</ele>
        <time>2026-08-23T09:59:12.000Z</time>
      </trkpt>
      <trkpt lat="47.74679" lon="6.82303">
        <ele>497.4</ele>
        <time>2026-08-23T09:59:14.000Z</time>
      </trkpt>
      <trkpt lat="47.74687" lon="6.82293">
        <ele>497.4</ele>
        <time>2026-08-23T09:59:16.000Z</time>
      </trkpt>
      <trkpt lat="47.74696" lon="6.82283">
        <ele>497.2</ele>
        <time>2026-08-23T09:59:18.000Z</time>
      </trkpt>
      <trkpt lat="47.74705" lon="6.82274">
        <ele>497.2</ele>
        <time>2026-08-23T09:59:20.000Z</time>
      </trkpt>
      <trkpt lat="47.74714" lon="6.82265">
        <ele>497.2</ele>
        <time>2026-08-23T09:59:22.000Z</time>
      </trkpt>
      <trkpt lat="47.74723" lon="6.82256">
        <ele>497.2</ele>
        <time>2026-08-23T09:59:24.000Z</time>
      </trkpt>
      <trkpt lat="47.74731" lon="6.82247">
        <ele>497.2</ele>
        <time>2026-08-23T09:59:26.000Z</time>
      </trkpt>
      <trkpt lat="47.7474" lon="6.82237">
        <ele>497.4</ele>
        <time>2026-08-23T09:59:28.000Z</time>
      </trkpt>
      <trkpt lat="47.74747" lon="6.82227">
        <ele>497.6</ele>
        <time>2026-08-23T09:59:30.000Z</time>
      </trkpt>
      <trkpt lat="47.74755" lon="6.82217">
        <ele>497.8</ele>
        <time>2026-08-23T09:59:32.000Z</time>
      </trkpt>
      <trkpt lat="47.74763" lon="6.82207">
        <ele>497.8</ele>
        <time>2026-08-23T09:59:34.000Z</time>
      </trkpt>
      <trkpt lat="47.74771" lon="6.82196">
        <ele>497.6</ele>
        <time>2026-08-23T09:59:36.000Z</time>
      </trkpt>
      <trkpt lat="47.7478" lon="6.82185">
        <ele>497.6</ele>
        <time>2026-08-23T09:59:38.000Z</time>
      </trkpt>
      <trkpt lat="47.74788" lon="6.82174">
        <ele>497.8</ele>
        <time>2026-08-23T09:59:40.000Z</time>
      </trkpt>
      <trkpt lat="47.74797" lon="6.82164">
        <ele>498</ele>
        <time>2026-08-23T09:59:42.000Z</time>
      </trkpt>
      <trkpt lat="47.74807" lon="6.82152">
        <ele>498.2</ele>
        <time>2026-08-23T09:59:44.000Z</time>
      </trkpt>
      <trkpt lat="47.74817" lon="6.82139">
        <ele>498.4</ele>
        <time>2026-08-23T09:59:46.000Z</time>
      </trkpt>
      <trkpt lat="47.74826" lon="6.82128">
        <ele>498.6</ele>
        <time>2026-08-23T09:59:48.000Z</time>
      </trkpt>
      <trkpt lat="47.74834" lon="6.82119">
        <ele>499</ele>
        <time>2026-08-23T09:59:50.000Z</time>
      </trkpt>
      <trkpt lat="47.74842" lon="6.8211">
        <ele>499.2</ele>
        <time>2026-08-23T09:59:52.000Z</time>
      </trkpt>
      <trkpt lat="47.74851" lon="6.82101">
        <ele>499.4</ele>
        <time>2026-08-23T09:59:54.000Z</time>
      </trkpt>
      <trkpt lat="47.74859" lon="6.82092">
        <ele>499.6</ele>
        <time>2026-08-23T09:59:56.000Z</time>
      </trkpt>
      <trkpt lat="47.74868" lon="6.82083">
        <ele>499.8</ele>
        <time>2026-08-23T09:59:58.000Z</time>
      </trkpt>
      <trkpt lat="47.74876" lon="6.82074">
        <ele>499.8</ele>
        <time>2026-08-23T10:00:00.000Z</time>
      </trkpt>
      <trkpt lat="47.74885" lon="6.82065">
        <ele>500</ele>
        <time>2026-08-23T10:00:02.000Z</time>
      </trkpt>
      <trkpt lat="47.74894" lon="6.82057">
        <ele>500</ele>
        <time>2026-08-23T10:00:04.000Z</time>
      </trkpt>
      <trkpt lat="47.74903" lon="6.8205">
        <ele>500.2</ele>
        <time>2026-08-23T10:00:06.000Z</time>
      </trkpt>
      <trkpt lat="47.74911" lon="6.82044">
        <ele>500.4</ele>
        <time>2026-08-23T10:00:09.000Z</time>
      </trkpt>
      <trkpt lat="47.74917" lon="6.8204">
        <ele>500.6</ele>
        <time>2026-08-23T10:00:11.000Z</time>
      </trkpt>
      <trkpt lat="47.74921" lon="6.82037">
        <ele>500.6</ele>
        <time>2026-08-23T10:00:13.000Z</time>
      </trkpt>
      <trkpt lat="47.74923" lon="6.82035">
        <ele>500.6</ele>
        <time>2026-08-23T10:00:15.000Z</time>
      </trkpt>
      <trkpt lat="47.74927" lon="6.82031">
        <ele>500.6</ele>
        <time>2026-08-23T10:00:17.000Z</time>
      </trkpt>
      <trkpt lat="47.74934" lon="6.82026">
        <ele>500.8</ele>
        <time>2026-08-23T10:00:19.000Z</time>
      </trkpt>
      <trkpt lat="47.74942" lon="6.82019">
        <ele>500.8</ele>
        <time>2026-08-23T10:00:21.000Z</time>
      </trkpt>
      <trkpt lat="47.74951" lon="6.82011">
        <ele>500.8</ele>
        <time>2026-08-23T10:00:23.000Z</time>
      </trkpt>
      <trkpt lat="47.74959" lon="6.82004">
        <ele>500.6</ele>
        <time>2026-08-23T10:00:25.000Z</time>
      </trkpt>
      <trkpt lat="47.74968" lon="6.81997">
        <ele>500.6</ele>
        <time>2026-08-23T10:00:27.000Z</time>
      </trkpt>
      <trkpt lat="47.74975" lon="6.81992">
        <ele>500.6</ele>
        <time>2026-08-23T10:00:29.000Z</time>
      </trkpt>
      <trkpt lat="47.7498" lon="6.81989">
        <ele>500.4</ele>
        <time>2026-08-23T10:00:31.000Z</time>
      </trkpt>
      <trkpt lat="47.74986" lon="6.81984">
        <ele>500.2</ele>
        <time>2026-08-23T10:00:33.000Z</time>
      </trkpt>
      <trkpt lat="47.74994" lon="6.81977">
        <ele>499.8</ele>
        <time>2026-08-23T10:00:35.000Z</time>
      </trkpt>
      <trkpt lat="47.75005" lon="6.81969">
        <ele>499.6</ele>
        <time>2026-08-23T10:00:37.000Z</time>
      </trkpt>
      <trkpt lat="47.75016" lon="6.81962">
        <ele>499.2</ele>
        <time>2026-08-23T10:00:39.000Z</time>
      </trkpt>
      <trkpt lat="47.75028" lon="6.81955">
        <ele>499</ele>
        <time>2026-08-23T10:00:41.000Z</time>
      </trkpt>
      <trkpt lat="47.7504" lon="6.8195">
        <ele>498.8</ele>
        <time>2026-08-23T10:00:43.000Z</time>
      </trkpt>
      <trkpt lat="47.75053" lon="6.81947">
        <ele>498.6</ele>
        <time>2026-08-23T10:00:45.000Z</time>
      </trkpt>
      <trkpt lat="47.75066" lon="6.81947">
        <ele>498.4</ele>
        <time>2026-08-23T10:00:47.000Z</time>
      </trkpt>
      <trkpt lat="47.7508" lon="6.81948">
        <ele>498.2</ele>
        <time>2026-08-23T10:00:49.000Z</time>
      </trkpt>
      <trkpt lat="47.75094" lon="6.81951">
        <ele>498.2</ele>
        <time>2026-08-23T10:00:51.000Z</time>
      </trkpt>
      <trkpt lat="47.75108" lon="6.81955">
        <ele>498.2</ele>
        <time>2026-08-23T10:00:53.000Z</time>
      </trkpt>
      <trkpt lat="47.75121" lon="6.81962">
        <ele>498.2</ele>
        <time>2026-08-23T10:00:55.000Z</time>
      </trkpt>
      <trkpt lat="47.75138" lon="6.8197">
        <ele>498.2</ele>
        <time>2026-08-23T10:00:57.000Z</time>
      </trkpt>
      <trkpt lat="47.75155" lon="6.81977">
        <ele>498.2</ele>
        <time>2026-08-23T10:00:59.000Z</time>
      </trkpt>
      <trkpt lat="47.7517" lon="6.81979">
        <ele>498.4</ele>
        <time>2026-08-23T10:01:01.000Z</time>
      </trkpt>
      <trkpt lat="47.75184" lon="6.81976">
        <ele>498.4</ele>
        <time>2026-08-23T10:01:03.000Z</time>
      </trkpt>
      <trkpt lat="47.75197" lon="6.81969">
        <ele>498.6</ele>
        <time>2026-08-23T10:01:05.000Z</time>
      </trkpt>
      <trkpt lat="47.75211" lon="6.81962">
        <ele>498.6</ele>
        <time>2026-08-23T10:01:07.000Z</time>
      </trkpt>
      <trkpt lat="47.75224" lon="6.81954">
        <ele>498.8</ele>
        <time>2026-08-23T10:01:09.000Z</time>
      </trkpt>
      <trkpt lat="47.75237" lon="6.81946">
        <ele>499</ele>
        <time>2026-08-23T10:01:11.000Z</time>
      </trkpt>
      <trkpt lat="47.7525" lon="6.81938">
        <ele>499.2</ele>
        <time>2026-08-23T10:01:13.000Z</time>
      </trkpt>
      <trkpt lat="47.75263" lon="6.81931">
        <ele>499.2</ele>
        <time>2026-08-23T10:01:15.000Z</time>
      </trkpt>
      <trkpt lat="47.75276" lon="6.81923">
        <ele>499.2</ele>
        <time>2026-08-23T10:01:17.000Z</time>
      </trkpt>
      <trkpt lat="47.75289" lon="6.81916">
        <ele>499.4</ele>
        <time>2026-08-23T10:01:19.000Z</time>
      </trkpt>
      <trkpt lat="47.75302" lon="6.81908">
        <ele>499.6</ele>
        <time>2026-08-23T10:01:21.000Z</time>
      </trkpt>
      <trkpt lat="47.75315" lon="6.81901">
        <ele>499.8</ele>
        <time>2026-08-23T10:01:23.000Z</time>
      </trkpt>
      <trkpt lat="47.75327" lon="6.81894">
        <ele>500</ele>
        <time>2026-08-23T10:01:25.000Z</time>
      </trkpt>
      <trkpt lat="47.7534" lon="6.8189">
        <ele>500.2</ele>
        <time>2026-08-23T10:01:27.000Z</time>
      </trkpt>
      <trkpt lat="47.75354" lon="6.81888">
        <ele>500.4</ele>
        <time>2026-08-23T10:01:29.000Z</time>
      </trkpt>
      <trkpt lat="47.75368" lon="6.81888">
        <ele>500.4</ele>
        <time>2026-08-23T10:01:31.000Z</time>
      </trkpt>
      <trkpt lat="47.75382" lon="6.81888">
        <ele>500.6</ele>
        <time>2026-08-23T10:01:34.000Z</time>
      </trkpt>
      <trkpt lat="47.75396" lon="6.81888">
        <ele>500.6</ele>
        <time>2026-08-23T10:01:36.000Z</time>
      </trkpt>
      <trkpt lat="47.75409" lon="6.8189">
        <ele>500.8</ele>
        <time>2026-08-23T10:01:38.000Z</time>
      </trkpt>
      <trkpt lat="47.75423" lon="6.81895">
        <ele>501</ele>
        <time>2026-08-23T10:01:40.000Z</time>
      </trkpt>
      <trkpt lat="47.75435" lon="6.81905">
        <ele>501.2</ele>
        <time>2026-08-23T10:01:42.000Z</time>
      </trkpt>
      <trkpt lat="47.75447" lon="6.81917">
        <ele>501.4</ele>
        <time>2026-08-23T10:01:44.000Z</time>
      </trkpt>
      <trkpt lat="47.75458" lon="6.81929">
        <ele>501.6</ele>
        <time>2026-08-23T10:01:46.000Z</time>
      </trkpt>
      <trkpt lat="47.7547" lon="6.81938">
        <ele>502</ele>
        <time>2026-08-23T10:01:48.000Z</time>
      </trkpt>
      <trkpt lat="47.75484" lon="6.81944">
        <ele>502.2</ele>
        <time>2026-08-23T10:01:50.000Z</time>
      </trkpt>
      <trkpt lat="47.75497" lon="6.81946">
        <ele>502.6</ele>
        <time>2026-08-23T10:01:52.000Z</time>
      </trkpt>
      <trkpt lat="47.75511" lon="6.81943">
        <ele>502.6</ele>
        <time>2026-08-23T10:01:54.000Z</time>
      </trkpt>
      <trkpt lat="47.75525" lon="6.81938">
        <ele>502.6</ele>
        <time>2026-08-23T10:01:56.000Z</time>
      </trkpt>
      <trkpt lat="47.75538" lon="6.81933">
        <ele>502.8</ele>
        <time>2026-08-23T10:01:58.000Z</time>
      </trkpt>
      <trkpt lat="47.75552" lon="6.81928">
        <ele>502.8</ele>
        <time>2026-08-23T10:02:00.000Z</time>
      </trkpt>
      <trkpt lat="47.75565" lon="6.81923">
        <ele>503</ele>
        <time>2026-08-23T10:02:02.000Z</time>
      </trkpt>
      <trkpt lat="47.75579" lon="6.81918">
        <ele>503</ele>
        <time>2026-08-23T10:02:04.000Z</time>
      </trkpt>
      <trkpt lat="47.75592" lon="6.81914">
        <ele>503.2</ele>
        <time>2026-08-23T10:02:06.000Z</time>
      </trkpt>
      <trkpt lat="47.75606" lon="6.8191">
        <ele>503.4</ele>
        <time>2026-08-23T10:02:08.000Z</time>
      </trkpt>
      <trkpt lat="47.75619" lon="6.81906">
        <ele>503.4</ele>
        <time>2026-08-23T10:02:10.000Z</time>
      </trkpt>
      <trkpt lat="47.75633" lon="6.81903">
        <ele>503.4</ele>
        <time>2026-08-23T10:02:12.000Z</time>
      </trkpt>
      <trkpt lat="47.75647" lon="6.81902">
        <ele>503.4</ele>
        <time>2026-08-23T10:02:14.000Z</time>
      </trkpt>
      <trkpt lat="47.75663" lon="6.81901">
        <ele>503.6</ele>
        <time>2026-08-23T10:02:16.000Z</time>
      </trkpt>
      <trkpt lat="47.7568" lon="6.819">
        <ele>503.6</ele>
        <time>2026-08-23T10:02:18.000Z</time>
      </trkpt>
      <trkpt lat="47.75694" lon="6.81901">
        <ele>503.6</ele>
        <time>2026-08-23T10:02:20.000Z</time>
      </trkpt>
      <trkpt lat="47.75707" lon="6.81902">
        <ele>503.8</ele>
        <time>2026-08-23T10:02:22.000Z</time>
      </trkpt>
      <trkpt lat="47.75719" lon="6.81904">
        <ele>504</ele>
        <time>2026-08-23T10:02:24.000Z</time>
      </trkpt>
      <trkpt lat="47.75732" lon="6.81907">
        <ele>504</ele>
        <time>2026-08-23T10:02:26.000Z</time>
      </trkpt>
      <trkpt lat="47.75746" lon="6.81911">
        <ele>504</ele>
        <time>2026-08-23T10:02:28.000Z</time>
      </trkpt>
      <trkpt lat="47.75759" lon="6.81915">
        <ele>504</ele>
        <time>2026-08-23T10:02:30.000Z</time>
      </trkpt>
      <trkpt lat="47.75773" lon="6.8192">
        <ele>504</ele>
        <time>2026-08-23T10:02:32.000Z</time>
      </trkpt>
      <trkpt lat="47.75786" lon="6.81925">
        <ele>503.8</ele>
        <time>2026-08-23T10:02:34.000Z</time>
      </trkpt>
      <trkpt lat="47.75799" lon="6.8193">
        <ele>503.8</ele>
        <time>2026-08-23T10:02:36.000Z</time>
      </trkpt>
      <trkpt lat="47.75813" lon="6.81935">
        <ele>504</ele>
        <time>2026-08-23T10:02:38.000Z</time>
      </trkpt>
      <trkpt lat="47.75826" lon="6.81937">
        <ele>504.4</ele>
        <time>2026-08-23T10:02:40.000Z</time>
      </trkpt>
      <trkpt lat="47.75839" lon="6.8194">
        <ele>504.8</ele>
        <time>2026-08-23T10:02:42.000Z</time>
      </trkpt>
      <trkpt lat="47.7585" lon="6.81945">
        <ele>505.2</ele>
        <time>2026-08-23T10:02:44.000Z</time>
      </trkpt>
      <trkpt lat="47.75861" lon="6.81955">
        <ele>505.6</ele>
        <time>2026-08-23T10:02:46.000Z</time>
      </trkpt>
      <trkpt lat="47.75872" lon="6.81967">
        <ele>505.8</ele>
        <time>2026-08-23T10:02:49.000Z</time>
      </trkpt>
      <trkpt lat="47.75883" lon="6.81979">
        <ele>505.8</ele>
        <time>2026-08-23T10:02:51.000Z</time>
      </trkpt>
      <trkpt lat="47.75895" lon="6.81989">
        <ele>505.8</ele>
        <time>2026-08-23T10:02:53.000Z</time>
      </trkpt>
      <trkpt lat="47.75909" lon="6.81997">
        <ele>505.8</ele>
        <time>2026-08-23T10:02:55.000Z</time>
      </trkpt>
      <trkpt lat="47.75922" lon="6.82003">
        <ele>505.8</ele>
        <time>2026-08-23T10:02:57.000Z</time>
      </trkpt>
      <trkpt lat="47.75936" lon="6.82009">
        <ele>505.8</ele>
        <time>2026-08-23T10:02:59.000Z</time>
      </trkpt>
      <trkpt lat="47.7595" lon="6.82014">
        <ele>506</ele>
        <time>2026-08-23T10:03:01.000Z</time>
      </trkpt>
      <trkpt lat="47.75963" lon="6.82019">
        <ele>506</ele>
        <time>2026-08-23T10:03:03.000Z</time>
      </trkpt>
      <trkpt lat="47.75976" lon="6.82024">
        <ele>506</ele>
        <time>2026-08-23T10:03:05.000Z</time>
      </trkpt>
      <trkpt lat="47.75989" lon="6.8203">
        <ele>506.2</ele>
        <time>2026-08-23T10:03:07.000Z</time>
      </trkpt>
      <trkpt lat="47.76002" lon="6.82037">
        <ele>506.4</ele>
        <time>2026-08-23T10:03:09.000Z</time>
      </trkpt>
      <trkpt lat="47.76015" lon="6.82044">
        <ele>506.6</ele>
        <time>2026-08-23T10:03:11.000Z</time>
      </trkpt>
      <trkpt lat="47.76027" lon="6.82052">
        <ele>506.8</ele>
        <time>2026-08-23T10:03:13.000Z</time>
      </trkpt>
      <trkpt lat="47.76039" lon="6.82061">
        <ele>507</ele>
        <time>2026-08-23T10:03:15.000Z</time>
      </trkpt>
      <trkpt lat="47.76051" lon="6.82069">
        <ele>507.2</ele>
        <time>2026-08-23T10:03:17.000Z</time>
      </trkpt>
      <trkpt lat="47.76064" lon="6.82077">
        <ele>507.4</ele>
        <time>2026-08-23T10:03:19.000Z</time>
      </trkpt>
      <trkpt lat="47.76076" lon="6.82085">
        <ele>507.6</ele>
        <time>2026-08-23T10:03:21.000Z</time>
      </trkpt>
      <trkpt lat="47.76089" lon="6.82092">
        <ele>507.8</ele>
        <time>2026-08-23T10:03:23.000Z</time>
      </trkpt>
      <trkpt lat="47.76102" lon="6.821">
        <ele>508</ele>
        <time>2026-08-23T10:03:25.000Z</time>
      </trkpt>
      <trkpt lat="47.76115" lon="6.82107">
        <ele>508</ele>
        <time>2026-08-23T10:03:27.000Z</time>
      </trkpt>
      <trkpt lat="47.76128" lon="6.82115">
        <ele>508</ele>
        <time>2026-08-23T10:03:29.000Z</time>
      </trkpt>
      <trkpt lat="47.76141" lon="6.82123">
        <ele>508.2</ele>
        <time>2026-08-23T10:03:31.000Z</time>
      </trkpt>
      <trkpt lat="47.76159" lon="6.82133">
        <ele>508.2</ele>
        <time>2026-08-23T10:03:33.000Z</time>
      </trkpt>
      <trkpt lat="47.76174" lon="6.82142">
        <ele>508.4</ele>
        <time>2026-08-23T10:03:35.000Z</time>
      </trkpt>
      <trkpt lat="47.76185" lon="6.8215">
        <ele>508.6</ele>
        <time>2026-08-23T10:03:37.000Z</time>
      </trkpt>
      <trkpt lat="47.76198" lon="6.8216">
        <ele>508.6</ele>
        <time>2026-08-23T10:03:39.000Z</time>
      </trkpt>
      <trkpt lat="47.7621" lon="6.82171">
        <ele>508.8</ele>
        <time>2026-08-23T10:03:41.000Z</time>
      </trkpt>
      <trkpt lat="47.76221" lon="6.82181">
        <ele>509</ele>
        <time>2026-08-23T10:03:43.000Z</time>
      </trkpt>
      <trkpt lat="47.76232" lon="6.8219">
        <ele>509.2</ele>
        <time>2026-08-23T10:03:45.000Z</time>
      </trkpt>
      <trkpt lat="47.76243" lon="6.82199">
        <ele>509.4</ele>
        <time>2026-08-23T10:03:47.000Z</time>
      </trkpt>
      <trkpt lat="47.76255" lon="6.82206">
        <ele>509.6</ele>
        <time>2026-08-23T10:03:49.000Z</time>
      </trkpt>
      <trkpt lat="47.76268" lon="6.82211">
        <ele>509.8</ele>
        <time>2026-08-23T10:03:51.000Z</time>
      </trkpt>
      <trkpt lat="47.7628" lon="6.82215">
        <ele>510.2</ele>
        <time>2026-08-23T10:03:53.000Z</time>
      </trkpt>
      <trkpt lat="47.76293" lon="6.82218">
        <ele>510.4</ele>
        <time>2026-08-23T10:03:55.000Z</time>
      </trkpt>
      <trkpt lat="47.76305" lon="6.82222">
        <ele>510.6</ele>
        <time>2026-08-23T10:03:57.000Z</time>
      </trkpt>
      <trkpt lat="47.76318" lon="6.82225">
        <ele>510.8</ele>
        <time>2026-08-23T10:03:59.000Z</time>
      </trkpt>
      <trkpt lat="47.7633" lon="6.82229">
        <ele>511</ele>
        <time>2026-08-23T10:04:01.000Z</time>
      </trkpt>
      <trkpt lat="47.76342" lon="6.82233">
        <ele>511.2</ele>
        <time>2026-08-23T10:04:03.000Z</time>
      </trkpt>
      <trkpt lat="47.76354" lon="6.82239">
        <ele>511.4</ele>
        <time>2026-08-23T10:04:05.000Z</time>
      </trkpt>
      <trkpt lat="47.76366" lon="6.82245">
        <ele>511.6</ele>
        <time>2026-08-23T10:04:07.000Z</time>
      </trkpt>
      <trkpt lat="47.76377" lon="6.82252">
        <ele>511.8</ele>
        <time>2026-08-23T10:04:09.000Z</time>
      </trkpt>
      <trkpt lat="47.76389" lon="6.8226">
        <ele>512</ele>
        <time>2026-08-23T10:04:11.000Z</time>
      </trkpt>
      <trkpt lat="47.764" lon="6.82268">
        <ele>512.2</ele>
        <time>2026-08-23T10:04:13.000Z</time>
      </trkpt>
      <trkpt lat="47.76411" lon="6.82275">
        <ele>512.2</ele>
        <time>2026-08-23T10:04:15.000Z</time>
      </trkpt>
      <trkpt lat="47.76423" lon="6.82283">
        <ele>512.4</ele>
        <time>2026-08-23T10:04:17.000Z</time>
      </trkpt>
      <trkpt lat="47.76434" lon="6.82292">
        <ele>512.6</ele>
        <time>2026-08-23T10:04:19.000Z</time>
      </trkpt>
      <trkpt lat="47.76445" lon="6.82303">
        <ele>512.6</ele>
        <time>2026-08-23T10:04:22.000Z</time>
      </trkpt>
      <trkpt lat="47.76455" lon="6.82315">
        <ele>513</ele>
        <time>2026-08-23T10:04:24.000Z</time>
      </trkpt>
      <trkpt lat="47.76463" lon="6.82329">
        <ele>513.4</ele>
        <time>2026-08-23T10:04:26.000Z</time>
      </trkpt>
      <trkpt lat="47.7647" lon="6.82344">
        <ele>514</ele>
        <time>2026-08-23T10:04:28.000Z</time>
      </trkpt>
      <trkpt lat="47.76475" lon="6.8236">
        <ele>514.6</ele>
        <time>2026-08-23T10:04:30.000Z</time>
      </trkpt>
      <trkpt lat="47.76479" lon="6.82376">
        <ele>515.4</ele>
        <time>2026-08-23T10:04:32.000Z</time>
      </trkpt>
      <trkpt lat="47.76483" lon="6.82391">
        <ele>516.4</ele>
        <time>2026-08-23T10:04:34.000Z</time>
      </trkpt>
      <trkpt lat="47.76487" lon="6.82404">
        <ele>517.2</ele>
        <time>2026-08-23T10:04:36.000Z</time>
      </trkpt>
      <trkpt lat="47.76491" lon="6.82415">
        <ele>518</ele>
        <time>2026-08-23T10:04:38.000Z</time>
      </trkpt>
      <trkpt lat="47.76497" lon="6.82426">
        <ele>518.6</ele>
        <time>2026-08-23T10:04:40.000Z</time>
      </trkpt>
      <trkpt lat="47.76503" lon="6.82437">
        <ele>519</ele>
        <time>2026-08-23T10:04:42.000Z</time>
      </trkpt>
      <trkpt lat="47.7651" lon="6.82447">
        <ele>519.4</ele>
        <time>2026-08-23T10:04:44.000Z</time>
      </trkpt>
      <trkpt lat="47.76517" lon="6.82456">
        <ele>519.8</ele>
        <time>2026-08-23T10:04:46.000Z</time>
      </trkpt>
      <trkpt lat="47.76525" lon="6.82463">
        <ele>520</ele>
        <time>2026-08-23T10:04:48.000Z</time>
      </trkpt>
      <trkpt lat="47.76533" lon="6.8247">
        <ele>520.2</ele>
        <time>2026-08-23T10:04:50.000Z</time>
      </trkpt>
      <trkpt lat="47.76543" lon="6.82476">
        <ele>520.2</ele>
        <time>2026-08-23T10:04:52.000Z</time>
      </trkpt>
      <trkpt lat="47.76553" lon="6.82481">
        <ele>520.4</ele>
        <time>2026-08-23T10:04:54.000Z</time>
      </trkpt>
      <trkpt lat="47.76564" lon="6.82486">
        <ele>520.4</ele>
        <time>2026-08-23T10:04:56.000Z</time>
      </trkpt>
      <trkpt lat="47.76574" lon="6.82491">
        <ele>520.6</ele>
        <time>2026-08-23T10:04:58.000Z</time>
      </trkpt>
      <trkpt lat="47.76585" lon="6.82496">
        <ele>520.6</ele>
        <time>2026-08-23T10:05:00.000Z</time>
      </trkpt>
      <trkpt lat="47.76594" lon="6.82501">
        <ele>521</ele>
        <time>2026-08-23T10:05:02.000Z</time>
      </trkpt>
      <trkpt lat="47.76603" lon="6.82505">
        <ele>521.2</ele>
        <time>2026-08-23T10:05:04.000Z</time>
      </trkpt>
      <trkpt lat="47.76611" lon="6.82508">
        <ele>521.6</ele>
        <time>2026-08-23T10:05:06.000Z</time>
      </trkpt>
      <trkpt lat="47.76618" lon="6.8251">
        <ele>522</ele>
        <time>2026-08-23T10:05:08.000Z</time>
      </trkpt>
      <trkpt lat="47.76626" lon="6.82512">
        <ele>522.2</ele>
        <time>2026-08-23T10:05:10.000Z</time>
      </trkpt>
      <trkpt lat="47.76634" lon="6.82515">
        <ele>522.6</ele>
        <time>2026-08-23T10:05:12.000Z</time>
      </trkpt>
      <trkpt lat="47.76642" lon="6.82519">
        <ele>523</ele>
        <time>2026-08-23T10:05:14.000Z</time>
      </trkpt>
      <trkpt lat="47.76651" lon="6.82523">
        <ele>523.2</ele>
        <time>2026-08-23T10:05:16.000Z</time>
      </trkpt>
      <trkpt lat="47.76659" lon="6.82528">
        <ele>523.4</ele>
        <time>2026-08-23T10:05:18.000Z</time>
      </trkpt>
      <trkpt lat="47.76666" lon="6.82535">
        <ele>523.8</ele>
        <time>2026-08-23T10:05:20.000Z</time>
      </trkpt>
      <trkpt lat="47.76676" lon="6.82546">
        <ele>524.4</ele>
        <time>2026-08-23T10:05:22.000Z</time>
      </trkpt>
      <trkpt lat="47.76682" lon="6.82555">
        <ele>525</ele>
        <time>2026-08-23T10:05:24.000Z</time>
      </trkpt>
      <trkpt lat="47.76687" lon="6.82564">
        <ele>525.6</ele>
        <time>2026-08-23T10:05:26.000Z</time>
      </trkpt>
      <trkpt lat="47.76692" lon="6.82572">
        <ele>526.2</ele>
        <time>2026-08-23T10:05:28.000Z</time>
      </trkpt>
      <trkpt lat="47.76697" lon="6.8258">
        <ele>527</ele>
        <time>2026-08-23T10:05:30.000Z</time>
      </trkpt>
      <trkpt lat="47.76702" lon="6.82587">
        <ele>527.8</ele>
        <time>2026-08-23T10:05:32.000Z</time>
      </trkpt>
      <trkpt lat="47.76708" lon="6.82594">
        <ele>528.4</ele>
        <time>2026-08-23T10:05:34.000Z</time>
      </trkpt>
      <trkpt lat="47.76714" lon="6.82599">
        <ele>529</ele>
        <time>2026-08-23T10:05:36.000Z</time>
      </trkpt>
      <trkpt lat="47.76721" lon="6.82604">
        <ele>529.6</ele>
        <time>2026-08-23T10:05:38.000Z</time>
      </trkpt>
      <trkpt lat="47.76729" lon="6.82609">
        <ele>529.8</ele>
        <time>2026-08-23T10:05:40.000Z</time>
      </trkpt>
      <trkpt lat="47.76737" lon="6.82613">
        <ele>530</ele>
        <time>2026-08-23T10:05:42.000Z</time>
      </trkpt>
      <trkpt lat="47.76745" lon="6.82618">
        <ele>530.2</ele>
        <time>2026-08-23T10:05:44.000Z</time>
      </trkpt>
      <trkpt lat="47.76753" lon="6.82624">
        <ele>530.2</ele>
        <time>2026-08-23T10:05:46.000Z</time>
      </trkpt>
      <trkpt lat="47.76761" lon="6.8263">
        <ele>530</ele>
        <time>2026-08-23T10:05:48.000Z</time>
      </trkpt>
      <trkpt lat="47.76771" lon="6.82637">
        <ele>529.6</ele>
        <time>2026-08-23T10:05:51.000Z</time>
      </trkpt>
      <trkpt lat="47.76781" lon="6.82645">
        <ele>529.2</ele>
        <time>2026-08-23T10:05:53.000Z</time>
      </trkpt>
      <trkpt lat="47.76792" lon="6.82652">
        <ele>528.8</ele>
        <time>2026-08-23T10:05:55.000Z</time>
      </trkpt>
      <trkpt lat="47.76802" lon="6.82661">
        <ele>528.6</ele>
        <time>2026-08-23T10:05:57.000Z</time>
      </trkpt>
      <trkpt lat="47.76813" lon="6.82669">
        <ele>528.4</ele>
        <time>2026-08-23T10:05:59.000Z</time>
      </trkpt>
      <trkpt lat="47.76824" lon="6.82678">
        <ele>528.2</ele>
        <time>2026-08-23T10:06:01.000Z</time>
      </trkpt>
      <trkpt lat="47.76834" lon="6.82688">
        <ele>528</ele>
        <time>2026-08-23T10:06:03.000Z</time>
      </trkpt>
      <trkpt lat="47.76844" lon="6.82699">
        <ele>527.8</ele>
        <time>2026-08-23T10:06:05.000Z</time>
      </trkpt>
      <trkpt lat="47.76854" lon="6.82712">
        <ele>527.8</ele>
        <time>2026-08-23T10:06:07.000Z</time>
      </trkpt>
      <trkpt lat="47.76863" lon="6.82724">
        <ele>527.4</ele>
        <time>2026-08-23T10:06:09.000Z</time>
      </trkpt>
      <trkpt lat="47.76873" lon="6.82737">
        <ele>527.4</ele>
        <time>2026-08-23T10:06:11.000Z</time>
      </trkpt>
      <trkpt lat="47.76883" lon="6.82748">
        <ele>527.4</ele>
        <time>2026-08-23T10:06:13.000Z</time>
      </trkpt>
      <trkpt lat="47.76892" lon="6.82759">
        <ele>527.6</ele>
        <time>2026-08-23T10:06:15.000Z</time>
      </trkpt>
      <trkpt lat="47.76901" lon="6.82769">
        <ele>527.8</ele>
        <time>2026-08-23T10:06:17.000Z</time>
      </trkpt>
      <trkpt lat="47.7691" lon="6.82779">
        <ele>528</ele>
        <time>2026-08-23T10:06:19.000Z</time>
      </trkpt>
      <trkpt lat="47.7692" lon="6.82788">
        <ele>528.2</ele>
        <time>2026-08-23T10:06:21.000Z</time>
      </trkpt>
      <trkpt lat="47.7693" lon="6.82795">
        <ele>528.2</ele>
        <time>2026-08-23T10:06:23.000Z</time>
      </trkpt>
      <trkpt lat="47.76941" lon="6.82801">
        <ele>528.4</ele>
        <time>2026-08-23T10:06:25.000Z</time>
      </trkpt>
      <trkpt lat="47.76952" lon="6.82806">
        <ele>528.6</ele>
        <time>2026-08-23T10:06:27.000Z</time>
      </trkpt>
      <trkpt lat="47.76963" lon="6.82809">
        <ele>528.8</ele>
        <time>2026-08-23T10:06:29.000Z</time>
      </trkpt>
      <trkpt lat="47.76974" lon="6.82812">
        <ele>529</ele>
        <time>2026-08-23T10:06:31.000Z</time>
      </trkpt>
      <trkpt lat="47.76985" lon="6.82815">
        <ele>529.4</ele>
        <time>2026-08-23T10:06:33.000Z</time>
      </trkpt>
      <trkpt lat="47.76996" lon="6.82819">
        <ele>529.6</ele>
        <time>2026-08-23T10:06:35.000Z</time>
      </trkpt>
      <trkpt lat="47.77007" lon="6.82822">
        <ele>529.8</ele>
        <time>2026-08-23T10:06:37.000Z</time>
      </trkpt>
      <trkpt lat="47.77018" lon="6.82826">
        <ele>530</ele>
        <time>2026-08-23T10:06:39.000Z</time>
      </trkpt>
      <trkpt lat="47.77032" lon="6.8283">
        <ele>530.2</ele>
        <time>2026-08-23T10:06:41.000Z</time>
      </trkpt>
      <trkpt lat="47.77044" lon="6.82833">
        <ele>530.4</ele>
        <time>2026-08-23T10:06:43.000Z</time>
      </trkpt>
      <trkpt lat="47.77057" lon="6.82838">
        <ele>530.8</ele>
        <time>2026-08-23T10:06:45.000Z</time>
      </trkpt>
      <trkpt lat="47.77068" lon="6.82841">
        <ele>531.2</ele>
        <time>2026-08-23T10:06:47.000Z</time>
      </trkpt>
      <trkpt lat="47.77079" lon="6.82845">
        <ele>531.6</ele>
        <time>2026-08-23T10:06:49.000Z</time>
      </trkpt>
      <trkpt lat="47.77089" lon="6.82849">
        <ele>532</ele>
        <time>2026-08-23T10:06:51.000Z</time>
      </trkpt>
      <trkpt lat="47.771" lon="6.82853">
        <ele>532.6</ele>
        <time>2026-08-23T10:06:53.000Z</time>
      </trkpt>
      <trkpt lat="47.7711" lon="6.82856">
        <ele>533.2</ele>
        <time>2026-08-23T10:06:55.000Z</time>
      </trkpt>
      <trkpt lat="47.77119" lon="6.82861">
        <ele>533.6</ele>
        <time>2026-08-23T10:06:57.000Z</time>
      </trkpt>
      <trkpt lat="47.77129" lon="6.82866">
        <ele>534</ele>
        <time>2026-08-23T10:06:59.000Z</time>
      </trkpt>
      <trkpt lat="47.77139" lon="6.82873">
        <ele>534.2</ele>
        <time>2026-08-23T10:07:01.000Z</time>
      </trkpt>
      <trkpt lat="47.77148" lon="6.82879">
        <ele>534.4</ele>
        <time>2026-08-23T10:07:03.000Z</time>
      </trkpt>
      <trkpt lat="47.77158" lon="6.82885">
        <ele>534.4</ele>
        <time>2026-08-23T10:07:05.000Z</time>
      </trkpt>
      <trkpt lat="47.77168" lon="6.82891">
        <ele>534.4</ele>
        <time>2026-08-23T10:07:07.000Z</time>
      </trkpt>
      <trkpt lat="47.77178" lon="6.82897">
        <ele>534.4</ele>
        <time>2026-08-23T10:07:09.000Z</time>
      </trkpt>
      <trkpt lat="47.77188" lon="6.82903">
        <ele>534.4</ele>
        <time>2026-08-23T10:07:11.000Z</time>
      </trkpt>
      <trkpt lat="47.77199" lon="6.82907">
        <ele>534.6</ele>
        <time>2026-08-23T10:07:13.000Z</time>
      </trkpt>
      <trkpt lat="47.7721" lon="6.8291">
        <ele>534.8</ele>
        <time>2026-08-23T10:07:15.000Z</time>
      </trkpt>
      <trkpt lat="47.77221" lon="6.82912">
        <ele>535</ele>
        <time>2026-08-23T10:07:17.000Z</time>
      </trkpt>
      <trkpt lat="47.77232" lon="6.82911">
        <ele>535.2</ele>
        <time>2026-08-23T10:07:19.000Z</time>
      </trkpt>
      <trkpt lat="47.77244" lon="6.8291">
        <ele>535.2</ele>
        <time>2026-08-23T10:07:21.000Z</time>
      </trkpt>
      <trkpt lat="47.77255" lon="6.82909">
        <ele>535.4</ele>
        <time>2026-08-23T10:07:23.000Z</time>
      </trkpt>
      <trkpt lat="47.77267" lon="6.82908">
        <ele>535.4</ele>
        <time>2026-08-23T10:07:25.000Z</time>
      </trkpt>
      <trkpt lat="47.77278" lon="6.82908">
        <ele>535.6</ele>
        <time>2026-08-23T10:07:27.000Z</time>
      </trkpt>
      <trkpt lat="47.7729" lon="6.82908">
        <ele>535.6</ele>
        <time>2026-08-23T10:07:29.000Z</time>
      </trkpt>
      <trkpt lat="47.77301" lon="6.8291">
        <ele>535.6</ele>
        <time>2026-08-23T10:07:32.000Z</time>
      </trkpt>
      <trkpt lat="47.77313" lon="6.82914">
        <ele>535.8</ele>
        <time>2026-08-23T10:07:34.000Z</time>
      </trkpt>
      <trkpt lat="47.77324" lon="6.82919">
        <ele>535.8</ele>
        <time>2026-08-23T10:07:36.000Z</time>
      </trkpt>
      <trkpt lat="47.77335" lon="6.82925">
        <ele>535.6</ele>
        <time>2026-08-23T10:07:38.000Z</time>
      </trkpt>
      <trkpt lat="47.77346" lon="6.82933">
        <ele>535.6</ele>
        <time>2026-08-23T10:07:40.000Z</time>
      </trkpt>
      <trkpt lat="47.77356" lon="6.82942">
        <ele>535.6</ele>
        <time>2026-08-23T10:07:42.000Z</time>
      </trkpt>
      <trkpt lat="47.77366" lon="6.82952">
        <ele>535.6</ele>
        <time>2026-08-23T10:07:44.000Z</time>
      </trkpt>
      <trkpt lat="47.77375" lon="6.82963">
        <ele>535.8</ele>
        <time>2026-08-23T10:07:46.000Z</time>
      </trkpt>
      <trkpt lat="47.77384" lon="6.82975">
        <ele>536</ele>
        <time>2026-08-23T10:07:48.000Z</time>
      </trkpt>
      <trkpt lat="47.77391" lon="6.82988">
        <ele>536.2</ele>
        <time>2026-08-23T10:07:50.000Z</time>
      </trkpt>
      <trkpt lat="47.77398" lon="6.83001">
        <ele>536.6</ele>
        <time>2026-08-23T10:07:52.000Z</time>
      </trkpt>
      <trkpt lat="47.77405" lon="6.83014">
        <ele>536.8</ele>
        <time>2026-08-23T10:07:54.000Z</time>
      </trkpt>
      <trkpt lat="47.77411" lon="6.83027">
        <ele>537.2</ele>
        <time>2026-08-23T10:07:56.000Z</time>
      </trkpt>
      <trkpt lat="47.77417" lon="6.8304">
        <ele>537.6</ele>
        <time>2026-08-23T10:07:58.000Z</time>
      </trkpt>
      <trkpt lat="47.77424" lon="6.83053">
        <ele>538</ele>
        <time>2026-08-23T10:08:00.000Z</time>
      </trkpt>
      <trkpt lat="47.77429" lon="6.83066">
        <ele>538.4</ele>
        <time>2026-08-23T10:08:02.000Z</time>
      </trkpt>
      <trkpt lat="47.77438" lon="6.83084">
        <ele>538.8</ele>
        <time>2026-08-23T10:08:04.000Z</time>
      </trkpt>
      <trkpt lat="47.77444" lon="6.83098">
        <ele>539.2</ele>
        <time>2026-08-23T10:08:06.000Z</time>
      </trkpt>
      <trkpt lat="47.77449" lon="6.83111">
        <ele>539.6</ele>
        <time>2026-08-23T10:08:08.000Z</time>
      </trkpt>
      <trkpt lat="47.77454" lon="6.83124">
        <ele>539.8</ele>
        <time>2026-08-23T10:08:10.000Z</time>
      </trkpt>
      <trkpt lat="47.77459" lon="6.83137">
        <ele>540</ele>
        <time>2026-08-23T10:08:12.000Z</time>
      </trkpt>
      <trkpt lat="47.77464" lon="6.83151">
        <ele>540.4</ele>
        <time>2026-08-23T10:08:14.000Z</time>
      </trkpt>
      <trkpt lat="47.7747" lon="6.83165">
        <ele>540.6</ele>
        <time>2026-08-23T10:08:16.000Z</time>
      </trkpt>
      <trkpt lat="47.77475" lon="6.83179">
        <ele>540.8</ele>
        <time>2026-08-23T10:08:18.000Z</time>
      </trkpt>
      <trkpt lat="47.7748" lon="6.83193">
        <ele>541</ele>
        <time>2026-08-23T10:08:20.000Z</time>
      </trkpt>
      <trkpt lat="47.77485" lon="6.83206">
        <ele>541.2</ele>
        <time>2026-08-23T10:08:22.000Z</time>
      </trkpt>
      <trkpt lat="47.77491" lon="6.8322">
        <ele>541.6</ele>
        <time>2026-08-23T10:08:24.000Z</time>
      </trkpt>
      <trkpt lat="47.77496" lon="6.83234">
        <ele>541.8</ele>
        <time>2026-08-23T10:08:26.000Z</time>
      </trkpt>
      <trkpt lat="47.77501" lon="6.83247">
        <ele>542.2</ele>
        <time>2026-08-23T10:08:28.000Z</time>
      </trkpt>
      <trkpt lat="47.77507" lon="6.8326">
        <ele>542.4</ele>
        <time>2026-08-23T10:08:30.000Z</time>
      </trkpt>
      <trkpt lat="47.77513" lon="6.83273">
        <ele>542.8</ele>
        <time>2026-08-23T10:08:32.000Z</time>
      </trkpt>
      <trkpt lat="47.77519" lon="6.83284">
        <ele>543.2</ele>
        <time>2026-08-23T10:08:34.000Z</time>
      </trkpt>
      <trkpt lat="47.77526" lon="6.83295">
        <ele>543.4</ele>
        <time>2026-08-23T10:08:36.000Z</time>
      </trkpt>
      <trkpt lat="47.77534" lon="6.83305">
        <ele>543.8</ele>
        <time>2026-08-23T10:08:38.000Z</time>
      </trkpt>
      <trkpt lat="47.77542" lon="6.83315">
        <ele>544.2</ele>
        <time>2026-08-23T10:08:40.000Z</time>
      </trkpt>
      <trkpt lat="47.7755" lon="6.83324">
        <ele>544.6</ele>
        <time>2026-08-23T10:08:42.000Z</time>
      </trkpt>
      <trkpt lat="47.77557" lon="6.83333">
        <ele>545</ele>
        <time>2026-08-23T10:08:44.000Z</time>
      </trkpt>
      <trkpt lat="47.77565" lon="6.83342">
        <ele>545.4</ele>
        <time>2026-08-23T10:08:46.000Z</time>
      </trkpt>
      <trkpt lat="47.77573" lon="6.83352">
        <ele>545.6</ele>
        <time>2026-08-23T10:08:48.000Z</time>
      </trkpt>
      <trkpt lat="47.7758" lon="6.83361">
        <ele>546</ele>
        <time>2026-08-23T10:08:50.000Z</time>
      </trkpt>
      <trkpt lat="47.77588" lon="6.8337">
        <ele>546.4</ele>
        <time>2026-08-23T10:08:53.000Z</time>
      </trkpt>
      <trkpt lat="47.77596" lon="6.83379">
        <ele>546.8</ele>
        <time>2026-08-23T10:08:55.000Z</time>
      </trkpt>
      <trkpt lat="47.77604" lon="6.83387">
        <ele>547.2</ele>
        <time>2026-08-23T10:08:57.000Z</time>
      </trkpt>
      <trkpt lat="47.77611" lon="6.83396">
        <ele>547.6</ele>
        <time>2026-08-23T10:08:59.000Z</time>
      </trkpt>
      <trkpt lat="47.77618" lon="6.83405">
        <ele>548.2</ele>
        <time>2026-08-23T10:09:01.000Z</time>
      </trkpt>
      <trkpt lat="47.77625" lon="6.83413">
        <ele>548.6</ele>
        <time>2026-08-23T10:09:03.000Z</time>
      </trkpt>
      <trkpt lat="47.77631" lon="6.8342">
        <ele>549.2</ele>
        <time>2026-08-23T10:09:05.000Z</time>
      </trkpt>
      <trkpt lat="47.77637" lon="6.83427">
        <ele>549.8</ele>
        <time>2026-08-23T10:09:07.000Z</time>
      </trkpt>
      <trkpt lat="47.77642" lon="6.83434">
        <ele>550.2</ele>
        <time>2026-08-23T10:09:09.000Z</time>
      </trkpt>
      <trkpt lat="47.77648" lon="6.8344">
        <ele>550.8</ele>
        <time>2026-08-23T10:09:11.000Z</time>
      </trkpt>
      <trkpt lat="47.77653" lon="6.83447">
        <ele>551.2</ele>
        <time>2026-08-23T10:09:13.000Z</time>
      </trkpt>
      <trkpt lat="47.77658" lon="6.83453">
        <ele>551.4</ele>
        <time>2026-08-23T10:09:15.000Z</time>
      </trkpt>
      <trkpt lat="47.77663" lon="6.83459">
        <ele>551.8</ele>
        <time>2026-08-23T10:09:17.000Z</time>
      </trkpt>
      <trkpt lat="47.77668" lon="6.83466">
        <ele>552.4</ele>
        <time>2026-08-23T10:09:19.000Z</time>
      </trkpt>
      <trkpt lat="47.77672" lon="6.83473">
        <ele>552.8</ele>
        <time>2026-08-23T10:09:21.000Z</time>
      </trkpt>
      <trkpt lat="47.77677" lon="6.83479">
        <ele>553.2</ele>
        <time>2026-08-23T10:09:23.000Z</time>
      </trkpt>
      <trkpt lat="47.77682" lon="6.83486">
        <ele>553.6</ele>
        <time>2026-08-23T10:09:25.000Z</time>
      </trkpt>
      <trkpt lat="47.77688" lon="6.83494">
        <ele>554</ele>
        <time>2026-08-23T10:09:27.000Z</time>
      </trkpt>
      <trkpt lat="47.77694" lon="6.83503">
        <ele>554.4</ele>
        <time>2026-08-23T10:09:29.000Z</time>
      </trkpt>
      <trkpt lat="47.77699" lon="6.8351">
        <ele>554.8</ele>
        <time>2026-08-23T10:09:31.000Z</time>
      </trkpt>
      <trkpt lat="47.77703" lon="6.83515">
        <ele>555.2</ele>
        <time>2026-08-23T10:09:33.000Z</time>
      </trkpt>
      <trkpt lat="47.77708" lon="6.83522">
        <ele>555.4</ele>
        <time>2026-08-23T10:09:35.000Z</time>
      </trkpt>
      <trkpt lat="47.77714" lon="6.83529">
        <ele>555.8</ele>
        <time>2026-08-23T10:09:37.000Z</time>
      </trkpt>
      <trkpt lat="47.77719" lon="6.83535">
        <ele>556.2</ele>
        <time>2026-08-23T10:09:39.000Z</time>
      </trkpt>
      <trkpt lat="47.77725" lon="6.8354">
        <ele>556.6</ele>
        <time>2026-08-23T10:09:41.000Z</time>
      </trkpt>
      <trkpt lat="47.77731" lon="6.83545">
        <ele>557</ele>
        <time>2026-08-23T10:09:43.000Z</time>
      </trkpt>
      <trkpt lat="47.77737" lon="6.83549">
        <ele>557.4</ele>
        <time>2026-08-23T10:09:45.000Z</time>
      </trkpt>
      <trkpt lat="47.77743" lon="6.83552">
        <ele>557.8</ele>
        <time>2026-08-23T10:09:47.000Z</time>
      </trkpt>
      <trkpt lat="47.7775" lon="6.83554">
        <ele>558.2</ele>
        <time>2026-08-23T10:09:49.000Z</time>
      </trkpt>
      <trkpt lat="47.77755" lon="6.83556">
        <ele>558.8</ele>
        <time>2026-08-23T10:09:51.000Z</time>
      </trkpt>
      <trkpt lat="47.77761" lon="6.83559">
        <ele>559.4</ele>
        <time>2026-08-23T10:09:53.000Z</time>
      </trkpt>
      <trkpt lat="47.77767" lon="6.83562">
        <ele>560</ele>
        <time>2026-08-23T10:09:55.000Z</time>
      </trkpt>
      <trkpt lat="47.77772" lon="6.83564">
        <ele>560.6</ele>
        <time>2026-08-23T10:09:57.000Z</time>
      </trkpt>
      <trkpt lat="47.77778" lon="6.83567">
        <ele>561.2</ele>
        <time>2026-08-23T10:09:59.000Z</time>
      </trkpt>
      <trkpt lat="47.77784" lon="6.8357">
        <ele>561.8</ele>
        <time>2026-08-23T10:10:01.000Z</time>
      </trkpt>
      <trkpt lat="47.7779" lon="6.83573">
        <ele>562.4</ele>
        <time>2026-08-23T10:10:03.000Z</time>
      </trkpt>
      <trkpt lat="47.77795" lon="6.83576">
        <ele>563</ele>
        <time>2026-08-23T10:10:05.000Z</time>
      </trkpt>
      <trkpt lat="47.77801" lon="6.83578">
        <ele>563.6</ele>
        <time>2026-08-23T10:10:08.000Z</time>
      </trkpt>
      <trkpt lat="47.77806" lon="6.8358">
        <ele>564.2</ele>
        <time>2026-08-23T10:10:10.000Z</time>
      </trkpt>
      <trkpt lat="47.77813" lon="6.83581">
        <ele>564.8</ele>
        <time>2026-08-23T10:10:12.000Z</time>
      </trkpt>
      <trkpt lat="47.77819" lon="6.8358">
        <ele>565</ele>
        <time>2026-08-23T10:10:14.000Z</time>
      </trkpt>
      <trkpt lat="47.77825" lon="6.83576">
        <ele>565.4</ele>
        <time>2026-08-23T10:10:16.000Z</time>
      </trkpt>
      <trkpt lat="47.7783" lon="6.8357">
        <ele>565.6</ele>
        <time>2026-08-23T10:10:18.000Z</time>
      </trkpt>
      <trkpt lat="47.77833" lon="6.83561">
        <ele>565.8</ele>
        <time>2026-08-23T10:10:20.000Z</time>
      </trkpt>
      <trkpt lat="47.77835" lon="6.8355">
        <ele>566</ele>
        <time>2026-08-23T10:10:22.000Z</time>
      </trkpt>
      <trkpt lat="47.77836" lon="6.83539">
        <ele>566</ele>
        <time>2026-08-23T10:10:24.000Z</time>
      </trkpt>
      <trkpt lat="47.77836" lon="6.83527">
        <ele>565.8</ele>
        <time>2026-08-23T10:10:26.000Z</time>
      </trkpt>
      <trkpt lat="47.77836" lon="6.83514">
        <ele>565.8</ele>
        <time>2026-08-23T10:10:28.000Z</time>
      </trkpt>
      <trkpt lat="47.77838" lon="6.835">
        <ele>565.8</ele>
        <time>2026-08-23T10:10:30.000Z</time>
      </trkpt>
      <trkpt lat="47.7784" lon="6.83488">
        <ele>566</ele>
        <time>2026-08-23T10:10:32.000Z</time>
      </trkpt>
      <trkpt lat="47.77844" lon="6.83475">
        <ele>566</ele>
        <time>2026-08-23T10:10:34.000Z</time>
      </trkpt>
      <trkpt lat="47.77848" lon="6.83463">
        <ele>566.2</ele>
        <time>2026-08-23T10:10:36.000Z</time>
      </trkpt>
      <trkpt lat="47.77853" lon="6.83452">
        <ele>566.2</ele>
        <time>2026-08-23T10:10:38.000Z</time>
      </trkpt>
      <trkpt lat="47.77859" lon="6.83442">
        <ele>566.2</ele>
        <time>2026-08-23T10:10:40.000Z</time>
      </trkpt>
      <trkpt lat="47.77865" lon="6.83432">
        <ele>566.4</ele>
        <time>2026-08-23T10:10:42.000Z</time>
      </trkpt>
      <trkpt lat="47.77872" lon="6.83424">
        <ele>566.6</ele>
        <time>2026-08-23T10:10:44.000Z</time>
      </trkpt>
      <trkpt lat="47.77881" lon="6.83418">
        <ele>566.6</ele>
        <time>2026-08-23T10:10:46.000Z</time>
      </trkpt>
      <trkpt lat="47.77889" lon="6.83414">
        <ele>566.8</ele>
        <time>2026-08-23T10:10:48.000Z</time>
      </trkpt>
      <trkpt lat="47.77898" lon="6.83411">
        <ele>567</ele>
        <time>2026-08-23T10:10:50.000Z</time>
      </trkpt>
      <trkpt lat="47.77907" lon="6.83408">
        <ele>567.2</ele>
        <time>2026-08-23T10:10:52.000Z</time>
      </trkpt>
      <trkpt lat="47.77916" lon="6.83405">
        <ele>567.2</ele>
        <time>2026-08-23T10:10:54.000Z</time>
      </trkpt>
      <trkpt lat="47.77926" lon="6.83401">
        <ele>567.4</ele>
        <time>2026-08-23T10:10:56.000Z</time>
      </trkpt>
      <trkpt lat="47.77935" lon="6.83397">
        <ele>567.6</ele>
        <time>2026-08-23T10:10:58.000Z</time>
      </trkpt>
      <trkpt lat="47.77944" lon="6.83395">
        <ele>568</ele>
        <time>2026-08-23T10:11:00.000Z</time>
      </trkpt>
      <trkpt lat="47.77953" lon="6.83393">
        <ele>568.2</ele>
        <time>2026-08-23T10:11:02.000Z</time>
      </trkpt>
      <trkpt lat="47.77964" lon="6.83393">
        <ele>568.6</ele>
        <time>2026-08-23T10:11:04.000Z</time>
      </trkpt>
      <trkpt lat="47.77974" lon="6.83393">
        <ele>569</ele>
        <time>2026-08-23T10:11:06.000Z</time>
      </trkpt>
      <trkpt lat="47.77982" lon="6.83392">
        <ele>569.2</ele>
        <time>2026-08-23T10:11:08.000Z</time>
      </trkpt>
      <trkpt lat="47.77989" lon="6.83394">
        <ele>569.6</ele>
        <time>2026-08-23T10:11:10.000Z</time>
      </trkpt>
      <trkpt lat="47.77996" lon="6.83394">
        <ele>570</ele>
        <time>2026-08-23T10:11:12.000Z</time>
      </trkpt>
      <trkpt lat="47.78003" lon="6.83394">
        <ele>570.2</ele>
        <time>2026-08-23T10:11:14.000Z</time>
      </trkpt>
      <trkpt lat="47.78009" lon="6.83394">
        <ele>570.6</ele>
        <time>2026-08-23T10:11:16.000Z</time>
      </trkpt>
      <trkpt lat="47.78015" lon="6.83394">
        <ele>570.8</ele>
        <time>2026-08-23T10:11:18.000Z</time>
      </trkpt>
      <trkpt lat="47.78022" lon="6.83392">
        <ele>571</ele>
        <time>2026-08-23T10:11:20.000Z</time>
      </trkpt>
      <trkpt lat="47.78029" lon="6.83389">
        <ele>571.2</ele>
        <time>2026-08-23T10:11:22.000Z</time>
      </trkpt>
      <trkpt lat="47.78037" lon="6.83386">
        <ele>571.4</ele>
        <time>2026-08-23T10:11:24.000Z</time>
      </trkpt>
      <trkpt lat="47.78045" lon="6.83382">
        <ele>571.6</ele>
        <time>2026-08-23T10:11:26.000Z</time>
      </trkpt>
      <trkpt lat="47.78053" lon="6.83378">
        <ele>571.8</ele>
        <time>2026-08-23T10:11:28.000Z</time>
      </trkpt>
      <trkpt lat="47.7806" lon="6.83374">
        <ele>572.2</ele>
        <time>2026-08-23T10:11:30.000Z</time>
      </trkpt>
      <trkpt lat="47.78068" lon="6.83371">
        <ele>572.6</ele>
        <time>2026-08-23T10:11:32.000Z</time>
      </trkpt>
      <trkpt lat="47.78075" lon="6.83367">
        <ele>572.8</ele>
        <time>2026-08-23T10:11:34.000Z</time>
      </trkpt>
      <trkpt lat="47.78082" lon="6.83364">
        <ele>573.2</ele>
        <time>2026-08-23T10:11:36.000Z</time>
      </trkpt>
      <trkpt lat="47.78088" lon="6.83361">
        <ele>573.6</ele>
        <time>2026-08-23T10:11:38.000Z</time>
      </trkpt>
      <trkpt lat="47.78094" lon="6.83359">
        <ele>574</ele>
        <time>2026-08-23T10:11:40.000Z</time>
      </trkpt>
      <trkpt lat="47.781" lon="6.83355">
        <ele>574.6</ele>
        <time>2026-08-23T10:11:42.000Z</time>
      </trkpt>
      <trkpt lat="47.78106" lon="6.83351">
        <ele>575</ele>
        <time>2026-08-23T10:11:44.000Z</time>
      </trkpt>
      <trkpt lat="47.78112" lon="6.83347">
        <ele>575.4</ele>
        <time>2026-08-23T10:11:47.000Z</time>
      </trkpt>
      <trkpt lat="47.78117" lon="6.83342">
        <ele>575.8</ele>
        <time>2026-08-23T10:11:49.000Z</time>
      </trkpt>
      <trkpt lat="47.78123" lon="6.83338">
        <ele>576.2</ele>
        <time>2026-08-23T10:11:51.000Z</time>
      </trkpt>
      <trkpt lat="47.78129" lon="6.83334">
        <ele>576.6</ele>
        <time>2026-08-23T10:11:53.000Z</time>
      </trkpt>
      <trkpt lat="47.78135" lon="6.8333">
        <ele>577</ele>
        <time>2026-08-23T10:11:55.000Z</time>
      </trkpt>
      <trkpt lat="47.78141" lon="6.83326">
        <ele>577.6</ele>
        <time>2026-08-23T10:11:57.000Z</time>
      </trkpt>
      <trkpt lat="47.78147" lon="6.83323">
        <ele>578</ele>
        <time>2026-08-23T10:11:59.000Z</time>
      </trkpt>
      <trkpt lat="47.78153" lon="6.83319">
        <ele>578.2</ele>
        <time>2026-08-23T10:12:01.000Z</time>
      </trkpt>
      <trkpt lat="47.7816" lon="6.83317">
        <ele>578.4</ele>
        <time>2026-08-23T10:12:03.000Z</time>
      </trkpt>
      <trkpt lat="47.78166" lon="6.83316">
        <ele>578.8</ele>
        <time>2026-08-23T10:12:05.000Z</time>
      </trkpt>
      <trkpt lat="47.78173" lon="6.83316">
        <ele>579.2</ele>
        <time>2026-08-23T10:12:07.000Z</time>
      </trkpt>
      <trkpt lat="47.7818" lon="6.83318">
        <ele>579.4</ele>
        <time>2026-08-23T10:12:09.000Z</time>
      </trkpt>
      <trkpt lat="47.78186" lon="6.83322">
        <ele>579.8</ele>
        <time>2026-08-23T10:12:11.000Z</time>
      </trkpt>
      <trkpt lat="47.78193" lon="6.83326">
        <ele>580.2</ele>
        <time>2026-08-23T10:12:13.000Z</time>
      </trkpt>
      <trkpt lat="47.78199" lon="6.83332">
        <ele>580.6</ele>
        <time>2026-08-23T10:12:15.000Z</time>
      </trkpt>
      <trkpt lat="47.78204" lon="6.83338">
        <ele>581</ele>
        <time>2026-08-23T10:12:17.000Z</time>
      </trkpt>
      <trkpt lat="47.7821" lon="6.83344">
        <ele>581.6</ele>
        <time>2026-08-23T10:12:19.000Z</time>
      </trkpt>
      <trkpt lat="47.78215" lon="6.83349">
        <ele>582</ele>
        <time>2026-08-23T10:12:21.000Z</time>
      </trkpt>
      <trkpt lat="47.78221" lon="6.83355">
        <ele>582.6</ele>
        <time>2026-08-23T10:12:23.000Z</time>
      </trkpt>
      <trkpt lat="47.78226" lon="6.83359">
        <ele>583.2</ele>
        <time>2026-08-23T10:12:25.000Z</time>
      </trkpt>
      <trkpt lat="47.78232" lon="6.83364">
        <ele>583.8</ele>
        <time>2026-08-23T10:12:27.000Z</time>
      </trkpt>
      <trkpt lat="47.7824" lon="6.8337">
        <ele>584.4</ele>
        <time>2026-08-23T10:12:29.000Z</time>
      </trkpt>
      <trkpt lat="47.78246" lon="6.83374">
        <ele>584.8</ele>
        <time>2026-08-23T10:12:31.000Z</time>
      </trkpt>
      <trkpt lat="47.78252" lon="6.83378">
        <ele>585.4</ele>
        <time>2026-08-23T10:12:33.000Z</time>
      </trkpt>
      <trkpt lat="47.78257" lon="6.83382">
        <ele>586</ele>
        <time>2026-08-23T10:12:35.000Z</time>
      </trkpt>
      <trkpt lat="47.78263" lon="6.83386">
        <ele>586.4</ele>
        <time>2026-08-23T10:12:37.000Z</time>
      </trkpt>
      <trkpt lat="47.78269" lon="6.8339">
        <ele>587</ele>
        <time>2026-08-23T10:12:39.000Z</time>
      </trkpt>
      <trkpt lat="47.78275" lon="6.83395">
        <ele>587.4</ele>
        <time>2026-08-23T10:12:41.000Z</time>
      </trkpt>
      <trkpt lat="47.78281" lon="6.83399">
        <ele>587.8</ele>
        <time>2026-08-23T10:12:43.000Z</time>
      </trkpt>
      <trkpt lat="47.78287" lon="6.83404">
        <ele>588</ele>
        <time>2026-08-23T10:12:45.000Z</time>
      </trkpt>
      <trkpt lat="47.78294" lon="6.83408">
        <ele>588.2</ele>
        <time>2026-08-23T10:12:47.000Z</time>
      </trkpt>
      <trkpt lat="47.783" lon="6.83413">
        <ele>588.4</ele>
        <time>2026-08-23T10:12:49.000Z</time>
      </trkpt>
      <trkpt lat="47.78307" lon="6.83417">
        <ele>588.8</ele>
        <time>2026-08-23T10:12:51.000Z</time>
      </trkpt>
      <trkpt lat="47.78314" lon="6.8342">
        <ele>589</ele>
        <time>2026-08-23T10:12:53.000Z</time>
      </trkpt>
      <trkpt lat="47.78322" lon="6.83422">
        <ele>589.4</ele>
        <time>2026-08-23T10:12:55.000Z</time>
      </trkpt>
      <trkpt lat="47.78329" lon="6.83422">
        <ele>589.6</ele>
        <time>2026-08-23T10:12:57.000Z</time>
      </trkpt>
      <trkpt lat="47.78337" lon="6.83422">
        <ele>589.6</ele>
        <time>2026-08-23T10:12:59.000Z</time>
      </trkpt>
      <trkpt lat="47.78345" lon="6.83421">
        <ele>589.8</ele>
        <time>2026-08-23T10:13:01.000Z</time>
      </trkpt>
      <trkpt lat="47.78352" lon="6.8342">
        <ele>590</ele>
        <time>2026-08-23T10:13:03.000Z</time>
      </trkpt>
      <trkpt lat="47.78359" lon="6.83419">
        <ele>590.2</ele>
        <time>2026-08-23T10:13:05.000Z</time>
      </trkpt>
      <trkpt lat="47.78366" lon="6.83419">
        <ele>590.4</ele>
        <time>2026-08-23T10:13:08.000Z</time>
      </trkpt>
      <trkpt lat="47.78374" lon="6.83418">
        <ele>590.8</ele>
        <time>2026-08-23T10:13:10.000Z</time>
      </trkpt>
      <trkpt lat="47.78381" lon="6.83417">
        <ele>591</ele>
        <time>2026-08-23T10:13:12.000Z</time>
      </trkpt>
      <trkpt lat="47.78388" lon="6.83416">
        <ele>591.4</ele>
        <time>2026-08-23T10:13:14.000Z</time>
      </trkpt>
      <trkpt lat="47.78395" lon="6.83415">
        <ele>591.6</ele>
        <time>2026-08-23T10:13:16.000Z</time>
      </trkpt>
      <trkpt lat="47.78401" lon="6.83415">
        <ele>592</ele>
        <time>2026-08-23T10:13:18.000Z</time>
      </trkpt>
      <trkpt lat="47.78408" lon="6.83414">
        <ele>592.4</ele>
        <time>2026-08-23T10:13:20.000Z</time>
      </trkpt>
      <trkpt lat="47.78414" lon="6.83414">
        <ele>592.6</ele>
        <time>2026-08-23T10:13:22.000Z</time>
      </trkpt>
      <trkpt lat="47.78421" lon="6.83413">
        <ele>593.2</ele>
        <time>2026-08-23T10:13:24.000Z</time>
      </trkpt>
      <trkpt lat="47.78428" lon="6.83412">
        <ele>593.6</ele>
        <time>2026-08-23T10:13:26.000Z</time>
      </trkpt>
      <trkpt lat="47.78434" lon="6.83411">
        <ele>594.2</ele>
        <time>2026-08-23T10:13:28.000Z</time>
      </trkpt>
      <trkpt lat="47.78441" lon="6.8341">
        <ele>594.8</ele>
        <time>2026-08-23T10:13:30.000Z</time>
      </trkpt>
      <trkpt lat="47.78447" lon="6.8341">
        <ele>595.4</ele>
        <time>2026-08-23T10:13:32.000Z</time>
      </trkpt>
      <trkpt lat="47.78453" lon="6.83409">
        <ele>595.8</ele>
        <time>2026-08-23T10:13:34.000Z</time>
      </trkpt>
      <trkpt lat="47.78459" lon="6.83409">
        <ele>596.2</ele>
        <time>2026-08-23T10:13:36.000Z</time>
      </trkpt>
      <trkpt lat="47.78465" lon="6.83408">
        <ele>596.6</ele>
        <time>2026-08-23T10:13:38.000Z</time>
      </trkpt>
      <trkpt lat="47.78472" lon="6.83407">
        <ele>597.2</ele>
        <time>2026-08-23T10:13:40.000Z</time>
      </trkpt>
      <trkpt lat="47.78478" lon="6.83406">
        <ele>597.8</ele>
        <time>2026-08-23T10:13:42.000Z</time>
      </trkpt>
      <trkpt lat="47.78483" lon="6.83404">
        <ele>598.2</ele>
        <time>2026-08-23T10:13:44.000Z</time>
      </trkpt>
      <trkpt lat="47.78489" lon="6.83401">
        <ele>598.8</ele>
        <time>2026-08-23T10:13:46.000Z</time>
      </trkpt>
      <trkpt lat="47.78494" lon="6.83398">
        <ele>599.4</ele>
        <time>2026-08-23T10:13:48.000Z</time>
      </trkpt>
      <trkpt lat="47.78499" lon="6.83393">
        <ele>600</ele>
        <time>2026-08-23T10:13:50.000Z</time>
      </trkpt>
      <trkpt lat="47.78503" lon="6.83388">
        <ele>600.4</ele>
        <time>2026-08-23T10:13:52.000Z</time>
      </trkpt>
      <trkpt lat="47.78508" lon="6.83382">
        <ele>601</ele>
        <time>2026-08-23T10:13:54.000Z</time>
      </trkpt>
      <trkpt lat="47.78511" lon="6.83376">
        <ele>601.4</ele>
        <time>2026-08-23T10:13:56.000Z</time>
      </trkpt>
      <trkpt lat="47.78515" lon="6.8337">
        <ele>602</ele>
        <time>2026-08-23T10:13:58.000Z</time>
      </trkpt>
      <trkpt lat="47.7852" lon="6.83365">
        <ele>602.4</ele>
        <time>2026-08-23T10:14:00.000Z</time>
      </trkpt>
      <trkpt lat="47.78526" lon="6.83357">
        <ele>602.8</ele>
        <time>2026-08-23T10:14:02.000Z</time>
      </trkpt>
      <trkpt lat="47.78531" lon="6.83351">
        <ele>603.2</ele>
        <time>2026-08-23T10:14:04.000Z</time>
      </trkpt>
      <trkpt lat="47.78535" lon="6.83345">
        <ele>603.6</ele>
        <time>2026-08-23T10:14:06.000Z</time>
      </trkpt>
      <trkpt lat="47.78539" lon="6.83338">
        <ele>603.8</ele>
        <time>2026-08-23T10:14:08.000Z</time>
      </trkpt>
      <trkpt lat="47.78543" lon="6.83332">
        <ele>604.2</ele>
        <time>2026-08-23T10:14:10.000Z</time>
      </trkpt>
      <trkpt lat="47.78547" lon="6.83326">
        <ele>604.6</ele>
        <time>2026-08-23T10:14:12.000Z</time>
      </trkpt>
      <trkpt lat="47.78551" lon="6.8332">
        <ele>605</ele>
        <time>2026-08-23T10:14:14.000Z</time>
      </trkpt>
      <trkpt lat="47.78554" lon="6.83314">
        <ele>605.4</ele>
        <time>2026-08-23T10:14:16.000Z</time>
      </trkpt>
      <trkpt lat="47.78558" lon="6.83308">
        <ele>605.8</ele>
        <time>2026-08-23T10:14:18.000Z</time>
      </trkpt>
      <trkpt lat="47.78562" lon="6.83301">
        <ele>606</ele>
        <time>2026-08-23T10:14:20.000Z</time>
      </trkpt>
      <trkpt lat="47.78566" lon="6.83295">
        <ele>606.4</ele>
        <time>2026-08-23T10:14:22.000Z</time>
      </trkpt>
      <trkpt lat="47.7857" lon="6.83288">
        <ele>606.8</ele>
        <time>2026-08-23T10:14:24.000Z</time>
      </trkpt>
      <trkpt lat="47.78574" lon="6.83282">
        <ele>607.2</ele>
        <time>2026-08-23T10:14:26.000Z</time>
      </trkpt>
      <trkpt lat="47.78578" lon="6.83275">
        <ele>607.6</ele>
        <time>2026-08-23T10:14:28.000Z</time>
      </trkpt>
      <trkpt lat="47.78582" lon="6.83269">
        <ele>607.8</ele>
        <time>2026-08-23T10:14:30.000Z</time>
      </trkpt>
      <trkpt lat="47.78586" lon="6.83262">
        <ele>608.2</ele>
        <time>2026-08-23T10:14:32.000Z</time>
      </trkpt>
      <trkpt lat="47.7859" lon="6.83256">
        <ele>608.6</ele>
        <time>2026-08-23T10:14:34.000Z</time>
      </trkpt>
      <trkpt lat="47.78595" lon="6.8325">
        <ele>609</ele>
        <time>2026-08-23T10:14:36.000Z</time>
      </trkpt>
      <trkpt lat="47.78599" lon="6.83244">
        <ele>609.2</ele>
        <time>2026-08-23T10:14:38.000Z</time>
      </trkpt>
      <trkpt lat="47.78603" lon="6.83238">
        <ele>609.6</ele>
        <time>2026-08-23T10:14:40.000Z</time>
      </trkpt>
      <trkpt lat="47.78607" lon="6.83232">
        <ele>610</ele>
        <time>2026-08-23T10:14:42.000Z</time>
      </trkpt>
      <trkpt lat="47.78612" lon="6.83226">
        <ele>610.4</ele>
        <time>2026-08-23T10:14:44.000Z</time>
      </trkpt>
      <trkpt lat="47.78617" lon="6.8322">
        <ele>610.8</ele>
        <time>2026-08-23T10:14:46.000Z</time>
      </trkpt>
      <trkpt lat="47.78621" lon="6.83215">
        <ele>611.2</ele>
        <time>2026-08-23T10:14:48.000Z</time>
      </trkpt>
      <trkpt lat="47.78626" lon="6.83209">
        <ele>611.6</ele>
        <time>2026-08-23T10:14:50.000Z</time>
      </trkpt>
      <trkpt lat="47.78631" lon="6.83204">
        <ele>612</ele>
        <time>2026-08-23T10:14:52.000Z</time>
      </trkpt>
      <trkpt lat="47.78636" lon="6.83199">
        <ele>612.4</ele>
        <time>2026-08-23T10:14:55.000Z</time>
      </trkpt>
      <trkpt lat="47.78641" lon="6.83195">
        <ele>612.6</ele>
        <time>2026-08-23T10:14:57.000Z</time>
      </trkpt>
      <trkpt lat="47.78646" lon="6.8319">
        <ele>613</ele>
        <time>2026-08-23T10:14:59.000Z</time>
      </trkpt>
      <trkpt lat="47.78651" lon="6.83185">
        <ele>613.4</ele>
        <time>2026-08-23T10:15:01.000Z</time>
      </trkpt>
      <trkpt lat="47.78656" lon="6.8318">
        <ele>613.8</ele>
        <time>2026-08-23T10:15:03.000Z</time>
      </trkpt>
      <trkpt lat="47.78661" lon="6.83175">
        <ele>614.2</ele>
        <time>2026-08-23T10:15:05.000Z</time>
      </trkpt>
      <trkpt lat="47.78666" lon="6.8317">
        <ele>614.4</ele>
        <time>2026-08-23T10:15:07.000Z</time>
      </trkpt>
      <trkpt lat="47.7867" lon="6.83165">
        <ele>614.8</ele>
        <time>2026-08-23T10:15:09.000Z</time>
      </trkpt>
      <trkpt lat="47.78676" lon="6.83161">
        <ele>615.2</ele>
        <time>2026-08-23T10:15:11.000Z</time>
      </trkpt>
      <trkpt lat="47.78681" lon="6.83156">
        <ele>615.6</ele>
        <time>2026-08-23T10:15:13.000Z</time>
      </trkpt>
      <trkpt lat="47.78686" lon="6.83151">
        <ele>616</ele>
        <time>2026-08-23T10:15:15.000Z</time>
      </trkpt>
      <trkpt lat="47.78691" lon="6.83146">
        <ele>616.2</ele>
        <time>2026-08-23T10:15:17.000Z</time>
      </trkpt>
      <trkpt lat="47.78697" lon="6.83141">
        <ele>616.6</ele>
        <time>2026-08-23T10:15:19.000Z</time>
      </trkpt>
      <trkpt lat="47.78702" lon="6.83136">
        <ele>617</ele>
        <time>2026-08-23T10:15:21.000Z</time>
      </trkpt>
      <trkpt lat="47.78707" lon="6.83131">
        <ele>617.4</ele>
        <time>2026-08-23T10:15:23.000Z</time>
      </trkpt>
      <trkpt lat="47.78712" lon="6.83126">
        <ele>617.8</ele>
        <time>2026-08-23T10:15:25.000Z</time>
      </trkpt>
      <trkpt lat="47.78718" lon="6.83121">
        <ele>618</ele>
        <time>2026-08-23T10:15:27.000Z</time>
      </trkpt>
      <trkpt lat="47.78723" lon="6.83116">
        <ele>618.4</ele>
        <time>2026-08-23T10:15:29.000Z</time>
      </trkpt>
      <trkpt lat="47.78728" lon="6.83111">
        <ele>618.6</ele>
        <time>2026-08-23T10:15:31.000Z</time>
      </trkpt>
      <trkpt lat="47.78733" lon="6.83106">
        <ele>619</ele>
        <time>2026-08-23T10:15:33.000Z</time>
      </trkpt>
      <trkpt lat="47.78738" lon="6.83101">
        <ele>619.4</ele>
        <time>2026-08-23T10:15:35.000Z</time>
      </trkpt>
      <trkpt lat="47.78745" lon="6.83095">
        <ele>619.6</ele>
        <time>2026-08-23T10:15:37.000Z</time>
      </trkpt>
      <trkpt lat="47.78752" lon="6.83089">
        <ele>620</ele>
        <time>2026-08-23T10:15:39.000Z</time>
      </trkpt>
      <trkpt lat="47.78758" lon="6.83083">
        <ele>620.4</ele>
        <time>2026-08-23T10:15:41.000Z</time>
      </trkpt>
      <trkpt lat="47.78763" lon="6.83078">
        <ele>620.8</ele>
        <time>2026-08-23T10:15:43.000Z</time>
      </trkpt>
      <trkpt lat="47.78769" lon="6.83073">
        <ele>621.2</ele>
        <time>2026-08-23T10:15:45.000Z</time>
      </trkpt>
      <trkpt lat="47.78774" lon="6.83068">
        <ele>621.6</ele>
        <time>2026-08-23T10:15:47.000Z</time>
      </trkpt>
      <trkpt lat="47.7878" lon="6.83063">
        <ele>622</ele>
        <time>2026-08-23T10:15:49.000Z</time>
      </trkpt>
      <trkpt lat="47.78786" lon="6.83058">
        <ele>622.4</ele>
        <time>2026-08-23T10:15:51.000Z</time>
      </trkpt>
      <trkpt lat="47.78791" lon="6.83054">
        <ele>622.8</ele>
        <time>2026-08-23T10:15:53.000Z</time>
      </trkpt>
      <trkpt lat="47.78797" lon="6.8305">
        <ele>623.2</ele>
        <time>2026-08-23T10:15:55.000Z</time>
      </trkpt>
      <trkpt lat="47.78803" lon="6.83047">
        <ele>623.6</ele>
        <time>2026-08-23T10:15:57.000Z</time>
      </trkpt>
      <trkpt lat="47.78808" lon="6.83043">
        <ele>624</ele>
        <time>2026-08-23T10:15:59.000Z</time>
      </trkpt>
      <trkpt lat="47.78814" lon="6.83039">
        <ele>624.4</ele>
        <time>2026-08-23T10:16:01.000Z</time>
      </trkpt>
      <trkpt lat="47.7882" lon="6.83035">
        <ele>624.8</ele>
        <time>2026-08-23T10:16:03.000Z</time>
      </trkpt>
      <trkpt lat="47.78825" lon="6.83031">
        <ele>625.2</ele>
        <time>2026-08-23T10:16:05.000Z</time>
      </trkpt>
      <trkpt lat="47.78831" lon="6.83027">
        <ele>625.6</ele>
        <time>2026-08-23T10:16:07.000Z</time>
      </trkpt>
      <trkpt lat="47.78837" lon="6.83024">
        <ele>626</ele>
        <time>2026-08-23T10:16:09.000Z</time>
      </trkpt>
      <trkpt lat="47.78842" lon="6.8302">
        <ele>626.4</ele>
        <time>2026-08-23T10:16:11.000Z</time>
      </trkpt>
      <trkpt lat="47.78848" lon="6.83016">
        <ele>626.8</ele>
        <time>2026-08-23T10:16:13.000Z</time>
      </trkpt>
      <trkpt lat="47.78854" lon="6.83012">
        <ele>627.2</ele>
        <time>2026-08-23T10:16:15.000Z</time>
      </trkpt>
      <trkpt lat="47.7886" lon="6.83008">
        <ele>627.6</ele>
        <time>2026-08-23T10:16:17.000Z</time>
      </trkpt>
      <trkpt lat="47.78865" lon="6.83005">
        <ele>628</ele>
        <time>2026-08-23T10:16:19.000Z</time>
      </trkpt>
      <trkpt lat="47.78871" lon="6.83001">
        <ele>628.4</ele>
        <time>2026-08-23T10:16:21.000Z</time>
      </trkpt>
      <trkpt lat="47.78876" lon="6.82998">
        <ele>629</ele>
        <time>2026-08-23T10:16:24.000Z</time>
      </trkpt>
      <trkpt lat="47.78882" lon="6.82994">
        <ele>629.2</ele>
        <time>2026-08-23T10:16:26.000Z</time>
      </trkpt>
      <trkpt lat="47.78888" lon="6.82991">
        <ele>629.6</ele>
        <time>2026-08-23T10:16:28.000Z</time>
      </trkpt>
      <trkpt lat="47.78893" lon="6.82988">
        <ele>630</ele>
        <time>2026-08-23T10:16:30.000Z</time>
      </trkpt>
      <trkpt lat="47.78897" lon="6.82983">
        <ele>630.6</ele>
        <time>2026-08-23T10:16:32.000Z</time>
      </trkpt>
      <trkpt lat="47.78903" lon="6.82981">
        <ele>631</ele>
        <time>2026-08-23T10:16:34.000Z</time>
      </trkpt>
      <trkpt lat="47.78908" lon="6.82978">
        <ele>631.2</ele>
        <time>2026-08-23T10:16:36.000Z</time>
      </trkpt>
      <trkpt lat="47.78915" lon="6.82976">
        <ele>631.6</ele>
        <time>2026-08-23T10:16:38.000Z</time>
      </trkpt>
      <trkpt lat="47.78921" lon="6.82974">
        <ele>632</ele>
        <time>2026-08-23T10:16:40.000Z</time>
      </trkpt>
      <trkpt lat="47.78927" lon="6.82972">
        <ele>632.4</ele>
        <time>2026-08-23T10:16:42.000Z</time>
      </trkpt>
      <trkpt lat="47.78933" lon="6.8297">
        <ele>632.8</ele>
        <time>2026-08-23T10:16:44.000Z</time>
      </trkpt>
      <trkpt lat="47.78939" lon="6.82968">
        <ele>633.2</ele>
        <time>2026-08-23T10:16:46.000Z</time>
      </trkpt>
      <trkpt lat="47.78946" lon="6.82966">
        <ele>633.6</ele>
        <time>2026-08-23T10:16:48.000Z</time>
      </trkpt>
      <trkpt lat="47.78952" lon="6.82964">
        <ele>634</ele>
        <time>2026-08-23T10:16:50.000Z</time>
      </trkpt>
      <trkpt lat="47.78958" lon="6.82961">
        <ele>634.2</ele>
        <time>2026-08-23T10:16:52.000Z</time>
      </trkpt>
      <trkpt lat="47.78964" lon="6.82959">
        <ele>634.6</ele>
        <time>2026-08-23T10:16:54.000Z</time>
      </trkpt>
      <trkpt lat="47.7897" lon="6.82959">
        <ele>635</ele>
        <time>2026-08-23T10:16:56.000Z</time>
      </trkpt>
      <trkpt lat="47.78977" lon="6.82957">
        <ele>635.4</ele>
        <time>2026-08-23T10:16:58.000Z</time>
      </trkpt>
      <trkpt lat="47.78983" lon="6.82955">
        <ele>635.8</ele>
        <time>2026-08-23T10:17:00.000Z</time>
      </trkpt>
      <trkpt lat="47.78989" lon="6.82953">
        <ele>636.2</ele>
        <time>2026-08-23T10:17:02.000Z</time>
      </trkpt>
      <trkpt lat="47.78996" lon="6.82951">
        <ele>636.6</ele>
        <time>2026-08-23T10:17:04.000Z</time>
      </trkpt>
      <trkpt lat="47.79002" lon="6.8295">
        <ele>637</ele>
        <time>2026-08-23T10:17:06.000Z</time>
      </trkpt>
      <trkpt lat="47.79009" lon="6.8295">
        <ele>637.4</ele>
        <time>2026-08-23T10:17:08.000Z</time>
      </trkpt>
      <trkpt lat="47.79015" lon="6.8295">
        <ele>637.8</ele>
        <time>2026-08-23T10:17:10.000Z</time>
      </trkpt>
      <trkpt lat="47.79021" lon="6.8295">
        <ele>638.2</ele>
        <time>2026-08-23T10:17:12.000Z</time>
      </trkpt>
      <trkpt lat="47.79027" lon="6.82951">
        <ele>638.6</ele>
        <time>2026-08-23T10:17:14.000Z</time>
      </trkpt>
      <trkpt lat="47.79036" lon="6.82953">
        <ele>639</ele>
        <time>2026-08-23T10:17:16.000Z</time>
      </trkpt>
      <trkpt lat="47.79043" lon="6.82957">
        <ele>639.4</ele>
        <time>2026-08-23T10:17:18.000Z</time>
      </trkpt>
      <trkpt lat="47.79049" lon="6.82961">
        <ele>639.6</ele>
        <time>2026-08-23T10:17:20.000Z</time>
      </trkpt>
      <trkpt lat="47.79054" lon="6.82966">
        <ele>640</ele>
        <time>2026-08-23T10:17:22.000Z</time>
      </trkpt>
      <trkpt lat="47.7906" lon="6.82968">
        <ele>640.2</ele>
        <time>2026-08-23T10:17:24.000Z</time>
      </trkpt>
      <trkpt lat="47.79066" lon="6.8297">
        <ele>640.6</ele>
        <time>2026-08-23T10:17:26.000Z</time>
      </trkpt>
      <trkpt lat="47.79072" lon="6.82971">
        <ele>640.8</ele>
        <time>2026-08-23T10:17:28.000Z</time>
      </trkpt>
      <trkpt lat="47.79079" lon="6.82971">
        <ele>641</ele>
        <time>2026-08-23T10:17:30.000Z</time>
      </trkpt>
      <trkpt lat="47.79085" lon="6.82969">
        <ele>641.4</ele>
        <time>2026-08-23T10:17:32.000Z</time>
      </trkpt>
      <trkpt lat="47.79091" lon="6.82966">
        <ele>641.8</ele>
        <time>2026-08-23T10:17:34.000Z</time>
      </trkpt>
      <trkpt lat="47.79097" lon="6.82963">
        <ele>642</ele>
        <time>2026-08-23T10:17:36.000Z</time>
      </trkpt>
      <trkpt lat="47.79103" lon="6.82958">
        <ele>642.4</ele>
        <time>2026-08-23T10:17:38.000Z</time>
      </trkpt>
      <trkpt lat="47.79109" lon="6.82954">
        <ele>642.8</ele>
        <time>2026-08-23T10:17:40.000Z</time>
      </trkpt>
      <trkpt lat="47.79115" lon="6.82949">
        <ele>643</ele>
        <time>2026-08-23T10:17:42.000Z</time>
      </trkpt>
      <trkpt lat="47.79121" lon="6.82945">
        <ele>643.4</ele>
        <time>2026-08-23T10:17:44.000Z</time>
      </trkpt>
      <trkpt lat="47.79127" lon="6.82942">
        <ele>643.8</ele>
        <time>2026-08-23T10:17:46.000Z</time>
      </trkpt>
      <trkpt lat="47.79133" lon="6.82939">
        <ele>644</ele>
        <time>2026-08-23T10:17:48.000Z</time>
      </trkpt>
      <trkpt lat="47.79139" lon="6.82935">
        <ele>644.4</ele>
        <time>2026-08-23T10:17:50.000Z</time>
      </trkpt>
      <trkpt lat="47.79145" lon="6.82931">
        <ele>644.6</ele>
        <time>2026-08-23T10:17:52.000Z</time>
      </trkpt>
      <trkpt lat="47.79151" lon="6.82928">
        <ele>645.2</ele>
        <time>2026-08-23T10:17:54.000Z</time>
      </trkpt>
      <trkpt lat="47.79157" lon="6.82924">
        <ele>645.6</ele>
        <time>2026-08-23T10:17:56.000Z</time>
      </trkpt>
      <trkpt lat="47.79163" lon="6.82919">
        <ele>646</ele>
        <time>2026-08-23T10:17:59.000Z</time>
      </trkpt>
      <trkpt lat="47.79168" lon="6.82913">
        <ele>646.6</ele>
        <time>2026-08-23T10:18:01.000Z</time>
      </trkpt>
      <trkpt lat="47.79174" lon="6.82908">
        <ele>647</ele>
        <time>2026-08-23T10:18:03.000Z</time>
      </trkpt>
      <trkpt lat="47.7918" lon="6.82903">
        <ele>647.2</ele>
        <time>2026-08-23T10:18:05.000Z</time>
      </trkpt>
      <trkpt lat="47.79185" lon="6.82897">
        <ele>647.6</ele>
        <time>2026-08-23T10:18:07.000Z</time>
      </trkpt>
      <trkpt lat="47.7919" lon="6.82892">
        <ele>647.6</ele>
        <time>2026-08-23T10:18:09.000Z</time>
      </trkpt>
      <trkpt lat="47.79197" lon="6.8289">
        <ele>647.8</ele>
        <time>2026-08-23T10:18:11.000Z</time>
      </trkpt>
      <trkpt lat="47.79204" lon="6.8289">
        <ele>647.8</ele>
        <time>2026-08-23T10:18:13.000Z</time>
      </trkpt>
      <trkpt lat="47.79211" lon="6.82894">
        <ele>648</ele>
        <time>2026-08-23T10:18:15.000Z</time>
      </trkpt>
      <trkpt lat="47.79217" lon="6.82902">
        <ele>648.2</ele>
        <time>2026-08-23T10:18:17.000Z</time>
      </trkpt>
      <trkpt lat="47.79222" lon="6.8291">
        <ele>648.4</ele>
        <time>2026-08-23T10:18:19.000Z</time>
      </trkpt>
      <trkpt lat="47.79226" lon="6.82919">
        <ele>648.6</ele>
        <time>2026-08-23T10:18:21.000Z</time>
      </trkpt>
      <trkpt lat="47.79231" lon="6.82927">
        <ele>648.8</ele>
        <time>2026-08-23T10:18:23.000Z</time>
      </trkpt>
      <trkpt lat="47.79235" lon="6.82935">
        <ele>649</ele>
        <time>2026-08-23T10:18:25.000Z</time>
      </trkpt>
      <trkpt lat="47.7924" lon="6.82942">
        <ele>649.4</ele>
        <time>2026-08-23T10:18:27.000Z</time>
      </trkpt>
      <trkpt lat="47.79245" lon="6.8295">
        <ele>649.6</ele>
        <time>2026-08-23T10:18:29.000Z</time>
      </trkpt>
      <trkpt lat="47.7925" lon="6.82957">
        <ele>650</ele>
        <time>2026-08-23T10:18:31.000Z</time>
      </trkpt>
      <trkpt lat="47.79255" lon="6.82965">
        <ele>650.2</ele>
        <time>2026-08-23T10:18:33.000Z</time>
      </trkpt>
      <trkpt lat="47.7926" lon="6.82972">
        <ele>650.6</ele>
        <time>2026-08-23T10:18:35.000Z</time>
      </trkpt>
      <trkpt lat="47.79264" lon="6.8298">
        <ele>651</ele>
        <time>2026-08-23T10:18:37.000Z</time>
      </trkpt>
      <trkpt lat="47.79269" lon="6.82987">
        <ele>651.6</ele>
        <time>2026-08-23T10:18:39.000Z</time>
      </trkpt>
      <trkpt lat="47.79274" lon="6.82994">
        <ele>652</ele>
        <time>2026-08-23T10:18:41.000Z</time>
      </trkpt>
      <trkpt lat="47.79279" lon="6.83001">
        <ele>652.6</ele>
        <time>2026-08-23T10:18:43.000Z</time>
      </trkpt>
      <trkpt lat="47.79284" lon="6.83008">
        <ele>653</ele>
        <time>2026-08-23T10:18:45.000Z</time>
      </trkpt>
      <trkpt lat="47.79289" lon="6.83014">
        <ele>653.4</ele>
        <time>2026-08-23T10:18:47.000Z</time>
      </trkpt>
      <trkpt lat="47.79296" lon="6.83024">
        <ele>653.8</ele>
        <time>2026-08-23T10:18:49.000Z</time>
      </trkpt>
      <trkpt lat="47.79301" lon="6.83032">
        <ele>654</ele>
        <time>2026-08-23T10:18:51.000Z</time>
      </trkpt>
      <trkpt lat="47.79306" lon="6.83039">
        <ele>654.6</ele>
        <time>2026-08-23T10:18:53.000Z</time>
      </trkpt>
      <trkpt lat="47.79311" lon="6.83045">
        <ele>655</ele>
        <time>2026-08-23T10:18:55.000Z</time>
      </trkpt>
      <trkpt lat="47.79316" lon="6.8305">
        <ele>655.4</ele>
        <time>2026-08-23T10:18:57.000Z</time>
      </trkpt>
      <trkpt lat="47.79321" lon="6.83056">
        <ele>656</ele>
        <time>2026-08-23T10:18:59.000Z</time>
      </trkpt>
      <trkpt lat="47.79327" lon="6.83059">
        <ele>656.4</ele>
        <time>2026-08-23T10:19:01.000Z</time>
      </trkpt>
      <trkpt lat="47.79333" lon="6.83061">
        <ele>657</ele>
        <time>2026-08-23T10:19:03.000Z</time>
      </trkpt>
      <trkpt lat="47.79339" lon="6.83062">
        <ele>657.4</ele>
        <time>2026-08-23T10:19:05.000Z</time>
      </trkpt>
      <trkpt lat="47.79346" lon="6.83063">
        <ele>657.8</ele>
        <time>2026-08-23T10:19:07.000Z</time>
      </trkpt>
      <trkpt lat="47.79353" lon="6.83064">
        <ele>658.2</ele>
        <time>2026-08-23T10:19:09.000Z</time>
      </trkpt>
      <trkpt lat="47.7936" lon="6.83065">
        <ele>658.4</ele>
        <time>2026-08-23T10:19:11.000Z</time>
      </trkpt>
      <trkpt lat="47.79366" lon="6.83067">
        <ele>658.8</ele>
        <time>2026-08-23T10:19:13.000Z</time>
      </trkpt>
      <trkpt lat="47.79373" lon="6.83069">
        <ele>659.2</ele>
        <time>2026-08-23T10:19:15.000Z</time>
      </trkpt>
      <trkpt lat="47.79379" lon="6.83071">
        <ele>659.6</ele>
        <time>2026-08-23T10:19:17.000Z</time>
      </trkpt>
      <trkpt lat="47.79385" lon="6.83074">
        <ele>660</ele>
        <time>2026-08-23T10:19:19.000Z</time>
      </trkpt>
      <trkpt lat="47.79391" lon="6.83076">
        <ele>660.4</ele>
        <time>2026-08-23T10:19:21.000Z</time>
      </trkpt>
      <trkpt lat="47.79398" lon="6.83077">
        <ele>661</ele>
        <time>2026-08-23T10:19:23.000Z</time>
      </trkpt>
      <trkpt lat="47.79403" lon="6.83081">
        <ele>661.2</ele>
        <time>2026-08-23T10:19:25.000Z</time>
      </trkpt>
      <trkpt lat="47.79409" lon="6.83086">
        <ele>661.4</ele>
        <time>2026-08-23T10:19:27.000Z</time>
      </trkpt>
      <trkpt lat="47.79415" lon="6.8309">
        <ele>661.8</ele>
        <time>2026-08-23T10:19:29.000Z</time>
      </trkpt>
      <trkpt lat="47.7942" lon="6.83095">
        <ele>662.2</ele>
        <time>2026-08-23T10:19:31.000Z</time>
      </trkpt>
      <trkpt lat="47.79425" lon="6.83101">
        <ele>662.8</ele>
        <time>2026-08-23T10:19:33.000Z</time>
      </trkpt>
      <trkpt lat="47.7943" lon="6.83107">
        <ele>663.2</ele>
        <time>2026-08-23T10:19:35.000Z</time>
      </trkpt>
      <trkpt lat="47.79435" lon="6.83112">
        <ele>663.8</ele>
        <time>2026-08-23T10:19:37.000Z</time>
      </trkpt>
      <trkpt lat="47.79441" lon="6.83116">
        <ele>664.2</ele>
        <time>2026-08-23T10:19:39.000Z</time>
      </trkpt>
      <trkpt lat="47.79445" lon="6.8312">
        <ele>664.8</ele>
        <time>2026-08-23T10:19:41.000Z</time>
      </trkpt>
      <trkpt lat="47.79452" lon="6.83124">
        <ele>665.2</ele>
        <time>2026-08-23T10:19:44.000Z</time>
      </trkpt>
      <trkpt lat="47.79459" lon="6.83127">
        <ele>665.6</ele>
        <time>2026-08-23T10:19:46.000Z</time>
      </trkpt>
      <trkpt lat="47.79466" lon="6.8313">
        <ele>666</ele>
        <time>2026-08-23T10:19:48.000Z</time>
      </trkpt>
      <trkpt lat="47.79472" lon="6.8313">
        <ele>666.6</ele>
        <time>2026-08-23T10:19:50.000Z</time>
      </trkpt>
      <trkpt lat="47.79479" lon="6.8313">
        <ele>667</ele>
        <time>2026-08-23T10:19:52.000Z</time>
      </trkpt>
      <trkpt lat="47.79486" lon="6.83129">
        <ele>667.4</ele>
        <time>2026-08-23T10:19:54.000Z</time>
      </trkpt>
      <trkpt lat="47.79492" lon="6.83127">
        <ele>667.8</ele>
        <time>2026-08-23T10:19:56.000Z</time>
      </trkpt>
      <trkpt lat="47.79499" lon="6.83126">
        <ele>668.2</ele>
        <time>2026-08-23T10:19:58.000Z</time>
      </trkpt>
      <trkpt lat="47.79506" lon="6.83125">
        <ele>668.6</ele>
        <time>2026-08-23T10:20:00.000Z</time>
      </trkpt>
      <trkpt lat="47.79513" lon="6.83124">
        <ele>668.8</ele>
        <time>2026-08-23T10:20:02.000Z</time>
      </trkpt>
      <trkpt lat="47.79519" lon="6.83123">
        <ele>669.2</ele>
        <time>2026-08-23T10:20:04.000Z</time>
      </trkpt>
      <trkpt lat="47.79524" lon="6.83123">
        <ele>669.6</ele>
        <time>2026-08-23T10:20:06.000Z</time>
      </trkpt>
      <trkpt lat="47.7953" lon="6.83122">
        <ele>669.8</ele>
        <time>2026-08-23T10:20:08.000Z</time>
      </trkpt>
      <trkpt lat="47.79536" lon="6.83121">
        <ele>670.2</ele>
        <time>2026-08-23T10:20:10.000Z</time>
      </trkpt>
      <trkpt lat="47.79542" lon="6.83119">
        <ele>670.6</ele>
        <time>2026-08-23T10:20:12.000Z</time>
      </trkpt>
      <trkpt lat="47.79548" lon="6.8312">
        <ele>670.8</ele>
        <time>2026-08-23T10:20:14.000Z</time>
      </trkpt>
      <trkpt lat="47.79554" lon="6.8312">
        <ele>671.2</ele>
        <time>2026-08-23T10:20:16.000Z</time>
      </trkpt>
      <trkpt lat="47.79561" lon="6.83119">
        <ele>671.6</ele>
        <time>2026-08-23T10:20:18.000Z</time>
      </trkpt>
      <trkpt lat="47.79567" lon="6.83119">
        <ele>671.8</ele>
        <time>2026-08-23T10:20:20.000Z</time>
      </trkpt>
      <trkpt lat="47.79573" lon="6.83122">
        <ele>672.2</ele>
        <time>2026-08-23T10:20:22.000Z</time>
      </trkpt>
      <trkpt lat="47.79578" lon="6.83124">
        <ele>672.6</ele>
        <time>2026-08-23T10:20:24.000Z</time>
      </trkpt>
      <trkpt lat="47.79582" lon="6.83125">
        <ele>673</ele>
        <time>2026-08-23T10:20:26.000Z</time>
      </trkpt>
      <trkpt lat="47.79586" lon="6.83128">
        <ele>673.4</ele>
        <time>2026-08-23T10:20:28.000Z</time>
      </trkpt>
      <trkpt lat="47.79589" lon="6.83131">
        <ele>673.8</ele>
        <time>2026-08-23T10:20:30.000Z</time>
      </trkpt>
      <trkpt lat="47.79593" lon="6.83136">
        <ele>674.2</ele>
        <time>2026-08-23T10:20:32.000Z</time>
      </trkpt>
      <trkpt lat="47.79598" lon="6.83141">
        <ele>674.4</ele>
        <time>2026-08-23T10:20:34.000Z</time>
      </trkpt>
      <trkpt lat="47.79606" lon="6.83148">
        <ele>674.8</ele>
        <time>2026-08-23T10:20:36.000Z</time>
      </trkpt>
      <trkpt lat="47.79613" lon="6.83153">
        <ele>675.2</ele>
        <time>2026-08-23T10:20:38.000Z</time>
      </trkpt>
      <trkpt lat="47.79619" lon="6.83156">
        <ele>675.8</ele>
        <time>2026-08-23T10:20:40.000Z</time>
      </trkpt>
      <trkpt lat="47.79625" lon="6.83158">
        <ele>675.8</ele>
        <time>2026-08-23T10:20:42.000Z</time>
      </trkpt>
      <trkpt lat="47.79631" lon="6.83161">
        <ele>676.2</ele>
        <time>2026-08-23T10:20:44.000Z</time>
      </trkpt>
      <trkpt lat="47.79638" lon="6.83164">
        <ele>676.6</ele>
        <time>2026-08-23T10:20:46.000Z</time>
      </trkpt>
      <trkpt lat="47.79644" lon="6.83167">
        <ele>677</ele>
        <time>2026-08-23T10:20:48.000Z</time>
      </trkpt>
      <trkpt lat="47.79649" lon="6.83171">
        <ele>677.4</ele>
        <time>2026-08-23T10:20:50.000Z</time>
      </trkpt>
      <trkpt lat="47.79655" lon="6.83175">
        <ele>677.6</ele>
        <time>2026-08-23T10:20:52.000Z</time>
      </trkpt>
      <trkpt lat="47.7966" lon="6.83178">
        <ele>678</ele>
        <time>2026-08-23T10:20:54.000Z</time>
      </trkpt>
      <trkpt lat="47.79666" lon="6.83181">
        <ele>678.2</ele>
        <time>2026-08-23T10:20:56.000Z</time>
      </trkpt>
      <trkpt lat="47.79671" lon="6.83184">
        <ele>678.6</ele>
        <time>2026-08-23T10:20:58.000Z</time>
      </trkpt>
      <trkpt lat="47.79677" lon="6.83187">
        <ele>679</ele>
        <time>2026-08-23T10:21:00.000Z</time>
      </trkpt>
      <trkpt lat="47.79682" lon="6.8319">
        <ele>679.4</ele>
        <time>2026-08-23T10:21:02.000Z</time>
      </trkpt>
      <trkpt lat="47.79687" lon="6.83193">
        <ele>679.8</ele>
        <time>2026-08-23T10:21:05.000Z</time>
      </trkpt>
      <trkpt lat="47.79693" lon="6.83195">
        <ele>680.4</ele>
        <time>2026-08-23T10:21:07.000Z</time>
      </trkpt>
      <trkpt lat="47.79699" lon="6.83196">
        <ele>680.8</ele>
        <time>2026-08-23T10:21:09.000Z</time>
      </trkpt>
      <trkpt lat="47.79705" lon="6.83196">
        <ele>681.2</ele>
        <time>2026-08-23T10:21:11.000Z</time>
      </trkpt>
      <trkpt lat="47.79712" lon="6.83195">
        <ele>681.4</ele>
        <time>2026-08-23T10:21:13.000Z</time>
      </trkpt>
      <trkpt lat="47.79718" lon="6.83194">
        <ele>681.8</ele>
        <time>2026-08-23T10:21:15.000Z</time>
      </trkpt>
      <trkpt lat="47.79724" lon="6.83194">
        <ele>682</ele>
        <time>2026-08-23T10:21:17.000Z</time>
      </trkpt>
      <trkpt lat="47.7973" lon="6.83193">
        <ele>682.4</ele>
        <time>2026-08-23T10:21:19.000Z</time>
      </trkpt>
      <trkpt lat="47.79736" lon="6.83194">
        <ele>682.8</ele>
        <time>2026-08-23T10:21:21.000Z</time>
      </trkpt>
      <trkpt lat="47.79742" lon="6.83196">
        <ele>683</ele>
        <time>2026-08-23T10:21:23.000Z</time>
      </trkpt>
      <trkpt lat="47.79748" lon="6.83198">
        <ele>683.4</ele>
        <time>2026-08-23T10:21:25.000Z</time>
      </trkpt>
      <trkpt lat="47.79753" lon="6.83201">
        <ele>683.8</ele>
        <time>2026-08-23T10:21:27.000Z</time>
      </trkpt>
      <trkpt lat="47.79758" lon="6.83205">
        <ele>684.2</ele>
        <time>2026-08-23T10:21:29.000Z</time>
      </trkpt>
      <trkpt lat="47.79764" lon="6.83208">
        <ele>684.6</ele>
        <time>2026-08-23T10:21:31.000Z</time>
      </trkpt>
      <trkpt lat="47.79769" lon="6.83211">
        <ele>685</ele>
        <time>2026-08-23T10:21:33.000Z</time>
      </trkpt>
      <trkpt lat="47.79774" lon="6.83213">
        <ele>685.4</ele>
        <time>2026-08-23T10:21:35.000Z</time>
      </trkpt>
      <trkpt lat="47.7978" lon="6.83215">
        <ele>685.8</ele>
        <time>2026-08-23T10:21:37.000Z</time>
      </trkpt>
      <trkpt lat="47.79785" lon="6.83217">
        <ele>686</ele>
        <time>2026-08-23T10:21:39.000Z</time>
      </trkpt>
      <trkpt lat="47.79791" lon="6.83218">
        <ele>686.4</ele>
        <time>2026-08-23T10:21:41.000Z</time>
      </trkpt>
      <trkpt lat="47.79796" lon="6.83219">
        <ele>686.8</ele>
        <time>2026-08-23T10:21:43.000Z</time>
      </trkpt>
      <trkpt lat="47.79802" lon="6.8322">
        <ele>687</ele>
        <time>2026-08-23T10:21:45.000Z</time>
      </trkpt>
      <trkpt lat="47.79807" lon="6.83221">
        <ele>687.4</ele>
        <time>2026-08-23T10:21:47.000Z</time>
      </trkpt>
      <trkpt lat="47.79813" lon="6.83222">
        <ele>687.8</ele>
        <time>2026-08-23T10:21:49.000Z</time>
      </trkpt>
      <trkpt lat="47.79818" lon="6.83224">
        <ele>688.2</ele>
        <time>2026-08-23T10:21:51.000Z</time>
      </trkpt>
      <trkpt lat="47.79823" lon="6.83226">
        <ele>688.4</ele>
        <time>2026-08-23T10:21:53.000Z</time>
      </trkpt>
      <trkpt lat="47.79828" lon="6.83228">
        <ele>688.8</ele>
        <time>2026-08-23T10:21:55.000Z</time>
      </trkpt>
      <trkpt lat="47.79834" lon="6.8323">
        <ele>689.2</ele>
        <time>2026-08-23T10:21:57.000Z</time>
      </trkpt>
      <trkpt lat="47.7984" lon="6.83231">
        <ele>689.6</ele>
        <time>2026-08-23T10:21:59.000Z</time>
      </trkpt>
      <trkpt lat="47.79845" lon="6.83233">
        <ele>690</ele>
        <time>2026-08-23T10:22:01.000Z</time>
      </trkpt>
      <trkpt lat="47.79851" lon="6.83235">
        <ele>690.4</ele>
        <time>2026-08-23T10:22:03.000Z</time>
      </trkpt>
      <trkpt lat="47.79857" lon="6.83237">
        <ele>690.8</ele>
        <time>2026-08-23T10:22:05.000Z</time>
      </trkpt>
      <trkpt lat="47.79863" lon="6.83238">
        <ele>691.2</ele>
        <time>2026-08-23T10:22:07.000Z</time>
      </trkpt>
      <trkpt lat="47.79871" lon="6.83238">
        <ele>691.6</ele>
        <time>2026-08-23T10:22:09.000Z</time>
      </trkpt>
      <trkpt lat="47.79878" lon="6.83235">
        <ele>692</ele>
        <time>2026-08-23T10:22:11.000Z</time>
      </trkpt>
      <trkpt lat="47.79884" lon="6.8323">
        <ele>692.4</ele>
        <time>2026-08-23T10:22:13.000Z</time>
      </trkpt>
      <trkpt lat="47.79889" lon="6.83224">
        <ele>692.8</ele>
        <time>2026-08-23T10:22:15.000Z</time>
      </trkpt>
      <trkpt lat="47.79893" lon="6.83218">
        <ele>693.2</ele>
        <time>2026-08-23T10:22:17.000Z</time>
      </trkpt>
      <trkpt lat="47.79897" lon="6.83211">
        <ele>693.6</ele>
        <time>2026-08-23T10:22:19.000Z</time>
      </trkpt>
      <trkpt lat="47.79901" lon="6.83203">
        <ele>693.8</ele>
        <time>2026-08-23T10:22:21.000Z</time>
      </trkpt>
      <trkpt lat="47.79904" lon="6.83196">
        <ele>694</ele>
        <time>2026-08-23T10:22:23.000Z</time>
      </trkpt>
      <trkpt lat="47.79908" lon="6.83189">
        <ele>694.4</ele>
        <time>2026-08-23T10:22:25.000Z</time>
      </trkpt>
      <trkpt lat="47.79912" lon="6.83183">
        <ele>694.6</ele>
        <time>2026-08-23T10:22:27.000Z</time>
      </trkpt>
      <trkpt lat="47.79917" lon="6.83178">
        <ele>695</ele>
        <time>2026-08-23T10:22:29.000Z</time>
      </trkpt>
      <trkpt lat="47.79923" lon="6.83174">
        <ele>695.2</ele>
        <time>2026-08-23T10:22:31.000Z</time>
      </trkpt>
      <trkpt lat="47.7993" lon="6.83173">
        <ele>695.6</ele>
        <time>2026-08-23T10:22:33.000Z</time>
      </trkpt>
      <trkpt lat="47.79936" lon="6.83173">
        <ele>696</ele>
        <time>2026-08-23T10:22:35.000Z</time>
      </trkpt>
      <trkpt lat="47.79944" lon="6.83174">
        <ele>696.4</ele>
        <time>2026-08-23T10:22:37.000Z</time>
      </trkpt>
      <trkpt lat="47.79951" lon="6.83177">
        <ele>696.8</ele>
        <time>2026-08-23T10:22:39.000Z</time>
      </trkpt>
      <trkpt lat="47.79959" lon="6.83181">
        <ele>697</ele>
        <time>2026-08-23T10:22:41.000Z</time>
      </trkpt>
      <trkpt lat="47.79966" lon="6.83186">
        <ele>697.4</ele>
        <time>2026-08-23T10:22:43.000Z</time>
      </trkpt>
      <trkpt lat="47.79972" lon="6.83191">
        <ele>697.6</ele>
        <time>2026-08-23T10:22:45.000Z</time>
      </trkpt>
      <trkpt lat="47.79979" lon="6.83197">
        <ele>698</ele>
        <time>2026-08-23T10:22:47.000Z</time>
      </trkpt>
      <trkpt lat="47.79985" lon="6.83203">
        <ele>698.2</ele>
        <time>2026-08-23T10:22:49.000Z</time>
      </trkpt>
      <trkpt lat="47.79991" lon="6.8321">
        <ele>698.6</ele>
        <time>2026-08-23T10:22:51.000Z</time>
      </trkpt>
      <trkpt lat="47.79996" lon="6.83218">
        <ele>698.8</ele>
        <time>2026-08-23T10:22:53.000Z</time>
      </trkpt>
      <trkpt lat="47.80001" lon="6.83228">
        <ele>699</ele>
        <time>2026-08-23T10:22:55.000Z</time>
      </trkpt>
      <trkpt lat="47.80005" lon="6.83238">
        <ele>699.2</ele>
        <time>2026-08-23T10:22:57.000Z</time>
      </trkpt>
      <trkpt lat="47.80009" lon="6.83249">
        <ele>699.6</ele>
        <time>2026-08-23T10:23:00.000Z</time>
      </trkpt>
      <trkpt lat="47.80012" lon="6.83261">
        <ele>700</ele>
        <time>2026-08-23T10:23:02.000Z</time>
      </trkpt>
      <trkpt lat="47.80012" lon="6.83272">
        <ele>700.6</ele>
        <time>2026-08-23T10:23:04.000Z</time>
      </trkpt>
      <trkpt lat="47.80011" lon="6.83284">
        <ele>701</ele>
        <time>2026-08-23T10:23:06.000Z</time>
      </trkpt>
      <trkpt lat="47.80007" lon="6.83295">
        <ele>701.8</ele>
        <time>2026-08-23T10:23:08.000Z</time>
      </trkpt>
      <trkpt lat="47.80002" lon="6.83304">
        <ele>702.4</ele>
        <time>2026-08-23T10:23:10.000Z</time>
      </trkpt>
      <trkpt lat="47.79996" lon="6.83312">
        <ele>702.8</ele>
        <time>2026-08-23T10:23:12.000Z</time>
      </trkpt>
      <trkpt lat="47.79989" lon="6.83318">
        <ele>703.4</ele>
        <time>2026-08-23T10:23:14.000Z</time>
      </trkpt>
      <trkpt lat="47.79982" lon="6.83324">
        <ele>704</ele>
        <time>2026-08-23T10:23:16.000Z</time>
      </trkpt>
      <trkpt lat="47.79975" lon="6.8333">
        <ele>704.6</ele>
        <time>2026-08-23T10:23:18.000Z</time>
      </trkpt>
      <trkpt lat="47.79968" lon="6.83336">
        <ele>705</ele>
        <time>2026-08-23T10:23:20.000Z</time>
      </trkpt>
      <trkpt lat="47.79962" lon="6.83343">
        <ele>705.4</ele>
        <time>2026-08-23T10:23:22.000Z</time>
      </trkpt>
      <trkpt lat="47.79956" lon="6.83349">
        <ele>705.8</ele>
        <time>2026-08-23T10:23:24.000Z</time>
      </trkpt>
      <trkpt lat="47.7995" lon="6.83355">
        <ele>706</ele>
        <time>2026-08-23T10:23:26.000Z</time>
      </trkpt>
      <trkpt lat="47.79944" lon="6.83361">
        <ele>706.4</ele>
        <time>2026-08-23T10:23:28.000Z</time>
      </trkpt>
      <trkpt lat="47.79939" lon="6.83367">
        <ele>706.8</ele>
        <time>2026-08-23T10:23:30.000Z</time>
      </trkpt>
      <trkpt lat="47.79934" lon="6.83374">
        <ele>707</ele>
        <time>2026-08-23T10:23:32.000Z</time>
      </trkpt>
      <trkpt lat="47.79929" lon="6.83381">
        <ele>707.4</ele>
        <time>2026-08-23T10:23:34.000Z</time>
      </trkpt>
      <trkpt lat="47.79925" lon="6.83388">
        <ele>707.6</ele>
        <time>2026-08-23T10:23:36.000Z</time>
      </trkpt>
      <trkpt lat="47.79921" lon="6.83396">
        <ele>708</ele>
        <time>2026-08-23T10:23:38.000Z</time>
      </trkpt>
      <trkpt lat="47.79918" lon="6.83405">
        <ele>708.4</ele>
        <time>2026-08-23T10:23:40.000Z</time>
      </trkpt>
      <trkpt lat="47.79916" lon="6.83414">
        <ele>708.8</ele>
        <time>2026-08-23T10:23:42.000Z</time>
      </trkpt>
      <trkpt lat="47.79913" lon="6.83424">
        <ele>709.2</ele>
        <time>2026-08-23T10:23:44.000Z</time>
      </trkpt>
      <trkpt lat="47.79911" lon="6.83433">
        <ele>709.8</ele>
        <time>2026-08-23T10:23:46.000Z</time>
      </trkpt>
      <trkpt lat="47.79909" lon="6.83443">
        <ele>710.2</ele>
        <time>2026-08-23T10:23:48.000Z</time>
      </trkpt>
      <trkpt lat="47.79906" lon="6.83454">
        <ele>710.6</ele>
        <time>2026-08-23T10:23:50.000Z</time>
      </trkpt>
      <trkpt lat="47.79903" lon="6.83463">
        <ele>711.2</ele>
        <time>2026-08-23T10:23:52.000Z</time>
      </trkpt>
      <trkpt lat="47.79901" lon="6.83471">
        <ele>711.6</ele>
        <time>2026-08-23T10:23:54.000Z</time>
      </trkpt>
      <trkpt lat="47.79899" lon="6.8348">
        <ele>712</ele>
        <time>2026-08-23T10:23:56.000Z</time>
      </trkpt>
      <trkpt lat="47.79898" lon="6.83488">
        <ele>712.4</ele>
        <time>2026-08-23T10:23:58.000Z</time>
      </trkpt>
      <trkpt lat="47.79897" lon="6.83498">
        <ele>712.8</ele>
        <time>2026-08-23T10:24:00.000Z</time>
      </trkpt>
      <trkpt lat="47.79896" lon="6.83508">
        <ele>713</ele>
        <time>2026-08-23T10:24:02.000Z</time>
      </trkpt>
      <trkpt lat="47.79896" lon="6.83517">
        <ele>713.2</ele>
        <time>2026-08-23T10:24:04.000Z</time>
      </trkpt>
      <trkpt lat="47.79896" lon="6.83526">
        <ele>713.4</ele>
        <time>2026-08-23T10:24:06.000Z</time>
      </trkpt>
      <trkpt lat="47.79896" lon="6.83536">
        <ele>713.6</ele>
        <time>2026-08-23T10:24:08.000Z</time>
      </trkpt>
      <trkpt lat="47.79896" lon="6.83544">
        <ele>714</ele>
        <time>2026-08-23T10:24:10.000Z</time>
      </trkpt>
      <trkpt lat="47.79896" lon="6.83554">
        <ele>714.4</ele>
        <time>2026-08-23T10:24:12.000Z</time>
      </trkpt>
      <trkpt lat="47.79895" lon="6.83563">
        <ele>714.8</ele>
        <time>2026-08-23T10:24:14.000Z</time>
      </trkpt>
      <trkpt lat="47.79893" lon="6.83572">
        <ele>715.2</ele>
        <time>2026-08-23T10:24:16.000Z</time>
      </trkpt>
      <trkpt lat="47.79889" lon="6.8358">
        <ele>715.6</ele>
        <time>2026-08-23T10:24:18.000Z</time>
      </trkpt>
      <trkpt lat="47.79884" lon="6.83587">
        <ele>716</ele>
        <time>2026-08-23T10:24:20.000Z</time>
      </trkpt>
      <trkpt lat="47.79878" lon="6.83592">
        <ele>716.4</ele>
        <time>2026-08-23T10:24:22.000Z</time>
      </trkpt>
      <trkpt lat="47.79871" lon="6.83596">
        <ele>716.8</ele>
        <time>2026-08-23T10:24:25.000Z</time>
      </trkpt>
      <trkpt lat="47.79865" lon="6.83599">
        <ele>717.2</ele>
        <time>2026-08-23T10:24:27.000Z</time>
      </trkpt>
      <trkpt lat="47.79858" lon="6.83601">
        <ele>717.6</ele>
        <time>2026-08-23T10:24:29.000Z</time>
      </trkpt>
      <trkpt lat="47.79852" lon="6.83603">
        <ele>718</ele>
        <time>2026-08-23T10:24:31.000Z</time>
      </trkpt>
      <trkpt lat="47.79846" lon="6.83606">
        <ele>718.4</ele>
        <time>2026-08-23T10:24:33.000Z</time>
      </trkpt>
      <trkpt lat="47.79841" lon="6.83609">
        <ele>719</ele>
        <time>2026-08-23T10:24:35.000Z</time>
      </trkpt>
      <trkpt lat="47.79835" lon="6.83612">
        <ele>719.4</ele>
        <time>2026-08-23T10:24:37.000Z</time>
      </trkpt>
      <trkpt lat="47.79828" lon="6.83614">
        <ele>719.8</ele>
        <time>2026-08-23T10:24:39.000Z</time>
      </trkpt>
      <trkpt lat="47.79822" lon="6.83617">
        <ele>720.2</ele>
        <time>2026-08-23T10:24:41.000Z</time>
      </trkpt>
      <trkpt lat="47.79816" lon="6.8362">
        <ele>720.8</ele>
        <time>2026-08-23T10:24:43.000Z</time>
      </trkpt>
      <trkpt lat="47.79811" lon="6.83624">
        <ele>721.2</ele>
        <time>2026-08-23T10:24:45.000Z</time>
      </trkpt>
      <trkpt lat="47.79805" lon="6.83627">
        <ele>721.6</ele>
        <time>2026-08-23T10:24:47.000Z</time>
      </trkpt>
      <trkpt lat="47.798" lon="6.8363">
        <ele>722.2</ele>
        <time>2026-08-23T10:24:49.000Z</time>
      </trkpt>
      <trkpt lat="47.79794" lon="6.83633">
        <ele>722.6</ele>
        <time>2026-08-23T10:24:51.000Z</time>
      </trkpt>
      <trkpt lat="47.7979" lon="6.83637">
        <ele>723</ele>
        <time>2026-08-23T10:24:53.000Z</time>
      </trkpt>
      <trkpt lat="47.79785" lon="6.8364">
        <ele>723.6</ele>
        <time>2026-08-23T10:24:55.000Z</time>
      </trkpt>
      <trkpt lat="47.7978" lon="6.83642">
        <ele>724.2</ele>
        <time>2026-08-23T10:24:57.000Z</time>
      </trkpt>
      <trkpt lat="47.79774" lon="6.83645">
        <ele>724.6</ele>
        <time>2026-08-23T10:24:59.000Z</time>
      </trkpt>
      <trkpt lat="47.79768" lon="6.83645">
        <ele>725.2</ele>
        <time>2026-08-23T10:25:01.000Z</time>
      </trkpt>
      <trkpt lat="47.79761" lon="6.83645">
        <ele>725.6</ele>
        <time>2026-08-23T10:25:03.000Z</time>
      </trkpt>
      <trkpt lat="47.79755" lon="6.83645">
        <ele>726.2</ele>
        <time>2026-08-23T10:25:05.000Z</time>
      </trkpt>
      <trkpt lat="47.79749" lon="6.83645">
        <ele>726.6</ele>
        <time>2026-08-23T10:25:07.000Z</time>
      </trkpt>
      <trkpt lat="47.79742" lon="6.83644">
        <ele>727</ele>
        <time>2026-08-23T10:25:09.000Z</time>
      </trkpt>
      <trkpt lat="47.79736" lon="6.83645">
        <ele>727.6</ele>
        <time>2026-08-23T10:25:11.000Z</time>
      </trkpt>
      <trkpt lat="47.7973" lon="6.83649">
        <ele>728</ele>
        <time>2026-08-23T10:25:13.000Z</time>
      </trkpt>
      <trkpt lat="47.79727" lon="6.83656">
        <ele>728.4</ele>
        <time>2026-08-23T10:25:15.000Z</time>
      </trkpt>
      <trkpt lat="47.79725" lon="6.83665">
        <ele>728.8</ele>
        <time>2026-08-23T10:25:17.000Z</time>
      </trkpt>
      <trkpt lat="47.79727" lon="6.83674">
        <ele>729</ele>
        <time>2026-08-23T10:25:19.000Z</time>
      </trkpt>
      <trkpt lat="47.79731" lon="6.83682">
        <ele>729.4</ele>
        <time>2026-08-23T10:25:21.000Z</time>
      </trkpt>
      <trkpt lat="47.7974" lon="6.83686">
        <ele>729.8</ele>
        <time>2026-08-23T10:25:23.000Z</time>
      </trkpt>
      <trkpt lat="47.79748" lon="6.83686">
        <ele>730.2</ele>
        <time>2026-08-23T10:25:25.000Z</time>
      </trkpt>
      <trkpt lat="47.79754" lon="6.83685">
        <ele>730.6</ele>
        <time>2026-08-23T10:25:27.000Z</time>
      </trkpt>
      <trkpt lat="47.7976" lon="6.83683">
        <ele>731</ele>
        <time>2026-08-23T10:25:29.000Z</time>
      </trkpt>
      <trkpt lat="47.79766" lon="6.83682">
        <ele>731.6</ele>
        <time>2026-08-23T10:25:31.000Z</time>
      </trkpt>
      <trkpt lat="47.79771" lon="6.83682">
        <ele>732</ele>
        <time>2026-08-23T10:25:33.000Z</time>
      </trkpt>
      <trkpt lat="47.79777" lon="6.83683">
        <ele>732.4</ele>
        <time>2026-08-23T10:25:35.000Z</time>
      </trkpt>
      <trkpt lat="47.79783" lon="6.83683">
        <ele>732.8</ele>
        <time>2026-08-23T10:25:37.000Z</time>
      </trkpt>
      <trkpt lat="47.79789" lon="6.83683">
        <ele>733.2</ele>
        <time>2026-08-23T10:25:39.000Z</time>
      </trkpt>
      <trkpt lat="47.79794" lon="6.83682">
        <ele>733.6</ele>
        <time>2026-08-23T10:25:41.000Z</time>
      </trkpt>
      <trkpt lat="47.798" lon="6.83682">
        <ele>734</ele>
        <time>2026-08-23T10:25:43.000Z</time>
      </trkpt>
      <trkpt lat="47.79806" lon="6.83682">
        <ele>734.6</ele>
        <time>2026-08-23T10:25:45.000Z</time>
      </trkpt>
      <trkpt lat="47.79811" lon="6.83682">
        <ele>735</ele>
        <time>2026-08-23T10:25:47.000Z</time>
      </trkpt>
      <trkpt lat="47.79817" lon="6.83682">
        <ele>735.4</ele>
        <time>2026-08-23T10:25:49.000Z</time>
      </trkpt>
      <trkpt lat="47.79823" lon="6.83681">
        <ele>735.8</ele>
        <time>2026-08-23T10:25:51.000Z</time>
      </trkpt>
      <trkpt lat="47.79828" lon="6.83681">
        <ele>736.4</ele>
        <time>2026-08-23T10:25:53.000Z</time>
      </trkpt>
      <trkpt lat="47.79834" lon="6.83681">
        <ele>736.8</ele>
        <time>2026-08-23T10:25:55.000Z</time>
      </trkpt>
      <trkpt lat="47.79839" lon="6.83681">
        <ele>737.2</ele>
        <time>2026-08-23T10:25:57.000Z</time>
      </trkpt>
      <trkpt lat="47.79844" lon="6.83682">
        <ele>737.6</ele>
        <time>2026-08-23T10:25:59.000Z</time>
      </trkpt>
      <trkpt lat="47.7985" lon="6.83685">
        <ele>738</ele>
        <time>2026-08-23T10:26:01.000Z</time>
      </trkpt>
      <trkpt lat="47.79856" lon="6.83689">
        <ele>738.4</ele>
        <time>2026-08-23T10:26:03.000Z</time>
      </trkpt>
      <trkpt lat="47.79862" lon="6.83692">
        <ele>739</ele>
        <time>2026-08-23T10:26:05.000Z</time>
      </trkpt>
      <trkpt lat="47.79868" lon="6.83696">
        <ele>739.4</ele>
        <time>2026-08-23T10:26:07.000Z</time>
      </trkpt>
      <trkpt lat="47.79873" lon="6.83699">
        <ele>740</ele>
        <time>2026-08-23T10:26:09.000Z</time>
      </trkpt>
      <trkpt lat="47.79879" lon="6.83702">
        <ele>740.4</ele>
        <time>2026-08-23T10:26:12.000Z</time>
      </trkpt>
      <trkpt lat="47.79884" lon="6.83705">
        <ele>740.8</ele>
        <time>2026-08-23T10:26:14.000Z</time>
      </trkpt>
      <trkpt lat="47.7989" lon="6.83708">
        <ele>741.4</ele>
        <time>2026-08-23T10:26:16.000Z</time>
      </trkpt>
      <trkpt lat="47.79895" lon="6.8371">
        <ele>741.8</ele>
        <time>2026-08-23T10:26:18.000Z</time>
      </trkpt>
      <trkpt lat="47.79901" lon="6.83712">
        <ele>742.2</ele>
        <time>2026-08-23T10:26:20.000Z</time>
      </trkpt>
      <trkpt lat="47.79907" lon="6.83714">
        <ele>742.6</ele>
        <time>2026-08-23T10:26:22.000Z</time>
      </trkpt>
      <trkpt lat="47.79912" lon="6.83715">
        <ele>743</ele>
        <time>2026-08-23T10:26:24.000Z</time>
      </trkpt>
      <trkpt lat="47.79918" lon="6.83715">
        <ele>743.6</ele>
        <time>2026-08-23T10:26:26.000Z</time>
      </trkpt>
      <trkpt lat="47.79924" lon="6.83716">
        <ele>744</ele>
        <time>2026-08-23T10:26:28.000Z</time>
      </trkpt>
      <trkpt lat="47.79929" lon="6.83716">
        <ele>744.4</ele>
        <time>2026-08-23T10:26:30.000Z</time>
      </trkpt>
      <trkpt lat="47.79935" lon="6.83717">
        <ele>745</ele>
        <time>2026-08-23T10:26:32.000Z</time>
      </trkpt>
      <trkpt lat="47.7994" lon="6.83717">
        <ele>745.4</ele>
        <time>2026-08-23T10:26:34.000Z</time>
      </trkpt>
      <trkpt lat="47.79946" lon="6.83717">
        <ele>745.8</ele>
        <time>2026-08-23T10:26:36.000Z</time>
      </trkpt>
      <trkpt lat="47.79951" lon="6.83718">
        <ele>746.4</ele>
        <time>2026-08-23T10:26:38.000Z</time>
      </trkpt>
      <trkpt lat="47.79957" lon="6.83718">
        <ele>746.8</ele>
        <time>2026-08-23T10:26:40.000Z</time>
      </trkpt>
      <trkpt lat="47.79962" lon="6.83717">
        <ele>747.2</ele>
        <time>2026-08-23T10:26:42.000Z</time>
      </trkpt>
      <trkpt lat="47.79968" lon="6.83716">
        <ele>747.8</ele>
        <time>2026-08-23T10:26:44.000Z</time>
      </trkpt>
      <trkpt lat="47.79973" lon="6.83713">
        <ele>748.2</ele>
        <time>2026-08-23T10:26:46.000Z</time>
      </trkpt>
      <trkpt lat="47.79978" lon="6.83709">
        <ele>748.4</ele>
        <time>2026-08-23T10:26:48.000Z</time>
      </trkpt>
      <trkpt lat="47.79983" lon="6.83704">
        <ele>748.8</ele>
        <time>2026-08-23T10:26:50.000Z</time>
      </trkpt>
      <trkpt lat="47.79988" lon="6.83699">
        <ele>749</ele>
        <time>2026-08-23T10:26:52.000Z</time>
      </trkpt>
      <trkpt lat="47.79993" lon="6.83693">
        <ele>749.4</ele>
        <time>2026-08-23T10:26:54.000Z</time>
      </trkpt>
      <trkpt lat="47.79998" lon="6.83688">
        <ele>749.8</ele>
        <time>2026-08-23T10:26:56.000Z</time>
      </trkpt>
      <trkpt lat="47.80003" lon="6.83683">
        <ele>750.4</ele>
        <time>2026-08-23T10:26:58.000Z</time>
      </trkpt>
      <trkpt lat="47.8001" lon="6.83681">
        <ele>750.8</ele>
        <time>2026-08-23T10:27:00.000Z</time>
      </trkpt>
      <trkpt lat="47.80016" lon="6.83681">
        <ele>751.4</ele>
        <time>2026-08-23T10:27:02.000Z</time>
      </trkpt>
      <trkpt lat="47.80023" lon="6.83681">
        <ele>752</ele>
        <time>2026-08-23T10:27:04.000Z</time>
      </trkpt>
      <trkpt lat="47.80029" lon="6.8368">
        <ele>752.4</ele>
        <time>2026-08-23T10:27:06.000Z</time>
      </trkpt>
      <trkpt lat="47.80033" lon="6.83678">
        <ele>752.8</ele>
        <time>2026-08-23T10:27:08.000Z</time>
      </trkpt>
      <trkpt lat="47.80038" lon="6.83673">
        <ele>753.2</ele>
        <time>2026-08-23T10:27:10.000Z</time>
      </trkpt>
      <trkpt lat="47.80042" lon="6.83668">
        <ele>753.6</ele>
        <time>2026-08-23T10:27:12.000Z</time>
      </trkpt>
      <trkpt lat="47.80045" lon="6.83662">
        <ele>753.8</ele>
        <time>2026-08-23T10:27:14.000Z</time>
      </trkpt>
      <trkpt lat="47.80047" lon="6.83655">
        <ele>754.2</ele>
        <time>2026-08-23T10:27:16.000Z</time>
      </trkpt>
      <trkpt lat="47.8005" lon="6.83648">
        <ele>754.4</ele>
        <time>2026-08-23T10:27:18.000Z</time>
      </trkpt>
      <trkpt lat="47.80051" lon="6.8364">
        <ele>754.8</ele>
        <time>2026-08-23T10:27:20.000Z</time>
      </trkpt>
      <trkpt lat="47.80053" lon="6.83633">
        <ele>755.4</ele>
        <time>2026-08-23T10:27:22.000Z</time>
      </trkpt>
      <trkpt lat="47.80054" lon="6.83625">
        <ele>755.6</ele>
        <time>2026-08-23T10:27:24.000Z</time>
      </trkpt>
      <trkpt lat="47.80054" lon="6.83618">
        <ele>756</ele>
        <time>2026-08-23T10:27:26.000Z</time>
      </trkpt>
      <trkpt lat="47.80054" lon="6.8361">
        <ele>756.2</ele>
        <time>2026-08-23T10:27:28.000Z</time>
      </trkpt>
      <trkpt lat="47.80054" lon="6.83602">
        <ele>756.2</ele>
        <time>2026-08-23T10:27:30.000Z</time>
      </trkpt>
      <trkpt lat="47.80053" lon="6.83595">
        <ele>756.6</ele>
        <time>2026-08-23T10:27:32.000Z</time>
      </trkpt>
      <trkpt lat="47.80051" lon="6.83587">
        <ele>757</ele>
        <time>2026-08-23T10:27:35.000Z</time>
      </trkpt>
      <trkpt lat="47.8005" lon="6.8358">
        <ele>757.6</ele>
        <time>2026-08-23T10:27:37.000Z</time>
      </trkpt>
      <trkpt lat="47.80048" lon="6.83572">
        <ele>758.2</ele>
        <time>2026-08-23T10:27:39.000Z</time>
      </trkpt>
      <trkpt lat="47.80047" lon="6.83565">
        <ele>758.8</ele>
        <time>2026-08-23T10:27:41.000Z</time>
      </trkpt>
      <trkpt lat="47.80046" lon="6.83558">
        <ele>759.2</ele>
        <time>2026-08-23T10:27:43.000Z</time>
      </trkpt>
      <trkpt lat="47.80046" lon="6.83551">
        <ele>759.8</ele>
        <time>2026-08-23T10:27:45.000Z</time>
      </trkpt>
      <trkpt lat="47.80046" lon="6.83543">
        <ele>760.2</ele>
        <time>2026-08-23T10:27:47.000Z</time>
      </trkpt>
      <trkpt lat="47.80046" lon="6.83535">
        <ele>760.8</ele>
        <time>2026-08-23T10:27:49.000Z</time>
      </trkpt>
      <trkpt lat="47.80046" lon="6.83527">
        <ele>761.2</ele>
        <time>2026-08-23T10:27:51.000Z</time>
      </trkpt>
      <trkpt lat="47.80047" lon="6.83518">
        <ele>761.6</ele>
        <time>2026-08-23T10:27:53.000Z</time>
      </trkpt>
      <trkpt lat="47.80048" lon="6.83509">
        <ele>762</ele>
        <time>2026-08-23T10:27:55.000Z</time>
      </trkpt>
      <trkpt lat="47.8005" lon="6.835">
        <ele>762.2</ele>
        <time>2026-08-23T10:27:57.000Z</time>
      </trkpt>
      <trkpt lat="47.80052" lon="6.83491">
        <ele>762.4</ele>
        <time>2026-08-23T10:27:59.000Z</time>
      </trkpt>
      <trkpt lat="47.80056" lon="6.83483">
        <ele>762.6</ele>
        <time>2026-08-23T10:28:01.000Z</time>
      </trkpt>
      <trkpt lat="47.8006" lon="6.83476">
        <ele>762.8</ele>
        <time>2026-08-23T10:28:03.000Z</time>
      </trkpt>
      <trkpt lat="47.80064" lon="6.8347">
        <ele>763.2</ele>
        <time>2026-08-23T10:28:05.000Z</time>
      </trkpt>
      <trkpt lat="47.80069" lon="6.83465">
        <ele>763.6</ele>
        <time>2026-08-23T10:28:07.000Z</time>
      </trkpt>
      <trkpt lat="47.80073" lon="6.8346">
        <ele>764.2</ele>
        <time>2026-08-23T10:28:09.000Z</time>
      </trkpt>
      <trkpt lat="47.80078" lon="6.83456">
        <ele>764.6</ele>
        <time>2026-08-23T10:28:11.000Z</time>
      </trkpt>
      <trkpt lat="47.80083" lon="6.83451">
        <ele>764.8</ele>
        <time>2026-08-23T10:28:13.000Z</time>
      </trkpt>
      <trkpt lat="47.80087" lon="6.83447">
        <ele>765.2</ele>
        <time>2026-08-23T10:28:15.000Z</time>
      </trkpt>
      <trkpt lat="47.80092" lon="6.83443">
        <ele>765.6</ele>
        <time>2026-08-23T10:28:17.000Z</time>
      </trkpt>
      <trkpt lat="47.80097" lon="6.83438">
        <ele>766</ele>
        <time>2026-08-23T10:28:19.000Z</time>
      </trkpt>
      <trkpt lat="47.80102" lon="6.83433">
        <ele>766.4</ele>
        <time>2026-08-23T10:28:21.000Z</time>
      </trkpt>
      <trkpt lat="47.80106" lon="6.83428">
        <ele>766.8</ele>
        <time>2026-08-23T10:28:23.000Z</time>
      </trkpt>
      <trkpt lat="47.80111" lon="6.83423">
        <ele>767</ele>
        <time>2026-08-23T10:28:25.000Z</time>
      </trkpt>
      <trkpt lat="47.80116" lon="6.83415">
        <ele>767.4</ele>
        <time>2026-08-23T10:28:27.000Z</time>
      </trkpt>
      <trkpt lat="47.8012" lon="6.83407">
        <ele>767.8</ele>
        <time>2026-08-23T10:28:29.000Z</time>
      </trkpt>
      <trkpt lat="47.80124" lon="6.834">
        <ele>768.2</ele>
        <time>2026-08-23T10:28:31.000Z</time>
      </trkpt>
      <trkpt lat="47.80129" lon="6.83396">
        <ele>768.6</ele>
        <time>2026-08-23T10:28:33.000Z</time>
      </trkpt>
      <trkpt lat="47.80134" lon="6.83397">
        <ele>768.8</ele>
        <time>2026-08-23T10:28:35.000Z</time>
      </trkpt>
      <trkpt lat="47.80137" lon="6.83404">
        <ele>769.4</ele>
        <time>2026-08-23T10:28:37.000Z</time>
      </trkpt>
      <trkpt lat="47.80137" lon="6.83413">
        <ele>770</ele>
        <time>2026-08-23T10:28:39.000Z</time>
      </trkpt>
      <trkpt lat="47.80134" lon="6.83421">
        <ele>770.6</ele>
        <time>2026-08-23T10:28:41.000Z</time>
      </trkpt>
      <trkpt lat="47.8013" lon="6.83428">
        <ele>771</ele>
        <time>2026-08-23T10:28:43.000Z</time>
      </trkpt>
      <trkpt lat="47.80127" lon="6.83435">
        <ele>771.4</ele>
        <time>2026-08-23T10:28:45.000Z</time>
      </trkpt>
      <trkpt lat="47.80124" lon="6.83441">
        <ele>771.8</ele>
        <time>2026-08-23T10:28:47.000Z</time>
      </trkpt>
      <trkpt lat="47.80122" lon="6.83448">
        <ele>772.4</ele>
        <time>2026-08-23T10:28:49.000Z</time>
      </trkpt>
      <trkpt lat="47.80121" lon="6.83455">
        <ele>772.8</ele>
        <time>2026-08-23T10:28:51.000Z</time>
      </trkpt>
      <trkpt lat="47.80119" lon="6.83461">
        <ele>773.2</ele>
        <time>2026-08-23T10:28:53.000Z</time>
      </trkpt>
      <trkpt lat="47.80119" lon="6.83468">
        <ele>773.6</ele>
        <time>2026-08-23T10:28:55.000Z</time>
      </trkpt>
      <trkpt lat="47.80118" lon="6.83475">
        <ele>774</ele>
        <time>2026-08-23T10:28:57.000Z</time>
      </trkpt>
      <trkpt lat="47.80118" lon="6.83483">
        <ele>774.6</ele>
        <time>2026-08-23T10:28:59.000Z</time>
      </trkpt>
      <trkpt lat="47.80119" lon="6.8349">
        <ele>775</ele>
        <time>2026-08-23T10:29:01.000Z</time>
      </trkpt>
      <trkpt lat="47.80119" lon="6.83497">
        <ele>775.4</ele>
        <time>2026-08-23T10:29:03.000Z</time>
      </trkpt>
      <trkpt lat="47.8012" lon="6.83505">
        <ele>775.8</ele>
        <time>2026-08-23T10:29:05.000Z</time>
      </trkpt>
      <trkpt lat="47.80122" lon="6.83512">
        <ele>776</ele>
        <time>2026-08-23T10:29:07.000Z</time>
      </trkpt>
      <trkpt lat="47.80123" lon="6.83519">
        <ele>776.4</ele>
        <time>2026-08-23T10:29:09.000Z</time>
      </trkpt>
      <trkpt lat="47.80125" lon="6.83526">
        <ele>776.8</ele>
        <time>2026-08-23T10:29:11.000Z</time>
      </trkpt>
      <trkpt lat="47.80126" lon="6.83533">
        <ele>777.2</ele>
        <time>2026-08-23T10:29:13.000Z</time>
      </trkpt>
      <trkpt lat="47.80128" lon="6.83541">
        <ele>777.4</ele>
        <time>2026-08-23T10:29:15.000Z</time>
      </trkpt>
      <trkpt lat="47.8013" lon="6.83548">
        <ele>777.8</ele>
        <time>2026-08-23T10:29:17.000Z</time>
      </trkpt>
      <trkpt lat="47.80132" lon="6.83556">
        <ele>778</ele>
        <time>2026-08-23T10:29:19.000Z</time>
      </trkpt>
      <trkpt lat="47.80133" lon="6.83565">
        <ele>778.4</ele>
        <time>2026-08-23T10:29:22.000Z</time>
      </trkpt>
      <trkpt lat="47.80134" lon="6.83573">
        <ele>778.8</ele>
        <time>2026-08-23T10:29:24.000Z</time>
      </trkpt>
      <trkpt lat="47.80134" lon="6.83582">
        <ele>779.2</ele>
        <time>2026-08-23T10:29:26.000Z</time>
      </trkpt>
      <trkpt lat="47.80135" lon="6.83589">
        <ele>779.6</ele>
        <time>2026-08-23T10:29:28.000Z</time>
      </trkpt>
      <trkpt lat="47.80136" lon="6.83597">
        <ele>780</ele>
        <time>2026-08-23T10:29:30.000Z</time>
      </trkpt>
      <trkpt lat="47.80137" lon="6.83604">
        <ele>780.4</ele>
        <time>2026-08-23T10:29:32.000Z</time>
      </trkpt>
      <trkpt lat="47.80139" lon="6.83611">
        <ele>781</ele>
        <time>2026-08-23T10:29:34.000Z</time>
      </trkpt>
      <trkpt lat="47.8014" lon="6.83619">
        <ele>781.4</ele>
        <time>2026-08-23T10:29:36.000Z</time>
      </trkpt>
      <trkpt lat="47.80141" lon="6.83626">
        <ele>782</ele>
        <time>2026-08-23T10:29:38.000Z</time>
      </trkpt>
      <trkpt lat="47.80143" lon="6.83633">
        <ele>782.4</ele>
        <time>2026-08-23T10:29:40.000Z</time>
      </trkpt>
      <trkpt lat="47.80145" lon="6.8364">
        <ele>783</ele>
        <time>2026-08-23T10:29:42.000Z</time>
      </trkpt>
      <trkpt lat="47.80147" lon="6.83647">
        <ele>783.4</ele>
        <time>2026-08-23T10:29:44.000Z</time>
      </trkpt>
      <trkpt lat="47.8015" lon="6.83654">
        <ele>783.6</ele>
        <time>2026-08-23T10:29:46.000Z</time>
      </trkpt>
      <trkpt lat="47.80151" lon="6.83662">
        <ele>784</ele>
        <time>2026-08-23T10:29:48.000Z</time>
      </trkpt>
      <trkpt lat="47.80152" lon="6.83669">
        <ele>784.4</ele>
        <time>2026-08-23T10:29:50.000Z</time>
      </trkpt>
      <trkpt lat="47.80153" lon="6.83677">
        <ele>784.6</ele>
        <time>2026-08-23T10:29:52.000Z</time>
      </trkpt>
      <trkpt lat="47.80154" lon="6.83684">
        <ele>785</ele>
        <time>2026-08-23T10:29:54.000Z</time>
      </trkpt>
      <trkpt lat="47.80155" lon="6.83692">
        <ele>785.6</ele>
        <time>2026-08-23T10:29:56.000Z</time>
      </trkpt>
      <trkpt lat="47.80156" lon="6.837">
        <ele>786</ele>
        <time>2026-08-23T10:29:58.000Z</time>
      </trkpt>
      <trkpt lat="47.80158" lon="6.83707">
        <ele>786.4</ele>
        <time>2026-08-23T10:30:00.000Z</time>
      </trkpt>
      <trkpt lat="47.8016" lon="6.83714">
        <ele>786.8</ele>
        <time>2026-08-23T10:30:02.000Z</time>
      </trkpt>
      <trkpt lat="47.80162" lon="6.83721">
        <ele>787</ele>
        <time>2026-08-23T10:30:04.000Z</time>
      </trkpt>
      <trkpt lat="47.80166" lon="6.83729">
        <ele>787.4</ele>
        <time>2026-08-23T10:30:06.000Z</time>
      </trkpt>
      <trkpt lat="47.8017" lon="6.83738">
        <ele>787.8</ele>
        <time>2026-08-23T10:30:08.000Z</time>
      </trkpt>
      <trkpt lat="47.80173" lon="6.83746">
        <ele>788.2</ele>
        <time>2026-08-23T10:30:10.000Z</time>
      </trkpt>
      <trkpt lat="47.80175" lon="6.83754">
        <ele>788.4</ele>
        <time>2026-08-23T10:30:12.000Z</time>
      </trkpt>
      <trkpt lat="47.80177" lon="6.83763">
        <ele>788.6</ele>
        <time>2026-08-23T10:30:14.000Z</time>
      </trkpt>
      <trkpt lat="47.80178" lon="6.83772">
        <ele>788.8</ele>
        <time>2026-08-23T10:30:16.000Z</time>
      </trkpt>
      <trkpt lat="47.80178" lon="6.83781">
        <ele>789.2</ele>
        <time>2026-08-23T10:30:18.000Z</time>
      </trkpt>
      <trkpt lat="47.80178" lon="6.8379">
        <ele>789.2</ele>
        <time>2026-08-23T10:30:20.000Z</time>
      </trkpt>
      <trkpt lat="47.80177" lon="6.83799">
        <ele>789.6</ele>
        <time>2026-08-23T10:30:22.000Z</time>
      </trkpt>
      <trkpt lat="47.80176" lon="6.83808">
        <ele>789.8</ele>
        <time>2026-08-23T10:30:24.000Z</time>
      </trkpt>
      <trkpt lat="47.80173" lon="6.83817">
        <ele>790</ele>
        <time>2026-08-23T10:30:26.000Z</time>
      </trkpt>
      <trkpt lat="47.80169" lon="6.83825">
        <ele>790.4</ele>
        <time>2026-08-23T10:30:28.000Z</time>
      </trkpt>
      <trkpt lat="47.80164" lon="6.8383">
        <ele>790.6</ele>
        <time>2026-08-23T10:30:30.000Z</time>
      </trkpt>
      <trkpt lat="47.80158" lon="6.83834">
        <ele>791</ele>
        <time>2026-08-23T10:30:32.000Z</time>
      </trkpt>
      <trkpt lat="47.80152" lon="6.83836">
        <ele>791.4</ele>
        <time>2026-08-23T10:30:34.000Z</time>
      </trkpt>
      <trkpt lat="47.80146" lon="6.83837">
        <ele>791.8</ele>
        <time>2026-08-23T10:30:36.000Z</time>
      </trkpt>
      <trkpt lat="47.80141" lon="6.83837">
        <ele>792.2</ele>
        <time>2026-08-23T10:30:38.000Z</time>
      </trkpt>
      <trkpt lat="47.80136" lon="6.83838">
        <ele>792.6</ele>
        <time>2026-08-23T10:30:40.000Z</time>
      </trkpt>
      <trkpt lat="47.8013" lon="6.83839">
        <ele>792.8</ele>
        <time>2026-08-23T10:30:43.000Z</time>
      </trkpt>
      <trkpt lat="47.80125" lon="6.83841">
        <ele>793</ele>
        <time>2026-08-23T10:30:45.000Z</time>
      </trkpt>
      <trkpt lat="47.80119" lon="6.83842">
        <ele>793.4</ele>
        <time>2026-08-23T10:30:47.000Z</time>
      </trkpt>
      <trkpt lat="47.80113" lon="6.83843">
        <ele>793.6</ele>
        <time>2026-08-23T10:30:49.000Z</time>
      </trkpt>
      <trkpt lat="47.80107" lon="6.83844">
        <ele>793.8</ele>
        <time>2026-08-23T10:30:51.000Z</time>
      </trkpt>
      <trkpt lat="47.80101" lon="6.83846">
        <ele>794.2</ele>
        <time>2026-08-23T10:30:53.000Z</time>
      </trkpt>
      <trkpt lat="47.80096" lon="6.83848">
        <ele>794.6</ele>
        <time>2026-08-23T10:30:55.000Z</time>
      </trkpt>
      <trkpt lat="47.80091" lon="6.8385">
        <ele>794.8</ele>
        <time>2026-08-23T10:30:57.000Z</time>
      </trkpt>
      <trkpt lat="47.80086" lon="6.83852">
        <ele>795.2</ele>
        <time>2026-08-23T10:30:59.000Z</time>
      </trkpt>
      <trkpt lat="47.8008" lon="6.83853">
        <ele>795.6</ele>
        <time>2026-08-23T10:31:01.000Z</time>
      </trkpt>
      <trkpt lat="47.80075" lon="6.83855">
        <ele>796</ele>
        <time>2026-08-23T10:31:03.000Z</time>
      </trkpt>
      <trkpt lat="47.80069" lon="6.83857">
        <ele>796.4</ele>
        <time>2026-08-23T10:31:05.000Z</time>
      </trkpt>
      <trkpt lat="47.80064" lon="6.83859">
        <ele>796.8</ele>
        <time>2026-08-23T10:31:07.000Z</time>
      </trkpt>
      <trkpt lat="47.80058" lon="6.8386">
        <ele>797</ele>
        <time>2026-08-23T10:31:09.000Z</time>
      </trkpt>
      <trkpt lat="47.80053" lon="6.83861">
        <ele>797.4</ele>
        <time>2026-08-23T10:31:11.000Z</time>
      </trkpt>
      <trkpt lat="47.80047" lon="6.83863">
        <ele>797.6</ele>
        <time>2026-08-23T10:31:13.000Z</time>
      </trkpt>
      <trkpt lat="47.80041" lon="6.83865">
        <ele>798</ele>
        <time>2026-08-23T10:31:15.000Z</time>
      </trkpt>
      <trkpt lat="47.80036" lon="6.83866">
        <ele>798.2</ele>
        <time>2026-08-23T10:31:17.000Z</time>
      </trkpt>
      <trkpt lat="47.8003" lon="6.83867">
        <ele>798.6</ele>
        <time>2026-08-23T10:31:19.000Z</time>
      </trkpt>
      <trkpt lat="47.80024" lon="6.83869">
        <ele>799</ele>
        <time>2026-08-23T10:31:21.000Z</time>
      </trkpt>
      <trkpt lat="47.80018" lon="6.83871">
        <ele>799.2</ele>
        <time>2026-08-23T10:31:23.000Z</time>
      </trkpt>
      <trkpt lat="47.80013" lon="6.83873">
        <ele>799.6</ele>
        <time>2026-08-23T10:31:25.000Z</time>
      </trkpt>
      <trkpt lat="47.80008" lon="6.83877">
        <ele>800</ele>
        <time>2026-08-23T10:31:27.000Z</time>
      </trkpt>
      <trkpt lat="47.80003" lon="6.83881">
        <ele>800.6</ele>
        <time>2026-08-23T10:31:29.000Z</time>
      </trkpt>
      <trkpt lat="47.79999" lon="6.83887">
        <ele>801</ele>
        <time>2026-08-23T10:31:31.000Z</time>
      </trkpt>
      <trkpt lat="47.79994" lon="6.83892">
        <ele>801.2</ele>
        <time>2026-08-23T10:31:33.000Z</time>
      </trkpt>
      <trkpt lat="47.79989" lon="6.83898">
        <ele>801.6</ele>
        <time>2026-08-23T10:31:35.000Z</time>
      </trkpt>
      <trkpt lat="47.79985" lon="6.83903">
        <ele>801.8</ele>
        <time>2026-08-23T10:31:37.000Z</time>
      </trkpt>
      <trkpt lat="47.7998" lon="6.83909">
        <ele>802.2</ele>
        <time>2026-08-23T10:31:39.000Z</time>
      </trkpt>
      <trkpt lat="47.79974" lon="6.83916">
        <ele>802.6</ele>
        <time>2026-08-23T10:31:41.000Z</time>
      </trkpt>
      <trkpt lat="47.79969" lon="6.83922">
        <ele>803</ele>
        <time>2026-08-23T10:31:43.000Z</time>
      </trkpt>
      <trkpt lat="47.79964" lon="6.83927">
        <ele>803.4</ele>
        <time>2026-08-23T10:31:45.000Z</time>
      </trkpt>
      <trkpt lat="47.7996" lon="6.83931">
        <ele>803.8</ele>
        <time>2026-08-23T10:31:47.000Z</time>
      </trkpt>
      <trkpt lat="47.79956" lon="6.83936">
        <ele>804.2</ele>
        <time>2026-08-23T10:31:49.000Z</time>
      </trkpt>
      <trkpt lat="47.79952" lon="6.83941">
        <ele>804.6</ele>
        <time>2026-08-23T10:31:51.000Z</time>
      </trkpt>
      <trkpt lat="47.79947" lon="6.83945">
        <ele>805.2</ele>
        <time>2026-08-23T10:31:53.000Z</time>
      </trkpt>
      <trkpt lat="47.79942" lon="6.83949">
        <ele>805.6</ele>
        <time>2026-08-23T10:31:55.000Z</time>
      </trkpt>
      <trkpt lat="47.79936" lon="6.83952">
        <ele>806</ele>
        <time>2026-08-23T10:31:57.000Z</time>
      </trkpt>
      <trkpt lat="47.79931" lon="6.83954">
        <ele>806.4</ele>
        <time>2026-08-23T10:31:59.000Z</time>
      </trkpt>
      <trkpt lat="47.79925" lon="6.83954">
        <ele>806.8</ele>
        <time>2026-08-23T10:32:01.000Z</time>
      </trkpt>
      <trkpt lat="47.7992" lon="6.83952">
        <ele>807.4</ele>
        <time>2026-08-23T10:32:03.000Z</time>
      </trkpt>
      <trkpt lat="47.79915" lon="6.83948">
        <ele>807.8</ele>
        <time>2026-08-23T10:32:05.000Z</time>
      </trkpt>
      <trkpt lat="47.7991" lon="6.83944">
        <ele>808.2</ele>
        <time>2026-08-23T10:32:07.000Z</time>
      </trkpt>
      <trkpt lat="47.79905" lon="6.83941">
        <ele>808.6</ele>
        <time>2026-08-23T10:32:09.000Z</time>
      </trkpt>
      <trkpt lat="47.79899" lon="6.83938">
        <ele>809</ele>
        <time>2026-08-23T10:32:11.000Z</time>
      </trkpt>
      <trkpt lat="47.79894" lon="6.83936">
        <ele>809.4</ele>
        <time>2026-08-23T10:32:13.000Z</time>
      </trkpt>
      <trkpt lat="47.79889" lon="6.83935">
        <ele>809.8</ele>
        <time>2026-08-23T10:32:15.000Z</time>
      </trkpt>
      <trkpt lat="47.79883" lon="6.83935">
        <ele>810.2</ele>
        <time>2026-08-23T10:32:17.000Z</time>
      </trkpt>
      <trkpt lat="47.79878" lon="6.83935">
        <ele>810.6</ele>
        <time>2026-08-23T10:32:19.000Z</time>
      </trkpt>
      <trkpt lat="47.79873" lon="6.83936">
        <ele>810.8</ele>
        <time>2026-08-23T10:32:21.000Z</time>
      </trkpt>
      <trkpt lat="47.79867" lon="6.83936">
        <ele>811.2</ele>
        <time>2026-08-23T10:32:23.000Z</time>
      </trkpt>
      <trkpt lat="47.79862" lon="6.83937">
        <ele>811.6</ele>
        <time>2026-08-23T10:32:25.000Z</time>
      </trkpt>
      <trkpt lat="47.79857" lon="6.83938">
        <ele>812</ele>
        <time>2026-08-23T10:32:28.000Z</time>
      </trkpt>
      <trkpt lat="47.79852" lon="6.8394">
        <ele>812.2</ele>
        <time>2026-08-23T10:32:30.000Z</time>
      </trkpt>
      <trkpt lat="47.79846" lon="6.83942">
        <ele>812.6</ele>
        <time>2026-08-23T10:32:32.000Z</time>
      </trkpt>
      <trkpt lat="47.79841" lon="6.83943">
        <ele>813</ele>
        <time>2026-08-23T10:32:34.000Z</time>
      </trkpt>
      <trkpt lat="47.79835" lon="6.83942">
        <ele>813.2</ele>
        <time>2026-08-23T10:32:36.000Z</time>
      </trkpt>
      <trkpt lat="47.7983" lon="6.8394">
        <ele>813.6</ele>
        <time>2026-08-23T10:32:38.000Z</time>
      </trkpt>
      <trkpt lat="47.79825" lon="6.83935">
        <ele>814</ele>
        <time>2026-08-23T10:32:40.000Z</time>
      </trkpt>
      <trkpt lat="47.79821" lon="6.83929">
        <ele>814.6</ele>
        <time>2026-08-23T10:32:42.000Z</time>
      </trkpt>
      <trkpt lat="47.79818" lon="6.83924">
        <ele>815</ele>
        <time>2026-08-23T10:32:44.000Z</time>
      </trkpt>
      <trkpt lat="47.79813" lon="6.83919">
        <ele>815.6</ele>
        <time>2026-08-23T10:32:46.000Z</time>
      </trkpt>
      <trkpt lat="47.79809" lon="6.83915">
        <ele>816</ele>
        <time>2026-08-23T10:32:48.000Z</time>
      </trkpt>
      <trkpt lat="47.79804" lon="6.83913">
        <ele>816.4</ele>
        <time>2026-08-23T10:32:50.000Z</time>
      </trkpt>
      <trkpt lat="47.79798" lon="6.83911">
        <ele>816.6</ele>
        <time>2026-08-23T10:32:52.000Z</time>
      </trkpt>
      <trkpt lat="47.79793" lon="6.8391">
        <ele>816.8</ele>
        <time>2026-08-23T10:32:54.000Z</time>
      </trkpt>
      <trkpt lat="47.79787" lon="6.8391">
        <ele>817</ele>
        <time>2026-08-23T10:32:56.000Z</time>
      </trkpt>
      <trkpt lat="47.79782" lon="6.83909">
        <ele>817.2</ele>
        <time>2026-08-23T10:32:58.000Z</time>
      </trkpt>
      <trkpt lat="47.79776" lon="6.83908">
        <ele>817.6</ele>
        <time>2026-08-23T10:33:00.000Z</time>
      </trkpt>
      <trkpt lat="47.79771" lon="6.83907">
        <ele>817.8</ele>
        <time>2026-08-23T10:33:02.000Z</time>
      </trkpt>
      <trkpt lat="47.79765" lon="6.83906">
        <ele>818</ele>
        <time>2026-08-23T10:33:04.000Z</time>
      </trkpt>
      <trkpt lat="47.79759" lon="6.83905">
        <ele>818.4</ele>
        <time>2026-08-23T10:33:06.000Z</time>
      </trkpt>
      <trkpt lat="47.79752" lon="6.83904">
        <ele>818.8</ele>
        <time>2026-08-23T10:33:08.000Z</time>
      </trkpt>
      <trkpt lat="47.79746" lon="6.83902">
        <ele>819.2</ele>
        <time>2026-08-23T10:33:10.000Z</time>
      </trkpt>
      <trkpt lat="47.7974" lon="6.839">
        <ele>819.6</ele>
        <time>2026-08-23T10:33:12.000Z</time>
      </trkpt>
      <trkpt lat="47.79734" lon="6.83899">
        <ele>820</ele>
        <time>2026-08-23T10:33:14.000Z</time>
      </trkpt>
      <trkpt lat="47.79728" lon="6.83897">
        <ele>820.6</ele>
        <time>2026-08-23T10:33:16.000Z</time>
      </trkpt>
      <trkpt lat="47.79723" lon="6.83897">
        <ele>821</ele>
        <time>2026-08-23T10:33:18.000Z</time>
      </trkpt>
      <trkpt lat="47.79717" lon="6.83899">
        <ele>821.6</ele>
        <time>2026-08-23T10:33:20.000Z</time>
      </trkpt>
      <trkpt lat="47.79713" lon="6.83904">
        <ele>821.8</ele>
        <time>2026-08-23T10:33:22.000Z</time>
      </trkpt>
      <trkpt lat="47.79711" lon="6.83913">
        <ele>822</ele>
        <time>2026-08-23T10:33:24.000Z</time>
      </trkpt>
      <trkpt lat="47.79711" lon="6.83924">
        <ele>822.2</ele>
        <time>2026-08-23T10:33:26.000Z</time>
      </trkpt>
      <trkpt lat="47.79715" lon="6.83932">
        <ele>822.4</ele>
        <time>2026-08-23T10:33:28.000Z</time>
      </trkpt>
      <trkpt lat="47.79721" lon="6.83938">
        <ele>822.6</ele>
        <time>2026-08-23T10:33:30.000Z</time>
      </trkpt>
      <trkpt lat="47.79728" lon="6.8394">
        <ele>822.8</ele>
        <time>2026-08-23T10:33:32.000Z</time>
      </trkpt>
      <trkpt lat="47.79736" lon="6.83939">
        <ele>823</ele>
        <time>2026-08-23T10:33:34.000Z</time>
      </trkpt>
      <trkpt lat="47.79742" lon="6.83937">
        <ele>823.4</ele>
        <time>2026-08-23T10:33:36.000Z</time>
      </trkpt>
      <trkpt lat="47.79748" lon="6.83936">
        <ele>823.8</ele>
        <time>2026-08-23T10:33:38.000Z</time>
      </trkpt>
      <trkpt lat="47.79754" lon="6.83934">
        <ele>824.2</ele>
        <time>2026-08-23T10:33:40.000Z</time>
      </trkpt>
      <trkpt lat="47.79759" lon="6.83933">
        <ele>824.6</ele>
        <time>2026-08-23T10:33:42.000Z</time>
      </trkpt>
      <trkpt lat="47.79765" lon="6.83933">
        <ele>825</ele>
        <time>2026-08-23T10:33:44.000Z</time>
      </trkpt>
      <trkpt lat="47.7977" lon="6.83934">
        <ele>825.4</ele>
        <time>2026-08-23T10:33:46.000Z</time>
      </trkpt>
      <trkpt lat="47.79775" lon="6.83936">
        <ele>826</ele>
        <time>2026-08-23T10:33:49.000Z</time>
      </trkpt>
      <trkpt lat="47.7978" lon="6.83939">
        <ele>826.4</ele>
        <time>2026-08-23T10:33:51.000Z</time>
      </trkpt>
      <trkpt lat="47.79785" lon="6.83942">
        <ele>827</ele>
        <time>2026-08-23T10:33:53.000Z</time>
      </trkpt>
      <trkpt lat="47.7979" lon="6.83945">
        <ele>827.4</ele>
        <time>2026-08-23T10:33:55.000Z</time>
      </trkpt>
      <trkpt lat="47.79794" lon="6.8395">
        <ele>828</ele>
        <time>2026-08-23T10:33:57.000Z</time>
      </trkpt>
      <trkpt lat="47.79798" lon="6.83955">
        <ele>828.6</ele>
        <time>2026-08-23T10:33:59.000Z</time>
      </trkpt>
      <trkpt lat="47.79802" lon="6.83962">
        <ele>829</ele>
        <time>2026-08-23T10:34:01.000Z</time>
      </trkpt>
      <trkpt lat="47.79804" lon="6.83969">
        <ele>829.6</ele>
        <time>2026-08-23T10:34:03.000Z</time>
      </trkpt>
      <trkpt lat="47.79807" lon="6.83976">
        <ele>830.2</ele>
        <time>2026-08-23T10:34:05.000Z</time>
      </trkpt>
      <trkpt lat="47.79809" lon="6.83983">
        <ele>830.8</ele>
        <time>2026-08-23T10:34:07.000Z</time>
      </trkpt>
      <trkpt lat="47.79811" lon="6.8399">
        <ele>831.2</ele>
        <time>2026-08-23T10:34:09.000Z</time>
      </trkpt>
      <trkpt lat="47.79813" lon="6.83995">
        <ele>831.8</ele>
        <time>2026-08-23T10:34:11.000Z</time>
      </trkpt>
      <trkpt lat="47.79817" lon="6.84">
        <ele>832.2</ele>
        <time>2026-08-23T10:34:13.000Z</time>
      </trkpt>
      <trkpt lat="47.79822" lon="6.84003">
        <ele>832.4</ele>
        <time>2026-08-23T10:34:15.000Z</time>
      </trkpt>
      <trkpt lat="47.79829" lon="6.84006">
        <ele>832.8</ele>
        <time>2026-08-23T10:34:17.000Z</time>
      </trkpt>
      <trkpt lat="47.79835" lon="6.84007">
        <ele>833</ele>
        <time>2026-08-23T10:34:19.000Z</time>
      </trkpt>
      <trkpt lat="47.79841" lon="6.84007">
        <ele>833.4</ele>
        <time>2026-08-23T10:34:21.000Z</time>
      </trkpt>
      <trkpt lat="47.79847" lon="6.84006">
        <ele>833.6</ele>
        <time>2026-08-23T10:34:23.000Z</time>
      </trkpt>
      <trkpt lat="47.79853" lon="6.84005">
        <ele>833.8</ele>
        <time>2026-08-23T10:34:25.000Z</time>
      </trkpt>
      <trkpt lat="47.79859" lon="6.84005">
        <ele>834</ele>
        <time>2026-08-23T10:34:27.000Z</time>
      </trkpt>
      <trkpt lat="47.79864" lon="6.84006">
        <ele>834.2</ele>
        <time>2026-08-23T10:34:29.000Z</time>
      </trkpt>
      <trkpt lat="47.79869" lon="6.84008">
        <ele>834.6</ele>
        <time>2026-08-23T10:34:31.000Z</time>
      </trkpt>
      <trkpt lat="47.79875" lon="6.84009">
        <ele>834.8</ele>
        <time>2026-08-23T10:34:33.000Z</time>
      </trkpt>
      <trkpt lat="47.7988" lon="6.84012">
        <ele>835.2</ele>
        <time>2026-08-23T10:34:35.000Z</time>
      </trkpt>
      <trkpt lat="47.79885" lon="6.84015">
        <ele>835.6</ele>
        <time>2026-08-23T10:34:37.000Z</time>
      </trkpt>
      <trkpt lat="47.79891" lon="6.84019">
        <ele>836</ele>
        <time>2026-08-23T10:34:39.000Z</time>
      </trkpt>
      <trkpt lat="47.79897" lon="6.84024">
        <ele>836.4</ele>
        <time>2026-08-23T10:34:41.000Z</time>
      </trkpt>
      <trkpt lat="47.79902" lon="6.84028">
        <ele>836.8</ele>
        <time>2026-08-23T10:34:43.000Z</time>
      </trkpt>
      <trkpt lat="47.79906" lon="6.84033">
        <ele>837.2</ele>
        <time>2026-08-23T10:34:45.000Z</time>
      </trkpt>
      <trkpt lat="47.7991" lon="6.84038">
        <ele>837.6</ele>
        <time>2026-08-23T10:34:47.000Z</time>
      </trkpt>
      <trkpt lat="47.79914" lon="6.84043">
        <ele>838</ele>
        <time>2026-08-23T10:34:49.000Z</time>
      </trkpt>
      <trkpt lat="47.79917" lon="6.84048">
        <ele>838.4</ele>
        <time>2026-08-23T10:34:51.000Z</time>
      </trkpt>
      <trkpt lat="47.79921" lon="6.84054">
        <ele>838.8</ele>
        <time>2026-08-23T10:34:53.000Z</time>
      </trkpt>
      <trkpt lat="47.79924" lon="6.84059">
        <ele>839.2</ele>
        <time>2026-08-23T10:34:55.000Z</time>
      </trkpt>
      <trkpt lat="47.79928" lon="6.84065">
        <ele>839.6</ele>
        <time>2026-08-23T10:34:57.000Z</time>
      </trkpt>
      <trkpt lat="47.79931" lon="6.84071">
        <ele>840</ele>
        <time>2026-08-23T10:34:59.000Z</time>
      </trkpt>
      <trkpt lat="47.79934" lon="6.84077">
        <ele>840.6</ele>
        <time>2026-08-23T10:35:01.000Z</time>
      </trkpt>
      <trkpt lat="47.79936" lon="6.84083">
        <ele>841</ele>
        <time>2026-08-23T10:35:03.000Z</time>
      </trkpt>
      <trkpt lat="47.79939" lon="6.84089">
        <ele>841.4</ele>
        <time>2026-08-23T10:35:05.000Z</time>
      </trkpt>
      <trkpt lat="47.79942" lon="6.84095">
        <ele>841.8</ele>
        <time>2026-08-23T10:35:07.000Z</time>
      </trkpt>
      <trkpt lat="47.79945" lon="6.841">
        <ele>842.2</ele>
        <time>2026-08-23T10:35:09.000Z</time>
      </trkpt>
      <trkpt lat="47.79948" lon="6.84107">
        <ele>842.6</ele>
        <time>2026-08-23T10:35:11.000Z</time>
      </trkpt>
      <trkpt lat="47.79951" lon="6.84112">
        <ele>843.2</ele>
        <time>2026-08-23T10:35:13.000Z</time>
      </trkpt>
      <trkpt lat="47.79954" lon="6.84117">
        <ele>843.6</ele>
        <time>2026-08-23T10:35:15.000Z</time>
      </trkpt>
      <trkpt lat="47.79958" lon="6.8412">
        <ele>844</ele>
        <time>2026-08-23T10:35:17.000Z</time>
      </trkpt>
      <trkpt lat="47.79963" lon="6.8412">
        <ele>844.2</ele>
        <time>2026-08-23T10:35:19.000Z</time>
      </trkpt>
      <trkpt lat="47.79968" lon="6.84117">
        <ele>844.4</ele>
        <time>2026-08-23T10:35:21.000Z</time>
      </trkpt>
      <trkpt lat="47.79973" lon="6.84112">
        <ele>844.4</ele>
        <time>2026-08-23T10:35:23.000Z</time>
      </trkpt>
      <trkpt lat="47.79977" lon="6.84104">
        <ele>844.6</ele>
        <time>2026-08-23T10:35:25.000Z</time>
      </trkpt>
      <trkpt lat="47.79979" lon="6.84095">
        <ele>844.6</ele>
        <time>2026-08-23T10:35:27.000Z</time>
      </trkpt>
      <trkpt lat="47.79981" lon="6.84086">
        <ele>844.8</ele>
        <time>2026-08-23T10:35:30.000Z</time>
      </trkpt>
      <trkpt lat="47.79982" lon="6.84077">
        <ele>845</ele>
        <time>2026-08-23T10:35:32.000Z</time>
      </trkpt>
      <trkpt lat="47.79985" lon="6.84069">
        <ele>845.2</ele>
        <time>2026-08-23T10:35:34.000Z</time>
      </trkpt>
      <trkpt lat="47.79988" lon="6.84061">
        <ele>845.6</ele>
        <time>2026-08-23T10:35:36.000Z</time>
      </trkpt>
      <trkpt lat="47.79992" lon="6.84055">
        <ele>846</ele>
        <time>2026-08-23T10:35:38.000Z</time>
      </trkpt>
      <trkpt lat="47.79996" lon="6.84051">
        <ele>846.4</ele>
        <time>2026-08-23T10:35:40.000Z</time>
      </trkpt>
      <trkpt lat="47.80002" lon="6.84048">
        <ele>846.8</ele>
        <time>2026-08-23T10:35:42.000Z</time>
      </trkpt>
      <trkpt lat="47.80007" lon="6.84048">
        <ele>847.4</ele>
        <time>2026-08-23T10:35:44.000Z</time>
      </trkpt>
      <trkpt lat="47.80013" lon="6.84048">
        <ele>847.8</ele>
        <time>2026-08-23T10:35:46.000Z</time>
      </trkpt>
      <trkpt lat="47.80018" lon="6.84049">
        <ele>848.2</ele>
        <time>2026-08-23T10:35:48.000Z</time>
      </trkpt>
      <trkpt lat="47.80023" lon="6.84049">
        <ele>848.6</ele>
        <time>2026-08-23T10:35:50.000Z</time>
      </trkpt>
      <trkpt lat="47.80028" lon="6.84048">
        <ele>849</ele>
        <time>2026-08-23T10:35:52.000Z</time>
      </trkpt>
      <trkpt lat="47.80034" lon="6.84045">
        <ele>849.4</ele>
        <time>2026-08-23T10:35:54.000Z</time>
      </trkpt>
      <trkpt lat="47.8004" lon="6.8404">
        <ele>849.6</ele>
        <time>2026-08-23T10:35:56.000Z</time>
      </trkpt>
      <trkpt lat="47.80045" lon="6.84034">
        <ele>849.8</ele>
        <time>2026-08-23T10:35:58.000Z</time>
      </trkpt>
      <trkpt lat="47.80049" lon="6.84028">
        <ele>850.2</ele>
        <time>2026-08-23T10:36:00.000Z</time>
      </trkpt>
      <trkpt lat="47.80053" lon="6.84022">
        <ele>850.4</ele>
        <time>2026-08-23T10:36:02.000Z</time>
      </trkpt>
      <trkpt lat="47.80057" lon="6.84017">
        <ele>850.8</ele>
        <time>2026-08-23T10:36:04.000Z</time>
      </trkpt>
      <trkpt lat="47.80062" lon="6.84013">
        <ele>851.2</ele>
        <time>2026-08-23T10:36:06.000Z</time>
      </trkpt>
      <trkpt lat="47.80067" lon="6.8401">
        <ele>851.6</ele>
        <time>2026-08-23T10:36:08.000Z</time>
      </trkpt>
      <trkpt lat="47.80074" lon="6.84007">
        <ele>852.2</ele>
        <time>2026-08-23T10:36:10.000Z</time>
      </trkpt>
      <trkpt lat="47.8008" lon="6.84005">
        <ele>852.6</ele>
        <time>2026-08-23T10:36:12.000Z</time>
      </trkpt>
      <trkpt lat="47.80086" lon="6.84004">
        <ele>853</ele>
        <time>2026-08-23T10:36:14.000Z</time>
      </trkpt>
      <trkpt lat="47.80091" lon="6.84004">
        <ele>853.4</ele>
        <time>2026-08-23T10:36:16.000Z</time>
      </trkpt>
      <trkpt lat="47.80096" lon="6.84004">
        <ele>853.8</ele>
        <time>2026-08-23T10:36:18.000Z</time>
      </trkpt>
      <trkpt lat="47.80101" lon="6.84005">
        <ele>854.2</ele>
        <time>2026-08-23T10:36:20.000Z</time>
      </trkpt>
      <trkpt lat="47.80106" lon="6.84006">
        <ele>854.4</ele>
        <time>2026-08-23T10:36:22.000Z</time>
      </trkpt>
      <trkpt lat="47.80111" lon="6.84006">
        <ele>854.8</ele>
        <time>2026-08-23T10:36:24.000Z</time>
      </trkpt>
      <trkpt lat="47.80116" lon="6.84007">
        <ele>855.2</ele>
        <time>2026-08-23T10:36:26.000Z</time>
      </trkpt>
      <trkpt lat="47.80121" lon="6.84007">
        <ele>855.6</ele>
        <time>2026-08-23T10:36:28.000Z</time>
      </trkpt>
      <trkpt lat="47.80125" lon="6.84007">
        <ele>856</ele>
        <time>2026-08-23T10:36:30.000Z</time>
      </trkpt>
      <trkpt lat="47.8013" lon="6.84008">
        <ele>856.4</ele>
        <time>2026-08-23T10:36:32.000Z</time>
      </trkpt>
      <trkpt lat="47.80135" lon="6.84009">
        <ele>856.6</ele>
        <time>2026-08-23T10:36:34.000Z</time>
      </trkpt>
      <trkpt lat="47.8014" lon="6.8401">
        <ele>857</ele>
        <time>2026-08-23T10:36:36.000Z</time>
      </trkpt>
      <trkpt lat="47.80146" lon="6.8401">
        <ele>857.4</ele>
        <time>2026-08-23T10:36:38.000Z</time>
      </trkpt>
      <trkpt lat="47.80151" lon="6.84011">
        <ele>857.8</ele>
        <time>2026-08-23T10:36:40.000Z</time>
      </trkpt>
      <trkpt lat="47.80156" lon="6.84012">
        <ele>858</ele>
        <time>2026-08-23T10:36:42.000Z</time>
      </trkpt>
      <trkpt lat="47.80161" lon="6.84012">
        <ele>858.4</ele>
        <time>2026-08-23T10:36:44.000Z</time>
      </trkpt>
      <trkpt lat="47.80167" lon="6.84012">
        <ele>858.8</ele>
        <time>2026-08-23T10:36:46.000Z</time>
      </trkpt>
      <trkpt lat="47.80172" lon="6.84011">
        <ele>859.2</ele>
        <time>2026-08-23T10:36:48.000Z</time>
      </trkpt>
      <trkpt lat="47.80178" lon="6.84011">
        <ele>859.4</ele>
        <time>2026-08-23T10:36:50.000Z</time>
      </trkpt>
      <trkpt lat="47.80183" lon="6.84011">
        <ele>859.8</ele>
        <time>2026-08-23T10:36:52.000Z</time>
      </trkpt>
      <trkpt lat="47.80188" lon="6.84012">
        <ele>860.2</ele>
        <time>2026-08-23T10:36:55.000Z</time>
      </trkpt>
      <trkpt lat="47.80193" lon="6.84013">
        <ele>860.6</ele>
        <time>2026-08-23T10:36:57.000Z</time>
      </trkpt>
      <trkpt lat="47.80198" lon="6.84015">
        <ele>861</ele>
        <time>2026-08-23T10:36:59.000Z</time>
      </trkpt>
      <trkpt lat="47.80203" lon="6.84016">
        <ele>861.4</ele>
        <time>2026-08-23T10:37:01.000Z</time>
      </trkpt>
      <trkpt lat="47.80209" lon="6.84018">
        <ele>861.8</ele>
        <time>2026-08-23T10:37:03.000Z</time>
      </trkpt>
      <trkpt lat="47.80214" lon="6.8402">
        <ele>862.2</ele>
        <time>2026-08-23T10:37:05.000Z</time>
      </trkpt>
      <trkpt lat="47.80219" lon="6.84021">
        <ele>862.4</ele>
        <time>2026-08-23T10:37:07.000Z</time>
      </trkpt>
      <trkpt lat="47.80224" lon="6.84024">
        <ele>862.8</ele>
        <time>2026-08-23T10:37:09.000Z</time>
      </trkpt>
      <trkpt lat="47.80229" lon="6.84026">
        <ele>863.2</ele>
        <time>2026-08-23T10:37:11.000Z</time>
      </trkpt>
      <trkpt lat="47.80233" lon="6.84029">
        <ele>863.6</ele>
        <time>2026-08-23T10:37:13.000Z</time>
      </trkpt>
      <trkpt lat="47.80237" lon="6.8403">
        <ele>864</ele>
        <time>2026-08-23T10:37:15.000Z</time>
      </trkpt>
      <trkpt lat="47.80241" lon="6.84033">
        <ele>864.4</ele>
        <time>2026-08-23T10:37:17.000Z</time>
      </trkpt>
      <trkpt lat="47.80245" lon="6.84037">
        <ele>864.8</ele>
        <time>2026-08-23T10:37:19.000Z</time>
      </trkpt>
      <trkpt lat="47.8025" lon="6.84041">
        <ele>865.2</ele>
        <time>2026-08-23T10:37:21.000Z</time>
      </trkpt>
      <trkpt lat="47.80254" lon="6.84046">
        <ele>865.6</ele>
        <time>2026-08-23T10:37:23.000Z</time>
      </trkpt>
      <trkpt lat="47.8026" lon="6.84049">
        <ele>866</ele>
        <time>2026-08-23T10:37:25.000Z</time>
      </trkpt>
      <trkpt lat="47.80265" lon="6.84053">
        <ele>866.4</ele>
        <time>2026-08-23T10:37:27.000Z</time>
      </trkpt>
      <trkpt lat="47.8027" lon="6.84057">
        <ele>866.8</ele>
        <time>2026-08-23T10:37:29.000Z</time>
      </trkpt>
      <trkpt lat="47.80274" lon="6.84061">
        <ele>867.2</ele>
        <time>2026-08-23T10:37:31.000Z</time>
      </trkpt>
      <trkpt lat="47.80279" lon="6.84065">
        <ele>867.6</ele>
        <time>2026-08-23T10:37:33.000Z</time>
      </trkpt>
      <trkpt lat="47.80284" lon="6.84067">
        <ele>868</ele>
        <time>2026-08-23T10:37:35.000Z</time>
      </trkpt>
      <trkpt lat="47.80291" lon="6.84069">
        <ele>868.4</ele>
        <time>2026-08-23T10:37:37.000Z</time>
      </trkpt>
      <trkpt lat="47.80297" lon="6.84071">
        <ele>868.8</ele>
        <time>2026-08-23T10:37:39.000Z</time>
      </trkpt>
      <trkpt lat="47.80302" lon="6.84072">
        <ele>869</ele>
        <time>2026-08-23T10:37:41.000Z</time>
      </trkpt>
      <trkpt lat="47.80308" lon="6.84073">
        <ele>869.4</ele>
        <time>2026-08-23T10:37:43.000Z</time>
      </trkpt>
      <trkpt lat="47.80313" lon="6.84075">
        <ele>869.6</ele>
        <time>2026-08-23T10:37:45.000Z</time>
      </trkpt>
      <trkpt lat="47.80318" lon="6.84076">
        <ele>870</ele>
        <time>2026-08-23T10:37:47.000Z</time>
      </trkpt>
      <trkpt lat="47.80323" lon="6.84078">
        <ele>870.4</ele>
        <time>2026-08-23T10:37:49.000Z</time>
      </trkpt>
      <trkpt lat="47.80328" lon="6.8408">
        <ele>870.6</ele>
        <time>2026-08-23T10:37:51.000Z</time>
      </trkpt>
      <trkpt lat="47.80333" lon="6.84082">
        <ele>871</ele>
        <time>2026-08-23T10:37:53.000Z</time>
      </trkpt>
      <trkpt lat="47.80338" lon="6.84084">
        <ele>871.4</ele>
        <time>2026-08-23T10:37:55.000Z</time>
      </trkpt>
      <trkpt lat="47.80343" lon="6.84087">
        <ele>871.6</ele>
        <time>2026-08-23T10:37:57.000Z</time>
      </trkpt>
      <trkpt lat="47.80348" lon="6.8409">
        <ele>872</ele>
        <time>2026-08-23T10:37:59.000Z</time>
      </trkpt>
      <trkpt lat="47.80353" lon="6.84094">
        <ele>872.4</ele>
        <time>2026-08-23T10:38:01.000Z</time>
      </trkpt>
      <trkpt lat="47.80358" lon="6.84096">
        <ele>872.8</ele>
        <time>2026-08-23T10:38:03.000Z</time>
      </trkpt>
      <trkpt lat="47.80363" lon="6.84099">
        <ele>873.2</ele>
        <time>2026-08-23T10:38:05.000Z</time>
      </trkpt>
      <trkpt lat="47.80368" lon="6.84103">
        <ele>873.6</ele>
        <time>2026-08-23T10:38:07.000Z</time>
      </trkpt>
      <trkpt lat="47.80373" lon="6.84106">
        <ele>874.2</ele>
        <time>2026-08-23T10:38:09.000Z</time>
      </trkpt>
      <trkpt lat="47.80378" lon="6.8411">
        <ele>874.6</ele>
        <time>2026-08-23T10:38:11.000Z</time>
      </trkpt>
      <trkpt lat="47.80383" lon="6.84112">
        <ele>875</ele>
        <time>2026-08-23T10:38:13.000Z</time>
      </trkpt>
      <trkpt lat="47.80387" lon="6.84114">
        <ele>875.4</ele>
        <time>2026-08-23T10:38:15.000Z</time>
      </trkpt>
      <trkpt lat="47.80392" lon="6.84117">
        <ele>875.8</ele>
        <time>2026-08-23T10:38:17.000Z</time>
      </trkpt>
      <trkpt lat="47.80397" lon="6.84118">
        <ele>876.2</ele>
        <time>2026-08-23T10:38:19.000Z</time>
      </trkpt>
      <trkpt lat="47.80402" lon="6.8412">
        <ele>876.6</ele>
        <time>2026-08-23T10:38:21.000Z</time>
      </trkpt>
      <trkpt lat="47.80407" lon="6.84121">
        <ele>877</ele>
        <time>2026-08-23T10:38:24.000Z</time>
      </trkpt>
      <trkpt lat="47.80412" lon="6.84123">
        <ele>877.4</ele>
        <time>2026-08-23T10:38:26.000Z</time>
      </trkpt>
      <trkpt lat="47.80418" lon="6.84125">
        <ele>877.6</ele>
        <time>2026-08-23T10:38:28.000Z</time>
      </trkpt>
      <trkpt lat="47.80423" lon="6.84128">
        <ele>878</ele>
        <time>2026-08-23T10:38:30.000Z</time>
      </trkpt>
      <trkpt lat="47.80429" lon="6.8413">
        <ele>878.4</ele>
        <time>2026-08-23T10:38:32.000Z</time>
      </trkpt>
      <trkpt lat="47.80434" lon="6.84132">
        <ele>878.6</ele>
        <time>2026-08-23T10:38:34.000Z</time>
      </trkpt>
      <trkpt lat="47.8044" lon="6.84134">
        <ele>879</ele>
        <time>2026-08-23T10:38:36.000Z</time>
      </trkpt>
      <trkpt lat="47.80445" lon="6.84137">
        <ele>879.4</ele>
        <time>2026-08-23T10:38:38.000Z</time>
      </trkpt>
      <trkpt lat="47.8045" lon="6.84139">
        <ele>879.8</ele>
        <time>2026-08-23T10:38:40.000Z</time>
      </trkpt>
      <trkpt lat="47.80456" lon="6.8414">
        <ele>880.2</ele>
        <time>2026-08-23T10:38:42.000Z</time>
      </trkpt>
      <trkpt lat="47.80461" lon="6.84142">
        <ele>880.4</ele>
        <time>2026-08-23T10:38:44.000Z</time>
      </trkpt>
      <trkpt lat="47.80466" lon="6.84144">
        <ele>880.6</ele>
        <time>2026-08-23T10:38:46.000Z</time>
      </trkpt>
      <trkpt lat="47.80471" lon="6.84147">
        <ele>881</ele>
        <time>2026-08-23T10:38:48.000Z</time>
      </trkpt>
      <trkpt lat="47.80476" lon="6.84149">
        <ele>881.2</ele>
        <time>2026-08-23T10:38:50.000Z</time>
      </trkpt>
      <trkpt lat="47.80482" lon="6.84151">
        <ele>881.6</ele>
        <time>2026-08-23T10:38:52.000Z</time>
      </trkpt>
      <trkpt lat="47.80487" lon="6.84153">
        <ele>881.8</ele>
        <time>2026-08-23T10:38:54.000Z</time>
      </trkpt>
      <trkpt lat="47.80493" lon="6.84155">
        <ele>882.2</ele>
        <time>2026-08-23T10:38:56.000Z</time>
      </trkpt>
      <trkpt lat="47.80498" lon="6.84156">
        <ele>882.4</ele>
        <time>2026-08-23T10:38:58.000Z</time>
      </trkpt>
      <trkpt lat="47.80503" lon="6.84157">
        <ele>882.8</ele>
        <time>2026-08-23T10:39:00.000Z</time>
      </trkpt>
      <trkpt lat="47.80509" lon="6.84159">
        <ele>883.2</ele>
        <time>2026-08-23T10:39:02.000Z</time>
      </trkpt>
      <trkpt lat="47.80514" lon="6.8416">
        <ele>883.4</ele>
        <time>2026-08-23T10:39:04.000Z</time>
      </trkpt>
      <trkpt lat="47.8052" lon="6.84162">
        <ele>883.6</ele>
        <time>2026-08-23T10:39:06.000Z</time>
      </trkpt>
      <trkpt lat="47.80526" lon="6.84164">
        <ele>884</ele>
        <time>2026-08-23T10:39:08.000Z</time>
      </trkpt>
      <trkpt lat="47.80532" lon="6.84166">
        <ele>884.2</ele>
        <time>2026-08-23T10:39:10.000Z</time>
      </trkpt>
      <trkpt lat="47.80538" lon="6.84171">
        <ele>884.6</ele>
        <time>2026-08-23T10:39:12.000Z</time>
      </trkpt>
      <trkpt lat="47.80541" lon="6.84181">
        <ele>885</ele>
        <time>2026-08-23T10:39:14.000Z</time>
      </trkpt>
      <trkpt lat="47.80538" lon="6.8419">
        <ele>885.4</ele>
        <time>2026-08-23T10:39:16.000Z</time>
      </trkpt>
      <trkpt lat="47.80532" lon="6.84194">
        <ele>885.8</ele>
        <time>2026-08-23T10:39:18.000Z</time>
      </trkpt>
      <trkpt lat="47.80525" lon="6.84192">
        <ele>886.2</ele>
        <time>2026-08-23T10:39:20.000Z</time>
      </trkpt>
      <trkpt lat="47.80519" lon="6.84187">
        <ele>886.8</ele>
        <time>2026-08-23T10:39:22.000Z</time>
      </trkpt>
      <trkpt lat="47.80513" lon="6.84183">
        <ele>887.2</ele>
        <time>2026-08-23T10:39:24.000Z</time>
      </trkpt>
      <trkpt lat="47.80508" lon="6.8418">
        <ele>887.4</ele>
        <time>2026-08-23T10:39:26.000Z</time>
      </trkpt>
      <trkpt lat="47.80503" lon="6.84178">
        <ele>887.8</ele>
        <time>2026-08-23T10:39:28.000Z</time>
      </trkpt>
      <trkpt lat="47.80497" lon="6.84176">
        <ele>888.2</ele>
        <time>2026-08-23T10:39:30.000Z</time>
      </trkpt>
      <trkpt lat="47.80492" lon="6.84174">
        <ele>888.6</ele>
        <time>2026-08-23T10:39:32.000Z</time>
      </trkpt>
      <trkpt lat="47.80487" lon="6.84173">
        <ele>889</ele>
        <time>2026-08-23T10:39:34.000Z</time>
      </trkpt>
      <trkpt lat="47.80481" lon="6.84172">
        <ele>889.4</ele>
        <time>2026-08-23T10:39:36.000Z</time>
      </trkpt>
      <trkpt lat="47.80476" lon="6.84171">
        <ele>889.6</ele>
        <time>2026-08-23T10:39:38.000Z</time>
      </trkpt>
      <trkpt lat="47.8047" lon="6.8417">
        <ele>890</ele>
        <time>2026-08-23T10:39:40.000Z</time>
      </trkpt>
      <trkpt lat="47.80465" lon="6.84169">
        <ele>890.4</ele>
        <time>2026-08-23T10:39:42.000Z</time>
      </trkpt>
      <trkpt lat="47.8046" lon="6.84168">
        <ele>890.8</ele>
        <time>2026-08-23T10:39:44.000Z</time>
      </trkpt>
      <trkpt lat="47.80455" lon="6.84167">
        <ele>891.4</ele>
        <time>2026-08-23T10:39:46.000Z</time>
      </trkpt>
      <trkpt lat="47.8045" lon="6.84166">
        <ele>891.8</ele>
        <time>2026-08-23T10:39:48.000Z</time>
      </trkpt>
      <trkpt lat="47.80445" lon="6.84165">
        <ele>892</ele>
        <time>2026-08-23T10:39:51.000Z</time>
      </trkpt>
      <trkpt lat="47.8044" lon="6.84164">
        <ele>892.4</ele>
        <time>2026-08-23T10:39:53.000Z</time>
      </trkpt>
      <trkpt lat="47.80434" lon="6.84163">
        <ele>892.8</ele>
        <time>2026-08-23T10:39:55.000Z</time>
      </trkpt>
      <trkpt lat="47.80429" lon="6.84161">
        <ele>893</ele>
        <time>2026-08-23T10:39:57.000Z</time>
      </trkpt>
      <trkpt lat="47.80424" lon="6.8416">
        <ele>893.4</ele>
        <time>2026-08-23T10:39:59.000Z</time>
      </trkpt>
      <trkpt lat="47.80418" lon="6.8416">
        <ele>893.6</ele>
        <time>2026-08-23T10:40:01.000Z</time>
      </trkpt>
      <trkpt lat="47.80413" lon="6.84159">
        <ele>893.8</ele>
        <time>2026-08-23T10:40:03.000Z</time>
      </trkpt>
      <trkpt lat="47.80407" lon="6.84158">
        <ele>894.2</ele>
        <time>2026-08-23T10:40:05.000Z</time>
      </trkpt>
      <trkpt lat="47.80402" lon="6.84156">
        <ele>894.6</ele>
        <time>2026-08-23T10:40:07.000Z</time>
      </trkpt>
      <trkpt lat="47.80397" lon="6.84156">
        <ele>894.8</ele>
        <time>2026-08-23T10:40:09.000Z</time>
      </trkpt>
      <trkpt lat="47.80391" lon="6.84155">
        <ele>895.2</ele>
        <time>2026-08-23T10:40:11.000Z</time>
      </trkpt>
      <trkpt lat="47.80386" lon="6.84154">
        <ele>895.6</ele>
        <time>2026-08-23T10:40:13.000Z</time>
      </trkpt>
      <trkpt lat="47.8038" lon="6.84154">
        <ele>896</ele>
        <time>2026-08-23T10:40:15.000Z</time>
      </trkpt>
      <trkpt lat="47.80374" lon="6.84155">
        <ele>896.4</ele>
        <time>2026-08-23T10:40:17.000Z</time>
      </trkpt>
      <trkpt lat="47.80369" lon="6.84155">
        <ele>896.8</ele>
        <time>2026-08-23T10:40:19.000Z</time>
      </trkpt>
      <trkpt lat="47.80363" lon="6.84155">
        <ele>897.2</ele>
        <time>2026-08-23T10:40:21.000Z</time>
      </trkpt>
      <trkpt lat="47.80358" lon="6.84155">
        <ele>897.6</ele>
        <time>2026-08-23T10:40:23.000Z</time>
      </trkpt>
      <trkpt lat="47.80353" lon="6.84155">
        <ele>898</ele>
        <time>2026-08-23T10:40:25.000Z</time>
      </trkpt>
      <trkpt lat="47.80347" lon="6.84154">
        <ele>898.2</ele>
        <time>2026-08-23T10:40:27.000Z</time>
      </trkpt>
      <trkpt lat="47.80341" lon="6.84155">
        <ele>898.6</ele>
        <time>2026-08-23T10:40:29.000Z</time>
      </trkpt>
      <trkpt lat="47.80335" lon="6.84155">
        <ele>899</ele>
        <time>2026-08-23T10:40:31.000Z</time>
      </trkpt>
      <trkpt lat="47.8033" lon="6.84155">
        <ele>899.4</ele>
        <time>2026-08-23T10:40:33.000Z</time>
      </trkpt>
      <trkpt lat="47.80324" lon="6.84155">
        <ele>899.8</ele>
        <time>2026-08-23T10:40:35.000Z</time>
      </trkpt>
      <trkpt lat="47.80318" lon="6.84155">
        <ele>900.2</ele>
        <time>2026-08-23T10:40:37.000Z</time>
      </trkpt>
      <trkpt lat="47.8031" lon="6.84155">
        <ele>900.6</ele>
        <time>2026-08-23T10:40:39.000Z</time>
      </trkpt>
      <trkpt lat="47.80303" lon="6.84156">
        <ele>900.8</ele>
        <time>2026-08-23T10:40:41.000Z</time>
      </trkpt>
      <trkpt lat="47.80298" lon="6.84156">
        <ele>901.2</ele>
        <time>2026-08-23T10:40:43.000Z</time>
      </trkpt>
      <trkpt lat="47.80292" lon="6.84155">
        <ele>901.6</ele>
        <time>2026-08-23T10:40:45.000Z</time>
      </trkpt>
      <trkpt lat="47.80286" lon="6.84155">
        <ele>901.8</ele>
        <time>2026-08-23T10:40:47.000Z</time>
      </trkpt>
      <trkpt lat="47.80279" lon="6.84153">
        <ele>902.2</ele>
        <time>2026-08-23T10:40:49.000Z</time>
      </trkpt>
      <trkpt lat="47.80273" lon="6.8415">
        <ele>902.6</ele>
        <time>2026-08-23T10:40:51.000Z</time>
      </trkpt>
      <trkpt lat="47.80268" lon="6.84147">
        <ele>903.2</ele>
        <time>2026-08-23T10:40:53.000Z</time>
      </trkpt>
      <trkpt lat="47.80262" lon="6.84144">
        <ele>903.6</ele>
        <time>2026-08-23T10:40:55.000Z</time>
      </trkpt>
      <trkpt lat="47.80255" lon="6.84141">
        <ele>904</ele>
        <time>2026-08-23T10:40:57.000Z</time>
      </trkpt>
      <trkpt lat="47.80248" lon="6.84137">
        <ele>904.6</ele>
        <time>2026-08-23T10:40:59.000Z</time>
      </trkpt>
      <trkpt lat="47.80241" lon="6.84134">
        <ele>905</ele>
        <time>2026-08-23T10:41:01.000Z</time>
      </trkpt>
      <trkpt lat="47.80233" lon="6.84131">
        <ele>905.6</ele>
        <time>2026-08-23T10:41:03.000Z</time>
      </trkpt>
      <trkpt lat="47.80225" lon="6.84128">
        <ele>906</ele>
        <time>2026-08-23T10:41:05.000Z</time>
      </trkpt>
      <trkpt lat="47.80218" lon="6.84125">
        <ele>906.4</ele>
        <time>2026-08-23T10:41:07.000Z</time>
      </trkpt>
      <trkpt lat="47.80211" lon="6.84122">
        <ele>907</ele>
        <time>2026-08-23T10:41:09.000Z</time>
      </trkpt>
      <trkpt lat="47.80205" lon="6.84121">
        <ele>907.2</ele>
        <time>2026-08-23T10:41:11.000Z</time>
      </trkpt>
      <trkpt lat="47.80199" lon="6.8412">
        <ele>907.6</ele>
        <time>2026-08-23T10:41:13.000Z</time>
      </trkpt>
      <trkpt lat="47.80193" lon="6.8412">
        <ele>907.8</ele>
        <time>2026-08-23T10:41:15.000Z</time>
      </trkpt>
      <trkpt lat="47.80187" lon="6.8412">
        <ele>908.2</ele>
        <time>2026-08-23T10:41:17.000Z</time>
      </trkpt>
      <trkpt lat="47.80181" lon="6.84121">
        <ele>908.4</ele>
        <time>2026-08-23T10:41:20.000Z</time>
      </trkpt>
      <trkpt lat="47.80175" lon="6.84121">
        <ele>908.8</ele>
        <time>2026-08-23T10:41:22.000Z</time>
      </trkpt>
      <trkpt lat="47.8017" lon="6.84121">
        <ele>909</ele>
        <time>2026-08-23T10:41:24.000Z</time>
      </trkpt>
      <trkpt lat="47.80164" lon="6.84123">
        <ele>909.4</ele>
        <time>2026-08-23T10:41:26.000Z</time>
      </trkpt>
      <trkpt lat="47.80159" lon="6.84126">
        <ele>909.8</ele>
        <time>2026-08-23T10:41:28.000Z</time>
      </trkpt>
      <trkpt lat="47.80153" lon="6.8413">
        <ele>910.2</ele>
        <time>2026-08-23T10:41:30.000Z</time>
      </trkpt>
      <trkpt lat="47.80148" lon="6.84133">
        <ele>910.6</ele>
        <time>2026-08-23T10:41:32.000Z</time>
      </trkpt>
      <trkpt lat="47.80142" lon="6.84137">
        <ele>911.2</ele>
        <time>2026-08-23T10:41:34.000Z</time>
      </trkpt>
      <trkpt lat="47.80137" lon="6.84142">
        <ele>911.4</ele>
        <time>2026-08-23T10:41:36.000Z</time>
      </trkpt>
      <trkpt lat="47.80132" lon="6.84147">
        <ele>911.6</ele>
        <time>2026-08-23T10:41:38.000Z</time>
      </trkpt>
      <trkpt lat="47.80127" lon="6.84153">
        <ele>911.8</ele>
        <time>2026-08-23T10:41:40.000Z</time>
      </trkpt>
      <trkpt lat="47.80122" lon="6.84158">
        <ele>912.2</ele>
        <time>2026-08-23T10:41:42.000Z</time>
      </trkpt>
      <trkpt lat="47.80118" lon="6.84164">
        <ele>912.6</ele>
        <time>2026-08-23T10:41:44.000Z</time>
      </trkpt>
      <trkpt lat="47.80113" lon="6.84169">
        <ele>913</ele>
        <time>2026-08-23T10:41:46.000Z</time>
      </trkpt>
      <trkpt lat="47.80108" lon="6.84174">
        <ele>913.4</ele>
        <time>2026-08-23T10:41:48.000Z</time>
      </trkpt>
      <trkpt lat="47.80103" lon="6.8418">
        <ele>913.6</ele>
        <time>2026-08-23T10:41:50.000Z</time>
      </trkpt>
      <trkpt lat="47.80098" lon="6.84185">
        <ele>913.8</ele>
        <time>2026-08-23T10:41:52.000Z</time>
      </trkpt>
      <trkpt lat="47.80093" lon="6.8419">
        <ele>914</ele>
        <time>2026-08-23T10:41:54.000Z</time>
      </trkpt>
      <trkpt lat="47.80088" lon="6.84196">
        <ele>914.2</ele>
        <time>2026-08-23T10:41:56.000Z</time>
      </trkpt>
      <trkpt lat="47.80084" lon="6.84202">
        <ele>914.6</ele>
        <time>2026-08-23T10:41:58.000Z</time>
      </trkpt>
      <trkpt lat="47.80079" lon="6.84208">
        <ele>914.8</ele>
        <time>2026-08-23T10:42:00.000Z</time>
      </trkpt>
      <trkpt lat="47.80076" lon="6.84215">
        <ele>915</ele>
        <time>2026-08-23T10:42:02.000Z</time>
      </trkpt>
      <trkpt lat="47.80072" lon="6.84222">
        <ele>915.4</ele>
        <time>2026-08-23T10:42:04.000Z</time>
      </trkpt>
      <trkpt lat="47.80069" lon="6.84229">
        <ele>915.8</ele>
        <time>2026-08-23T10:42:06.000Z</time>
      </trkpt>
      <trkpt lat="47.80066" lon="6.84237">
        <ele>916.4</ele>
        <time>2026-08-23T10:42:08.000Z</time>
      </trkpt>
      <trkpt lat="47.80063" lon="6.84246">
        <ele>916.8</ele>
        <time>2026-08-23T10:42:10.000Z</time>
      </trkpt>
      <trkpt lat="47.8006" lon="6.84256">
        <ele>917.4</ele>
        <time>2026-08-23T10:42:12.000Z</time>
      </trkpt>
      <trkpt lat="47.80058" lon="6.84265">
        <ele>917.8</ele>
        <time>2026-08-23T10:42:14.000Z</time>
      </trkpt>
      <trkpt lat="47.80056" lon="6.84273">
        <ele>918.2</ele>
        <time>2026-08-23T10:42:16.000Z</time>
      </trkpt>
      <trkpt lat="47.80054" lon="6.8428">
        <ele>918.6</ele>
        <time>2026-08-23T10:42:18.000Z</time>
      </trkpt>
      <trkpt lat="47.80053" lon="6.84288">
        <ele>919</ele>
        <time>2026-08-23T10:42:20.000Z</time>
      </trkpt>
      <trkpt lat="47.80052" lon="6.84297">
        <ele>919.4</ele>
        <time>2026-08-23T10:42:22.000Z</time>
      </trkpt>
      <trkpt lat="47.80051" lon="6.84306">
        <ele>919.6</ele>
        <time>2026-08-23T10:42:24.000Z</time>
      </trkpt>
      <trkpt lat="47.80049" lon="6.84314">
        <ele>920</ele>
        <time>2026-08-23T10:42:26.000Z</time>
      </trkpt>
      <trkpt lat="47.80048" lon="6.84322">
        <ele>920.4</ele>
        <time>2026-08-23T10:42:28.000Z</time>
      </trkpt>
      <trkpt lat="47.80047" lon="6.84331">
        <ele>920.6</ele>
        <time>2026-08-23T10:42:30.000Z</time>
      </trkpt>
      <trkpt lat="47.80045" lon="6.84339">
        <ele>920.8</ele>
        <time>2026-08-23T10:42:32.000Z</time>
      </trkpt>
      <trkpt lat="47.80044" lon="6.84347">
        <ele>921.2</ele>
        <time>2026-08-23T10:42:34.000Z</time>
      </trkpt>
      <trkpt lat="47.80042" lon="6.84356">
        <ele>921.6</ele>
        <time>2026-08-23T10:42:36.000Z</time>
      </trkpt>
      <trkpt lat="47.80041" lon="6.84365">
        <ele>922</ele>
        <time>2026-08-23T10:42:38.000Z</time>
      </trkpt>
      <trkpt lat="47.8004" lon="6.84373">
        <ele>922.4</ele>
        <time>2026-08-23T10:42:40.000Z</time>
      </trkpt>
      <trkpt lat="47.80038" lon="6.84381">
        <ele>922.6</ele>
        <time>2026-08-23T10:42:43.000Z</time>
      </trkpt>
      <trkpt lat="47.80036" lon="6.8439">
        <ele>923</ele>
        <time>2026-08-23T10:42:45.000Z</time>
      </trkpt>
      <trkpt lat="47.80034" lon="6.84398">
        <ele>923.4</ele>
        <time>2026-08-23T10:42:47.000Z</time>
      </trkpt>
      <trkpt lat="47.80031" lon="6.84407">
        <ele>924</ele>
        <time>2026-08-23T10:42:49.000Z</time>
      </trkpt>
      <trkpt lat="47.80028" lon="6.84415">
        <ele>924.4</ele>
        <time>2026-08-23T10:42:51.000Z</time>
      </trkpt>
      <trkpt lat="47.80023" lon="6.84421">
        <ele>924.6</ele>
        <time>2026-08-23T10:42:53.000Z</time>
      </trkpt>
      <trkpt lat="47.80016" lon="6.84426">
        <ele>925</ele>
        <time>2026-08-23T10:42:55.000Z</time>
      </trkpt>
      <trkpt lat="47.80009" lon="6.84427">
        <ele>925.2</ele>
        <time>2026-08-23T10:42:57.000Z</time>
      </trkpt>
      <trkpt lat="47.80001" lon="6.84429">
        <ele>925.4</ele>
        <time>2026-08-23T10:42:59.000Z</time>
      </trkpt>
      <trkpt lat="47.79994" lon="6.84429">
        <ele>925.4</ele>
        <time>2026-08-23T10:43:01.000Z</time>
      </trkpt>
      <trkpt lat="47.79986" lon="6.84429">
        <ele>925.4</ele>
        <time>2026-08-23T10:43:03.000Z</time>
      </trkpt>
      <trkpt lat="47.79978" lon="6.84427">
        <ele>925.6</ele>
        <time>2026-08-23T10:43:05.000Z</time>
      </trkpt>
      <trkpt lat="47.7997" lon="6.84425">
        <ele>925.8</ele>
        <time>2026-08-23T10:43:07.000Z</time>
      </trkpt>
      <trkpt lat="47.79963" lon="6.84422">
        <ele>926</ele>
        <time>2026-08-23T10:43:09.000Z</time>
      </trkpt>
      <trkpt lat="47.79957" lon="6.84418">
        <ele>926.2</ele>
        <time>2026-08-23T10:43:11.000Z</time>
      </trkpt>
      <trkpt lat="47.79951" lon="6.84414">
        <ele>926.6</ele>
        <time>2026-08-23T10:43:13.000Z</time>
      </trkpt>
      <trkpt lat="47.79945" lon="6.8441">
        <ele>926.8</ele>
        <time>2026-08-23T10:43:15.000Z</time>
      </trkpt>
      <trkpt lat="47.7994" lon="6.84406">
        <ele>927.2</ele>
        <time>2026-08-23T10:43:17.000Z</time>
      </trkpt>
      <trkpt lat="47.79934" lon="6.84402">
        <ele>927.6</ele>
        <time>2026-08-23T10:43:19.000Z</time>
      </trkpt>
      <trkpt lat="47.79929" lon="6.84398">
        <ele>927.8</ele>
        <time>2026-08-23T10:43:21.000Z</time>
      </trkpt>
      <trkpt lat="47.79924" lon="6.84393">
        <ele>928.2</ele>
        <time>2026-08-23T10:43:23.000Z</time>
      </trkpt>
      <trkpt lat="47.79918" lon="6.84388">
        <ele>928.4</ele>
        <time>2026-08-23T10:43:25.000Z</time>
      </trkpt>
      <trkpt lat="47.79913" lon="6.84383">
        <ele>929</ele>
        <time>2026-08-23T10:43:27.000Z</time>
      </trkpt>
      <trkpt lat="47.79908" lon="6.84378">
        <ele>929.2</ele>
        <time>2026-08-23T10:43:29.000Z</time>
      </trkpt>
      <trkpt lat="47.79902" lon="6.84373">
        <ele>929.6</ele>
        <time>2026-08-23T10:43:31.000Z</time>
      </trkpt>
      <trkpt lat="47.79897" lon="6.84368">
        <ele>930</ele>
        <time>2026-08-23T10:43:33.000Z</time>
      </trkpt>
      <trkpt lat="47.79889" lon="6.8436">
        <ele>930.4</ele>
        <time>2026-08-23T10:43:35.000Z</time>
      </trkpt>
      <trkpt lat="47.79884" lon="6.84355">
        <ele>930.8</ele>
        <time>2026-08-23T10:43:37.000Z</time>
      </trkpt>
      <trkpt lat="47.79878" lon="6.84351">
        <ele>931</ele>
        <time>2026-08-23T10:43:39.000Z</time>
      </trkpt>
      <trkpt lat="47.79873" lon="6.84347">
        <ele>931.4</ele>
        <time>2026-08-23T10:43:41.000Z</time>
      </trkpt>
      <trkpt lat="47.79868" lon="6.84343">
        <ele>931.6</ele>
        <time>2026-08-23T10:43:43.000Z</time>
      </trkpt>
      <trkpt lat="47.79863" lon="6.84339">
        <ele>932</ele>
        <time>2026-08-23T10:43:45.000Z</time>
      </trkpt>
      <trkpt lat="47.79857" lon="6.84335">
        <ele>932.4</ele>
        <time>2026-08-23T10:43:47.000Z</time>
      </trkpt>
      <trkpt lat="47.79851" lon="6.84331">
        <ele>933</ele>
        <time>2026-08-23T10:43:49.000Z</time>
      </trkpt>
      <trkpt lat="47.79846" lon="6.84328">
        <ele>933.4</ele>
        <time>2026-08-23T10:43:51.000Z</time>
      </trkpt>
      <trkpt lat="47.7984" lon="6.84325">
        <ele>933.8</ele>
        <time>2026-08-23T10:43:53.000Z</time>
      </trkpt>
      <trkpt lat="47.79834" lon="6.84322">
        <ele>934</ele>
        <time>2026-08-23T10:43:55.000Z</time>
      </trkpt>
      <trkpt lat="47.79827" lon="6.8432">
        <ele>934.4</ele>
        <time>2026-08-23T10:43:57.000Z</time>
      </trkpt>
      <trkpt lat="47.79821" lon="6.84318">
        <ele>934.8</ele>
        <time>2026-08-23T10:43:59.000Z</time>
      </trkpt>
      <trkpt lat="47.79816" lon="6.84317">
        <ele>935.2</ele>
        <time>2026-08-23T10:44:01.000Z</time>
      </trkpt>
      <trkpt lat="47.7981" lon="6.84315">
        <ele>935.6</ele>
        <time>2026-08-23T10:44:03.000Z</time>
      </trkpt>
      <trkpt lat="47.79804" lon="6.84315">
        <ele>936</ele>
        <time>2026-08-23T10:44:05.000Z</time>
      </trkpt>
      <trkpt lat="47.79799" lon="6.84314">
        <ele>936.4</ele>
        <time>2026-08-23T10:44:07.000Z</time>
      </trkpt>
      <trkpt lat="47.79793" lon="6.84313">
        <ele>936.6</ele>
        <time>2026-08-23T10:44:09.000Z</time>
      </trkpt>
      <trkpt lat="47.79787" lon="6.84313">
        <ele>937</ele>
        <time>2026-08-23T10:44:11.000Z</time>
      </trkpt>
      <trkpt lat="47.79781" lon="6.84312">
        <ele>937.4</ele>
        <time>2026-08-23T10:44:13.000Z</time>
      </trkpt>
      <trkpt lat="47.79776" lon="6.8431">
        <ele>937.6</ele>
        <time>2026-08-23T10:44:15.000Z</time>
      </trkpt>
      <trkpt lat="47.7977" lon="6.84308">
        <ele>937.8</ele>
        <time>2026-08-23T10:44:17.000Z</time>
      </trkpt>
      <trkpt lat="47.79764" lon="6.84306">
        <ele>938</ele>
        <time>2026-08-23T10:44:20.000Z</time>
      </trkpt>
      <trkpt lat="47.79758" lon="6.84303">
        <ele>938.2</ele>
        <time>2026-08-23T10:44:22.000Z</time>
      </trkpt>
      <trkpt lat="47.79752" lon="6.843">
        <ele>938.4</ele>
        <time>2026-08-23T10:44:24.000Z</time>
      </trkpt>
      <trkpt lat="47.79746" lon="6.84297">
        <ele>938.6</ele>
        <time>2026-08-23T10:44:26.000Z</time>
      </trkpt>
      <trkpt lat="47.7974" lon="6.84294">
        <ele>938.8</ele>
        <time>2026-08-23T10:44:28.000Z</time>
      </trkpt>
      <trkpt lat="47.79734" lon="6.84291">
        <ele>939</ele>
        <time>2026-08-23T10:44:30.000Z</time>
      </trkpt>
      <trkpt lat="47.79728" lon="6.84288">
        <ele>939.2</ele>
        <time>2026-08-23T10:44:32.000Z</time>
      </trkpt>
      <trkpt lat="47.79722" lon="6.84286">
        <ele>939.4</ele>
        <time>2026-08-23T10:44:34.000Z</time>
      </trkpt>
      <trkpt lat="47.79717" lon="6.84285">
        <ele>939.6</ele>
        <time>2026-08-23T10:44:36.000Z</time>
      </trkpt>
      <trkpt lat="47.79711" lon="6.84283">
        <ele>939.8</ele>
        <time>2026-08-23T10:44:38.000Z</time>
      </trkpt>
      <trkpt lat="47.79706" lon="6.84281">
        <ele>940</ele>
        <time>2026-08-23T10:44:40.000Z</time>
      </trkpt>
      <trkpt lat="47.797" lon="6.84278">
        <ele>940.2</ele>
        <time>2026-08-23T10:44:42.000Z</time>
      </trkpt>
      <trkpt lat="47.79694" lon="6.84274">
        <ele>940.6</ele>
        <time>2026-08-23T10:44:44.000Z</time>
      </trkpt>
      <trkpt lat="47.79688" lon="6.8427">
        <ele>940.8</ele>
        <time>2026-08-23T10:44:46.000Z</time>
      </trkpt>
      <trkpt lat="47.79683" lon="6.84265">
        <ele>941</ele>
        <time>2026-08-23T10:44:48.000Z</time>
      </trkpt>
      <trkpt lat="47.79678" lon="6.84259">
        <ele>941.4</ele>
        <time>2026-08-23T10:44:50.000Z</time>
      </trkpt>
      <trkpt lat="47.79673" lon="6.84251">
        <ele>942</ele>
        <time>2026-08-23T10:44:52.000Z</time>
      </trkpt>
      <trkpt lat="47.7967" lon="6.84242">
        <ele>942.6</ele>
        <time>2026-08-23T10:44:54.000Z</time>
      </trkpt>
      <trkpt lat="47.79667" lon="6.84235">
        <ele>942.8</ele>
        <time>2026-08-23T10:44:56.000Z</time>
      </trkpt>
      <trkpt lat="47.79664" lon="6.84228">
        <ele>943.2</ele>
        <time>2026-08-23T10:44:58.000Z</time>
      </trkpt>
      <trkpt lat="47.79659" lon="6.84223">
        <ele>943.6</ele>
        <time>2026-08-23T10:45:00.000Z</time>
      </trkpt>
      <trkpt lat="47.79654" lon="6.84221">
        <ele>944</ele>
        <time>2026-08-23T10:45:02.000Z</time>
      </trkpt>
      <trkpt lat="47.79648" lon="6.84222">
        <ele>944.2</ele>
        <time>2026-08-23T10:45:04.000Z</time>
      </trkpt>
      <trkpt lat="47.79643" lon="6.84229">
        <ele>944.2</ele>
        <time>2026-08-23T10:45:06.000Z</time>
      </trkpt>
      <trkpt lat="47.7964" lon="6.84238">
        <ele>944.4</ele>
        <time>2026-08-23T10:45:08.000Z</time>
      </trkpt>
      <trkpt lat="47.7964" lon="6.84249">
        <ele>944.4</ele>
        <time>2026-08-23T10:45:10.000Z</time>
      </trkpt>
      <trkpt lat="47.79643" lon="6.84259">
        <ele>944.4</ele>
        <time>2026-08-23T10:45:12.000Z</time>
      </trkpt>
      <trkpt lat="47.79648" lon="6.84267">
        <ele>944.6</ele>
        <time>2026-08-23T10:45:14.000Z</time>
      </trkpt>
      <trkpt lat="47.79654" lon="6.84273">
        <ele>944.8</ele>
        <time>2026-08-23T10:45:16.000Z</time>
      </trkpt>
      <trkpt lat="47.7966" lon="6.84278">
        <ele>945</ele>
        <time>2026-08-23T10:45:18.000Z</time>
      </trkpt>
      <trkpt lat="47.79666" lon="6.84284">
        <ele>945.4</ele>
        <time>2026-08-23T10:45:20.000Z</time>
      </trkpt>
      <trkpt lat="47.79671" lon="6.84289">
        <ele>945.8</ele>
        <time>2026-08-23T10:45:22.000Z</time>
      </trkpt>
      <trkpt lat="47.79676" lon="6.84295">
        <ele>946.2</ele>
        <time>2026-08-23T10:45:24.000Z</time>
      </trkpt>
      <trkpt lat="47.79682" lon="6.84299">
        <ele>946.6</ele>
        <time>2026-08-23T10:45:27.000Z</time>
      </trkpt>
      <trkpt lat="47.79687" lon="6.84303">
        <ele>947</ele>
        <time>2026-08-23T10:45:29.000Z</time>
      </trkpt>
      <trkpt lat="47.79692" lon="6.84307">
        <ele>947.2</ele>
        <time>2026-08-23T10:45:31.000Z</time>
      </trkpt>
      <trkpt lat="47.79698" lon="6.8431">
        <ele>947.6</ele>
        <time>2026-08-23T10:45:33.000Z</time>
      </trkpt>
      <trkpt lat="47.79703" lon="6.84314">
        <ele>948</ele>
        <time>2026-08-23T10:45:35.000Z</time>
      </trkpt>
      <trkpt lat="47.79709" lon="6.84318">
        <ele>948.6</ele>
        <time>2026-08-23T10:45:37.000Z</time>
      </trkpt>
      <trkpt lat="47.79714" lon="6.84321">
        <ele>949</ele>
        <time>2026-08-23T10:45:39.000Z</time>
      </trkpt>
      <trkpt lat="47.79719" lon="6.84325">
        <ele>949.4</ele>
        <time>2026-08-23T10:45:41.000Z</time>
      </trkpt>
      <trkpt lat="47.79725" lon="6.84329">
        <ele>950</ele>
        <time>2026-08-23T10:45:43.000Z</time>
      </trkpt>
      <trkpt lat="47.7973" lon="6.84333">
        <ele>950.4</ele>
        <time>2026-08-23T10:45:45.000Z</time>
      </trkpt>
      <trkpt lat="47.79735" lon="6.84337">
        <ele>951</ele>
        <time>2026-08-23T10:45:47.000Z</time>
      </trkpt>
      <trkpt lat="47.7974" lon="6.84341">
        <ele>951.6</ele>
        <time>2026-08-23T10:45:49.000Z</time>
      </trkpt>
      <trkpt lat="47.79745" lon="6.84346">
        <ele>952.2</ele>
        <time>2026-08-23T10:45:51.000Z</time>
      </trkpt>
      <trkpt lat="47.7975" lon="6.8435">
        <ele>952.6</ele>
        <time>2026-08-23T10:45:53.000Z</time>
      </trkpt>
      <trkpt lat="47.79756" lon="6.84354">
        <ele>953</ele>
        <time>2026-08-23T10:45:55.000Z</time>
      </trkpt>
      <trkpt lat="47.79761" lon="6.84358">
        <ele>953.4</ele>
        <time>2026-08-23T10:45:57.000Z</time>
      </trkpt>
      <trkpt lat="47.79767" lon="6.84362">
        <ele>953.6</ele>
        <time>2026-08-23T10:45:59.000Z</time>
      </trkpt>
      <trkpt lat="47.79772" lon="6.84365">
        <ele>953.8</ele>
        <time>2026-08-23T10:46:01.000Z</time>
      </trkpt>
      <trkpt lat="47.79778" lon="6.84368">
        <ele>954</ele>
        <time>2026-08-23T10:46:03.000Z</time>
      </trkpt>
      <trkpt lat="47.79784" lon="6.84371">
        <ele>954.4</ele>
        <time>2026-08-23T10:46:05.000Z</time>
      </trkpt>
      <trkpt lat="47.7979" lon="6.84373">
        <ele>954.6</ele>
        <time>2026-08-23T10:46:07.000Z</time>
      </trkpt>
      <trkpt lat="47.79795" lon="6.84377">
        <ele>955</ele>
        <time>2026-08-23T10:46:09.000Z</time>
      </trkpt>
      <trkpt lat="47.79801" lon="6.84381">
        <ele>955.2</ele>
        <time>2026-08-23T10:46:11.000Z</time>
      </trkpt>
      <trkpt lat="47.79806" lon="6.84386">
        <ele>955.6</ele>
        <time>2026-08-23T10:46:13.000Z</time>
      </trkpt>
      <trkpt lat="47.79813" lon="6.84394">
        <ele>955.8</ele>
        <time>2026-08-23T10:46:15.000Z</time>
      </trkpt>
      <trkpt lat="47.79819" lon="6.84401">
        <ele>956.2</ele>
        <time>2026-08-23T10:46:17.000Z</time>
      </trkpt>
      <trkpt lat="47.79824" lon="6.84407">
        <ele>956.4</ele>
        <time>2026-08-23T10:46:19.000Z</time>
      </trkpt>
      <trkpt lat="47.79828" lon="6.84413">
        <ele>956.8</ele>
        <time>2026-08-23T10:46:21.000Z</time>
      </trkpt>
      <trkpt lat="47.79833" lon="6.84418">
        <ele>957.2</ele>
        <time>2026-08-23T10:46:23.000Z</time>
      </trkpt>
      <trkpt lat="47.79837" lon="6.84424">
        <ele>957.6</ele>
        <time>2026-08-23T10:46:25.000Z</time>
      </trkpt>
      <trkpt lat="47.79842" lon="6.8443">
        <ele>957.8</ele>
        <time>2026-08-23T10:46:27.000Z</time>
      </trkpt>
      <trkpt lat="47.79846" lon="6.84436">
        <ele>958.2</ele>
        <time>2026-08-23T10:46:29.000Z</time>
      </trkpt>
      <trkpt lat="47.79851" lon="6.84442">
        <ele>958.4</ele>
        <time>2026-08-23T10:46:31.000Z</time>
      </trkpt>
      <trkpt lat="47.79855" lon="6.84448">
        <ele>958.8</ele>
        <time>2026-08-23T10:46:33.000Z</time>
      </trkpt>
      <trkpt lat="47.7986" lon="6.84454">
        <ele>959</ele>
        <time>2026-08-23T10:46:35.000Z</time>
      </trkpt>
      <trkpt lat="47.79864" lon="6.8446">
        <ele>959.4</ele>
        <time>2026-08-23T10:46:37.000Z</time>
      </trkpt>
      <trkpt lat="47.79869" lon="6.84466">
        <ele>959.8</ele>
        <time>2026-08-23T10:46:39.000Z</time>
      </trkpt>
      <trkpt lat="47.79873" lon="6.84472">
        <ele>960.2</ele>
        <time>2026-08-23T10:46:41.000Z</time>
      </trkpt>
      <trkpt lat="47.79877" lon="6.84477">
        <ele>960.6</ele>
        <time>2026-08-23T10:46:43.000Z</time>
      </trkpt>
      <trkpt lat="47.79882" lon="6.84483">
        <ele>961</ele>
        <time>2026-08-23T10:46:45.000Z</time>
      </trkpt>
      <trkpt lat="47.79887" lon="6.84489">
        <ele>961.4</ele>
        <time>2026-08-23T10:46:47.000Z</time>
      </trkpt>
      <trkpt lat="47.79891" lon="6.84494">
        <ele>961.8</ele>
        <time>2026-08-23T10:46:49.000Z</time>
      </trkpt>
      <trkpt lat="47.79895" lon="6.845">
        <ele>962.2</ele>
        <time>2026-08-23T10:46:51.000Z</time>
      </trkpt>
      <trkpt lat="47.79899" lon="6.84505">
        <ele>962.6</ele>
        <time>2026-08-23T10:46:53.000Z</time>
      </trkpt>
      <trkpt lat="47.79904" lon="6.84511">
        <ele>962.8</ele>
        <time>2026-08-23T10:46:55.000Z</time>
      </trkpt>
      <trkpt lat="47.79909" lon="6.84516">
        <ele>963.2</ele>
        <time>2026-08-23T10:46:57.000Z</time>
      </trkpt>
      <trkpt lat="47.79914" lon="6.84521">
        <ele>963.6</ele>
        <time>2026-08-23T10:47:00.000Z</time>
      </trkpt>
      <trkpt lat="47.79919" lon="6.84527">
        <ele>964</ele>
        <time>2026-08-23T10:47:02.000Z</time>
      </trkpt>
      <trkpt lat="47.79924" lon="6.84532">
        <ele>964.4</ele>
        <time>2026-08-23T10:47:04.000Z</time>
      </trkpt>
      <trkpt lat="47.79929" lon="6.84538">
        <ele>964.8</ele>
        <time>2026-08-23T10:47:06.000Z</time>
      </trkpt>
      <trkpt lat="47.79934" lon="6.84544">
        <ele>965</ele>
        <time>2026-08-23T10:47:08.000Z</time>
      </trkpt>
      <trkpt lat="47.79939" lon="6.8455">
        <ele>965.4</ele>
        <time>2026-08-23T10:47:10.000Z</time>
      </trkpt>
      <trkpt lat="47.79944" lon="6.84555">
        <ele>965.8</ele>
        <time>2026-08-23T10:47:12.000Z</time>
      </trkpt>
      <trkpt lat="47.7995" lon="6.84559">
        <ele>966.2</ele>
        <time>2026-08-23T10:47:14.000Z</time>
      </trkpt>
      <trkpt lat="47.79956" lon="6.84562">
        <ele>966.6</ele>
        <time>2026-08-23T10:47:16.000Z</time>
      </trkpt>
      <trkpt lat="47.7996" lon="6.84564">
        <ele>967</ele>
        <time>2026-08-23T10:47:18.000Z</time>
      </trkpt>
      <trkpt lat="47.79964" lon="6.84563">
        <ele>967.4</ele>
        <time>2026-08-23T10:47:20.000Z</time>
      </trkpt>
      <trkpt lat="47.7997" lon="6.84564">
        <ele>967.8</ele>
        <time>2026-08-23T10:47:22.000Z</time>
      </trkpt>
      <trkpt lat="47.79977" lon="6.84564">
        <ele>968.2</ele>
        <time>2026-08-23T10:47:24.000Z</time>
      </trkpt>
      <trkpt lat="47.79984" lon="6.84565">
        <ele>968.4</ele>
        <time>2026-08-23T10:47:26.000Z</time>
      </trkpt>
      <trkpt lat="47.79991" lon="6.84565">
        <ele>968.8</ele>
        <time>2026-08-23T10:47:28.000Z</time>
      </trkpt>
      <trkpt lat="47.79998" lon="6.84564">
        <ele>969.2</ele>
        <time>2026-08-23T10:47:30.000Z</time>
      </trkpt>
      <trkpt lat="47.80004" lon="6.84563">
        <ele>969.6</ele>
        <time>2026-08-23T10:47:32.000Z</time>
      </trkpt>
      <trkpt lat="47.80011" lon="6.84561">
        <ele>970</ele>
        <time>2026-08-23T10:47:34.000Z</time>
      </trkpt>
      <trkpt lat="47.80017" lon="6.8456">
        <ele>970.4</ele>
        <time>2026-08-23T10:47:36.000Z</time>
      </trkpt>
      <trkpt lat="47.80025" lon="6.84559">
        <ele>970.8</ele>
        <time>2026-08-23T10:47:38.000Z</time>
      </trkpt>
      <trkpt lat="47.80033" lon="6.84557">
        <ele>971.2</ele>
        <time>2026-08-23T10:47:40.000Z</time>
      </trkpt>
      <trkpt lat="47.8004" lon="6.84555">
        <ele>971.4</ele>
        <time>2026-08-23T10:47:42.000Z</time>
      </trkpt>
      <trkpt lat="47.80046" lon="6.84553">
        <ele>971.8</ele>
        <time>2026-08-23T10:47:44.000Z</time>
      </trkpt>
      <trkpt lat="47.80052" lon="6.84552">
        <ele>972.2</ele>
        <time>2026-08-23T10:47:46.000Z</time>
      </trkpt>
      <trkpt lat="47.80057" lon="6.8455">
        <ele>972.6</ele>
        <time>2026-08-23T10:47:48.000Z</time>
      </trkpt>
      <trkpt lat="47.80063" lon="6.84547">
        <ele>973</ele>
        <time>2026-08-23T10:47:50.000Z</time>
      </trkpt>
      <trkpt lat="47.80069" lon="6.84545">
        <ele>973.4</ele>
        <time>2026-08-23T10:47:52.000Z</time>
      </trkpt>
      <trkpt lat="47.80076" lon="6.84541">
        <ele>973.6</ele>
        <time>2026-08-23T10:47:54.000Z</time>
      </trkpt>
      <trkpt lat="47.80082" lon="6.84537">
        <ele>974</ele>
        <time>2026-08-23T10:47:56.000Z</time>
      </trkpt>
      <trkpt lat="47.80088" lon="6.84531">
        <ele>974.2</ele>
        <time>2026-08-23T10:47:58.000Z</time>
      </trkpt>
      <trkpt lat="47.80094" lon="6.84524">
        <ele>974.4</ele>
        <time>2026-08-23T10:48:00.000Z</time>
      </trkpt>
      <trkpt lat="47.80099" lon="6.84516">
        <ele>974.6</ele>
        <time>2026-08-23T10:48:02.000Z</time>
      </trkpt>
      <trkpt lat="47.80105" lon="6.84505">
        <ele>974.8</ele>
        <time>2026-08-23T10:48:04.000Z</time>
      </trkpt>
      <trkpt lat="47.8011" lon="6.84494">
        <ele>974.8</ele>
        <time>2026-08-23T10:48:06.000Z</time>
      </trkpt>
      <trkpt lat="47.80114" lon="6.84482">
        <ele>975</ele>
        <time>2026-08-23T10:48:08.000Z</time>
      </trkpt>
      <trkpt lat="47.80117" lon="6.84471">
        <ele>975.4</ele>
        <time>2026-08-23T10:48:10.000Z</time>
      </trkpt>
      <trkpt lat="47.80121" lon="6.84461">
        <ele>975.8</ele>
        <time>2026-08-23T10:48:12.000Z</time>
      </trkpt>
      <trkpt lat="47.80124" lon="6.8445">
        <ele>976</ele>
        <time>2026-08-23T10:48:15.000Z</time>
      </trkpt>
      <trkpt lat="47.80128" lon="6.8444">
        <ele>976.4</ele>
        <time>2026-08-23T10:48:17.000Z</time>
      </trkpt>
      <trkpt lat="47.80131" lon="6.84431">
        <ele>976.8</ele>
        <time>2026-08-23T10:48:19.000Z</time>
      </trkpt>
      <trkpt lat="47.80135" lon="6.84422">
        <ele>977</ele>
        <time>2026-08-23T10:48:21.000Z</time>
      </trkpt>
      <trkpt lat="47.80139" lon="6.84413">
        <ele>977.4</ele>
        <time>2026-08-23T10:48:23.000Z</time>
      </trkpt>
      <trkpt lat="47.80142" lon="6.84404">
        <ele>977.8</ele>
        <time>2026-08-23T10:48:25.000Z</time>
      </trkpt>
      <trkpt lat="47.80146" lon="6.84395">
        <ele>978</ele>
        <time>2026-08-23T10:48:27.000Z</time>
      </trkpt>
      <trkpt lat="47.8015" lon="6.84387">
        <ele>978.4</ele>
        <time>2026-08-23T10:48:29.000Z</time>
      </trkpt>
      <trkpt lat="47.80154" lon="6.8438">
        <ele>978.8</ele>
        <time>2026-08-23T10:48:31.000Z</time>
      </trkpt>
      <trkpt lat="47.80159" lon="6.84373">
        <ele>979.2</ele>
        <time>2026-08-23T10:48:33.000Z</time>
      </trkpt>
      <trkpt lat="47.80164" lon="6.84367">
        <ele>979.6</ele>
        <time>2026-08-23T10:48:35.000Z</time>
      </trkpt>
      <trkpt lat="47.80169" lon="6.84362">
        <ele>980</ele>
        <time>2026-08-23T10:48:37.000Z</time>
      </trkpt>
      <trkpt lat="47.80175" lon="6.84358">
        <ele>980.2</ele>
        <time>2026-08-23T10:48:39.000Z</time>
      </trkpt>
      <trkpt lat="47.80182" lon="6.84356">
        <ele>980.6</ele>
        <time>2026-08-23T10:48:41.000Z</time>
      </trkpt>
      <trkpt lat="47.80188" lon="6.84355">
        <ele>981</ele>
        <time>2026-08-23T10:48:43.000Z</time>
      </trkpt>
      <trkpt lat="47.80195" lon="6.84355">
        <ele>981.6</ele>
        <time>2026-08-23T10:48:45.000Z</time>
      </trkpt>
      <trkpt lat="47.80201" lon="6.84356">
        <ele>982</ele>
        <time>2026-08-23T10:48:47.000Z</time>
      </trkpt>
      <trkpt lat="47.8021" lon="6.8436">
        <ele>982.4</ele>
        <time>2026-08-23T10:48:49.000Z</time>
      </trkpt>
      <trkpt lat="47.80216" lon="6.84363">
        <ele>982.8</ele>
        <time>2026-08-23T10:48:51.000Z</time>
      </trkpt>
      <trkpt lat="47.80222" lon="6.84367">
        <ele>983</ele>
        <time>2026-08-23T10:48:53.000Z</time>
      </trkpt>
      <trkpt lat="47.80228" lon="6.8437">
        <ele>983.4</ele>
        <time>2026-08-23T10:48:55.000Z</time>
      </trkpt>
      <trkpt lat="47.80234" lon="6.84373">
        <ele>983.8</ele>
        <time>2026-08-23T10:48:57.000Z</time>
      </trkpt>
      <trkpt lat="47.8024" lon="6.84377">
        <ele>984</ele>
        <time>2026-08-23T10:48:59.000Z</time>
      </trkpt>
      <trkpt lat="47.80246" lon="6.8438">
        <ele>984.4</ele>
        <time>2026-08-23T10:49:01.000Z</time>
      </trkpt>
      <trkpt lat="47.80252" lon="6.84383">
        <ele>984.6</ele>
        <time>2026-08-23T10:49:03.000Z</time>
      </trkpt>
      <trkpt lat="47.80258" lon="6.84386">
        <ele>985</ele>
        <time>2026-08-23T10:49:05.000Z</time>
      </trkpt>
      <trkpt lat="47.80264" lon="6.84389">
        <ele>985.2</ele>
        <time>2026-08-23T10:49:07.000Z</time>
      </trkpt>
      <trkpt lat="47.8027" lon="6.84391">
        <ele>985.8</ele>
        <time>2026-08-23T10:49:09.000Z</time>
      </trkpt>
      <trkpt lat="47.80276" lon="6.84393">
        <ele>986.2</ele>
        <time>2026-08-23T10:49:11.000Z</time>
      </trkpt>
      <trkpt lat="47.80282" lon="6.84396">
        <ele>986.6</ele>
        <time>2026-08-23T10:49:13.000Z</time>
      </trkpt>
      <trkpt lat="47.80288" lon="6.84398">
        <ele>987</ele>
        <time>2026-08-23T10:49:15.000Z</time>
      </trkpt>
      <trkpt lat="47.80294" lon="6.84399">
        <ele>987.4</ele>
        <time>2026-08-23T10:49:17.000Z</time>
      </trkpt>
      <trkpt lat="47.803" lon="6.844">
        <ele>987.6</ele>
        <time>2026-08-23T10:49:19.000Z</time>
      </trkpt>
      <trkpt lat="47.80306" lon="6.84401">
        <ele>988</ele>
        <time>2026-08-23T10:49:21.000Z</time>
      </trkpt>
      <trkpt lat="47.80312" lon="6.84402">
        <ele>988.4</ele>
        <time>2026-08-23T10:49:23.000Z</time>
      </trkpt>
      <trkpt lat="47.80318" lon="6.84402">
        <ele>988.8</ele>
        <time>2026-08-23T10:49:25.000Z</time>
      </trkpt>
      <trkpt lat="47.80323" lon="6.84403">
        <ele>989.2</ele>
        <time>2026-08-23T10:49:27.000Z</time>
      </trkpt>
      <trkpt lat="47.80328" lon="6.84402">
        <ele>989.6</ele>
        <time>2026-08-23T10:49:29.000Z</time>
      </trkpt>
      <trkpt lat="47.80334" lon="6.84403">
        <ele>989.8</ele>
        <time>2026-08-23T10:49:31.000Z</time>
      </trkpt>
      <trkpt lat="47.8034" lon="6.84403">
        <ele>990.2</ele>
        <time>2026-08-23T10:49:33.000Z</time>
      </trkpt>
      <trkpt lat="47.80346" lon="6.84404">
        <ele>990.6</ele>
        <time>2026-08-23T10:49:36.000Z</time>
      </trkpt>
      <trkpt lat="47.80351" lon="6.84404">
        <ele>991</ele>
        <time>2026-08-23T10:49:38.000Z</time>
      </trkpt>
      <trkpt lat="47.80357" lon="6.84404">
        <ele>991.4</ele>
        <time>2026-08-23T10:49:40.000Z</time>
      </trkpt>
      <trkpt lat="47.80362" lon="6.84405">
        <ele>991.6</ele>
        <time>2026-08-23T10:49:42.000Z</time>
      </trkpt>
      <trkpt lat="47.80368" lon="6.84406">
        <ele>992</ele>
        <time>2026-08-23T10:49:44.000Z</time>
      </trkpt>
      <trkpt lat="47.80373" lon="6.84407">
        <ele>992.2</ele>
        <time>2026-08-23T10:49:46.000Z</time>
      </trkpt>
      <trkpt lat="47.80379" lon="6.84409">
        <ele>992.6</ele>
        <time>2026-08-23T10:49:48.000Z</time>
      </trkpt>
      <trkpt lat="47.80385" lon="6.8441">
        <ele>993</ele>
        <time>2026-08-23T10:49:50.000Z</time>
      </trkpt>
      <trkpt lat="47.80391" lon="6.84412">
        <ele>993.4</ele>
        <time>2026-08-23T10:49:52.000Z</time>
      </trkpt>
      <trkpt lat="47.80397" lon="6.84414">
        <ele>993.6</ele>
        <time>2026-08-23T10:49:54.000Z</time>
      </trkpt>
      <trkpt lat="47.80404" lon="6.84415">
        <ele>994</ele>
        <time>2026-08-23T10:49:56.000Z</time>
      </trkpt>
      <trkpt lat="47.8041" lon="6.84417">
        <ele>994.4</ele>
        <time>2026-08-23T10:49:58.000Z</time>
      </trkpt>
      <trkpt lat="47.80415" lon="6.84419">
        <ele>994.8</ele>
        <time>2026-08-23T10:50:00.000Z</time>
      </trkpt>
      <trkpt lat="47.80421" lon="6.84421">
        <ele>995.2</ele>
        <time>2026-08-23T10:50:02.000Z</time>
      </trkpt>
      <trkpt lat="47.80427" lon="6.84423">
        <ele>995.6</ele>
        <time>2026-08-23T10:50:04.000Z</time>
      </trkpt>
      <trkpt lat="47.80433" lon="6.84425">
        <ele>996</ele>
        <time>2026-08-23T10:50:06.000Z</time>
      </trkpt>
      <trkpt lat="47.80439" lon="6.84427">
        <ele>996.2</ele>
        <time>2026-08-23T10:50:08.000Z</time>
      </trkpt>
      <trkpt lat="47.80445" lon="6.84429">
        <ele>996.6</ele>
        <time>2026-08-23T10:50:10.000Z</time>
      </trkpt>
      <trkpt lat="47.80451" lon="6.84431">
        <ele>997</ele>
        <time>2026-08-23T10:50:12.000Z</time>
      </trkpt>
      <trkpt lat="47.80457" lon="6.84434">
        <ele>997.2</ele>
        <time>2026-08-23T10:50:14.000Z</time>
      </trkpt>
      <trkpt lat="47.80463" lon="6.84438">
        <ele>997.6</ele>
        <time>2026-08-23T10:50:16.000Z</time>
      </trkpt>
      <trkpt lat="47.80468" lon="6.84441">
        <ele>998</ele>
        <time>2026-08-23T10:50:18.000Z</time>
      </trkpt>
      <trkpt lat="47.80474" lon="6.84445">
        <ele>998.4</ele>
        <time>2026-08-23T10:50:20.000Z</time>
      </trkpt>
      <trkpt lat="47.80481" lon="6.8445">
        <ele>998.8</ele>
        <time>2026-08-23T10:50:22.000Z</time>
      </trkpt>
      <trkpt lat="47.80487" lon="6.84455">
        <ele>999.2</ele>
        <time>2026-08-23T10:50:24.000Z</time>
      </trkpt>
      <trkpt lat="47.80492" lon="6.84459">
        <ele>999.4</ele>
        <time>2026-08-23T10:50:26.000Z</time>
      </trkpt>
      <trkpt lat="47.80497" lon="6.84464">
        <ele>999.8</ele>
        <time>2026-08-23T10:50:28.000Z</time>
      </trkpt>
      <trkpt lat="47.80502" lon="6.84468">
        <ele>1000.2</ele>
        <time>2026-08-23T10:50:30.000Z</time>
      </trkpt>
      <trkpt lat="47.80507" lon="6.84473">
        <ele>1000.6</ele>
        <time>2026-08-23T10:50:32.000Z</time>
      </trkpt>
      <trkpt lat="47.80512" lon="6.84476">
        <ele>1001</ele>
        <time>2026-08-23T10:50:34.000Z</time>
      </trkpt>
      <trkpt lat="47.80517" lon="6.8448">
        <ele>1001.2</ele>
        <time>2026-08-23T10:50:36.000Z</time>
      </trkpt>
      <trkpt lat="47.80522" lon="6.84485">
        <ele>1001.6</ele>
        <time>2026-08-23T10:50:38.000Z</time>
      </trkpt>
      <trkpt lat="47.80527" lon="6.84489">
        <ele>1002</ele>
        <time>2026-08-23T10:50:40.000Z</time>
      </trkpt>
      <trkpt lat="47.80532" lon="6.84494">
        <ele>1002.4</ele>
        <time>2026-08-23T10:50:42.000Z</time>
      </trkpt>
      <trkpt lat="47.80537" lon="6.84498">
        <ele>1002.8</ele>
        <time>2026-08-23T10:50:44.000Z</time>
      </trkpt>
      <trkpt lat="47.80542" lon="6.84503">
        <ele>1003</ele>
        <time>2026-08-23T10:50:46.000Z</time>
      </trkpt>
      <trkpt lat="47.80547" lon="6.84507">
        <ele>1003.4</ele>
        <time>2026-08-23T10:50:48.000Z</time>
      </trkpt>
      <trkpt lat="47.80552" lon="6.84512">
        <ele>1003.8</ele>
        <time>2026-08-23T10:50:50.000Z</time>
      </trkpt>
      <trkpt lat="47.80557" lon="6.84516">
        <ele>1004.2</ele>
        <time>2026-08-23T10:50:52.000Z</time>
      </trkpt>
      <trkpt lat="47.80562" lon="6.8452">
        <ele>1004.6</ele>
        <time>2026-08-23T10:50:54.000Z</time>
      </trkpt>
      <trkpt lat="47.80567" lon="6.84525">
        <ele>1004.8</ele>
        <time>2026-08-23T10:50:56.000Z</time>
      </trkpt>
      <trkpt lat="47.80572" lon="6.84529">
        <ele>1005.2</ele>
        <time>2026-08-23T10:50:58.000Z</time>
      </trkpt>
      <trkpt lat="47.80578" lon="6.84532">
        <ele>1005.6</ele>
        <time>2026-08-23T10:51:00.000Z</time>
      </trkpt>
      <trkpt lat="47.80583" lon="6.84535">
        <ele>1006</ele>
        <time>2026-08-23T10:51:03.000Z</time>
      </trkpt>
      <trkpt lat="47.80588" lon="6.84538">
        <ele>1006.2</ele>
        <time>2026-08-23T10:51:05.000Z</time>
      </trkpt>
      <trkpt lat="47.80593" lon="6.84541">
        <ele>1006.6</ele>
        <time>2026-08-23T10:51:07.000Z</time>
      </trkpt>
      <trkpt lat="47.80599" lon="6.84545">
        <ele>1007</ele>
        <time>2026-08-23T10:51:09.000Z</time>
      </trkpt>
      <trkpt lat="47.80604" lon="6.84548">
        <ele>1007.2</ele>
        <time>2026-08-23T10:51:11.000Z</time>
      </trkpt>
      <trkpt lat="47.8061" lon="6.84552">
        <ele>1007.6</ele>
        <time>2026-08-23T10:51:13.000Z</time>
      </trkpt>
      <trkpt lat="47.80615" lon="6.84556">
        <ele>1007.8</ele>
        <time>2026-08-23T10:51:15.000Z</time>
      </trkpt>
      <trkpt lat="47.8062" lon="6.84559">
        <ele>1008.2</ele>
        <time>2026-08-23T10:51:17.000Z</time>
      </trkpt>
      <trkpt lat="47.80625" lon="6.84562">
        <ele>1008.4</ele>
        <time>2026-08-23T10:51:19.000Z</time>
      </trkpt>
      <trkpt lat="47.80631" lon="6.84566">
        <ele>1008.8</ele>
        <time>2026-08-23T10:51:21.000Z</time>
      </trkpt>
      <trkpt lat="47.80636" lon="6.84569">
        <ele>1009.2</ele>
        <time>2026-08-23T10:51:23.000Z</time>
      </trkpt>
      <trkpt lat="47.80642" lon="6.84572">
        <ele>1009.6</ele>
        <time>2026-08-23T10:51:25.000Z</time>
      </trkpt>
      <trkpt lat="47.80648" lon="6.84574">
        <ele>1009.8</ele>
        <time>2026-08-23T10:51:27.000Z</time>
      </trkpt>
      <trkpt lat="47.80656" lon="6.84577">
        <ele>1010.2</ele>
        <time>2026-08-23T10:51:29.000Z</time>
      </trkpt>
      <trkpt lat="47.80663" lon="6.84578">
        <ele>1010.4</ele>
        <time>2026-08-23T10:51:31.000Z</time>
      </trkpt>
      <trkpt lat="47.80669" lon="6.8458">
        <ele>1010.8</ele>
        <time>2026-08-23T10:51:33.000Z</time>
      </trkpt>
      <trkpt lat="47.80674" lon="6.84582">
        <ele>1011</ele>
        <time>2026-08-23T10:51:35.000Z</time>
      </trkpt>
      <trkpt lat="47.8068" lon="6.84584">
        <ele>1011.4</ele>
        <time>2026-08-23T10:51:37.000Z</time>
      </trkpt>
      <trkpt lat="47.80686" lon="6.84585">
        <ele>1011.6</ele>
        <time>2026-08-23T10:51:39.000Z</time>
      </trkpt>
      <trkpt lat="47.80691" lon="6.84586">
        <ele>1012</ele>
        <time>2026-08-23T10:51:41.000Z</time>
      </trkpt>
      <trkpt lat="47.80696" lon="6.84587">
        <ele>1012.4</ele>
        <time>2026-08-23T10:51:43.000Z</time>
      </trkpt>
      <trkpt lat="47.80702" lon="6.84588">
        <ele>1012.6</ele>
        <time>2026-08-23T10:51:45.000Z</time>
      </trkpt>
      <trkpt lat="47.80707" lon="6.8459">
        <ele>1013</ele>
        <time>2026-08-23T10:51:47.000Z</time>
      </trkpt>
      <trkpt lat="47.80713" lon="6.84592">
        <ele>1013.4</ele>
        <time>2026-08-23T10:51:49.000Z</time>
      </trkpt>
      <trkpt lat="47.80718" lon="6.84594">
        <ele>1013.8</ele>
        <time>2026-08-23T10:51:51.000Z</time>
      </trkpt>
      <trkpt lat="47.80723" lon="6.84596">
        <ele>1014.2</ele>
        <time>2026-08-23T10:51:53.000Z</time>
      </trkpt>
      <trkpt lat="47.80729" lon="6.84597">
        <ele>1014.6</ele>
        <time>2026-08-23T10:51:55.000Z</time>
      </trkpt>
      <trkpt lat="47.80734" lon="6.84598">
        <ele>1015</ele>
        <time>2026-08-23T10:51:57.000Z</time>
      </trkpt>
      <trkpt lat="47.80739" lon="6.84599">
        <ele>1015.2</ele>
        <time>2026-08-23T10:51:59.000Z</time>
      </trkpt>
      <trkpt lat="47.80744" lon="6.846">
        <ele>1015.6</ele>
        <time>2026-08-23T10:52:01.000Z</time>
      </trkpt>
      <trkpt lat="47.80749" lon="6.846">
        <ele>1016</ele>
        <time>2026-08-23T10:52:03.000Z</time>
      </trkpt>
      <trkpt lat="47.80755" lon="6.846">
        <ele>1016.4</ele>
        <time>2026-08-23T10:52:05.000Z</time>
      </trkpt>
      <trkpt lat="47.80761" lon="6.84599">
        <ele>1016.8</ele>
        <time>2026-08-23T10:52:07.000Z</time>
      </trkpt>
      <trkpt lat="47.80767" lon="6.84596">
        <ele>1017</ele>
        <time>2026-08-23T10:52:09.000Z</time>
      </trkpt>
      <trkpt lat="47.80773" lon="6.84593">
        <ele>1017.2</ele>
        <time>2026-08-23T10:52:11.000Z</time>
      </trkpt>
      <trkpt lat="47.80778" lon="6.84589">
        <ele>1017.6</ele>
        <time>2026-08-23T10:52:13.000Z</time>
      </trkpt>
      <trkpt lat="47.80783" lon="6.84585">
        <ele>1017.8</ele>
        <time>2026-08-23T10:52:15.000Z</time>
      </trkpt>
      <trkpt lat="47.80788" lon="6.84579">
        <ele>1018.2</ele>
        <time>2026-08-23T10:52:17.000Z</time>
      </trkpt>
      <trkpt lat="47.80793" lon="6.84574">
        <ele>1018.4</ele>
        <time>2026-08-23T10:52:20.000Z</time>
      </trkpt>
      <trkpt lat="47.80797" lon="6.84569">
        <ele>1018.8</ele>
        <time>2026-08-23T10:52:22.000Z</time>
      </trkpt>
      <trkpt lat="47.80802" lon="6.84564">
        <ele>1019</ele>
        <time>2026-08-23T10:52:24.000Z</time>
      </trkpt>
      <trkpt lat="47.80807" lon="6.8456">
        <ele>1019.4</ele>
        <time>2026-08-23T10:52:26.000Z</time>
      </trkpt>
      <trkpt lat="47.80812" lon="6.84556">
        <ele>1019.8</ele>
        <time>2026-08-23T10:52:28.000Z</time>
      </trkpt>
      <trkpt lat="47.80818" lon="6.84552">
        <ele>1020.2</ele>
        <time>2026-08-23T10:52:30.000Z</time>
      </trkpt>
      <trkpt lat="47.80823" lon="6.84549">
        <ele>1020.6</ele>
        <time>2026-08-23T10:52:32.000Z</time>
      </trkpt>
      <trkpt lat="47.80828" lon="6.84545">
        <ele>1020.8</ele>
        <time>2026-08-23T10:52:34.000Z</time>
      </trkpt>
      <trkpt lat="47.80833" lon="6.84542">
        <ele>1021.2</ele>
        <time>2026-08-23T10:52:36.000Z</time>
      </trkpt>
      <trkpt lat="47.80839" lon="6.84539">
        <ele>1021.4</ele>
        <time>2026-08-23T10:52:38.000Z</time>
      </trkpt>
      <trkpt lat="47.80844" lon="6.84535">
        <ele>1021.6</ele>
        <time>2026-08-23T10:52:40.000Z</time>
      </trkpt>
      <trkpt lat="47.8085" lon="6.8453">
        <ele>1022</ele>
        <time>2026-08-23T10:52:42.000Z</time>
      </trkpt>
      <trkpt lat="47.80855" lon="6.84526">
        <ele>1022.2</ele>
        <time>2026-08-23T10:52:44.000Z</time>
      </trkpt>
      <trkpt lat="47.8086" lon="6.84521">
        <ele>1022.4</ele>
        <time>2026-08-23T10:52:46.000Z</time>
      </trkpt>
      <trkpt lat="47.80865" lon="6.84516">
        <ele>1022.8</ele>
        <time>2026-08-23T10:52:48.000Z</time>
      </trkpt>
      <trkpt lat="47.80869" lon="6.84509">
        <ele>1023</ele>
        <time>2026-08-23T10:52:50.000Z</time>
      </trkpt>
      <trkpt lat="47.80873" lon="6.84502">
        <ele>1023.4</ele>
        <time>2026-08-23T10:52:52.000Z</time>
      </trkpt>
      <trkpt lat="47.80876" lon="6.84495">
        <ele>1023.6</ele>
        <time>2026-08-23T10:52:54.000Z</time>
      </trkpt>
      <trkpt lat="47.80879" lon="6.84488">
        <ele>1023.8</ele>
        <time>2026-08-23T10:52:56.000Z</time>
      </trkpt>
      <trkpt lat="47.80883" lon="6.8448">
        <ele>1024</ele>
        <time>2026-08-23T10:52:58.000Z</time>
      </trkpt>
      <trkpt lat="47.80886" lon="6.84472">
        <ele>1024.4</ele>
        <time>2026-08-23T10:53:00.000Z</time>
      </trkpt>
      <trkpt lat="47.80891" lon="6.84467">
        <ele>1024.6</ele>
        <time>2026-08-23T10:53:02.000Z</time>
      </trkpt>
      <trkpt lat="47.80898" lon="6.84467">
        <ele>1024.8</ele>
        <time>2026-08-23T10:53:04.000Z</time>
      </trkpt>
      <trkpt lat="47.80903" lon="6.84477">
        <ele>1025</ele>
        <time>2026-08-23T10:53:06.000Z</time>
      </trkpt>
      <trkpt lat="47.80901" lon="6.84487">
        <ele>1025.4</ele>
        <time>2026-08-23T10:53:08.000Z</time>
      </trkpt>
      <trkpt lat="47.80897" lon="6.84496">
        <ele>1025.8</ele>
        <time>2026-08-23T10:53:10.000Z</time>
      </trkpt>
      <trkpt lat="47.80892" lon="6.84502">
        <ele>1026.2</ele>
        <time>2026-08-23T10:53:12.000Z</time>
      </trkpt>
      <trkpt lat="47.80887" lon="6.84508">
        <ele>1026.6</ele>
        <time>2026-08-23T10:53:14.000Z</time>
      </trkpt>
      <trkpt lat="47.80882" lon="6.84513">
        <ele>1026.8</ele>
        <time>2026-08-23T10:53:16.000Z</time>
      </trkpt>
      <trkpt lat="47.80877" lon="6.84518">
        <ele>1027.2</ele>
        <time>2026-08-23T10:53:18.000Z</time>
      </trkpt>
      <trkpt lat="47.80873" lon="6.84524">
        <ele>1027.4</ele>
        <time>2026-08-23T10:53:20.000Z</time>
      </trkpt>
      <trkpt lat="47.80869" lon="6.84529">
        <ele>1027.8</ele>
        <time>2026-08-23T10:53:22.000Z</time>
      </trkpt>
      <trkpt lat="47.80864" lon="6.84536">
        <ele>1028</ele>
        <time>2026-08-23T10:53:24.000Z</time>
      </trkpt>
      <trkpt lat="47.80859" lon="6.84542">
        <ele>1028.2</ele>
        <time>2026-08-23T10:53:26.000Z</time>
      </trkpt>
      <trkpt lat="47.80855" lon="6.84548">
        <ele>1028.6</ele>
        <time>2026-08-23T10:53:28.000Z</time>
      </trkpt>
      <trkpt lat="47.8085" lon="6.84554">
        <ele>1028.8</ele>
        <time>2026-08-23T10:53:30.000Z</time>
      </trkpt>
      <trkpt lat="47.80845" lon="6.84559">
        <ele>1029.2</ele>
        <time>2026-08-23T10:53:32.000Z</time>
      </trkpt>
      <trkpt lat="47.8084" lon="6.84565">
        <ele>1029.4</ele>
        <time>2026-08-23T10:53:34.000Z</time>
      </trkpt>
      <trkpt lat="47.80836" lon="6.8457">
        <ele>1029.8</ele>
        <time>2026-08-23T10:53:36.000Z</time>
      </trkpt>
      <trkpt lat="47.80831" lon="6.84575">
        <ele>1030.2</ele>
        <time>2026-08-23T10:53:39.000Z</time>
      </trkpt>
      <trkpt lat="47.80826" lon="6.8458">
        <ele>1030.6</ele>
        <time>2026-08-23T10:53:41.000Z</time>
      </trkpt>
      <trkpt lat="47.80821" lon="6.84586">
        <ele>1030.8</ele>
        <time>2026-08-23T10:53:43.000Z</time>
      </trkpt>
      <trkpt lat="47.80816" lon="6.84592">
        <ele>1031.2</ele>
        <time>2026-08-23T10:53:45.000Z</time>
      </trkpt>
      <trkpt lat="47.80811" lon="6.84598">
        <ele>1031.6</ele>
        <time>2026-08-23T10:53:47.000Z</time>
      </trkpt>
      <trkpt lat="47.80807" lon="6.84605">
        <ele>1032</ele>
        <time>2026-08-23T10:53:49.000Z</time>
      </trkpt>
      <trkpt lat="47.80803" lon="6.84611">
        <ele>1032.4</ele>
        <time>2026-08-23T10:53:51.000Z</time>
      </trkpt>
      <trkpt lat="47.80799" lon="6.84618">
        <ele>1032.8</ele>
        <time>2026-08-23T10:53:53.000Z</time>
      </trkpt>
      <trkpt lat="47.80794" lon="6.84623">
        <ele>1033</ele>
        <time>2026-08-23T10:53:55.000Z</time>
      </trkpt>
      <trkpt lat="47.8079" lon="6.84629">
        <ele>1033.4</ele>
        <time>2026-08-23T10:53:57.000Z</time>
      </trkpt>
      <trkpt lat="47.80785" lon="6.84635">
        <ele>1033.8</ele>
        <time>2026-08-23T10:53:59.000Z</time>
      </trkpt>
      <trkpt lat="47.80779" lon="6.8464">
        <ele>1034.2</ele>
        <time>2026-08-23T10:54:01.000Z</time>
      </trkpt>
      <trkpt lat="47.80774" lon="6.84644">
        <ele>1034.6</ele>
        <time>2026-08-23T10:54:03.000Z</time>
      </trkpt>
      <trkpt lat="47.80768" lon="6.84647">
        <ele>1035</ele>
        <time>2026-08-23T10:54:05.000Z</time>
      </trkpt>
      <trkpt lat="47.80763" lon="6.8465">
        <ele>1035.4</ele>
        <time>2026-08-23T10:54:07.000Z</time>
      </trkpt>
      <trkpt lat="47.80757" lon="6.84653">
        <ele>1035.8</ele>
        <time>2026-08-23T10:54:09.000Z</time>
      </trkpt>
      <trkpt lat="47.80752" lon="6.84655">
        <ele>1036.2</ele>
        <time>2026-08-23T10:54:11.000Z</time>
      </trkpt>
      <trkpt lat="47.80747" lon="6.84656">
        <ele>1036.6</ele>
        <time>2026-08-23T10:54:13.000Z</time>
      </trkpt>
      <trkpt lat="47.80741" lon="6.84658">
        <ele>1037</ele>
        <time>2026-08-23T10:54:15.000Z</time>
      </trkpt>
      <trkpt lat="47.80735" lon="6.84659">
        <ele>1037.2</ele>
        <time>2026-08-23T10:54:17.000Z</time>
      </trkpt>
      <trkpt lat="47.80729" lon="6.8466">
        <ele>1037.6</ele>
        <time>2026-08-23T10:54:19.000Z</time>
      </trkpt>
      <trkpt lat="47.80722" lon="6.84661">
        <ele>1038</ele>
        <time>2026-08-23T10:54:21.000Z</time>
      </trkpt>
      <trkpt lat="47.80715" lon="6.84662">
        <ele>1038.4</ele>
        <time>2026-08-23T10:54:23.000Z</time>
      </trkpt>
      <trkpt lat="47.80709" lon="6.84663">
        <ele>1038.6</ele>
        <time>2026-08-23T10:54:25.000Z</time>
      </trkpt>
      <trkpt lat="47.80704" lon="6.84664">
        <ele>1039</ele>
        <time>2026-08-23T10:54:27.000Z</time>
      </trkpt>
      <trkpt lat="47.80698" lon="6.84664">
        <ele>1039.2</ele>
        <time>2026-08-23T10:54:29.000Z</time>
      </trkpt>
      <trkpt lat="47.80692" lon="6.84665">
        <ele>1039.6</ele>
        <time>2026-08-23T10:54:31.000Z</time>
      </trkpt>
      <trkpt lat="47.80686" lon="6.84665">
        <ele>1040</ele>
        <time>2026-08-23T10:54:33.000Z</time>
      </trkpt>
      <trkpt lat="47.8068" lon="6.84665">
        <ele>1040.2</ele>
        <time>2026-08-23T10:54:35.000Z</time>
      </trkpt>
      <trkpt lat="47.80675" lon="6.84666">
        <ele>1040.6</ele>
        <time>2026-08-23T10:54:37.000Z</time>
      </trkpt>
      <trkpt lat="47.80669" lon="6.84666">
        <ele>1041</ele>
        <time>2026-08-23T10:54:40.000Z</time>
      </trkpt>
      <trkpt lat="47.80664" lon="6.84666">
        <ele>1041.2</ele>
        <time>2026-08-23T10:54:42.000Z</time>
      </trkpt>
      <trkpt lat="47.80658" lon="6.84666">
        <ele>1041.6</ele>
        <time>2026-08-23T10:54:44.000Z</time>
      </trkpt>
      <trkpt lat="47.80653" lon="6.84666">
        <ele>1042</ele>
        <time>2026-08-23T10:54:46.000Z</time>
      </trkpt>
      <trkpt lat="47.80647" lon="6.84665">
        <ele>1042.4</ele>
        <time>2026-08-23T10:54:48.000Z</time>
      </trkpt>
      <trkpt lat="47.80642" lon="6.84666">
        <ele>1042.6</ele>
        <time>2026-08-23T10:54:50.000Z</time>
      </trkpt>
      <trkpt lat="47.80636" lon="6.84666">
        <ele>1043</ele>
        <time>2026-08-23T10:54:52.000Z</time>
      </trkpt>
      <trkpt lat="47.8063" lon="6.84665">
        <ele>1043.4</ele>
        <time>2026-08-23T10:54:54.000Z</time>
      </trkpt>
      <trkpt lat="47.80625" lon="6.84665">
        <ele>1043.6</ele>
        <time>2026-08-23T10:54:56.000Z</time>
      </trkpt>
      <trkpt lat="47.8062" lon="6.84664">
        <ele>1044</ele>
        <time>2026-08-23T10:54:58.000Z</time>
      </trkpt>
      <trkpt lat="47.80614" lon="6.84664">
        <ele>1044.2</ele>
        <time>2026-08-23T10:55:00.000Z</time>
      </trkpt>
      <trkpt lat="47.80608" lon="6.84663">
        <ele>1044.6</ele>
        <time>2026-08-23T10:55:02.000Z</time>
      </trkpt>
      <trkpt lat="47.80602" lon="6.84662">
        <ele>1044.8</ele>
        <time>2026-08-23T10:55:04.000Z</time>
      </trkpt>
      <trkpt lat="47.80596" lon="6.84661">
        <ele>1045.2</ele>
        <time>2026-08-23T10:55:06.000Z</time>
      </trkpt>
      <trkpt lat="47.80589" lon="6.84659">
        <ele>1045.4</ele>
        <time>2026-08-23T10:55:08.000Z</time>
      </trkpt>
      <trkpt lat="47.80583" lon="6.84657">
        <ele>1045.8</ele>
        <time>2026-08-23T10:55:10.000Z</time>
      </trkpt>
      <trkpt lat="47.80577" lon="6.84656">
        <ele>1046.2</ele>
        <time>2026-08-23T10:55:12.000Z</time>
      </trkpt>
      <trkpt lat="47.80572" lon="6.84654">
        <ele>1046.6</ele>
        <time>2026-08-23T10:55:14.000Z</time>
      </trkpt>
      <trkpt lat="47.80566" lon="6.84651">
        <ele>1047</ele>
        <time>2026-08-23T10:55:16.000Z</time>
      </trkpt>
      <trkpt lat="47.80561" lon="6.84648">
        <ele>1047.4</ele>
        <time>2026-08-23T10:55:18.000Z</time>
      </trkpt>
      <trkpt lat="47.80555" lon="6.84646">
        <ele>1048</ele>
        <time>2026-08-23T10:55:20.000Z</time>
      </trkpt>
      <trkpt lat="47.8055" lon="6.84642">
        <ele>1048.2</ele>
        <time>2026-08-23T10:55:22.000Z</time>
      </trkpt>
      <trkpt lat="47.80544" lon="6.84639">
        <ele>1048.6</ele>
        <time>2026-08-23T10:55:24.000Z</time>
      </trkpt>
      <trkpt lat="47.80538" lon="6.84637">
        <ele>1049</ele>
        <time>2026-08-23T10:55:26.000Z</time>
      </trkpt>
      <trkpt lat="47.80532" lon="6.84636">
        <ele>1049.4</ele>
        <time>2026-08-23T10:55:28.000Z</time>
      </trkpt>
      <trkpt lat="47.80525" lon="6.84641">
        <ele>1049.6</ele>
        <time>2026-08-23T10:55:30.000Z</time>
      </trkpt>
      <trkpt lat="47.80521" lon="6.8465">
        <ele>1049.8</ele>
        <time>2026-08-23T10:55:32.000Z</time>
      </trkpt>
      <trkpt lat="47.80522" lon="6.84663">
        <ele>1050</ele>
        <time>2026-08-23T10:55:34.000Z</time>
      </trkpt>
      <trkpt lat="47.80527" lon="6.84672">
        <ele>1050</ele>
        <time>2026-08-23T10:55:36.000Z</time>
      </trkpt>
      <trkpt lat="47.80535" lon="6.84677">
        <ele>1050.2</ele>
        <time>2026-08-23T10:55:38.000Z</time>
      </trkpt>
      <trkpt lat="47.80544" lon="6.84679">
        <ele>1050.2</ele>
        <time>2026-08-23T10:55:40.000Z</time>
      </trkpt>
      <trkpt lat="47.80552" lon="6.8468">
        <ele>1050.4</ele>
        <time>2026-08-23T10:55:42.000Z</time>
      </trkpt>
      <trkpt lat="47.8056" lon="6.8468">
        <ele>1050.6</ele>
        <time>2026-08-23T10:55:44.000Z</time>
      </trkpt>
      <trkpt lat="47.80568" lon="6.84681">
        <ele>1050.6</ele>
        <time>2026-08-23T10:55:46.000Z</time>
      </trkpt>
      <trkpt lat="47.80575" lon="6.84683">
        <ele>1050.8</ele>
        <time>2026-08-23T10:55:48.000Z</time>
      </trkpt>
      <trkpt lat="47.80582" lon="6.84685">
        <ele>1051.2</ele>
        <time>2026-08-23T10:55:50.000Z</time>
      </trkpt>
      <trkpt lat="47.8059" lon="6.84687">
        <ele>1051.4</ele>
        <time>2026-08-23T10:55:52.000Z</time>
      </trkpt>
      <trkpt lat="47.80597" lon="6.84689">
        <ele>1051.8</ele>
        <time>2026-08-23T10:55:54.000Z</time>
      </trkpt>
      <trkpt lat="47.80604" lon="6.84692">
        <ele>1052</ele>
        <time>2026-08-23T10:55:56.000Z</time>
      </trkpt>
      <trkpt lat="47.80611" lon="6.84695">
        <ele>1052.4</ele>
        <time>2026-08-23T10:55:58.000Z</time>
      </trkpt>
      <trkpt lat="47.80618" lon="6.84698">
        <ele>1052.6</ele>
        <time>2026-08-23T10:56:00.000Z</time>
      </trkpt>
      <trkpt lat="47.80625" lon="6.84701">
        <ele>1053</ele>
        <time>2026-08-23T10:56:02.000Z</time>
      </trkpt>
      <trkpt lat="47.80632" lon="6.84704">
        <ele>1053.4</ele>
        <time>2026-08-23T10:56:04.000Z</time>
      </trkpt>
      <trkpt lat="47.80637" lon="6.84708">
        <ele>1053.8</ele>
        <time>2026-08-23T10:56:06.000Z</time>
      </trkpt>
      <trkpt lat="47.80642" lon="6.84711">
        <ele>1054.2</ele>
        <time>2026-08-23T10:56:08.000Z</time>
      </trkpt>
      <trkpt lat="47.80648" lon="6.84715">
        <ele>1054.8</ele>
        <time>2026-08-23T10:56:10.000Z</time>
      </trkpt>
      <trkpt lat="47.80654" lon="6.84719">
        <ele>1055.2</ele>
        <time>2026-08-23T10:56:12.000Z</time>
      </trkpt>
      <trkpt lat="47.80661" lon="6.84722">
        <ele>1055.6</ele>
        <time>2026-08-23T10:56:14.000Z</time>
      </trkpt>
      <trkpt lat="47.80668" lon="6.84725">
        <ele>1056.2</ele>
        <time>2026-08-23T10:56:16.000Z</time>
      </trkpt>
      <trkpt lat="47.80675" lon="6.84728">
        <ele>1056.6</ele>
        <time>2026-08-23T10:56:18.000Z</time>
      </trkpt>
      <trkpt lat="47.80682" lon="6.84731">
        <ele>1057.2</ele>
        <time>2026-08-23T10:56:20.000Z</time>
      </trkpt>
      <trkpt lat="47.80689" lon="6.84734">
        <ele>1057.8</ele>
        <time>2026-08-23T10:56:23.000Z</time>
      </trkpt>
      <trkpt lat="47.80695" lon="6.84737">
        <ele>1058.2</ele>
        <time>2026-08-23T10:56:25.000Z</time>
      </trkpt>
      <trkpt lat="47.80702" lon="6.84739">
        <ele>1058.8</ele>
        <time>2026-08-23T10:56:27.000Z</time>
      </trkpt>
      <trkpt lat="47.80709" lon="6.84741">
        <ele>1059.2</ele>
        <time>2026-08-23T10:56:29.000Z</time>
      </trkpt>
      <trkpt lat="47.80716" lon="6.84743">
        <ele>1059.8</ele>
        <time>2026-08-23T10:56:31.000Z</time>
      </trkpt>
      <trkpt lat="47.80726" lon="6.84746">
        <ele>1060.2</ele>
        <time>2026-08-23T10:56:33.000Z</time>
      </trkpt>
      <trkpt lat="47.80735" lon="6.84748">
        <ele>1060.6</ele>
        <time>2026-08-23T10:56:35.000Z</time>
      </trkpt>
      <trkpt lat="47.80743" lon="6.8475">
        <ele>1061</ele>
        <time>2026-08-23T10:56:37.000Z</time>
      </trkpt>
      <trkpt lat="47.8075" lon="6.84751">
        <ele>1061.4</ele>
        <time>2026-08-23T10:56:39.000Z</time>
      </trkpt>
      <trkpt lat="47.80757" lon="6.84752">
        <ele>1061.8</ele>
        <time>2026-08-23T10:56:41.000Z</time>
      </trkpt>
      <trkpt lat="47.80764" lon="6.84753">
        <ele>1062.2</ele>
        <time>2026-08-23T10:56:43.000Z</time>
      </trkpt>
      <trkpt lat="47.80771" lon="6.84754">
        <ele>1062.6</ele>
        <time>2026-08-23T10:56:45.000Z</time>
      </trkpt>
      <trkpt lat="47.80777" lon="6.84754">
        <ele>1063</ele>
        <time>2026-08-23T10:56:47.000Z</time>
      </trkpt>
      <trkpt lat="47.80784" lon="6.84753">
        <ele>1063.4</ele>
        <time>2026-08-23T10:56:49.000Z</time>
      </trkpt>
      <trkpt lat="47.80791" lon="6.84753">
        <ele>1064</ele>
        <time>2026-08-23T10:56:51.000Z</time>
      </trkpt>
      <trkpt lat="47.80799" lon="6.84753">
        <ele>1064.4</ele>
        <time>2026-08-23T10:56:53.000Z</time>
      </trkpt>
      <trkpt lat="47.80806" lon="6.84753">
        <ele>1064.8</ele>
        <time>2026-08-23T10:56:55.000Z</time>
      </trkpt>
      <trkpt lat="47.80813" lon="6.84751">
        <ele>1065.2</ele>
        <time>2026-08-23T10:56:57.000Z</time>
      </trkpt>
      <trkpt lat="47.80819" lon="6.84749">
        <ele>1065.6</ele>
        <time>2026-08-23T10:56:59.000Z</time>
      </trkpt>
      <trkpt lat="47.80827" lon="6.84746">
        <ele>1066</ele>
        <time>2026-08-23T10:57:01.000Z</time>
      </trkpt>
      <trkpt lat="47.80835" lon="6.84742">
        <ele>1066.4</ele>
        <time>2026-08-23T10:57:03.000Z</time>
      </trkpt>
      <trkpt lat="47.80843" lon="6.84738">
        <ele>1066.8</ele>
        <time>2026-08-23T10:57:05.000Z</time>
      </trkpt>
      <trkpt lat="47.80852" lon="6.84733">
        <ele>1067.2</ele>
        <time>2026-08-23T10:57:07.000Z</time>
      </trkpt>
      <trkpt lat="47.80861" lon="6.84728">
        <ele>1067.6</ele>
        <time>2026-08-23T10:57:09.000Z</time>
      </trkpt>
      <trkpt lat="47.80867" lon="6.84724">
        <ele>1068</ele>
        <time>2026-08-23T10:57:11.000Z</time>
      </trkpt>
      <trkpt lat="47.80873" lon="6.8472">
        <ele>1068.4</ele>
        <time>2026-08-23T10:57:13.000Z</time>
      </trkpt>
      <trkpt lat="47.80879" lon="6.84716">
        <ele>1068.8</ele>
        <time>2026-08-23T10:57:15.000Z</time>
      </trkpt>
      <trkpt lat="47.80885" lon="6.84713">
        <ele>1069.2</ele>
        <time>2026-08-23T10:57:17.000Z</time>
      </trkpt>
      <trkpt lat="47.80891" lon="6.8471">
        <ele>1069.6</ele>
        <time>2026-08-23T10:57:19.000Z</time>
      </trkpt>
      <trkpt lat="47.80898" lon="6.84707">
        <ele>1070</ele>
        <time>2026-08-23T10:57:21.000Z</time>
      </trkpt>
      <trkpt lat="47.80904" lon="6.84705">
        <ele>1070.4</ele>
        <time>2026-08-23T10:57:23.000Z</time>
      </trkpt>
      <trkpt lat="47.8091" lon="6.84704">
        <ele>1070.8</ele>
        <time>2026-08-23T10:57:25.000Z</time>
      </trkpt>
      <trkpt lat="47.80916" lon="6.84702">
        <ele>1071.2</ele>
        <time>2026-08-23T10:57:27.000Z</time>
      </trkpt>
      <trkpt lat="47.80922" lon="6.847">
        <ele>1071.6</ele>
        <time>2026-08-23T10:57:29.000Z</time>
      </trkpt>
      <trkpt lat="47.80928" lon="6.84698">
        <ele>1072.2</ele>
        <time>2026-08-23T10:57:31.000Z</time>
      </trkpt>
      <trkpt lat="47.80935" lon="6.84697">
        <ele>1072.4</ele>
        <time>2026-08-23T10:57:33.000Z</time>
      </trkpt>
      <trkpt lat="47.80941" lon="6.84695">
        <ele>1072.8</ele>
        <time>2026-08-23T10:57:35.000Z</time>
      </trkpt>
      <trkpt lat="47.80946" lon="6.84694">
        <ele>1073.2</ele>
        <time>2026-08-23T10:57:37.000Z</time>
      </trkpt>
      <trkpt lat="47.80952" lon="6.84692">
        <ele>1073.4</ele>
        <time>2026-08-23T10:57:39.000Z</time>
      </trkpt>
      <trkpt lat="47.80959" lon="6.84691">
        <ele>1073.8</ele>
        <time>2026-08-23T10:57:41.000Z</time>
      </trkpt>
      <trkpt lat="47.80964" lon="6.84689">
        <ele>1074.2</ele>
        <time>2026-08-23T10:57:44.000Z</time>
      </trkpt>
      <trkpt lat="47.80969" lon="6.84686">
        <ele>1074.6</ele>
        <time>2026-08-23T10:57:46.000Z</time>
      </trkpt>
      <trkpt lat="47.80974" lon="6.84683">
        <ele>1075</ele>
        <time>2026-08-23T10:57:48.000Z</time>
      </trkpt>
      <trkpt lat="47.80979" lon="6.8468">
        <ele>1075.4</ele>
        <time>2026-08-23T10:57:50.000Z</time>
      </trkpt>
      <trkpt lat="47.80985" lon="6.84675">
        <ele>1075.8</ele>
        <time>2026-08-23T10:57:52.000Z</time>
      </trkpt>
      <trkpt lat="47.8099" lon="6.84669">
        <ele>1076</ele>
        <time>2026-08-23T10:57:54.000Z</time>
      </trkpt>
      <trkpt lat="47.80995" lon="6.84664">
        <ele>1076.4</ele>
        <time>2026-08-23T10:57:56.000Z</time>
      </trkpt>
      <trkpt lat="47.80999" lon="6.84658">
        <ele>1076.8</ele>
        <time>2026-08-23T10:57:58.000Z</time>
      </trkpt>
      <trkpt lat="47.81003" lon="6.84652">
        <ele>1077.2</ele>
        <time>2026-08-23T10:58:00.000Z</time>
      </trkpt>
      <trkpt lat="47.81007" lon="6.84646">
        <ele>1077.6</ele>
        <time>2026-08-23T10:58:02.000Z</time>
      </trkpt>
      <trkpt lat="47.81011" lon="6.84639">
        <ele>1077.8</ele>
        <time>2026-08-23T10:58:04.000Z</time>
      </trkpt>
      <trkpt lat="47.81014" lon="6.84631">
        <ele>1078.2</ele>
        <time>2026-08-23T10:58:06.000Z</time>
      </trkpt>
      <trkpt lat="47.81018" lon="6.84623">
        <ele>1078.6</ele>
        <time>2026-08-23T10:58:08.000Z</time>
      </trkpt>
      <trkpt lat="47.81021" lon="6.84615">
        <ele>1079</ele>
        <time>2026-08-23T10:58:10.000Z</time>
      </trkpt>
      <trkpt lat="47.81022" lon="6.84607">
        <ele>1079.4</ele>
        <time>2026-08-23T10:58:12.000Z</time>
      </trkpt>
      <trkpt lat="47.81023" lon="6.84598">
        <ele>1079.8</ele>
        <time>2026-08-23T10:58:14.000Z</time>
      </trkpt>
      <trkpt lat="47.81024" lon="6.84589">
        <ele>1080</ele>
        <time>2026-08-23T10:58:16.000Z</time>
      </trkpt>
      <trkpt lat="47.81026" lon="6.8458">
        <ele>1080.2</ele>
        <time>2026-08-23T10:58:18.000Z</time>
      </trkpt>
      <trkpt lat="47.81027" lon="6.84571">
        <ele>1080.4</ele>
        <time>2026-08-23T10:58:20.000Z</time>
      </trkpt>
      <trkpt lat="47.81027" lon="6.84562">
        <ele>1080.8</ele>
        <time>2026-08-23T10:58:22.000Z</time>
      </trkpt>
      <trkpt lat="47.81028" lon="6.84553">
        <ele>1081</ele>
        <time>2026-08-23T10:58:24.000Z</time>
      </trkpt>
      <trkpt lat="47.81028" lon="6.84542">
        <ele>1081.4</ele>
        <time>2026-08-23T10:58:26.000Z</time>
      </trkpt>
      <trkpt lat="47.81029" lon="6.8453">
        <ele>1081.6</ele>
        <time>2026-08-23T10:58:28.000Z</time>
      </trkpt>
      <trkpt lat="47.8103" lon="6.84521">
        <ele>1082</ele>
        <time>2026-08-23T10:58:30.000Z</time>
      </trkpt>
      <trkpt lat="47.81031" lon="6.84513">
        <ele>1082.2</ele>
        <time>2026-08-23T10:58:32.000Z</time>
      </trkpt>
      <trkpt lat="47.81032" lon="6.84504">
        <ele>1082.6</ele>
        <time>2026-08-23T10:58:34.000Z</time>
      </trkpt>
      <trkpt lat="47.81032" lon="6.84495">
        <ele>1083</ele>
        <time>2026-08-23T10:58:36.000Z</time>
      </trkpt>
      <trkpt lat="47.81032" lon="6.84487">
        <ele>1083.4</ele>
        <time>2026-08-23T10:58:38.000Z</time>
      </trkpt>
      <trkpt lat="47.81032" lon="6.84478">
        <ele>1083.8</ele>
        <time>2026-08-23T10:58:40.000Z</time>
      </trkpt>
      <trkpt lat="47.81032" lon="6.84469">
        <ele>1084.2</ele>
        <time>2026-08-23T10:58:42.000Z</time>
      </trkpt>
      <trkpt lat="47.81032" lon="6.8446">
        <ele>1084.6</ele>
        <time>2026-08-23T10:58:44.000Z</time>
      </trkpt>
      <trkpt lat="47.81032" lon="6.84451">
        <ele>1085</ele>
        <time>2026-08-23T10:58:46.000Z</time>
      </trkpt>
      <trkpt lat="47.81031" lon="6.84441">
        <ele>1085.4</ele>
        <time>2026-08-23T10:58:48.000Z</time>
      </trkpt>
      <trkpt lat="47.81031" lon="6.84431">
        <ele>1086</ele>
        <time>2026-08-23T10:58:50.000Z</time>
      </trkpt>
      <trkpt lat="47.81031" lon="6.84421">
        <ele>1086.4</ele>
        <time>2026-08-23T10:58:52.000Z</time>
      </trkpt>
      <trkpt lat="47.81031" lon="6.84411">
        <ele>1086.8</ele>
        <time>2026-08-23T10:58:54.000Z</time>
      </trkpt>
      <trkpt lat="47.81031" lon="6.84402">
        <ele>1087.2</ele>
        <time>2026-08-23T10:58:56.000Z</time>
      </trkpt>
      <trkpt lat="47.81031" lon="6.84394">
        <ele>1087.6</ele>
        <time>2026-08-23T10:58:58.000Z</time>
      </trkpt>
      <trkpt lat="47.8103" lon="6.84385">
        <ele>1087.8</ele>
        <time>2026-08-23T10:59:00.000Z</time>
      </trkpt>
      <trkpt lat="47.81029" lon="6.84377">
        <ele>1088.2</ele>
        <time>2026-08-23T10:59:02.000Z</time>
      </trkpt>
      <trkpt lat="47.81029" lon="6.84368">
        <ele>1088.4</ele>
        <time>2026-08-23T10:59:04.000Z</time>
      </trkpt>
      <trkpt lat="47.81029" lon="6.84359">
        <ele>1088.6</ele>
        <time>2026-08-23T10:59:06.000Z</time>
      </trkpt>
      <trkpt lat="47.81028" lon="6.8435">
        <ele>1089</ele>
        <time>2026-08-23T10:59:08.000Z</time>
      </trkpt>
      <trkpt lat="47.81028" lon="6.8434">
        <ele>1089.2</ele>
        <time>2026-08-23T10:59:10.000Z</time>
      </trkpt>
      <trkpt lat="47.81027" lon="6.84331">
        <ele>1089.4</ele>
        <time>2026-08-23T10:59:13.000Z</time>
      </trkpt>
      <trkpt lat="47.81026" lon="6.84321">
        <ele>1089.8</ele>
        <time>2026-08-23T10:59:15.000Z</time>
      </trkpt>
      <trkpt lat="47.81025" lon="6.84312">
        <ele>1090.2</ele>
        <time>2026-08-23T10:59:17.000Z</time>
      </trkpt>
      <trkpt lat="47.81024" lon="6.84303">
        <ele>1090.6</ele>
        <time>2026-08-23T10:59:19.000Z</time>
      </trkpt>
      <trkpt lat="47.81024" lon="6.84294">
        <ele>1091</ele>
        <time>2026-08-23T10:59:21.000Z</time>
      </trkpt>
      <trkpt lat="47.81024" lon="6.84285">
        <ele>1091.4</ele>
        <time>2026-08-23T10:59:23.000Z</time>
      </trkpt>
      <trkpt lat="47.81023" lon="6.84277">
        <ele>1091.6</ele>
        <time>2026-08-23T10:59:25.000Z</time>
      </trkpt>
      <trkpt lat="47.81023" lon="6.84268">
        <ele>1092</ele>
        <time>2026-08-23T10:59:27.000Z</time>
      </trkpt>
      <trkpt lat="47.81024" lon="6.84258">
        <ele>1092.4</ele>
        <time>2026-08-23T10:59:29.000Z</time>
      </trkpt>
      <trkpt lat="47.81025" lon="6.84249">
        <ele>1092.8</ele>
        <time>2026-08-23T10:59:31.000Z</time>
      </trkpt>
      <trkpt lat="47.81026" lon="6.84239">
        <ele>1093.2</ele>
        <time>2026-08-23T10:59:33.000Z</time>
      </trkpt>
      <trkpt lat="47.81027" lon="6.8423">
        <ele>1093.6</ele>
        <time>2026-08-23T10:59:35.000Z</time>
      </trkpt>
      <trkpt lat="47.81027" lon="6.8422">
        <ele>1094</ele>
        <time>2026-08-23T10:59:37.000Z</time>
      </trkpt>
      <trkpt lat="47.81026" lon="6.84211">
        <ele>1094.4</ele>
        <time>2026-08-23T10:59:39.000Z</time>
      </trkpt>
      <trkpt lat="47.81023" lon="6.84201">
        <ele>1094.6</ele>
        <time>2026-08-23T10:59:41.000Z</time>
      </trkpt>
      <trkpt lat="47.81017" lon="6.84194">
        <ele>1095</ele>
        <time>2026-08-23T10:59:43.000Z</time>
      </trkpt>
      <trkpt lat="47.81011" lon="6.8419">
        <ele>1095.4</ele>
        <time>2026-08-23T10:59:45.000Z</time>
      </trkpt>
      <trkpt lat="47.81005" lon="6.84188">
        <ele>1095.6</ele>
        <time>2026-08-23T10:59:47.000Z</time>
      </trkpt>
      <trkpt lat="47.80998" lon="6.84185">
        <ele>1096</ele>
        <time>2026-08-23T10:59:49.000Z</time>
      </trkpt>
      <trkpt lat="47.80992" lon="6.84182">
        <ele>1096.2</ele>
        <time>2026-08-23T10:59:51.000Z</time>
      </trkpt>
      <trkpt lat="47.80986" lon="6.84179">
        <ele>1096.6</ele>
        <time>2026-08-23T10:59:53.000Z</time>
      </trkpt>
      <trkpt lat="47.8098" lon="6.84174">
        <ele>1097.2</ele>
        <time>2026-08-23T10:59:55.000Z</time>
      </trkpt>
      <trkpt lat="47.80975" lon="6.84168">
        <ele>1097.6</ele>
        <time>2026-08-23T10:59:57.000Z</time>
      </trkpt>
      <trkpt lat="47.80971" lon="6.8416">
        <ele>1098</ele>
        <time>2026-08-23T10:59:59.000Z</time>
      </trkpt>
      <trkpt lat="47.80967" lon="6.84152">
        <ele>1098.4</ele>
        <time>2026-08-23T11:00:01.000Z</time>
      </trkpt>
      <trkpt lat="47.80964" lon="6.84144">
        <ele>1099</ele>
        <time>2026-08-23T11:00:03.000Z</time>
      </trkpt>
      <trkpt lat="47.8096" lon="6.84131">
        <ele>1099.4</ele>
        <time>2026-08-23T11:00:05.000Z</time>
      </trkpt>
      <trkpt lat="47.80957" lon="6.84121">
        <ele>1099.8</ele>
        <time>2026-08-23T11:00:07.000Z</time>
      </trkpt>
      <trkpt lat="47.80954" lon="6.84111">
        <ele>1100.2</ele>
        <time>2026-08-23T11:00:09.000Z</time>
      </trkpt>
      <trkpt lat="47.80953" lon="6.84102">
        <ele>1100.6</ele>
        <time>2026-08-23T11:00:11.000Z</time>
      </trkpt>
      <trkpt lat="47.80952" lon="6.84093">
        <ele>1101</ele>
        <time>2026-08-23T11:00:13.000Z</time>
      </trkpt>
      <trkpt lat="47.80951" lon="6.84083">
        <ele>1101.4</ele>
        <time>2026-08-23T11:00:15.000Z</time>
      </trkpt>
      <trkpt lat="47.8095" lon="6.84074">
        <ele>1101.8</ele>
        <time>2026-08-23T11:00:17.000Z</time>
      </trkpt>
      <trkpt lat="47.8095" lon="6.84064">
        <ele>1102.2</ele>
        <time>2026-08-23T11:00:19.000Z</time>
      </trkpt>
      <trkpt lat="47.80949" lon="6.84055">
        <ele>1102.6</ele>
        <time>2026-08-23T11:00:21.000Z</time>
      </trkpt>
      <trkpt lat="47.8095" lon="6.84045">
        <ele>1102.8</ele>
        <time>2026-08-23T11:00:23.000Z</time>
      </trkpt>
      <trkpt lat="47.80952" lon="6.84034">
        <ele>1103.2</ele>
        <time>2026-08-23T11:00:25.000Z</time>
      </trkpt>
      <trkpt lat="47.80954" lon="6.84022">
        <ele>1103.8</ele>
        <time>2026-08-23T11:00:27.000Z</time>
      </trkpt>
      <trkpt lat="47.80957" lon="6.8401">
        <ele>1104.4</ele>
        <time>2026-08-23T11:00:29.000Z</time>
      </trkpt>
      <trkpt lat="47.8096" lon="6.84001">
        <ele>1104.8</ele>
        <time>2026-08-23T11:00:31.000Z</time>
      </trkpt>
      <trkpt lat="47.80963" lon="6.83992">
        <ele>1105.2</ele>
        <time>2026-08-23T11:00:33.000Z</time>
      </trkpt>
      <trkpt lat="47.80968" lon="6.83985">
        <ele>1105.8</ele>
        <time>2026-08-23T11:00:35.000Z</time>
      </trkpt>
      <trkpt lat="47.80973" lon="6.83979">
        <ele>1106.2</ele>
        <time>2026-08-23T11:00:37.000Z</time>
      </trkpt>
      <trkpt lat="47.80979" lon="6.83974">
        <ele>1106.8</ele>
        <time>2026-08-23T11:00:40.000Z</time>
      </trkpt>
      <trkpt lat="47.80984" lon="6.83971">
        <ele>1107.2</ele>
        <time>2026-08-23T11:00:42.000Z</time>
      </trkpt>
      <trkpt lat="47.8099" lon="6.83968">
        <ele>1107.6</ele>
        <time>2026-08-23T11:00:44.000Z</time>
      </trkpt>
      <trkpt lat="47.80995" lon="6.83965">
        <ele>1107.8</ele>
        <time>2026-08-23T11:00:46.000Z</time>
      </trkpt>
      <trkpt lat="47.81001" lon="6.83962">
        <ele>1108.2</ele>
        <time>2026-08-23T11:00:48.000Z</time>
      </trkpt>
      <trkpt lat="47.81006" lon="6.83959">
        <ele>1108.6</ele>
        <time>2026-08-23T11:00:50.000Z</time>
      </trkpt>
      <trkpt lat="47.81012" lon="6.83956">
        <ele>1109</ele>
        <time>2026-08-23T11:00:52.000Z</time>
      </trkpt>
      <trkpt lat="47.81018" lon="6.83952">
        <ele>1109.4</ele>
        <time>2026-08-23T11:00:54.000Z</time>
      </trkpt>
      <trkpt lat="47.81024" lon="6.83949">
        <ele>1109.6</ele>
        <time>2026-08-23T11:00:56.000Z</time>
      </trkpt>
      <trkpt lat="47.81029" lon="6.83946">
        <ele>1110</ele>
        <time>2026-08-23T11:00:58.000Z</time>
      </trkpt>
      <trkpt lat="47.81035" lon="6.83943">
        <ele>1110.4</ele>
        <time>2026-08-23T11:01:00.000Z</time>
      </trkpt>
      <trkpt lat="47.81041" lon="6.83941">
        <ele>1110.8</ele>
        <time>2026-08-23T11:01:02.000Z</time>
      </trkpt>
      <trkpt lat="47.81047" lon="6.83938">
        <ele>1111.2</ele>
        <time>2026-08-23T11:01:04.000Z</time>
      </trkpt>
      <trkpt lat="47.81053" lon="6.83936">
        <ele>1111.6</ele>
        <time>2026-08-23T11:01:06.000Z</time>
      </trkpt>
      <trkpt lat="47.81059" lon="6.83935">
        <ele>1112</ele>
        <time>2026-08-23T11:01:08.000Z</time>
      </trkpt>
      <trkpt lat="47.81065" lon="6.83935">
        <ele>1112.4</ele>
        <time>2026-08-23T11:01:10.000Z</time>
      </trkpt>
      <trkpt lat="47.81071" lon="6.83936">
        <ele>1112.8</ele>
        <time>2026-08-23T11:01:12.000Z</time>
      </trkpt>
      <trkpt lat="47.81077" lon="6.83937">
        <ele>1113</ele>
        <time>2026-08-23T11:01:14.000Z</time>
      </trkpt>
      <trkpt lat="47.81082" lon="6.83937">
        <ele>1113.4</ele>
        <time>2026-08-23T11:01:16.000Z</time>
      </trkpt>
      <trkpt lat="47.81088" lon="6.83938">
        <ele>1113.8</ele>
        <time>2026-08-23T11:01:18.000Z</time>
      </trkpt>
      <trkpt lat="47.81096" lon="6.8394">
        <ele>1114</ele>
        <time>2026-08-23T11:01:20.000Z</time>
      </trkpt>
      <trkpt lat="47.81103" lon="6.83941">
        <ele>1114.4</ele>
        <time>2026-08-23T11:01:22.000Z</time>
      </trkpt>
      <trkpt lat="47.81109" lon="6.83942">
        <ele>1114.8</ele>
        <time>2026-08-23T11:01:24.000Z</time>
      </trkpt>
      <trkpt lat="47.81115" lon="6.83943">
        <ele>1115</ele>
        <time>2026-08-23T11:01:26.000Z</time>
      </trkpt>
      <trkpt lat="47.8112" lon="6.83945">
        <ele>1115.4</ele>
        <time>2026-08-23T11:01:28.000Z</time>
      </trkpt>
      <trkpt lat="47.81126" lon="6.83947">
        <ele>1115.8</ele>
        <time>2026-08-23T11:01:30.000Z</time>
      </trkpt>
      <trkpt lat="47.81132" lon="6.8395">
        <ele>1116.2</ele>
        <time>2026-08-23T11:01:32.000Z</time>
      </trkpt>
      <trkpt lat="47.81138" lon="6.83953">
        <ele>1116.6</ele>
        <time>2026-08-23T11:01:34.000Z</time>
      </trkpt>
      <trkpt lat="47.81145" lon="6.83956">
        <ele>1117</ele>
        <time>2026-08-23T11:01:36.000Z</time>
      </trkpt>
      <trkpt lat="47.81151" lon="6.8396">
        <ele>1117.2</ele>
        <time>2026-08-23T11:01:38.000Z</time>
      </trkpt>
      <trkpt lat="47.81157" lon="6.83964">
        <ele>1117.6</ele>
        <time>2026-08-23T11:01:40.000Z</time>
      </trkpt>
      <trkpt lat="47.81163" lon="6.83968">
        <ele>1117.8</ele>
        <time>2026-08-23T11:01:42.000Z</time>
      </trkpt>
      <trkpt lat="47.81168" lon="6.83972">
        <ele>1118.2</ele>
        <time>2026-08-23T11:01:44.000Z</time>
      </trkpt>
      <trkpt lat="47.81174" lon="6.83975">
        <ele>1118.6</ele>
        <time>2026-08-23T11:01:46.000Z</time>
      </trkpt>
      <trkpt lat="47.8118" lon="6.83979">
        <ele>1119</ele>
        <time>2026-08-23T11:01:48.000Z</time>
      </trkpt>
      <trkpt lat="47.81186" lon="6.83983">
        <ele>1119.4</ele>
        <time>2026-08-23T11:01:50.000Z</time>
      </trkpt>
      <trkpt lat="47.81192" lon="6.83987">
        <ele>1119.8</ele>
        <time>2026-08-23T11:01:52.000Z</time>
      </trkpt>
      <trkpt lat="47.81198" lon="6.83991">
        <ele>1120.2</ele>
        <time>2026-08-23T11:01:54.000Z</time>
      </trkpt>
      <trkpt lat="47.81203" lon="6.83996">
        <ele>1120.6</ele>
        <time>2026-08-23T11:01:56.000Z</time>
      </trkpt>
      <trkpt lat="47.81209" lon="6.84001">
        <ele>1121</ele>
        <time>2026-08-23T11:01:58.000Z</time>
      </trkpt>
      <trkpt lat="47.81214" lon="6.84006">
        <ele>1121.4</ele>
        <time>2026-08-23T11:02:00.000Z</time>
      </trkpt>
      <trkpt lat="47.8122" lon="6.84012">
        <ele>1121.8</ele>
        <time>2026-08-23T11:02:02.000Z</time>
      </trkpt>
      <trkpt lat="47.81225" lon="6.84018">
        <ele>1122.2</ele>
        <time>2026-08-23T11:02:04.000Z</time>
      </trkpt>
      <trkpt lat="47.81231" lon="6.84024">
        <ele>1122.6</ele>
        <time>2026-08-23T11:02:06.000Z</time>
      </trkpt>
      <trkpt lat="47.81237" lon="6.84029">
        <ele>1123</ele>
        <time>2026-08-23T11:02:09.000Z</time>
      </trkpt>
      <trkpt lat="47.81242" lon="6.84035">
        <ele>1123.4</ele>
        <time>2026-08-23T11:02:11.000Z</time>
      </trkpt>
      <trkpt lat="47.81248" lon="6.84041">
        <ele>1123.8</ele>
        <time>2026-08-23T11:02:13.000Z</time>
      </trkpt>
      <trkpt lat="47.81253" lon="6.84047">
        <ele>1124</ele>
        <time>2026-08-23T11:02:15.000Z</time>
      </trkpt>
      <trkpt lat="47.81259" lon="6.84052">
        <ele>1124.4</ele>
        <time>2026-08-23T11:02:17.000Z</time>
      </trkpt>
      <trkpt lat="47.81265" lon="6.84058">
        <ele>1124.6</ele>
        <time>2026-08-23T11:02:19.000Z</time>
      </trkpt>
      <trkpt lat="47.81271" lon="6.84064">
        <ele>1124.8</ele>
        <time>2026-08-23T11:02:21.000Z</time>
      </trkpt>
      <trkpt lat="47.81278" lon="6.84069">
        <ele>1125.4</ele>
        <time>2026-08-23T11:02:23.000Z</time>
      </trkpt>
      <trkpt lat="47.81284" lon="6.84075">
        <ele>1125.8</ele>
        <time>2026-08-23T11:02:25.000Z</time>
      </trkpt>
      <trkpt lat="47.8129" lon="6.84081">
        <ele>1126.2</ele>
        <time>2026-08-23T11:02:27.000Z</time>
      </trkpt>
      <trkpt lat="47.81297" lon="6.84087">
        <ele>1126.6</ele>
        <time>2026-08-23T11:02:29.000Z</time>
      </trkpt>
      <trkpt lat="47.81304" lon="6.84092">
        <ele>1126.8</ele>
        <time>2026-08-23T11:02:31.000Z</time>
      </trkpt>
      <trkpt lat="47.8131" lon="6.84098">
        <ele>1127.2</ele>
        <time>2026-08-23T11:02:33.000Z</time>
      </trkpt>
      <trkpt lat="47.81317" lon="6.84104">
        <ele>1127.6</ele>
        <time>2026-08-23T11:02:35.000Z</time>
      </trkpt>
      <trkpt lat="47.81324" lon="6.84109">
        <ele>1128</ele>
        <time>2026-08-23T11:02:37.000Z</time>
      </trkpt>
      <trkpt lat="47.81331" lon="6.84115">
        <ele>1128.4</ele>
        <time>2026-08-23T11:02:39.000Z</time>
      </trkpt>
      <trkpt lat="47.81338" lon="6.84121">
        <ele>1128.4</ele>
        <time>2026-08-23T11:02:41.000Z</time>
      </trkpt>
      <trkpt lat="47.81345" lon="6.84128">
        <ele>1128.6</ele>
        <time>2026-08-23T11:02:43.000Z</time>
      </trkpt>
      <trkpt lat="47.81356" lon="6.84139">
        <ele>1128.8</ele>
        <time>2026-08-23T11:02:45.000Z</time>
      </trkpt>
      <trkpt lat="47.81365" lon="6.84147">
        <ele>1128.8</ele>
        <time>2026-08-23T11:02:47.000Z</time>
      </trkpt>
      <trkpt lat="47.81373" lon="6.84155">
        <ele>1128.8</ele>
        <time>2026-08-23T11:02:49.000Z</time>
      </trkpt>
      <trkpt lat="47.8138" lon="6.84163">
        <ele>1128.8</ele>
        <time>2026-08-23T11:02:51.000Z</time>
      </trkpt>
      <trkpt lat="47.81387" lon="6.84171">
        <ele>1129</ele>
        <time>2026-08-23T11:02:53.000Z</time>
      </trkpt>
      <trkpt lat="47.81394" lon="6.84179">
        <ele>1129.2</ele>
        <time>2026-08-23T11:02:55.000Z</time>
      </trkpt>
      <trkpt lat="47.81402" lon="6.84186">
        <ele>1129.2</ele>
        <time>2026-08-23T11:02:57.000Z</time>
      </trkpt>
      <trkpt lat="47.81409" lon="6.84194">
        <ele>1129.4</ele>
        <time>2026-08-23T11:02:59.000Z</time>
      </trkpt>
      <trkpt lat="47.81416" lon="6.84202">
        <ele>1129.4</ele>
        <time>2026-08-23T11:03:01.000Z</time>
      </trkpt>
      <trkpt lat="47.81424" lon="6.8421">
        <ele>1129.4</ele>
        <time>2026-08-23T11:03:03.000Z</time>
      </trkpt>
      <trkpt lat="47.81432" lon="6.84218">
        <ele>1129.4</ele>
        <time>2026-08-23T11:03:05.000Z</time>
      </trkpt>
      <trkpt lat="47.8144" lon="6.84225">
        <ele>1129.4</ele>
        <time>2026-08-23T11:03:07.000Z</time>
      </trkpt>
      <trkpt lat="47.81448" lon="6.84231">
        <ele>1129.6</ele>
        <time>2026-08-23T11:03:09.000Z</time>
      </trkpt>
      <trkpt lat="47.81456" lon="6.84236">
        <ele>1129.8</ele>
        <time>2026-08-23T11:03:11.000Z</time>
      </trkpt>
      <trkpt lat="47.81465" lon="6.8424">
        <ele>1129.8</ele>
        <time>2026-08-23T11:03:13.000Z</time>
      </trkpt>
      <trkpt lat="47.81475" lon="6.84242">
        <ele>1130</ele>
        <time>2026-08-23T11:03:15.000Z</time>
      </trkpt>
      <trkpt lat="47.81484" lon="6.84243">
        <ele>1130.2</ele>
        <time>2026-08-23T11:03:17.000Z</time>
      </trkpt>
      <trkpt lat="47.81494" lon="6.84242">
        <ele>1130.2</ele>
        <time>2026-08-23T11:03:19.000Z</time>
      </trkpt>
      <trkpt lat="47.81503" lon="6.84242">
        <ele>1130.4</ele>
        <time>2026-08-23T11:03:21.000Z</time>
      </trkpt>
      <trkpt lat="47.81513" lon="6.84241">
        <ele>1130.6</ele>
        <time>2026-08-23T11:03:23.000Z</time>
      </trkpt>
      <trkpt lat="47.81522" lon="6.8424">
        <ele>1130.6</ele>
        <time>2026-08-23T11:03:25.000Z</time>
      </trkpt>
      <trkpt lat="47.81532" lon="6.84239">
        <ele>1130.8</ele>
        <time>2026-08-23T11:03:27.000Z</time>
      </trkpt>
      <trkpt lat="47.81541" lon="6.84239">
        <ele>1131.2</ele>
        <time>2026-08-23T11:03:30.000Z</time>
      </trkpt>
      <trkpt lat="47.8155" lon="6.84238">
        <ele>1131.4</ele>
        <time>2026-08-23T11:03:32.000Z</time>
      </trkpt>
      <trkpt lat="47.81559" lon="6.84237">
        <ele>1131.8</ele>
        <time>2026-08-23T11:03:34.000Z</time>
      </trkpt>
      <trkpt lat="47.81567" lon="6.84237">
        <ele>1132</ele>
        <time>2026-08-23T11:03:36.000Z</time>
      </trkpt>
      <trkpt lat="47.81576" lon="6.84236">
        <ele>1132.2</ele>
        <time>2026-08-23T11:03:38.000Z</time>
      </trkpt>
      <trkpt lat="47.81585" lon="6.84235">
        <ele>1132.6</ele>
        <time>2026-08-23T11:03:40.000Z</time>
      </trkpt>
      <trkpt lat="47.81594" lon="6.84234">
        <ele>1133</ele>
        <time>2026-08-23T11:03:42.000Z</time>
      </trkpt>
      <trkpt lat="47.81602" lon="6.84233">
        <ele>1133.4</ele>
        <time>2026-08-23T11:03:44.000Z</time>
      </trkpt>
      <trkpt lat="47.8161" lon="6.84233">
        <ele>1133.8</ele>
        <time>2026-08-23T11:03:46.000Z</time>
      </trkpt>
      <trkpt lat="47.81619" lon="6.84232">
        <ele>1134.2</ele>
        <time>2026-08-23T11:03:48.000Z</time>
      </trkpt>
      <trkpt lat="47.81627" lon="6.84232">
        <ele>1134.6</ele>
        <time>2026-08-23T11:03:50.000Z</time>
      </trkpt>
      <trkpt lat="47.81635" lon="6.84231">
        <ele>1135</ele>
        <time>2026-08-23T11:03:52.000Z</time>
      </trkpt>
      <trkpt lat="47.81644" lon="6.8423">
        <ele>1135.4</ele>
        <time>2026-08-23T11:03:54.000Z</time>
      </trkpt>
      <trkpt lat="47.81652" lon="6.84229">
        <ele>1135.8</ele>
        <time>2026-08-23T11:03:56.000Z</time>
      </trkpt>
      <trkpt lat="47.81661" lon="6.84229">
        <ele>1136.2</ele>
        <time>2026-08-23T11:03:58.000Z</time>
      </trkpt>
      <trkpt lat="47.8167" lon="6.84228">
        <ele>1136.4</ele>
        <time>2026-08-23T11:04:00.000Z</time>
      </trkpt>
      <trkpt lat="47.81678" lon="6.84227">
        <ele>1137</ele>
        <time>2026-08-23T11:04:02.000Z</time>
      </trkpt>
      <trkpt lat="47.81687" lon="6.84225">
        <ele>1137.6</ele>
        <time>2026-08-23T11:04:04.000Z</time>
      </trkpt>
      <trkpt lat="47.81694" lon="6.84223">
        <ele>1138.2</ele>
        <time>2026-08-23T11:04:06.000Z</time>
      </trkpt>
      <trkpt lat="47.81702" lon="6.8422">
        <ele>1138.6</ele>
        <time>2026-08-23T11:04:08.000Z</time>
      </trkpt>
      <trkpt lat="47.81709" lon="6.84218">
        <ele>1139.2</ele>
        <time>2026-08-23T11:04:10.000Z</time>
      </trkpt>
      <trkpt lat="47.81717" lon="6.84216">
        <ele>1139.8</ele>
        <time>2026-08-23T11:04:12.000Z</time>
      </trkpt>
      <trkpt lat="47.81725" lon="6.84212">
        <ele>1140.4</ele>
        <time>2026-08-23T11:04:14.000Z</time>
      </trkpt>
      <trkpt lat="47.81734" lon="6.84209">
        <ele>1141</ele>
        <time>2026-08-23T11:04:16.000Z</time>
      </trkpt>
      <trkpt lat="47.81741" lon="6.84205">
        <ele>1141.8</ele>
        <time>2026-08-23T11:04:18.000Z</time>
      </trkpt>
      <trkpt lat="47.81747" lon="6.84202">
        <ele>1142.4</ele>
        <time>2026-08-23T11:04:20.000Z</time>
      </trkpt>
      <trkpt lat="47.81753" lon="6.84199">
        <ele>1143.2</ele>
        <time>2026-08-23T11:04:22.000Z</time>
      </trkpt>
      <trkpt lat="47.81759" lon="6.84197">
        <ele>1143.8</ele>
        <time>2026-08-23T11:04:24.000Z</time>
      </trkpt>
      <trkpt lat="47.81766" lon="6.84195">
        <ele>1144.4</ele>
        <time>2026-08-23T11:04:26.000Z</time>
      </trkpt>
      <trkpt lat="47.81772" lon="6.84192">
        <ele>1145.2</ele>
        <time>2026-08-23T11:04:28.000Z</time>
      </trkpt>
      <trkpt lat="47.81779" lon="6.84188">
        <ele>1145.6</ele>
        <time>2026-08-23T11:04:30.000Z</time>
      </trkpt>
      <trkpt lat="47.81785" lon="6.84185">
        <ele>1146.2</ele>
        <time>2026-08-23T11:04:32.000Z</time>
      </trkpt>
      <trkpt lat="47.8179" lon="6.84182">
        <ele>1146.8</ele>
        <time>2026-08-23T11:04:34.000Z</time>
      </trkpt>
      <trkpt lat="47.81796" lon="6.84179">
        <ele>1147.2</ele>
        <time>2026-08-23T11:04:36.000Z</time>
      </trkpt>
      <trkpt lat="47.81801" lon="6.84176">
        <ele>1147.8</ele>
        <time>2026-08-23T11:04:38.000Z</time>
      </trkpt>
      <trkpt lat="47.81806" lon="6.84173">
        <ele>1148.2</ele>
        <time>2026-08-23T11:04:40.000Z</time>
      </trkpt>
      <trkpt lat="47.81812" lon="6.8417">
        <ele>1148.6</ele>
        <time>2026-08-23T11:04:42.000Z</time>
      </trkpt>
      <trkpt lat="47.81817" lon="6.84167">
        <ele>1148.8</ele>
        <time>2026-08-23T11:04:44.000Z</time>
      </trkpt>
      <trkpt lat="47.81822" lon="6.84164">
        <ele>1149.2</ele>
        <time>2026-08-23T11:04:46.000Z</time>
      </trkpt>
      <trkpt lat="47.81828" lon="6.8416">
        <ele>1149.6</ele>
        <time>2026-08-23T11:04:48.000Z</time>
      </trkpt>
      <trkpt lat="47.81833" lon="6.84157">
        <ele>1150</ele>
        <time>2026-08-23T11:04:50.000Z</time>
      </trkpt>
      <trkpt lat="47.81838" lon="6.84153">
        <ele>1150.6</ele>
        <time>2026-08-23T11:04:52.000Z</time>
      </trkpt>
      <trkpt lat="47.81844" lon="6.8415">
        <ele>1151</ele>
        <time>2026-08-23T11:04:55.000Z</time>
      </trkpt>
      <trkpt lat="47.81849" lon="6.84147">
        <ele>1151.4</ele>
        <time>2026-08-23T11:04:57.000Z</time>
      </trkpt>
      <trkpt lat="47.81855" lon="6.84143">
        <ele>1151.8</ele>
        <time>2026-08-23T11:04:59.000Z</time>
      </trkpt>
      <trkpt lat="47.8186" lon="6.84139">
        <ele>1152.2</ele>
        <time>2026-08-23T11:05:01.000Z</time>
      </trkpt>
      <trkpt lat="47.81865" lon="6.84135">
        <ele>1152.8</ele>
        <time>2026-08-23T11:05:03.000Z</time>
      </trkpt>
      <trkpt lat="47.81871" lon="6.84132">
        <ele>1153.4</ele>
        <time>2026-08-23T11:05:05.000Z</time>
      </trkpt>
      <trkpt lat="47.81876" lon="6.84128">
        <ele>1153.8</ele>
        <time>2026-08-23T11:05:07.000Z</time>
      </trkpt>
      <trkpt lat="47.81881" lon="6.84124">
        <ele>1154.4</ele>
        <time>2026-08-23T11:05:09.000Z</time>
      </trkpt>
      <trkpt lat="47.81887" lon="6.8412">
        <ele>1155</ele>
        <time>2026-08-23T11:05:11.000Z</time>
      </trkpt>
      <trkpt lat="47.81892" lon="6.84115">
        <ele>1155.6</ele>
        <time>2026-08-23T11:05:13.000Z</time>
      </trkpt>
      <trkpt lat="47.81897" lon="6.8411">
        <ele>1156.2</ele>
        <time>2026-08-23T11:05:15.000Z</time>
      </trkpt>
      <trkpt lat="47.81903" lon="6.84106">
        <ele>1156.6</ele>
        <time>2026-08-23T11:05:17.000Z</time>
      </trkpt>
      <trkpt lat="47.81908" lon="6.84101">
        <ele>1157.2</ele>
        <time>2026-08-23T11:05:19.000Z</time>
      </trkpt>
      <trkpt lat="47.81913" lon="6.84097">
        <ele>1157.6</ele>
        <time>2026-08-23T11:05:21.000Z</time>
      </trkpt>
      <trkpt lat="47.81919" lon="6.84092">
        <ele>1158.2</ele>
        <time>2026-08-23T11:05:23.000Z</time>
      </trkpt>
      <trkpt lat="47.81924" lon="6.84088">
        <ele>1158.8</ele>
        <time>2026-08-23T11:05:25.000Z</time>
      </trkpt>
      <trkpt lat="47.81929" lon="6.84084">
        <ele>1159.2</ele>
        <time>2026-08-23T11:05:27.000Z</time>
      </trkpt>
      <trkpt lat="47.81934" lon="6.8408">
        <ele>1159.6</ele>
        <time>2026-08-23T11:05:29.000Z</time>
      </trkpt>
      <trkpt lat="47.81939" lon="6.84076">
        <ele>1160</ele>
        <time>2026-08-23T11:05:31.000Z</time>
      </trkpt>
      <trkpt lat="47.81944" lon="6.84072">
        <ele>1160.2</ele>
        <time>2026-08-23T11:05:33.000Z</time>
      </trkpt>
      <trkpt lat="47.81949" lon="6.84067">
        <ele>1160.4</ele>
        <time>2026-08-23T11:05:35.000Z</time>
      </trkpt>
      <trkpt lat="47.81954" lon="6.84063">
        <ele>1160.8</ele>
        <time>2026-08-23T11:05:37.000Z</time>
      </trkpt>
      <trkpt lat="47.8196" lon="6.84059">
        <ele>1161</ele>
        <time>2026-08-23T11:05:39.000Z</time>
      </trkpt>
      <trkpt lat="47.81965" lon="6.84054">
        <ele>1161.2</ele>
        <time>2026-08-23T11:05:41.000Z</time>
      </trkpt>
      <trkpt lat="47.81971" lon="6.84049">
        <ele>1161.6</ele>
        <time>2026-08-23T11:05:43.000Z</time>
      </trkpt>
      <trkpt lat="47.81977" lon="6.84045">
        <ele>1161.8</ele>
        <time>2026-08-23T11:05:45.000Z</time>
      </trkpt>
      <trkpt lat="47.81983" lon="6.8404">
        <ele>1161.8</ele>
        <time>2026-08-23T11:05:47.000Z</time>
      </trkpt>
      <trkpt lat="47.81988" lon="6.84035">
        <ele>1162</ele>
        <time>2026-08-23T11:05:49.000Z</time>
      </trkpt>
      <trkpt lat="47.81997" lon="6.84028">
        <ele>1162.2</ele>
        <time>2026-08-23T11:05:51.000Z</time>
      </trkpt>
      <trkpt lat="47.82003" lon="6.84023">
        <ele>1162.4</ele>
        <time>2026-08-23T11:05:53.000Z</time>
      </trkpt>
      <trkpt lat="47.82008" lon="6.84017">
        <ele>1162.6</ele>
        <time>2026-08-23T11:05:55.000Z</time>
      </trkpt>
      <trkpt lat="47.82013" lon="6.84012">
        <ele>1163</ele>
        <time>2026-08-23T11:05:57.000Z</time>
      </trkpt>
      <trkpt lat="47.82018" lon="6.84005">
        <ele>1163.2</ele>
        <time>2026-08-23T11:05:59.000Z</time>
      </trkpt>
      <trkpt lat="47.82023" lon="6.83999">
        <ele>1163.4</ele>
        <time>2026-08-23T11:06:01.000Z</time>
      </trkpt>
      <trkpt lat="47.82028" lon="6.83992">
        <ele>1163.4</ele>
        <time>2026-08-23T11:06:03.000Z</time>
      </trkpt>
      <trkpt lat="47.82032" lon="6.83985">
        <ele>1163.6</ele>
        <time>2026-08-23T11:06:05.000Z</time>
      </trkpt>
      <trkpt lat="47.82037" lon="6.83977">
        <ele>1163.6</ele>
        <time>2026-08-23T11:06:07.000Z</time>
      </trkpt>
      <trkpt lat="47.82042" lon="6.83968">
        <ele>1163.6</ele>
        <time>2026-08-23T11:06:09.000Z</time>
      </trkpt>
      <trkpt lat="47.82046" lon="6.83958">
        <ele>1163.6</ele>
        <time>2026-08-23T11:06:11.000Z</time>
      </trkpt>
      <trkpt lat="47.82051" lon="6.83947">
        <ele>1163.6</ele>
        <time>2026-08-23T11:06:13.000Z</time>
      </trkpt>
      <trkpt lat="47.82055" lon="6.83937">
        <ele>1163.6</ele>
        <time>2026-08-23T11:06:15.000Z</time>
      </trkpt>
      <trkpt lat="47.82059" lon="6.83927">
        <ele>1163.8</ele>
        <time>2026-08-23T11:06:17.000Z</time>
      </trkpt>
      <trkpt lat="47.82063" lon="6.83916">
        <ele>1164</ele>
        <time>2026-08-23T11:06:19.000Z</time>
      </trkpt>
      <trkpt lat="47.82067" lon="6.83904">
        <ele>1164</ele>
        <time>2026-08-23T11:06:21.000Z</time>
      </trkpt>
      <trkpt lat="47.8207" lon="6.83892">
        <ele>1164</ele>
        <time>2026-08-23T11:06:23.000Z</time>
      </trkpt>
      <trkpt lat="47.82073" lon="6.8388">
        <ele>1164.2</ele>
        <time>2026-08-23T11:06:25.000Z</time>
      </trkpt>
      <trkpt lat="47.82075" lon="6.83868">
        <ele>1164.2</ele>
        <time>2026-08-23T11:06:27.000Z</time>
      </trkpt>
      <trkpt lat="47.82078" lon="6.83856">
        <ele>1164.4</ele>
        <time>2026-08-23T11:06:29.000Z</time>
      </trkpt>
      <trkpt lat="47.8208" lon="6.83844">
        <ele>1164.6</ele>
        <time>2026-08-23T11:06:32.000Z</time>
      </trkpt>
      <trkpt lat="47.82082" lon="6.83831">
        <ele>1164.8</ele>
        <time>2026-08-23T11:06:34.000Z</time>
      </trkpt>
      <trkpt lat="47.82083" lon="6.8382">
        <ele>1165</ele>
        <time>2026-08-23T11:06:36.000Z</time>
      </trkpt>
      <trkpt lat="47.82084" lon="6.83808">
        <ele>1165.2</ele>
        <time>2026-08-23T11:06:38.000Z</time>
      </trkpt>
      <trkpt lat="47.82085" lon="6.83796">
        <ele>1165.4</ele>
        <time>2026-08-23T11:06:40.000Z</time>
      </trkpt>
      <trkpt lat="47.82086" lon="6.83784">
        <ele>1165.6</ele>
        <time>2026-08-23T11:06:42.000Z</time>
      </trkpt>
      <trkpt lat="47.82086" lon="6.83771">
        <ele>1165.8</ele>
        <time>2026-08-23T11:06:44.000Z</time>
      </trkpt>
      <trkpt lat="47.82087" lon="6.83759">
        <ele>1165.8</ele>
        <time>2026-08-23T11:06:46.000Z</time>
      </trkpt>
      <trkpt lat="47.82089" lon="6.83747">
        <ele>1165.8</ele>
        <time>2026-08-23T11:06:48.000Z</time>
      </trkpt>
      <trkpt lat="47.8209" lon="6.83734">
        <ele>1165.8</ele>
        <time>2026-08-23T11:06:50.000Z</time>
      </trkpt>
      <trkpt lat="47.82091" lon="6.83721">
        <ele>1166</ele>
        <time>2026-08-23T11:06:52.000Z</time>
      </trkpt>
      <trkpt lat="47.82092" lon="6.83708">
        <ele>1165.8</ele>
        <time>2026-08-23T11:06:54.000Z</time>
      </trkpt>
      <trkpt lat="47.82091" lon="6.83695">
        <ele>1165.6</ele>
        <time>2026-08-23T11:06:56.000Z</time>
      </trkpt>
      <trkpt lat="47.82091" lon="6.83681">
        <ele>1165.4</ele>
        <time>2026-08-23T11:06:58.000Z</time>
      </trkpt>
      <trkpt lat="47.82089" lon="6.83667">
        <ele>1165</ele>
        <time>2026-08-23T11:07:00.000Z</time>
      </trkpt>
      <trkpt lat="47.82085" lon="6.83654">
        <ele>1165</ele>
        <time>2026-08-23T11:07:02.000Z</time>
      </trkpt>
      <trkpt lat="47.82081" lon="6.8364">
        <ele>1164.8</ele>
        <time>2026-08-23T11:07:04.000Z</time>
      </trkpt>
      <trkpt lat="47.82077" lon="6.83626">
        <ele>1164.8</ele>
        <time>2026-08-23T11:07:06.000Z</time>
      </trkpt>
      <trkpt lat="47.82074" lon="6.83611">
        <ele>1164.4</ele>
        <time>2026-08-23T11:07:08.000Z</time>
      </trkpt>
      <trkpt lat="47.8207" lon="6.83596">
        <ele>1164.2</ele>
        <time>2026-08-23T11:07:10.000Z</time>
      </trkpt>
      <trkpt lat="47.82065" lon="6.83582">
        <ele>1164.2</ele>
        <time>2026-08-23T11:07:12.000Z</time>
      </trkpt>
      <trkpt lat="47.8206" lon="6.83568">
        <ele>1164</ele>
        <time>2026-08-23T11:07:14.000Z</time>
      </trkpt>
      <trkpt lat="47.82055" lon="6.83554">
        <ele>1164</ele>
        <time>2026-08-23T11:07:16.000Z</time>
      </trkpt>
      <trkpt lat="47.8205" lon="6.83538">
        <ele>1164.2</ele>
        <time>2026-08-23T11:07:18.000Z</time>
      </trkpt>
      <trkpt lat="47.82045" lon="6.83524">
        <ele>1164.4</ele>
        <time>2026-08-23T11:07:20.000Z</time>
      </trkpt>
      <trkpt lat="47.82041" lon="6.83513">
        <ele>1164.4</ele>
        <time>2026-08-23T11:07:22.000Z</time>
      </trkpt>
      <trkpt lat="47.82039" lon="6.83505">
        <ele>1164.6</ele>
        <time>2026-08-23T11:07:24.000Z</time>
      </trkpt>
      <trkpt lat="47.82039" lon="6.83497">
        <ele>1164.8</ele>
        <time>2026-08-23T11:07:26.000Z</time>
      </trkpt>
      <trkpt lat="47.82039" lon="6.8349">
        <ele>1164.8</ele>
        <time>2026-08-23T11:07:28.000Z</time>
      </trkpt>
      <trkpt lat="47.82039" lon="6.83482">
        <ele>1164.8</ele>
        <time>2026-08-23T11:07:30.000Z</time>
      </trkpt>
      <trkpt lat="47.82036" lon="6.83474">
        <ele>1164.8</ele>
        <time>2026-08-23T11:07:32.000Z</time>
      </trkpt>
      <trkpt lat="47.82029" lon="6.83467">
        <ele>1164.6</ele>
        <time>2026-08-23T11:07:34.000Z</time>
      </trkpt>
      <trkpt lat="47.82022" lon="6.8346">
        <ele>1164.2</ele>
        <time>2026-08-23T11:07:36.000Z</time>
      </trkpt>
      <trkpt lat="47.82015" lon="6.83454">
        <ele>1163.8</ele>
        <time>2026-08-23T11:07:38.000Z</time>
      </trkpt>
      <trkpt lat="47.82009" lon="6.8345">
        <ele>1163.4</ele>
        <time>2026-08-23T11:07:40.000Z</time>
      </trkpt>
      <trkpt lat="47.82005" lon="6.83446">
        <ele>1163</ele>
        <time>2026-08-23T11:07:42.000Z</time>
      </trkpt>
      <trkpt lat="47.82" lon="6.83441">
        <ele>1162.4</ele>
        <time>2026-08-23T11:07:44.000Z</time>
      </trkpt>
      <trkpt lat="47.81993" lon="6.8344">
        <ele>1162.2</ele>
        <time>2026-08-23T11:07:46.000Z</time>
      </trkpt>
      <trkpt lat="47.81988" lon="6.83447">
        <ele>1161.8</ele>
        <time>2026-08-23T11:07:48.000Z</time>
      </trkpt>
      <trkpt lat="47.81986" lon="6.83456">
        <ele>1162</ele>
        <time>2026-08-23T11:07:50.000Z</time>
      </trkpt>
      <trkpt lat="47.81985" lon="6.83463">
        <ele>1162.2</ele>
        <time>2026-08-23T11:07:52.000Z</time>
      </trkpt>
      <trkpt lat="47.81986" lon="6.83466">
        <ele>1162.4</ele>
        <time>2026-08-23T11:07:54.000Z</time>
      </trkpt>
      <trkpt lat="47.81987" lon="6.83467">
        <ele>1162.4</ele>
        <time>2026-08-23T11:07:56.000Z</time>
      </trkpt>
      <trkpt lat="47.81989" lon="6.83468">
        <ele>1162.6</ele>
        <time>2026-08-23T11:07:58.000Z</time>
      </trkpt>
      <trkpt lat="47.8199" lon="6.8347">
        <ele>1162.6</ele>
        <time>2026-08-23T11:08:00.000Z</time>
      </trkpt>
      <trkpt lat="47.81992" lon="6.83471">
        <ele>1162.6</ele>
        <time>2026-08-23T11:08:02.000Z</time>
      </trkpt>
      <trkpt lat="47.81995" lon="6.83472">
        <ele>1162.6</ele>
        <time>2026-08-23T11:08:05.000Z</time>
      </trkpt>
      <trkpt lat="47.81997" lon="6.83472">
        <ele>1162.6</ele>
        <time>2026-08-23T11:08:07.000Z</time>
      </trkpt>
      <trkpt lat="47.81999" lon="6.83473">
        <ele>1162.6</ele>
        <time>2026-08-23T11:08:09.000Z</time>
      </trkpt>
      <trkpt lat="47.82" lon="6.83474">
        <ele>1162.8</ele>
        <time>2026-08-23T11:08:11.000Z</time>
      </trkpt>
      <trkpt lat="47.82001" lon="6.83476">
        <ele>1162.8</ele>
        <time>2026-08-23T11:08:13.000Z</time>
      </trkpt>
      <trkpt lat="47.82003" lon="6.83478">
        <ele>1162.8</ele>
        <time>2026-08-23T11:08:15.000Z</time>
      </trkpt>
      <trkpt lat="47.82004" lon="6.83479">
        <ele>1163</ele>
        <time>2026-08-23T11:08:17.000Z</time>
      </trkpt>
      <trkpt lat="47.82006" lon="6.8348">
        <ele>1163</ele>
        <time>2026-08-23T11:08:19.000Z</time>
      </trkpt>
      <trkpt lat="47.82008" lon="6.8348">
        <ele>1163.2</ele>
        <time>2026-08-23T11:08:21.000Z</time>
      </trkpt>
      <trkpt lat="47.8201" lon="6.8348">
        <ele>1163.2</ele>
        <time>2026-08-23T11:08:23.000Z</time>
      </trkpt>
      <trkpt lat="47.8201" lon="6.8348">
        <ele>1163.2</ele>
        <time>2026-08-23T11:08:25.000Z</time>
      </trkpt>
      <trkpt lat="47.8201" lon="6.8348">
        <ele>1163.2</ele>
        <time>2026-08-23T11:08:27.000Z</time>
      </trkpt>
      <trkpt lat="47.8201" lon="6.8348">
        <ele>1163.2</ele>
        <time>2026-08-23T11:08:29.000Z</time>
      </trkpt>
      <trkpt lat="47.82009" lon="6.8348">
        <ele>1163.2</ele>
        <time>2026-08-23T11:08:31.000Z</time>
      </trkpt>
      <trkpt lat="47.8201" lon="6.83479">
        <ele>1163.2</ele>
        <time>2026-08-23T11:08:33.000Z</time>
      </trkpt>
      <trkpt lat="47.8201" lon="6.83478">
        <ele>1163.2</ele>
        <time>2026-08-23T11:08:35.000Z</time>
      </trkpt>
      <trkpt lat="47.82011" lon="6.83477">
        <ele>1163.2</ele>
        <time>2026-08-23T11:08:37.000Z</time>
      </trkpt>
      <trkpt lat="47.82011" lon="6.83477">
        <ele>1163.4</ele>
        <time>2026-08-23T11:08:39.000Z</time>
      </trkpt>
      <trkpt lat="47.8201" lon="6.83477">
        <ele>1163.4</ele>
        <time>2026-08-23T11:08:41.000Z</time>
      </trkpt>
      <trkpt lat="47.8201" lon="6.83477">
        <ele>1163.4</ele>
        <time>2026-08-23T11:08:43.000Z</time>
      </trkpt>
      <trkpt lat="47.8201" lon="6.83477">
        <ele>1163.4</ele>
        <time>2026-08-23T11:08:45.000Z</time>
      </trkpt>
      <trkpt lat="47.8201" lon="6.83477">
        <ele>1163.4</ele>
        <time>2026-08-23T11:08:47.000Z</time>
      </trkpt>
      <trkpt lat="47.8201" lon="6.83477">
        <ele>1163.4</ele>
        <time>2026-08-23T11:08:49.000Z</time>
      </trkpt>
      <trkpt lat="47.8201" lon="6.83478">
        <ele>1163.4</ele>
        <time>2026-08-23T11:08:51.000Z</time>
      </trkpt>
      <trkpt lat="47.8201" lon="6.83478">
        <ele>1163.4</ele>
        <time>2026-08-23T11:08:53.000Z</time>
      </trkpt>
      <trkpt lat="47.8201" lon="6.83478">
        <ele>1163.2</ele>
        <time>2026-08-23T11:08:55.000Z</time>
      </trkpt>
      <trkpt lat="47.8201" lon="6.83478">
        <ele>1163.2</ele>
        <time>2026-08-23T11:08:57.000Z</time>
      </trkpt>
      <trkpt lat="47.8201" lon="6.83478">
        <ele>1163.2</ele>
        <time>2026-08-23T11:08:59.000Z</time>
      </trkpt>
      <trkpt lat="47.8201" lon="6.83478">
        <ele>1163.2</ele>
        <time>2026-08-23T11:09:01.000Z</time>
      </trkpt>
      <trkpt lat="47.8201" lon="6.83478">
        <ele>1163.2</ele>
        <time>2026-08-23T11:09:03.000Z</time>
      </trkpt>
      <trkpt lat="47.8201" lon="6.83478">
        <ele>1163.2</ele>
        <time>2026-08-23T11:09:05.000Z</time>
      </trkpt>
      <trkpt lat="47.8201" lon="6.83478">
        <ele>1163.2</ele>
        <time>2026-08-23T11:09:07.000Z</time>
      </trkpt>
      <trkpt lat="47.8201" lon="6.83478">
        <ele>1163.2</ele>
        <time>2026-08-23T11:09:09.000Z</time>
      </trkpt>
      <trkpt lat="47.8201" lon="6.83478">
        <ele>1163.2</ele>
        <time>2026-08-23T11:09:11.000Z</time>
      </trkpt>
      <trkpt lat="47.8201" lon="6.83478">
        <ele>1163.2</ele>
        <time>2026-08-23T11:09:13.000Z</time>
      </trkpt>
      <trkpt lat="47.8201" lon="6.83478">
        <ele>1163.2</ele>
        <time>2026-08-23T11:09:15.000Z</time>
      </trkpt>
      <trkpt lat="47.8201" lon="6.83478">
        <ele>1163.2</ele>
        <time>2026-08-23T11:09:17.000Z</time>
      </trkpt>
      <trkpt lat="47.8201" lon="6.83478">
        <ele>1163.2</ele>
        <time>2026-08-23T11:09:19.000Z</time>
      </trkpt>
      <trkpt lat="47.8201" lon="6.83478">
        <ele>1163.2</ele>
        <time>2026-08-23T11:09:21.000Z</time>
      </trkpt>
      <trkpt lat="47.8201" lon="6.83478">
        <ele>1163</ele>
        <time>2026-08-23T11:09:23.000Z</time>
      </trkpt>
      <trkpt lat="47.8201" lon="6.83478">
        <ele>1163</ele>
        <time>2026-08-23T11:09:25.000Z</time>
      </trkpt>
      <trkpt lat="47.8201" lon="6.83478">
        <ele>1163</ele>
        <time>2026-08-23T11:09:27.000Z</time>
      </trkpt>
      <trkpt lat="47.8201" lon="6.83478">
        <ele>1163.2</ele>
        <time>2026-08-23T11:09:29.000Z</time>
      </trkpt>
      <trkpt lat="47.8201" lon="6.83478">
        <ele>1163.2</ele>
        <time>2026-08-23T11:09:31.000Z</time>
      </trkpt>
      <trkpt lat="47.8201" lon="6.83478">
        <ele>1163.2</ele>
        <time>2026-08-23T11:09:33.000Z</time>
      </trkpt>
      <trkpt lat="47.8201" lon="6.83478">
        <ele>1163.2</ele>
        <time>2026-08-23T11:09:36.000Z</time>
      </trkpt>
      <trkpt lat="47.8201" lon="6.83478">
        <ele>1163.2</ele>
        <time>2026-08-23T11:09:38.000Z</time>
      </trkpt>
      <trkpt lat="47.8201" lon="6.83478">
        <ele>1163.2</ele>
        <time>2026-08-23T11:09:40.000Z</time>
      </trkpt>
      <trkpt lat="47.8201" lon="6.83478">
        <ele>1163.2</ele>
        <time>2026-08-23T11:09:42.000Z</time>
      </trkpt>
      <trkpt lat="47.8201" lon="6.83478">
        <ele>1163.2</ele>
        <time>2026-08-23T11:09:44.000Z</time>
      </trkpt>
      <trkpt lat="47.8201" lon="6.83478">
        <ele>1163.2</ele>
        <time>2026-08-23T11:09:46.000Z</time>
      </trkpt>
      <trkpt lat="47.8201" lon="6.83478">
        <ele>1163.2</ele>
        <time>2026-08-23T11:09:48.000Z</time>
      </trkpt>
      <trkpt lat="47.8201" lon="6.83478">
        <ele>1163.2</ele>
        <time>2026-08-23T11:09:50.000Z</time>
      </trkpt>
      <trkpt lat="47.8201" lon="6.83478">
        <ele>1163.2</ele>
        <time>2026-08-23T11:09:52.000Z</time>
      </trkpt>
      <trkpt lat="47.8201" lon="6.83478">
        <ele>1163</ele>
        <time>2026-08-23T11:09:54.000Z</time>
      </trkpt>
      <trkpt lat="47.8201" lon="6.83478">
        <ele>1163</ele>
        <time>2026-08-23T11:09:56.000Z</time>
      </trkpt>
      <trkpt lat="47.8201" lon="6.83478">
        <ele>1163</ele>
        <time>2026-08-23T11:09:58.000Z</time>
      </trkpt>
      <trkpt lat="47.8201" lon="6.83478">
        <ele>1163</ele>
        <time>2026-08-23T11:10:00.000Z</time>
      </trkpt>
      <trkpt lat="47.8201" lon="6.83478">
        <ele>1163</ele>
        <time>2026-08-23T11:10:02.000Z</time>
      </trkpt>
      <trkpt lat="47.8201" lon="6.83478">
        <ele>1163</ele>
        <time>2026-08-23T11:10:04.000Z</time>
      </trkpt>
      <trkpt lat="47.8201" lon="6.83478">
        <ele>1163</ele>
        <time>2026-08-23T11:10:06.000Z</time>
      </trkpt>
      <trkpt lat="47.8201" lon="6.83478">
        <ele>1163.2</ele>
        <time>2026-08-23T11:10:08.000Z</time>
      </trkpt>
      <trkpt lat="47.8201" lon="6.83478">
        <ele>1163.2</ele>
        <time>2026-08-23T11:10:10.000Z</time>
      </trkpt>
      <trkpt lat="47.8201" lon="6.83478">
        <ele>1163.2</ele>
        <time>2026-08-23T11:10:12.000Z</time>
      </trkpt>
      <trkpt lat="47.8201" lon="6.83478">
        <ele>1163.2</ele>
        <time>2026-08-23T11:10:14.000Z</time>
      </trkpt>
      <trkpt lat="47.8201" lon="6.83478">
        <ele>1163.2</ele>
        <time>2026-08-23T11:10:16.000Z</time>
      </trkpt>
      <trkpt lat="47.8201" lon="6.83478">
        <ele>1163.2</ele>
        <time>2026-08-23T11:10:18.000Z</time>
      </trkpt>
      <trkpt lat="47.8201" lon="6.83478">
        <ele>1163.2</ele>
        <time>2026-08-23T11:10:20.000Z</time>
      </trkpt>
      <trkpt lat="47.8201" lon="6.83478">
        <ele>1163.2</ele>
        <time>2026-08-23T11:10:22.000Z</time>
      </trkpt>
      <trkpt lat="47.8201" lon="6.83478">
        <ele>1163.2</ele>
        <time>2026-08-23T11:10:24.000Z</time>
      </trkpt>
      <trkpt lat="47.8201" lon="6.83478">
        <ele>1163.2</ele>
        <time>2026-08-23T11:10:26.000Z</time>
      </trkpt>
      <trkpt lat="47.8201" lon="6.83478">
        <ele>1163.4</ele>
        <time>2026-08-23T11:10:28.000Z</time>
      </trkpt>
      <trkpt lat="47.8201" lon="6.83478">
        <ele>1163.4</ele>
        <time>2026-08-23T11:10:30.000Z</time>
      </trkpt>
      <trkpt lat="47.8201" lon="6.83478">
        <ele>1163.4</ele>
        <time>2026-08-23T11:10:32.000Z</time>
      </trkpt>
      <trkpt lat="47.8201" lon="6.83478">
        <ele>1163.4</ele>
        <time>2026-08-23T11:10:34.000Z</time>
      </trkpt>
      <trkpt lat="47.8201" lon="6.83478">
        <ele>1163.4</ele>
        <time>2026-08-23T11:10:36.000Z</time>
      </trkpt>
      <trkpt lat="47.8201" lon="6.83478">
        <ele>1163.4</ele>
        <time>2026-08-23T11:10:38.000Z</time>
      </trkpt>
      <trkpt lat="47.8201" lon="6.83478">
        <ele>1163.4</ele>
        <time>2026-08-23T11:10:40.000Z</time>
      </trkpt>
      <trkpt lat="47.8201" lon="6.83478">
        <ele>1163.4</ele>
        <time>2026-08-23T11:10:42.000Z</time>
      </trkpt>
      <trkpt lat="47.8201" lon="6.83478">
        <ele>1163.4</ele>
        <time>2026-08-23T11:10:44.000Z</time>
      </trkpt>
      <trkpt lat="47.8201" lon="6.83477">
        <ele>1163.4</ele>
        <time>2026-08-23T11:10:46.000Z</time>
      </trkpt>
      <trkpt lat="47.8201" lon="6.83478">
        <ele>1163.4</ele>
        <time>2026-08-23T11:10:48.000Z</time>
      </trkpt>
      <trkpt lat="47.82011" lon="6.83479">
        <ele>1163.6</ele>
        <time>2026-08-23T11:10:50.000Z</time>
      </trkpt>
      <trkpt lat="47.82014" lon="6.8348">
        <ele>1163.6</ele>
        <time>2026-08-23T11:10:52.000Z</time>
      </trkpt>
      <trkpt lat="47.82016" lon="6.83481">
        <ele>1163.8</ele>
        <time>2026-08-23T11:10:54.000Z</time>
      </trkpt>
      <trkpt lat="47.82019" lon="6.83483">
        <ele>1163.8</ele>
        <time>2026-08-23T11:10:56.000Z</time>
      </trkpt>
      <trkpt lat="47.82021" lon="6.83486">
        <ele>1164</ele>
        <time>2026-08-23T11:10:58.000Z</time>
      </trkpt>
      <trkpt lat="47.82023" lon="6.83487">
        <ele>1164.2</ele>
        <time>2026-08-23T11:11:00.000Z</time>
      </trkpt>
      <trkpt lat="47.82025" lon="6.83487">
        <ele>1164.4</ele>
        <time>2026-08-23T11:11:02.000Z</time>
      </trkpt>
      <trkpt lat="47.82027" lon="6.83487">
        <ele>1164.4</ele>
        <time>2026-08-23T11:11:04.000Z</time>
      </trkpt>
      <trkpt lat="47.82029" lon="6.83486">
        <ele>1164.6</ele>
        <time>2026-08-23T11:11:06.000Z</time>
      </trkpt>
      <trkpt lat="47.82031" lon="6.83485">
        <ele>1164.6</ele>
        <time>2026-08-23T11:11:08.000Z</time>
      </trkpt>
      <trkpt lat="47.82033" lon="6.83484">
        <ele>1164.8</ele>
        <time>2026-08-23T11:11:10.000Z</time>
      </trkpt>
      <trkpt lat="47.82035" lon="6.83483">
        <ele>1165</ele>
        <time>2026-08-23T11:11:12.000Z</time>
      </trkpt>
      <trkpt lat="47.82036" lon="6.83481">
        <ele>1165.2</ele>
        <time>2026-08-23T11:11:14.000Z</time>
      </trkpt>
      <trkpt lat="47.82037" lon="6.83481">
        <ele>1165.2</ele>
        <time>2026-08-23T11:11:16.000Z</time>
      </trkpt>
      <trkpt lat="47.82037" lon="6.83481">
        <ele>1165.4</ele>
        <time>2026-08-23T11:11:18.000Z</time>
      </trkpt>
      <trkpt lat="47.82038" lon="6.83481">
        <ele>1165.4</ele>
        <time>2026-08-23T11:11:20.000Z</time>
      </trkpt>
      <trkpt lat="47.82039" lon="6.8348">
        <ele>1165.4</ele>
        <time>2026-08-23T11:11:22.000Z</time>
      </trkpt>
      <trkpt lat="47.82043" lon="6.83478">
        <ele>1165.4</ele>
        <time>2026-08-23T11:11:24.000Z</time>
      </trkpt>
      <trkpt lat="47.82046" lon="6.83475">
        <ele>1165.6</ele>
        <time>2026-08-23T11:11:27.000Z</time>
      </trkpt>
      <trkpt lat="47.82051" lon="6.83472">
        <ele>1165.4</ele>
        <time>2026-08-23T11:11:29.000Z</time>
      </trkpt>
      <trkpt lat="47.82056" lon="6.83469">
        <ele>1165.4</ele>
        <time>2026-08-23T11:11:31.000Z</time>
      </trkpt>
      <trkpt lat="47.8206" lon="6.83467">
        <ele>1165.4</ele>
        <time>2026-08-23T11:11:33.000Z</time>
      </trkpt>
      <trkpt lat="47.82065" lon="6.83464">
        <ele>1165.4</ele>
        <time>2026-08-23T11:11:35.000Z</time>
      </trkpt>
      <trkpt lat="47.82073" lon="6.8346">
        <ele>1165.4</ele>
        <time>2026-08-23T11:11:37.000Z</time>
      </trkpt>
      <trkpt lat="47.82082" lon="6.83455">
        <ele>1165.4</ele>
        <time>2026-08-23T11:11:39.000Z</time>
      </trkpt>
      <trkpt lat="47.82092" lon="6.83449">
        <ele>1165.2</ele>
        <time>2026-08-23T11:11:41.000Z</time>
      </trkpt>
      <trkpt lat="47.82102" lon="6.83442">
        <ele>1165</ele>
        <time>2026-08-23T11:11:43.000Z</time>
      </trkpt>
      <trkpt lat="47.82114" lon="6.83435">
        <ele>1164.4</ele>
        <time>2026-08-23T11:11:45.000Z</time>
      </trkpt>
      <trkpt lat="47.82128" lon="6.8343">
        <ele>1163.6</ele>
        <time>2026-08-23T11:11:47.000Z</time>
      </trkpt>
      <trkpt lat="47.82143" lon="6.83427">
        <ele>1162.4</ele>
        <time>2026-08-23T11:11:49.000Z</time>
      </trkpt>
      <trkpt lat="47.8216" lon="6.8343">
        <ele>1161.2</ele>
        <time>2026-08-23T11:11:51.000Z</time>
      </trkpt>
      <trkpt lat="47.82179" lon="6.83438">
        <ele>1159.4</ele>
        <time>2026-08-23T11:11:53.000Z</time>
      </trkpt>
      <trkpt lat="47.82199" lon="6.83446">
        <ele>1157.6</ele>
        <time>2026-08-23T11:11:55.000Z</time>
      </trkpt>
      <trkpt lat="47.82221" lon="6.83451">
        <ele>1155.4</ele>
        <time>2026-08-23T11:11:57.000Z</time>
      </trkpt>
      <trkpt lat="47.82245" lon="6.83454">
        <ele>1153.4</ele>
        <time>2026-08-23T11:11:59.000Z</time>
      </trkpt>
      <trkpt lat="47.82269" lon="6.83458">
        <ele>1151.2</ele>
        <time>2026-08-23T11:12:01.000Z</time>
      </trkpt>
      <trkpt lat="47.82295" lon="6.83464">
        <ele>1149</ele>
        <time>2026-08-23T11:12:03.000Z</time>
      </trkpt>
      <trkpt lat="47.82321" lon="6.83471">
        <ele>1146.8</ele>
        <time>2026-08-23T11:12:05.000Z</time>
      </trkpt>
      <trkpt lat="47.82348" lon="6.83477">
        <ele>1144.4</ele>
        <time>2026-08-23T11:12:07.000Z</time>
      </trkpt>
      <trkpt lat="47.82376" lon="6.83483">
        <ele>1141.8</ele>
        <time>2026-08-23T11:12:09.000Z</time>
      </trkpt>
      <trkpt lat="47.82404" lon="6.83487">
        <ele>1139.4</ele>
        <time>2026-08-23T11:12:11.000Z</time>
      </trkpt>
      <trkpt lat="47.82433" lon="6.8349">
        <ele>1137.6</ele>
        <time>2026-08-23T11:12:13.000Z</time>
      </trkpt>
      <trkpt lat="47.82462" lon="6.83489">
        <ele>1135.4</ele>
        <time>2026-08-23T11:12:15.000Z</time>
      </trkpt>
      <trkpt lat="47.82491" lon="6.83488">
        <ele>1133</ele>
        <time>2026-08-23T11:12:17.000Z</time>
      </trkpt>
      <trkpt lat="47.82521" lon="6.83491">
        <ele>1130.8</ele>
        <time>2026-08-23T11:12:19.000Z</time>
      </trkpt>
      <trkpt lat="47.8255" lon="6.83499">
        <ele>1128.4</ele>
        <time>2026-08-23T11:12:21.000Z</time>
      </trkpt>
      <trkpt lat="47.82585" lon="6.83519">
        <ele>1125.8</ele>
        <time>2026-08-23T11:12:23.000Z</time>
      </trkpt>
      <trkpt lat="47.82619" lon="6.83543">
        <ele>1123.2</ele>
        <time>2026-08-23T11:12:25.000Z</time>
      </trkpt>
      <trkpt lat="47.82647" lon="6.83566">
        <ele>1120.8</ele>
        <time>2026-08-23T11:12:27.000Z</time>
      </trkpt>
      <trkpt lat="47.82671" lon="6.83588">
        <ele>1118.8</ele>
        <time>2026-08-23T11:12:29.000Z</time>
      </trkpt>
      <trkpt lat="47.82695" lon="6.83611">
        <ele>1116.8</ele>
        <time>2026-08-23T11:12:31.000Z</time>
      </trkpt>
      <trkpt lat="47.82719" lon="6.83635">
        <ele>1114.6</ele>
        <time>2026-08-23T11:12:33.000Z</time>
      </trkpt>
      <trkpt lat="47.82743" lon="6.8366">
        <ele>1112.2</ele>
        <time>2026-08-23T11:12:35.000Z</time>
      </trkpt>
      <trkpt lat="47.82768" lon="6.83685">
        <ele>1109.8</ele>
        <time>2026-08-23T11:12:37.000Z</time>
      </trkpt>
      <trkpt lat="47.82792" lon="6.83709">
        <ele>1107.4</ele>
        <time>2026-08-23T11:12:39.000Z</time>
      </trkpt>
      <trkpt lat="47.82818" lon="6.83728">
        <ele>1104.8</ele>
        <time>2026-08-23T11:12:41.000Z</time>
      </trkpt>
      <trkpt lat="47.82846" lon="6.83743">
        <ele>1102.2</ele>
        <time>2026-08-23T11:12:43.000Z</time>
      </trkpt>
      <trkpt lat="47.82874" lon="6.83758">
        <ele>1099.8</ele>
        <time>2026-08-23T11:12:45.000Z</time>
      </trkpt>
      <trkpt lat="47.829" lon="6.83775">
        <ele>1097.2</ele>
        <time>2026-08-23T11:12:47.000Z</time>
      </trkpt>
      <trkpt lat="47.82925" lon="6.83795">
        <ele>1095</ele>
        <time>2026-08-23T11:12:49.000Z</time>
      </trkpt>
      <trkpt lat="47.82949" lon="6.83816">
        <ele>1092.6</ele>
        <time>2026-08-23T11:12:51.000Z</time>
      </trkpt>
      <trkpt lat="47.82971" lon="6.83839">
        <ele>1090.6</ele>
        <time>2026-08-23T11:12:53.000Z</time>
      </trkpt>
      <trkpt lat="47.82993" lon="6.83864">
        <ele>1088.8</ele>
        <time>2026-08-23T11:12:55.000Z</time>
      </trkpt>
      <trkpt lat="47.83015" lon="6.8389">
        <ele>1086.6</ele>
        <time>2026-08-23T11:12:57.000Z</time>
      </trkpt>
      <trkpt lat="47.83039" lon="6.83913">
        <ele>1084.2</ele>
        <time>2026-08-23T11:13:00.000Z</time>
      </trkpt>
      <trkpt lat="47.83064" lon="6.83933">
        <ele>1082.2</ele>
        <time>2026-08-23T11:13:02.000Z</time>
      </trkpt>
      <trkpt lat="47.83092" lon="6.83947">
        <ele>1080.2</ele>
        <time>2026-08-23T11:13:04.000Z</time>
      </trkpt>
      <trkpt lat="47.83121" lon="6.83957">
        <ele>1077.8</ele>
        <time>2026-08-23T11:13:06.000Z</time>
      </trkpt>
      <trkpt lat="47.83149" lon="6.83966">
        <ele>1075.4</ele>
        <time>2026-08-23T11:13:08.000Z</time>
      </trkpt>
      <trkpt lat="47.83177" lon="6.83977">
        <ele>1073.2</ele>
        <time>2026-08-23T11:13:10.000Z</time>
      </trkpt>
      <trkpt lat="47.83204" lon="6.83993">
        <ele>1071.4</ele>
        <time>2026-08-23T11:13:12.000Z</time>
      </trkpt>
      <trkpt lat="47.8323" lon="6.84011">
        <ele>1069.2</ele>
        <time>2026-08-23T11:13:14.000Z</time>
      </trkpt>
      <trkpt lat="47.83256" lon="6.84026">
        <ele>1067.2</ele>
        <time>2026-08-23T11:13:16.000Z</time>
      </trkpt>
      <trkpt lat="47.83282" lon="6.84033">
        <ele>1065.2</ele>
        <time>2026-08-23T11:13:18.000Z</time>
      </trkpt>
      <trkpt lat="47.83306" lon="6.84031">
        <ele>1063.6</ele>
        <time>2026-08-23T11:13:20.000Z</time>
      </trkpt>
      <trkpt lat="47.83328" lon="6.84014">
        <ele>1062.4</ele>
        <time>2026-08-23T11:13:22.000Z</time>
      </trkpt>
      <trkpt lat="47.83342" lon="6.83984">
        <ele>1061</ele>
        <time>2026-08-23T11:13:24.000Z</time>
      </trkpt>
      <trkpt lat="47.83347" lon="6.83946">
        <ele>1059.6</ele>
        <time>2026-08-23T11:13:26.000Z</time>
      </trkpt>
      <trkpt lat="47.83347" lon="6.83909">
        <ele>1058.6</ele>
        <time>2026-08-23T11:13:28.000Z</time>
      </trkpt>
      <trkpt lat="47.83349" lon="6.83877">
        <ele>1057.6</ele>
        <time>2026-08-23T11:13:30.000Z</time>
      </trkpt>
      <trkpt lat="47.83359" lon="6.83858">
        <ele>1056.6</ele>
        <time>2026-08-23T11:13:32.000Z</time>
      </trkpt>
      <trkpt lat="47.83375" lon="6.8386">
        <ele>1055</ele>
        <time>2026-08-23T11:13:34.000Z</time>
      </trkpt>
      <trkpt lat="47.83391" lon="6.83881">
        <ele>1053</ele>
        <time>2026-08-23T11:13:36.000Z</time>
      </trkpt>
      <trkpt lat="47.83405" lon="6.83912">
        <ele>1050.8</ele>
        <time>2026-08-23T11:13:38.000Z</time>
      </trkpt>
      <trkpt lat="47.83417" lon="6.83944">
        <ele>1048.8</ele>
        <time>2026-08-23T11:13:40.000Z</time>
      </trkpt>
      <trkpt lat="47.83429" lon="6.83977">
        <ele>1047</ele>
        <time>2026-08-23T11:13:42.000Z</time>
      </trkpt>
      <trkpt lat="47.83443" lon="6.84024">
        <ele>1045.2</ele>
        <time>2026-08-23T11:13:44.000Z</time>
      </trkpt>
      <trkpt lat="47.83449" lon="6.84059">
        <ele>1043.6</ele>
        <time>2026-08-23T11:13:46.000Z</time>
      </trkpt>
      <trkpt lat="47.83456" lon="6.84081">
        <ele>1042.6</ele>
        <time>2026-08-23T11:13:48.000Z</time>
      </trkpt>
      <trkpt lat="47.83469" lon="6.84079">
        <ele>1041.8</ele>
        <time>2026-08-23T11:13:50.000Z</time>
      </trkpt>
      <trkpt lat="47.83476" lon="6.84055">
        <ele>1041</ele>
        <time>2026-08-23T11:13:52.000Z</time>
      </trkpt>
      <trkpt lat="47.83474" lon="6.84021">
        <ele>1039.8</ele>
        <time>2026-08-23T11:13:54.000Z</time>
      </trkpt>
      <trkpt lat="47.83471" lon="6.83986">
        <ele>1038.6</ele>
        <time>2026-08-23T11:13:56.000Z</time>
      </trkpt>
      <trkpt lat="47.83468" lon="6.83951">
        <ele>1037</ele>
        <time>2026-08-23T11:13:58.000Z</time>
      </trkpt>
      <trkpt lat="47.83465" lon="6.83915">
        <ele>1035.2</ele>
        <time>2026-08-23T11:14:00.000Z</time>
      </trkpt>
      <trkpt lat="47.83462" lon="6.8388">
        <ele>1033.2</ele>
        <time>2026-08-23T11:14:02.000Z</time>
      </trkpt>
      <trkpt lat="47.83459" lon="6.83843">
        <ele>1031.2</ele>
        <time>2026-08-23T11:14:04.000Z</time>
      </trkpt>
      <trkpt lat="47.83459" lon="6.83805">
        <ele>1029.2</ele>
        <time>2026-08-23T11:14:06.000Z</time>
      </trkpt>
      <trkpt lat="47.8346" lon="6.83766">
        <ele>1027.4</ele>
        <time>2026-08-23T11:14:08.000Z</time>
      </trkpt>
      <trkpt lat="47.8346" lon="6.83727">
        <ele>1025.6</ele>
        <time>2026-08-23T11:14:10.000Z</time>
      </trkpt>
      <trkpt lat="47.83458" lon="6.83688">
        <ele>1023.6</ele>
        <time>2026-08-23T11:14:12.000Z</time>
      </trkpt>
      <trkpt lat="47.83454" lon="6.83648">
        <ele>1021.4</ele>
        <time>2026-08-23T11:14:14.000Z</time>
      </trkpt>
      <trkpt lat="47.83451" lon="6.83607">
        <ele>1019.2</ele>
        <time>2026-08-23T11:14:16.000Z</time>
      </trkpt>
      <trkpt lat="47.83447" lon="6.83566">
        <ele>1017.2</ele>
        <time>2026-08-23T11:14:18.000Z</time>
      </trkpt>
      <trkpt lat="47.8344" lon="6.83525">
        <ele>1015</ele>
        <time>2026-08-23T11:14:20.000Z</time>
      </trkpt>
      <trkpt lat="47.83431" lon="6.83484">
        <ele>1012.6</ele>
        <time>2026-08-23T11:14:22.000Z</time>
      </trkpt>
      <trkpt lat="47.83416" lon="6.83446">
        <ele>1010</ele>
        <time>2026-08-23T11:14:24.000Z</time>
      </trkpt>
      <trkpt lat="47.83395" lon="6.83414">
        <ele>1007.4</ele>
        <time>2026-08-23T11:14:26.000Z</time>
      </trkpt>
      <trkpt lat="47.8337" lon="6.83388">
        <ele>1004.8</ele>
        <time>2026-08-23T11:14:28.000Z</time>
      </trkpt>
      <trkpt lat="47.83343" lon="6.83366">
        <ele>1002.2</ele>
        <time>2026-08-23T11:14:30.000Z</time>
      </trkpt>
      <trkpt lat="47.83314" lon="6.83348">
        <ele>999.2</ele>
        <time>2026-08-23T11:14:33.000Z</time>
      </trkpt>
      <trkpt lat="47.83285" lon="6.83331">
        <ele>996</ele>
        <time>2026-08-23T11:14:35.000Z</time>
      </trkpt>
      <trkpt lat="47.83257" lon="6.83315">
        <ele>994</ele>
        <time>2026-08-23T11:14:37.000Z</time>
      </trkpt>
      <trkpt lat="47.83228" lon="6.83303">
        <ele>992.4</ele>
        <time>2026-08-23T11:14:39.000Z</time>
      </trkpt>
      <trkpt lat="47.83202" lon="6.83295">
        <ele>990.8</ele>
        <time>2026-08-23T11:14:41.000Z</time>
      </trkpt>
      <trkpt lat="47.8318" lon="6.83294">
        <ele>989.4</ele>
        <time>2026-08-23T11:14:43.000Z</time>
      </trkpt>
      <trkpt lat="47.83162" lon="6.83299">
        <ele>988.2</ele>
        <time>2026-08-23T11:14:45.000Z</time>
      </trkpt>
      <trkpt lat="47.83148" lon="6.83296">
        <ele>986.8</ele>
        <time>2026-08-23T11:14:47.000Z</time>
      </trkpt>
      <trkpt lat="47.83147" lon="6.83279">
        <ele>985.6</ele>
        <time>2026-08-23T11:14:49.000Z</time>
      </trkpt>
      <trkpt lat="47.8316" lon="6.83262">
        <ele>984.2</ele>
        <time>2026-08-23T11:14:51.000Z</time>
      </trkpt>
      <trkpt lat="47.83182" lon="6.83254">
        <ele>982.2</ele>
        <time>2026-08-23T11:14:53.000Z</time>
      </trkpt>
      <trkpt lat="47.83208" lon="6.83248">
        <ele>979.8</ele>
        <time>2026-08-23T11:14:55.000Z</time>
      </trkpt>
      <trkpt lat="47.83233" lon="6.83239">
        <ele>977.6</ele>
        <time>2026-08-23T11:14:57.000Z</time>
      </trkpt>
      <trkpt lat="47.83258" lon="6.83224">
        <ele>975.4</ele>
        <time>2026-08-23T11:14:59.000Z</time>
      </trkpt>
      <trkpt lat="47.83283" lon="6.83212">
        <ele>973</ele>
        <time>2026-08-23T11:15:01.000Z</time>
      </trkpt>
      <trkpt lat="47.8331" lon="6.83213">
        <ele>970.8</ele>
        <time>2026-08-23T11:15:03.000Z</time>
      </trkpt>
      <trkpt lat="47.83338" lon="6.83222">
        <ele>968.4</ele>
        <time>2026-08-23T11:15:05.000Z</time>
      </trkpt>
      <trkpt lat="47.83366" lon="6.8324">
        <ele>965.8</ele>
        <time>2026-08-23T11:15:07.000Z</time>
      </trkpt>
      <trkpt lat="47.83393" lon="6.83263">
        <ele>963.2</ele>
        <time>2026-08-23T11:15:09.000Z</time>
      </trkpt>
      <trkpt lat="47.83421" lon="6.83278">
        <ele>960.8</ele>
        <time>2026-08-23T11:15:11.000Z</time>
      </trkpt>
      <trkpt lat="47.8345" lon="6.83283">
        <ele>958</ele>
        <time>2026-08-23T11:15:13.000Z</time>
      </trkpt>
      <trkpt lat="47.8348" lon="6.83287">
        <ele>954.8</ele>
        <time>2026-08-23T11:15:15.000Z</time>
      </trkpt>
      <trkpt lat="47.8351" lon="6.83294">
        <ele>951.8</ele>
        <time>2026-08-23T11:15:17.000Z</time>
      </trkpt>
      <trkpt lat="47.8354" lon="6.83306">
        <ele>949.2</ele>
        <time>2026-08-23T11:15:19.000Z</time>
      </trkpt>
      <trkpt lat="47.83576" lon="6.83319">
        <ele>947.4</ele>
        <time>2026-08-23T11:15:21.000Z</time>
      </trkpt>
      <trkpt lat="47.83611" lon="6.83341">
        <ele>945.2</ele>
        <time>2026-08-23T11:15:23.000Z</time>
      </trkpt>
      <trkpt lat="47.83632" lon="6.83374">
        <ele>943.2</ele>
        <time>2026-08-23T11:15:25.000Z</time>
      </trkpt>
      <trkpt lat="47.83642" lon="6.83411">
        <ele>941.6</ele>
        <time>2026-08-23T11:15:27.000Z</time>
      </trkpt>
      <trkpt lat="47.83646" lon="6.83445">
        <ele>940.4</ele>
        <time>2026-08-23T11:15:29.000Z</time>
      </trkpt>
      <trkpt lat="47.83653" lon="6.83467">
        <ele>939.6</ele>
        <time>2026-08-23T11:15:31.000Z</time>
      </trkpt>
      <trkpt lat="47.83663" lon="6.83464">
        <ele>938.8</ele>
        <time>2026-08-23T11:15:33.000Z</time>
      </trkpt>
      <trkpt lat="47.83668" lon="6.83437">
        <ele>937</ele>
        <time>2026-08-23T11:15:35.000Z</time>
      </trkpt>
      <trkpt lat="47.83666" lon="6.834">
        <ele>934.8</ele>
        <time>2026-08-23T11:15:37.000Z</time>
      </trkpt>
      <trkpt lat="47.83662" lon="6.8336">
        <ele>932.8</ele>
        <time>2026-08-23T11:15:39.000Z</time>
      </trkpt>
      <trkpt lat="47.83659" lon="6.8332">
        <ele>930.6</ele>
        <time>2026-08-23T11:15:41.000Z</time>
      </trkpt>
      <trkpt lat="47.83657" lon="6.83279">
        <ele>928.4</ele>
        <time>2026-08-23T11:15:43.000Z</time>
      </trkpt>
      <trkpt lat="47.83656" lon="6.8324">
        <ele>926.4</ele>
        <time>2026-08-23T11:15:45.000Z</time>
      </trkpt>
      <trkpt lat="47.8365" lon="6.83205">
        <ele>924.6</ele>
        <time>2026-08-23T11:15:47.000Z</time>
      </trkpt>
      <trkpt lat="47.83635" lon="6.83182">
        <ele>922.8</ele>
        <time>2026-08-23T11:15:49.000Z</time>
      </trkpt>
      <trkpt lat="47.83615" lon="6.83178">
        <ele>921.4</ele>
        <time>2026-08-23T11:15:51.000Z</time>
      </trkpt>
      <trkpt lat="47.83596" lon="6.83181">
        <ele>920.4</ele>
        <time>2026-08-23T11:15:54.000Z</time>
      </trkpt>
      <trkpt lat="47.83589" lon="6.83171">
        <ele>918.6</ele>
        <time>2026-08-23T11:15:56.000Z</time>
      </trkpt>
      <trkpt lat="47.83599" lon="6.83152">
        <ele>916.4</ele>
        <time>2026-08-23T11:15:58.000Z</time>
      </trkpt>
      <trkpt lat="47.83619" lon="6.83135">
        <ele>914.2</ele>
        <time>2026-08-23T11:16:00.000Z</time>
      </trkpt>
      <trkpt lat="47.83645" lon="6.83123">
        <ele>912.2</ele>
        <time>2026-08-23T11:16:02.000Z</time>
      </trkpt>
      <trkpt lat="47.83672" lon="6.83124">
        <ele>909.8</ele>
        <time>2026-08-23T11:16:04.000Z</time>
      </trkpt>
      <trkpt lat="47.83697" lon="6.8314">
        <ele>907.8</ele>
        <time>2026-08-23T11:16:06.000Z</time>
      </trkpt>
      <trkpt lat="47.83717" lon="6.83171">
        <ele>905.8</ele>
        <time>2026-08-23T11:16:08.000Z</time>
      </trkpt>
      <trkpt lat="47.8373" lon="6.83211">
        <ele>903.6</ele>
        <time>2026-08-23T11:16:10.000Z</time>
      </trkpt>
      <trkpt lat="47.83737" lon="6.83253">
        <ele>901.4</ele>
        <time>2026-08-23T11:16:12.000Z</time>
      </trkpt>
      <trkpt lat="47.83746" lon="6.83295">
        <ele>899.2</ele>
        <time>2026-08-23T11:16:14.000Z</time>
      </trkpt>
      <trkpt lat="47.8376" lon="6.8333">
        <ele>897</ele>
        <time>2026-08-23T11:16:16.000Z</time>
      </trkpt>
      <trkpt lat="47.8378" lon="6.83361">
        <ele>894.6</ele>
        <time>2026-08-23T11:16:18.000Z</time>
      </trkpt>
      <trkpt lat="47.838" lon="6.83393">
        <ele>892</ele>
        <time>2026-08-23T11:16:20.000Z</time>
      </trkpt>
      <trkpt lat="47.83814" lon="6.83428">
        <ele>889.8</ele>
        <time>2026-08-23T11:16:22.000Z</time>
      </trkpt>
      <trkpt lat="47.83824" lon="6.83463">
        <ele>888.2</ele>
        <time>2026-08-23T11:16:24.000Z</time>
      </trkpt>
      <trkpt lat="47.83831" lon="6.83492">
        <ele>886.8</ele>
        <time>2026-08-23T11:16:26.000Z</time>
      </trkpt>
      <trkpt lat="47.8384" lon="6.83511">
        <ele>885.8</ele>
        <time>2026-08-23T11:16:28.000Z</time>
      </trkpt>
      <trkpt lat="47.83853" lon="6.83508">
        <ele>884.6</ele>
        <time>2026-08-23T11:16:30.000Z</time>
      </trkpt>
      <trkpt lat="47.83859" lon="6.83483">
        <ele>883.2</ele>
        <time>2026-08-23T11:16:32.000Z</time>
      </trkpt>
      <trkpt lat="47.83855" lon="6.8345">
        <ele>881.4</ele>
        <time>2026-08-23T11:16:34.000Z</time>
      </trkpt>
      <trkpt lat="47.8385" lon="6.83414">
        <ele>879.4</ele>
        <time>2026-08-23T11:16:36.000Z</time>
      </trkpt>
      <trkpt lat="47.83848" lon="6.83376">
        <ele>877.4</ele>
        <time>2026-08-23T11:16:38.000Z</time>
      </trkpt>
      <trkpt lat="47.83847" lon="6.83339">
        <ele>875.4</ele>
        <time>2026-08-23T11:16:40.000Z</time>
      </trkpt>
      <trkpt lat="47.83841" lon="6.83285">
        <ele>873.2</ele>
        <time>2026-08-23T11:16:42.000Z</time>
      </trkpt>
      <trkpt lat="47.83834" lon="6.8324">
        <ele>871.2</ele>
        <time>2026-08-23T11:16:44.000Z</time>
      </trkpt>
      <trkpt lat="47.83828" lon="6.832">
        <ele>868.8</ele>
        <time>2026-08-23T11:16:46.000Z</time>
      </trkpt>
      <trkpt lat="47.83821" lon="6.83161">
        <ele>866.4</ele>
        <time>2026-08-23T11:16:48.000Z</time>
      </trkpt>
      <trkpt lat="47.83813" lon="6.83121">
        <ele>864.2</ele>
        <time>2026-08-23T11:16:50.000Z</time>
      </trkpt>
      <trkpt lat="47.83807" lon="6.83081">
        <ele>862</ele>
        <time>2026-08-23T11:16:52.000Z</time>
      </trkpt>
      <trkpt lat="47.838" lon="6.8304">
        <ele>859.8</ele>
        <time>2026-08-23T11:16:54.000Z</time>
      </trkpt>
      <trkpt lat="47.83793" lon="6.82999">
        <ele>857.6</ele>
        <time>2026-08-23T11:16:56.000Z</time>
      </trkpt>
      <trkpt lat="47.83784" lon="6.82959">
        <ele>855.2</ele>
        <time>2026-08-23T11:16:58.000Z</time>
      </trkpt>
      <trkpt lat="47.83772" lon="6.82918">
        <ele>852.8</ele>
        <time>2026-08-23T11:17:00.000Z</time>
      </trkpt>
      <trkpt lat="47.83758" lon="6.82877">
        <ele>850.2</ele>
        <time>2026-08-23T11:17:02.000Z</time>
      </trkpt>
      <trkpt lat="47.83744" lon="6.82837">
        <ele>847.6</ele>
        <time>2026-08-23T11:17:04.000Z</time>
      </trkpt>
      <trkpt lat="47.83731" lon="6.82797">
        <ele>845.2</ele>
        <time>2026-08-23T11:17:06.000Z</time>
      </trkpt>
      <trkpt lat="47.83716" lon="6.82758">
        <ele>843</ele>
        <time>2026-08-23T11:17:08.000Z</time>
      </trkpt>
      <trkpt lat="47.83701" lon="6.82723">
        <ele>841.4</ele>
        <time>2026-08-23T11:17:10.000Z</time>
      </trkpt>
      <trkpt lat="47.83686" lon="6.82693">
        <ele>840.2</ele>
        <time>2026-08-23T11:17:12.000Z</time>
      </trkpt>
      <trkpt lat="47.83668" lon="6.82669">
        <ele>838.6</ele>
        <time>2026-08-23T11:17:14.000Z</time>
      </trkpt>
      <trkpt lat="47.83648" lon="6.82657">
        <ele>837.4</ele>
        <time>2026-08-23T11:17:16.000Z</time>
      </trkpt>
      <trkpt lat="47.83628" lon="6.8266">
        <ele>836.4</ele>
        <time>2026-08-23T11:17:18.000Z</time>
      </trkpt>
      <trkpt lat="47.83613" lon="6.82673">
        <ele>835.6</ele>
        <time>2026-08-23T11:17:20.000Z</time>
      </trkpt>
      <trkpt lat="47.83602" lon="6.82684">
        <ele>835.2</ele>
        <time>2026-08-23T11:17:22.000Z</time>
      </trkpt>
      <trkpt lat="47.83594" lon="6.82677">
        <ele>834.2</ele>
        <time>2026-08-23T11:17:24.000Z</time>
      </trkpt>
      <trkpt lat="47.836" lon="6.8266">
        <ele>833.6</ele>
        <time>2026-08-23T11:17:26.000Z</time>
      </trkpt>
      <trkpt lat="47.83617" lon="6.82647">
        <ele>832.6</ele>
        <time>2026-08-23T11:17:28.000Z</time>
      </trkpt>
      <trkpt lat="47.8364" lon="6.82638">
        <ele>831.4</ele>
        <time>2026-08-23T11:17:30.000Z</time>
      </trkpt>
      <trkpt lat="47.83664" lon="6.82632">
        <ele>829.8</ele>
        <time>2026-08-23T11:17:33.000Z</time>
      </trkpt>
      <trkpt lat="47.83688" lon="6.82631">
        <ele>828</ele>
        <time>2026-08-23T11:17:35.000Z</time>
      </trkpt>
      <trkpt lat="47.83713" lon="6.82639">
        <ele>826</ele>
        <time>2026-08-23T11:17:37.000Z</time>
      </trkpt>
      <trkpt lat="47.83737" lon="6.82655">
        <ele>824</ele>
        <time>2026-08-23T11:17:39.000Z</time>
      </trkpt>
      <trkpt lat="47.83758" lon="6.82677">
        <ele>821.8</ele>
        <time>2026-08-23T11:17:41.000Z</time>
      </trkpt>
      <trkpt lat="47.83778" lon="6.82705">
        <ele>819.8</ele>
        <time>2026-08-23T11:17:43.000Z</time>
      </trkpt>
      <trkpt lat="47.83797" lon="6.82735">
        <ele>817.8</ele>
        <time>2026-08-23T11:17:45.000Z</time>
      </trkpt>
      <trkpt lat="47.83816" lon="6.82765">
        <ele>815.2</ele>
        <time>2026-08-23T11:17:47.000Z</time>
      </trkpt>
      <trkpt lat="47.83835" lon="6.82796">
        <ele>812.6</ele>
        <time>2026-08-23T11:17:49.000Z</time>
      </trkpt>
      <trkpt lat="47.83854" lon="6.82826">
        <ele>810.8</ele>
        <time>2026-08-23T11:17:51.000Z</time>
      </trkpt>
      <trkpt lat="47.83873" lon="6.82856">
        <ele>809</ele>
        <time>2026-08-23T11:17:53.000Z</time>
      </trkpt>
      <trkpt lat="47.83892" lon="6.82887">
        <ele>806.6</ele>
        <time>2026-08-23T11:17:55.000Z</time>
      </trkpt>
      <trkpt lat="47.83911" lon="6.82919">
        <ele>804.6</ele>
        <time>2026-08-23T11:17:57.000Z</time>
      </trkpt>
      <trkpt lat="47.83928" lon="6.82954">
        <ele>802.2</ele>
        <time>2026-08-23T11:17:59.000Z</time>
      </trkpt>
      <trkpt lat="47.83944" lon="6.8299">
        <ele>799.6</ele>
        <time>2026-08-23T11:18:01.000Z</time>
      </trkpt>
      <trkpt lat="47.83959" lon="6.83027">
        <ele>797.4</ele>
        <time>2026-08-23T11:18:03.000Z</time>
      </trkpt>
      <trkpt lat="47.83975" lon="6.83063">
        <ele>795.2</ele>
        <time>2026-08-23T11:18:05.000Z</time>
      </trkpt>
      <trkpt lat="47.83992" lon="6.83098">
        <ele>793</ele>
        <time>2026-08-23T11:18:07.000Z</time>
      </trkpt>
      <trkpt lat="47.8401" lon="6.83131">
        <ele>791</ele>
        <time>2026-08-23T11:18:09.000Z</time>
      </trkpt>
      <trkpt lat="47.8403" lon="6.83163">
        <ele>788.6</ele>
        <time>2026-08-23T11:18:11.000Z</time>
      </trkpt>
      <trkpt lat="47.84051" lon="6.83194">
        <ele>786.4</ele>
        <time>2026-08-23T11:18:13.000Z</time>
      </trkpt>
      <trkpt lat="47.84084" lon="6.8323">
        <ele>784.2</ele>
        <time>2026-08-23T11:18:15.000Z</time>
      </trkpt>
      <trkpt lat="47.84112" lon="6.83258">
        <ele>782.2</ele>
        <time>2026-08-23T11:18:17.000Z</time>
      </trkpt>
      <trkpt lat="47.84137" lon="6.83277">
        <ele>780.6</ele>
        <time>2026-08-23T11:18:19.000Z</time>
      </trkpt>
      <trkpt lat="47.84162" lon="6.8329">
        <ele>778.8</ele>
        <time>2026-08-23T11:18:21.000Z</time>
      </trkpt>
      <trkpt lat="47.84182" lon="6.83308">
        <ele>777</ele>
        <time>2026-08-23T11:18:23.000Z</time>
      </trkpt>
      <trkpt lat="47.84191" lon="6.83338">
        <ele>775.2</ele>
        <time>2026-08-23T11:18:25.000Z</time>
      </trkpt>
      <trkpt lat="47.84188" lon="6.83376">
        <ele>773.6</ele>
        <time>2026-08-23T11:18:27.000Z</time>
      </trkpt>
      <trkpt lat="47.8418" lon="6.83416">
        <ele>771.8</ele>
        <time>2026-08-23T11:18:29.000Z</time>
      </trkpt>
      <trkpt lat="47.84171" lon="6.83456">
        <ele>770</ele>
        <time>2026-08-23T11:18:31.000Z</time>
      </trkpt>
      <trkpt lat="47.84163" lon="6.83495">
        <ele>767.8</ele>
        <time>2026-08-23T11:18:33.000Z</time>
      </trkpt>
      <trkpt lat="47.84156" lon="6.83534">
        <ele>765.8</ele>
        <time>2026-08-23T11:18:35.000Z</time>
      </trkpt>
      <trkpt lat="47.84152" lon="6.8357">
        <ele>764.2</ele>
        <time>2026-08-23T11:18:37.000Z</time>
      </trkpt>
      <trkpt lat="47.84152" lon="6.836">
        <ele>763.2</ele>
        <time>2026-08-23T11:18:39.000Z</time>
      </trkpt>
      <trkpt lat="47.84161" lon="6.8362">
        <ele>762</ele>
        <time>2026-08-23T11:18:41.000Z</time>
      </trkpt>
      <trkpt lat="47.84178" lon="6.83619">
        <ele>760.6</ele>
        <time>2026-08-23T11:18:43.000Z</time>
      </trkpt>
      <trkpt lat="47.84198" lon="6.83601">
        <ele>758.6</ele>
        <time>2026-08-23T11:18:45.000Z</time>
      </trkpt>
      <trkpt lat="47.84219" lon="6.83577">
        <ele>756.4</ele>
        <time>2026-08-23T11:18:47.000Z</time>
      </trkpt>
      <trkpt lat="47.84239" lon="6.83551">
        <ele>754.2</ele>
        <time>2026-08-23T11:18:49.000Z</time>
      </trkpt>
      <trkpt lat="47.84259" lon="6.83523">
        <ele>752</ele>
        <time>2026-08-23T11:18:52.000Z</time>
      </trkpt>
      <trkpt lat="47.84278" lon="6.83496">
        <ele>749.8</ele>
        <time>2026-08-23T11:18:54.000Z</time>
      </trkpt>
      <trkpt lat="47.84297" lon="6.83469">
        <ele>747.6</ele>
        <time>2026-08-23T11:18:56.000Z</time>
      </trkpt>
      <trkpt lat="47.84318" lon="6.83446">
        <ele>745.6</ele>
        <time>2026-08-23T11:18:58.000Z</time>
      </trkpt>
      <trkpt lat="47.84341" lon="6.83429">
        <ele>743.6</ele>
        <time>2026-08-23T11:19:00.000Z</time>
      </trkpt>
      <trkpt lat="47.84368" lon="6.83418">
        <ele>741.8</ele>
        <time>2026-08-23T11:19:02.000Z</time>
      </trkpt>
      <trkpt lat="47.84395" lon="6.8341">
        <ele>739.8</ele>
        <time>2026-08-23T11:19:04.000Z</time>
      </trkpt>
      <trkpt lat="47.84422" lon="6.83398">
        <ele>737.6</ele>
        <time>2026-08-23T11:19:06.000Z</time>
      </trkpt>
      <trkpt lat="47.84447" lon="6.83378">
        <ele>735.2</ele>
        <time>2026-08-23T11:19:08.000Z</time>
      </trkpt>
      <trkpt lat="47.84471" lon="6.83353">
        <ele>732.8</ele>
        <time>2026-08-23T11:19:10.000Z</time>
      </trkpt>
      <trkpt lat="47.84494" lon="6.83328">
        <ele>730.4</ele>
        <time>2026-08-23T11:19:12.000Z</time>
      </trkpt>
      <trkpt lat="47.84519" lon="6.8331">
        <ele>728</ele>
        <time>2026-08-23T11:19:14.000Z</time>
      </trkpt>
      <trkpt lat="47.84546" lon="6.83295">
        <ele>725.8</ele>
        <time>2026-08-23T11:19:16.000Z</time>
      </trkpt>
      <trkpt lat="47.84572" lon="6.83279">
        <ele>723.6</ele>
        <time>2026-08-23T11:19:18.000Z</time>
      </trkpt>
      <trkpt lat="47.84599" lon="6.83263">
        <ele>721.4</ele>
        <time>2026-08-23T11:19:20.000Z</time>
      </trkpt>
      <trkpt lat="47.84626" lon="6.83253">
        <ele>719.2</ele>
        <time>2026-08-23T11:19:22.000Z</time>
      </trkpt>
      <trkpt lat="47.84654" lon="6.83247">
        <ele>717.2</ele>
        <time>2026-08-23T11:19:24.000Z</time>
      </trkpt>
      <trkpt lat="47.84682" lon="6.83242">
        <ele>715</ele>
        <time>2026-08-23T11:19:26.000Z</time>
      </trkpt>
      <trkpt lat="47.84718" lon="6.83236">
        <ele>712.2</ele>
        <time>2026-08-23T11:19:28.000Z</time>
      </trkpt>
      <trkpt lat="47.84745" lon="6.83231">
        <ele>710</ele>
        <time>2026-08-23T11:19:30.000Z</time>
      </trkpt>
      <trkpt lat="47.84781" lon="6.83222">
        <ele>707.6</ele>
        <time>2026-08-23T11:19:32.000Z</time>
      </trkpt>
      <trkpt lat="47.84811" lon="6.8321">
        <ele>705.2</ele>
        <time>2026-08-23T11:19:34.000Z</time>
      </trkpt>
      <trkpt lat="47.84839" lon="6.83195">
        <ele>702.6</ele>
        <time>2026-08-23T11:19:36.000Z</time>
      </trkpt>
      <trkpt lat="47.84865" lon="6.83175">
        <ele>700.6</ele>
        <time>2026-08-23T11:19:38.000Z</time>
      </trkpt>
      <trkpt lat="47.84887" lon="6.83146">
        <ele>698.6</ele>
        <time>2026-08-23T11:19:40.000Z</time>
      </trkpt>
      <trkpt lat="47.84906" lon="6.83112">
        <ele>696.2</ele>
        <time>2026-08-23T11:19:42.000Z</time>
      </trkpt>
      <trkpt lat="47.84926" lon="6.83077">
        <ele>693.6</ele>
        <time>2026-08-23T11:19:44.000Z</time>
      </trkpt>
      <trkpt lat="47.84944" lon="6.83041">
        <ele>691.6</ele>
        <time>2026-08-23T11:19:46.000Z</time>
      </trkpt>
      <trkpt lat="47.8496" lon="6.83002">
        <ele>689</ele>
        <time>2026-08-23T11:19:48.000Z</time>
      </trkpt>
      <trkpt lat="47.84975" lon="6.82963">
        <ele>686.8</ele>
        <time>2026-08-23T11:19:50.000Z</time>
      </trkpt>
      <trkpt lat="47.84989" lon="6.82925">
        <ele>685</ele>
        <time>2026-08-23T11:19:52.000Z</time>
      </trkpt>
      <trkpt lat="47.85001" lon="6.8289">
        <ele>683.2</ele>
        <time>2026-08-23T11:19:54.000Z</time>
      </trkpt>
      <trkpt lat="47.85014" lon="6.82861">
        <ele>681.4</ele>
        <time>2026-08-23T11:19:56.000Z</time>
      </trkpt>
      <trkpt lat="47.85036" lon="6.82847">
        <ele>679.2</ele>
        <time>2026-08-23T11:19:58.000Z</time>
      </trkpt>
      <trkpt lat="47.85061" lon="6.82841">
        <ele>677.4</ele>
        <time>2026-08-23T11:20:00.000Z</time>
      </trkpt>
      <trkpt lat="47.85087" lon="6.8283">
        <ele>675.4</ele>
        <time>2026-08-23T11:20:02.000Z</time>
      </trkpt>
      <trkpt lat="47.85112" lon="6.82813">
        <ele>673.4</ele>
        <time>2026-08-23T11:20:04.000Z</time>
      </trkpt>
      <trkpt lat="47.85138" lon="6.82798">
        <ele>671.4</ele>
        <time>2026-08-23T11:20:06.000Z</time>
      </trkpt>
      <trkpt lat="47.85166" lon="6.82787">
        <ele>669.2</ele>
        <time>2026-08-23T11:20:08.000Z</time>
      </trkpt>
      <trkpt lat="47.85193" lon="6.82778">
        <ele>667</ele>
        <time>2026-08-23T11:20:10.000Z</time>
      </trkpt>
      <trkpt lat="47.85218" lon="6.82774">
        <ele>665.6</ele>
        <time>2026-08-23T11:20:12.000Z</time>
      </trkpt>
      <trkpt lat="47.85238" lon="6.82784">
        <ele>664</ele>
        <time>2026-08-23T11:20:14.000Z</time>
      </trkpt>
      <trkpt lat="47.8525" lon="6.82811">
        <ele>662.2</ele>
        <time>2026-08-23T11:20:16.000Z</time>
      </trkpt>
      <trkpt lat="47.85256" lon="6.82846">
        <ele>660.4</ele>
        <time>2026-08-23T11:20:18.000Z</time>
      </trkpt>
      <trkpt lat="47.85265" lon="6.8288">
        <ele>658.8</ele>
        <time>2026-08-23T11:20:20.000Z</time>
      </trkpt>
      <trkpt lat="47.85274" lon="6.82914">
        <ele>657.2</ele>
        <time>2026-08-23T11:20:23.000Z</time>
      </trkpt>
      <trkpt lat="47.85281" lon="6.82948">
        <ele>655.6</ele>
        <time>2026-08-23T11:20:25.000Z</time>
      </trkpt>
      <trkpt lat="47.85282" lon="6.82981">
        <ele>654.2</ele>
        <time>2026-08-23T11:20:27.000Z</time>
      </trkpt>
      <trkpt lat="47.8528" lon="6.83009">
        <ele>652.8</ele>
        <time>2026-08-23T11:20:29.000Z</time>
      </trkpt>
      <trkpt lat="47.85284" lon="6.83028">
        <ele>651.6</ele>
        <time>2026-08-23T11:20:31.000Z</time>
      </trkpt>
      <trkpt lat="47.85296" lon="6.83028">
        <ele>650.2</ele>
        <time>2026-08-23T11:20:33.000Z</time>
      </trkpt>
      <trkpt lat="47.85311" lon="6.83009">
        <ele>648.4</ele>
        <time>2026-08-23T11:20:35.000Z</time>
      </trkpt>
      <trkpt lat="47.85326" lon="6.8298">
        <ele>646.6</ele>
        <time>2026-08-23T11:20:37.000Z</time>
      </trkpt>
      <trkpt lat="47.85341" lon="6.8295">
        <ele>644.6</ele>
        <time>2026-08-23T11:20:39.000Z</time>
      </trkpt>
      <trkpt lat="47.85357" lon="6.82921">
        <ele>643</ele>
        <time>2026-08-23T11:20:41.000Z</time>
      </trkpt>
      <trkpt lat="47.85374" lon="6.82895">
        <ele>641.4</ele>
        <time>2026-08-23T11:20:43.000Z</time>
      </trkpt>
      <trkpt lat="47.85394" lon="6.8287">
        <ele>639.6</ele>
        <time>2026-08-23T11:20:45.000Z</time>
      </trkpt>
      <trkpt lat="47.85414" lon="6.82846">
        <ele>637.6</ele>
        <time>2026-08-23T11:20:47.000Z</time>
      </trkpt>
      <trkpt lat="47.85435" lon="6.82821">
        <ele>635.6</ele>
        <time>2026-08-23T11:20:49.000Z</time>
      </trkpt>
      <trkpt lat="47.85455" lon="6.82796">
        <ele>633.4</ele>
        <time>2026-08-23T11:20:51.000Z</time>
      </trkpt>
      <trkpt lat="47.85473" lon="6.82767">
        <ele>631.6</ele>
        <time>2026-08-23T11:20:53.000Z</time>
      </trkpt>
      <trkpt lat="47.85488" lon="6.82732">
        <ele>629.4</ele>
        <time>2026-08-23T11:20:55.000Z</time>
      </trkpt>
      <trkpt lat="47.85501" lon="6.82697">
        <ele>627.4</ele>
        <time>2026-08-23T11:20:57.000Z</time>
      </trkpt>
      <trkpt lat="47.85511" lon="6.82659">
        <ele>625.4</ele>
        <time>2026-08-23T11:20:59.000Z</time>
      </trkpt>
      <trkpt lat="47.85514" lon="6.8262">
        <ele>623.4</ele>
        <time>2026-08-23T11:21:01.000Z</time>
      </trkpt>
      <trkpt lat="47.85512" lon="6.82582">
        <ele>621.6</ele>
        <time>2026-08-23T11:21:03.000Z</time>
      </trkpt>
      <trkpt lat="47.85508" lon="6.82549">
        <ele>620.2</ele>
        <time>2026-08-23T11:21:05.000Z</time>
      </trkpt>
      <trkpt lat="47.85499" lon="6.82512">
        <ele>619</ele>
        <time>2026-08-23T11:21:07.000Z</time>
      </trkpt>
      <trkpt lat="47.85498" lon="6.82488">
        <ele>618</ele>
        <time>2026-08-23T11:21:09.000Z</time>
      </trkpt>
      <trkpt lat="47.85509" lon="6.82482">
        <ele>616.4</ele>
        <time>2026-08-23T11:21:11.000Z</time>
      </trkpt>
      <trkpt lat="47.85523" lon="6.82498">
        <ele>615</ele>
        <time>2026-08-23T11:21:13.000Z</time>
      </trkpt>
      <trkpt lat="47.85537" lon="6.82524">
        <ele>613.6</ele>
        <time>2026-08-23T11:21:15.000Z</time>
      </trkpt>
      <trkpt lat="47.85548" lon="6.82553">
        <ele>612.4</ele>
        <time>2026-08-23T11:21:17.000Z</time>
      </trkpt>
      <trkpt lat="47.85559" lon="6.82578">
        <ele>611.2</ele>
        <time>2026-08-23T11:21:19.000Z</time>
      </trkpt>
      <trkpt lat="47.85571" lon="6.8259">
        <ele>610.2</ele>
        <time>2026-08-23T11:21:21.000Z</time>
      </trkpt>
      <trkpt lat="47.8558" lon="6.82576">
        <ele>609.2</ele>
        <time>2026-08-23T11:21:23.000Z</time>
      </trkpt>
      <trkpt lat="47.85578" lon="6.82548">
        <ele>608</ele>
        <time>2026-08-23T11:21:25.000Z</time>
      </trkpt>
      <trkpt lat="47.8557" lon="6.82516">
        <ele>606.6</ele>
        <time>2026-08-23T11:21:27.000Z</time>
      </trkpt>
      <trkpt lat="47.85559" lon="6.82486">
        <ele>605</ele>
        <time>2026-08-23T11:21:29.000Z</time>
      </trkpt>
      <trkpt lat="47.85545" lon="6.8246">
        <ele>603.4</ele>
        <time>2026-08-23T11:21:31.000Z</time>
      </trkpt>
      <trkpt lat="47.85531" lon="6.82441">
        <ele>602.2</ele>
        <time>2026-08-23T11:21:33.000Z</time>
      </trkpt>
      <trkpt lat="47.85521" lon="6.82424">
        <ele>601</ele>
        <time>2026-08-23T11:21:35.000Z</time>
      </trkpt>
      <trkpt lat="47.85527" lon="6.8241">
        <ele>599.4</ele>
        <time>2026-08-23T11:21:37.000Z</time>
      </trkpt>
      <trkpt lat="47.85545" lon="6.82409">
        <ele>597.8</ele>
        <time>2026-08-23T11:21:39.000Z</time>
      </trkpt>
      <trkpt lat="47.85568" lon="6.82419">
        <ele>596</ele>
        <time>2026-08-23T11:21:42.000Z</time>
      </trkpt>
      <trkpt lat="47.8559" lon="6.82432">
        <ele>594.4</ele>
        <time>2026-08-23T11:21:44.000Z</time>
      </trkpt>
      <trkpt lat="47.85611" lon="6.82446">
        <ele>592.8</ele>
        <time>2026-08-23T11:21:46.000Z</time>
      </trkpt>
      <trkpt lat="47.85631" lon="6.8246">
        <ele>591.2</ele>
        <time>2026-08-23T11:21:48.000Z</time>
      </trkpt>
      <trkpt lat="47.85648" lon="6.82478">
        <ele>589.8</ele>
        <time>2026-08-23T11:21:50.000Z</time>
      </trkpt>
      <trkpt lat="47.8566" lon="6.82499">
        <ele>588.4</ele>
        <time>2026-08-23T11:21:52.000Z</time>
      </trkpt>
      <trkpt lat="47.85668" lon="6.8252">
        <ele>587.4</ele>
        <time>2026-08-23T11:21:54.000Z</time>
      </trkpt>
      <trkpt lat="47.85678" lon="6.82531">
        <ele>586.2</ele>
        <time>2026-08-23T11:21:56.000Z</time>
      </trkpt>
      <trkpt lat="47.85689" lon="6.82521">
        <ele>585</ele>
        <time>2026-08-23T11:21:58.000Z</time>
      </trkpt>
      <trkpt lat="47.85692" lon="6.82494">
        <ele>583.4</ele>
        <time>2026-08-23T11:22:00.000Z</time>
      </trkpt>
      <trkpt lat="47.85687" lon="6.8246">
        <ele>581.4</ele>
        <time>2026-08-23T11:22:02.000Z</time>
      </trkpt>
      <trkpt lat="47.8568" lon="6.82426">
        <ele>580.2</ele>
        <time>2026-08-23T11:22:04.000Z</time>
      </trkpt>
      <trkpt lat="47.85669" lon="6.82395">
        <ele>578.6</ele>
        <time>2026-08-23T11:22:06.000Z</time>
      </trkpt>
      <trkpt lat="47.85652" lon="6.8237">
        <ele>576.8</ele>
        <time>2026-08-23T11:22:08.000Z</time>
      </trkpt>
      <trkpt lat="47.85631" lon="6.8235">
        <ele>575.2</ele>
        <time>2026-08-23T11:22:10.000Z</time>
      </trkpt>
      <trkpt lat="47.8561" lon="6.82331">
        <ele>573.4</ele>
        <time>2026-08-23T11:22:12.000Z</time>
      </trkpt>
      <trkpt lat="47.85588" lon="6.82312">
        <ele>571.6</ele>
        <time>2026-08-23T11:22:14.000Z</time>
      </trkpt>
      <trkpt lat="47.85567" lon="6.82293">
        <ele>570</ele>
        <time>2026-08-23T11:22:16.000Z</time>
      </trkpt>
      <trkpt lat="47.85549" lon="6.82276">
        <ele>568.4</ele>
        <time>2026-08-23T11:22:18.000Z</time>
      </trkpt>
      <trkpt lat="47.85534" lon="6.82254">
        <ele>566.6</ele>
        <time>2026-08-23T11:22:20.000Z</time>
      </trkpt>
      <trkpt lat="47.8553" lon="6.82223">
        <ele>564.6</ele>
        <time>2026-08-23T11:22:22.000Z</time>
      </trkpt>
      <trkpt lat="47.85535" lon="6.82188">
        <ele>563</ele>
        <time>2026-08-23T11:22:24.000Z</time>
      </trkpt>
      <trkpt lat="47.85535" lon="6.82153">
        <ele>561.4</ele>
        <time>2026-08-23T11:22:26.000Z</time>
      </trkpt>
      <trkpt lat="47.85531" lon="6.82112">
        <ele>560.2</ele>
        <time>2026-08-23T11:22:28.000Z</time>
      </trkpt>
      <trkpt lat="47.85528" lon="6.82078">
        <ele>559.6</ele>
        <time>2026-08-23T11:22:30.000Z</time>
      </trkpt>
      <trkpt lat="47.85527" lon="6.82056">
        <ele>559.2</ele>
        <time>2026-08-23T11:22:32.000Z</time>
      </trkpt>
      <trkpt lat="47.85528" lon="6.8204">
        <ele>558.8</ele>
        <time>2026-08-23T11:22:34.000Z</time>
      </trkpt>
      <trkpt lat="47.85529" lon="6.82025">
        <ele>558.4</ele>
        <time>2026-08-23T11:22:36.000Z</time>
      </trkpt>
      <trkpt lat="47.85529" lon="6.8201">
        <ele>558</ele>
        <time>2026-08-23T11:22:38.000Z</time>
      </trkpt>
      <trkpt lat="47.85529" lon="6.81998">
        <ele>557.8</ele>
        <time>2026-08-23T11:22:40.000Z</time>
      </trkpt>
      <trkpt lat="47.85531" lon="6.81987">
        <ele>557.4</ele>
        <time>2026-08-23T11:22:42.000Z</time>
      </trkpt>
      <trkpt lat="47.85535" lon="6.81979">
        <ele>557.2</ele>
        <time>2026-08-23T11:22:44.000Z</time>
      </trkpt>
      <trkpt lat="47.85539" lon="6.81973">
        <ele>557</ele>
        <time>2026-08-23T11:22:46.000Z</time>
      </trkpt>
      <trkpt lat="47.85541" lon="6.81971">
        <ele>557</ele>
        <time>2026-08-23T11:22:48.000Z</time>
      </trkpt>
      <trkpt lat="47.85542" lon="6.81971">
        <ele>556.8</ele>
        <time>2026-08-23T11:22:50.000Z</time>
      </trkpt>
      <trkpt lat="47.85542" lon="6.81971">
        <ele>556.8</ele>
        <time>2026-08-23T11:22:52.000Z</time>
      </trkpt>
      <trkpt lat="47.85542" lon="6.8197">
        <ele>556.8</ele>
        <time>2026-08-23T11:22:54.000Z</time>
      </trkpt>
      <trkpt lat="47.85544" lon="6.81967">
        <ele>556.6</ele>
        <time>2026-08-23T11:22:56.000Z</time>
      </trkpt>
      <trkpt lat="47.85546" lon="6.81961">
        <ele>556.6</ele>
        <time>2026-08-23T11:22:58.000Z</time>
      </trkpt>
      <trkpt lat="47.85546" lon="6.81954">
        <ele>556.6</ele>
        <time>2026-08-23T11:23:00.000Z</time>
      </trkpt>
      <trkpt lat="47.85542" lon="6.81947">
        <ele>556.4</ele>
        <time>2026-08-23T11:23:02.000Z</time>
      </trkpt>
      <trkpt lat="47.85537" lon="6.8194">
        <ele>556.2</ele>
        <time>2026-08-23T11:23:04.000Z</time>
      </trkpt>
      <trkpt lat="47.85535" lon="6.81928">
        <ele>556</ele>
        <time>2026-08-23T11:23:06.000Z</time>
      </trkpt>
      <trkpt lat="47.85538" lon="6.81913">
        <ele>555.6</ele>
        <time>2026-08-23T11:23:08.000Z</time>
      </trkpt>
      <trkpt lat="47.85543" lon="6.81901">
        <ele>555.2</ele>
        <time>2026-08-23T11:23:10.000Z</time>
      </trkpt>
      <trkpt lat="47.85546" lon="6.81892">
        <ele>555</ele>
        <time>2026-08-23T11:23:12.000Z</time>
      </trkpt>
      <trkpt lat="47.85549" lon="6.81884">
        <ele>554.8</ele>
        <time>2026-08-23T11:23:14.000Z</time>
      </trkpt>
      <trkpt lat="47.8555" lon="6.81878">
        <ele>554.6</ele>
        <time>2026-08-23T11:23:16.000Z</time>
      </trkpt>
      <trkpt lat="47.85548" lon="6.81872">
        <ele>554.4</ele>
        <time>2026-08-23T11:23:18.000Z</time>
      </trkpt>
      <trkpt lat="47.85543" lon="6.81867">
        <ele>554.2</ele>
        <time>2026-08-23T11:23:20.000Z</time>
      </trkpt>
      <trkpt lat="47.85536" lon="6.81862">
        <ele>554</ele>
        <time>2026-08-23T11:23:22.000Z</time>
      </trkpt>
      <trkpt lat="47.8553" lon="6.81858">
        <ele>554</ele>
        <time>2026-08-23T11:23:24.000Z</time>
      </trkpt>
      <trkpt lat="47.85524" lon="6.81854">
        <ele>554</ele>
        <time>2026-08-23T11:23:26.000Z</time>
      </trkpt>
      <trkpt lat="47.85518" lon="6.81849">
        <ele>554</ele>
        <time>2026-08-23T11:23:29.000Z</time>
      </trkpt>
      <trkpt lat="47.85511" lon="6.81841">
        <ele>553.8</ele>
        <time>2026-08-23T11:23:31.000Z</time>
      </trkpt>
      <trkpt lat="47.85504" lon="6.81831">
        <ele>553.8</ele>
        <time>2026-08-23T11:23:33.000Z</time>
      </trkpt>
      <trkpt lat="47.85495" lon="6.81821">
        <ele>553.6</ele>
        <time>2026-08-23T11:23:35.000Z</time>
      </trkpt>
      <trkpt lat="47.85487" lon="6.81809">
        <ele>553.4</ele>
        <time>2026-08-23T11:23:37.000Z</time>
      </trkpt>
      <trkpt lat="47.85478" lon="6.81796">
        <ele>553.4</ele>
        <time>2026-08-23T11:23:39.000Z</time>
      </trkpt>
      <trkpt lat="47.85469" lon="6.81783">
        <ele>553.6</ele>
        <time>2026-08-23T11:23:41.000Z</time>
      </trkpt>
      <trkpt lat="47.8546" lon="6.8177">
        <ele>553.6</ele>
        <time>2026-08-23T11:23:43.000Z</time>
      </trkpt>
      <trkpt lat="47.85452" lon="6.81756">
        <ele>553.6</ele>
        <time>2026-08-23T11:23:45.000Z</time>
      </trkpt>
      <trkpt lat="47.85445" lon="6.81741">
        <ele>553.4</ele>
        <time>2026-08-23T11:23:47.000Z</time>
      </trkpt>
      <trkpt lat="47.85438" lon="6.81725">
        <ele>553.6</ele>
        <time>2026-08-23T11:23:49.000Z</time>
      </trkpt>
      <trkpt lat="47.85432" lon="6.81709">
        <ele>553.6</ele>
        <time>2026-08-23T11:23:51.000Z</time>
      </trkpt>
      <trkpt lat="47.85427" lon="6.81692">
        <ele>553.4</ele>
        <time>2026-08-23T11:23:53.000Z</time>
      </trkpt>
      <trkpt lat="47.85422" lon="6.81674">
        <ele>552.8</ele>
        <time>2026-08-23T11:23:55.000Z</time>
      </trkpt>
      <trkpt lat="47.85417" lon="6.81654">
        <ele>552</ele>
        <time>2026-08-23T11:23:57.000Z</time>
      </trkpt>
      <trkpt lat="47.85414" lon="6.81631">
        <ele>551.4</ele>
        <time>2026-08-23T11:23:59.000Z</time>
      </trkpt>
      <trkpt lat="47.85411" lon="6.81608">
        <ele>550.4</ele>
        <time>2026-08-23T11:24:01.000Z</time>
      </trkpt>
      <trkpt lat="47.85409" lon="6.81586">
        <ele>549.6</ele>
        <time>2026-08-23T11:24:03.000Z</time>
      </trkpt>
      <trkpt lat="47.85405" lon="6.81568">
        <ele>549.4</ele>
        <time>2026-08-23T11:24:05.000Z</time>
      </trkpt>
      <trkpt lat="47.85399" lon="6.81555">
        <ele>549.2</ele>
        <time>2026-08-23T11:24:07.000Z</time>
      </trkpt>
      <trkpt lat="47.85393" lon="6.81542">
        <ele>549.2</ele>
        <time>2026-08-23T11:24:09.000Z</time>
      </trkpt>
      <trkpt lat="47.8539" lon="6.81528">
        <ele>549.4</ele>
        <time>2026-08-23T11:24:11.000Z</time>
      </trkpt>
      <trkpt lat="47.85387" lon="6.81511">
        <ele>549.4</ele>
        <time>2026-08-23T11:24:13.000Z</time>
      </trkpt>
      <trkpt lat="47.85384" lon="6.81493">
        <ele>549.8</ele>
        <time>2026-08-23T11:24:15.000Z</time>
      </trkpt>
      <trkpt lat="47.85381" lon="6.81475">
        <ele>550.4</ele>
        <time>2026-08-23T11:24:17.000Z</time>
      </trkpt>
      <trkpt lat="47.85379" lon="6.81456">
        <ele>550.6</ele>
        <time>2026-08-23T11:24:19.000Z</time>
      </trkpt>
      <trkpt lat="47.85377" lon="6.81437">
        <ele>550.6</ele>
        <time>2026-08-23T11:24:21.000Z</time>
      </trkpt>
      <trkpt lat="47.85375" lon="6.81417">
        <ele>550.2</ele>
        <time>2026-08-23T11:24:23.000Z</time>
      </trkpt>
      <trkpt lat="47.85373" lon="6.81398">
        <ele>549.8</ele>
        <time>2026-08-23T11:24:25.000Z</time>
      </trkpt>
      <trkpt lat="47.85369" lon="6.81369">
        <ele>549.6</ele>
        <time>2026-08-23T11:24:27.000Z</time>
      </trkpt>
      <trkpt lat="47.85366" lon="6.81347">
        <ele>549.6</ele>
        <time>2026-08-23T11:24:29.000Z</time>
      </trkpt>
      <trkpt lat="47.85364" lon="6.81327">
        <ele>549.4</ele>
        <time>2026-08-23T11:24:31.000Z</time>
      </trkpt>
      <trkpt lat="47.85362" lon="6.8131">
        <ele>549.2</ele>
        <time>2026-08-23T11:24:33.000Z</time>
      </trkpt>
      <trkpt lat="47.8536" lon="6.81296">
        <ele>549.2</ele>
        <time>2026-08-23T11:24:35.000Z</time>
      </trkpt>
      <trkpt lat="47.85359" lon="6.81284">
        <ele>549.2</ele>
        <time>2026-08-23T11:24:37.000Z</time>
      </trkpt>
      <trkpt lat="47.85359" lon="6.81275">
        <ele>549.2</ele>
        <time>2026-08-23T11:24:39.000Z</time>
      </trkpt>
      <trkpt lat="47.85358" lon="6.81267">
        <ele>549.2</ele>
        <time>2026-08-23T11:24:41.000Z</time>
      </trkpt>
      <trkpt lat="47.85355" lon="6.81255">
        <ele>549</ele>
        <time>2026-08-23T11:24:43.000Z</time>
      </trkpt>
      <trkpt lat="47.85354" lon="6.81239">
        <ele>548.6</ele>
        <time>2026-08-23T11:24:45.000Z</time>
      </trkpt>
      <trkpt lat="47.85353" lon="6.81221">
        <ele>548.4</ele>
        <time>2026-08-23T11:24:47.000Z</time>
      </trkpt>
      <trkpt lat="47.85352" lon="6.81203">
        <ele>548.2</ele>
        <time>2026-08-23T11:24:49.000Z</time>
      </trkpt>
      <trkpt lat="47.85352" lon="6.81184">
        <ele>548</ele>
        <time>2026-08-23T11:24:51.000Z</time>
      </trkpt>
      <trkpt lat="47.85352" lon="6.81165">
        <ele>547.8</ele>
        <time>2026-08-23T11:24:53.000Z</time>
      </trkpt>
      <trkpt lat="47.85352" lon="6.81146">
        <ele>547.6</ele>
        <time>2026-08-23T11:24:56.000Z</time>
      </trkpt>
      <trkpt lat="47.85353" lon="6.81127">
        <ele>547.4</ele>
        <time>2026-08-23T11:24:58.000Z</time>
      </trkpt>
      <trkpt lat="47.85354" lon="6.81108">
        <ele>547.2</ele>
        <time>2026-08-23T11:25:00.000Z</time>
      </trkpt>
      <trkpt lat="47.85356" lon="6.81088">
        <ele>547.2</ele>
        <time>2026-08-23T11:25:02.000Z</time>
      </trkpt>
      <trkpt lat="47.85359" lon="6.81069">
        <ele>547</ele>
        <time>2026-08-23T11:25:04.000Z</time>
      </trkpt>
      <trkpt lat="47.85361" lon="6.8105">
        <ele>547</ele>
        <time>2026-08-23T11:25:06.000Z</time>
      </trkpt>
      <trkpt lat="47.85365" lon="6.81031">
        <ele>546.8</ele>
        <time>2026-08-23T11:25:08.000Z</time>
      </trkpt>
      <trkpt lat="47.85369" lon="6.81012">
        <ele>546.6</ele>
        <time>2026-08-23T11:25:10.000Z</time>
      </trkpt>
      <trkpt lat="47.85373" lon="6.80993">
        <ele>546.4</ele>
        <time>2026-08-23T11:25:12.000Z</time>
      </trkpt>
      <trkpt lat="47.85378" lon="6.80974">
        <ele>546.4</ele>
        <time>2026-08-23T11:25:14.000Z</time>
      </trkpt>
      <trkpt lat="47.85382" lon="6.80957">
        <ele>546.2</ele>
        <time>2026-08-23T11:25:16.000Z</time>
      </trkpt>
      <trkpt lat="47.85387" lon="6.8094">
        <ele>546</ele>
        <time>2026-08-23T11:25:18.000Z</time>
      </trkpt>
      <trkpt lat="47.85393" lon="6.80923">
        <ele>545.8</ele>
        <time>2026-08-23T11:25:20.000Z</time>
      </trkpt>
      <trkpt lat="47.85399" lon="6.80908">
        <ele>545.6</ele>
        <time>2026-08-23T11:25:22.000Z</time>
      </trkpt>
      <trkpt lat="47.85405" lon="6.80893">
        <ele>545.4</ele>
        <time>2026-08-23T11:25:24.000Z</time>
      </trkpt>
      <trkpt lat="47.85412" lon="6.80877">
        <ele>545.2</ele>
        <time>2026-08-23T11:25:26.000Z</time>
      </trkpt>
      <trkpt lat="47.85419" lon="6.80862">
        <ele>545</ele>
        <time>2026-08-23T11:25:28.000Z</time>
      </trkpt>
      <trkpt lat="47.85427" lon="6.80847">
        <ele>544.8</ele>
        <time>2026-08-23T11:25:30.000Z</time>
      </trkpt>
      <trkpt lat="47.85434" lon="6.80833">
        <ele>544.6</ele>
        <time>2026-08-23T11:25:32.000Z</time>
      </trkpt>
      <trkpt lat="47.85442" lon="6.80818">
        <ele>544.4</ele>
        <time>2026-08-23T11:25:34.000Z</time>
      </trkpt>
      <trkpt lat="47.85451" lon="6.80804">
        <ele>544.2</ele>
        <time>2026-08-23T11:25:36.000Z</time>
      </trkpt>
      <trkpt lat="47.8546" lon="6.8079">
        <ele>544</ele>
        <time>2026-08-23T11:25:38.000Z</time>
      </trkpt>
      <trkpt lat="47.8547" lon="6.80777">
        <ele>543.8</ele>
        <time>2026-08-23T11:25:40.000Z</time>
      </trkpt>
      <trkpt lat="47.85479" lon="6.80764">
        <ele>543.8</ele>
        <time>2026-08-23T11:25:42.000Z</time>
      </trkpt>
      <trkpt lat="47.85489" lon="6.80752">
        <ele>543.8</ele>
        <time>2026-08-23T11:25:44.000Z</time>
      </trkpt>
      <trkpt lat="47.85498" lon="6.80741">
        <ele>543.8</ele>
        <time>2026-08-23T11:25:46.000Z</time>
      </trkpt>
      <trkpt lat="47.85505" lon="6.80735">
        <ele>543.8</ele>
        <time>2026-08-23T11:25:48.000Z</time>
      </trkpt>
      <trkpt lat="47.85509" lon="6.80732">
        <ele>543.8</ele>
        <time>2026-08-23T11:25:50.000Z</time>
      </trkpt>
      <trkpt lat="47.85511" lon="6.8073">
        <ele>543.8</ele>
        <time>2026-08-23T11:25:52.000Z</time>
      </trkpt>
      <trkpt lat="47.85513" lon="6.80729">
        <ele>543.8</ele>
        <time>2026-08-23T11:25:54.000Z</time>
      </trkpt>
      <trkpt lat="47.85514" lon="6.80728">
        <ele>543.8</ele>
        <time>2026-08-23T11:25:56.000Z</time>
      </trkpt>
      <trkpt lat="47.85516" lon="6.80725">
        <ele>543.8</ele>
        <time>2026-08-23T11:25:58.000Z</time>
      </trkpt>
      <trkpt lat="47.85521" lon="6.8072">
        <ele>543.8</ele>
        <time>2026-08-23T11:26:00.000Z</time>
      </trkpt>
      <trkpt lat="47.85528" lon="6.80713">
        <ele>543.6</ele>
        <time>2026-08-23T11:26:02.000Z</time>
      </trkpt>
      <trkpt lat="47.85536" lon="6.80707">
        <ele>543.4</ele>
        <time>2026-08-23T11:26:04.000Z</time>
      </trkpt>
      <trkpt lat="47.85546" lon="6.80701">
        <ele>543.2</ele>
        <time>2026-08-23T11:26:06.000Z</time>
      </trkpt>
      <trkpt lat="47.85556" lon="6.80693">
        <ele>543</ele>
        <time>2026-08-23T11:26:08.000Z</time>
      </trkpt>
      <trkpt lat="47.85567" lon="6.80686">
        <ele>542.8</ele>
        <time>2026-08-23T11:26:10.000Z</time>
      </trkpt>
      <trkpt lat="47.85579" lon="6.80678">
        <ele>542.6</ele>
        <time>2026-08-23T11:26:12.000Z</time>
      </trkpt>
      <trkpt lat="47.8559" lon="6.80671">
        <ele>542.4</ele>
        <time>2026-08-23T11:26:14.000Z</time>
      </trkpt>
      <trkpt lat="47.85603" lon="6.80665">
        <ele>542</ele>
        <time>2026-08-23T11:26:16.000Z</time>
      </trkpt>
      <trkpt lat="47.85615" lon="6.80659">
        <ele>541.8</ele>
        <time>2026-08-23T11:26:18.000Z</time>
      </trkpt>
      <trkpt lat="47.85628" lon="6.80653">
        <ele>541.6</ele>
        <time>2026-08-23T11:26:20.000Z</time>
      </trkpt>
      <trkpt lat="47.8564" lon="6.80648">
        <ele>541.4</ele>
        <time>2026-08-23T11:26:22.000Z</time>
      </trkpt>
      <trkpt lat="47.85653" lon="6.80642">
        <ele>541.2</ele>
        <time>2026-08-23T11:26:24.000Z</time>
      </trkpt>
      <trkpt lat="47.85666" lon="6.80636">
        <ele>541</ele>
        <time>2026-08-23T11:26:26.000Z</time>
      </trkpt>
      <trkpt lat="47.85679" lon="6.8063">
        <ele>541</ele>
        <time>2026-08-23T11:26:28.000Z</time>
      </trkpt>
      <trkpt lat="47.85692" lon="6.80624">
        <ele>540.8</ele>
        <time>2026-08-23T11:26:30.000Z</time>
      </trkpt>
      <trkpt lat="47.85706" lon="6.80618">
        <ele>540.8</ele>
        <time>2026-08-23T11:26:32.000Z</time>
      </trkpt>
      <trkpt lat="47.85719" lon="6.80611">
        <ele>540.6</ele>
        <time>2026-08-23T11:26:34.000Z</time>
      </trkpt>
      <trkpt lat="47.85733" lon="6.80604">
        <ele>540.2</ele>
        <time>2026-08-23T11:26:36.000Z</time>
      </trkpt>
      <trkpt lat="47.85747" lon="6.80598">
        <ele>540</ele>
        <time>2026-08-23T11:26:38.000Z</time>
      </trkpt>
      <trkpt lat="47.85761" lon="6.80591">
        <ele>540</ele>
        <time>2026-08-23T11:26:40.000Z</time>
      </trkpt>
      <trkpt lat="47.85775" lon="6.80584">
        <ele>539.8</ele>
        <time>2026-08-23T11:26:42.000Z</time>
      </trkpt>
      <trkpt lat="47.8579" lon="6.80577">
        <ele>539.6</ele>
        <time>2026-08-23T11:26:44.000Z</time>
      </trkpt>
      <trkpt lat="47.85803" lon="6.80571">
        <ele>539.6</ele>
        <time>2026-08-23T11:26:46.000Z</time>
      </trkpt>
      <trkpt lat="47.85817" lon="6.80564">
        <ele>539.4</ele>
        <time>2026-08-23T11:26:48.000Z</time>
      </trkpt>
      <trkpt lat="47.85828" lon="6.80558">
        <ele>539.4</ele>
        <time>2026-08-23T11:26:50.000Z</time>
      </trkpt>
      <trkpt lat="47.85842" lon="6.80552">
        <ele>539.4</ele>
        <time>2026-08-23T11:26:52.000Z</time>
      </trkpt>
      <trkpt lat="47.85856" lon="6.80546">
        <ele>539.2</ele>
        <time>2026-08-23T11:26:55.000Z</time>
      </trkpt>
      <trkpt lat="47.85869" lon="6.80541">
        <ele>539.2</ele>
        <time>2026-08-23T11:26:57.000Z</time>
      </trkpt>
      <trkpt lat="47.85878" lon="6.80536">
        <ele>539.2</ele>
        <time>2026-08-23T11:26:59.000Z</time>
      </trkpt>
      <trkpt lat="47.85883" lon="6.80534">
        <ele>539.2</ele>
        <time>2026-08-23T11:27:01.000Z</time>
      </trkpt>
      <trkpt lat="47.85886" lon="6.80533">
        <ele>539.2</ele>
        <time>2026-08-23T11:27:03.000Z</time>
      </trkpt>
      <trkpt lat="47.85889" lon="6.80531">
        <ele>539.2</ele>
        <time>2026-08-23T11:27:05.000Z</time>
      </trkpt>
      <trkpt lat="47.85893" lon="6.80529">
        <ele>539.2</ele>
        <time>2026-08-23T11:27:07.000Z</time>
      </trkpt>
      <trkpt lat="47.859" lon="6.80525">
        <ele>539.2</ele>
        <time>2026-08-23T11:27:09.000Z</time>
      </trkpt>
      <trkpt lat="47.85909" lon="6.80521">
        <ele>539</ele>
        <time>2026-08-23T11:27:11.000Z</time>
      </trkpt>
      <trkpt lat="47.8592" lon="6.80516">
        <ele>538.6</ele>
        <time>2026-08-23T11:27:13.000Z</time>
      </trkpt>
      <trkpt lat="47.85933" lon="6.80511">
        <ele>538.4</ele>
        <time>2026-08-23T11:27:15.000Z</time>
      </trkpt>
      <trkpt lat="47.85946" lon="6.80505">
        <ele>538.2</ele>
        <time>2026-08-23T11:27:17.000Z</time>
      </trkpt>
      <trkpt lat="47.8596" lon="6.80499">
        <ele>537.8</ele>
        <time>2026-08-23T11:27:19.000Z</time>
      </trkpt>
      <trkpt lat="47.85973" lon="6.80493">
        <ele>537.6</ele>
        <time>2026-08-23T11:27:21.000Z</time>
      </trkpt>
      <trkpt lat="47.85987" lon="6.80487">
        <ele>537.4</ele>
        <time>2026-08-23T11:27:23.000Z</time>
      </trkpt>
      <trkpt lat="47.86001" lon="6.80483">
        <ele>537.2</ele>
        <time>2026-08-23T11:27:25.000Z</time>
      </trkpt>
      <trkpt lat="47.86016" lon="6.80479">
        <ele>537.2</ele>
        <time>2026-08-23T11:27:27.000Z</time>
      </trkpt>
      <trkpt lat="47.86031" lon="6.80477">
        <ele>537</ele>
        <time>2026-08-23T11:27:29.000Z</time>
      </trkpt>
      <trkpt lat="47.86046" lon="6.80475">
        <ele>536.8</ele>
        <time>2026-08-23T11:27:31.000Z</time>
      </trkpt>
      <trkpt lat="47.86061" lon="6.80473">
        <ele>536.6</ele>
        <time>2026-08-23T11:27:33.000Z</time>
      </trkpt>
      <trkpt lat="47.86076" lon="6.80473">
        <ele>536.6</ele>
        <time>2026-08-23T11:27:35.000Z</time>
      </trkpt>
      <trkpt lat="47.86091" lon="6.80473">
        <ele>536.4</ele>
        <time>2026-08-23T11:27:37.000Z</time>
      </trkpt>
      <trkpt lat="47.86106" lon="6.80476">
        <ele>536.2</ele>
        <time>2026-08-23T11:27:39.000Z</time>
      </trkpt>
      <trkpt lat="47.86129" lon="6.8048">
        <ele>536.2</ele>
        <time>2026-08-23T11:27:41.000Z</time>
      </trkpt>
      <trkpt lat="47.86146" lon="6.80484">
        <ele>536</ele>
        <time>2026-08-23T11:27:43.000Z</time>
      </trkpt>
      <trkpt lat="47.86162" lon="6.80488">
        <ele>535.8</ele>
        <time>2026-08-23T11:27:45.000Z</time>
      </trkpt>
      <trkpt lat="47.86177" lon="6.80492">
        <ele>535.6</ele>
        <time>2026-08-23T11:27:47.000Z</time>
      </trkpt>
      <trkpt lat="47.86192" lon="6.80496">
        <ele>535.4</ele>
        <time>2026-08-23T11:27:49.000Z</time>
      </trkpt>
      <trkpt lat="47.86207" lon="6.805">
        <ele>535.2</ele>
        <time>2026-08-23T11:27:51.000Z</time>
      </trkpt>
      <trkpt lat="47.86223" lon="6.80503">
        <ele>535.2</ele>
        <time>2026-08-23T11:27:53.000Z</time>
      </trkpt>
      <trkpt lat="47.86238" lon="6.80505">
        <ele>535</ele>
        <time>2026-08-23T11:27:55.000Z</time>
      </trkpt>
      <trkpt lat="47.86254" lon="6.80506">
        <ele>534.8</ele>
        <time>2026-08-23T11:27:57.000Z</time>
      </trkpt>
      <trkpt lat="47.86269" lon="6.80506">
        <ele>534.6</ele>
        <time>2026-08-23T11:27:59.000Z</time>
      </trkpt>
      <trkpt lat="47.86285" lon="6.80504">
        <ele>534.6</ele>
        <time>2026-08-23T11:28:01.000Z</time>
      </trkpt>
      <trkpt lat="47.863" lon="6.80502">
        <ele>534.4</ele>
        <time>2026-08-23T11:28:03.000Z</time>
      </trkpt>
      <trkpt lat="47.86316" lon="6.80499">
        <ele>534.2</ele>
        <time>2026-08-23T11:28:05.000Z</time>
      </trkpt>
      <trkpt lat="47.8633" lon="6.80496">
        <ele>533.8</ele>
        <time>2026-08-23T11:28:07.000Z</time>
      </trkpt>
      <trkpt lat="47.86344" lon="6.80492">
        <ele>533.6</ele>
        <time>2026-08-23T11:28:09.000Z</time>
      </trkpt>
      <trkpt lat="47.86358" lon="6.80487">
        <ele>533.6</ele>
        <time>2026-08-23T11:28:11.000Z</time>
      </trkpt>
      <trkpt lat="47.86372" lon="6.80481">
        <ele>533.8</ele>
        <time>2026-08-23T11:28:13.000Z</time>
      </trkpt>
      <trkpt lat="47.86385" lon="6.80475">
        <ele>533.8</ele>
        <time>2026-08-23T11:28:15.000Z</time>
      </trkpt>
      <trkpt lat="47.86398" lon="6.80467">
        <ele>533.6</ele>
        <time>2026-08-23T11:28:17.000Z</time>
      </trkpt>
      <trkpt lat="47.86412" lon="6.80458">
        <ele>533.6</ele>
        <time>2026-08-23T11:28:19.000Z</time>
      </trkpt>
      <trkpt lat="47.86426" lon="6.80448">
        <ele>533.2</ele>
        <time>2026-08-23T11:28:22.000Z</time>
      </trkpt>
      <trkpt lat="47.8644" lon="6.80436">
        <ele>532.8</ele>
        <time>2026-08-23T11:28:24.000Z</time>
      </trkpt>
      <trkpt lat="47.86455" lon="6.80422">
        <ele>532.4</ele>
        <time>2026-08-23T11:28:26.000Z</time>
      </trkpt>
      <trkpt lat="47.8647" lon="6.80407">
        <ele>532.2</ele>
        <time>2026-08-23T11:28:28.000Z</time>
      </trkpt>
      <trkpt lat="47.86484" lon="6.80392">
        <ele>532</ele>
        <time>2026-08-23T11:28:30.000Z</time>
      </trkpt>
      <trkpt lat="47.86497" lon="6.80376">
        <ele>531.8</ele>
        <time>2026-08-23T11:28:32.000Z</time>
      </trkpt>
      <trkpt lat="47.8651" lon="6.80358">
        <ele>531.4</ele>
        <time>2026-08-23T11:28:34.000Z</time>
      </trkpt>
      <trkpt lat="47.86523" lon="6.80341">
        <ele>531.2</ele>
        <time>2026-08-23T11:28:36.000Z</time>
      </trkpt>
      <trkpt lat="47.86535" lon="6.80323">
        <ele>531</ele>
        <time>2026-08-23T11:28:38.000Z</time>
      </trkpt>
      <trkpt lat="47.86546" lon="6.80303">
        <ele>530.8</ele>
        <time>2026-08-23T11:28:40.000Z</time>
      </trkpt>
      <trkpt lat="47.86556" lon="6.80282">
        <ele>530.4</ele>
        <time>2026-08-23T11:28:42.000Z</time>
      </trkpt>
      <trkpt lat="47.86565" lon="6.80259">
        <ele>530.2</ele>
        <time>2026-08-23T11:28:44.000Z</time>
      </trkpt>
      <trkpt lat="47.86574" lon="6.80237">
        <ele>529.8</ele>
        <time>2026-08-23T11:28:46.000Z</time>
      </trkpt>
      <trkpt lat="47.86583" lon="6.80214">
        <ele>529.6</ele>
        <time>2026-08-23T11:28:48.000Z</time>
      </trkpt>
      <trkpt lat="47.86591" lon="6.80192">
        <ele>529.4</ele>
        <time>2026-08-23T11:28:50.000Z</time>
      </trkpt>
      <trkpt lat="47.86598" lon="6.80169">
        <ele>529</ele>
        <time>2026-08-23T11:28:52.000Z</time>
      </trkpt>
      <trkpt lat="47.86605" lon="6.80145">
        <ele>528.8</ele>
        <time>2026-08-23T11:28:54.000Z</time>
      </trkpt>
      <trkpt lat="47.8661" lon="6.80121">
        <ele>528.6</ele>
        <time>2026-08-23T11:28:56.000Z</time>
      </trkpt>
      <trkpt lat="47.86614" lon="6.80096">
        <ele>528.4</ele>
        <time>2026-08-23T11:28:58.000Z</time>
      </trkpt>
      <trkpt lat="47.86617" lon="6.80072">
        <ele>528</ele>
        <time>2026-08-23T11:29:00.000Z</time>
      </trkpt>
      <trkpt lat="47.8662" lon="6.80047">
        <ele>527.8</ele>
        <time>2026-08-23T11:29:02.000Z</time>
      </trkpt>
      <trkpt lat="47.86622" lon="6.80022">
        <ele>527.6</ele>
        <time>2026-08-23T11:29:04.000Z</time>
      </trkpt>
      <trkpt lat="47.86623" lon="6.79998">
        <ele>527.4</ele>
        <time>2026-08-23T11:29:06.000Z</time>
      </trkpt>
      <trkpt lat="47.86625" lon="6.79973">
        <ele>527.2</ele>
        <time>2026-08-23T11:29:08.000Z</time>
      </trkpt>
      <trkpt lat="47.86627" lon="6.7994">
        <ele>527.2</ele>
        <time>2026-08-23T11:29:10.000Z</time>
      </trkpt>
      <trkpt lat="47.86629" lon="6.79916">
        <ele>527.2</ele>
        <time>2026-08-23T11:29:12.000Z</time>
      </trkpt>
      <trkpt lat="47.86631" lon="6.79899">
        <ele>527.2</ele>
        <time>2026-08-23T11:29:14.000Z</time>
      </trkpt>
      <trkpt lat="47.86632" lon="6.79886">
        <ele>527.2</ele>
        <time>2026-08-23T11:29:16.000Z</time>
      </trkpt>
      <trkpt lat="47.86632" lon="6.79871">
        <ele>527.2</ele>
        <time>2026-08-23T11:29:18.000Z</time>
      </trkpt>
      <trkpt lat="47.86634" lon="6.79851">
        <ele>526.8</ele>
        <time>2026-08-23T11:29:20.000Z</time>
      </trkpt>
      <trkpt lat="47.86635" lon="6.79828">
        <ele>526.6</ele>
        <time>2026-08-23T11:29:22.000Z</time>
      </trkpt>
      <trkpt lat="47.86637" lon="6.79803">
        <ele>526.4</ele>
        <time>2026-08-23T11:29:24.000Z</time>
      </trkpt>
      <trkpt lat="47.86639" lon="6.79778">
        <ele>526.2</ele>
        <time>2026-08-23T11:29:26.000Z</time>
      </trkpt>
      <trkpt lat="47.86641" lon="6.79753">
        <ele>525.8</ele>
        <time>2026-08-23T11:29:28.000Z</time>
      </trkpt>
      <trkpt lat="47.86642" lon="6.79729">
        <ele>525.6</ele>
        <time>2026-08-23T11:29:30.000Z</time>
      </trkpt>
      <trkpt lat="47.86644" lon="6.79704">
        <ele>525.4</ele>
        <time>2026-08-23T11:29:32.000Z</time>
      </trkpt>
      <trkpt lat="47.86646" lon="6.7968">
        <ele>525</ele>
        <time>2026-08-23T11:29:34.000Z</time>
      </trkpt>
      <trkpt lat="47.86648" lon="6.79655">
        <ele>524.8</ele>
        <time>2026-08-23T11:29:36.000Z</time>
      </trkpt>
      <trkpt lat="47.86649" lon="6.79631">
        <ele>524.6</ele>
        <time>2026-08-23T11:29:38.000Z</time>
      </trkpt>
      <trkpt lat="47.86651" lon="6.79608">
        <ele>524.4</ele>
        <time>2026-08-23T11:29:40.000Z</time>
      </trkpt>
      <trkpt lat="47.86653" lon="6.79585">
        <ele>524.4</ele>
        <time>2026-08-23T11:29:42.000Z</time>
      </trkpt>
      <trkpt lat="47.86654" lon="6.79563">
        <ele>524.4</ele>
        <time>2026-08-23T11:29:44.000Z</time>
      </trkpt>
      <trkpt lat="47.86657" lon="6.79545">
        <ele>524.4</ele>
        <time>2026-08-23T11:29:46.000Z</time>
      </trkpt>
      <trkpt lat="47.86659" lon="6.79529">
        <ele>524.2</ele>
        <time>2026-08-23T11:29:48.000Z</time>
      </trkpt>
      <trkpt lat="47.86661" lon="6.79513">
        <ele>524</ele>
        <time>2026-08-23T11:29:50.000Z</time>
      </trkpt>
      <trkpt lat="47.86665" lon="6.79495">
        <ele>523.6</ele>
        <time>2026-08-23T11:29:52.000Z</time>
      </trkpt>
      <trkpt lat="47.8667" lon="6.79475">
        <ele>523.4</ele>
        <time>2026-08-23T11:29:54.000Z</time>
      </trkpt>
      <trkpt lat="47.86675" lon="6.79454">
        <ele>523</ele>
        <time>2026-08-23T11:29:56.000Z</time>
      </trkpt>
      <trkpt lat="47.86681" lon="6.79433">
        <ele>522.6</ele>
        <time>2026-08-23T11:29:58.000Z</time>
      </trkpt>
      <trkpt lat="47.86688" lon="6.79412">
        <ele>522</ele>
        <time>2026-08-23T11:30:00.000Z</time>
      </trkpt>
      <trkpt lat="47.86695" lon="6.79392">
        <ele>521.8</ele>
        <time>2026-08-23T11:30:02.000Z</time>
      </trkpt>
      <trkpt lat="47.86703" lon="6.79373">
        <ele>521.6</ele>
        <time>2026-08-23T11:30:04.000Z</time>
      </trkpt>
      <trkpt lat="47.86712" lon="6.79353">
        <ele>521.4</ele>
        <time>2026-08-23T11:30:07.000Z</time>
      </trkpt>
      <trkpt lat="47.8672" lon="6.79334">
        <ele>521.2</ele>
        <time>2026-08-23T11:30:09.000Z</time>
      </trkpt>
      <trkpt lat="47.86729" lon="6.79316">
        <ele>521</ele>
        <time>2026-08-23T11:30:11.000Z</time>
      </trkpt>
      <trkpt lat="47.86739" lon="6.79298">
        <ele>520.8</ele>
        <time>2026-08-23T11:30:13.000Z</time>
      </trkpt>
      <trkpt lat="47.86748" lon="6.7928">
        <ele>520.8</ele>
        <time>2026-08-23T11:30:15.000Z</time>
      </trkpt>
      <trkpt lat="47.86759" lon="6.79263">
        <ele>520.8</ele>
        <time>2026-08-23T11:30:17.000Z</time>
      </trkpt>
      <trkpt lat="47.8677" lon="6.79248">
        <ele>520.8</ele>
        <time>2026-08-23T11:30:19.000Z</time>
      </trkpt>
      <trkpt lat="47.86782" lon="6.79234">
        <ele>520.8</ele>
        <time>2026-08-23T11:30:21.000Z</time>
      </trkpt>
      <trkpt lat="47.86794" lon="6.7922">
        <ele>520.6</ele>
        <time>2026-08-23T11:30:23.000Z</time>
      </trkpt>
      <trkpt lat="47.86806" lon="6.79207">
        <ele>520.6</ele>
        <time>2026-08-23T11:30:25.000Z</time>
      </trkpt>
      <trkpt lat="47.86818" lon="6.79195">
        <ele>520.4</ele>
        <time>2026-08-23T11:30:27.000Z</time>
      </trkpt>
      <trkpt lat="47.86831" lon="6.79184">
        <ele>520.4</ele>
        <time>2026-08-23T11:30:29.000Z</time>
      </trkpt>
      <trkpt lat="47.86844" lon="6.79173">
        <ele>520.4</ele>
        <time>2026-08-23T11:30:31.000Z</time>
      </trkpt>
      <trkpt lat="47.86857" lon="6.79163">
        <ele>520.2</ele>
        <time>2026-08-23T11:30:33.000Z</time>
      </trkpt>
      <trkpt lat="47.8687" lon="6.79154">
        <ele>520</ele>
        <time>2026-08-23T11:30:35.000Z</time>
      </trkpt>
      <trkpt lat="47.86884" lon="6.79145">
        <ele>520</ele>
        <time>2026-08-23T11:30:37.000Z</time>
      </trkpt>
      <trkpt lat="47.86898" lon="6.79136">
        <ele>520</ele>
        <time>2026-08-23T11:30:39.000Z</time>
      </trkpt>
      <trkpt lat="47.86911" lon="6.79129">
        <ele>520</ele>
        <time>2026-08-23T11:30:41.000Z</time>
      </trkpt>
      <trkpt lat="47.86925" lon="6.79121">
        <ele>519.8</ele>
        <time>2026-08-23T11:30:43.000Z</time>
      </trkpt>
      <trkpt lat="47.86939" lon="6.79112">
        <ele>519.6</ele>
        <time>2026-08-23T11:30:45.000Z</time>
      </trkpt>
      <trkpt lat="47.86957" lon="6.79101">
        <ele>519.4</ele>
        <time>2026-08-23T11:30:47.000Z</time>
      </trkpt>
      <trkpt lat="47.86975" lon="6.79089">
        <ele>519.4</ele>
        <time>2026-08-23T11:30:49.000Z</time>
      </trkpt>
      <trkpt lat="47.8699" lon="6.79079">
        <ele>519.2</ele>
        <time>2026-08-23T11:30:51.000Z</time>
      </trkpt>
      <trkpt lat="47.87004" lon="6.7907">
        <ele>519</ele>
        <time>2026-08-23T11:30:53.000Z</time>
      </trkpt>
      <trkpt lat="47.87018" lon="6.79061">
        <ele>518.8</ele>
        <time>2026-08-23T11:30:55.000Z</time>
      </trkpt>
      <trkpt lat="47.87032" lon="6.79051">
        <ele>518.4</ele>
        <time>2026-08-23T11:30:57.000Z</time>
      </trkpt>
      <trkpt lat="47.87046" lon="6.79041">
        <ele>518.2</ele>
        <time>2026-08-23T11:30:59.000Z</time>
      </trkpt>
      <trkpt lat="47.87059" lon="6.7903">
        <ele>518.2</ele>
        <time>2026-08-23T11:31:01.000Z</time>
      </trkpt>
      <trkpt lat="47.87073" lon="6.79018">
        <ele>518</ele>
        <time>2026-08-23T11:31:03.000Z</time>
      </trkpt>
      <trkpt lat="47.87085" lon="6.79006">
        <ele>517.8</ele>
        <time>2026-08-23T11:31:05.000Z</time>
      </trkpt>
      <trkpt lat="47.87098" lon="6.78993">
        <ele>517.6</ele>
        <time>2026-08-23T11:31:07.000Z</time>
      </trkpt>
      <trkpt lat="47.8711" lon="6.7898">
        <ele>517.4</ele>
        <time>2026-08-23T11:31:09.000Z</time>
      </trkpt>
      <trkpt lat="47.87122" lon="6.78966">
        <ele>517</ele>
        <time>2026-08-23T11:31:11.000Z</time>
      </trkpt>
      <trkpt lat="47.87134" lon="6.78953">
        <ele>516.8</ele>
        <time>2026-08-23T11:31:13.000Z</time>
      </trkpt>
      <trkpt lat="47.87146" lon="6.78939">
        <ele>516.6</ele>
        <time>2026-08-23T11:31:15.000Z</time>
      </trkpt>
      <trkpt lat="47.87158" lon="6.78926">
        <ele>516.6</ele>
        <time>2026-08-23T11:31:17.000Z</time>
      </trkpt>
      <trkpt lat="47.8717" lon="6.78913">
        <ele>516.4</ele>
        <time>2026-08-23T11:31:19.000Z</time>
      </trkpt>
      <trkpt lat="47.87182" lon="6.78899">
        <ele>516.2</ele>
        <time>2026-08-23T11:31:21.000Z</time>
      </trkpt>
      <trkpt lat="47.87194" lon="6.78885">
        <ele>516.2</ele>
        <time>2026-08-23T11:31:23.000Z</time>
      </trkpt>
      <trkpt lat="47.87205" lon="6.78869">
        <ele>516</ele>
        <time>2026-08-23T11:31:25.000Z</time>
      </trkpt>
      <trkpt lat="47.87215" lon="6.78853">
        <ele>516</ele>
        <time>2026-08-23T11:31:27.000Z</time>
      </trkpt>
      <trkpt lat="47.87224" lon="6.78836">
        <ele>516</ele>
        <time>2026-08-23T11:31:29.000Z</time>
      </trkpt>
      <trkpt lat="47.87231" lon="6.78818">
        <ele>516</ele>
        <time>2026-08-23T11:31:31.000Z</time>
      </trkpt>
      <trkpt lat="47.87238" lon="6.788">
        <ele>515.8</ele>
        <time>2026-08-23T11:31:33.000Z</time>
      </trkpt>
      <trkpt lat="47.87244" lon="6.78783">
        <ele>516</ele>
        <time>2026-08-23T11:31:36.000Z</time>
      </trkpt>
      <trkpt lat="47.87252" lon="6.7877">
        <ele>516.4</ele>
        <time>2026-08-23T11:31:38.000Z</time>
      </trkpt>
      <trkpt lat="47.87259" lon="6.78757">
        <ele>516.4</ele>
        <time>2026-08-23T11:31:40.000Z</time>
      </trkpt>
      <trkpt lat="47.87267" lon="6.78745">
        <ele>516.4</ele>
        <time>2026-08-23T11:31:42.000Z</time>
      </trkpt>
      <trkpt lat="47.87274" lon="6.78732">
        <ele>516.4</ele>
        <time>2026-08-23T11:31:44.000Z</time>
      </trkpt>
      <trkpt lat="47.8728" lon="6.78715">
        <ele>516.2</ele>
        <time>2026-08-23T11:31:46.000Z</time>
      </trkpt>
      <trkpt lat="47.87285" lon="6.78696">
        <ele>516.2</ele>
        <time>2026-08-23T11:31:48.000Z</time>
      </trkpt>
      <trkpt lat="47.87291" lon="6.78677">
        <ele>516</ele>
        <time>2026-08-23T11:31:50.000Z</time>
      </trkpt>
      <trkpt lat="47.87296" lon="6.78658">
        <ele>516</ele>
        <time>2026-08-23T11:31:52.000Z</time>
      </trkpt>
      <trkpt lat="47.87302" lon="6.78639">
        <ele>516</ele>
        <time>2026-08-23T11:31:54.000Z</time>
      </trkpt>
      <trkpt lat="47.87308" lon="6.7862">
        <ele>516</ele>
        <time>2026-08-23T11:31:56.000Z</time>
      </trkpt>
      <trkpt lat="47.87314" lon="6.78602">
        <ele>515.8</ele>
        <time>2026-08-23T11:31:58.000Z</time>
      </trkpt>
      <trkpt lat="47.87319" lon="6.78583">
        <ele>515.6</ele>
        <time>2026-08-23T11:32:00.000Z</time>
      </trkpt>
      <trkpt lat="47.87325" lon="6.78564">
        <ele>515.6</ele>
        <time>2026-08-23T11:32:02.000Z</time>
      </trkpt>
      <trkpt lat="47.87331" lon="6.78546">
        <ele>515.6</ele>
        <time>2026-08-23T11:32:04.000Z</time>
      </trkpt>
      <trkpt lat="47.87337" lon="6.78528">
        <ele>515.6</ele>
        <time>2026-08-23T11:32:06.000Z</time>
      </trkpt>
      <trkpt lat="47.87344" lon="6.7851">
        <ele>515.4</ele>
        <time>2026-08-23T11:32:08.000Z</time>
      </trkpt>
      <trkpt lat="47.87352" lon="6.78493">
        <ele>515.4</ele>
        <time>2026-08-23T11:32:10.000Z</time>
      </trkpt>
      <trkpt lat="47.8736" lon="6.78476">
        <ele>515.2</ele>
        <time>2026-08-23T11:32:12.000Z</time>
      </trkpt>
      <trkpt lat="47.87369" lon="6.7846">
        <ele>515.2</ele>
        <time>2026-08-23T11:32:14.000Z</time>
      </trkpt>
      <trkpt lat="47.87378" lon="6.78446">
        <ele>515.4</ele>
        <time>2026-08-23T11:32:16.000Z</time>
      </trkpt>
      <trkpt lat="47.87388" lon="6.78431">
        <ele>515.4</ele>
        <time>2026-08-23T11:32:18.000Z</time>
      </trkpt>
      <trkpt lat="47.87398" lon="6.78417">
        <ele>515.2</ele>
        <time>2026-08-23T11:32:20.000Z</time>
      </trkpt>
      <trkpt lat="47.87408" lon="6.78402">
        <ele>515.2</ele>
        <time>2026-08-23T11:32:22.000Z</time>
      </trkpt>
      <trkpt lat="47.87417" lon="6.78388">
        <ele>515.2</ele>
        <time>2026-08-23T11:32:24.000Z</time>
      </trkpt>
      <trkpt lat="47.87427" lon="6.78373">
        <ele>515.4</ele>
        <time>2026-08-23T11:32:26.000Z</time>
      </trkpt>
      <trkpt lat="47.87437" lon="6.78359">
        <ele>515.4</ele>
        <time>2026-08-23T11:32:28.000Z</time>
      </trkpt>
      <trkpt lat="47.87451" lon="6.78339">
        <ele>515.4</ele>
        <time>2026-08-23T11:32:30.000Z</time>
      </trkpt>
      <trkpt lat="47.87462" lon="6.78322">
        <ele>515.6</ele>
        <time>2026-08-23T11:32:32.000Z</time>
      </trkpt>
      <trkpt lat="47.87472" lon="6.78307">
        <ele>515.4</ele>
        <time>2026-08-23T11:32:34.000Z</time>
      </trkpt>
      <trkpt lat="47.87481" lon="6.78291">
        <ele>515.4</ele>
        <time>2026-08-23T11:32:36.000Z</time>
      </trkpt>
      <trkpt lat="47.87489" lon="6.78274">
        <ele>515.2</ele>
        <time>2026-08-23T11:32:38.000Z</time>
      </trkpt>
      <trkpt lat="47.87498" lon="6.78257">
        <ele>515</ele>
        <time>2026-08-23T11:32:40.000Z</time>
      </trkpt>
      <trkpt lat="47.87506" lon="6.78239">
        <ele>515</ele>
        <time>2026-08-23T11:32:42.000Z</time>
      </trkpt>
      <trkpt lat="47.87513" lon="6.7822">
        <ele>514.8</ele>
        <time>2026-08-23T11:32:44.000Z</time>
      </trkpt>
      <trkpt lat="47.87521" lon="6.78202">
        <ele>514.8</ele>
        <time>2026-08-23T11:32:46.000Z</time>
      </trkpt>
      <trkpt lat="47.87527" lon="6.78183">
        <ele>514.6</ele>
        <time>2026-08-23T11:32:48.000Z</time>
      </trkpt>
      <trkpt lat="47.87533" lon="6.78163">
        <ele>514.6</ele>
        <time>2026-08-23T11:32:50.000Z</time>
      </trkpt>
      <trkpt lat="47.87538" lon="6.78143">
        <ele>514.4</ele>
        <time>2026-08-23T11:32:52.000Z</time>
      </trkpt>
      <trkpt lat="47.87542" lon="6.78123">
        <ele>514.4</ele>
        <time>2026-08-23T11:32:54.000Z</time>
      </trkpt>
      <trkpt lat="47.87546" lon="6.78102">
        <ele>514.4</ele>
        <time>2026-08-23T11:32:56.000Z</time>
      </trkpt>
      <trkpt lat="47.87551" lon="6.78082">
        <ele>514.2</ele>
        <time>2026-08-23T11:32:58.000Z</time>
      </trkpt>
      <trkpt lat="47.87555" lon="6.78062">
        <ele>514</ele>
        <time>2026-08-23T11:33:00.000Z</time>
      </trkpt>
      <trkpt lat="47.87559" lon="6.78042">
        <ele>513.8</ele>
        <time>2026-08-23T11:33:02.000Z</time>
      </trkpt>
      <trkpt lat="47.87563" lon="6.78021">
        <ele>513.8</ele>
        <time>2026-08-23T11:33:04.000Z</time>
      </trkpt>
      <trkpt lat="47.87566" lon="6.78001">
        <ele>513.6</ele>
        <time>2026-08-23T11:33:06.000Z</time>
      </trkpt>
      <trkpt lat="47.87569" lon="6.7798">
        <ele>513.6</ele>
        <time>2026-08-23T11:33:08.000Z</time>
      </trkpt>
      <trkpt lat="47.87571" lon="6.77959">
        <ele>513.4</ele>
        <time>2026-08-23T11:33:10.000Z</time>
      </trkpt>
      <trkpt lat="47.87573" lon="6.77939">
        <ele>513.2</ele>
        <time>2026-08-23T11:33:12.000Z</time>
      </trkpt>
      <trkpt lat="47.87575" lon="6.77918">
        <ele>513.2</ele>
        <time>2026-08-23T11:33:14.000Z</time>
      </trkpt>
      <trkpt lat="47.87576" lon="6.77897">
        <ele>513</ele>
        <time>2026-08-23T11:33:16.000Z</time>
      </trkpt>
      <trkpt lat="47.87576" lon="6.77875">
        <ele>513</ele>
        <time>2026-08-23T11:33:18.000Z</time>
      </trkpt>
      <trkpt lat="47.87576" lon="6.77854">
        <ele>512.8</ele>
        <time>2026-08-23T11:33:21.000Z</time>
      </trkpt>
      <trkpt lat="47.87576" lon="6.77833">
        <ele>512.6</ele>
        <time>2026-08-23T11:33:23.000Z</time>
      </trkpt>
      <trkpt lat="47.87575" lon="6.77812">
        <ele>512.4</ele>
        <time>2026-08-23T11:33:25.000Z</time>
      </trkpt>
      <trkpt lat="47.87574" lon="6.7779">
        <ele>512.4</ele>
        <time>2026-08-23T11:33:27.000Z</time>
      </trkpt>
      <trkpt lat="47.87573" lon="6.77769">
        <ele>512.2</ele>
        <time>2026-08-23T11:33:29.000Z</time>
      </trkpt>
      <trkpt lat="47.87572" lon="6.77747">
        <ele>512</ele>
        <time>2026-08-23T11:33:31.000Z</time>
      </trkpt>
      <trkpt lat="47.8757" lon="6.77726">
        <ele>511.8</ele>
        <time>2026-08-23T11:33:33.000Z</time>
      </trkpt>
      <trkpt lat="47.87569" lon="6.77704">
        <ele>511.6</ele>
        <time>2026-08-23T11:33:35.000Z</time>
      </trkpt>
      <trkpt lat="47.87567" lon="6.77683">
        <ele>511.6</ele>
        <time>2026-08-23T11:33:37.000Z</time>
      </trkpt>
      <trkpt lat="47.87566" lon="6.77661">
        <ele>511.4</ele>
        <time>2026-08-23T11:33:39.000Z</time>
      </trkpt>
      <trkpt lat="47.87564" lon="6.77639">
        <ele>511.2</ele>
        <time>2026-08-23T11:33:41.000Z</time>
      </trkpt>
      <trkpt lat="47.87563" lon="6.77618">
        <ele>511</ele>
        <time>2026-08-23T11:33:43.000Z</time>
      </trkpt>
      <trkpt lat="47.87561" lon="6.77596">
        <ele>511</ele>
        <time>2026-08-23T11:33:45.000Z</time>
      </trkpt>
      <trkpt lat="47.8756" lon="6.77575">
        <ele>511</ele>
        <time>2026-08-23T11:33:47.000Z</time>
      </trkpt>
      <trkpt lat="47.87559" lon="6.77554">
        <ele>511</ele>
        <time>2026-08-23T11:33:49.000Z</time>
      </trkpt>
      <trkpt lat="47.87557" lon="6.77533">
        <ele>511</ele>
        <time>2026-08-23T11:33:51.000Z</time>
      </trkpt>
      <trkpt lat="47.87556" lon="6.77514">
        <ele>511</ele>
        <time>2026-08-23T11:33:53.000Z</time>
      </trkpt>
      <trkpt lat="47.87555" lon="6.77497">
        <ele>511</ele>
        <time>2026-08-23T11:33:55.000Z</time>
      </trkpt>
      <trkpt lat="47.87555" lon="6.77478">
        <ele>510.8</ele>
        <time>2026-08-23T11:33:57.000Z</time>
      </trkpt>
      <trkpt lat="47.87553" lon="6.77461">
        <ele>510.6</ele>
        <time>2026-08-23T11:33:59.000Z</time>
      </trkpt>
      <trkpt lat="47.87553" lon="6.77443">
        <ele>510.6</ele>
        <time>2026-08-23T11:34:01.000Z</time>
      </trkpt>
      <trkpt lat="47.87552" lon="6.77424">
        <ele>510.4</ele>
        <time>2026-08-23T11:34:03.000Z</time>
      </trkpt>
      <trkpt lat="47.8755" lon="6.77405">
        <ele>510.2</ele>
        <time>2026-08-23T11:34:05.000Z</time>
      </trkpt>
      <trkpt lat="47.87549" lon="6.77384">
        <ele>509.8</ele>
        <time>2026-08-23T11:34:07.000Z</time>
      </trkpt>
      <trkpt lat="47.87548" lon="6.77364">
        <ele>509.6</ele>
        <time>2026-08-23T11:34:09.000Z</time>
      </trkpt>
      <trkpt lat="47.87547" lon="6.77343">
        <ele>509.4</ele>
        <time>2026-08-23T11:34:11.000Z</time>
      </trkpt>
      <trkpt lat="47.87546" lon="6.77323">
        <ele>509.2</ele>
        <time>2026-08-23T11:34:13.000Z</time>
      </trkpt>
      <trkpt lat="47.87545" lon="6.77303">
        <ele>509</ele>
        <time>2026-08-23T11:34:15.000Z</time>
      </trkpt>
      <trkpt lat="47.87543" lon="6.77283">
        <ele>508.6</ele>
        <time>2026-08-23T11:34:17.000Z</time>
      </trkpt>
      <trkpt lat="47.87542" lon="6.77263">
        <ele>508.4</ele>
        <time>2026-08-23T11:34:19.000Z</time>
      </trkpt>
      <trkpt lat="47.87541" lon="6.77242">
        <ele>508.2</ele>
        <time>2026-08-23T11:34:21.000Z</time>
      </trkpt>
      <trkpt lat="47.8754" lon="6.77221">
        <ele>508</ele>
        <time>2026-08-23T11:34:23.000Z</time>
      </trkpt>
      <trkpt lat="47.87539" lon="6.77201">
        <ele>507.8</ele>
        <time>2026-08-23T11:34:25.000Z</time>
      </trkpt>
      <trkpt lat="47.87537" lon="6.77179">
        <ele>507.6</ele>
        <time>2026-08-23T11:34:27.000Z</time>
      </trkpt>
      <trkpt lat="47.87536" lon="6.77158">
        <ele>507.2</ele>
        <time>2026-08-23T11:34:29.000Z</time>
      </trkpt>
      <trkpt lat="47.87535" lon="6.77137">
        <ele>507</ele>
        <time>2026-08-23T11:34:31.000Z</time>
      </trkpt>
      <trkpt lat="47.87533" lon="6.77117">
        <ele>506.6</ele>
        <time>2026-08-23T11:34:33.000Z</time>
      </trkpt>
      <trkpt lat="47.87532" lon="6.77096">
        <ele>506.4</ele>
        <time>2026-08-23T11:34:35.000Z</time>
      </trkpt>
      <trkpt lat="47.87531" lon="6.77075">
        <ele>506.2</ele>
        <time>2026-08-23T11:34:37.000Z</time>
      </trkpt>
      <trkpt lat="47.87529" lon="6.77055">
        <ele>505.8</ele>
        <time>2026-08-23T11:34:39.000Z</time>
      </trkpt>
      <trkpt lat="47.87528" lon="6.77034">
        <ele>505.8</ele>
        <time>2026-08-23T11:34:41.000Z</time>
      </trkpt>
      <trkpt lat="47.87527" lon="6.77013">
        <ele>505.6</ele>
        <time>2026-08-23T11:34:43.000Z</time>
      </trkpt>
      <trkpt lat="47.87526" lon="6.76994">
        <ele>505.6</ele>
        <time>2026-08-23T11:34:45.000Z</time>
      </trkpt>
      <trkpt lat="47.87525" lon="6.76979">
        <ele>505.6</ele>
        <time>2026-08-23T11:34:47.000Z</time>
      </trkpt>
      <trkpt lat="47.87524" lon="6.76966">
        <ele>505.4</ele>
        <time>2026-08-23T11:34:50.000Z</time>
      </trkpt>
      <trkpt lat="47.87523" lon="6.76953">
        <ele>505.4</ele>
        <time>2026-08-23T11:34:52.000Z</time>
      </trkpt>
      <trkpt lat="47.87522" lon="6.76939">
        <ele>505.2</ele>
        <time>2026-08-23T11:34:54.000Z</time>
      </trkpt>
      <trkpt lat="47.87521" lon="6.76924">
        <ele>505</ele>
        <time>2026-08-23T11:34:56.000Z</time>
      </trkpt>
      <trkpt lat="47.87521" lon="6.76906">
        <ele>504.6</ele>
        <time>2026-08-23T11:34:58.000Z</time>
      </trkpt>
      <trkpt lat="47.8752" lon="6.76888">
        <ele>504.4</ele>
        <time>2026-08-23T11:35:00.000Z</time>
      </trkpt>
      <trkpt lat="47.87519" lon="6.76869">
        <ele>504.2</ele>
        <time>2026-08-23T11:35:02.000Z</time>
      </trkpt>
      <trkpt lat="47.87518" lon="6.76851">
        <ele>504</ele>
        <time>2026-08-23T11:35:04.000Z</time>
      </trkpt>
      <trkpt lat="47.87516" lon="6.76832">
        <ele>503.6</ele>
        <time>2026-08-23T11:35:06.000Z</time>
      </trkpt>
      <trkpt lat="47.87515" lon="6.76813">
        <ele>503.4</ele>
        <time>2026-08-23T11:35:08.000Z</time>
      </trkpt>
      <trkpt lat="47.87514" lon="6.76794">
        <ele>503.4</ele>
        <time>2026-08-23T11:35:10.000Z</time>
      </trkpt>
      <trkpt lat="47.87513" lon="6.76774">
        <ele>503.2</ele>
        <time>2026-08-23T11:35:12.000Z</time>
      </trkpt>
      <trkpt lat="47.87512" lon="6.76755">
        <ele>503.2</ele>
        <time>2026-08-23T11:35:14.000Z</time>
      </trkpt>
      <trkpt lat="47.87511" lon="6.76737">
        <ele>503.2</ele>
        <time>2026-08-23T11:35:16.000Z</time>
      </trkpt>
      <trkpt lat="47.87509" lon="6.76718">
        <ele>503.2</ele>
        <time>2026-08-23T11:35:18.000Z</time>
      </trkpt>
      <trkpt lat="47.87508" lon="6.76699">
        <ele>503</ele>
        <time>2026-08-23T11:35:20.000Z</time>
      </trkpt>
      <trkpt lat="47.87507" lon="6.76679">
        <ele>503</ele>
        <time>2026-08-23T11:35:22.000Z</time>
      </trkpt>
      <trkpt lat="47.87506" lon="6.7666">
        <ele>503</ele>
        <time>2026-08-23T11:35:24.000Z</time>
      </trkpt>
      <trkpt lat="47.87505" lon="6.76641">
        <ele>503</ele>
        <time>2026-08-23T11:35:26.000Z</time>
      </trkpt>
      <trkpt lat="47.87504" lon="6.76623">
        <ele>503</ele>
        <time>2026-08-23T11:35:28.000Z</time>
      </trkpt>
      <trkpt lat="47.87502" lon="6.76606">
        <ele>503.2</ele>
        <time>2026-08-23T11:35:30.000Z</time>
      </trkpt>
      <trkpt lat="47.87501" lon="6.7659">
        <ele>503.2</ele>
        <time>2026-08-23T11:35:32.000Z</time>
      </trkpt>
      <trkpt lat="47.875" lon="6.76577">
        <ele>503.4</ele>
        <time>2026-08-23T11:35:34.000Z</time>
      </trkpt>
      <trkpt lat="47.875" lon="6.76567">
        <ele>503.6</ele>
        <time>2026-08-23T11:35:36.000Z</time>
      </trkpt>
      <trkpt lat="47.875" lon="6.7656">
        <ele>503.6</ele>
        <time>2026-08-23T11:35:38.000Z</time>
      </trkpt>
      <trkpt lat="47.875" lon="6.76554">
        <ele>503.6</ele>
        <time>2026-08-23T11:35:40.000Z</time>
      </trkpt>
      <trkpt lat="47.87499" lon="6.76552">
        <ele>503.6</ele>
        <time>2026-08-23T11:35:42.000Z</time>
      </trkpt>
      <trkpt lat="47.87499" lon="6.76552">
        <ele>503.8</ele>
        <time>2026-08-23T11:35:44.000Z</time>
      </trkpt>
      <trkpt lat="47.87499" lon="6.76553">
        <ele>503.6</ele>
        <time>2026-08-23T11:35:46.000Z</time>
      </trkpt>
      <trkpt lat="47.87499" lon="6.76553">
        <ele>503.6</ele>
        <time>2026-08-23T11:35:48.000Z</time>
      </trkpt>
      <trkpt lat="47.87499" lon="6.76551">
        <ele>503.6</ele>
        <time>2026-08-23T11:35:50.000Z</time>
      </trkpt>
      <trkpt lat="47.87499" lon="6.7654">
        <ele>503.6</ele>
        <time>2026-08-23T11:35:52.000Z</time>
      </trkpt>
      <trkpt lat="47.87498" lon="6.76526">
        <ele>503.4</ele>
        <time>2026-08-23T11:35:54.000Z</time>
      </trkpt>
      <trkpt lat="47.87498" lon="6.7651">
        <ele>503.4</ele>
        <time>2026-08-23T11:35:56.000Z</time>
      </trkpt>
      <trkpt lat="47.87497" lon="6.76491">
        <ele>503.2</ele>
        <time>2026-08-23T11:35:58.000Z</time>
      </trkpt>
      <trkpt lat="47.87496" lon="6.76472">
        <ele>503</ele>
        <time>2026-08-23T11:36:00.000Z</time>
      </trkpt>
      <trkpt lat="47.87495" lon="6.76452">
        <ele>503</ele>
        <time>2026-08-23T11:36:02.000Z</time>
      </trkpt>
      <trkpt lat="47.87495" lon="6.76434">
        <ele>502.8</ele>
        <time>2026-08-23T11:36:04.000Z</time>
      </trkpt>
      <trkpt lat="47.87495" lon="6.76416">
        <ele>502.8</ele>
        <time>2026-08-23T11:36:06.000Z</time>
      </trkpt>
      <trkpt lat="47.87495" lon="6.76399">
        <ele>502.8</ele>
        <time>2026-08-23T11:36:08.000Z</time>
      </trkpt>
      <trkpt lat="47.87496" lon="6.76383">
        <ele>502.8</ele>
        <time>2026-08-23T11:36:10.000Z</time>
      </trkpt>
      <trkpt lat="47.87497" lon="6.76367">
        <ele>502.8</ele>
        <time>2026-08-23T11:36:12.000Z</time>
      </trkpt>
      <trkpt lat="47.87497" lon="6.76352">
        <ele>502.8</ele>
        <time>2026-08-23T11:36:14.000Z</time>
      </trkpt>
      <trkpt lat="47.87497" lon="6.7634">
        <ele>503</ele>
        <time>2026-08-23T11:36:16.000Z</time>
      </trkpt>
      <trkpt lat="47.87499" lon="6.76331">
        <ele>503.4</ele>
        <time>2026-08-23T11:36:18.000Z</time>
      </trkpt>
      <trkpt lat="47.875" lon="6.76326">
        <ele>503.6</ele>
        <time>2026-08-23T11:36:20.000Z</time>
      </trkpt>
      <trkpt lat="47.875" lon="6.76323">
        <ele>503.8</ele>
        <time>2026-08-23T11:36:22.000Z</time>
      </trkpt>
      <trkpt lat="47.87503" lon="6.76321">
        <ele>503.8</ele>
        <time>2026-08-23T11:36:24.000Z</time>
      </trkpt>
      <trkpt lat="47.87507" lon="6.76317">
        <ele>503.8</ele>
        <time>2026-08-23T11:36:26.000Z</time>
      </trkpt>
      <trkpt lat="47.8751" lon="6.7631">
        <ele>503.8</ele>
        <time>2026-08-23T11:36:28.000Z</time>
      </trkpt>
      <trkpt lat="47.87511" lon="6.76304">
        <ele>504</ele>
        <time>2026-08-23T11:36:30.000Z</time>
      </trkpt>
      <trkpt lat="47.87511" lon="6.76301">
        <ele>504</ele>
        <time>2026-08-23T11:36:32.000Z</time>
      </trkpt>
      <trkpt lat="47.87511" lon="6.76301">
        <ele>504</ele>
        <time>2026-08-23T11:36:34.000Z</time>
      </trkpt>
      <trkpt lat="47.87511" lon="6.76302">
        <ele>504</ele>
        <time>2026-08-23T11:36:36.000Z</time>
      </trkpt>
      <trkpt lat="47.87511" lon="6.76302">
        <ele>504</ele>
        <time>2026-08-23T11:36:38.000Z</time>
      </trkpt>
      <trkpt lat="47.87511" lon="6.76302">
        <ele>504</ele>
        <time>2026-08-23T11:36:40.000Z</time>
      </trkpt>
      <trkpt lat="47.87511" lon="6.76303">
        <ele>504.2</ele>
        <time>2026-08-23T11:36:42.000Z</time>
      </trkpt>
      <trkpt lat="47.8751" lon="6.76303">
        <ele>504.2</ele>
        <time>2026-08-23T11:36:44.000Z</time>
      </trkpt>
      <trkpt lat="47.8751" lon="6.76303">
        <ele>504.2</ele>
        <time>2026-08-23T11:36:46.000Z</time>
      </trkpt>
      <trkpt lat="47.8751" lon="6.76303">
        <ele>504.2</ele>
        <time>2026-08-23T11:36:48.000Z</time>
      </trkpt>
      <trkpt lat="47.8751" lon="6.76302">
        <ele>504.2</ele>
        <time>2026-08-23T11:36:51.000Z</time>
      </trkpt>
      <trkpt lat="47.8751" lon="6.76302">
        <ele>504.2</ele>
        <time>2026-08-23T11:36:53.000Z</time>
      </trkpt>
      <trkpt lat="47.8751" lon="6.76302">
        <ele>504</ele>
        <time>2026-08-23T11:36:55.000Z</time>
      </trkpt>
      <trkpt lat="47.8751" lon="6.76302">
        <ele>504</ele>
        <time>2026-08-23T11:36:57.000Z</time>
      </trkpt>
      <trkpt lat="47.8751" lon="6.76302">
        <ele>504</ele>
        <time>2026-08-23T11:36:59.000Z</time>
      </trkpt>
      <trkpt lat="47.87511" lon="6.76302">
        <ele>504</ele>
        <time>2026-08-23T11:37:01.000Z</time>
      </trkpt>
      <trkpt lat="47.87511" lon="6.76302">
        <ele>504</ele>
        <time>2026-08-23T11:37:03.000Z</time>
      </trkpt>
      <trkpt lat="47.87511" lon="6.76302">
        <ele>504</ele>
        <time>2026-08-23T11:37:05.000Z</time>
      </trkpt>
      <trkpt lat="47.87511" lon="6.76302">
        <ele>504</ele>
        <time>2026-08-23T11:37:07.000Z</time>
      </trkpt>
      <trkpt lat="47.87511" lon="6.76302">
        <ele>504</ele>
        <time>2026-08-23T11:37:09.000Z</time>
      </trkpt>
      <trkpt lat="47.87511" lon="6.76302">
        <ele>504</ele>
        <time>2026-08-23T11:37:11.000Z</time>
      </trkpt>
      <trkpt lat="47.87511" lon="6.76302">
        <ele>504</ele>
        <time>2026-08-23T11:37:13.000Z</time>
      </trkpt>
      <trkpt lat="47.87511" lon="6.76302">
        <ele>504</ele>
        <time>2026-08-23T11:37:15.000Z</time>
      </trkpt>
      <trkpt lat="47.87511" lon="6.76302">
        <ele>504</ele>
        <time>2026-08-23T11:37:17.000Z</time>
      </trkpt>
      <trkpt lat="47.87511" lon="6.76302">
        <ele>504</ele>
        <time>2026-08-23T11:37:19.000Z</time>
      </trkpt>
      <trkpt lat="47.87511" lon="6.76302">
        <ele>504</ele>
        <time>2026-08-23T11:37:21.000Z</time>
      </trkpt>
      <trkpt lat="47.87511" lon="6.76302">
        <ele>504.2</ele>
        <time>2026-08-23T11:37:23.000Z</time>
      </trkpt>
      <trkpt lat="47.87511" lon="6.76302">
        <ele>504.2</ele>
        <time>2026-08-23T11:37:25.000Z</time>
      </trkpt>
      <trkpt lat="47.87511" lon="6.76302">
        <ele>504.2</ele>
        <time>2026-08-23T11:37:27.000Z</time>
      </trkpt>
      <trkpt lat="47.87511" lon="6.76302">
        <ele>504.4</ele>
        <time>2026-08-23T11:37:29.000Z</time>
      </trkpt>
      <trkpt lat="47.87511" lon="6.76302">
        <ele>504.4</ele>
        <time>2026-08-23T11:37:31.000Z</time>
      </trkpt>
      <trkpt lat="47.87511" lon="6.76302">
        <ele>504.4</ele>
        <time>2026-08-23T11:37:33.000Z</time>
      </trkpt>
      <trkpt lat="47.8751" lon="6.76302">
        <ele>504.4</ele>
        <time>2026-08-23T11:37:35.000Z</time>
      </trkpt>
      <trkpt lat="47.8751" lon="6.76302">
        <ele>504.2</ele>
        <time>2026-08-23T11:37:37.000Z</time>
      </trkpt>
      <trkpt lat="47.8751" lon="6.76302">
        <ele>504.2</ele>
        <time>2026-08-23T11:37:39.000Z</time>
      </trkpt>
      <trkpt lat="47.8751" lon="6.76302">
        <ele>504.2</ele>
        <time>2026-08-23T11:37:41.000Z</time>
      </trkpt>
      <trkpt lat="47.8751" lon="6.76302">
        <ele>504.2</ele>
        <time>2026-08-23T11:37:43.000Z</time>
      </trkpt>
      <trkpt lat="47.8751" lon="6.76302">
        <ele>504.2</ele>
        <time>2026-08-23T11:37:45.000Z</time>
      </trkpt>
      <trkpt lat="47.8751" lon="6.76302">
        <ele>504.2</ele>
        <time>2026-08-23T11:37:47.000Z</time>
      </trkpt>
      <trkpt lat="47.8751" lon="6.76302">
        <ele>504</ele>
        <time>2026-08-23T11:37:49.000Z</time>
      </trkpt>
      <trkpt lat="47.8751" lon="6.76302">
        <ele>504</ele>
        <time>2026-08-23T11:37:51.000Z</time>
      </trkpt>
      <trkpt lat="47.8751" lon="6.76302">
        <ele>504</ele>
        <time>2026-08-23T11:37:53.000Z</time>
      </trkpt>
      <trkpt lat="47.8751" lon="6.76302">
        <ele>504</ele>
        <time>2026-08-23T11:37:55.000Z</time>
      </trkpt>
      <trkpt lat="47.8751" lon="6.76302">
        <ele>504.2</ele>
        <time>2026-08-23T11:37:57.000Z</time>
      </trkpt>
      <trkpt lat="47.87509" lon="6.76302">
        <ele>504.2</ele>
        <time>2026-08-23T11:37:59.000Z</time>
      </trkpt>
      <trkpt lat="47.87509" lon="6.76302">
        <ele>504.2</ele>
        <time>2026-08-23T11:38:01.000Z</time>
      </trkpt>
      <trkpt lat="47.87509" lon="6.76302">
        <ele>504</ele>
        <time>2026-08-23T11:38:03.000Z</time>
      </trkpt>
      <trkpt lat="47.87509" lon="6.76302">
        <ele>504</ele>
        <time>2026-08-23T11:38:05.000Z</time>
      </trkpt>
      <trkpt lat="47.87509" lon="6.76302">
        <ele>504</ele>
        <time>2026-08-23T11:38:07.000Z</time>
      </trkpt>
      <trkpt lat="47.87509" lon="6.76302">
        <ele>504</ele>
        <time>2026-08-23T11:38:09.000Z</time>
      </trkpt>
      <trkpt lat="47.87509" lon="6.76302">
        <ele>504</ele>
        <time>2026-08-23T11:38:11.000Z</time>
      </trkpt>
      <trkpt lat="47.87509" lon="6.76302">
        <ele>504</ele>
        <time>2026-08-23T11:38:13.000Z</time>
      </trkpt>
      <trkpt lat="47.87509" lon="6.76302">
        <ele>504</ele>
        <time>2026-08-23T11:38:15.000Z</time>
      </trkpt>
      <trkpt lat="47.87509" lon="6.76302">
        <ele>504</ele>
        <time>2026-08-23T11:38:17.000Z</time>
      </trkpt>
      <trkpt lat="47.87509" lon="6.76302">
        <ele>504</ele>
        <time>2026-08-23T11:38:19.000Z</time>
      </trkpt>
      <trkpt lat="47.87509" lon="6.76302">
        <ele>504</ele>
        <time>2026-08-23T11:38:21.000Z</time>
      </trkpt>
      <trkpt lat="47.87509" lon="6.76302">
        <ele>503.8</ele>
        <time>2026-08-23T11:38:23.000Z</time>
      </trkpt>
      <trkpt lat="47.87509" lon="6.76302">
        <ele>503.8</ele>
        <time>2026-08-23T11:38:25.000Z</time>
      </trkpt>
      <trkpt lat="47.87509" lon="6.76302">
        <ele>503.8</ele>
        <time>2026-08-23T11:38:27.000Z</time>
      </trkpt>
      <trkpt lat="47.87509" lon="6.76302">
        <ele>503.8</ele>
        <time>2026-08-23T11:38:29.000Z</time>
      </trkpt>
      <trkpt lat="47.87509" lon="6.76302">
        <ele>503.8</ele>
        <time>2026-08-23T11:38:31.000Z</time>
      </trkpt>
      <trkpt lat="47.87509" lon="6.76302">
        <ele>504</ele>
        <time>2026-08-23T11:38:33.000Z</time>
      </trkpt>
      <trkpt lat="47.87509" lon="6.76302">
        <ele>504</ele>
        <time>2026-08-23T11:38:36.000Z</time>
      </trkpt>
      <trkpt lat="47.87509" lon="6.76302">
        <ele>504</ele>
        <time>2026-08-23T11:38:38.000Z</time>
      </trkpt>
      <trkpt lat="47.87509" lon="6.76302">
        <ele>504</ele>
        <time>2026-08-23T11:38:40.000Z</time>
      </trkpt>
      <trkpt lat="47.87509" lon="6.76303">
        <ele>504</ele>
        <time>2026-08-23T11:38:42.000Z</time>
      </trkpt>
      <trkpt lat="47.87509" lon="6.76303">
        <ele>504</ele>
        <time>2026-08-23T11:38:44.000Z</time>
      </trkpt>
      <trkpt lat="47.87509" lon="6.76303">
        <ele>504</ele>
        <time>2026-08-23T11:38:46.000Z</time>
      </trkpt>
      <trkpt lat="47.87509" lon="6.76303">
        <ele>503.8</ele>
        <time>2026-08-23T11:38:48.000Z</time>
      </trkpt>
      <trkpt lat="47.8751" lon="6.76303">
        <ele>503.8</ele>
        <time>2026-08-23T11:38:50.000Z</time>
      </trkpt>
      <trkpt lat="47.8751" lon="6.76303">
        <ele>503.8</ele>
        <time>2026-08-23T11:38:52.000Z</time>
      </trkpt>
      <trkpt lat="47.8751" lon="6.76303">
        <ele>503.8</ele>
        <time>2026-08-23T11:38:54.000Z</time>
      </trkpt>
      <trkpt lat="47.8751" lon="6.76303">
        <ele>503.8</ele>
        <time>2026-08-23T11:38:56.000Z</time>
      </trkpt>
      <trkpt lat="47.8751" lon="6.76303">
        <ele>503.8</ele>
        <time>2026-08-23T11:38:58.000Z</time>
      </trkpt>
      <trkpt lat="47.8751" lon="6.76303">
        <ele>503.8</ele>
        <time>2026-08-23T11:39:00.000Z</time>
      </trkpt>
      <trkpt lat="47.87509" lon="6.76304">
        <ele>503.8</ele>
        <time>2026-08-23T11:39:02.000Z</time>
      </trkpt>
      <trkpt lat="47.87509" lon="6.76305">
        <ele>503.8</ele>
        <time>2026-08-23T11:39:04.000Z</time>
      </trkpt>
      <trkpt lat="47.87509" lon="6.76306">
        <ele>503.8</ele>
        <time>2026-08-23T11:39:06.000Z</time>
      </trkpt>
      <trkpt lat="47.87508" lon="6.76308">
        <ele>503.6</ele>
        <time>2026-08-23T11:39:08.000Z</time>
      </trkpt>
      <trkpt lat="47.87508" lon="6.76308">
        <ele>503.6</ele>
        <time>2026-08-23T11:39:10.000Z</time>
      </trkpt>
      <trkpt lat="47.87508" lon="6.76308">
        <ele>503.6</ele>
        <time>2026-08-23T11:39:12.000Z</time>
      </trkpt>
      <trkpt lat="47.87508" lon="6.76308">
        <ele>503.6</ele>
        <time>2026-08-23T11:39:14.000Z</time>
      </trkpt>
      <trkpt lat="47.87508" lon="6.76308">
        <ele>503.6</ele>
        <time>2026-08-23T11:39:16.000Z</time>
      </trkpt>
      <trkpt lat="47.87508" lon="6.76308">
        <ele>503.6</ele>
        <time>2026-08-23T11:39:18.000Z</time>
      </trkpt>
      <trkpt lat="47.87508" lon="6.76308">
        <ele>503.6</ele>
        <time>2026-08-23T11:39:20.000Z</time>
      </trkpt>
      <trkpt lat="47.87508" lon="6.76308">
        <ele>503.6</ele>
        <time>2026-08-23T11:39:22.000Z</time>
      </trkpt>
      <trkpt lat="47.87508" lon="6.76308">
        <ele>503.6</ele>
        <time>2026-08-23T11:39:24.000Z</time>
      </trkpt>
      <trkpt lat="47.87508" lon="6.76309">
        <ele>503.6</ele>
        <time>2026-08-23T11:39:26.000Z</time>
      </trkpt>
      <trkpt lat="47.87508" lon="6.76309">
        <ele>503.4</ele>
        <time>2026-08-23T11:39:28.000Z</time>
      </trkpt>
      <trkpt lat="47.87508" lon="6.76309">
        <ele>503.4</ele>
        <time>2026-08-23T11:39:30.000Z</time>
      </trkpt>
      <trkpt lat="47.87508" lon="6.76309">
        <ele>503.4</ele>
        <time>2026-08-23T11:39:32.000Z</time>
      </trkpt>
      <trkpt lat="47.87508" lon="6.76309">
        <ele>503.4</ele>
        <time>2026-08-23T11:39:34.000Z</time>
      </trkpt>
      <trkpt lat="47.87508" lon="6.76309">
        <ele>503.4</ele>
        <time>2026-08-23T11:39:36.000Z</time>
      </trkpt>
      <trkpt lat="47.87508" lon="6.76309">
        <ele>503.4</ele>
        <time>2026-08-23T11:39:38.000Z</time>
      </trkpt>
      <trkpt lat="47.87508" lon="6.76309">
        <ele>503.4</ele>
        <time>2026-08-23T11:39:40.000Z</time>
      </trkpt>
      <trkpt lat="47.87508" lon="6.76309">
        <ele>503.4</ele>
        <time>2026-08-23T11:39:42.000Z</time>
      </trkpt>
      <trkpt lat="47.87508" lon="6.76309">
        <ele>503.4</ele>
        <time>2026-08-23T11:39:44.000Z</time>
      </trkpt>
      <trkpt lat="47.87508" lon="6.7631">
        <ele>503.4</ele>
        <time>2026-08-23T11:39:46.000Z</time>
      </trkpt>
      <trkpt lat="47.87508" lon="6.76309">
        <ele>503.4</ele>
        <time>2026-08-23T11:39:48.000Z</time>
      </trkpt>
      <trkpt lat="47.87508" lon="6.7631">
        <ele>503.4</ele>
        <time>2026-08-23T11:39:50.000Z</time>
      </trkpt>
      <trkpt lat="47.87508" lon="6.7631">
        <ele>503.4</ele>
        <time>2026-08-23T11:39:52.000Z</time>
      </trkpt>
      <trkpt lat="47.87508" lon="6.7631">
        <ele>503.4</ele>
        <time>2026-08-23T11:39:54.000Z</time>
      </trkpt>
      <trkpt lat="47.87508" lon="6.76309">
        <ele>503.4</ele>
        <time>2026-08-23T11:39:56.000Z</time>
      </trkpt>
      <trkpt lat="47.87508" lon="6.76309">
        <ele>503.4</ele>
        <time>2026-08-23T11:39:58.000Z</time>
      </trkpt>
      <trkpt lat="47.87508" lon="6.76309">
        <ele>503.4</ele>
        <time>2026-08-23T11:40:00.000Z</time>
      </trkpt>
      <trkpt lat="47.87508" lon="6.76309">
        <ele>503.4</ele>
        <time>2026-08-23T11:40:02.000Z</time>
      </trkpt>
      <trkpt lat="47.87508" lon="6.7631">
        <ele>503.4</ele>
        <time>2026-08-23T11:40:04.000Z</time>
      </trkpt>
      <trkpt lat="47.87508" lon="6.7631">
        <ele>503.4</ele>
        <time>2026-08-23T11:40:06.000Z</time>
      </trkpt>
      <trkpt lat="47.87508" lon="6.7631">
        <ele>503.4</ele>
        <time>2026-08-23T11:40:08.000Z</time>
      </trkpt>
      <trkpt lat="47.87508" lon="6.7631">
        <ele>503.4</ele>
        <time>2026-08-23T11:40:10.000Z</time>
      </trkpt>
      <trkpt lat="47.87509" lon="6.7631">
        <ele>503.4</ele>
        <time>2026-08-23T11:40:12.000Z</time>
      </trkpt>
      <trkpt lat="47.87509" lon="6.7631">
        <ele>503.6</ele>
        <time>2026-08-23T11:40:15.000Z</time>
      </trkpt>
      <trkpt lat="47.87509" lon="6.7631">
        <ele>503.6</ele>
        <time>2026-08-23T11:40:17.000Z</time>
      </trkpt>
      <trkpt lat="47.87509" lon="6.76309">
        <ele>503.6</ele>
        <time>2026-08-23T11:40:19.000Z</time>
      </trkpt>
      <trkpt lat="47.87509" lon="6.76309">
        <ele>503.6</ele>
        <time>2026-08-23T11:40:21.000Z</time>
      </trkpt>
      <trkpt lat="47.87509" lon="6.76309">
        <ele>503.6</ele>
        <time>2026-08-23T11:40:23.000Z</time>
      </trkpt>
      <trkpt lat="47.87509" lon="6.76309">
        <ele>503.6</ele>
        <time>2026-08-23T11:40:25.000Z</time>
      </trkpt>
      <trkpt lat="47.87508" lon="6.7631">
        <ele>503.6</ele>
        <time>2026-08-23T11:40:27.000Z</time>
      </trkpt>
      <trkpt lat="47.87508" lon="6.7631">
        <ele>503.6</ele>
        <time>2026-08-23T11:40:29.000Z</time>
      </trkpt>
      <trkpt lat="47.87509" lon="6.7631">
        <ele>503.6</ele>
        <time>2026-08-23T11:40:31.000Z</time>
      </trkpt>
      <trkpt lat="47.87509" lon="6.7631">
        <ele>503.8</ele>
        <time>2026-08-23T11:40:33.000Z</time>
      </trkpt>
      <trkpt lat="47.87509" lon="6.7631">
        <ele>503.8</ele>
        <time>2026-08-23T11:40:35.000Z</time>
      </trkpt>
      <trkpt lat="47.87508" lon="6.7631">
        <ele>503.8</ele>
        <time>2026-08-23T11:40:37.000Z</time>
      </trkpt>
      <trkpt lat="47.87508" lon="6.7631">
        <ele>503.6</ele>
        <time>2026-08-23T11:40:39.000Z</time>
      </trkpt>
      <trkpt lat="47.87508" lon="6.7631">
        <ele>503.6</ele>
        <time>2026-08-23T11:40:41.000Z</time>
      </trkpt>
      <trkpt lat="47.87508" lon="6.7631">
        <ele>503.6</ele>
        <time>2026-08-23T11:40:43.000Z</time>
      </trkpt>
      <trkpt lat="47.87509" lon="6.76309">
        <ele>503.6</ele>
        <time>2026-08-23T11:40:45.000Z</time>
      </trkpt>
      <trkpt lat="47.87509" lon="6.76309">
        <ele>503.6</ele>
        <time>2026-08-23T11:40:47.000Z</time>
      </trkpt>
      <trkpt lat="47.87509" lon="6.76309">
        <ele>503.6</ele>
        <time>2026-08-23T11:40:49.000Z</time>
      </trkpt>
      <trkpt lat="47.87509" lon="6.76309">
        <ele>503.6</ele>
        <time>2026-08-23T11:40:51.000Z</time>
      </trkpt>
      <trkpt lat="47.87509" lon="6.76309">
        <ele>503.6</ele>
        <time>2026-08-23T11:40:53.000Z</time>
      </trkpt>
      <trkpt lat="47.87509" lon="6.76309">
        <ele>503.6</ele>
        <time>2026-08-23T11:40:55.000Z</time>
      </trkpt>
      <trkpt lat="47.87509" lon="6.76309">
        <ele>503.6</ele>
        <time>2026-08-23T11:40:57.000Z</time>
      </trkpt>
      <trkpt lat="47.87509" lon="6.76309">
        <ele>503.8</ele>
        <time>2026-08-23T11:40:59.000Z</time>
      </trkpt>
      <trkpt lat="47.87509" lon="6.76309">
        <ele>503.8</ele>
        <time>2026-08-23T11:41:01.000Z</time>
      </trkpt>
      <trkpt lat="47.87509" lon="6.76309">
        <ele>503.8</ele>
        <time>2026-08-23T11:41:03.000Z</time>
      </trkpt>
      <trkpt lat="47.87509" lon="6.76309">
        <ele>503.8</ele>
        <time>2026-08-23T11:41:05.000Z</time>
      </trkpt>
      <trkpt lat="47.87509" lon="6.7631">
        <ele>503.8</ele>
        <time>2026-08-23T11:41:07.000Z</time>
      </trkpt>
      <trkpt lat="47.87509" lon="6.7631">
        <ele>503.8</ele>
        <time>2026-08-23T11:41:09.000Z</time>
      </trkpt>
      <trkpt lat="47.87509" lon="6.7631">
        <ele>503.8</ele>
        <time>2026-08-23T11:41:11.000Z</time>
      </trkpt>
      <trkpt lat="47.87509" lon="6.7631">
        <ele>503.8</ele>
        <time>2026-08-23T11:41:13.000Z</time>
      </trkpt>
      <trkpt lat="47.87509" lon="6.7631">
        <ele>503.8</ele>
        <time>2026-08-23T11:41:15.000Z</time>
      </trkpt>
      <trkpt lat="47.87509" lon="6.7631">
        <ele>503.8</ele>
        <time>2026-08-23T11:41:17.000Z</time>
      </trkpt>
      <trkpt lat="47.87509" lon="6.7631">
        <ele>503.8</ele>
        <time>2026-08-23T11:41:19.000Z</time>
      </trkpt>
      <trkpt lat="47.87509" lon="6.7631">
        <ele>503.8</ele>
        <time>2026-08-23T11:41:21.000Z</time>
      </trkpt>
      <trkpt lat="47.87509" lon="6.7631">
        <ele>503.8</ele>
        <time>2026-08-23T11:41:23.000Z</time>
      </trkpt>
      <trkpt lat="47.87509" lon="6.7631">
        <ele>503.8</ele>
        <time>2026-08-23T11:41:25.000Z</time>
      </trkpt>
      <trkpt lat="47.87509" lon="6.7631">
        <ele>503.8</ele>
        <time>2026-08-23T11:41:27.000Z</time>
      </trkpt>
      <trkpt lat="47.87509" lon="6.7631">
        <ele>503.8</ele>
        <time>2026-08-23T11:41:29.000Z</time>
      </trkpt>
      <trkpt lat="47.87509" lon="6.7631">
        <ele>503.8</ele>
        <time>2026-08-23T11:41:31.000Z</time>
      </trkpt>
      <trkpt lat="47.87509" lon="6.7631">
        <ele>503.8</ele>
        <time>2026-08-23T11:41:33.000Z</time>
      </trkpt>
      <trkpt lat="47.87509" lon="6.7631">
        <ele>503.8</ele>
        <time>2026-08-23T11:41:35.000Z</time>
      </trkpt>
      <trkpt lat="47.87509" lon="6.7631">
        <ele>503.8</ele>
        <time>2026-08-23T11:41:37.000Z</time>
      </trkpt>
      <trkpt lat="47.87509" lon="6.7631">
        <ele>503.8</ele>
        <time>2026-08-23T11:41:39.000Z</time>
      </trkpt>
      <trkpt lat="47.87509" lon="6.7631">
        <ele>503.8</ele>
        <time>2026-08-23T11:41:41.000Z</time>
      </trkpt>
      <trkpt lat="47.87509" lon="6.7631">
        <ele>503.8</ele>
        <time>2026-08-23T11:41:43.000Z</time>
      </trkpt>
      <trkpt lat="47.87509" lon="6.7631">
        <ele>503.8</ele>
        <time>2026-08-23T11:41:45.000Z</time>
      </trkpt>
      <trkpt lat="47.87509" lon="6.7631">
        <ele>503.6</ele>
        <time>2026-08-23T11:41:47.000Z</time>
      </trkpt>
      <trkpt lat="47.87509" lon="6.7631">
        <ele>503.6</ele>
        <time>2026-08-23T11:41:49.000Z</time>
      </trkpt>
      <trkpt lat="47.87509" lon="6.7631">
        <ele>503.6</ele>
        <time>2026-08-23T11:41:51.000Z</time>
      </trkpt>
      <trkpt lat="47.87509" lon="6.7631">
        <ele>503.6</ele>
        <time>2026-08-23T11:41:53.000Z</time>
      </trkpt>
      <trkpt lat="47.87509" lon="6.7631">
        <ele>503.6</ele>
        <time>2026-08-23T11:41:55.000Z</time>
      </trkpt>
      <trkpt lat="47.87509" lon="6.7631">
        <ele>503.6</ele>
        <time>2026-08-23T11:41:57.000Z</time>
      </trkpt>
      <trkpt lat="47.87509" lon="6.7631">
        <ele>503.6</ele>
        <time>2026-08-23T11:41:59.000Z</time>
      </trkpt>
      <trkpt lat="47.87509" lon="6.7631">
        <ele>503.6</ele>
        <time>2026-08-23T11:42:01.000Z</time>
      </trkpt>
      <trkpt lat="47.87509" lon="6.7631">
        <ele>503.6</ele>
        <time>2026-08-23T11:42:03.000Z</time>
      </trkpt>
      <trkpt lat="47.87509" lon="6.7631">
        <ele>503.6</ele>
        <time>2026-08-23T11:42:05.000Z</time>
      </trkpt>
      <trkpt lat="47.87509" lon="6.7631">
        <ele>503.6</ele>
        <time>2026-08-23T11:42:07.000Z</time>
      </trkpt>
      <trkpt lat="47.87509" lon="6.7631">
        <ele>503.6</ele>
        <time>2026-08-23T11:42:09.000Z</time>
      </trkpt>
      <trkpt lat="47.87509" lon="6.7631">
        <ele>503.6</ele>
        <time>2026-08-23T11:42:11.000Z</time>
      </trkpt>
      <trkpt lat="47.87508" lon="6.76313">
        <ele>503.6</ele>
        <time>2026-08-23T11:42:13.000Z</time>
      </trkpt>
      <trkpt lat="47.87506" lon="6.76315">
        <ele>503.6</ele>
        <time>2026-08-23T11:42:15.000Z</time>
      </trkpt>
      <trkpt lat="47.87501" lon="6.7631">
        <ele>503.6</ele>
        <time>2026-08-23T11:42:17.000Z</time>
      </trkpt>
      <trkpt lat="47.87497" lon="6.76298">
        <ele>503.4</ele>
        <time>2026-08-23T11:42:19.000Z</time>
      </trkpt>
      <trkpt lat="47.87493" lon="6.76281">
        <ele>503.4</ele>
        <time>2026-08-23T11:42:21.000Z</time>
      </trkpt>
      <trkpt lat="47.87491" lon="6.76262">
        <ele>503.4</ele>
        <time>2026-08-23T11:42:23.000Z</time>
      </trkpt>
      <trkpt lat="47.87489" lon="6.76242">
        <ele>503.4</ele>
        <time>2026-08-23T11:42:25.000Z</time>
      </trkpt>
      <trkpt lat="47.87488" lon="6.76223">
        <ele>503.4</ele>
        <time>2026-08-23T11:42:27.000Z</time>
      </trkpt>
      <trkpt lat="47.87486" lon="6.76206">
        <ele>503.6</ele>
        <time>2026-08-23T11:42:29.000Z</time>
      </trkpt>
      <trkpt lat="47.87483" lon="6.76189">
        <ele>504</ele>
        <time>2026-08-23T11:42:32.000Z</time>
      </trkpt>
      <trkpt lat="47.87479" lon="6.76174">
        <ele>504.2</ele>
        <time>2026-08-23T11:42:34.000Z</time>
      </trkpt>
      <trkpt lat="47.87474" lon="6.76158">
        <ele>504.6</ele>
        <time>2026-08-23T11:42:36.000Z</time>
      </trkpt>
      <trkpt lat="47.87469" lon="6.76143">
        <ele>505</ele>
        <time>2026-08-23T11:42:38.000Z</time>
      </trkpt>
      <trkpt lat="47.87465" lon="6.76128">
        <ele>505.4</ele>
        <time>2026-08-23T11:42:40.000Z</time>
      </trkpt>
      <trkpt lat="47.87462" lon="6.76114">
        <ele>505.8</ele>
        <time>2026-08-23T11:42:42.000Z</time>
      </trkpt>
      <trkpt lat="47.87458" lon="6.76102">
        <ele>506.4</ele>
        <time>2026-08-23T11:42:44.000Z</time>
      </trkpt>
      <trkpt lat="47.87454" lon="6.7609">
        <ele>506.8</ele>
        <time>2026-08-23T11:42:46.000Z</time>
      </trkpt>
      <trkpt lat="47.8745" lon="6.76078">
        <ele>507.2</ele>
        <time>2026-08-23T11:42:48.000Z</time>
      </trkpt>
      <trkpt lat="47.87447" lon="6.76067">
        <ele>507.8</ele>
        <time>2026-08-23T11:42:50.000Z</time>
      </trkpt>
      <trkpt lat="47.87443" lon="6.76056">
        <ele>508.4</ele>
        <time>2026-08-23T11:42:52.000Z</time>
      </trkpt>
      <trkpt lat="47.8744" lon="6.76045">
        <ele>508.8</ele>
        <time>2026-08-23T11:42:54.000Z</time>
      </trkpt>
      <trkpt lat="47.87436" lon="6.76035">
        <ele>509.4</ele>
        <time>2026-08-23T11:42:56.000Z</time>
      </trkpt>
      <trkpt lat="47.87432" lon="6.76026">
        <ele>510</ele>
        <time>2026-08-23T11:42:58.000Z</time>
      </trkpt>
      <trkpt lat="47.87427" lon="6.76016">
        <ele>510.6</ele>
        <time>2026-08-23T11:43:00.000Z</time>
      </trkpt>
      <trkpt lat="47.8742" lon="6.76006">
        <ele>511.2</ele>
        <time>2026-08-23T11:43:02.000Z</time>
      </trkpt>
      <trkpt lat="47.87415" lon="6.75999">
        <ele>511.6</ele>
        <time>2026-08-23T11:43:04.000Z</time>
      </trkpt>
      <trkpt lat="47.8741" lon="6.75992">
        <ele>512</ele>
        <time>2026-08-23T11:43:06.000Z</time>
      </trkpt>
      <trkpt lat="47.87405" lon="6.75985">
        <ele>512.4</ele>
        <time>2026-08-23T11:43:08.000Z</time>
      </trkpt>
      <trkpt lat="47.874" lon="6.75979">
        <ele>513</ele>
        <time>2026-08-23T11:43:10.000Z</time>
      </trkpt>
      <trkpt lat="47.87395" lon="6.75973">
        <ele>513.4</ele>
        <time>2026-08-23T11:43:12.000Z</time>
      </trkpt>
      <trkpt lat="47.87391" lon="6.75966">
        <ele>513.8</ele>
        <time>2026-08-23T11:43:14.000Z</time>
      </trkpt>
      <trkpt lat="47.87386" lon="6.7596">
        <ele>514.2</ele>
        <time>2026-08-23T11:43:16.000Z</time>
      </trkpt>
      <trkpt lat="47.87381" lon="6.75954">
        <ele>514.6</ele>
        <time>2026-08-23T11:43:18.000Z</time>
      </trkpt>
      <trkpt lat="47.87377" lon="6.75948">
        <ele>515</ele>
        <time>2026-08-23T11:43:20.000Z</time>
      </trkpt>
      <trkpt lat="47.87373" lon="6.75942">
        <ele>515.4</ele>
        <time>2026-08-23T11:43:22.000Z</time>
      </trkpt>
      <trkpt lat="47.87369" lon="6.75937">
        <ele>515.8</ele>
        <time>2026-08-23T11:43:24.000Z</time>
      </trkpt>
      <trkpt lat="47.87365" lon="6.75931">
        <ele>516.2</ele>
        <time>2026-08-23T11:43:26.000Z</time>
      </trkpt>
      <trkpt lat="47.87361" lon="6.75926">
        <ele>516.6</ele>
        <time>2026-08-23T11:43:28.000Z</time>
      </trkpt>
      <trkpt lat="47.87356" lon="6.7592">
        <ele>517</ele>
        <time>2026-08-23T11:43:30.000Z</time>
      </trkpt>
      <trkpt lat="47.87351" lon="6.75913">
        <ele>517.4</ele>
        <time>2026-08-23T11:43:32.000Z</time>
      </trkpt>
      <trkpt lat="47.87347" lon="6.75907">
        <ele>517.6</ele>
        <time>2026-08-23T11:43:34.000Z</time>
      </trkpt>
      <trkpt lat="47.87342" lon="6.75901">
        <ele>518</ele>
        <time>2026-08-23T11:43:36.000Z</time>
      </trkpt>
      <trkpt lat="47.87338" lon="6.75895">
        <ele>518.6</ele>
        <time>2026-08-23T11:43:38.000Z</time>
      </trkpt>
      <trkpt lat="47.87334" lon="6.75889">
        <ele>519</ele>
        <time>2026-08-23T11:43:40.000Z</time>
      </trkpt>
      <trkpt lat="47.87329" lon="6.75883">
        <ele>519.2</ele>
        <time>2026-08-23T11:43:42.000Z</time>
      </trkpt>
      <trkpt lat="47.87324" lon="6.75877">
        <ele>519.6</ele>
        <time>2026-08-23T11:43:44.000Z</time>
      </trkpt>
      <trkpt lat="47.87319" lon="6.75872">
        <ele>520</ele>
        <time>2026-08-23T11:43:46.000Z</time>
      </trkpt>
      <trkpt lat="47.87314" lon="6.75867">
        <ele>520.2</ele>
        <time>2026-08-23T11:43:48.000Z</time>
      </trkpt>
      <trkpt lat="47.87309" lon="6.75862">
        <ele>520.6</ele>
        <time>2026-08-23T11:43:50.000Z</time>
      </trkpt>
      <trkpt lat="47.87303" lon="6.75857">
        <ele>521</ele>
        <time>2026-08-23T11:43:52.000Z</time>
      </trkpt>
      <trkpt lat="47.87298" lon="6.75852">
        <ele>521.4</ele>
        <time>2026-08-23T11:43:54.000Z</time>
      </trkpt>
      <trkpt lat="47.87293" lon="6.75848">
        <ele>521.6</ele>
        <time>2026-08-23T11:43:56.000Z</time>
      </trkpt>
      <trkpt lat="47.87287" lon="6.75843">
        <ele>522</ele>
        <time>2026-08-23T11:43:58.000Z</time>
      </trkpt>
      <trkpt lat="47.87282" lon="6.75839">
        <ele>522.4</ele>
        <time>2026-08-23T11:44:00.000Z</time>
      </trkpt>
      <trkpt lat="47.87277" lon="6.75835">
        <ele>522.6</ele>
        <time>2026-08-23T11:44:02.000Z</time>
      </trkpt>
      <trkpt lat="47.87272" lon="6.7583">
        <ele>522.8</ele>
        <time>2026-08-23T11:44:04.000Z</time>
      </trkpt>
      <trkpt lat="47.87267" lon="6.75827">
        <ele>523.2</ele>
        <time>2026-08-23T11:44:06.000Z</time>
      </trkpt>
      <trkpt lat="47.87262" lon="6.75823">
        <ele>523.8</ele>
        <time>2026-08-23T11:44:08.000Z</time>
      </trkpt>
      <trkpt lat="47.87256" lon="6.75819">
        <ele>524.2</ele>
        <time>2026-08-23T11:44:10.000Z</time>
      </trkpt>
      <trkpt lat="47.87251" lon="6.75813">
        <ele>524.4</ele>
        <time>2026-08-23T11:44:13.000Z</time>
      </trkpt>
      <trkpt lat="47.87246" lon="6.75808">
        <ele>524.8</ele>
        <time>2026-08-23T11:44:15.000Z</time>
      </trkpt>
      <trkpt lat="47.87241" lon="6.75803">
        <ele>525.4</ele>
        <time>2026-08-23T11:44:17.000Z</time>
      </trkpt>
      <trkpt lat="47.87235" lon="6.75798">
        <ele>525.8</ele>
        <time>2026-08-23T11:44:19.000Z</time>
      </trkpt>
      <trkpt lat="47.8723" lon="6.75794">
        <ele>526.2</ele>
        <time>2026-08-23T11:44:21.000Z</time>
      </trkpt>
      <trkpt lat="47.87225" lon="6.75789">
        <ele>526.6</ele>
        <time>2026-08-23T11:44:23.000Z</time>
      </trkpt>
      <trkpt lat="47.8722" lon="6.75785">
        <ele>527</ele>
        <time>2026-08-23T11:44:25.000Z</time>
      </trkpt>
      <trkpt lat="47.87214" lon="6.7578">
        <ele>527.6</ele>
        <time>2026-08-23T11:44:27.000Z</time>
      </trkpt>
      <trkpt lat="47.87209" lon="6.75776">
        <ele>528</ele>
        <time>2026-08-23T11:44:29.000Z</time>
      </trkpt>
      <trkpt lat="47.87203" lon="6.75771">
        <ele>528.4</ele>
        <time>2026-08-23T11:44:31.000Z</time>
      </trkpt>
      <trkpt lat="47.87198" lon="6.75767">
        <ele>529</ele>
        <time>2026-08-23T11:44:33.000Z</time>
      </trkpt>
      <trkpt lat="47.87193" lon="6.75762">
        <ele>529.4</ele>
        <time>2026-08-23T11:44:35.000Z</time>
      </trkpt>
      <trkpt lat="47.87188" lon="6.75757">
        <ele>529.8</ele>
        <time>2026-08-23T11:44:37.000Z</time>
      </trkpt>
      <trkpt lat="47.87182" lon="6.75753">
        <ele>530.2</ele>
        <time>2026-08-23T11:44:39.000Z</time>
      </trkpt>
      <trkpt lat="47.87177" lon="6.7575">
        <ele>530.6</ele>
        <time>2026-08-23T11:44:41.000Z</time>
      </trkpt>
      <trkpt lat="47.87171" lon="6.75747">
        <ele>531.2</ele>
        <time>2026-08-23T11:44:43.000Z</time>
      </trkpt>
      <trkpt lat="47.87166" lon="6.75744">
        <ele>531.6</ele>
        <time>2026-08-23T11:44:45.000Z</time>
      </trkpt>
      <trkpt lat="47.8716" lon="6.75742">
        <ele>531.8</ele>
        <time>2026-08-23T11:44:47.000Z</time>
      </trkpt>
      <trkpt lat="47.87155" lon="6.75741">
        <ele>532.2</ele>
        <time>2026-08-23T11:44:49.000Z</time>
      </trkpt>
      <trkpt lat="47.8715" lon="6.7574">
        <ele>532.6</ele>
        <time>2026-08-23T11:44:51.000Z</time>
      </trkpt>
      <trkpt lat="47.87144" lon="6.75738">
        <ele>533</ele>
        <time>2026-08-23T11:44:53.000Z</time>
      </trkpt>
      <trkpt lat="47.87139" lon="6.75737">
        <ele>533.2</ele>
        <time>2026-08-23T11:44:55.000Z</time>
      </trkpt>
      <trkpt lat="47.87134" lon="6.75735">
        <ele>533.6</ele>
        <time>2026-08-23T11:44:57.000Z</time>
      </trkpt>
      <trkpt lat="47.87128" lon="6.75733">
        <ele>534</ele>
        <time>2026-08-23T11:44:59.000Z</time>
      </trkpt>
      <trkpt lat="47.87123" lon="6.75732">
        <ele>534.4</ele>
        <time>2026-08-23T11:45:01.000Z</time>
      </trkpt>
      <trkpt lat="47.87117" lon="6.75731">
        <ele>534.6</ele>
        <time>2026-08-23T11:45:03.000Z</time>
      </trkpt>
      <trkpt lat="47.87111" lon="6.75729">
        <ele>535</ele>
        <time>2026-08-23T11:45:05.000Z</time>
      </trkpt>
      <trkpt lat="47.87106" lon="6.75728">
        <ele>535.4</ele>
        <time>2026-08-23T11:45:07.000Z</time>
      </trkpt>
      <trkpt lat="47.871" lon="6.75728">
        <ele>535.6</ele>
        <time>2026-08-23T11:45:09.000Z</time>
      </trkpt>
      <trkpt lat="47.87094" lon="6.75728">
        <ele>536</ele>
        <time>2026-08-23T11:45:11.000Z</time>
      </trkpt>
      <trkpt lat="47.87088" lon="6.75728">
        <ele>536.4</ele>
        <time>2026-08-23T11:45:13.000Z</time>
      </trkpt>
      <trkpt lat="47.87082" lon="6.75729">
        <ele>536.6</ele>
        <time>2026-08-23T11:45:15.000Z</time>
      </trkpt>
      <trkpt lat="47.87075" lon="6.7573">
        <ele>537</ele>
        <time>2026-08-23T11:45:17.000Z</time>
      </trkpt>
      <trkpt lat="47.87067" lon="6.75731">
        <ele>537.4</ele>
        <time>2026-08-23T11:45:19.000Z</time>
      </trkpt>
      <trkpt lat="47.87061" lon="6.75732">
        <ele>537.8</ele>
        <time>2026-08-23T11:45:21.000Z</time>
      </trkpt>
      <trkpt lat="47.87055" lon="6.75733">
        <ele>538</ele>
        <time>2026-08-23T11:45:23.000Z</time>
      </trkpt>
      <trkpt lat="47.87049" lon="6.75735">
        <ele>538.4</ele>
        <time>2026-08-23T11:45:25.000Z</time>
      </trkpt>
      <trkpt lat="47.87043" lon="6.75736">
        <ele>538.6</ele>
        <time>2026-08-23T11:45:27.000Z</time>
      </trkpt>
      <trkpt lat="47.87037" lon="6.75738">
        <ele>538.8</ele>
        <time>2026-08-23T11:45:29.000Z</time>
      </trkpt>
      <trkpt lat="47.87031" lon="6.75739">
        <ele>539.2</ele>
        <time>2026-08-23T11:45:31.000Z</time>
      </trkpt>
      <trkpt lat="47.87024" lon="6.75741">
        <ele>539.4</ele>
        <time>2026-08-23T11:45:33.000Z</time>
      </trkpt>
      <trkpt lat="47.87018" lon="6.75743">
        <ele>539.6</ele>
        <time>2026-08-23T11:45:35.000Z</time>
      </trkpt>
      <trkpt lat="47.87011" lon="6.75744">
        <ele>539.8</ele>
        <time>2026-08-23T11:45:37.000Z</time>
      </trkpt>
      <trkpt lat="47.87005" lon="6.75745">
        <ele>540.2</ele>
        <time>2026-08-23T11:45:39.000Z</time>
      </trkpt>
      <trkpt lat="47.86998" lon="6.75746">
        <ele>540.2</ele>
        <time>2026-08-23T11:45:41.000Z</time>
      </trkpt>
      <trkpt lat="47.86991" lon="6.75747">
        <ele>540.4</ele>
        <time>2026-08-23T11:45:43.000Z</time>
      </trkpt>
      <trkpt lat="47.86984" lon="6.75746">
        <ele>540.4</ele>
        <time>2026-08-23T11:45:45.000Z</time>
      </trkpt>
      <trkpt lat="47.86976" lon="6.75744">
        <ele>540.6</ele>
        <time>2026-08-23T11:45:47.000Z</time>
      </trkpt>
      <trkpt lat="47.86969" lon="6.7574">
        <ele>540.6</ele>
        <time>2026-08-23T11:45:49.000Z</time>
      </trkpt>
      <trkpt lat="47.86961" lon="6.75734">
        <ele>540.6</ele>
        <time>2026-08-23T11:45:51.000Z</time>
      </trkpt>
      <trkpt lat="47.86954" lon="6.75726">
        <ele>540.6</ele>
        <time>2026-08-23T11:45:53.000Z</time>
      </trkpt>
      <trkpt lat="47.86949" lon="6.75716">
        <ele>540.8</ele>
        <time>2026-08-23T11:45:55.000Z</time>
      </trkpt>
      <trkpt lat="47.86945" lon="6.75706">
        <ele>541.2</ele>
        <time>2026-08-23T11:45:57.000Z</time>
      </trkpt>
      <trkpt lat="47.86942" lon="6.75696">
        <ele>541.6</ele>
        <time>2026-08-23T11:45:59.000Z</time>
      </trkpt>
      <trkpt lat="47.8694" lon="6.75686">
        <ele>541.8</ele>
        <time>2026-08-23T11:46:01.000Z</time>
      </trkpt>
      <trkpt lat="47.86937" lon="6.75676">
        <ele>542.2</ele>
        <time>2026-08-23T11:46:03.000Z</time>
      </trkpt>
      <trkpt lat="47.86935" lon="6.75666">
        <ele>542.4</ele>
        <time>2026-08-23T11:46:05.000Z</time>
      </trkpt>
      <trkpt lat="47.86933" lon="6.75656">
        <ele>542.8</ele>
        <time>2026-08-23T11:46:07.000Z</time>
      </trkpt>
      <trkpt lat="47.8693" lon="6.75647">
        <ele>543</ele>
        <time>2026-08-23T11:46:09.000Z</time>
      </trkpt>
      <trkpt lat="47.86928" lon="6.75637">
        <ele>543.4</ele>
        <time>2026-08-23T11:46:11.000Z</time>
      </trkpt>
      <trkpt lat="47.86925" lon="6.75628">
        <ele>543.8</ele>
        <time>2026-08-23T11:46:13.000Z</time>
      </trkpt>
      <trkpt lat="47.86922" lon="6.75619">
        <ele>544.2</ele>
        <time>2026-08-23T11:46:16.000Z</time>
      </trkpt>
      <trkpt lat="47.86919" lon="6.7561">
        <ele>544.6</ele>
        <time>2026-08-23T11:46:18.000Z</time>
      </trkpt>
      <trkpt lat="47.86915" lon="6.75601">
        <ele>545</ele>
        <time>2026-08-23T11:46:20.000Z</time>
      </trkpt>
      <trkpt lat="47.86911" lon="6.75592">
        <ele>545.2</ele>
        <time>2026-08-23T11:46:22.000Z</time>
      </trkpt>
      <trkpt lat="47.86907" lon="6.75583">
        <ele>545.4</ele>
        <time>2026-08-23T11:46:24.000Z</time>
      </trkpt>
      <trkpt lat="47.86902" lon="6.75575">
        <ele>545.8</ele>
        <time>2026-08-23T11:46:26.000Z</time>
      </trkpt>
      <trkpt lat="47.86897" lon="6.75567">
        <ele>546</ele>
        <time>2026-08-23T11:46:28.000Z</time>
      </trkpt>
      <trkpt lat="47.86892" lon="6.75559">
        <ele>546.2</ele>
        <time>2026-08-23T11:46:30.000Z</time>
      </trkpt>
      <trkpt lat="47.86887" lon="6.7555">
        <ele>546.2</ele>
        <time>2026-08-23T11:46:32.000Z</time>
      </trkpt>
      <trkpt lat="47.86881" lon="6.75542">
        <ele>546.4</ele>
        <time>2026-08-23T11:46:34.000Z</time>
      </trkpt>
      <trkpt lat="47.86876" lon="6.75534">
        <ele>546.6</ele>
        <time>2026-08-23T11:46:36.000Z</time>
      </trkpt>
      <trkpt lat="47.86871" lon="6.75525">
        <ele>546.8</ele>
        <time>2026-08-23T11:46:38.000Z</time>
      </trkpt>
      <trkpt lat="47.86866" lon="6.75518">
        <ele>547</ele>
        <time>2026-08-23T11:46:40.000Z</time>
      </trkpt>
      <trkpt lat="47.86861" lon="6.75511">
        <ele>547.4</ele>
        <time>2026-08-23T11:46:42.000Z</time>
      </trkpt>
      <trkpt lat="47.86855" lon="6.75505">
        <ele>547.6</ele>
        <time>2026-08-23T11:46:44.000Z</time>
      </trkpt>
      <trkpt lat="47.86849" lon="6.75499">
        <ele>547.8</ele>
        <time>2026-08-23T11:46:46.000Z</time>
      </trkpt>
      <trkpt lat="47.86843" lon="6.75493">
        <ele>548</ele>
        <time>2026-08-23T11:46:48.000Z</time>
      </trkpt>
      <trkpt lat="47.86836" lon="6.75488">
        <ele>548.4</ele>
        <time>2026-08-23T11:46:50.000Z</time>
      </trkpt>
      <trkpt lat="47.8683" lon="6.75483">
        <ele>548.6</ele>
        <time>2026-08-23T11:46:52.000Z</time>
      </trkpt>
      <trkpt lat="47.86823" lon="6.75478">
        <ele>549</ele>
        <time>2026-08-23T11:46:54.000Z</time>
      </trkpt>
      <trkpt lat="47.86816" lon="6.75473">
        <ele>549.2</ele>
        <time>2026-08-23T11:46:56.000Z</time>
      </trkpt>
      <trkpt lat="47.8681" lon="6.75469">
        <ele>549.6</ele>
        <time>2026-08-23T11:46:58.000Z</time>
      </trkpt>
      <trkpt lat="47.86804" lon="6.75464">
        <ele>549.8</ele>
        <time>2026-08-23T11:47:00.000Z</time>
      </trkpt>
      <trkpt lat="47.86797" lon="6.75458">
        <ele>550</ele>
        <time>2026-08-23T11:47:02.000Z</time>
      </trkpt>
      <trkpt lat="47.86791" lon="6.75454">
        <ele>550.4</ele>
        <time>2026-08-23T11:47:04.000Z</time>
      </trkpt>
      <trkpt lat="47.86785" lon="6.75449">
        <ele>550.8</ele>
        <time>2026-08-23T11:47:06.000Z</time>
      </trkpt>
      <trkpt lat="47.86776" lon="6.75444">
        <ele>551.2</ele>
        <time>2026-08-23T11:47:08.000Z</time>
      </trkpt>
      <trkpt lat="47.86769" lon="6.75442">
        <ele>551.6</ele>
        <time>2026-08-23T11:47:10.000Z</time>
      </trkpt>
      <trkpt lat="47.86761" lon="6.7544">
        <ele>552</ele>
        <time>2026-08-23T11:47:12.000Z</time>
      </trkpt>
      <trkpt lat="47.86753" lon="6.7544">
        <ele>552.4</ele>
        <time>2026-08-23T11:47:14.000Z</time>
      </trkpt>
      <trkpt lat="47.86747" lon="6.75441">
        <ele>552.6</ele>
        <time>2026-08-23T11:47:16.000Z</time>
      </trkpt>
      <trkpt lat="47.8674" lon="6.75443">
        <ele>553.2</ele>
        <time>2026-08-23T11:47:18.000Z</time>
      </trkpt>
      <trkpt lat="47.86734" lon="6.75446">
        <ele>553.4</ele>
        <time>2026-08-23T11:47:20.000Z</time>
      </trkpt>
      <trkpt lat="47.86728" lon="6.75449">
        <ele>553.8</ele>
        <time>2026-08-23T11:47:22.000Z</time>
      </trkpt>
      <trkpt lat="47.86722" lon="6.75451">
        <ele>554.2</ele>
        <time>2026-08-23T11:47:24.000Z</time>
      </trkpt>
      <trkpt lat="47.86716" lon="6.75453">
        <ele>554.6</ele>
        <time>2026-08-23T11:47:26.000Z</time>
      </trkpt>
      <trkpt lat="47.8671" lon="6.75455">
        <ele>555</ele>
        <time>2026-08-23T11:47:28.000Z</time>
      </trkpt>
      <trkpt lat="47.86704" lon="6.75458">
        <ele>555.4</ele>
        <time>2026-08-23T11:47:30.000Z</time>
      </trkpt>
      <trkpt lat="47.86698" lon="6.75461">
        <ele>555.8</ele>
        <time>2026-08-23T11:47:32.000Z</time>
      </trkpt>
      <trkpt lat="47.86692" lon="6.75464">
        <ele>556.2</ele>
        <time>2026-08-23T11:47:34.000Z</time>
      </trkpt>
      <trkpt lat="47.86687" lon="6.75469">
        <ele>556.6</ele>
        <time>2026-08-23T11:47:36.000Z</time>
      </trkpt>
      <trkpt lat="47.86682" lon="6.75475">
        <ele>557</ele>
        <time>2026-08-23T11:47:38.000Z</time>
      </trkpt>
      <trkpt lat="47.86678" lon="6.75482">
        <ele>557.4</ele>
        <time>2026-08-23T11:47:40.000Z</time>
      </trkpt>
      <trkpt lat="47.86674" lon="6.7549">
        <ele>557.8</ele>
        <time>2026-08-23T11:47:42.000Z</time>
      </trkpt>
      <trkpt lat="47.8667" lon="6.75497">
        <ele>558.4</ele>
        <time>2026-08-23T11:47:44.000Z</time>
      </trkpt>
      <trkpt lat="47.86667" lon="6.75506">
        <ele>559</ele>
        <time>2026-08-23T11:47:46.000Z</time>
      </trkpt>
      <trkpt lat="47.86665" lon="6.75514">
        <ele>559.4</ele>
        <time>2026-08-23T11:47:48.000Z</time>
      </trkpt>
      <trkpt lat="47.86664" lon="6.75524">
        <ele>560</ele>
        <time>2026-08-23T11:47:50.000Z</time>
      </trkpt>
      <trkpt lat="47.86663" lon="6.75533">
        <ele>560.4</ele>
        <time>2026-08-23T11:47:52.000Z</time>
      </trkpt>
      <trkpt lat="47.86663" lon="6.75543">
        <ele>560.8</ele>
        <time>2026-08-23T11:47:54.000Z</time>
      </trkpt>
      <trkpt lat="47.86664" lon="6.75553">
        <ele>561</ele>
        <time>2026-08-23T11:47:56.000Z</time>
      </trkpt>
      <trkpt lat="47.86664" lon="6.75562">
        <ele>561.2</ele>
        <time>2026-08-23T11:47:58.000Z</time>
      </trkpt>
      <trkpt lat="47.86666" lon="6.75571">
        <ele>561.6</ele>
        <time>2026-08-23T11:48:00.000Z</time>
      </trkpt>
      <trkpt lat="47.86667" lon="6.7558">
        <ele>562</ele>
        <time>2026-08-23T11:48:02.000Z</time>
      </trkpt>
      <trkpt lat="47.86669" lon="6.7559">
        <ele>562.4</ele>
        <time>2026-08-23T11:48:04.000Z</time>
      </trkpt>
      <trkpt lat="47.8667" lon="6.75599">
        <ele>562.8</ele>
        <time>2026-08-23T11:48:06.000Z</time>
      </trkpt>
      <trkpt lat="47.86672" lon="6.75608">
        <ele>563.2</ele>
        <time>2026-08-23T11:48:08.000Z</time>
      </trkpt>
      <trkpt lat="47.86673" lon="6.75617">
        <ele>563.6</ele>
        <time>2026-08-23T11:48:10.000Z</time>
      </trkpt>
      <trkpt lat="47.86674" lon="6.75625">
        <ele>564.2</ele>
        <time>2026-08-23T11:48:12.000Z</time>
      </trkpt>
      <trkpt lat="47.86674" lon="6.75633">
        <ele>564.4</ele>
        <time>2026-08-23T11:48:14.000Z</time>
      </trkpt>
      <trkpt lat="47.86674" lon="6.75641">
        <ele>565</ele>
        <time>2026-08-23T11:48:16.000Z</time>
      </trkpt>
      <trkpt lat="47.86674" lon="6.75649">
        <ele>565.4</ele>
        <time>2026-08-23T11:48:18.000Z</time>
      </trkpt>
      <trkpt lat="47.86673" lon="6.75657">
        <ele>565.8</ele>
        <time>2026-08-23T11:48:20.000Z</time>
      </trkpt>
      <trkpt lat="47.86672" lon="6.75664">
        <ele>566.2</ele>
        <time>2026-08-23T11:48:22.000Z</time>
      </trkpt>
      <trkpt lat="47.8667" lon="6.75671">
        <ele>566.6</ele>
        <time>2026-08-23T11:48:24.000Z</time>
      </trkpt>
      <trkpt lat="47.86668" lon="6.75678">
        <ele>567</ele>
        <time>2026-08-23T11:48:26.000Z</time>
      </trkpt>
      <trkpt lat="47.86665" lon="6.75685">
        <ele>567.4</ele>
        <time>2026-08-23T11:48:28.000Z</time>
      </trkpt>
      <trkpt lat="47.86663" lon="6.75692">
        <ele>567.8</ele>
        <time>2026-08-23T11:48:30.000Z</time>
      </trkpt>
      <trkpt lat="47.8666" lon="6.75698">
        <ele>568</ele>
        <time>2026-08-23T11:48:33.000Z</time>
      </trkpt>
      <trkpt lat="47.86657" lon="6.75704">
        <ele>568.4</ele>
        <time>2026-08-23T11:48:35.000Z</time>
      </trkpt>
      <trkpt lat="47.86653" lon="6.7571">
        <ele>568.8</ele>
        <time>2026-08-23T11:48:37.000Z</time>
      </trkpt>
      <trkpt lat="47.86649" lon="6.75715">
        <ele>569</ele>
        <time>2026-08-23T11:48:39.000Z</time>
      </trkpt>
      <trkpt lat="47.86645" lon="6.75719">
        <ele>569.4</ele>
        <time>2026-08-23T11:48:41.000Z</time>
      </trkpt>
      <trkpt lat="47.86639" lon="6.75721">
        <ele>569.6</ele>
        <time>2026-08-23T11:48:43.000Z</time>
      </trkpt>
      <trkpt lat="47.86634" lon="6.75722">
        <ele>570</ele>
        <time>2026-08-23T11:48:45.000Z</time>
      </trkpt>
      <trkpt lat="47.86628" lon="6.75721">
        <ele>570.2</ele>
        <time>2026-08-23T11:48:47.000Z</time>
      </trkpt>
      <trkpt lat="47.86623" lon="6.75718">
        <ele>570.6</ele>
        <time>2026-08-23T11:48:49.000Z</time>
      </trkpt>
      <trkpt lat="47.86618" lon="6.75714">
        <ele>571</ele>
        <time>2026-08-23T11:48:51.000Z</time>
      </trkpt>
      <trkpt lat="47.86614" lon="6.75709">
        <ele>571.4</ele>
        <time>2026-08-23T11:48:53.000Z</time>
      </trkpt>
      <trkpt lat="47.86609" lon="6.75704">
        <ele>571.6</ele>
        <time>2026-08-23T11:48:55.000Z</time>
      </trkpt>
      <trkpt lat="47.86605" lon="6.757">
        <ele>572</ele>
        <time>2026-08-23T11:48:57.000Z</time>
      </trkpt>
      <trkpt lat="47.866" lon="6.75696">
        <ele>572.6</ele>
        <time>2026-08-23T11:48:59.000Z</time>
      </trkpt>
      <trkpt lat="47.86595" lon="6.75693">
        <ele>573</ele>
        <time>2026-08-23T11:49:01.000Z</time>
      </trkpt>
      <trkpt lat="47.86591" lon="6.7569">
        <ele>573.4</ele>
        <time>2026-08-23T11:49:03.000Z</time>
      </trkpt>
      <trkpt lat="47.86586" lon="6.75688">
        <ele>573.6</ele>
        <time>2026-08-23T11:49:05.000Z</time>
      </trkpt>
      <trkpt lat="47.86581" lon="6.75687">
        <ele>573.8</ele>
        <time>2026-08-23T11:49:07.000Z</time>
      </trkpt>
      <trkpt lat="47.86576" lon="6.75686">
        <ele>574.2</ele>
        <time>2026-08-23T11:49:09.000Z</time>
      </trkpt>
      <trkpt lat="47.86571" lon="6.75685">
        <ele>574.6</ele>
        <time>2026-08-23T11:49:11.000Z</time>
      </trkpt>
      <trkpt lat="47.86564" lon="6.75683">
        <ele>575</ele>
        <time>2026-08-23T11:49:13.000Z</time>
      </trkpt>
      <trkpt lat="47.86558" lon="6.7568">
        <ele>575.4</ele>
        <time>2026-08-23T11:49:15.000Z</time>
      </trkpt>
      <trkpt lat="47.86554" lon="6.75676">
        <ele>575.8</ele>
        <time>2026-08-23T11:49:17.000Z</time>
      </trkpt>
      <trkpt lat="47.8655" lon="6.75671">
        <ele>576.2</ele>
        <time>2026-08-23T11:49:19.000Z</time>
      </trkpt>
      <trkpt lat="47.86546" lon="6.75666">
        <ele>576.6</ele>
        <time>2026-08-23T11:49:21.000Z</time>
      </trkpt>
      <trkpt lat="47.86543" lon="6.7566">
        <ele>577</ele>
        <time>2026-08-23T11:49:23.000Z</time>
      </trkpt>
      <trkpt lat="47.8654" lon="6.75654">
        <ele>577.4</ele>
        <time>2026-08-23T11:49:25.000Z</time>
      </trkpt>
      <trkpt lat="47.86536" lon="6.75648">
        <ele>577.6</ele>
        <time>2026-08-23T11:49:27.000Z</time>
      </trkpt>
      <trkpt lat="47.86533" lon="6.75642">
        <ele>578</ele>
        <time>2026-08-23T11:49:29.000Z</time>
      </trkpt>
      <trkpt lat="47.86529" lon="6.75636">
        <ele>578.2</ele>
        <time>2026-08-23T11:49:31.000Z</time>
      </trkpt>
      <trkpt lat="47.86526" lon="6.7563">
        <ele>578.6</ele>
        <time>2026-08-23T11:49:33.000Z</time>
      </trkpt>
      <trkpt lat="47.86523" lon="6.75624">
        <ele>578.8</ele>
        <time>2026-08-23T11:49:35.000Z</time>
      </trkpt>
      <trkpt lat="47.86519" lon="6.75618">
        <ele>579.2</ele>
        <time>2026-08-23T11:49:37.000Z</time>
      </trkpt>
      <trkpt lat="47.86516" lon="6.75612">
        <ele>579.6</ele>
        <time>2026-08-23T11:49:39.000Z</time>
      </trkpt>
      <trkpt lat="47.86513" lon="6.75605">
        <ele>580</ele>
        <time>2026-08-23T11:49:41.000Z</time>
      </trkpt>
      <trkpt lat="47.8651" lon="6.75599">
        <ele>580.4</ele>
        <time>2026-08-23T11:49:43.000Z</time>
      </trkpt>
      <trkpt lat="47.86507" lon="6.75592">
        <ele>580.8</ele>
        <time>2026-08-23T11:49:45.000Z</time>
      </trkpt>
      <trkpt lat="47.86505" lon="6.75585">
        <ele>581</ele>
        <time>2026-08-23T11:49:47.000Z</time>
      </trkpt>
      <trkpt lat="47.86502" lon="6.75578">
        <ele>581.4</ele>
        <time>2026-08-23T11:49:49.000Z</time>
      </trkpt>
      <trkpt lat="47.86501" lon="6.75571">
        <ele>581.8</ele>
        <time>2026-08-23T11:49:51.000Z</time>
      </trkpt>
      <trkpt lat="47.86499" lon="6.75564">
        <ele>582.2</ele>
        <time>2026-08-23T11:49:53.000Z</time>
      </trkpt>
      <trkpt lat="47.86498" lon="6.75556">
        <ele>582.6</ele>
        <time>2026-08-23T11:49:55.000Z</time>
      </trkpt>
      <trkpt lat="47.86498" lon="6.75549">
        <ele>583</ele>
        <time>2026-08-23T11:49:57.000Z</time>
      </trkpt>
      <trkpt lat="47.86499" lon="6.75541">
        <ele>583.4</ele>
        <time>2026-08-23T11:49:59.000Z</time>
      </trkpt>
      <trkpt lat="47.865" lon="6.75533">
        <ele>583.8</ele>
        <time>2026-08-23T11:50:01.000Z</time>
      </trkpt>
      <trkpt lat="47.86501" lon="6.75526">
        <ele>584.2</ele>
        <time>2026-08-23T11:50:03.000Z</time>
      </trkpt>
      <trkpt lat="47.86503" lon="6.75519">
        <ele>584.8</ele>
        <time>2026-08-23T11:50:05.000Z</time>
      </trkpt>
      <trkpt lat="47.86504" lon="6.75513">
        <ele>585.2</ele>
        <time>2026-08-23T11:50:07.000Z</time>
      </trkpt>
      <trkpt lat="47.86506" lon="6.75506">
        <ele>585.6</ele>
        <time>2026-08-23T11:50:09.000Z</time>
      </trkpt>
      <trkpt lat="47.86506" lon="6.75499">
        <ele>586.2</ele>
        <time>2026-08-23T11:50:11.000Z</time>
      </trkpt>
      <trkpt lat="47.86506" lon="6.75491">
        <ele>586.6</ele>
        <time>2026-08-23T11:50:13.000Z</time>
      </trkpt>
      <trkpt lat="47.86504" lon="6.75484">
        <ele>586.8</ele>
        <time>2026-08-23T11:50:15.000Z</time>
      </trkpt>
      <trkpt lat="47.86501" lon="6.75477">
        <ele>587.2</ele>
        <time>2026-08-23T11:50:18.000Z</time>
      </trkpt>
      <trkpt lat="47.86497" lon="6.75471">
        <ele>587.4</ele>
        <time>2026-08-23T11:50:20.000Z</time>
      </trkpt>
      <trkpt lat="47.86492" lon="6.75465">
        <ele>587.6</ele>
        <time>2026-08-23T11:50:22.000Z</time>
      </trkpt>
      <trkpt lat="47.86487" lon="6.7546">
        <ele>587.8</ele>
        <time>2026-08-23T11:50:24.000Z</time>
      </trkpt>
      <trkpt lat="47.86482" lon="6.75455">
        <ele>588</ele>
        <time>2026-08-23T11:50:26.000Z</time>
      </trkpt>
      <trkpt lat="47.86476" lon="6.75451">
        <ele>588.2</ele>
        <time>2026-08-23T11:50:28.000Z</time>
      </trkpt>
      <trkpt lat="47.8647" lon="6.75447">
        <ele>588.4</ele>
        <time>2026-08-23T11:50:30.000Z</time>
      </trkpt>
      <trkpt lat="47.86464" lon="6.75444">
        <ele>588.6</ele>
        <time>2026-08-23T11:50:32.000Z</time>
      </trkpt>
      <trkpt lat="47.86459" lon="6.75441">
        <ele>589</ele>
        <time>2026-08-23T11:50:34.000Z</time>
      </trkpt>
      <trkpt lat="47.86453" lon="6.75438">
        <ele>589.2</ele>
        <time>2026-08-23T11:50:36.000Z</time>
      </trkpt>
      <trkpt lat="47.86448" lon="6.75435">
        <ele>589.4</ele>
        <time>2026-08-23T11:50:38.000Z</time>
      </trkpt>
      <trkpt lat="47.86442" lon="6.75434">
        <ele>589.6</ele>
        <time>2026-08-23T11:50:40.000Z</time>
      </trkpt>
      <trkpt lat="47.86436" lon="6.75432">
        <ele>590</ele>
        <time>2026-08-23T11:50:42.000Z</time>
      </trkpt>
      <trkpt lat="47.8643" lon="6.75431">
        <ele>590.2</ele>
        <time>2026-08-23T11:50:44.000Z</time>
      </trkpt>
      <trkpt lat="47.86424" lon="6.7543">
        <ele>590.4</ele>
        <time>2026-08-23T11:50:46.000Z</time>
      </trkpt>
      <trkpt lat="47.86418" lon="6.75428">
        <ele>590.6</ele>
        <time>2026-08-23T11:50:48.000Z</time>
      </trkpt>
      <trkpt lat="47.86412" lon="6.75426">
        <ele>591</ele>
        <time>2026-08-23T11:50:50.000Z</time>
      </trkpt>
      <trkpt lat="47.86407" lon="6.75424">
        <ele>591.2</ele>
        <time>2026-08-23T11:50:52.000Z</time>
      </trkpt>
      <trkpt lat="47.86401" lon="6.75422">
        <ele>591.4</ele>
        <time>2026-08-23T11:50:54.000Z</time>
      </trkpt>
      <trkpt lat="47.86395" lon="6.7542">
        <ele>592</ele>
        <time>2026-08-23T11:50:56.000Z</time>
      </trkpt>
      <trkpt lat="47.86389" lon="6.75418">
        <ele>592.4</ele>
        <time>2026-08-23T11:50:58.000Z</time>
      </trkpt>
      <trkpt lat="47.86384" lon="6.75416">
        <ele>592.8</ele>
        <time>2026-08-23T11:51:00.000Z</time>
      </trkpt>
      <trkpt lat="47.86378" lon="6.75414">
        <ele>593.2</ele>
        <time>2026-08-23T11:51:02.000Z</time>
      </trkpt>
      <trkpt lat="47.86373" lon="6.75413">
        <ele>593.4</ele>
        <time>2026-08-23T11:51:04.000Z</time>
      </trkpt>
      <trkpt lat="47.86367" lon="6.75412">
        <ele>593.8</ele>
        <time>2026-08-23T11:51:06.000Z</time>
      </trkpt>
      <trkpt lat="47.86362" lon="6.75412">
        <ele>594</ele>
        <time>2026-08-23T11:51:08.000Z</time>
      </trkpt>
      <trkpt lat="47.86356" lon="6.75412">
        <ele>594.4</ele>
        <time>2026-08-23T11:51:10.000Z</time>
      </trkpt>
      <trkpt lat="47.8635" lon="6.75413">
        <ele>594.6</ele>
        <time>2026-08-23T11:51:12.000Z</time>
      </trkpt>
      <trkpt lat="47.86345" lon="6.75413">
        <ele>595</ele>
        <time>2026-08-23T11:51:14.000Z</time>
      </trkpt>
      <trkpt lat="47.86339" lon="6.75415">
        <ele>595.4</ele>
        <time>2026-08-23T11:51:16.000Z</time>
      </trkpt>
      <trkpt lat="47.86333" lon="6.75417">
        <ele>595.8</ele>
        <time>2026-08-23T11:51:18.000Z</time>
      </trkpt>
      <trkpt lat="47.86328" lon="6.75419">
        <ele>596.2</ele>
        <time>2026-08-23T11:51:20.000Z</time>
      </trkpt>
      <trkpt lat="47.86321" lon="6.7542">
        <ele>596.4</ele>
        <time>2026-08-23T11:51:22.000Z</time>
      </trkpt>
      <trkpt lat="47.86313" lon="6.7542">
        <ele>596.8</ele>
        <time>2026-08-23T11:51:24.000Z</time>
      </trkpt>
      <trkpt lat="47.86307" lon="6.75419">
        <ele>597</ele>
        <time>2026-08-23T11:51:26.000Z</time>
      </trkpt>
      <trkpt lat="47.86302" lon="6.75416">
        <ele>597.4</ele>
        <time>2026-08-23T11:51:28.000Z</time>
      </trkpt>
      <trkpt lat="47.86297" lon="6.75412">
        <ele>597.8</ele>
        <time>2026-08-23T11:51:30.000Z</time>
      </trkpt>
      <trkpt lat="47.86292" lon="6.75407">
        <ele>598.2</ele>
        <time>2026-08-23T11:51:32.000Z</time>
      </trkpt>
      <trkpt lat="47.86287" lon="6.75402">
        <ele>598.4</ele>
        <time>2026-08-23T11:51:34.000Z</time>
      </trkpt>
      <trkpt lat="47.86283" lon="6.75396">
        <ele>599</ele>
        <time>2026-08-23T11:51:36.000Z</time>
      </trkpt>
      <trkpt lat="47.86278" lon="6.7539">
        <ele>599.4</ele>
        <time>2026-08-23T11:51:38.000Z</time>
      </trkpt>
      <trkpt lat="47.86274" lon="6.75384">
        <ele>600</ele>
        <time>2026-08-23T11:51:40.000Z</time>
      </trkpt>
      <trkpt lat="47.8627" lon="6.75378">
        <ele>600.2</ele>
        <time>2026-08-23T11:51:42.000Z</time>
      </trkpt>
      <trkpt lat="47.86266" lon="6.75372">
        <ele>600.6</ele>
        <time>2026-08-23T11:51:44.000Z</time>
      </trkpt>
      <trkpt lat="47.86262" lon="6.75367">
        <ele>601</ele>
        <time>2026-08-23T11:51:46.000Z</time>
      </trkpt>
      <trkpt lat="47.86258" lon="6.75362">
        <ele>601.4</ele>
        <time>2026-08-23T11:51:48.000Z</time>
      </trkpt>
      <trkpt lat="47.86254" lon="6.75357">
        <ele>601.8</ele>
        <time>2026-08-23T11:51:50.000Z</time>
      </trkpt>
      <trkpt lat="47.86249" lon="6.75352">
        <ele>602.2</ele>
        <time>2026-08-23T11:51:52.000Z</time>
      </trkpt>
      <trkpt lat="47.86245" lon="6.75348">
        <ele>602.6</ele>
        <time>2026-08-23T11:51:54.000Z</time>
      </trkpt>
      <trkpt lat="47.86241" lon="6.75343">
        <ele>602.8</ele>
        <time>2026-08-23T11:51:56.000Z</time>
      </trkpt>
      <trkpt lat="47.86236" lon="6.75339">
        <ele>603.2</ele>
        <time>2026-08-23T11:51:58.000Z</time>
      </trkpt>
      <trkpt lat="47.86231" lon="6.75335">
        <ele>603.6</ele>
        <time>2026-08-23T11:52:00.000Z</time>
      </trkpt>
      <trkpt lat="47.86226" lon="6.75331">
        <ele>603.8</ele>
        <time>2026-08-23T11:52:02.000Z</time>
      </trkpt>
      <trkpt lat="47.86221" lon="6.75327">
        <ele>604.2</ele>
        <time>2026-08-23T11:52:04.000Z</time>
      </trkpt>
      <trkpt lat="47.86216" lon="6.75323">
        <ele>604.6</ele>
        <time>2026-08-23T11:52:06.000Z</time>
      </trkpt>
      <trkpt lat="47.86211" lon="6.75319">
        <ele>605</ele>
        <time>2026-08-23T11:52:08.000Z</time>
      </trkpt>
      <trkpt lat="47.86207" lon="6.75315">
        <ele>605.4</ele>
        <time>2026-08-23T11:52:10.000Z</time>
      </trkpt>
      <trkpt lat="47.86203" lon="6.7531">
        <ele>605.8</ele>
        <time>2026-08-23T11:52:12.000Z</time>
      </trkpt>
      <trkpt lat="47.86198" lon="6.75306">
        <ele>606.2</ele>
        <time>2026-08-23T11:52:15.000Z</time>
      </trkpt>
      <trkpt lat="47.86194" lon="6.75301">
        <ele>606.6</ele>
        <time>2026-08-23T11:52:17.000Z</time>
      </trkpt>
      <trkpt lat="47.8619" lon="6.75296">
        <ele>607</ele>
        <time>2026-08-23T11:52:19.000Z</time>
      </trkpt>
      <trkpt lat="47.86187" lon="6.75291">
        <ele>607.2</ele>
        <time>2026-08-23T11:52:21.000Z</time>
      </trkpt>
      <trkpt lat="47.86183" lon="6.75285">
        <ele>607.6</ele>
        <time>2026-08-23T11:52:23.000Z</time>
      </trkpt>
      <trkpt lat="47.86179" lon="6.7528">
        <ele>608</ele>
        <time>2026-08-23T11:52:25.000Z</time>
      </trkpt>
      <trkpt lat="47.86176" lon="6.75274">
        <ele>608.4</ele>
        <time>2026-08-23T11:52:27.000Z</time>
      </trkpt>
      <trkpt lat="47.86173" lon="6.75267">
        <ele>608.8</ele>
        <time>2026-08-23T11:52:29.000Z</time>
      </trkpt>
      <trkpt lat="47.8617" lon="6.75261">
        <ele>609</ele>
        <time>2026-08-23T11:52:31.000Z</time>
      </trkpt>
      <trkpt lat="47.86168" lon="6.75254">
        <ele>609.4</ele>
        <time>2026-08-23T11:52:33.000Z</time>
      </trkpt>
      <trkpt lat="47.86165" lon="6.75247">
        <ele>609.8</ele>
        <time>2026-08-23T11:52:35.000Z</time>
      </trkpt>
      <trkpt lat="47.86163" lon="6.7524">
        <ele>610.2</ele>
        <time>2026-08-23T11:52:37.000Z</time>
      </trkpt>
      <trkpt lat="47.8616" lon="6.75234">
        <ele>610.4</ele>
        <time>2026-08-23T11:52:39.000Z</time>
      </trkpt>
      <trkpt lat="47.86158" lon="6.75227">
        <ele>610.8</ele>
        <time>2026-08-23T11:52:41.000Z</time>
      </trkpt>
      <trkpt lat="47.86155" lon="6.7522">
        <ele>611.2</ele>
        <time>2026-08-23T11:52:43.000Z</time>
      </trkpt>
      <trkpt lat="47.86153" lon="6.75213">
        <ele>611.6</ele>
        <time>2026-08-23T11:52:45.000Z</time>
      </trkpt>
      <trkpt lat="47.86151" lon="6.75206">
        <ele>612</ele>
        <time>2026-08-23T11:52:47.000Z</time>
      </trkpt>
      <trkpt lat="47.86148" lon="6.752">
        <ele>612.4</ele>
        <time>2026-08-23T11:52:49.000Z</time>
      </trkpt>
      <trkpt lat="47.86146" lon="6.75193">
        <ele>612.6</ele>
        <time>2026-08-23T11:52:51.000Z</time>
      </trkpt>
      <trkpt lat="47.86144" lon="6.75185">
        <ele>613</ele>
        <time>2026-08-23T11:52:53.000Z</time>
      </trkpt>
      <trkpt lat="47.86142" lon="6.75178">
        <ele>613.2</ele>
        <time>2026-08-23T11:52:55.000Z</time>
      </trkpt>
      <trkpt lat="47.8614" lon="6.75171">
        <ele>613.6</ele>
        <time>2026-08-23T11:52:57.000Z</time>
      </trkpt>
      <trkpt lat="47.86139" lon="6.75163">
        <ele>614</ele>
        <time>2026-08-23T11:52:59.000Z</time>
      </trkpt>
      <trkpt lat="47.86139" lon="6.75155">
        <ele>614.4</ele>
        <time>2026-08-23T11:53:01.000Z</time>
      </trkpt>
      <trkpt lat="47.86139" lon="6.75147">
        <ele>614.8</ele>
        <time>2026-08-23T11:53:03.000Z</time>
      </trkpt>
      <trkpt lat="47.86138" lon="6.7514">
        <ele>615.2</ele>
        <time>2026-08-23T11:53:05.000Z</time>
      </trkpt>
      <trkpt lat="47.86139" lon="6.75133">
        <ele>615.6</ele>
        <time>2026-08-23T11:53:07.000Z</time>
      </trkpt>
      <trkpt lat="47.8614" lon="6.75126">
        <ele>615.8</ele>
        <time>2026-08-23T11:53:09.000Z</time>
      </trkpt>
      <trkpt lat="47.86141" lon="6.75118">
        <ele>616.2</ele>
        <time>2026-08-23T11:53:11.000Z</time>
      </trkpt>
      <trkpt lat="47.86142" lon="6.75109">
        <ele>616.6</ele>
        <time>2026-08-23T11:53:13.000Z</time>
      </trkpt>
      <trkpt lat="47.86143" lon="6.75099">
        <ele>617</ele>
        <time>2026-08-23T11:53:15.000Z</time>
      </trkpt>
      <trkpt lat="47.86143" lon="6.75091">
        <ele>617.4</ele>
        <time>2026-08-23T11:53:17.000Z</time>
      </trkpt>
      <trkpt lat="47.86144" lon="6.75083">
        <ele>617.6</ele>
        <time>2026-08-23T11:53:19.000Z</time>
      </trkpt>
      <trkpt lat="47.86145" lon="6.75076">
        <ele>618</ele>
        <time>2026-08-23T11:53:21.000Z</time>
      </trkpt>
      <trkpt lat="47.86145" lon="6.75069">
        <ele>618.4</ele>
        <time>2026-08-23T11:53:23.000Z</time>
      </trkpt>
      <trkpt lat="47.86145" lon="6.75061">
        <ele>618.8</ele>
        <time>2026-08-23T11:53:25.000Z</time>
      </trkpt>
      <trkpt lat="47.86146" lon="6.75053">
        <ele>619.2</ele>
        <time>2026-08-23T11:53:27.000Z</time>
      </trkpt>
      <trkpt lat="47.86146" lon="6.75046">
        <ele>619.6</ele>
        <time>2026-08-23T11:53:29.000Z</time>
      </trkpt>
      <trkpt lat="47.86145" lon="6.75038">
        <ele>620</ele>
        <time>2026-08-23T11:53:31.000Z</time>
      </trkpt>
      <trkpt lat="47.86145" lon="6.75031">
        <ele>620.4</ele>
        <time>2026-08-23T11:53:33.000Z</time>
      </trkpt>
      <trkpt lat="47.86144" lon="6.75023">
        <ele>620.8</ele>
        <time>2026-08-23T11:53:35.000Z</time>
      </trkpt>
      <trkpt lat="47.86142" lon="6.75016">
        <ele>621.2</ele>
        <time>2026-08-23T11:53:37.000Z</time>
      </trkpt>
      <trkpt lat="47.8614" lon="6.75009">
        <ele>621.6</ele>
        <time>2026-08-23T11:53:39.000Z</time>
      </trkpt>
      <trkpt lat="47.86138" lon="6.75001">
        <ele>622</ele>
        <time>2026-08-23T11:53:41.000Z</time>
      </trkpt>
      <trkpt lat="47.86136" lon="6.74994">
        <ele>622.4</ele>
        <time>2026-08-23T11:53:43.000Z</time>
      </trkpt>
      <trkpt lat="47.86133" lon="6.74988">
        <ele>623</ele>
        <time>2026-08-23T11:53:45.000Z</time>
      </trkpt>
      <trkpt lat="47.86129" lon="6.74981">
        <ele>623.4</ele>
        <time>2026-08-23T11:53:47.000Z</time>
      </trkpt>
      <trkpt lat="47.86126" lon="6.74976">
        <ele>623.6</ele>
        <time>2026-08-23T11:53:49.000Z</time>
      </trkpt>
      <trkpt lat="47.86122" lon="6.7497">
        <ele>624</ele>
        <time>2026-08-23T11:53:51.000Z</time>
      </trkpt>
      <trkpt lat="47.86119" lon="6.74964">
        <ele>624.4</ele>
        <time>2026-08-23T11:53:53.000Z</time>
      </trkpt>
      <trkpt lat="47.86115" lon="6.74958">
        <ele>624.6</ele>
        <time>2026-08-23T11:53:55.000Z</time>
      </trkpt>
      <trkpt lat="47.86111" lon="6.74953">
        <ele>625</ele>
        <time>2026-08-23T11:53:57.000Z</time>
      </trkpt>
      <trkpt lat="47.86108" lon="6.74947">
        <ele>625.2</ele>
        <time>2026-08-23T11:53:59.000Z</time>
      </trkpt>
      <trkpt lat="47.86104" lon="6.7494">
        <ele>625.6</ele>
        <time>2026-08-23T11:54:01.000Z</time>
      </trkpt>
      <trkpt lat="47.86101" lon="6.74933">
        <ele>626</ele>
        <time>2026-08-23T11:54:03.000Z</time>
      </trkpt>
      <trkpt lat="47.86098" lon="6.74927">
        <ele>626.4</ele>
        <time>2026-08-23T11:54:05.000Z</time>
      </trkpt>
      <trkpt lat="47.86096" lon="6.7492">
        <ele>626.8</ele>
        <time>2026-08-23T11:54:07.000Z</time>
      </trkpt>
      <trkpt lat="47.86094" lon="6.74912">
        <ele>627</ele>
        <time>2026-08-23T11:54:09.000Z</time>
      </trkpt>
      <trkpt lat="47.86093" lon="6.74905">
        <ele>627.4</ele>
        <time>2026-08-23T11:54:11.000Z</time>
      </trkpt>
      <trkpt lat="47.86092" lon="6.74897">
        <ele>627.8</ele>
        <time>2026-08-23T11:54:13.000Z</time>
      </trkpt>
      <trkpt lat="47.86091" lon="6.74889">
        <ele>628.2</ele>
        <time>2026-08-23T11:54:16.000Z</time>
      </trkpt>
      <trkpt lat="47.86091" lon="6.74881">
        <ele>628.6</ele>
        <time>2026-08-23T11:54:18.000Z</time>
      </trkpt>
      <trkpt lat="47.86091" lon="6.74874">
        <ele>629</ele>
        <time>2026-08-23T11:54:20.000Z</time>
      </trkpt>
      <trkpt lat="47.86092" lon="6.74867">
        <ele>629.2</ele>
        <time>2026-08-23T11:54:22.000Z</time>
      </trkpt>
      <trkpt lat="47.86093" lon="6.74859">
        <ele>629.6</ele>
        <time>2026-08-23T11:54:24.000Z</time>
      </trkpt>
      <trkpt lat="47.86094" lon="6.74852">
        <ele>630</ele>
        <time>2026-08-23T11:54:26.000Z</time>
      </trkpt>
      <trkpt lat="47.86096" lon="6.74845">
        <ele>630.2</ele>
        <time>2026-08-23T11:54:28.000Z</time>
      </trkpt>
      <trkpt lat="47.86099" lon="6.74838">
        <ele>630.6</ele>
        <time>2026-08-23T11:54:30.000Z</time>
      </trkpt>
      <trkpt lat="47.86102" lon="6.74831">
        <ele>631</ele>
        <time>2026-08-23T11:54:32.000Z</time>
      </trkpt>
      <trkpt lat="47.86105" lon="6.74825">
        <ele>631.6</ele>
        <time>2026-08-23T11:54:34.000Z</time>
      </trkpt>
      <trkpt lat="47.86109" lon="6.7482">
        <ele>632</ele>
        <time>2026-08-23T11:54:36.000Z</time>
      </trkpt>
      <trkpt lat="47.86112" lon="6.74815">
        <ele>632.4</ele>
        <time>2026-08-23T11:54:38.000Z</time>
      </trkpt>
      <trkpt lat="47.86116" lon="6.7481">
        <ele>632.8</ele>
        <time>2026-08-23T11:54:40.000Z</time>
      </trkpt>
      <trkpt lat="47.86119" lon="6.74805">
        <ele>633.2</ele>
        <time>2026-08-23T11:54:42.000Z</time>
      </trkpt>
      <trkpt lat="47.86122" lon="6.748">
        <ele>633.6</ele>
        <time>2026-08-23T11:54:44.000Z</time>
      </trkpt>
      <trkpt lat="47.86126" lon="6.74795">
        <ele>634</ele>
        <time>2026-08-23T11:54:46.000Z</time>
      </trkpt>
      <trkpt lat="47.86129" lon="6.7479">
        <ele>634.2</ele>
        <time>2026-08-23T11:54:48.000Z</time>
      </trkpt>
      <trkpt lat="47.86133" lon="6.74785">
        <ele>634.6</ele>
        <time>2026-08-23T11:54:50.000Z</time>
      </trkpt>
      <trkpt lat="47.86136" lon="6.7478">
        <ele>635</ele>
        <time>2026-08-23T11:54:52.000Z</time>
      </trkpt>
      <trkpt lat="47.8614" lon="6.74775">
        <ele>635.2</ele>
        <time>2026-08-23T11:54:54.000Z</time>
      </trkpt>
      <trkpt lat="47.86143" lon="6.7477">
        <ele>635.6</ele>
        <time>2026-08-23T11:54:56.000Z</time>
      </trkpt>
      <trkpt lat="47.86147" lon="6.74765">
        <ele>636</ele>
        <time>2026-08-23T11:54:58.000Z</time>
      </trkpt>
      <trkpt lat="47.86151" lon="6.74758">
        <ele>636.2</ele>
        <time>2026-08-23T11:55:00.000Z</time>
      </trkpt>
      <trkpt lat="47.86155" lon="6.74752">
        <ele>636.6</ele>
        <time>2026-08-23T11:55:02.000Z</time>
      </trkpt>
      <trkpt lat="47.86158" lon="6.74746">
        <ele>637</ele>
        <time>2026-08-23T11:55:04.000Z</time>
      </trkpt>
      <trkpt lat="47.86161" lon="6.74741">
        <ele>637.2</ele>
        <time>2026-08-23T11:55:06.000Z</time>
      </trkpt>
      <trkpt lat="47.86163" lon="6.74735">
        <ele>637.6</ele>
        <time>2026-08-23T11:55:08.000Z</time>
      </trkpt>
      <trkpt lat="47.86166" lon="6.7473">
        <ele>638</ele>
        <time>2026-08-23T11:55:10.000Z</time>
      </trkpt>
      <trkpt lat="47.86168" lon="6.74724">
        <ele>638.2</ele>
        <time>2026-08-23T11:55:12.000Z</time>
      </trkpt>
      <trkpt lat="47.8617" lon="6.74718">
        <ele>638.6</ele>
        <time>2026-08-23T11:55:14.000Z</time>
      </trkpt>
      <trkpt lat="47.86173" lon="6.74711">
        <ele>638.8</ele>
        <time>2026-08-23T11:55:16.000Z</time>
      </trkpt>
      <trkpt lat="47.86175" lon="6.74705">
        <ele>639</ele>
        <time>2026-08-23T11:55:18.000Z</time>
      </trkpt>
      <trkpt lat="47.86176" lon="6.74699">
        <ele>639.4</ele>
        <time>2026-08-23T11:55:20.000Z</time>
      </trkpt>
      <trkpt lat="47.86178" lon="6.74692">
        <ele>639.6</ele>
        <time>2026-08-23T11:55:22.000Z</time>
      </trkpt>
      <trkpt lat="47.8618" lon="6.74686">
        <ele>640</ele>
        <time>2026-08-23T11:55:24.000Z</time>
      </trkpt>
      <trkpt lat="47.86182" lon="6.74679">
        <ele>640.4</ele>
        <time>2026-08-23T11:55:26.000Z</time>
      </trkpt>
      <trkpt lat="47.86183" lon="6.74673">
        <ele>640.6</ele>
        <time>2026-08-23T11:55:28.000Z</time>
      </trkpt>
      <trkpt lat="47.86185" lon="6.74666">
        <ele>641</ele>
        <time>2026-08-23T11:55:30.000Z</time>
      </trkpt>
      <trkpt lat="47.86187" lon="6.7466">
        <ele>641.2</ele>
        <time>2026-08-23T11:55:32.000Z</time>
      </trkpt>
      <trkpt lat="47.86189" lon="6.74653">
        <ele>641.4</ele>
        <time>2026-08-23T11:55:34.000Z</time>
      </trkpt>
      <trkpt lat="47.86191" lon="6.74647">
        <ele>641.8</ele>
        <time>2026-08-23T11:55:36.000Z</time>
      </trkpt>
      <trkpt lat="47.86193" lon="6.7464">
        <ele>642</ele>
        <time>2026-08-23T11:55:38.000Z</time>
      </trkpt>
      <trkpt lat="47.86195" lon="6.74633">
        <ele>642.4</ele>
        <time>2026-08-23T11:55:40.000Z</time>
      </trkpt>
      <trkpt lat="47.86196" lon="6.74627">
        <ele>642.8</ele>
        <time>2026-08-23T11:55:42.000Z</time>
      </trkpt>
      <trkpt lat="47.86198" lon="6.74621">
        <ele>643.2</ele>
        <time>2026-08-23T11:55:44.000Z</time>
      </trkpt>
      <trkpt lat="47.862" lon="6.74615">
        <ele>643.6</ele>
        <time>2026-08-23T11:55:46.000Z</time>
      </trkpt>
      <trkpt lat="47.86201" lon="6.74608">
        <ele>644</ele>
        <time>2026-08-23T11:55:48.000Z</time>
      </trkpt>
      <trkpt lat="47.86202" lon="6.74601">
        <ele>644.4</ele>
        <time>2026-08-23T11:55:50.000Z</time>
      </trkpt>
      <trkpt lat="47.86203" lon="6.74594">
        <ele>644.6</ele>
        <time>2026-08-23T11:55:52.000Z</time>
      </trkpt>
      <trkpt lat="47.86204" lon="6.74587">
        <ele>645</ele>
        <time>2026-08-23T11:55:54.000Z</time>
      </trkpt>
      <trkpt lat="47.86204" lon="6.7458">
        <ele>645.4</ele>
        <time>2026-08-23T11:55:56.000Z</time>
      </trkpt>
      <trkpt lat="47.86205" lon="6.74573">
        <ele>645.6</ele>
        <time>2026-08-23T11:55:58.000Z</time>
      </trkpt>
      <trkpt lat="47.86205" lon="6.74566">
        <ele>646</ele>
        <time>2026-08-23T11:56:00.000Z</time>
      </trkpt>
      <trkpt lat="47.86205" lon="6.74559">
        <ele>646.2</ele>
        <time>2026-08-23T11:56:03.000Z</time>
      </trkpt>
      <trkpt lat="47.86205" lon="6.74551">
        <ele>646.6</ele>
        <time>2026-08-23T11:56:05.000Z</time>
      </trkpt>
      <trkpt lat="47.86205" lon="6.74544">
        <ele>647</ele>
        <time>2026-08-23T11:56:07.000Z</time>
      </trkpt>
      <trkpt lat="47.86205" lon="6.74537">
        <ele>647.2</ele>
        <time>2026-08-23T11:56:09.000Z</time>
      </trkpt>
      <trkpt lat="47.86205" lon="6.7453">
        <ele>647.6</ele>
        <time>2026-08-23T11:56:11.000Z</time>
      </trkpt>
      <trkpt lat="47.86205" lon="6.74523">
        <ele>648</ele>
        <time>2026-08-23T11:56:13.000Z</time>
      </trkpt>
      <trkpt lat="47.86205" lon="6.74516">
        <ele>648.4</ele>
        <time>2026-08-23T11:56:15.000Z</time>
      </trkpt>
      <trkpt lat="47.86205" lon="6.74509">
        <ele>648.6</ele>
        <time>2026-08-23T11:56:17.000Z</time>
      </trkpt>
      <trkpt lat="47.86205" lon="6.74502">
        <ele>649</ele>
        <time>2026-08-23T11:56:19.000Z</time>
      </trkpt>
      <trkpt lat="47.86205" lon="6.74495">
        <ele>649.4</ele>
        <time>2026-08-23T11:56:21.000Z</time>
      </trkpt>
      <trkpt lat="47.86205" lon="6.74488">
        <ele>649.8</ele>
        <time>2026-08-23T11:56:23.000Z</time>
      </trkpt>
      <trkpt lat="47.86205" lon="6.74481">
        <ele>650</ele>
        <time>2026-08-23T11:56:25.000Z</time>
      </trkpt>
      <trkpt lat="47.86205" lon="6.74474">
        <ele>650.4</ele>
        <time>2026-08-23T11:56:27.000Z</time>
      </trkpt>
      <trkpt lat="47.86205" lon="6.74466">
        <ele>650.8</ele>
        <time>2026-08-23T11:56:29.000Z</time>
      </trkpt>
      <trkpt lat="47.86205" lon="6.74459">
        <ele>651.2</ele>
        <time>2026-08-23T11:56:31.000Z</time>
      </trkpt>
      <trkpt lat="47.86206" lon="6.74452">
        <ele>651.6</ele>
        <time>2026-08-23T11:56:33.000Z</time>
      </trkpt>
      <trkpt lat="47.86206" lon="6.74445">
        <ele>652</ele>
        <time>2026-08-23T11:56:35.000Z</time>
      </trkpt>
      <trkpt lat="47.86207" lon="6.74438">
        <ele>652.2</ele>
        <time>2026-08-23T11:56:37.000Z</time>
      </trkpt>
      <trkpt lat="47.86207" lon="6.74431">
        <ele>652.6</ele>
        <time>2026-08-23T11:56:39.000Z</time>
      </trkpt>
      <trkpt lat="47.86208" lon="6.74424">
        <ele>652.8</ele>
        <time>2026-08-23T11:56:41.000Z</time>
      </trkpt>
      <trkpt lat="47.86209" lon="6.74417">
        <ele>653.2</ele>
        <time>2026-08-23T11:56:43.000Z</time>
      </trkpt>
      <trkpt lat="47.8621" lon="6.74411">
        <ele>653.6</ele>
        <time>2026-08-23T11:56:45.000Z</time>
      </trkpt>
      <trkpt lat="47.86211" lon="6.74404">
        <ele>654.2</ele>
        <time>2026-08-23T11:56:47.000Z</time>
      </trkpt>
      <trkpt lat="47.86212" lon="6.74397">
        <ele>654.6</ele>
        <time>2026-08-23T11:56:49.000Z</time>
      </trkpt>
      <trkpt lat="47.86213" lon="6.7439">
        <ele>655</ele>
        <time>2026-08-23T11:56:51.000Z</time>
      </trkpt>
      <trkpt lat="47.86214" lon="6.74383">
        <ele>655.4</ele>
        <time>2026-08-23T11:56:53.000Z</time>
      </trkpt>
      <trkpt lat="47.86215" lon="6.74374">
        <ele>655.8</ele>
        <time>2026-08-23T11:56:55.000Z</time>
      </trkpt>
      <trkpt lat="47.86216" lon="6.74365">
        <ele>656.2</ele>
        <time>2026-08-23T11:56:57.000Z</time>
      </trkpt>
      <trkpt lat="47.86217" lon="6.74357">
        <ele>656.6</ele>
        <time>2026-08-23T11:56:59.000Z</time>
      </trkpt>
      <trkpt lat="47.86217" lon="6.7435">
        <ele>657</ele>
        <time>2026-08-23T11:57:01.000Z</time>
      </trkpt>
      <trkpt lat="47.86217" lon="6.74343">
        <ele>657.4</ele>
        <time>2026-08-23T11:57:03.000Z</time>
      </trkpt>
      <trkpt lat="47.86218" lon="6.74336">
        <ele>657.8</ele>
        <time>2026-08-23T11:57:05.000Z</time>
      </trkpt>
      <trkpt lat="47.86217" lon="6.74328">
        <ele>658.2</ele>
        <time>2026-08-23T11:57:07.000Z</time>
      </trkpt>
      <trkpt lat="47.86216" lon="6.74321">
        <ele>658.6</ele>
        <time>2026-08-23T11:57:09.000Z</time>
      </trkpt>
      <trkpt lat="47.86213" lon="6.74315">
        <ele>658.8</ele>
        <time>2026-08-23T11:57:11.000Z</time>
      </trkpt>
      <trkpt lat="47.8621" lon="6.74311">
        <ele>659.4</ele>
        <time>2026-08-23T11:57:13.000Z</time>
      </trkpt>
      <trkpt lat="47.86205" lon="6.7431">
        <ele>659.6</ele>
        <time>2026-08-23T11:57:15.000Z</time>
      </trkpt>
      <trkpt lat="47.862" lon="6.74312">
        <ele>660</ele>
        <time>2026-08-23T11:57:17.000Z</time>
      </trkpt>
      <trkpt lat="47.86195" lon="6.74317">
        <ele>660.4</ele>
        <time>2026-08-23T11:57:19.000Z</time>
      </trkpt>
      <trkpt lat="47.86193" lon="6.74323">
        <ele>660.8</ele>
        <time>2026-08-23T11:57:21.000Z</time>
      </trkpt>
      <trkpt lat="47.86191" lon="6.74331">
        <ele>661.2</ele>
        <time>2026-08-23T11:57:23.000Z</time>
      </trkpt>
      <trkpt lat="47.8619" lon="6.74339">
        <ele>661.4</ele>
        <time>2026-08-23T11:57:25.000Z</time>
      </trkpt>
      <trkpt lat="47.8619" lon="6.74348">
        <ele>661.4</ele>
        <time>2026-08-23T11:57:27.000Z</time>
      </trkpt>
      <trkpt lat="47.86189" lon="6.74356">
        <ele>661.8</ele>
        <time>2026-08-23T11:57:29.000Z</time>
      </trkpt>
      <trkpt lat="47.86189" lon="6.74363">
        <ele>662</ele>
        <time>2026-08-23T11:57:31.000Z</time>
      </trkpt>
      <trkpt lat="47.86189" lon="6.74371">
        <ele>662.2</ele>
        <time>2026-08-23T11:57:33.000Z</time>
      </trkpt>
      <trkpt lat="47.86188" lon="6.74378">
        <ele>662.6</ele>
        <time>2026-08-23T11:57:35.000Z</time>
      </trkpt>
      <trkpt lat="47.86187" lon="6.74386">
        <ele>662.8</ele>
        <time>2026-08-23T11:57:37.000Z</time>
      </trkpt>
      <trkpt lat="47.86186" lon="6.74393">
        <ele>663</ele>
        <time>2026-08-23T11:57:39.000Z</time>
      </trkpt>
      <trkpt lat="47.86185" lon="6.744">
        <ele>663.2</ele>
        <time>2026-08-23T11:57:41.000Z</time>
      </trkpt>
      <trkpt lat="47.86183" lon="6.74407">
        <ele>663.4</ele>
        <time>2026-08-23T11:57:43.000Z</time>
      </trkpt>
      <trkpt lat="47.86182" lon="6.74415">
        <ele>663.6</ele>
        <time>2026-08-23T11:57:45.000Z</time>
      </trkpt>
      <trkpt lat="47.86181" lon="6.74422">
        <ele>664</ele>
        <time>2026-08-23T11:57:47.000Z</time>
      </trkpt>
      <trkpt lat="47.86179" lon="6.74429">
        <ele>664.2</ele>
        <time>2026-08-23T11:57:49.000Z</time>
      </trkpt>
      <trkpt lat="47.86178" lon="6.74436">
        <ele>664.4</ele>
        <time>2026-08-23T11:57:51.000Z</time>
      </trkpt>
      <trkpt lat="47.86177" lon="6.74443">
        <ele>664.6</ele>
        <time>2026-08-23T11:57:53.000Z</time>
      </trkpt>
      <trkpt lat="47.86175" lon="6.74451">
        <ele>665</ele>
        <time>2026-08-23T11:57:55.000Z</time>
      </trkpt>
      <trkpt lat="47.86174" lon="6.74458">
        <ele>665.2</ele>
        <time>2026-08-23T11:57:57.000Z</time>
      </trkpt>
      <trkpt lat="47.86172" lon="6.74466">
        <ele>665.4</ele>
        <time>2026-08-23T11:57:59.000Z</time>
      </trkpt>
      <trkpt lat="47.86171" lon="6.74473">
        <ele>665.6</ele>
        <time>2026-08-23T11:58:02.000Z</time>
      </trkpt>
      <trkpt lat="47.86169" lon="6.74481">
        <ele>666</ele>
        <time>2026-08-23T11:58:04.000Z</time>
      </trkpt>
      <trkpt lat="47.86168" lon="6.74488">
        <ele>666.2</ele>
        <time>2026-08-23T11:58:06.000Z</time>
      </trkpt>
      <trkpt lat="47.86167" lon="6.74495">
        <ele>666.6</ele>
        <time>2026-08-23T11:58:08.000Z</time>
      </trkpt>
      <trkpt lat="47.86165" lon="6.74503">
        <ele>667</ele>
        <time>2026-08-23T11:58:10.000Z</time>
      </trkpt>
      <trkpt lat="47.86164" lon="6.7451">
        <ele>667.2</ele>
        <time>2026-08-23T11:58:12.000Z</time>
      </trkpt>
      <trkpt lat="47.86162" lon="6.74517">
        <ele>667.6</ele>
        <time>2026-08-23T11:58:14.000Z</time>
      </trkpt>
      <trkpt lat="47.86161" lon="6.74525">
        <ele>668</ele>
        <time>2026-08-23T11:58:16.000Z</time>
      </trkpt>
      <trkpt lat="47.8616" lon="6.74532">
        <ele>668.4</ele>
        <time>2026-08-23T11:58:18.000Z</time>
      </trkpt>
      <trkpt lat="47.86158" lon="6.74539">
        <ele>668.6</ele>
        <time>2026-08-23T11:58:20.000Z</time>
      </trkpt>
      <trkpt lat="47.86156" lon="6.74547">
        <ele>669</ele>
        <time>2026-08-23T11:58:22.000Z</time>
      </trkpt>
      <trkpt lat="47.86154" lon="6.74553">
        <ele>669.4</ele>
        <time>2026-08-23T11:58:24.000Z</time>
      </trkpt>
      <trkpt lat="47.86152" lon="6.7456">
        <ele>669.6</ele>
        <time>2026-08-23T11:58:26.000Z</time>
      </trkpt>
      <trkpt lat="47.86149" lon="6.74567">
        <ele>670</ele>
        <time>2026-08-23T11:58:28.000Z</time>
      </trkpt>
      <trkpt lat="47.86146" lon="6.74573">
        <ele>670.2</ele>
        <time>2026-08-23T11:58:30.000Z</time>
      </trkpt>
      <trkpt lat="47.86143" lon="6.74579">
        <ele>670.6</ele>
        <time>2026-08-23T11:58:32.000Z</time>
      </trkpt>
      <trkpt lat="47.8614" lon="6.74585">
        <ele>671</ele>
        <time>2026-08-23T11:58:34.000Z</time>
      </trkpt>
      <trkpt lat="47.86137" lon="6.74592">
        <ele>671.4</ele>
        <time>2026-08-23T11:58:36.000Z</time>
      </trkpt>
      <trkpt lat="47.86134" lon="6.74598">
        <ele>671.8</ele>
        <time>2026-08-23T11:58:38.000Z</time>
      </trkpt>
      <trkpt lat="47.86131" lon="6.74604">
        <ele>672</ele>
        <time>2026-08-23T11:58:40.000Z</time>
      </trkpt>
      <trkpt lat="47.86128" lon="6.7461">
        <ele>672.2</ele>
        <time>2026-08-23T11:58:42.000Z</time>
      </trkpt>
      <trkpt lat="47.86125" lon="6.74618">
        <ele>672.4</ele>
        <time>2026-08-23T11:58:44.000Z</time>
      </trkpt>
      <trkpt lat="47.86121" lon="6.74627">
        <ele>672.8</ele>
        <time>2026-08-23T11:58:46.000Z</time>
      </trkpt>
      <trkpt lat="47.86118" lon="6.74633">
        <ele>673</ele>
        <time>2026-08-23T11:58:48.000Z</time>
      </trkpt>
      <trkpt lat="47.86115" lon="6.7464">
        <ele>673.4</ele>
        <time>2026-08-23T11:58:50.000Z</time>
      </trkpt>
      <trkpt lat="47.86112" lon="6.74646">
        <ele>673.8</ele>
        <time>2026-08-23T11:58:52.000Z</time>
      </trkpt>
      <trkpt lat="47.86109" lon="6.74652">
        <ele>674</ele>
        <time>2026-08-23T11:58:54.000Z</time>
      </trkpt>
      <trkpt lat="47.86105" lon="6.74658">
        <ele>674.4</ele>
        <time>2026-08-23T11:58:56.000Z</time>
      </trkpt>
      <trkpt lat="47.86102" lon="6.74664">
        <ele>674.8</ele>
        <time>2026-08-23T11:58:58.000Z</time>
      </trkpt>
      <trkpt lat="47.86098" lon="6.7467">
        <ele>675</ele>
        <time>2026-08-23T11:59:00.000Z</time>
      </trkpt>
      <trkpt lat="47.86094" lon="6.74674">
        <ele>675.4</ele>
        <time>2026-08-23T11:59:02.000Z</time>
      </trkpt>
      <trkpt lat="47.86089" lon="6.74679">
        <ele>675.8</ele>
        <time>2026-08-23T11:59:04.000Z</time>
      </trkpt>
      <trkpt lat="47.86084" lon="6.74683">
        <ele>676</ele>
        <time>2026-08-23T11:59:06.000Z</time>
      </trkpt>
      <trkpt lat="47.86079" lon="6.74686">
        <ele>676.4</ele>
        <time>2026-08-23T11:59:08.000Z</time>
      </trkpt>
      <trkpt lat="47.86074" lon="6.74689">
        <ele>676.6</ele>
        <time>2026-08-23T11:59:10.000Z</time>
      </trkpt>
      <trkpt lat="47.86069" lon="6.74691">
        <ele>677</ele>
        <time>2026-08-23T11:59:12.000Z</time>
      </trkpt>
      <trkpt lat="47.86064" lon="6.74693">
        <ele>677.4</ele>
        <time>2026-08-23T11:59:14.000Z</time>
      </trkpt>
      <trkpt lat="47.8606" lon="6.74695">
        <ele>677.6</ele>
        <time>2026-08-23T11:59:16.000Z</time>
      </trkpt>
      <trkpt lat="47.86055" lon="6.74697">
        <ele>678</ele>
        <time>2026-08-23T11:59:18.000Z</time>
      </trkpt>
      <trkpt lat="47.86051" lon="6.74698">
        <ele>678.2</ele>
        <time>2026-08-23T11:59:20.000Z</time>
      </trkpt>
      <trkpt lat="47.86047" lon="6.74699">
        <ele>678.6</ele>
        <time>2026-08-23T11:59:22.000Z</time>
      </trkpt>
      <trkpt lat="47.86043" lon="6.74699">
        <ele>678.8</ele>
        <time>2026-08-23T11:59:24.000Z</time>
      </trkpt>
      <trkpt lat="47.86038" lon="6.74701">
        <ele>679</ele>
        <time>2026-08-23T11:59:26.000Z</time>
      </trkpt>
      <trkpt lat="47.86034" lon="6.74702">
        <ele>679.4</ele>
        <time>2026-08-23T11:59:28.000Z</time>
      </trkpt>
      <trkpt lat="47.86031" lon="6.74703">
        <ele>679.6</ele>
        <time>2026-08-23T11:59:30.000Z</time>
      </trkpt>
      <trkpt lat="47.86028" lon="6.74704">
        <ele>680</ele>
        <time>2026-08-23T11:59:32.000Z</time>
      </trkpt>
      <trkpt lat="47.86025" lon="6.74704">
        <ele>680</ele>
        <time>2026-08-23T11:59:34.000Z</time>
      </trkpt>
      <trkpt lat="47.86021" lon="6.74705">
        <ele>680.2</ele>
        <time>2026-08-23T11:59:36.000Z</time>
      </trkpt>
      <trkpt lat="47.86016" lon="6.74706">
        <ele>680.4</ele>
        <time>2026-08-23T11:59:38.000Z</time>
      </trkpt>
      <trkpt lat="47.86011" lon="6.74706">
        <ele>680.6</ele>
        <time>2026-08-23T11:59:40.000Z</time>
      </trkpt>
      <trkpt lat="47.86007" lon="6.74704">
        <ele>680.8</ele>
        <time>2026-08-23T11:59:42.000Z</time>
      </trkpt>
      <trkpt lat="47.86003" lon="6.74702">
        <ele>681</ele>
        <time>2026-08-23T11:59:44.000Z</time>
      </trkpt>
      <trkpt lat="47.86001" lon="6.74703">
        <ele>681</ele>
        <time>2026-08-23T11:59:46.000Z</time>
      </trkpt>
      <trkpt lat="47.86" lon="6.74703">
        <ele>681</ele>
        <time>2026-08-23T11:59:48.000Z</time>
      </trkpt>
      <trkpt lat="47.86001" lon="6.74704">
        <ele>681</ele>
        <time>2026-08-23T11:59:50.000Z</time>
      </trkpt>
      <trkpt lat="47.86001" lon="6.74704">
        <ele>681</ele>
        <time>2026-08-23T11:59:52.000Z</time>
      </trkpt>
      <trkpt lat="47.86001" lon="6.74704">
        <ele>681</ele>
        <time>2026-08-23T11:59:55.000Z</time>
      </trkpt>
      <trkpt lat="47.86001" lon="6.74704">
        <ele>681</ele>
        <time>2026-08-23T11:59:57.000Z</time>
      </trkpt>
      <trkpt lat="47.86001" lon="6.74704">
        <ele>681</ele>
        <time>2026-08-23T11:59:59.000Z</time>
      </trkpt>
      <trkpt lat="47.86001" lon="6.74704">
        <ele>681.2</ele>
        <time>2026-08-23T12:00:01.000Z</time>
      </trkpt>
      <trkpt lat="47.86001" lon="6.74704">
        <ele>681.2</ele>
        <time>2026-08-23T12:00:03.000Z</time>
      </trkpt>
      <trkpt lat="47.86001" lon="6.74704">
        <ele>681.2</ele>
        <time>2026-08-23T12:00:05.000Z</time>
      </trkpt>
      <trkpt lat="47.86001" lon="6.74704">
        <ele>681.2</ele>
        <time>2026-08-23T12:00:07.000Z</time>
      </trkpt>
      <trkpt lat="47.86001" lon="6.74704">
        <ele>681.2</ele>
        <time>2026-08-23T12:00:09.000Z</time>
      </trkpt>
      <trkpt lat="47.86001" lon="6.74704">
        <ele>681.2</ele>
        <time>2026-08-23T12:00:11.000Z</time>
      </trkpt>
      <trkpt lat="47.86001" lon="6.74704">
        <ele>681.2</ele>
        <time>2026-08-23T12:00:13.000Z</time>
      </trkpt>
      <trkpt lat="47.86001" lon="6.74704">
        <ele>681.2</ele>
        <time>2026-08-23T12:00:15.000Z</time>
      </trkpt>
      <trkpt lat="47.86001" lon="6.74704">
        <ele>681.2</ele>
        <time>2026-08-23T12:00:17.000Z</time>
      </trkpt>
      <trkpt lat="47.86001" lon="6.74704">
        <ele>681.2</ele>
        <time>2026-08-23T12:00:19.000Z</time>
      </trkpt>
      <trkpt lat="47.86001" lon="6.74704">
        <ele>681.2</ele>
        <time>2026-08-23T12:00:21.000Z</time>
      </trkpt>
      <trkpt lat="47.86001" lon="6.74704">
        <ele>681.2</ele>
        <time>2026-08-23T12:00:23.000Z</time>
      </trkpt>
      <trkpt lat="47.86001" lon="6.74704">
        <ele>681.2</ele>
        <time>2026-08-23T12:00:25.000Z</time>
      </trkpt>
      <trkpt lat="47.86001" lon="6.74704">
        <ele>681.2</ele>
        <time>2026-08-23T12:00:27.000Z</time>
      </trkpt>
      <trkpt lat="47.86001" lon="6.74704">
        <ele>681.2</ele>
        <time>2026-08-23T12:00:29.000Z</time>
      </trkpt>
      <trkpt lat="47.86001" lon="6.74704">
        <ele>681.2</ele>
        <time>2026-08-23T12:00:31.000Z</time>
      </trkpt>
      <trkpt lat="47.86001" lon="6.74704">
        <ele>681.2</ele>
        <time>2026-08-23T12:00:33.000Z</time>
      </trkpt>
      <trkpt lat="47.86" lon="6.74704">
        <ele>681.2</ele>
        <time>2026-08-23T12:00:35.000Z</time>
      </trkpt>
      <trkpt lat="47.86" lon="6.74704">
        <ele>681.2</ele>
        <time>2026-08-23T12:00:37.000Z</time>
      </trkpt>
      <trkpt lat="47.86" lon="6.74704">
        <ele>681.2</ele>
        <time>2026-08-23T12:00:39.000Z</time>
      </trkpt>
      <trkpt lat="47.86" lon="6.74705">
        <ele>681.2</ele>
        <time>2026-08-23T12:00:41.000Z</time>
      </trkpt>
      <trkpt lat="47.86" lon="6.74705">
        <ele>681.2</ele>
        <time>2026-08-23T12:00:43.000Z</time>
      </trkpt>
      <trkpt lat="47.86" lon="6.74705">
        <ele>681.2</ele>
        <time>2026-08-23T12:00:45.000Z</time>
      </trkpt>
      <trkpt lat="47.86" lon="6.74705">
        <ele>681.2</ele>
        <time>2026-08-23T12:00:47.000Z</time>
      </trkpt>
      <trkpt lat="47.86" lon="6.74705">
        <ele>681.2</ele>
        <time>2026-08-23T12:00:49.000Z</time>
      </trkpt>
      <trkpt lat="47.86" lon="6.74705">
        <ele>681.2</ele>
        <time>2026-08-23T12:00:51.000Z</time>
      </trkpt>
      <trkpt lat="47.86" lon="6.74704">
        <ele>681.2</ele>
        <time>2026-08-23T12:00:53.000Z</time>
      </trkpt>
      <trkpt lat="47.86" lon="6.74704">
        <ele>681.2</ele>
        <time>2026-08-23T12:00:55.000Z</time>
      </trkpt>
      <trkpt lat="47.86" lon="6.74705">
        <ele>681.2</ele>
        <time>2026-08-23T12:00:57.000Z</time>
      </trkpt>
      <trkpt lat="47.86" lon="6.74705">
        <ele>681.2</ele>
        <time>2026-08-23T12:00:59.000Z</time>
      </trkpt>
      <trkpt lat="47.86" lon="6.74705">
        <ele>681.2</ele>
        <time>2026-08-23T12:01:01.000Z</time>
      </trkpt>
      <trkpt lat="47.85997" lon="6.74707">
        <ele>681.2</ele>
        <time>2026-08-23T12:01:03.000Z</time>
      </trkpt>
      <trkpt lat="47.85992" lon="6.74707">
        <ele>681.2</ele>
        <time>2026-08-23T12:01:05.000Z</time>
      </trkpt>
      <trkpt lat="47.85984" lon="6.74708">
        <ele>681.2</ele>
        <time>2026-08-23T12:01:07.000Z</time>
      </trkpt>
      <trkpt lat="47.85977" lon="6.74708">
        <ele>681.4</ele>
        <time>2026-08-23T12:01:09.000Z</time>
      </trkpt>
      <trkpt lat="47.85969" lon="6.74707">
        <ele>681.4</ele>
        <time>2026-08-23T12:01:11.000Z</time>
      </trkpt>
      <trkpt lat="47.8596" lon="6.74704">
        <ele>681.2</ele>
        <time>2026-08-23T12:01:13.000Z</time>
      </trkpt>
      <trkpt lat="47.85949" lon="6.74698">
        <ele>681</ele>
        <time>2026-08-23T12:01:15.000Z</time>
      </trkpt>
      <trkpt lat="47.85938" lon="6.74689">
        <ele>680.4</ele>
        <time>2026-08-23T12:01:17.000Z</time>
      </trkpt>
      <trkpt lat="47.85926" lon="6.7468">
        <ele>680</ele>
        <time>2026-08-23T12:01:19.000Z</time>
      </trkpt>
      <trkpt lat="47.85913" lon="6.7467">
        <ele>679.2</ele>
        <time>2026-08-23T12:01:21.000Z</time>
      </trkpt>
      <trkpt lat="47.85899" lon="6.74658">
        <ele>678.4</ele>
        <time>2026-08-23T12:01:23.000Z</time>
      </trkpt>
      <trkpt lat="47.85883" lon="6.74646">
        <ele>677.4</ele>
        <time>2026-08-23T12:01:25.000Z</time>
      </trkpt>
      <trkpt lat="47.85867" lon="6.74633">
        <ele>676.6</ele>
        <time>2026-08-23T12:01:27.000Z</time>
      </trkpt>
      <trkpt lat="47.85851" lon="6.7462">
        <ele>675.6</ele>
        <time>2026-08-23T12:01:29.000Z</time>
      </trkpt>
      <trkpt lat="47.85834" lon="6.74606">
        <ele>674.2</ele>
        <time>2026-08-23T12:01:31.000Z</time>
      </trkpt>
      <trkpt lat="47.85817" lon="6.74594">
        <ele>673.2</ele>
        <time>2026-08-23T12:01:33.000Z</time>
      </trkpt>
      <trkpt lat="47.85799" lon="6.74583">
        <ele>672</ele>
        <time>2026-08-23T12:01:35.000Z</time>
      </trkpt>
      <trkpt lat="47.85782" lon="6.74571">
        <ele>671</ele>
        <time>2026-08-23T12:01:37.000Z</time>
      </trkpt>
      <trkpt lat="47.85766" lon="6.74555">
        <ele>669.8</ele>
        <time>2026-08-23T12:01:40.000Z</time>
      </trkpt>
      <trkpt lat="47.85753" lon="6.74535">
        <ele>668.6</ele>
        <time>2026-08-23T12:01:42.000Z</time>
      </trkpt>
      <trkpt lat="47.85742" lon="6.74512">
        <ele>667.8</ele>
        <time>2026-08-23T12:01:44.000Z</time>
      </trkpt>
      <trkpt lat="47.85731" lon="6.74488">
        <ele>666.8</ele>
        <time>2026-08-23T12:01:46.000Z</time>
      </trkpt>
      <trkpt lat="47.85721" lon="6.74464">
        <ele>665.6</ele>
        <time>2026-08-23T12:01:48.000Z</time>
      </trkpt>
      <trkpt lat="47.85711" lon="6.74439">
        <ele>664.4</ele>
        <time>2026-08-23T12:01:50.000Z</time>
      </trkpt>
      <trkpt lat="47.85701" lon="6.74414">
        <ele>663.2</ele>
        <time>2026-08-23T12:01:52.000Z</time>
      </trkpt>
      <trkpt lat="47.8569" lon="6.74388">
        <ele>662.2</ele>
        <time>2026-08-23T12:01:54.000Z</time>
      </trkpt>
      <trkpt lat="47.85679" lon="6.74362">
        <ele>661.2</ele>
        <time>2026-08-23T12:01:56.000Z</time>
      </trkpt>
      <trkpt lat="47.85668" lon="6.74336">
        <ele>660.2</ele>
        <time>2026-08-23T12:01:58.000Z</time>
      </trkpt>
      <trkpt lat="47.85657" lon="6.74309">
        <ele>659</ele>
        <time>2026-08-23T12:02:00.000Z</time>
      </trkpt>
      <trkpt lat="47.85648" lon="6.7428">
        <ele>658</ele>
        <time>2026-08-23T12:02:02.000Z</time>
      </trkpt>
      <trkpt lat="47.8564" lon="6.7425">
        <ele>657</ele>
        <time>2026-08-23T12:02:04.000Z</time>
      </trkpt>
      <trkpt lat="47.85636" lon="6.74218">
        <ele>656</ele>
        <time>2026-08-23T12:02:06.000Z</time>
      </trkpt>
      <trkpt lat="47.85634" lon="6.74185">
        <ele>654.6</ele>
        <time>2026-08-23T12:02:08.000Z</time>
      </trkpt>
      <trkpt lat="47.85634" lon="6.74151">
        <ele>653.8</ele>
        <time>2026-08-23T12:02:10.000Z</time>
      </trkpt>
      <trkpt lat="47.85633" lon="6.74117">
        <ele>652.8</ele>
        <time>2026-08-23T12:02:12.000Z</time>
      </trkpt>
      <trkpt lat="47.85631" lon="6.74082">
        <ele>651.4</ele>
        <time>2026-08-23T12:02:14.000Z</time>
      </trkpt>
      <trkpt lat="47.85627" lon="6.74047">
        <ele>649.6</ele>
        <time>2026-08-23T12:02:16.000Z</time>
      </trkpt>
      <trkpt lat="47.85621" lon="6.74013">
        <ele>648.4</ele>
        <time>2026-08-23T12:02:18.000Z</time>
      </trkpt>
      <trkpt lat="47.85616" lon="6.7398">
        <ele>647.4</ele>
        <time>2026-08-23T12:02:20.000Z</time>
      </trkpt>
      <trkpt lat="47.85615" lon="6.73946">
        <ele>646</ele>
        <time>2026-08-23T12:02:22.000Z</time>
      </trkpt>
      <trkpt lat="47.85615" lon="6.73911">
        <ele>645</ele>
        <time>2026-08-23T12:02:24.000Z</time>
      </trkpt>
      <trkpt lat="47.85615" lon="6.73876">
        <ele>643.6</ele>
        <time>2026-08-23T12:02:26.000Z</time>
      </trkpt>
      <trkpt lat="47.85617" lon="6.73841">
        <ele>642.4</ele>
        <time>2026-08-23T12:02:28.000Z</time>
      </trkpt>
      <trkpt lat="47.85622" lon="6.73807">
        <ele>640.8</ele>
        <time>2026-08-23T12:02:30.000Z</time>
      </trkpt>
      <trkpt lat="47.85633" lon="6.73776">
        <ele>639.2</ele>
        <time>2026-08-23T12:02:32.000Z</time>
      </trkpt>
      <trkpt lat="47.8565" lon="6.73752">
        <ele>637.6</ele>
        <time>2026-08-23T12:02:34.000Z</time>
      </trkpt>
      <trkpt lat="47.85672" lon="6.73737">
        <ele>636</ele>
        <time>2026-08-23T12:02:36.000Z</time>
      </trkpt>
      <trkpt lat="47.85695" lon="6.73729">
        <ele>634.6</ele>
        <time>2026-08-23T12:02:38.000Z</time>
      </trkpt>
      <trkpt lat="47.85717" lon="6.73729">
        <ele>633.2</ele>
        <time>2026-08-23T12:02:40.000Z</time>
      </trkpt>
      <trkpt lat="47.85742" lon="6.73732">
        <ele>632.4</ele>
        <time>2026-08-23T12:02:42.000Z</time>
      </trkpt>
      <trkpt lat="47.85769" lon="6.73736">
        <ele>631.2</ele>
        <time>2026-08-23T12:02:44.000Z</time>
      </trkpt>
      <trkpt lat="47.85792" lon="6.73738">
        <ele>630.2</ele>
        <time>2026-08-23T12:02:46.000Z</time>
      </trkpt>
      <trkpt lat="47.85813" lon="6.73735">
        <ele>629</ele>
        <time>2026-08-23T12:02:48.000Z</time>
      </trkpt>
      <trkpt lat="47.85833" lon="6.7372">
        <ele>627.8</ele>
        <time>2026-08-23T12:02:50.000Z</time>
      </trkpt>
      <trkpt lat="47.85846" lon="6.73694">
        <ele>627</ele>
        <time>2026-08-23T12:02:52.000Z</time>
      </trkpt>
      <trkpt lat="47.8585" lon="6.73661">
        <ele>626</ele>
        <time>2026-08-23T12:02:54.000Z</time>
      </trkpt>
      <trkpt lat="47.85845" lon="6.73628">
        <ele>625.2</ele>
        <time>2026-08-23T12:02:56.000Z</time>
      </trkpt>
      <trkpt lat="47.85831" lon="6.73601">
        <ele>624.4</ele>
        <time>2026-08-23T12:02:58.000Z</time>
      </trkpt>
      <trkpt lat="47.85812" lon="6.7358">
        <ele>623.6</ele>
        <time>2026-08-23T12:03:00.000Z</time>
      </trkpt>
      <trkpt lat="47.85792" lon="6.73563">
        <ele>622.6</ele>
        <time>2026-08-23T12:03:02.000Z</time>
      </trkpt>
      <trkpt lat="47.85773" lon="6.73547">
        <ele>621.6</ele>
        <time>2026-08-23T12:03:04.000Z</time>
      </trkpt>
      <trkpt lat="47.85753" lon="6.73531">
        <ele>620.4</ele>
        <time>2026-08-23T12:03:06.000Z</time>
      </trkpt>
      <trkpt lat="47.85733" lon="6.73516">
        <ele>619.4</ele>
        <time>2026-08-23T12:03:08.000Z</time>
      </trkpt>
      <trkpt lat="47.85712" lon="6.73503">
        <ele>618.4</ele>
        <time>2026-08-23T12:03:10.000Z</time>
      </trkpt>
      <trkpt lat="47.85691" lon="6.7349">
        <ele>617.2</ele>
        <time>2026-08-23T12:03:12.000Z</time>
      </trkpt>
      <trkpt lat="47.85668" lon="6.73478">
        <ele>616.2</ele>
        <time>2026-08-23T12:03:14.000Z</time>
      </trkpt>
      <trkpt lat="47.85645" lon="6.73471">
        <ele>614.8</ele>
        <time>2026-08-23T12:03:16.000Z</time>
      </trkpt>
      <trkpt lat="47.8562" lon="6.73469">
        <ele>613.6</ele>
        <time>2026-08-23T12:03:18.000Z</time>
      </trkpt>
      <trkpt lat="47.85595" lon="6.73468">
        <ele>612.2</ele>
        <time>2026-08-23T12:03:20.000Z</time>
      </trkpt>
      <trkpt lat="47.85571" lon="6.73461">
        <ele>611</ele>
        <time>2026-08-23T12:03:22.000Z</time>
      </trkpt>
      <trkpt lat="47.85548" lon="6.73447">
        <ele>609.8</ele>
        <time>2026-08-23T12:03:24.000Z</time>
      </trkpt>
      <trkpt lat="47.85525" lon="6.73427">
        <ele>608.4</ele>
        <time>2026-08-23T12:03:26.000Z</time>
      </trkpt>
      <trkpt lat="47.85504" lon="6.73404">
        <ele>607</ele>
        <time>2026-08-23T12:03:28.000Z</time>
      </trkpt>
      <trkpt lat="47.85483" lon="6.73382">
        <ele>605.4</ele>
        <time>2026-08-23T12:03:30.000Z</time>
      </trkpt>
      <trkpt lat="47.85463" lon="6.73359">
        <ele>603.8</ele>
        <time>2026-08-23T12:03:32.000Z</time>
      </trkpt>
      <trkpt lat="47.85445" lon="6.73331">
        <ele>602.4</ele>
        <time>2026-08-23T12:03:34.000Z</time>
      </trkpt>
      <trkpt lat="47.8543" lon="6.733">
        <ele>601.2</ele>
        <time>2026-08-23T12:03:36.000Z</time>
      </trkpt>
      <trkpt lat="47.85416" lon="6.73267">
        <ele>599.6</ele>
        <time>2026-08-23T12:03:39.000Z</time>
      </trkpt>
      <trkpt lat="47.85401" lon="6.73235">
        <ele>598.2</ele>
        <time>2026-08-23T12:03:41.000Z</time>
      </trkpt>
      <trkpt lat="47.85387" lon="6.73203">
        <ele>596.8</ele>
        <time>2026-08-23T12:03:43.000Z</time>
      </trkpt>
      <trkpt lat="47.85374" lon="6.73169">
        <ele>595.6</ele>
        <time>2026-08-23T12:03:45.000Z</time>
      </trkpt>
      <trkpt lat="47.85365" lon="6.73133">
        <ele>594</ele>
        <time>2026-08-23T12:03:47.000Z</time>
      </trkpt>
      <trkpt lat="47.8536" lon="6.73095">
        <ele>592.4</ele>
        <time>2026-08-23T12:03:49.000Z</time>
      </trkpt>
      <trkpt lat="47.85356" lon="6.73056">
        <ele>590.8</ele>
        <time>2026-08-23T12:03:51.000Z</time>
      </trkpt>
      <trkpt lat="47.85346" lon="6.73021">
        <ele>589.2</ele>
        <time>2026-08-23T12:03:53.000Z</time>
      </trkpt>
      <trkpt lat="47.85331" lon="6.72991">
        <ele>588</ele>
        <time>2026-08-23T12:03:55.000Z</time>
      </trkpt>
      <trkpt lat="47.85312" lon="6.72964">
        <ele>586.8</ele>
        <time>2026-08-23T12:03:57.000Z</time>
      </trkpt>
      <trkpt lat="47.85293" lon="6.72939">
        <ele>585.8</ele>
        <time>2026-08-23T12:03:59.000Z</time>
      </trkpt>
      <trkpt lat="47.85273" lon="6.72918">
        <ele>585.2</ele>
        <time>2026-08-23T12:04:01.000Z</time>
      </trkpt>
      <trkpt lat="47.85251" lon="6.72903">
        <ele>584.8</ele>
        <time>2026-08-23T12:04:03.000Z</time>
      </trkpt>
      <trkpt lat="47.8523" lon="6.72895">
        <ele>584.6</ele>
        <time>2026-08-23T12:04:05.000Z</time>
      </trkpt>
      <trkpt lat="47.85208" lon="6.72893">
        <ele>584.4</ele>
        <time>2026-08-23T12:04:07.000Z</time>
      </trkpt>
      <trkpt lat="47.85187" lon="6.72895">
        <ele>584</ele>
        <time>2026-08-23T12:04:09.000Z</time>
      </trkpt>
      <trkpt lat="47.85168" lon="6.72897">
        <ele>584</ele>
        <time>2026-08-23T12:04:11.000Z</time>
      </trkpt>
      <trkpt lat="47.8515" lon="6.72898">
        <ele>584</ele>
        <time>2026-08-23T12:04:13.000Z</time>
      </trkpt>
      <trkpt lat="47.85134" lon="6.72897">
        <ele>584.2</ele>
        <time>2026-08-23T12:04:15.000Z</time>
      </trkpt>
      <trkpt lat="47.85119" lon="6.72892">
        <ele>584.2</ele>
        <time>2026-08-23T12:04:17.000Z</time>
      </trkpt>
      <trkpt lat="47.85106" lon="6.72885">
        <ele>584.4</ele>
        <time>2026-08-23T12:04:19.000Z</time>
      </trkpt>
      <trkpt lat="47.85089" lon="6.72874">
        <ele>584.2</ele>
        <time>2026-08-23T12:04:21.000Z</time>
      </trkpt>
      <trkpt lat="47.85069" lon="6.72864">
        <ele>583.8</ele>
        <time>2026-08-23T12:04:23.000Z</time>
      </trkpt>
      <trkpt lat="47.85051" lon="6.72854">
        <ele>583</ele>
        <time>2026-08-23T12:04:25.000Z</time>
      </trkpt>
      <trkpt lat="47.85034" lon="6.72844">
        <ele>582</ele>
        <time>2026-08-23T12:04:27.000Z</time>
      </trkpt>
      <trkpt lat="47.85016" lon="6.72832">
        <ele>580.8</ele>
        <time>2026-08-23T12:04:29.000Z</time>
      </trkpt>
      <trkpt lat="47.84997" lon="6.72818">
        <ele>579.8</ele>
        <time>2026-08-23T12:04:31.000Z</time>
      </trkpt>
      <trkpt lat="47.84978" lon="6.72805">
        <ele>578.8</ele>
        <time>2026-08-23T12:04:33.000Z</time>
      </trkpt>
      <trkpt lat="47.84958" lon="6.7279">
        <ele>577.6</ele>
        <time>2026-08-23T12:04:35.000Z</time>
      </trkpt>
      <trkpt lat="47.84938" lon="6.72774">
        <ele>576.6</ele>
        <time>2026-08-23T12:04:37.000Z</time>
      </trkpt>
      <trkpt lat="47.8492" lon="6.72752">
        <ele>575.2</ele>
        <time>2026-08-23T12:04:39.000Z</time>
      </trkpt>
      <trkpt lat="47.84908" lon="6.72722">
        <ele>573.8</ele>
        <time>2026-08-23T12:04:41.000Z</time>
      </trkpt>
      <trkpt lat="47.84899" lon="6.72687">
        <ele>572.4</ele>
        <time>2026-08-23T12:04:43.000Z</time>
      </trkpt>
      <trkpt lat="47.84894" lon="6.72651">
        <ele>571</ele>
        <time>2026-08-23T12:04:45.000Z</time>
      </trkpt>
      <trkpt lat="47.84892" lon="6.72614">
        <ele>569.6</ele>
        <time>2026-08-23T12:04:47.000Z</time>
      </trkpt>
      <trkpt lat="47.84895" lon="6.72577">
        <ele>568.2</ele>
        <time>2026-08-23T12:04:49.000Z</time>
      </trkpt>
      <trkpt lat="47.84906" lon="6.72544">
        <ele>567</ele>
        <time>2026-08-23T12:04:51.000Z</time>
      </trkpt>
      <trkpt lat="47.84918" lon="6.7251">
        <ele>565.6</ele>
        <time>2026-08-23T12:04:53.000Z</time>
      </trkpt>
      <trkpt lat="47.84919" lon="6.72475">
        <ele>564.2</ele>
        <time>2026-08-23T12:04:55.000Z</time>
      </trkpt>
      <trkpt lat="47.84907" lon="6.72443">
        <ele>562.6</ele>
        <time>2026-08-23T12:04:57.000Z</time>
      </trkpt>
      <trkpt lat="47.84886" lon="6.72418">
        <ele>561</ele>
        <time>2026-08-23T12:04:59.000Z</time>
      </trkpt>
      <trkpt lat="47.84863" lon="6.72397">
        <ele>559.8</ele>
        <time>2026-08-23T12:05:01.000Z</time>
      </trkpt>
      <trkpt lat="47.8484" lon="6.72378">
        <ele>558.2</ele>
        <time>2026-08-23T12:05:03.000Z</time>
      </trkpt>
      <trkpt lat="47.84818" lon="6.7236">
        <ele>556.8</ele>
        <time>2026-08-23T12:05:05.000Z</time>
      </trkpt>
      <trkpt lat="47.84795" lon="6.72344">
        <ele>555.4</ele>
        <time>2026-08-23T12:05:07.000Z</time>
      </trkpt>
      <trkpt lat="47.84772" lon="6.72329">
        <ele>554</ele>
        <time>2026-08-23T12:05:09.000Z</time>
      </trkpt>
      <trkpt lat="47.8475" lon="6.72312">
        <ele>552.6</ele>
        <time>2026-08-23T12:05:11.000Z</time>
      </trkpt>
      <trkpt lat="47.84729" lon="6.7229">
        <ele>551.4</ele>
        <time>2026-08-23T12:05:13.000Z</time>
      </trkpt>
      <trkpt lat="47.84709" lon="6.72266">
        <ele>550</ele>
        <time>2026-08-23T12:05:15.000Z</time>
      </trkpt>
      <trkpt lat="47.8469" lon="6.72241">
        <ele>548.4</ele>
        <time>2026-08-23T12:05:18.000Z</time>
      </trkpt>
      <trkpt lat="47.8467" lon="6.72217">
        <ele>546.8</ele>
        <time>2026-08-23T12:05:20.000Z</time>
      </trkpt>
      <trkpt lat="47.84649" lon="6.72194">
        <ele>545.6</ele>
        <time>2026-08-23T12:05:22.000Z</time>
      </trkpt>
      <trkpt lat="47.84629" lon="6.72171">
        <ele>544.4</ele>
        <time>2026-08-23T12:05:24.000Z</time>
      </trkpt>
      <trkpt lat="47.84608" lon="6.72153">
        <ele>543</ele>
        <time>2026-08-23T12:05:26.000Z</time>
      </trkpt>
      <trkpt lat="47.84584" lon="6.72138">
        <ele>541.6</ele>
        <time>2026-08-23T12:05:28.000Z</time>
      </trkpt>
      <trkpt lat="47.8456" lon="6.72126">
        <ele>540</ele>
        <time>2026-08-23T12:05:30.000Z</time>
      </trkpt>
      <trkpt lat="47.84537" lon="6.72114">
        <ele>538.6</ele>
        <time>2026-08-23T12:05:32.000Z</time>
      </trkpt>
      <trkpt lat="47.84513" lon="6.72101">
        <ele>537.2</ele>
        <time>2026-08-23T12:05:34.000Z</time>
      </trkpt>
      <trkpt lat="47.84489" lon="6.72089">
        <ele>535.8</ele>
        <time>2026-08-23T12:05:36.000Z</time>
      </trkpt>
      <trkpt lat="47.84466" lon="6.72076">
        <ele>534.4</ele>
        <time>2026-08-23T12:05:38.000Z</time>
      </trkpt>
      <trkpt lat="47.84442" lon="6.72062">
        <ele>533</ele>
        <time>2026-08-23T12:05:40.000Z</time>
      </trkpt>
      <trkpt lat="47.84419" lon="6.72045">
        <ele>531.6</ele>
        <time>2026-08-23T12:05:42.000Z</time>
      </trkpt>
      <trkpt lat="47.84396" lon="6.72026">
        <ele>530.2</ele>
        <time>2026-08-23T12:05:44.000Z</time>
      </trkpt>
      <trkpt lat="47.84374" lon="6.72006">
        <ele>528.8</ele>
        <time>2026-08-23T12:05:46.000Z</time>
      </trkpt>
      <trkpt lat="47.84352" lon="6.71985">
        <ele>527.4</ele>
        <time>2026-08-23T12:05:48.000Z</time>
      </trkpt>
      <trkpt lat="47.84331" lon="6.71965">
        <ele>526</ele>
        <time>2026-08-23T12:05:50.000Z</time>
      </trkpt>
      <trkpt lat="47.84311" lon="6.71944">
        <ele>524.6</ele>
        <time>2026-08-23T12:05:52.000Z</time>
      </trkpt>
      <trkpt lat="47.84291" lon="6.7192">
        <ele>523.4</ele>
        <time>2026-08-23T12:05:54.000Z</time>
      </trkpt>
      <trkpt lat="47.84272" lon="6.71896">
        <ele>522.2</ele>
        <time>2026-08-23T12:05:56.000Z</time>
      </trkpt>
      <trkpt lat="47.84253" lon="6.71871">
        <ele>520.6</ele>
        <time>2026-08-23T12:05:58.000Z</time>
      </trkpt>
      <trkpt lat="47.84233" lon="6.71846">
        <ele>519.2</ele>
        <time>2026-08-23T12:06:00.000Z</time>
      </trkpt>
      <trkpt lat="47.84212" lon="6.71824">
        <ele>517.8</ele>
        <time>2026-08-23T12:06:02.000Z</time>
      </trkpt>
      <trkpt lat="47.84188" lon="6.71812">
        <ele>516.4</ele>
        <time>2026-08-23T12:06:04.000Z</time>
      </trkpt>
      <trkpt lat="47.84162" lon="6.71807">
        <ele>515.2</ele>
        <time>2026-08-23T12:06:06.000Z</time>
      </trkpt>
      <trkpt lat="47.84136" lon="6.71804">
        <ele>513.8</ele>
        <time>2026-08-23T12:06:08.000Z</time>
      </trkpt>
      <trkpt lat="47.8411" lon="6.71801">
        <ele>512.6</ele>
        <time>2026-08-23T12:06:10.000Z</time>
      </trkpt>
      <trkpt lat="47.8408" lon="6.71793">
        <ele>511</ele>
        <time>2026-08-23T12:06:12.000Z</time>
      </trkpt>
      <trkpt lat="47.84052" lon="6.71779">
        <ele>509.4</ele>
        <time>2026-08-23T12:06:14.000Z</time>
      </trkpt>
      <trkpt lat="47.84024" lon="6.7176">
        <ele>507.8</ele>
        <time>2026-08-23T12:06:16.000Z</time>
      </trkpt>
      <trkpt lat="47.84" lon="6.71743">
        <ele>506.2</ele>
        <time>2026-08-23T12:06:18.000Z</time>
      </trkpt>
      <trkpt lat="47.83978" lon="6.71725">
        <ele>505</ele>
        <time>2026-08-23T12:06:20.000Z</time>
      </trkpt>
      <trkpt lat="47.83955" lon="6.71709">
        <ele>503.6</ele>
        <time>2026-08-23T12:06:22.000Z</time>
      </trkpt>
      <trkpt lat="47.83932" lon="6.71696">
        <ele>502.2</ele>
        <time>2026-08-23T12:06:24.000Z</time>
      </trkpt>
      <trkpt lat="47.83908" lon="6.71683">
        <ele>500.8</ele>
        <time>2026-08-23T12:06:26.000Z</time>
      </trkpt>
      <trkpt lat="47.83885" lon="6.71667">
        <ele>499.4</ele>
        <time>2026-08-23T12:06:28.000Z</time>
      </trkpt>
      <trkpt lat="47.83864" lon="6.71645">
        <ele>498</ele>
        <time>2026-08-23T12:06:30.000Z</time>
      </trkpt>
      <trkpt lat="47.83845" lon="6.71617">
        <ele>496.4</ele>
        <time>2026-08-23T12:06:32.000Z</time>
      </trkpt>
      <trkpt lat="47.83828" lon="6.71587">
        <ele>495</ele>
        <time>2026-08-23T12:06:34.000Z</time>
      </trkpt>
      <trkpt lat="47.83814" lon="6.71553">
        <ele>493.6</ele>
        <time>2026-08-23T12:06:36.000Z</time>
      </trkpt>
      <trkpt lat="47.83798" lon="6.71522">
        <ele>492</ele>
        <time>2026-08-23T12:06:38.000Z</time>
      </trkpt>
      <trkpt lat="47.83779" lon="6.71495">
        <ele>490.6</ele>
        <time>2026-08-23T12:06:40.000Z</time>
      </trkpt>
      <trkpt lat="47.83758" lon="6.71474">
        <ele>489.2</ele>
        <time>2026-08-23T12:06:42.000Z</time>
      </trkpt>
      <trkpt lat="47.83736" lon="6.71454">
        <ele>487.6</ele>
        <time>2026-08-23T12:06:44.000Z</time>
      </trkpt>
      <trkpt lat="47.83714" lon="6.71434">
        <ele>486.2</ele>
        <time>2026-08-23T12:06:46.000Z</time>
      </trkpt>
      <trkpt lat="47.83693" lon="6.71414">
        <ele>485</ele>
        <time>2026-08-23T12:06:48.000Z</time>
      </trkpt>
      <trkpt lat="47.83671" lon="6.71395">
        <ele>483.8</ele>
        <time>2026-08-23T12:06:50.000Z</time>
      </trkpt>
      <trkpt lat="47.83648" lon="6.71377">
        <ele>482.4</ele>
        <time>2026-08-23T12:06:52.000Z</time>
      </trkpt>
      <trkpt lat="47.83625" lon="6.7136">
        <ele>481</ele>
        <time>2026-08-23T12:06:54.000Z</time>
      </trkpt>
      <trkpt lat="47.83602" lon="6.71341">
        <ele>479.6</ele>
        <time>2026-08-23T12:06:56.000Z</time>
      </trkpt>
      <trkpt lat="47.83578" lon="6.71321">
        <ele>478</ele>
        <time>2026-08-23T12:06:58.000Z</time>
      </trkpt>
      <trkpt lat="47.83556" lon="6.71299">
        <ele>476.6</ele>
        <time>2026-08-23T12:07:00.000Z</time>
      </trkpt>
      <trkpt lat="47.83533" lon="6.71275">
        <ele>475</ele>
        <time>2026-08-23T12:07:02.000Z</time>
      </trkpt>
      <trkpt lat="47.83511" lon="6.71254">
        <ele>473.6</ele>
        <time>2026-08-23T12:07:04.000Z</time>
      </trkpt>
      <trkpt lat="47.83487" lon="6.71233">
        <ele>472.2</ele>
        <time>2026-08-23T12:07:07.000Z</time>
      </trkpt>
      <trkpt lat="47.83464" lon="6.71211">
        <ele>470.4</ele>
        <time>2026-08-23T12:07:09.000Z</time>
      </trkpt>
      <trkpt lat="47.83443" lon="6.71186">
        <ele>468.8</ele>
        <time>2026-08-23T12:07:11.000Z</time>
      </trkpt>
      <trkpt lat="47.83423" lon="6.71157">
        <ele>467</ele>
        <time>2026-08-23T12:07:13.000Z</time>
      </trkpt>
      <trkpt lat="47.83401" lon="6.71132">
        <ele>465.6</ele>
        <time>2026-08-23T12:07:15.000Z</time>
      </trkpt>
      <trkpt lat="47.83376" lon="6.71116">
        <ele>464.4</ele>
        <time>2026-08-23T12:07:17.000Z</time>
      </trkpt>
      <trkpt lat="47.8335" lon="6.71102">
        <ele>463.2</ele>
        <time>2026-08-23T12:07:19.000Z</time>
      </trkpt>
      <trkpt lat="47.83325" lon="6.71085">
        <ele>461.6</ele>
        <time>2026-08-23T12:07:21.000Z</time>
      </trkpt>
      <trkpt lat="47.83301" lon="6.71064">
        <ele>460.2</ele>
        <time>2026-08-23T12:07:23.000Z</time>
      </trkpt>
      <trkpt lat="47.83277" lon="6.71042">
        <ele>458.6</ele>
        <time>2026-08-23T12:07:25.000Z</time>
      </trkpt>
      <trkpt lat="47.83254" lon="6.71019">
        <ele>457</ele>
        <time>2026-08-23T12:07:27.000Z</time>
      </trkpt>
      <trkpt lat="47.8323" lon="6.70997">
        <ele>455.4</ele>
        <time>2026-08-23T12:07:29.000Z</time>
      </trkpt>
      <trkpt lat="47.83208" lon="6.70972">
        <ele>453.8</ele>
        <time>2026-08-23T12:07:31.000Z</time>
      </trkpt>
      <trkpt lat="47.8319" lon="6.70942">
        <ele>452</ele>
        <time>2026-08-23T12:07:33.000Z</time>
      </trkpt>
      <trkpt lat="47.83171" lon="6.70912">
        <ele>450.6</ele>
        <time>2026-08-23T12:07:35.000Z</time>
      </trkpt>
      <trkpt lat="47.83151" lon="6.70885">
        <ele>449</ele>
        <time>2026-08-23T12:07:37.000Z</time>
      </trkpt>
      <trkpt lat="47.83129" lon="6.70862">
        <ele>447.6</ele>
        <time>2026-08-23T12:07:39.000Z</time>
      </trkpt>
      <trkpt lat="47.83106" lon="6.7084">
        <ele>446.2</ele>
        <time>2026-08-23T12:07:41.000Z</time>
      </trkpt>
      <trkpt lat="47.83079" lon="6.70807">
        <ele>444.6</ele>
        <time>2026-08-23T12:07:43.000Z</time>
      </trkpt>
      <trkpt lat="47.83057" lon="6.70768">
        <ele>442.8</ele>
        <time>2026-08-23T12:07:45.000Z</time>
      </trkpt>
      <trkpt lat="47.83041" lon="6.70731">
        <ele>441.2</ele>
        <time>2026-08-23T12:07:47.000Z</time>
      </trkpt>
      <trkpt lat="47.83025" lon="6.707">
        <ele>440</ele>
        <time>2026-08-23T12:07:49.000Z</time>
      </trkpt>
      <trkpt lat="47.83005" lon="6.70676">
        <ele>439.2</ele>
        <time>2026-08-23T12:07:51.000Z</time>
      </trkpt>
      <trkpt lat="47.82983" lon="6.7066">
        <ele>438.8</ele>
        <time>2026-08-23T12:07:53.000Z</time>
      </trkpt>
      <trkpt lat="47.82961" lon="6.70646">
        <ele>438.4</ele>
        <time>2026-08-23T12:07:55.000Z</time>
      </trkpt>
      <trkpt lat="47.82939" lon="6.70631">
        <ele>438.2</ele>
        <time>2026-08-23T12:07:57.000Z</time>
      </trkpt>
      <trkpt lat="47.82919" lon="6.70613">
        <ele>438</ele>
        <time>2026-08-23T12:07:59.000Z</time>
      </trkpt>
      <trkpt lat="47.82901" lon="6.70591">
        <ele>437.8</ele>
        <time>2026-08-23T12:08:01.000Z</time>
      </trkpt>
      <trkpt lat="47.82884" lon="6.70569">
        <ele>437.6</ele>
        <time>2026-08-23T12:08:03.000Z</time>
      </trkpt>
      <trkpt lat="47.82867" lon="6.70546">
        <ele>437.4</ele>
        <time>2026-08-23T12:08:05.000Z</time>
      </trkpt>
      <trkpt lat="47.82849" lon="6.70526">
        <ele>437.4</ele>
        <time>2026-08-23T12:08:07.000Z</time>
      </trkpt>
      <trkpt lat="47.82831" lon="6.70507">
        <ele>437.2</ele>
        <time>2026-08-23T12:08:09.000Z</time>
      </trkpt>
      <trkpt lat="47.82812" lon="6.70491">
        <ele>437</ele>
        <time>2026-08-23T12:08:11.000Z</time>
      </trkpt>
      <trkpt lat="47.82793" lon="6.70476">
        <ele>436.8</ele>
        <time>2026-08-23T12:08:13.000Z</time>
      </trkpt>
      <trkpt lat="47.82774" lon="6.70461">
        <ele>436.8</ele>
        <time>2026-08-23T12:08:15.000Z</time>
      </trkpt>
      <trkpt lat="47.82756" lon="6.70446">
        <ele>436.6</ele>
        <time>2026-08-23T12:08:17.000Z</time>
      </trkpt>
      <trkpt lat="47.82738" lon="6.70432">
        <ele>436.4</ele>
        <time>2026-08-23T12:08:19.000Z</time>
      </trkpt>
      <trkpt lat="47.8272" lon="6.70419">
        <ele>436.2</ele>
        <time>2026-08-23T12:08:21.000Z</time>
      </trkpt>
      <trkpt lat="47.82703" lon="6.70405">
        <ele>436</ele>
        <time>2026-08-23T12:08:23.000Z</time>
      </trkpt>
      <trkpt lat="47.82687" lon="6.7039">
        <ele>435.8</ele>
        <time>2026-08-23T12:08:25.000Z</time>
      </trkpt>
      <trkpt lat="47.82672" lon="6.70373">
        <ele>435.6</ele>
        <time>2026-08-23T12:08:27.000Z</time>
      </trkpt>
      <trkpt lat="47.82658" lon="6.70354">
        <ele>435.4</ele>
        <time>2026-08-23T12:08:29.000Z</time>
      </trkpt>
      <trkpt lat="47.82647" lon="6.70333">
        <ele>435.2</ele>
        <time>2026-08-23T12:08:31.000Z</time>
      </trkpt>
      <trkpt lat="47.82636" lon="6.70311">
        <ele>435</ele>
        <time>2026-08-23T12:08:33.000Z</time>
      </trkpt>
      <trkpt lat="47.82627" lon="6.70288">
        <ele>435</ele>
        <time>2026-08-23T12:08:35.000Z</time>
      </trkpt>
      <trkpt lat="47.82619" lon="6.70265">
        <ele>434.8</ele>
        <time>2026-08-23T12:08:37.000Z</time>
      </trkpt>
      <trkpt lat="47.82611" lon="6.70243">
        <ele>434.8</ele>
        <time>2026-08-23T12:08:39.000Z</time>
      </trkpt>
      <trkpt lat="47.82603" lon="6.7022">
        <ele>434.8</ele>
        <time>2026-08-23T12:08:42.000Z</time>
      </trkpt>
      <trkpt lat="47.82595" lon="6.70198">
        <ele>434.6</ele>
        <time>2026-08-23T12:08:44.000Z</time>
      </trkpt>
      <trkpt lat="47.82586" lon="6.70176">
        <ele>434.4</ele>
        <time>2026-08-23T12:08:46.000Z</time>
      </trkpt>
      <trkpt lat="47.82576" lon="6.70155">
        <ele>434</ele>
        <time>2026-08-23T12:08:48.000Z</time>
      </trkpt>
      <trkpt lat="47.82565" lon="6.70135">
        <ele>433.6</ele>
        <time>2026-08-23T12:08:50.000Z</time>
      </trkpt>
      <trkpt lat="47.82554" lon="6.70116">
        <ele>433.2</ele>
        <time>2026-08-23T12:08:52.000Z</time>
      </trkpt>
      <trkpt lat="47.82541" lon="6.70099">
        <ele>433</ele>
        <time>2026-08-23T12:08:54.000Z</time>
      </trkpt>
      <trkpt lat="47.82528" lon="6.70083">
        <ele>432.8</ele>
        <time>2026-08-23T12:08:56.000Z</time>
      </trkpt>
      <trkpt lat="47.82514" lon="6.70067">
        <ele>432.6</ele>
        <time>2026-08-23T12:08:58.000Z</time>
      </trkpt>
      <trkpt lat="47.82501" lon="6.70052">
        <ele>432.4</ele>
        <time>2026-08-23T12:09:00.000Z</time>
      </trkpt>
      <trkpt lat="47.82487" lon="6.70037">
        <ele>432.2</ele>
        <time>2026-08-23T12:09:02.000Z</time>
      </trkpt>
      <trkpt lat="47.82473" lon="6.70022">
        <ele>432</ele>
        <time>2026-08-23T12:09:04.000Z</time>
      </trkpt>
      <trkpt lat="47.82461" lon="6.70005">
        <ele>431.8</ele>
        <time>2026-08-23T12:09:06.000Z</time>
      </trkpt>
      <trkpt lat="47.82449" lon="6.69987">
        <ele>431.6</ele>
        <time>2026-08-23T12:09:08.000Z</time>
      </trkpt>
      <trkpt lat="47.82438" lon="6.69968">
        <ele>431.4</ele>
        <time>2026-08-23T12:09:10.000Z</time>
      </trkpt>
      <trkpt lat="47.82427" lon="6.69948">
        <ele>431.4</ele>
        <time>2026-08-23T12:09:12.000Z</time>
      </trkpt>
      <trkpt lat="47.82416" lon="6.69929">
        <ele>431.2</ele>
        <time>2026-08-23T12:09:14.000Z</time>
      </trkpt>
      <trkpt lat="47.82405" lon="6.6991">
        <ele>431</ele>
        <time>2026-08-23T12:09:16.000Z</time>
      </trkpt>
      <trkpt lat="47.82394" lon="6.69891">
        <ele>430.8</ele>
        <time>2026-08-23T12:09:18.000Z</time>
      </trkpt>
      <trkpt lat="47.82383" lon="6.69872">
        <ele>430.6</ele>
        <time>2026-08-23T12:09:20.000Z</time>
      </trkpt>
      <trkpt lat="47.82372" lon="6.69852">
        <ele>430.4</ele>
        <time>2026-08-23T12:09:22.000Z</time>
      </trkpt>
      <trkpt lat="47.82362" lon="6.69833">
        <ele>430.2</ele>
        <time>2026-08-23T12:09:24.000Z</time>
      </trkpt>
      <trkpt lat="47.82351" lon="6.69814">
        <ele>430</ele>
        <time>2026-08-23T12:09:26.000Z</time>
      </trkpt>
      <trkpt lat="47.8234" lon="6.69794">
        <ele>429.6</ele>
        <time>2026-08-23T12:09:28.000Z</time>
      </trkpt>
      <trkpt lat="47.82329" lon="6.69775">
        <ele>429.4</ele>
        <time>2026-08-23T12:09:30.000Z</time>
      </trkpt>
      <trkpt lat="47.82318" lon="6.69756">
        <ele>429.2</ele>
        <time>2026-08-23T12:09:32.000Z</time>
      </trkpt>
      <trkpt lat="47.82308" lon="6.69737">
        <ele>429.2</ele>
        <time>2026-08-23T12:09:34.000Z</time>
      </trkpt>
      <trkpt lat="47.82297" lon="6.69717">
        <ele>429.2</ele>
        <time>2026-08-23T12:09:36.000Z</time>
      </trkpt>
      <trkpt lat="47.82282" lon="6.6969">
        <ele>429</ele>
        <time>2026-08-23T12:09:38.000Z</time>
      </trkpt>
      <trkpt lat="47.8227" lon="6.69669">
        <ele>429</ele>
        <time>2026-08-23T12:09:40.000Z</time>
      </trkpt>
      <trkpt lat="47.82259" lon="6.6965">
        <ele>428.8</ele>
        <time>2026-08-23T12:09:42.000Z</time>
      </trkpt>
      <trkpt lat="47.82249" lon="6.69631">
        <ele>428.6</ele>
        <time>2026-08-23T12:09:44.000Z</time>
      </trkpt>
      <trkpt lat="47.82238" lon="6.69611">
        <ele>428.4</ele>
        <time>2026-08-23T12:09:46.000Z</time>
      </trkpt>
      <trkpt lat="47.82229" lon="6.69591">
        <ele>428.2</ele>
        <time>2026-08-23T12:09:48.000Z</time>
      </trkpt>
      <trkpt lat="47.8222" lon="6.6957">
        <ele>428</ele>
        <time>2026-08-23T12:09:50.000Z</time>
      </trkpt>
      <trkpt lat="47.82212" lon="6.69547">
        <ele>428</ele>
        <time>2026-08-23T12:09:52.000Z</time>
      </trkpt>
      <trkpt lat="47.82205" lon="6.69523">
        <ele>427.8</ele>
        <time>2026-08-23T12:09:54.000Z</time>
      </trkpt>
      <trkpt lat="47.82199" lon="6.69499">
        <ele>427.6</ele>
        <time>2026-08-23T12:09:56.000Z</time>
      </trkpt>
      <trkpt lat="47.82194" lon="6.69474">
        <ele>427.2</ele>
        <time>2026-08-23T12:09:58.000Z</time>
      </trkpt>
      <trkpt lat="47.82188" lon="6.6945">
        <ele>427</ele>
        <time>2026-08-23T12:10:00.000Z</time>
      </trkpt>
      <trkpt lat="47.82183" lon="6.69425">
        <ele>426.8</ele>
        <time>2026-08-23T12:10:02.000Z</time>
      </trkpt>
      <trkpt lat="47.82177" lon="6.69401">
        <ele>426.6</ele>
        <time>2026-08-23T12:10:04.000Z</time>
      </trkpt>
      <trkpt lat="47.82171" lon="6.69377">
        <ele>426.4</ele>
        <time>2026-08-23T12:10:06.000Z</time>
      </trkpt>
      <trkpt lat="47.82165" lon="6.69352">
        <ele>426.2</ele>
        <time>2026-08-23T12:10:09.000Z</time>
      </trkpt>
      <trkpt lat="47.8216" lon="6.69328">
        <ele>426.2</ele>
        <time>2026-08-23T12:10:11.000Z</time>
      </trkpt>
      <trkpt lat="47.82154" lon="6.69304">
        <ele>426</ele>
        <time>2026-08-23T12:10:13.000Z</time>
      </trkpt>
      <trkpt lat="47.82148" lon="6.69279">
        <ele>426</ele>
        <time>2026-08-23T12:10:15.000Z</time>
      </trkpt>
      <trkpt lat="47.82143" lon="6.69255">
        <ele>425.8</ele>
        <time>2026-08-23T12:10:17.000Z</time>
      </trkpt>
      <trkpt lat="47.82137" lon="6.69231">
        <ele>425.6</ele>
        <time>2026-08-23T12:10:19.000Z</time>
      </trkpt>
      <trkpt lat="47.82131" lon="6.69206">
        <ele>425.4</ele>
        <time>2026-08-23T12:10:21.000Z</time>
      </trkpt>
      <trkpt lat="47.82126" lon="6.69182">
        <ele>425.4</ele>
        <time>2026-08-23T12:10:23.000Z</time>
      </trkpt>
      <trkpt lat="47.8212" lon="6.69157">
        <ele>425.4</ele>
        <time>2026-08-23T12:10:25.000Z</time>
      </trkpt>
      <trkpt lat="47.82114" lon="6.69132">
        <ele>425.2</ele>
        <time>2026-08-23T12:10:27.000Z</time>
      </trkpt>
      <trkpt lat="47.82108" lon="6.69108">
        <ele>425.2</ele>
        <time>2026-08-23T12:10:29.000Z</time>
      </trkpt>
      <trkpt lat="47.82102" lon="6.69083">
        <ele>425</ele>
        <time>2026-08-23T12:10:31.000Z</time>
      </trkpt>
      <trkpt lat="47.82096" lon="6.69057">
        <ele>424.6</ele>
        <time>2026-08-23T12:10:33.000Z</time>
      </trkpt>
      <trkpt lat="47.82091" lon="6.69032">
        <ele>424.6</ele>
        <time>2026-08-23T12:10:35.000Z</time>
      </trkpt>
      <trkpt lat="47.82085" lon="6.69008">
        <ele>424.6</ele>
        <time>2026-08-23T12:10:37.000Z</time>
      </trkpt>
      <trkpt lat="47.82079" lon="6.68984">
        <ele>424.4</ele>
        <time>2026-08-23T12:10:39.000Z</time>
      </trkpt>
      <trkpt lat="47.82074" lon="6.6896">
        <ele>424.6</ele>
        <time>2026-08-23T12:10:41.000Z</time>
      </trkpt>
      <trkpt lat="47.82068" lon="6.68936">
        <ele>424.6</ele>
        <time>2026-08-23T12:10:43.000Z</time>
      </trkpt>
      <trkpt lat="47.82063" lon="6.68912">
        <ele>424.6</ele>
        <time>2026-08-23T12:10:45.000Z</time>
      </trkpt>
      <trkpt lat="47.82057" lon="6.68887">
        <ele>424.8</ele>
        <time>2026-08-23T12:10:47.000Z</time>
      </trkpt>
      <trkpt lat="47.82051" lon="6.68863">
        <ele>425</ele>
        <time>2026-08-23T12:10:49.000Z</time>
      </trkpt>
      <trkpt lat="47.82046" lon="6.68839">
        <ele>424.8</ele>
        <time>2026-08-23T12:10:51.000Z</time>
      </trkpt>
      <trkpt lat="47.82039" lon="6.68815">
        <ele>424.8</ele>
        <time>2026-08-23T12:10:53.000Z</time>
      </trkpt>
      <trkpt lat="47.8203" lon="6.68793">
        <ele>424.6</ele>
        <time>2026-08-23T12:10:55.000Z</time>
      </trkpt>
      <trkpt lat="47.82021" lon="6.68772">
        <ele>424.4</ele>
        <time>2026-08-23T12:10:57.000Z</time>
      </trkpt>
      <trkpt lat="47.82009" lon="6.68752">
        <ele>424.4</ele>
        <time>2026-08-23T12:10:59.000Z</time>
      </trkpt>
      <trkpt lat="47.81997" lon="6.68734">
        <ele>424.2</ele>
        <time>2026-08-23T12:11:01.000Z</time>
      </trkpt>
      <trkpt lat="47.8198" lon="6.68709">
        <ele>424.2</ele>
        <time>2026-08-23T12:11:03.000Z</time>
      </trkpt>
      <trkpt lat="47.81971" lon="6.68698">
        <ele>424.4</ele>
        <time>2026-08-23T12:11:05.000Z</time>
      </trkpt>
      <trkpt lat="47.81959" lon="6.6868">
        <ele>424.4</ele>
        <time>2026-08-23T12:11:07.000Z</time>
      </trkpt>
      <trkpt lat="47.81944" lon="6.68658">
        <ele>424.6</ele>
        <time>2026-08-23T12:11:09.000Z</time>
      </trkpt>
      <trkpt lat="47.81931" lon="6.68639">
        <ele>424.4</ele>
        <time>2026-08-23T12:11:11.000Z</time>
      </trkpt>
      <trkpt lat="47.8192" lon="6.68623">
        <ele>424.4</ele>
        <time>2026-08-23T12:11:13.000Z</time>
      </trkpt>
      <trkpt lat="47.81909" lon="6.68607">
        <ele>424.4</ele>
        <time>2026-08-23T12:11:15.000Z</time>
      </trkpt>
      <trkpt lat="47.81898" lon="6.6859">
        <ele>424.4</ele>
        <time>2026-08-23T12:11:17.000Z</time>
      </trkpt>
      <trkpt lat="47.81887" lon="6.68574">
        <ele>424.2</ele>
        <time>2026-08-23T12:11:19.000Z</time>
      </trkpt>
      <trkpt lat="47.81875" lon="6.68558">
        <ele>424.2</ele>
        <time>2026-08-23T12:11:21.000Z</time>
      </trkpt>
      <trkpt lat="47.81864" lon="6.68542">
        <ele>424.4</ele>
        <time>2026-08-23T12:11:23.000Z</time>
      </trkpt>
      <trkpt lat="47.81854" lon="6.68527">
        <ele>424.4</ele>
        <time>2026-08-23T12:11:25.000Z</time>
      </trkpt>
      <trkpt lat="47.81842" lon="6.68514">
        <ele>424.4</ele>
        <time>2026-08-23T12:11:27.000Z</time>
      </trkpt>
      <trkpt lat="47.81831" lon="6.68501">
        <ele>424.8</ele>
        <time>2026-08-23T12:11:29.000Z</time>
      </trkpt>
      <trkpt lat="47.8182" lon="6.68488">
        <ele>424.8</ele>
        <time>2026-08-23T12:11:31.000Z</time>
      </trkpt>
      <trkpt lat="47.81809" lon="6.68474">
        <ele>425</ele>
        <time>2026-08-23T12:11:33.000Z</time>
      </trkpt>
      <trkpt lat="47.81798" lon="6.68463">
        <ele>425.4</ele>
        <time>2026-08-23T12:11:35.000Z</time>
      </trkpt>
      <trkpt lat="47.81786" lon="6.68455">
        <ele>425.8</ele>
        <time>2026-08-23T12:11:37.000Z</time>
      </trkpt>
      <trkpt lat="47.81774" lon="6.6845">
        <ele>426.4</ele>
        <time>2026-08-23T12:11:39.000Z</time>
      </trkpt>
      <trkpt lat="47.81762" lon="6.68445">
        <ele>426.8</ele>
        <time>2026-08-23T12:11:41.000Z</time>
      </trkpt>
      <trkpt lat="47.8175" lon="6.6844">
        <ele>427.2</ele>
        <time>2026-08-23T12:11:43.000Z</time>
      </trkpt>
      <trkpt lat="47.81739" lon="6.68434">
        <ele>427.2</ele>
        <time>2026-08-23T12:11:45.000Z</time>
      </trkpt>
      <trkpt lat="47.81727" lon="6.68427">
        <ele>427</ele>
        <time>2026-08-23T12:11:47.000Z</time>
      </trkpt>
      <trkpt lat="47.81714" lon="6.68421">
        <ele>427</ele>
        <time>2026-08-23T12:11:49.000Z</time>
      </trkpt>
      <trkpt lat="47.81702" lon="6.68415">
        <ele>426.8</ele>
        <time>2026-08-23T12:11:51.000Z</time>
      </trkpt>
      <trkpt lat="47.81689" lon="6.68408">
        <ele>426.8</ele>
        <time>2026-08-23T12:11:53.000Z</time>
      </trkpt>
      <trkpt lat="47.81677" lon="6.684">
        <ele>426.4</ele>
        <time>2026-08-23T12:11:55.000Z</time>
      </trkpt>
      <trkpt lat="47.81666" lon="6.6839">
        <ele>426.2</ele>
        <time>2026-08-23T12:11:57.000Z</time>
      </trkpt>
      <trkpt lat="47.81654" lon="6.6838">
        <ele>426</ele>
        <time>2026-08-23T12:11:59.000Z</time>
      </trkpt>
      <trkpt lat="47.81644" lon="6.68367">
        <ele>426</ele>
        <time>2026-08-23T12:12:01.000Z</time>
      </trkpt>
      <trkpt lat="47.81634" lon="6.68353">
        <ele>425.8</ele>
        <time>2026-08-23T12:12:03.000Z</time>
      </trkpt>
      <trkpt lat="47.81625" lon="6.68338">
        <ele>425.8</ele>
        <time>2026-08-23T12:12:06.000Z</time>
      </trkpt>
      <trkpt lat="47.81615" lon="6.68322">
        <ele>425.6</ele>
        <time>2026-08-23T12:12:08.000Z</time>
      </trkpt>
      <trkpt lat="47.81605" lon="6.68308">
        <ele>425.4</ele>
        <time>2026-08-23T12:12:10.000Z</time>
      </trkpt>
      <trkpt lat="47.81593" lon="6.68296">
        <ele>425.2</ele>
        <time>2026-08-23T12:12:12.000Z</time>
      </trkpt>
      <trkpt lat="47.8158" lon="6.68287">
        <ele>424.6</ele>
        <time>2026-08-23T12:12:14.000Z</time>
      </trkpt>
      <trkpt lat="47.81566" lon="6.68281">
        <ele>424.4</ele>
        <time>2026-08-23T12:12:16.000Z</time>
      </trkpt>
      <trkpt lat="47.81551" lon="6.68276">
        <ele>424.2</ele>
        <time>2026-08-23T12:12:18.000Z</time>
      </trkpt>
      <trkpt lat="47.81537" lon="6.68273">
        <ele>424.2</ele>
        <time>2026-08-23T12:12:20.000Z</time>
      </trkpt>
      <trkpt lat="47.81523" lon="6.68268">
        <ele>424.2</ele>
        <time>2026-08-23T12:12:22.000Z</time>
      </trkpt>
      <trkpt lat="47.81509" lon="6.68263">
        <ele>424</ele>
        <time>2026-08-23T12:12:24.000Z</time>
      </trkpt>
      <trkpt lat="47.81495" lon="6.68259">
        <ele>424</ele>
        <time>2026-08-23T12:12:26.000Z</time>
      </trkpt>
      <trkpt lat="47.81482" lon="6.68253">
        <ele>424</ele>
        <time>2026-08-23T12:12:28.000Z</time>
      </trkpt>
      <trkpt lat="47.81469" lon="6.68246">
        <ele>424</ele>
        <time>2026-08-23T12:12:30.000Z</time>
      </trkpt>
      <trkpt lat="47.81456" lon="6.68237">
        <ele>423.8</ele>
        <time>2026-08-23T12:12:32.000Z</time>
      </trkpt>
      <trkpt lat="47.81443" lon="6.68227">
        <ele>423.6</ele>
        <time>2026-08-23T12:12:34.000Z</time>
      </trkpt>
      <trkpt lat="47.8143" lon="6.68218">
        <ele>423.4</ele>
        <time>2026-08-23T12:12:36.000Z</time>
      </trkpt>
      <trkpt lat="47.81417" lon="6.68208">
        <ele>423.2</ele>
        <time>2026-08-23T12:12:38.000Z</time>
      </trkpt>
      <trkpt lat="47.81404" lon="6.68199">
        <ele>423.2</ele>
        <time>2026-08-23T12:12:40.000Z</time>
      </trkpt>
      <trkpt lat="47.8139" lon="6.6819">
        <ele>423</ele>
        <time>2026-08-23T12:12:42.000Z</time>
      </trkpt>
      <trkpt lat="47.81377" lon="6.6818">
        <ele>422.8</ele>
        <time>2026-08-23T12:12:44.000Z</time>
      </trkpt>
      <trkpt lat="47.81364" lon="6.68169">
        <ele>422.6</ele>
        <time>2026-08-23T12:12:46.000Z</time>
      </trkpt>
      <trkpt lat="47.81351" lon="6.68157">
        <ele>422.6</ele>
        <time>2026-08-23T12:12:48.000Z</time>
      </trkpt>
      <trkpt lat="47.81339" lon="6.68146">
        <ele>422.6</ele>
        <time>2026-08-23T12:12:50.000Z</time>
      </trkpt>
      <trkpt lat="47.81328" lon="6.68135">
        <ele>422.4</ele>
        <time>2026-08-23T12:12:52.000Z</time>
      </trkpt>
      <trkpt lat="47.81317" lon="6.68124">
        <ele>422.2</ele>
        <time>2026-08-23T12:12:54.000Z</time>
      </trkpt>
      <trkpt lat="47.81306" lon="6.68113">
        <ele>421.8</ele>
        <time>2026-08-23T12:12:56.000Z</time>
      </trkpt>
      <trkpt lat="47.81294" lon="6.68102">
        <ele>421.2</ele>
        <time>2026-08-23T12:12:58.000Z</time>
      </trkpt>
      <trkpt lat="47.81278" lon="6.68092">
        <ele>420.8</ele>
        <time>2026-08-23T12:13:00.000Z</time>
      </trkpt>
      <trkpt lat="47.81259" lon="6.68084">
        <ele>420.4</ele>
        <time>2026-08-23T12:13:02.000Z</time>
      </trkpt>
      <trkpt lat="47.81242" lon="6.6808">
        <ele>420</ele>
        <time>2026-08-23T12:13:04.000Z</time>
      </trkpt>
      <trkpt lat="47.81226" lon="6.68079">
        <ele>419.6</ele>
        <time>2026-08-23T12:13:06.000Z</time>
      </trkpt>
      <trkpt lat="47.8121" lon="6.68079">
        <ele>419.4</ele>
        <time>2026-08-23T12:13:08.000Z</time>
      </trkpt>
      <trkpt lat="47.81195" lon="6.68079">
        <ele>419.2</ele>
        <time>2026-08-23T12:13:10.000Z</time>
      </trkpt>
      <trkpt lat="47.81179" lon="6.68079">
        <ele>419</ele>
        <time>2026-08-23T12:13:12.000Z</time>
      </trkpt>
      <trkpt lat="47.81165" lon="6.68079">
        <ele>419</ele>
        <time>2026-08-23T12:13:14.000Z</time>
      </trkpt>
      <trkpt lat="47.8115" lon="6.68078">
        <ele>418.8</ele>
        <time>2026-08-23T12:13:16.000Z</time>
      </trkpt>
      <trkpt lat="47.81135" lon="6.68078">
        <ele>418.8</ele>
        <time>2026-08-23T12:13:18.000Z</time>
      </trkpt>
      <trkpt lat="47.81121" lon="6.68078">
        <ele>418.8</ele>
        <time>2026-08-23T12:13:20.000Z</time>
      </trkpt>
      <trkpt lat="47.81106" lon="6.68081">
        <ele>418.8</ele>
        <time>2026-08-23T12:13:22.000Z</time>
      </trkpt>
      <trkpt lat="47.81092" lon="6.68085">
        <ele>419.2</ele>
        <time>2026-08-23T12:13:24.000Z</time>
      </trkpt>
      <trkpt lat="47.81079" lon="6.68092">
        <ele>419</ele>
        <time>2026-08-23T12:13:26.000Z</time>
      </trkpt>
      <trkpt lat="47.81066" lon="6.681">
        <ele>419.4</ele>
        <time>2026-08-23T12:13:28.000Z</time>
      </trkpt>
      <trkpt lat="47.81053" lon="6.68109">
        <ele>419.6</ele>
        <time>2026-08-23T12:13:30.000Z</time>
      </trkpt>
      <trkpt lat="47.81041" lon="6.68117">
        <ele>419.6</ele>
        <time>2026-08-23T12:13:32.000Z</time>
      </trkpt>
      <trkpt lat="47.81027" lon="6.68123">
        <ele>419.6</ele>
        <time>2026-08-23T12:13:34.000Z</time>
      </trkpt>
      <trkpt lat="47.81014" lon="6.68126">
        <ele>419.6</ele>
        <time>2026-08-23T12:13:36.000Z</time>
      </trkpt>
      <trkpt lat="47.81" lon="6.68127">
        <ele>419.8</ele>
        <time>2026-08-23T12:13:38.000Z</time>
      </trkpt>
      <trkpt lat="47.80987" lon="6.68123">
        <ele>420</ele>
        <time>2026-08-23T12:13:41.000Z</time>
      </trkpt>
      <trkpt lat="47.80974" lon="6.68117">
        <ele>420.4</ele>
        <time>2026-08-23T12:13:43.000Z</time>
      </trkpt>
      <trkpt lat="47.80962" lon="6.68107">
        <ele>420.8</ele>
        <time>2026-08-23T12:13:45.000Z</time>
      </trkpt>
      <trkpt lat="47.80951" lon="6.68096">
        <ele>421</ele>
        <time>2026-08-23T12:13:47.000Z</time>
      </trkpt>
      <trkpt lat="47.8094" lon="6.68083">
        <ele>421.4</ele>
        <time>2026-08-23T12:13:49.000Z</time>
      </trkpt>
      <trkpt lat="47.8093" lon="6.6807">
        <ele>421.4</ele>
        <time>2026-08-23T12:13:51.000Z</time>
      </trkpt>
      <trkpt lat="47.8092" lon="6.68058">
        <ele>421.4</ele>
        <time>2026-08-23T12:13:53.000Z</time>
      </trkpt>
      <trkpt lat="47.8091" lon="6.68045">
        <ele>421</ele>
        <time>2026-08-23T12:13:55.000Z</time>
      </trkpt>
      <trkpt lat="47.809" lon="6.68032">
        <ele>420.6</ele>
        <time>2026-08-23T12:13:57.000Z</time>
      </trkpt>
      <trkpt lat="47.8089" lon="6.6802">
        <ele>420.2</ele>
        <time>2026-08-23T12:13:59.000Z</time>
      </trkpt>
      <trkpt lat="47.80881" lon="6.68011">
        <ele>419.8</ele>
        <time>2026-08-23T12:14:01.000Z</time>
      </trkpt>
      <trkpt lat="47.80874" lon="6.68006">
        <ele>419.8</ele>
        <time>2026-08-23T12:14:03.000Z</time>
      </trkpt>
      <trkpt lat="47.80867" lon="6.68002">
        <ele>419.6</ele>
        <time>2026-08-23T12:14:05.000Z</time>
      </trkpt>
      <trkpt lat="47.80861" lon="6.67999">
        <ele>419.4</ele>
        <time>2026-08-23T12:14:07.000Z</time>
      </trkpt>
      <trkpt lat="47.80857" lon="6.67999">
        <ele>419.4</ele>
        <time>2026-08-23T12:14:09.000Z</time>
      </trkpt>
      <trkpt lat="47.80856" lon="6.67999">
        <ele>419.4</ele>
        <time>2026-08-23T12:14:11.000Z</time>
      </trkpt>
      <trkpt lat="47.80856" lon="6.67999">
        <ele>419.4</ele>
        <time>2026-08-23T12:14:13.000Z</time>
      </trkpt>
      <trkpt lat="47.80857" lon="6.67999">
        <ele>419.4</ele>
        <time>2026-08-23T12:14:15.000Z</time>
      </trkpt>
      <trkpt lat="47.80857" lon="6.68">
        <ele>419.4</ele>
        <time>2026-08-23T12:14:17.000Z</time>
      </trkpt>
      <trkpt lat="47.80857" lon="6.68">
        <ele>419.4</ele>
        <time>2026-08-23T12:14:19.000Z</time>
      </trkpt>
      <trkpt lat="47.80857" lon="6.68">
        <ele>419.6</ele>
        <time>2026-08-23T12:14:21.000Z</time>
      </trkpt>
      <trkpt lat="47.80856" lon="6.68">
        <ele>419.6</ele>
        <time>2026-08-23T12:14:23.000Z</time>
      </trkpt>
      <trkpt lat="47.80856" lon="6.68">
        <ele>419.4</ele>
        <time>2026-08-23T12:14:25.000Z</time>
      </trkpt>
      <trkpt lat="47.80856" lon="6.68001">
        <ele>419.4</ele>
        <time>2026-08-23T12:14:27.000Z</time>
      </trkpt>
      <trkpt lat="47.80856" lon="6.68001">
        <ele>419.4</ele>
        <time>2026-08-23T12:14:29.000Z</time>
      </trkpt>
      <trkpt lat="47.80856" lon="6.68001">
        <ele>419.6</ele>
        <time>2026-08-23T12:14:31.000Z</time>
      </trkpt>
      <trkpt lat="47.80856" lon="6.68001">
        <ele>419.6</ele>
        <time>2026-08-23T12:14:33.000Z</time>
      </trkpt>
      <trkpt lat="47.80856" lon="6.68001">
        <ele>419.6</ele>
        <time>2026-08-23T12:14:35.000Z</time>
      </trkpt>
      <trkpt lat="47.80855" lon="6.68001">
        <ele>419.6</ele>
        <time>2026-08-23T12:14:37.000Z</time>
      </trkpt>
      <trkpt lat="47.80855" lon="6.68002">
        <ele>419.6</ele>
        <time>2026-08-23T12:14:39.000Z</time>
      </trkpt>
      <trkpt lat="47.80855" lon="6.68002">
        <ele>419.8</ele>
        <time>2026-08-23T12:14:41.000Z</time>
      </trkpt>
      <trkpt lat="47.80855" lon="6.68002">
        <ele>419.8</ele>
        <time>2026-08-23T12:14:43.000Z</time>
      </trkpt>
      <trkpt lat="47.80855" lon="6.68002">
        <ele>419.8</ele>
        <time>2026-08-23T12:14:45.000Z</time>
      </trkpt>
      <trkpt lat="47.80855" lon="6.68002">
        <ele>419.8</ele>
        <time>2026-08-23T12:14:47.000Z</time>
      </trkpt>
      <trkpt lat="47.80855" lon="6.68002">
        <ele>419.8</ele>
        <time>2026-08-23T12:14:49.000Z</time>
      </trkpt>
      <trkpt lat="47.80855" lon="6.68002">
        <ele>419.8</ele>
        <time>2026-08-23T12:14:51.000Z</time>
      </trkpt>
      <trkpt lat="47.80855" lon="6.68001">
        <ele>419.8</ele>
        <time>2026-08-23T12:14:53.000Z</time>
      </trkpt>
      <trkpt lat="47.80855" lon="6.68001">
        <ele>419.8</ele>
        <time>2026-08-23T12:14:55.000Z</time>
      </trkpt>
      <trkpt lat="47.80855" lon="6.68001">
        <ele>419.8</ele>
        <time>2026-08-23T12:14:57.000Z</time>
      </trkpt>
      <trkpt lat="47.80855" lon="6.68002">
        <ele>419.8</ele>
        <time>2026-08-23T12:14:59.000Z</time>
      </trkpt>
      <trkpt lat="47.80855" lon="6.68002">
        <ele>419.8</ele>
        <time>2026-08-23T12:15:01.000Z</time>
      </trkpt>
      <trkpt lat="47.80855" lon="6.68002">
        <ele>419.8</ele>
        <time>2026-08-23T12:15:03.000Z</time>
      </trkpt>
      <trkpt lat="47.80855" lon="6.68002">
        <ele>419.8</ele>
        <time>2026-08-23T12:15:05.000Z</time>
      </trkpt>
      <trkpt lat="47.80855" lon="6.68002">
        <ele>419.8</ele>
        <time>2026-08-23T12:15:07.000Z</time>
      </trkpt>
      <trkpt lat="47.80855" lon="6.68002">
        <ele>419.8</ele>
        <time>2026-08-23T12:15:09.000Z</time>
      </trkpt>
      <trkpt lat="47.80855" lon="6.68002">
        <ele>419.8</ele>
        <time>2026-08-23T12:15:11.000Z</time>
      </trkpt>
      <trkpt lat="47.80855" lon="6.68002">
        <ele>419.8</ele>
        <time>2026-08-23T12:15:13.000Z</time>
      </trkpt>
      <trkpt lat="47.80855" lon="6.68002">
        <ele>419.8</ele>
        <time>2026-08-23T12:15:15.000Z</time>
      </trkpt>
      <trkpt lat="47.80856" lon="6.68002">
        <ele>419.8</ele>
        <time>2026-08-23T12:15:17.000Z</time>
      </trkpt>
      <trkpt lat="47.80856" lon="6.68002">
        <ele>419.8</ele>
        <time>2026-08-23T12:15:19.000Z</time>
      </trkpt>
      <trkpt lat="47.80856" lon="6.68002">
        <ele>419.8</ele>
        <time>2026-08-23T12:15:21.000Z</time>
      </trkpt>
      <trkpt lat="47.80856" lon="6.68002">
        <ele>419.8</ele>
        <time>2026-08-23T12:15:23.000Z</time>
      </trkpt>
      <trkpt lat="47.80856" lon="6.68002">
        <ele>419.8</ele>
        <time>2026-08-23T12:15:25.000Z</time>
      </trkpt>
      <trkpt lat="47.80854" lon="6.68003">
        <ele>419.6</ele>
        <time>2026-08-23T12:15:28.000Z</time>
      </trkpt>
      <trkpt lat="47.80851" lon="6.68005">
        <ele>419.6</ele>
        <time>2026-08-23T12:15:30.000Z</time>
      </trkpt>
      <trkpt lat="47.80845" lon="6.68007">
        <ele>419.2</ele>
        <time>2026-08-23T12:15:32.000Z</time>
      </trkpt>
      <trkpt lat="47.80836" lon="6.68008">
        <ele>418.8</ele>
        <time>2026-08-23T12:15:34.000Z</time>
      </trkpt>
      <trkpt lat="47.80826" lon="6.6801">
        <ele>418.2</ele>
        <time>2026-08-23T12:15:36.000Z</time>
      </trkpt>
      <trkpt lat="47.80815" lon="6.68013">
        <ele>417.6</ele>
        <time>2026-08-23T12:15:38.000Z</time>
      </trkpt>
      <trkpt lat="47.80802" lon="6.68015">
        <ele>417</ele>
        <time>2026-08-23T12:15:40.000Z</time>
      </trkpt>
      <trkpt lat="47.80789" lon="6.68017">
        <ele>416.4</ele>
        <time>2026-08-23T12:15:42.000Z</time>
      </trkpt>
      <trkpt lat="47.80776" lon="6.68017">
        <ele>415.8</ele>
        <time>2026-08-23T12:15:44.000Z</time>
      </trkpt>
      <trkpt lat="47.80761" lon="6.68015">
        <ele>415.2</ele>
        <time>2026-08-23T12:15:46.000Z</time>
      </trkpt>
      <trkpt lat="47.80747" lon="6.68009">
        <ele>414.4</ele>
        <time>2026-08-23T12:15:48.000Z</time>
      </trkpt>
      <trkpt lat="47.80733" lon="6.67999">
        <ele>414</ele>
        <time>2026-08-23T12:15:50.000Z</time>
      </trkpt>
      <trkpt lat="47.80721" lon="6.67985">
        <ele>413.4</ele>
        <time>2026-08-23T12:15:52.000Z</time>
      </trkpt>
      <trkpt lat="47.80709" lon="6.67967">
        <ele>412.8</ele>
        <time>2026-08-23T12:15:54.000Z</time>
      </trkpt>
      <trkpt lat="47.807" lon="6.67948">
        <ele>412.2</ele>
        <time>2026-08-23T12:15:56.000Z</time>
      </trkpt>
      <trkpt lat="47.80691" lon="6.67928">
        <ele>411.8</ele>
        <time>2026-08-23T12:15:58.000Z</time>
      </trkpt>
      <trkpt lat="47.80683" lon="6.67908">
        <ele>411.6</ele>
        <time>2026-08-23T12:16:00.000Z</time>
      </trkpt>
      <trkpt lat="47.80674" lon="6.67889">
        <ele>411.2</ele>
        <time>2026-08-23T12:16:02.000Z</time>
      </trkpt>
      <trkpt lat="47.80665" lon="6.67869">
        <ele>410.8</ele>
        <time>2026-08-23T12:16:04.000Z</time>
      </trkpt>
      <trkpt lat="47.80656" lon="6.6785">
        <ele>410.4</ele>
        <time>2026-08-23T12:16:06.000Z</time>
      </trkpt>
      <trkpt lat="47.80647" lon="6.6783">
        <ele>409.8</ele>
        <time>2026-08-23T12:16:08.000Z</time>
      </trkpt>
      <trkpt lat="47.80637" lon="6.67809">
        <ele>409.2</ele>
        <time>2026-08-23T12:16:10.000Z</time>
      </trkpt>
      <trkpt lat="47.80624" lon="6.67784">
        <ele>408.4</ele>
        <time>2026-08-23T12:16:12.000Z</time>
      </trkpt>
      <trkpt lat="47.80609" lon="6.67759">
        <ele>407.6</ele>
        <time>2026-08-23T12:16:14.000Z</time>
      </trkpt>
      <trkpt lat="47.80594" lon="6.67741">
        <ele>407</ele>
        <time>2026-08-23T12:16:16.000Z</time>
      </trkpt>
      <trkpt lat="47.80579" lon="6.67725">
        <ele>406.2</ele>
        <time>2026-08-23T12:16:18.000Z</time>
      </trkpt>
      <trkpt lat="47.80564" lon="6.6771">
        <ele>405.6</ele>
        <time>2026-08-23T12:16:20.000Z</time>
      </trkpt>
      <trkpt lat="47.8055" lon="6.67694">
        <ele>405.2</ele>
        <time>2026-08-23T12:16:22.000Z</time>
      </trkpt>
      <trkpt lat="47.80538" lon="6.67676">
        <ele>405</ele>
        <time>2026-08-23T12:16:24.000Z</time>
      </trkpt>
      <trkpt lat="47.80529" lon="6.67657">
        <ele>405</ele>
        <time>2026-08-23T12:16:26.000Z</time>
      </trkpt>
      <trkpt lat="47.80521" lon="6.67637">
        <ele>405</ele>
        <time>2026-08-23T12:16:28.000Z</time>
      </trkpt>
      <trkpt lat="47.80514" lon="6.67618">
        <ele>405.2</ele>
        <time>2026-08-23T12:16:30.000Z</time>
      </trkpt>
      <trkpt lat="47.80508" lon="6.67599">
        <ele>405.4</ele>
        <time>2026-08-23T12:16:32.000Z</time>
      </trkpt>
      <trkpt lat="47.80501" lon="6.67579">
        <ele>405.4</ele>
        <time>2026-08-23T12:16:34.000Z</time>
      </trkpt>
      <trkpt lat="47.80493" lon="6.6756">
        <ele>405.4</ele>
        <time>2026-08-23T12:16:36.000Z</time>
      </trkpt>
      <trkpt lat="47.80486" lon="6.6754">
        <ele>405.4</ele>
        <time>2026-08-23T12:16:38.000Z</time>
      </trkpt>
      <trkpt lat="47.80479" lon="6.6752">
        <ele>405.2</ele>
        <time>2026-08-23T12:16:40.000Z</time>
      </trkpt>
      <trkpt lat="47.80471" lon="6.67501">
        <ele>405.2</ele>
        <time>2026-08-23T12:16:42.000Z</time>
      </trkpt>
      <trkpt lat="47.80463" lon="6.67482">
        <ele>405.2</ele>
        <time>2026-08-23T12:16:44.000Z</time>
      </trkpt>
      <trkpt lat="47.80454" lon="6.67466">
        <ele>405.6</ele>
        <time>2026-08-23T12:16:46.000Z</time>
      </trkpt>
      <trkpt lat="47.80443" lon="6.67452">
        <ele>405.8</ele>
        <time>2026-08-23T12:16:48.000Z</time>
      </trkpt>
      <trkpt lat="47.80431" lon="6.6744">
        <ele>405.8</ele>
        <time>2026-08-23T12:16:50.000Z</time>
      </trkpt>
      <trkpt lat="47.80419" lon="6.67429">
        <ele>405.6</ele>
        <time>2026-08-23T12:16:52.000Z</time>
      </trkpt>
      <trkpt lat="47.80406" lon="6.67418">
        <ele>405.4</ele>
        <time>2026-08-23T12:16:54.000Z</time>
      </trkpt>
      <trkpt lat="47.80395" lon="6.67405">
        <ele>405.4</ele>
        <time>2026-08-23T12:16:56.000Z</time>
      </trkpt>
      <trkpt lat="47.80386" lon="6.6739">
        <ele>405.2</ele>
        <time>2026-08-23T12:16:58.000Z</time>
      </trkpt>
      <trkpt lat="47.80378" lon="6.67372">
        <ele>405.2</ele>
        <time>2026-08-23T12:17:00.000Z</time>
      </trkpt>
      <trkpt lat="47.80371" lon="6.67355">
        <ele>405.4</ele>
        <time>2026-08-23T12:17:02.000Z</time>
      </trkpt>
      <trkpt lat="47.80364" lon="6.67338">
        <ele>405.4</ele>
        <time>2026-08-23T12:17:05.000Z</time>
      </trkpt>
      <trkpt lat="47.80358" lon="6.67321">
        <ele>405.4</ele>
        <time>2026-08-23T12:17:07.000Z</time>
      </trkpt>
      <trkpt lat="47.80352" lon="6.67305">
        <ele>405.4</ele>
        <time>2026-08-23T12:17:09.000Z</time>
      </trkpt>
      <trkpt lat="47.80345" lon="6.67288">
        <ele>405.4</ele>
        <time>2026-08-23T12:17:11.000Z</time>
      </trkpt>
      <trkpt lat="47.80339" lon="6.67272">
        <ele>405.4</ele>
        <time>2026-08-23T12:17:13.000Z</time>
      </trkpt>
      <trkpt lat="47.80332" lon="6.67256">
        <ele>405.6</ele>
        <time>2026-08-23T12:17:15.000Z</time>
      </trkpt>
      <trkpt lat="47.80326" lon="6.67241">
        <ele>405.8</ele>
        <time>2026-08-23T12:17:17.000Z</time>
      </trkpt>
      <trkpt lat="47.8032" lon="6.67225">
        <ele>405.8</ele>
        <time>2026-08-23T12:17:19.000Z</time>
      </trkpt>
      <trkpt lat="47.80314" lon="6.6721">
        <ele>406</ele>
        <time>2026-08-23T12:17:21.000Z</time>
      </trkpt>
      <trkpt lat="47.80308" lon="6.67195">
        <ele>406.2</ele>
        <time>2026-08-23T12:17:23.000Z</time>
      </trkpt>
      <trkpt lat="47.80302" lon="6.6718">
        <ele>406.4</ele>
        <time>2026-08-23T12:17:25.000Z</time>
      </trkpt>
      <trkpt lat="47.80296" lon="6.67166">
        <ele>406.6</ele>
        <time>2026-08-23T12:17:27.000Z</time>
      </trkpt>
      <trkpt lat="47.8029" lon="6.67151">
        <ele>406.8</ele>
        <time>2026-08-23T12:17:29.000Z</time>
      </trkpt>
      <trkpt lat="47.80285" lon="6.67137">
        <ele>407.2</ele>
        <time>2026-08-23T12:17:31.000Z</time>
      </trkpt>
      <trkpt lat="47.8028" lon="6.67122">
        <ele>407.2</ele>
        <time>2026-08-23T12:17:33.000Z</time>
      </trkpt>
      <trkpt lat="47.80276" lon="6.67106">
        <ele>407.2</ele>
        <time>2026-08-23T12:17:35.000Z</time>
      </trkpt>
      <trkpt lat="47.80271" lon="6.67091">
        <ele>407.4</ele>
        <time>2026-08-23T12:17:37.000Z</time>
      </trkpt>
      <trkpt lat="47.80267" lon="6.67076">
        <ele>407.6</ele>
        <time>2026-08-23T12:17:39.000Z</time>
      </trkpt>
      <trkpt lat="47.80263" lon="6.6706">
        <ele>407.6</ele>
        <time>2026-08-23T12:17:41.000Z</time>
      </trkpt>
      <trkpt lat="47.80259" lon="6.67044">
        <ele>407.6</ele>
        <time>2026-08-23T12:17:43.000Z</time>
      </trkpt>
      <trkpt lat="47.80255" lon="6.67028">
        <ele>407.8</ele>
        <time>2026-08-23T12:17:45.000Z</time>
      </trkpt>
      <trkpt lat="47.8025" lon="6.67012">
        <ele>407.8</ele>
        <time>2026-08-23T12:17:47.000Z</time>
      </trkpt>
      <trkpt lat="47.80246" lon="6.66996">
        <ele>407.8</ele>
        <time>2026-08-23T12:17:49.000Z</time>
      </trkpt>
      <trkpt lat="47.80241" lon="6.6698">
        <ele>408</ele>
        <time>2026-08-23T12:17:51.000Z</time>
      </trkpt>
      <trkpt lat="47.80237" lon="6.66964">
        <ele>408.2</ele>
        <time>2026-08-23T12:17:53.000Z</time>
      </trkpt>
      <trkpt lat="47.80232" lon="6.66948">
        <ele>408.4</ele>
        <time>2026-08-23T12:17:55.000Z</time>
      </trkpt>
      <trkpt lat="47.80225" lon="6.66929">
        <ele>408.4</ele>
        <time>2026-08-23T12:17:57.000Z</time>
      </trkpt>
      <trkpt lat="47.80219" lon="6.66911">
        <ele>408.4</ele>
        <time>2026-08-23T12:17:59.000Z</time>
      </trkpt>
      <trkpt lat="47.80211" lon="6.66892">
        <ele>408</ele>
        <time>2026-08-23T12:18:01.000Z</time>
      </trkpt>
      <trkpt lat="47.80203" lon="6.66874">
        <ele>407.6</ele>
        <time>2026-08-23T12:18:03.000Z</time>
      </trkpt>
      <trkpt lat="47.80195" lon="6.66858">
        <ele>407.4</ele>
        <time>2026-08-23T12:18:05.000Z</time>
      </trkpt>
      <trkpt lat="47.80187" lon="6.66841">
        <ele>407</ele>
        <time>2026-08-23T12:18:07.000Z</time>
      </trkpt>
      <trkpt lat="47.80179" lon="6.66823">
        <ele>406.6</ele>
        <time>2026-08-23T12:18:09.000Z</time>
      </trkpt>
      <trkpt lat="47.80171" lon="6.66806">
        <ele>406.2</ele>
        <time>2026-08-23T12:18:11.000Z</time>
      </trkpt>
      <trkpt lat="47.80162" lon="6.66787">
        <ele>405.6</ele>
        <time>2026-08-23T12:18:13.000Z</time>
      </trkpt>
      <trkpt lat="47.80154" lon="6.66769">
        <ele>405.2</ele>
        <time>2026-08-23T12:18:15.000Z</time>
      </trkpt>
      <trkpt lat="47.80144" lon="6.66751">
        <ele>404.8</ele>
        <time>2026-08-23T12:18:17.000Z</time>
      </trkpt>
      <trkpt lat="47.80134" lon="6.66733">
        <ele>404.4</ele>
        <time>2026-08-23T12:18:19.000Z</time>
      </trkpt>
      <trkpt lat="47.80124" lon="6.66717">
        <ele>404.2</ele>
        <time>2026-08-23T12:18:21.000Z</time>
      </trkpt>
      <trkpt lat="47.80112" lon="6.66703">
        <ele>404</ele>
        <time>2026-08-23T12:18:23.000Z</time>
      </trkpt>
      <trkpt lat="47.801" lon="6.6669">
        <ele>403.8</ele>
        <time>2026-08-23T12:18:25.000Z</time>
      </trkpt>
      <trkpt lat="47.80088" lon="6.66679">
        <ele>403.8</ele>
        <time>2026-08-23T12:18:27.000Z</time>
      </trkpt>
      <trkpt lat="47.80076" lon="6.66667">
        <ele>403.6</ele>
        <time>2026-08-23T12:18:29.000Z</time>
      </trkpt>
      <trkpt lat="47.80063" lon="6.66656">
        <ele>403.4</ele>
        <time>2026-08-23T12:18:31.000Z</time>
      </trkpt>
      <trkpt lat="47.80052" lon="6.66642">
        <ele>403.4</ele>
        <time>2026-08-23T12:18:33.000Z</time>
      </trkpt>
      <trkpt lat="47.80041" lon="6.66627">
        <ele>403</ele>
        <time>2026-08-23T12:18:35.000Z</time>
      </trkpt>
      <trkpt lat="47.80032" lon="6.66611">
        <ele>403.2</ele>
        <time>2026-08-23T12:18:37.000Z</time>
      </trkpt>
      <trkpt lat="47.80023" lon="6.66593">
        <ele>403.2</ele>
        <time>2026-08-23T12:18:39.000Z</time>
      </trkpt>
      <trkpt lat="47.80016" lon="6.66574">
        <ele>403.2</ele>
        <time>2026-08-23T12:18:41.000Z</time>
      </trkpt>
      <trkpt lat="47.8001" lon="6.66555">
        <ele>403.4</ele>
        <time>2026-08-23T12:18:43.000Z</time>
      </trkpt>
      <trkpt lat="47.80004" lon="6.66534">
        <ele>403.4</ele>
        <time>2026-08-23T12:18:45.000Z</time>
      </trkpt>
      <trkpt lat="47.79999" lon="6.66513">
        <ele>403.6</ele>
        <time>2026-08-23T12:18:47.000Z</time>
      </trkpt>
      <trkpt lat="47.79995" lon="6.66492">
        <ele>403.6</ele>
        <time>2026-08-23T12:18:49.000Z</time>
      </trkpt>
      <trkpt lat="47.79991" lon="6.66472">
        <ele>403.8</ele>
        <time>2026-08-23T12:18:51.000Z</time>
      </trkpt>
      <trkpt lat="47.79987" lon="6.66451">
        <ele>403.8</ele>
        <time>2026-08-23T12:18:53.000Z</time>
      </trkpt>
      <trkpt lat="47.79983" lon="6.66431">
        <ele>403.8</ele>
        <time>2026-08-23T12:18:55.000Z</time>
      </trkpt>
      <trkpt lat="47.79979" lon="6.66411">
        <ele>403.6</ele>
        <time>2026-08-23T12:18:57.000Z</time>
      </trkpt>
      <trkpt lat="47.79973" lon="6.6639">
        <ele>403.4</ele>
        <time>2026-08-23T12:18:59.000Z</time>
      </trkpt>
      <trkpt lat="47.79967" lon="6.6637">
        <ele>403</ele>
        <time>2026-08-23T12:19:01.000Z</time>
      </trkpt>
      <trkpt lat="47.7996" lon="6.66349">
        <ele>402.6</ele>
        <time>2026-08-23T12:19:04.000Z</time>
      </trkpt>
      <trkpt lat="47.79953" lon="6.66328">
        <ele>402.2</ele>
        <time>2026-08-23T12:19:06.000Z</time>
      </trkpt>
      <trkpt lat="47.79946" lon="6.66307">
        <ele>401.8</ele>
        <time>2026-08-23T12:19:08.000Z</time>
      </trkpt>
      <trkpt lat="47.7994" lon="6.66287">
        <ele>401.6</ele>
        <time>2026-08-23T12:19:10.000Z</time>
      </trkpt>
      <trkpt lat="47.79934" lon="6.66266">
        <ele>401.4</ele>
        <time>2026-08-23T12:19:12.000Z</time>
      </trkpt>
      <trkpt lat="47.79928" lon="6.66245">
        <ele>401</ele>
        <time>2026-08-23T12:19:14.000Z</time>
      </trkpt>
      <trkpt lat="47.79925" lon="6.66223">
        <ele>400.8</ele>
        <time>2026-08-23T12:19:16.000Z</time>
      </trkpt>
      <trkpt lat="47.79922" lon="6.662">
        <ele>400.6</ele>
        <time>2026-08-23T12:19:18.000Z</time>
      </trkpt>
      <trkpt lat="47.79919" lon="6.66177">
        <ele>400.2</ele>
        <time>2026-08-23T12:19:20.000Z</time>
      </trkpt>
      <trkpt lat="47.79916" lon="6.66153">
        <ele>399.8</ele>
        <time>2026-08-23T12:19:22.000Z</time>
      </trkpt>
      <trkpt lat="47.79914" lon="6.66129">
        <ele>399.4</ele>
        <time>2026-08-23T12:19:24.000Z</time>
      </trkpt>
      <trkpt lat="47.79912" lon="6.66104">
        <ele>398.8</ele>
        <time>2026-08-23T12:19:26.000Z</time>
      </trkpt>
      <trkpt lat="47.79913" lon="6.66078">
        <ele>398.2</ele>
        <time>2026-08-23T12:19:28.000Z</time>
      </trkpt>
      <trkpt lat="47.79915" lon="6.66052">
        <ele>397.4</ele>
        <time>2026-08-23T12:19:30.000Z</time>
      </trkpt>
      <trkpt lat="47.79918" lon="6.66025">
        <ele>396.8</ele>
        <time>2026-08-23T12:19:32.000Z</time>
      </trkpt>
      <trkpt lat="47.79921" lon="6.65998">
        <ele>396.2</ele>
        <time>2026-08-23T12:19:34.000Z</time>
      </trkpt>
      <trkpt lat="47.79925" lon="6.65966">
        <ele>395.8</ele>
        <time>2026-08-23T12:19:36.000Z</time>
      </trkpt>
      <trkpt lat="47.79928" lon="6.65937">
        <ele>395.4</ele>
        <time>2026-08-23T12:19:38.000Z</time>
      </trkpt>
      <trkpt lat="47.79928" lon="6.65906">
        <ele>395</ele>
        <time>2026-08-23T12:19:40.000Z</time>
      </trkpt>
      <trkpt lat="47.79926" lon="6.6588">
        <ele>394.8</ele>
        <time>2026-08-23T12:19:42.000Z</time>
      </trkpt>
      <trkpt lat="47.79922" lon="6.65857">
        <ele>394.6</ele>
        <time>2026-08-23T12:19:44.000Z</time>
      </trkpt>
      <trkpt lat="47.79915" lon="6.65835">
        <ele>394.4</ele>
        <time>2026-08-23T12:19:46.000Z</time>
      </trkpt>
      <trkpt lat="47.79907" lon="6.65814">
        <ele>394.2</ele>
        <time>2026-08-23T12:19:48.000Z</time>
      </trkpt>
      <trkpt lat="47.79897" lon="6.65795">
        <ele>394.2</ele>
        <time>2026-08-23T12:19:50.000Z</time>
      </trkpt>
      <trkpt lat="47.79887" lon="6.65778">
        <ele>394.2</ele>
        <time>2026-08-23T12:19:52.000Z</time>
      </trkpt>
      <trkpt lat="47.79875" lon="6.65763">
        <ele>394.2</ele>
        <time>2026-08-23T12:19:54.000Z</time>
      </trkpt>
      <trkpt lat="47.79862" lon="6.6575">
        <ele>394.2</ele>
        <time>2026-08-23T12:19:56.000Z</time>
      </trkpt>
      <trkpt lat="47.79848" lon="6.6574">
        <ele>394.2</ele>
        <time>2026-08-23T12:19:58.000Z</time>
      </trkpt>
      <trkpt lat="47.79835" lon="6.6573">
        <ele>394.2</ele>
        <time>2026-08-23T12:20:00.000Z</time>
      </trkpt>
      <trkpt lat="47.79821" lon="6.65722">
        <ele>394.4</ele>
        <time>2026-08-23T12:20:02.000Z</time>
      </trkpt>
      <trkpt lat="47.79808" lon="6.65713">
        <ele>394.4</ele>
        <time>2026-08-23T12:20:04.000Z</time>
      </trkpt>
      <trkpt lat="47.79795" lon="6.65704">
        <ele>394.4</ele>
        <time>2026-08-23T12:20:06.000Z</time>
      </trkpt>
      <trkpt lat="47.79782" lon="6.65694">
        <ele>394.6</ele>
        <time>2026-08-23T12:20:08.000Z</time>
      </trkpt>
      <trkpt lat="47.79771" lon="6.65682">
        <ele>394.6</ele>
        <time>2026-08-23T12:20:10.000Z</time>
      </trkpt>
      <trkpt lat="47.7976" lon="6.65668">
        <ele>394.6</ele>
        <time>2026-08-23T12:20:12.000Z</time>
      </trkpt>
      <trkpt lat="47.7975" lon="6.65652">
        <ele>394.6</ele>
        <time>2026-08-23T12:20:14.000Z</time>
      </trkpt>
      <trkpt lat="47.79741" lon="6.65635">
        <ele>394.6</ele>
        <time>2026-08-23T12:20:16.000Z</time>
      </trkpt>
      <trkpt lat="47.79734" lon="6.65616">
        <ele>394.6</ele>
        <time>2026-08-23T12:20:18.000Z</time>
      </trkpt>
      <trkpt lat="47.79727" lon="6.65596">
        <ele>394.4</ele>
        <time>2026-08-23T12:20:20.000Z</time>
      </trkpt>
      <trkpt lat="47.79721" lon="6.65575">
        <ele>394.2</ele>
        <time>2026-08-23T12:20:22.000Z</time>
      </trkpt>
      <trkpt lat="47.79717" lon="6.65554">
        <ele>394</ele>
        <time>2026-08-23T12:20:24.000Z</time>
      </trkpt>
      <trkpt lat="47.79714" lon="6.65531">
        <ele>393.6</ele>
        <time>2026-08-23T12:20:26.000Z</time>
      </trkpt>
      <trkpt lat="47.79712" lon="6.65508">
        <ele>393.2</ele>
        <time>2026-08-23T12:20:28.000Z</time>
      </trkpt>
      <trkpt lat="47.7971" lon="6.65483">
        <ele>392.6</ele>
        <time>2026-08-23T12:20:30.000Z</time>
      </trkpt>
      <trkpt lat="47.79708" lon="6.65458">
        <ele>392</ele>
        <time>2026-08-23T12:20:32.000Z</time>
      </trkpt>
      <trkpt lat="47.79706" lon="6.65432">
        <ele>391.2</ele>
        <time>2026-08-23T12:20:34.000Z</time>
      </trkpt>
      <trkpt lat="47.79704" lon="6.65405">
        <ele>390.6</ele>
        <time>2026-08-23T12:20:36.000Z</time>
      </trkpt>
      <trkpt lat="47.79701" lon="6.65379">
        <ele>389.8</ele>
        <time>2026-08-23T12:20:38.000Z</time>
      </trkpt>
      <trkpt lat="47.79697" lon="6.65352">
        <ele>389.2</ele>
        <time>2026-08-23T12:20:40.000Z</time>
      </trkpt>
      <trkpt lat="47.79692" lon="6.65325">
        <ele>388.4</ele>
        <time>2026-08-23T12:20:42.000Z</time>
      </trkpt>
      <trkpt lat="47.79684" lon="6.653">
        <ele>387.6</ele>
        <time>2026-08-23T12:20:45.000Z</time>
      </trkpt>
      <trkpt lat="47.79674" lon="6.65275">
        <ele>386.8</ele>
        <time>2026-08-23T12:20:47.000Z</time>
      </trkpt>
      <trkpt lat="47.79664" lon="6.6525">
        <ele>386</ele>
        <time>2026-08-23T12:20:49.000Z</time>
      </trkpt>
      <trkpt lat="47.79655" lon="6.65225">
        <ele>385.2</ele>
        <time>2026-08-23T12:20:51.000Z</time>
      </trkpt>
      <trkpt lat="47.7965" lon="6.65197">
        <ele>384.6</ele>
        <time>2026-08-23T12:20:53.000Z</time>
      </trkpt>
      <trkpt lat="47.79647" lon="6.65168">
        <ele>384</ele>
        <time>2026-08-23T12:20:55.000Z</time>
      </trkpt>
      <trkpt lat="47.79648" lon="6.65138">
        <ele>383.2</ele>
        <time>2026-08-23T12:20:57.000Z</time>
      </trkpt>
      <trkpt lat="47.79652" lon="6.65109">
        <ele>382.6</ele>
        <time>2026-08-23T12:20:59.000Z</time>
      </trkpt>
      <trkpt lat="47.79657" lon="6.6508">
        <ele>382.2</ele>
        <time>2026-08-23T12:21:01.000Z</time>
      </trkpt>
      <trkpt lat="47.79662" lon="6.65051">
        <ele>381.6</ele>
        <time>2026-08-23T12:21:03.000Z</time>
      </trkpt>
      <trkpt lat="47.79668" lon="6.65022">
        <ele>381</ele>
        <time>2026-08-23T12:21:05.000Z</time>
      </trkpt>
      <trkpt lat="47.79672" lon="6.64992">
        <ele>380.6</ele>
        <time>2026-08-23T12:21:07.000Z</time>
      </trkpt>
      <trkpt lat="47.79674" lon="6.64962">
        <ele>380</ele>
        <time>2026-08-23T12:21:09.000Z</time>
      </trkpt>
      <trkpt lat="47.79672" lon="6.64933">
        <ele>379.4</ele>
        <time>2026-08-23T12:21:11.000Z</time>
      </trkpt>
      <trkpt lat="47.79668" lon="6.64904">
        <ele>379</ele>
        <time>2026-08-23T12:21:13.000Z</time>
      </trkpt>
      <trkpt lat="47.79661" lon="6.64876">
        <ele>378.6</ele>
        <time>2026-08-23T12:21:15.000Z</time>
      </trkpt>
      <trkpt lat="47.79653" lon="6.64851">
        <ele>378.4</ele>
        <time>2026-08-23T12:21:17.000Z</time>
      </trkpt>
      <trkpt lat="47.79643" lon="6.64829">
        <ele>378.2</ele>
        <time>2026-08-23T12:21:19.000Z</time>
      </trkpt>
      <trkpt lat="47.79632" lon="6.64808">
        <ele>378.2</ele>
        <time>2026-08-23T12:21:21.000Z</time>
      </trkpt>
      <trkpt lat="47.7962" lon="6.64788">
        <ele>377.8</ele>
        <time>2026-08-23T12:21:23.000Z</time>
      </trkpt>
      <trkpt lat="47.79608" lon="6.6477">
        <ele>377.8</ele>
        <time>2026-08-23T12:21:25.000Z</time>
      </trkpt>
      <trkpt lat="47.79595" lon="6.64754">
        <ele>377.6</ele>
        <time>2026-08-23T12:21:27.000Z</time>
      </trkpt>
      <trkpt lat="47.79582" lon="6.6474">
        <ele>377.6</ele>
        <time>2026-08-23T12:21:29.000Z</time>
      </trkpt>
      <trkpt lat="47.79568" lon="6.64728">
        <ele>377.6</ele>
        <time>2026-08-23T12:21:31.000Z</time>
      </trkpt>
      <trkpt lat="47.79549" lon="6.64716">
        <ele>377.6</ele>
        <time>2026-08-23T12:21:33.000Z</time>
      </trkpt>
      <trkpt lat="47.7953" lon="6.64706">
        <ele>377.8</ele>
        <time>2026-08-23T12:21:35.000Z</time>
      </trkpt>
      <trkpt lat="47.79515" lon="6.64698">
        <ele>377.8</ele>
        <time>2026-08-23T12:21:37.000Z</time>
      </trkpt>
      <trkpt lat="47.79501" lon="6.64691">
        <ele>378</ele>
        <time>2026-08-23T12:21:39.000Z</time>
      </trkpt>
      <trkpt lat="47.79488" lon="6.64683">
        <ele>378</ele>
        <time>2026-08-23T12:21:41.000Z</time>
      </trkpt>
      <trkpt lat="47.79474" lon="6.64676">
        <ele>378.2</ele>
        <time>2026-08-23T12:21:43.000Z</time>
      </trkpt>
      <trkpt lat="47.79461" lon="6.64667">
        <ele>378.2</ele>
        <time>2026-08-23T12:21:45.000Z</time>
      </trkpt>
      <trkpt lat="47.79449" lon="6.64658">
        <ele>378.4</ele>
        <time>2026-08-23T12:21:47.000Z</time>
      </trkpt>
      <trkpt lat="47.79437" lon="6.6465">
        <ele>378.6</ele>
        <time>2026-08-23T12:21:49.000Z</time>
      </trkpt>
      <trkpt lat="47.79426" lon="6.64642">
        <ele>379</ele>
        <time>2026-08-23T12:21:51.000Z</time>
      </trkpt>
      <trkpt lat="47.79416" lon="6.64635">
        <ele>379.2</ele>
        <time>2026-08-23T12:21:53.000Z</time>
      </trkpt>
      <trkpt lat="47.79406" lon="6.64628">
        <ele>379.4</ele>
        <time>2026-08-23T12:21:55.000Z</time>
      </trkpt>
      <trkpt lat="47.79396" lon="6.64621">
        <ele>379.8</ele>
        <time>2026-08-23T12:21:57.000Z</time>
      </trkpt>
      <trkpt lat="47.79387" lon="6.64614">
        <ele>380.2</ele>
        <time>2026-08-23T12:21:59.000Z</time>
      </trkpt>
      <trkpt lat="47.79378" lon="6.64607">
        <ele>380.4</ele>
        <time>2026-08-23T12:22:01.000Z</time>
      </trkpt>
      <trkpt lat="47.79369" lon="6.646">
        <ele>380.8</ele>
        <time>2026-08-23T12:22:03.000Z</time>
      </trkpt>
      <trkpt lat="47.7936" lon="6.64592">
        <ele>381.2</ele>
        <time>2026-08-23T12:22:05.000Z</time>
      </trkpt>
      <trkpt lat="47.79351" lon="6.64584">
        <ele>381.6</ele>
        <time>2026-08-23T12:22:07.000Z</time>
      </trkpt>
      <trkpt lat="47.79342" lon="6.64577">
        <ele>381.8</ele>
        <time>2026-08-23T12:22:09.000Z</time>
      </trkpt>
      <trkpt lat="47.79333" lon="6.64568">
        <ele>382.2</ele>
        <time>2026-08-23T12:22:11.000Z</time>
      </trkpt>
      <trkpt lat="47.79323" lon="6.64559">
        <ele>382.2</ele>
        <time>2026-08-23T12:22:13.000Z</time>
      </trkpt>
      <trkpt lat="47.79315" lon="6.6455">
        <ele>382.4</ele>
        <time>2026-08-23T12:22:15.000Z</time>
      </trkpt>
      <trkpt lat="47.79306" lon="6.64541">
        <ele>382.4</ele>
        <time>2026-08-23T12:22:18.000Z</time>
      </trkpt>
      <trkpt lat="47.79297" lon="6.64532">
        <ele>382.8</ele>
        <time>2026-08-23T12:22:20.000Z</time>
      </trkpt>
      <trkpt lat="47.79289" lon="6.64524">
        <ele>383</ele>
        <time>2026-08-23T12:22:22.000Z</time>
      </trkpt>
      <trkpt lat="47.7928" lon="6.64515">
        <ele>383.4</ele>
        <time>2026-08-23T12:22:24.000Z</time>
      </trkpt>
      <trkpt lat="47.79271" lon="6.64506">
        <ele>383.6</ele>
        <time>2026-08-23T12:22:26.000Z</time>
      </trkpt>
      <trkpt lat="47.79262" lon="6.64496">
        <ele>383.8</ele>
        <time>2026-08-23T12:22:28.000Z</time>
      </trkpt>
      <trkpt lat="47.79253" lon="6.64487">
        <ele>384</ele>
        <time>2026-08-23T12:22:30.000Z</time>
      </trkpt>
      <trkpt lat="47.79244" lon="6.64477">
        <ele>384.2</ele>
        <time>2026-08-23T12:22:32.000Z</time>
      </trkpt>
      <trkpt lat="47.79234" lon="6.64467">
        <ele>384.2</ele>
        <time>2026-08-23T12:22:34.000Z</time>
      </trkpt>
      <trkpt lat="47.79225" lon="6.64457">
        <ele>384.4</ele>
        <time>2026-08-23T12:22:36.000Z</time>
      </trkpt>
      <trkpt lat="47.79216" lon="6.64446">
        <ele>384.4</ele>
        <time>2026-08-23T12:22:38.000Z</time>
      </trkpt>
      <trkpt lat="47.79207" lon="6.64434">
        <ele>384.4</ele>
        <time>2026-08-23T12:22:40.000Z</time>
      </trkpt>
      <trkpt lat="47.79199" lon="6.64422">
        <ele>384.4</ele>
        <time>2026-08-23T12:22:42.000Z</time>
      </trkpt>
      <trkpt lat="47.79191" lon="6.64408">
        <ele>384.4</ele>
        <time>2026-08-23T12:22:44.000Z</time>
      </trkpt>
      <trkpt lat="47.79183" lon="6.64395">
        <ele>384.2</ele>
        <time>2026-08-23T12:22:46.000Z</time>
      </trkpt>
      <trkpt lat="47.79175" lon="6.64382">
        <ele>384</ele>
        <time>2026-08-23T12:22:48.000Z</time>
      </trkpt>
      <trkpt lat="47.79167" lon="6.64368">
        <ele>384</ele>
        <time>2026-08-23T12:22:50.000Z</time>
      </trkpt>
      <trkpt lat="47.79159" lon="6.64354">
        <ele>384</ele>
        <time>2026-08-23T12:22:52.000Z</time>
      </trkpt>
      <trkpt lat="47.79151" lon="6.6434">
        <ele>383.8</ele>
        <time>2026-08-23T12:22:54.000Z</time>
      </trkpt>
      <trkpt lat="47.79142" lon="6.64325">
        <ele>383.2</ele>
        <time>2026-08-23T12:22:56.000Z</time>
      </trkpt>
      <trkpt lat="47.79133" lon="6.6431">
        <ele>382.8</ele>
        <time>2026-08-23T12:22:58.000Z</time>
      </trkpt>
      <trkpt lat="47.79125" lon="6.64294">
        <ele>382.6</ele>
        <time>2026-08-23T12:23:00.000Z</time>
      </trkpt>
      <trkpt lat="47.79117" lon="6.64277">
        <ele>382.2</ele>
        <time>2026-08-23T12:23:02.000Z</time>
      </trkpt>
      <trkpt lat="47.79108" lon="6.6426">
        <ele>381.8</ele>
        <time>2026-08-23T12:23:04.000Z</time>
      </trkpt>
      <trkpt lat="47.791" lon="6.64242">
        <ele>381.4</ele>
        <time>2026-08-23T12:23:06.000Z</time>
      </trkpt>
      <trkpt lat="47.79087" lon="6.64216">
        <ele>380.8</ele>
        <time>2026-08-23T12:23:08.000Z</time>
      </trkpt>
      <trkpt lat="47.79077" lon="6.64195">
        <ele>380.2</ele>
        <time>2026-08-23T12:23:10.000Z</time>
      </trkpt>
      <trkpt lat="47.79068" lon="6.64176">
        <ele>379.8</ele>
        <time>2026-08-23T12:23:12.000Z</time>
      </trkpt>
      <trkpt lat="47.7906" lon="6.64158">
        <ele>379.6</ele>
        <time>2026-08-23T12:23:14.000Z</time>
      </trkpt>
      <trkpt lat="47.79051" lon="6.6414">
        <ele>379.2</ele>
        <time>2026-08-23T12:23:16.000Z</time>
      </trkpt>
      <trkpt lat="47.79043" lon="6.64122">
        <ele>378.8</ele>
        <time>2026-08-23T12:23:18.000Z</time>
      </trkpt>
      <trkpt lat="47.79034" lon="6.64104">
        <ele>378.4</ele>
        <time>2026-08-23T12:23:20.000Z</time>
      </trkpt>
      <trkpt lat="47.79027" lon="6.64087">
        <ele>377.8</ele>
        <time>2026-08-23T12:23:22.000Z</time>
      </trkpt>
      <trkpt lat="47.7902" lon="6.64069">
        <ele>377.6</ele>
        <time>2026-08-23T12:23:24.000Z</time>
      </trkpt>
      <trkpt lat="47.79016" lon="6.64051">
        <ele>377.2</ele>
        <time>2026-08-23T12:23:26.000Z</time>
      </trkpt>
      <trkpt lat="47.79012" lon="6.64033">
        <ele>377.2</ele>
        <time>2026-08-23T12:23:28.000Z</time>
      </trkpt>
      <trkpt lat="47.79008" lon="6.64016">
        <ele>377</ele>
        <time>2026-08-23T12:23:30.000Z</time>
      </trkpt>
      <trkpt lat="47.79003" lon="6.63999">
        <ele>376.6</ele>
        <time>2026-08-23T12:23:32.000Z</time>
      </trkpt>
      <trkpt lat="47.78998" lon="6.63981">
        <ele>376.2</ele>
        <time>2026-08-23T12:23:34.000Z</time>
      </trkpt>
      <trkpt lat="47.78991" lon="6.63963">
        <ele>375.6</ele>
        <time>2026-08-23T12:23:36.000Z</time>
      </trkpt>
      <trkpt lat="47.78984" lon="6.63946">
        <ele>375.2</ele>
        <time>2026-08-23T12:23:38.000Z</time>
      </trkpt>
      <trkpt lat="47.78976" lon="6.6393">
        <ele>375</ele>
        <time>2026-08-23T12:23:40.000Z</time>
      </trkpt>
      <trkpt lat="47.78968" lon="6.63915">
        <ele>374.8</ele>
        <time>2026-08-23T12:23:42.000Z</time>
      </trkpt>
      <trkpt lat="47.78959" lon="6.639">
        <ele>374.4</ele>
        <time>2026-08-23T12:23:44.000Z</time>
      </trkpt>
      <trkpt lat="47.7895" lon="6.63886">
        <ele>374</ele>
        <time>2026-08-23T12:23:46.000Z</time>
      </trkpt>
      <trkpt lat="47.7894" lon="6.63871">
        <ele>373.6</ele>
        <time>2026-08-23T12:23:48.000Z</time>
      </trkpt>
      <trkpt lat="47.7893" lon="6.63857">
        <ele>373.2</ele>
        <time>2026-08-23T12:23:50.000Z</time>
      </trkpt>
      <trkpt lat="47.7892" lon="6.63842">
        <ele>373</ele>
        <time>2026-08-23T12:23:52.000Z</time>
      </trkpt>
      <trkpt lat="47.7891" lon="6.63827">
        <ele>372.8</ele>
        <time>2026-08-23T12:23:54.000Z</time>
      </trkpt>
      <trkpt lat="47.78899" lon="6.63814">
        <ele>372.6</ele>
        <time>2026-08-23T12:23:56.000Z</time>
      </trkpt>
      <trkpt lat="47.78888" lon="6.63801">
        <ele>372.4</ele>
        <time>2026-08-23T12:23:58.000Z</time>
      </trkpt>
      <trkpt lat="47.78877" lon="6.63789">
        <ele>371.8</ele>
        <time>2026-08-23T12:24:00.000Z</time>
      </trkpt>
      <trkpt lat="47.78867" lon="6.63776">
        <ele>371.6</ele>
        <time>2026-08-23T12:24:02.000Z</time>
      </trkpt>
      <trkpt lat="47.78857" lon="6.63764">
        <ele>371.6</ele>
        <time>2026-08-23T12:24:04.000Z</time>
      </trkpt>
      <trkpt lat="47.7885" lon="6.63756">
        <ele>371.6</ele>
        <time>2026-08-23T12:24:06.000Z</time>
      </trkpt>
      <trkpt lat="47.78843" lon="6.63751">
        <ele>371.6</ele>
        <time>2026-08-23T12:24:09.000Z</time>
      </trkpt>
      <trkpt lat="47.78839" lon="6.63752">
        <ele>371.8</ele>
        <time>2026-08-23T12:24:11.000Z</time>
      </trkpt>
      <trkpt lat="47.78836" lon="6.63758">
        <ele>371.8</ele>
        <time>2026-08-23T12:24:13.000Z</time>
      </trkpt>
      <trkpt lat="47.78836" lon="6.63764">
        <ele>372</ele>
        <time>2026-08-23T12:24:15.000Z</time>
      </trkpt>
      <trkpt lat="47.78836" lon="6.63765">
        <ele>372</ele>
        <time>2026-08-23T12:24:17.000Z</time>
      </trkpt>
      <trkpt lat="47.78837" lon="6.63765">
        <ele>372</ele>
        <time>2026-08-23T12:24:19.000Z</time>
      </trkpt>
      <trkpt lat="47.78837" lon="6.63765">
        <ele>372</ele>
        <time>2026-08-23T12:24:21.000Z</time>
      </trkpt>
      <trkpt lat="47.78837" lon="6.63765">
        <ele>372</ele>
        <time>2026-08-23T12:24:23.000Z</time>
      </trkpt>
      <trkpt lat="47.78837" lon="6.63765">
        <ele>372</ele>
        <time>2026-08-23T12:24:25.000Z</time>
      </trkpt>
      <trkpt lat="47.78836" lon="6.63767">
        <ele>372</ele>
        <time>2026-08-23T12:24:27.000Z</time>
      </trkpt>
      <trkpt lat="47.78835" lon="6.63772">
        <ele>372</ele>
        <time>2026-08-23T12:24:29.000Z</time>
      </trkpt>
      <trkpt lat="47.78834" lon="6.63777">
        <ele>372.2</ele>
        <time>2026-08-23T12:24:31.000Z</time>
      </trkpt>
      <trkpt lat="47.78832" lon="6.63782">
        <ele>372.2</ele>
        <time>2026-08-23T12:24:33.000Z</time>
      </trkpt>
      <trkpt lat="47.78829" lon="6.63788">
        <ele>372.4</ele>
        <time>2026-08-23T12:24:35.000Z</time>
      </trkpt>
      <trkpt lat="47.78827" lon="6.63794">
        <ele>372.6</ele>
        <time>2026-08-23T12:24:37.000Z</time>
      </trkpt>
      <trkpt lat="47.78826" lon="6.63799">
        <ele>372.8</ele>
        <time>2026-08-23T12:24:39.000Z</time>
      </trkpt>
      <trkpt lat="47.78824" lon="6.63805">
        <ele>373</ele>
        <time>2026-08-23T12:24:41.000Z</time>
      </trkpt>
      <trkpt lat="47.78821" lon="6.6381">
        <ele>373</ele>
        <time>2026-08-23T12:24:43.000Z</time>
      </trkpt>
      <trkpt lat="47.78819" lon="6.63816">
        <ele>373.2</ele>
        <time>2026-08-23T12:24:45.000Z</time>
      </trkpt>
      <trkpt lat="47.78816" lon="6.63822">
        <ele>373.4</ele>
        <time>2026-08-23T12:24:47.000Z</time>
      </trkpt>
      <trkpt lat="47.78813" lon="6.63829">
        <ele>373.6</ele>
        <time>2026-08-23T12:24:49.000Z</time>
      </trkpt>
      <trkpt lat="47.78811" lon="6.63836">
        <ele>373.8</ele>
        <time>2026-08-23T12:24:51.000Z</time>
      </trkpt>
      <trkpt lat="47.78808" lon="6.63843">
        <ele>374</ele>
        <time>2026-08-23T12:24:53.000Z</time>
      </trkpt>
      <trkpt lat="47.78805" lon="6.63849">
        <ele>374.2</ele>
        <time>2026-08-23T12:24:55.000Z</time>
      </trkpt>
      <trkpt lat="47.78801" lon="6.63859">
        <ele>374.4</ele>
        <time>2026-08-23T12:24:57.000Z</time>
      </trkpt>
      <trkpt lat="47.78798" lon="6.63868">
        <ele>374.6</ele>
        <time>2026-08-23T12:24:59.000Z</time>
      </trkpt>
      <trkpt lat="47.78795" lon="6.63875">
        <ele>375</ele>
        <time>2026-08-23T12:25:01.000Z</time>
      </trkpt>
      <trkpt lat="47.78793" lon="6.63882">
        <ele>375.2</ele>
        <time>2026-08-23T12:25:03.000Z</time>
      </trkpt>
      <trkpt lat="47.78791" lon="6.63889">
        <ele>375.4</ele>
        <time>2026-08-23T12:25:05.000Z</time>
      </trkpt>
      <trkpt lat="47.78789" lon="6.63897">
        <ele>375.6</ele>
        <time>2026-08-23T12:25:07.000Z</time>
      </trkpt>
      <trkpt lat="47.78787" lon="6.63905">
        <ele>375.8</ele>
        <time>2026-08-23T12:25:09.000Z</time>
      </trkpt>
      <trkpt lat="47.78785" lon="6.63912">
        <ele>376</ele>
        <time>2026-08-23T12:25:11.000Z</time>
      </trkpt>
      <trkpt lat="47.78784" lon="6.6392">
        <ele>376.2</ele>
        <time>2026-08-23T12:25:13.000Z</time>
      </trkpt>
      <trkpt lat="47.78782" lon="6.63928">
        <ele>376.4</ele>
        <time>2026-08-23T12:25:15.000Z</time>
      </trkpt>
      <trkpt lat="47.78781" lon="6.63936">
        <ele>376.6</ele>
        <time>2026-08-23T12:25:17.000Z</time>
      </trkpt>
      <trkpt lat="47.78779" lon="6.63944">
        <ele>377</ele>
        <time>2026-08-23T12:25:19.000Z</time>
      </trkpt>
      <trkpt lat="47.78777" lon="6.63952">
        <ele>377</ele>
        <time>2026-08-23T12:25:21.000Z</time>
      </trkpt>
      <trkpt lat="47.78777" lon="6.6396">
        <ele>377.2</ele>
        <time>2026-08-23T12:25:23.000Z</time>
      </trkpt>
      <trkpt lat="47.78776" lon="6.63969">
        <ele>377.6</ele>
        <time>2026-08-23T12:25:25.000Z</time>
      </trkpt>
      <trkpt lat="47.78776" lon="6.63976">
        <ele>377.8</ele>
        <time>2026-08-23T12:25:27.000Z</time>
      </trkpt>
      <trkpt lat="47.78778" lon="6.63984">
        <ele>377.8</ele>
        <time>2026-08-23T12:25:29.000Z</time>
      </trkpt>
      <trkpt lat="47.7878" lon="6.63993">
        <ele>378.2</ele>
        <time>2026-08-23T12:25:31.000Z</time>
      </trkpt>
      <trkpt lat="47.78783" lon="6.64">
        <ele>378.4</ele>
        <time>2026-08-23T12:25:33.000Z</time>
      </trkpt>
      <trkpt lat="47.78786" lon="6.64005">
        <ele>378.8</ele>
        <time>2026-08-23T12:25:35.000Z</time>
      </trkpt>
      <trkpt lat="47.78789" lon="6.6401">
        <ele>379.2</ele>
        <time>2026-08-23T12:25:37.000Z</time>
      </trkpt>
      <trkpt lat="47.78792" lon="6.64015">
        <ele>379.6</ele>
        <time>2026-08-23T12:25:40.000Z</time>
      </trkpt>
      <trkpt lat="47.78795" lon="6.64019">
        <ele>380</ele>
        <time>2026-08-23T12:25:42.000Z</time>
      </trkpt>
      <trkpt lat="47.78798" lon="6.64023">
        <ele>380.4</ele>
        <time>2026-08-23T12:25:44.000Z</time>
      </trkpt>
      <trkpt lat="47.78801" lon="6.64027">
        <ele>380.8</ele>
        <time>2026-08-23T12:25:46.000Z</time>
      </trkpt>
      <trkpt lat="47.78804" lon="6.64032">
        <ele>381.2</ele>
        <time>2026-08-23T12:25:48.000Z</time>
      </trkpt>
      <trkpt lat="47.78806" lon="6.64038">
        <ele>381.6</ele>
        <time>2026-08-23T12:25:50.000Z</time>
      </trkpt>
      <trkpt lat="47.78809" lon="6.64043">
        <ele>382</ele>
        <time>2026-08-23T12:25:52.000Z</time>
      </trkpt>
      <trkpt lat="47.78811" lon="6.64049">
        <ele>382.4</ele>
        <time>2026-08-23T12:25:54.000Z</time>
      </trkpt>
      <trkpt lat="47.78813" lon="6.64055">
        <ele>382.8</ele>
        <time>2026-08-23T12:25:56.000Z</time>
      </trkpt>
      <trkpt lat="47.78814" lon="6.64061">
        <ele>383.2</ele>
        <time>2026-08-23T12:25:58.000Z</time>
      </trkpt>
      <trkpt lat="47.78815" lon="6.64068">
        <ele>383.4</ele>
        <time>2026-08-23T12:26:00.000Z</time>
      </trkpt>
      <trkpt lat="47.78816" lon="6.64074">
        <ele>383.8</ele>
        <time>2026-08-23T12:26:02.000Z</time>
      </trkpt>
      <trkpt lat="47.78817" lon="6.64081">
        <ele>384.2</ele>
        <time>2026-08-23T12:26:04.000Z</time>
      </trkpt>
      <trkpt lat="47.78818" lon="6.64087">
        <ele>384.6</ele>
        <time>2026-08-23T12:26:06.000Z</time>
      </trkpt>
      <trkpt lat="47.78818" lon="6.64093">
        <ele>384.8</ele>
        <time>2026-08-23T12:26:08.000Z</time>
      </trkpt>
      <trkpt lat="47.78818" lon="6.64099">
        <ele>385.2</ele>
        <time>2026-08-23T12:26:10.000Z</time>
      </trkpt>
      <trkpt lat="47.78817" lon="6.64105">
        <ele>385.6</ele>
        <time>2026-08-23T12:26:12.000Z</time>
      </trkpt>
      <trkpt lat="47.78817" lon="6.64111">
        <ele>385.8</ele>
        <time>2026-08-23T12:26:14.000Z</time>
      </trkpt>
      <trkpt lat="47.78817" lon="6.64117">
        <ele>386.2</ele>
        <time>2026-08-23T12:26:16.000Z</time>
      </trkpt>
      <trkpt lat="47.78817" lon="6.64123">
        <ele>386.6</ele>
        <time>2026-08-23T12:26:18.000Z</time>
      </trkpt>
      <trkpt lat="47.78816" lon="6.64128">
        <ele>387</ele>
        <time>2026-08-23T12:26:20.000Z</time>
      </trkpt>
      <trkpt lat="47.78815" lon="6.64134">
        <ele>387.2</ele>
        <time>2026-08-23T12:26:22.000Z</time>
      </trkpt>
      <trkpt lat="47.78813" lon="6.64139">
        <ele>387.6</ele>
        <time>2026-08-23T12:26:24.000Z</time>
      </trkpt>
      <trkpt lat="47.78812" lon="6.64145">
        <ele>388</ele>
        <time>2026-08-23T12:26:26.000Z</time>
      </trkpt>
      <trkpt lat="47.7881" lon="6.6415">
        <ele>388.4</ele>
        <time>2026-08-23T12:26:28.000Z</time>
      </trkpt>
      <trkpt lat="47.78809" lon="6.64155">
        <ele>389</ele>
        <time>2026-08-23T12:26:30.000Z</time>
      </trkpt>
      <trkpt lat="47.78807" lon="6.6416">
        <ele>389.4</ele>
        <time>2026-08-23T12:26:32.000Z</time>
      </trkpt>
      <trkpt lat="47.78805" lon="6.64164">
        <ele>389.8</ele>
        <time>2026-08-23T12:26:34.000Z</time>
      </trkpt>
      <trkpt lat="47.78803" lon="6.64169">
        <ele>390</ele>
        <time>2026-08-23T12:26:36.000Z</time>
      </trkpt>
      <trkpt lat="47.78801" lon="6.64174">
        <ele>390.4</ele>
        <time>2026-08-23T12:26:38.000Z</time>
      </trkpt>
      <trkpt lat="47.78799" lon="6.64179">
        <ele>390.8</ele>
        <time>2026-08-23T12:26:40.000Z</time>
      </trkpt>
      <trkpt lat="47.78797" lon="6.64184">
        <ele>391.2</ele>
        <time>2026-08-23T12:26:42.000Z</time>
      </trkpt>
      <trkpt lat="47.78794" lon="6.6419">
        <ele>391.6</ele>
        <time>2026-08-23T12:26:44.000Z</time>
      </trkpt>
      <trkpt lat="47.78792" lon="6.64195">
        <ele>392</ele>
        <time>2026-08-23T12:26:46.000Z</time>
      </trkpt>
      <trkpt lat="47.7879" lon="6.64199">
        <ele>392.4</ele>
        <time>2026-08-23T12:26:48.000Z</time>
      </trkpt>
      <trkpt lat="47.78788" lon="6.64204">
        <ele>392.8</ele>
        <time>2026-08-23T12:26:50.000Z</time>
      </trkpt>
      <trkpt lat="47.78786" lon="6.64208">
        <ele>393.4</ele>
        <time>2026-08-23T12:26:52.000Z</time>
      </trkpt>
      <trkpt lat="47.78784" lon="6.64213">
        <ele>393.8</ele>
        <time>2026-08-23T12:26:54.000Z</time>
      </trkpt>
      <trkpt lat="47.78783" lon="6.64217">
        <ele>394.2</ele>
        <time>2026-08-23T12:26:56.000Z</time>
      </trkpt>
      <trkpt lat="47.78781" lon="6.64221">
        <ele>394.6</ele>
        <time>2026-08-23T12:26:58.000Z</time>
      </trkpt>
      <trkpt lat="47.78779" lon="6.64225">
        <ele>395.2</ele>
        <time>2026-08-23T12:27:00.000Z</time>
      </trkpt>
      <trkpt lat="47.78777" lon="6.64229">
        <ele>395.6</ele>
        <time>2026-08-23T12:27:02.000Z</time>
      </trkpt>
      <trkpt lat="47.78775" lon="6.64234">
        <ele>396.2</ele>
        <time>2026-08-23T12:27:04.000Z</time>
      </trkpt>
      <trkpt lat="47.78774" lon="6.64238">
        <ele>396.6</ele>
        <time>2026-08-23T12:27:06.000Z</time>
      </trkpt>
      <trkpt lat="47.78772" lon="6.64243">
        <ele>397.2</ele>
        <time>2026-08-23T12:27:08.000Z</time>
      </trkpt>
      <trkpt lat="47.78771" lon="6.64248">
        <ele>397.8</ele>
        <time>2026-08-23T12:27:10.000Z</time>
      </trkpt>
      <trkpt lat="47.7877" lon="6.64252">
        <ele>398.2</ele>
        <time>2026-08-23T12:27:12.000Z</time>
      </trkpt>
      <trkpt lat="47.78768" lon="6.64257">
        <ele>398.8</ele>
        <time>2026-08-23T12:27:14.000Z</time>
      </trkpt>
      <trkpt lat="47.78767" lon="6.64261">
        <ele>399.2</ele>
        <time>2026-08-23T12:27:16.000Z</time>
      </trkpt>
      <trkpt lat="47.78766" lon="6.64266">
        <ele>399.6</ele>
        <time>2026-08-23T12:27:18.000Z</time>
      </trkpt>
      <trkpt lat="47.78765" lon="6.6427">
        <ele>400.2</ele>
        <time>2026-08-23T12:27:20.000Z</time>
      </trkpt>
      <trkpt lat="47.78764" lon="6.64274">
        <ele>400.6</ele>
        <time>2026-08-23T12:27:22.000Z</time>
      </trkpt>
      <trkpt lat="47.78764" lon="6.64279">
        <ele>401</ele>
        <time>2026-08-23T12:27:24.000Z</time>
      </trkpt>
      <trkpt lat="47.78764" lon="6.64283">
        <ele>401.4</ele>
        <time>2026-08-23T12:27:26.000Z</time>
      </trkpt>
      <trkpt lat="47.78764" lon="6.64287">
        <ele>401.8</ele>
        <time>2026-08-23T12:27:28.000Z</time>
      </trkpt>
      <trkpt lat="47.78765" lon="6.64291">
        <ele>402.2</ele>
        <time>2026-08-23T12:27:30.000Z</time>
      </trkpt>
      <trkpt lat="47.78765" lon="6.64295">
        <ele>402.6</ele>
        <time>2026-08-23T12:27:32.000Z</time>
      </trkpt>
      <trkpt lat="47.78766" lon="6.643">
        <ele>403</ele>
        <time>2026-08-23T12:27:34.000Z</time>
      </trkpt>
      <trkpt lat="47.78766" lon="6.64304">
        <ele>403.4</ele>
        <time>2026-08-23T12:27:36.000Z</time>
      </trkpt>
      <trkpt lat="47.78767" lon="6.64308">
        <ele>403.8</ele>
        <time>2026-08-23T12:27:38.000Z</time>
      </trkpt>
      <trkpt lat="47.78768" lon="6.64312">
        <ele>404.4</ele>
        <time>2026-08-23T12:27:40.000Z</time>
      </trkpt>
      <trkpt lat="47.78768" lon="6.64316">
        <ele>404.8</ele>
        <time>2026-08-23T12:27:42.000Z</time>
      </trkpt>
      <trkpt lat="47.78769" lon="6.64319">
        <ele>405.4</ele>
        <time>2026-08-23T12:27:44.000Z</time>
      </trkpt>
      <trkpt lat="47.78769" lon="6.64322">
        <ele>405.8</ele>
        <time>2026-08-23T12:27:47.000Z</time>
      </trkpt>
      <trkpt lat="47.78768" lon="6.64325">
        <ele>406.4</ele>
        <time>2026-08-23T12:27:49.000Z</time>
      </trkpt>
      <trkpt lat="47.78767" lon="6.64329">
        <ele>407</ele>
        <time>2026-08-23T12:27:51.000Z</time>
      </trkpt>
      <trkpt lat="47.78766" lon="6.64332">
        <ele>407.4</ele>
        <time>2026-08-23T12:27:53.000Z</time>
      </trkpt>
      <trkpt lat="47.78764" lon="6.64334">
        <ele>407.8</ele>
        <time>2026-08-23T12:27:55.000Z</time>
      </trkpt>
      <trkpt lat="47.78763" lon="6.64337">
        <ele>408.4</ele>
        <time>2026-08-23T12:27:57.000Z</time>
      </trkpt>
      <trkpt lat="47.78761" lon="6.6434">
        <ele>408.8</ele>
        <time>2026-08-23T12:27:59.000Z</time>
      </trkpt>
      <trkpt lat="47.7876" lon="6.64343">
        <ele>409.2</ele>
        <time>2026-08-23T12:28:01.000Z</time>
      </trkpt>
      <trkpt lat="47.78759" lon="6.64346">
        <ele>409.8</ele>
        <time>2026-08-23T12:28:03.000Z</time>
      </trkpt>
      <trkpt lat="47.78758" lon="6.64349">
        <ele>410.2</ele>
        <time>2026-08-23T12:28:05.000Z</time>
      </trkpt>
      <trkpt lat="47.78757" lon="6.64352">
        <ele>410.6</ele>
        <time>2026-08-23T12:28:07.000Z</time>
      </trkpt>
      <trkpt lat="47.78757" lon="6.64355">
        <ele>411.2</ele>
        <time>2026-08-23T12:28:09.000Z</time>
      </trkpt>
      <trkpt lat="47.78756" lon="6.64359">
        <ele>411.6</ele>
        <time>2026-08-23T12:28:11.000Z</time>
      </trkpt>
      <trkpt lat="47.78755" lon="6.64362">
        <ele>412</ele>
        <time>2026-08-23T12:28:13.000Z</time>
      </trkpt>
      <trkpt lat="47.78754" lon="6.64366">
        <ele>412.4</ele>
        <time>2026-08-23T12:28:15.000Z</time>
      </trkpt>
      <trkpt lat="47.78753" lon="6.6437">
        <ele>412.8</ele>
        <time>2026-08-23T12:28:17.000Z</time>
      </trkpt>
      <trkpt lat="47.78752" lon="6.64373">
        <ele>413</ele>
        <time>2026-08-23T12:28:19.000Z</time>
      </trkpt>
      <trkpt lat="47.78751" lon="6.64378">
        <ele>413.4</ele>
        <time>2026-08-23T12:28:21.000Z</time>
      </trkpt>
      <trkpt lat="47.7875" lon="6.64382">
        <ele>413.6</ele>
        <time>2026-08-23T12:28:23.000Z</time>
      </trkpt>
      <trkpt lat="47.7875" lon="6.64386">
        <ele>413.8</ele>
        <time>2026-08-23T12:28:25.000Z</time>
      </trkpt>
      <trkpt lat="47.7875" lon="6.64389">
        <ele>414.2</ele>
        <time>2026-08-23T12:28:27.000Z</time>
      </trkpt>
      <trkpt lat="47.78749" lon="6.64393">
        <ele>414.4</ele>
        <time>2026-08-23T12:28:29.000Z</time>
      </trkpt>
      <trkpt lat="47.78749" lon="6.64397">
        <ele>414.8</ele>
        <time>2026-08-23T12:28:31.000Z</time>
      </trkpt>
      <trkpt lat="47.78748" lon="6.64401">
        <ele>415</ele>
        <time>2026-08-23T12:28:33.000Z</time>
      </trkpt>
      <trkpt lat="47.78747" lon="6.64406">
        <ele>415.2</ele>
        <time>2026-08-23T12:28:35.000Z</time>
      </trkpt>
      <trkpt lat="47.78746" lon="6.6441">
        <ele>415.6</ele>
        <time>2026-08-23T12:28:37.000Z</time>
      </trkpt>
      <trkpt lat="47.78746" lon="6.64413">
        <ele>415.8</ele>
        <time>2026-08-23T12:28:39.000Z</time>
      </trkpt>
      <trkpt lat="47.78745" lon="6.64417">
        <ele>416.2</ele>
        <time>2026-08-23T12:28:41.000Z</time>
      </trkpt>
      <trkpt lat="47.78745" lon="6.64421">
        <ele>416.4</ele>
        <time>2026-08-23T12:28:43.000Z</time>
      </trkpt>
      <trkpt lat="47.78746" lon="6.64425">
        <ele>416.8</ele>
        <time>2026-08-23T12:28:45.000Z</time>
      </trkpt>
      <trkpt lat="47.78746" lon="6.64429">
        <ele>417</ele>
        <time>2026-08-23T12:28:47.000Z</time>
      </trkpt>
      <trkpt lat="47.78745" lon="6.64433">
        <ele>417.2</ele>
        <time>2026-08-23T12:28:49.000Z</time>
      </trkpt>
      <trkpt lat="47.78745" lon="6.64437">
        <ele>417.6</ele>
        <time>2026-08-23T12:28:51.000Z</time>
      </trkpt>
      <trkpt lat="47.78744" lon="6.64441">
        <ele>417.8</ele>
        <time>2026-08-23T12:28:53.000Z</time>
      </trkpt>
      <trkpt lat="47.78743" lon="6.64445">
        <ele>418.2</ele>
        <time>2026-08-23T12:28:55.000Z</time>
      </trkpt>
      <trkpt lat="47.78743" lon="6.64449">
        <ele>418.4</ele>
        <time>2026-08-23T12:28:57.000Z</time>
      </trkpt>
      <trkpt lat="47.78743" lon="6.64453">
        <ele>418.8</ele>
        <time>2026-08-23T12:28:59.000Z</time>
      </trkpt>
      <trkpt lat="47.78742" lon="6.64458">
        <ele>419.2</ele>
        <time>2026-08-23T12:29:01.000Z</time>
      </trkpt>
      <trkpt lat="47.78741" lon="6.64462">
        <ele>419.4</ele>
        <time>2026-08-23T12:29:03.000Z</time>
      </trkpt>
      <trkpt lat="47.7874" lon="6.64465">
        <ele>419.8</ele>
        <time>2026-08-23T12:29:05.000Z</time>
      </trkpt>
      <trkpt lat="47.78739" lon="6.64469">
        <ele>420.2</ele>
        <time>2026-08-23T12:29:07.000Z</time>
      </trkpt>
      <trkpt lat="47.78739" lon="6.64473">
        <ele>420.6</ele>
        <time>2026-08-23T12:29:09.000Z</time>
      </trkpt>
      <trkpt lat="47.78739" lon="6.64477">
        <ele>421</ele>
        <time>2026-08-23T12:29:11.000Z</time>
      </trkpt>
      <trkpt lat="47.78739" lon="6.6448">
        <ele>421.4</ele>
        <time>2026-08-23T12:29:13.000Z</time>
      </trkpt>
      <trkpt lat="47.78739" lon="6.64484">
        <ele>421.8</ele>
        <time>2026-08-23T12:29:15.000Z</time>
      </trkpt>
      <trkpt lat="47.78739" lon="6.64487">
        <ele>422.2</ele>
        <time>2026-08-23T12:29:17.000Z</time>
      </trkpt>
      <trkpt lat="47.78738" lon="6.64492">
        <ele>422.4</ele>
        <time>2026-08-23T12:29:19.000Z</time>
      </trkpt>
      <trkpt lat="47.78738" lon="6.64497">
        <ele>422.8</ele>
        <time>2026-08-23T12:29:21.000Z</time>
      </trkpt>
      <trkpt lat="47.78738" lon="6.64502">
        <ele>423.2</ele>
        <time>2026-08-23T12:29:24.000Z</time>
      </trkpt>
      <trkpt lat="47.78738" lon="6.64506">
        <ele>423.4</ele>
        <time>2026-08-23T12:29:26.000Z</time>
      </trkpt>
      <trkpt lat="47.78738" lon="6.6451">
        <ele>423.8</ele>
        <time>2026-08-23T12:29:28.000Z</time>
      </trkpt>
      <trkpt lat="47.78737" lon="6.64514">
        <ele>424.2</ele>
        <time>2026-08-23T12:29:30.000Z</time>
      </trkpt>
      <trkpt lat="47.78738" lon="6.64519">
        <ele>424.6</ele>
        <time>2026-08-23T12:29:32.000Z</time>
      </trkpt>
      <trkpt lat="47.78738" lon="6.64523">
        <ele>425</ele>
        <time>2026-08-23T12:29:34.000Z</time>
      </trkpt>
      <trkpt lat="47.78737" lon="6.64527">
        <ele>425.4</ele>
        <time>2026-08-23T12:29:36.000Z</time>
      </trkpt>
      <trkpt lat="47.78737" lon="6.64532">
        <ele>425.8</ele>
        <time>2026-08-23T12:29:38.000Z</time>
      </trkpt>
      <trkpt lat="47.78736" lon="6.64536">
        <ele>426</ele>
        <time>2026-08-23T12:29:40.000Z</time>
      </trkpt>
      <trkpt lat="47.78735" lon="6.64541">
        <ele>426.6</ele>
        <time>2026-08-23T12:29:42.000Z</time>
      </trkpt>
      <trkpt lat="47.78734" lon="6.64545">
        <ele>427</ele>
        <time>2026-08-23T12:29:44.000Z</time>
      </trkpt>
      <trkpt lat="47.78734" lon="6.64549">
        <ele>427.4</ele>
        <time>2026-08-23T12:29:46.000Z</time>
      </trkpt>
      <trkpt lat="47.78733" lon="6.64553">
        <ele>427.8</ele>
        <time>2026-08-23T12:29:48.000Z</time>
      </trkpt>
      <trkpt lat="47.78732" lon="6.64557">
        <ele>428.2</ele>
        <time>2026-08-23T12:29:50.000Z</time>
      </trkpt>
      <trkpt lat="47.78731" lon="6.64561">
        <ele>428.6</ele>
        <time>2026-08-23T12:29:52.000Z</time>
      </trkpt>
      <trkpt lat="47.7873" lon="6.64564">
        <ele>429</ele>
        <time>2026-08-23T12:29:54.000Z</time>
      </trkpt>
      <trkpt lat="47.78729" lon="6.64568">
        <ele>429.2</ele>
        <time>2026-08-23T12:29:56.000Z</time>
      </trkpt>
      <trkpt lat="47.78729" lon="6.64572">
        <ele>429.6</ele>
        <time>2026-08-23T12:29:58.000Z</time>
      </trkpt>
      <trkpt lat="47.78728" lon="6.64576">
        <ele>430</ele>
        <time>2026-08-23T12:30:00.000Z</time>
      </trkpt>
      <trkpt lat="47.78727" lon="6.6458">
        <ele>430.2</ele>
        <time>2026-08-23T12:30:02.000Z</time>
      </trkpt>
      <trkpt lat="47.78726" lon="6.64584">
        <ele>430.6</ele>
        <time>2026-08-23T12:30:04.000Z</time>
      </trkpt>
      <trkpt lat="47.78725" lon="6.64587">
        <ele>431</ele>
        <time>2026-08-23T12:30:06.000Z</time>
      </trkpt>
      <trkpt lat="47.78724" lon="6.64591">
        <ele>431.4</ele>
        <time>2026-08-23T12:30:08.000Z</time>
      </trkpt>
      <trkpt lat="47.78724" lon="6.64595">
        <ele>431.8</ele>
        <time>2026-08-23T12:30:10.000Z</time>
      </trkpt>
      <trkpt lat="47.78723" lon="6.64599">
        <ele>432.2</ele>
        <time>2026-08-23T12:30:12.000Z</time>
      </trkpt>
      <trkpt lat="47.78722" lon="6.64604">
        <ele>432.6</ele>
        <time>2026-08-23T12:30:14.000Z</time>
      </trkpt>
      <trkpt lat="47.78721" lon="6.64609">
        <ele>433</ele>
        <time>2026-08-23T12:30:16.000Z</time>
      </trkpt>
      <trkpt lat="47.7872" lon="6.64613">
        <ele>433.4</ele>
        <time>2026-08-23T12:30:18.000Z</time>
      </trkpt>
      <trkpt lat="47.78719" lon="6.64617">
        <ele>433.8</ele>
        <time>2026-08-23T12:30:20.000Z</time>
      </trkpt>
      <trkpt lat="47.78719" lon="6.64621">
        <ele>434</ele>
        <time>2026-08-23T12:30:22.000Z</time>
      </trkpt>
      <trkpt lat="47.78718" lon="6.64624">
        <ele>434.4</ele>
        <time>2026-08-23T12:30:24.000Z</time>
      </trkpt>
      <trkpt lat="47.78718" lon="6.64628">
        <ele>435</ele>
        <time>2026-08-23T12:30:26.000Z</time>
      </trkpt>
      <trkpt lat="47.78718" lon="6.64632">
        <ele>435.4</ele>
        <time>2026-08-23T12:30:28.000Z</time>
      </trkpt>
      <trkpt lat="47.78718" lon="6.64636">
        <ele>435.8</ele>
        <time>2026-08-23T12:30:30.000Z</time>
      </trkpt>
      <trkpt lat="47.78718" lon="6.64639">
        <ele>436.2</ele>
        <time>2026-08-23T12:30:32.000Z</time>
      </trkpt>
      <trkpt lat="47.78718" lon="6.64643">
        <ele>436.6</ele>
        <time>2026-08-23T12:30:34.000Z</time>
      </trkpt>
      <trkpt lat="47.78717" lon="6.64647">
        <ele>437</ele>
        <time>2026-08-23T12:30:36.000Z</time>
      </trkpt>
      <trkpt lat="47.78717" lon="6.64651">
        <ele>437.4</ele>
        <time>2026-08-23T12:30:38.000Z</time>
      </trkpt>
      <trkpt lat="47.78716" lon="6.64654">
        <ele>437.8</ele>
        <time>2026-08-23T12:30:40.000Z</time>
      </trkpt>
      <trkpt lat="47.78715" lon="6.64658">
        <ele>438.4</ele>
        <time>2026-08-23T12:30:42.000Z</time>
      </trkpt>
      <trkpt lat="47.78715" lon="6.64661">
        <ele>438.8</ele>
        <time>2026-08-23T12:30:44.000Z</time>
      </trkpt>
      <trkpt lat="47.78714" lon="6.64664">
        <ele>439.2</ele>
        <time>2026-08-23T12:30:46.000Z</time>
      </trkpt>
      <trkpt lat="47.78713" lon="6.64668">
        <ele>439.6</ele>
        <time>2026-08-23T12:30:48.000Z</time>
      </trkpt>
      <trkpt lat="47.78712" lon="6.64671">
        <ele>440</ele>
        <time>2026-08-23T12:30:50.000Z</time>
      </trkpt>
      <trkpt lat="47.7871" lon="6.64674">
        <ele>440.6</ele>
        <time>2026-08-23T12:30:52.000Z</time>
      </trkpt>
      <trkpt lat="47.78709" lon="6.64677">
        <ele>441</ele>
        <time>2026-08-23T12:30:54.000Z</time>
      </trkpt>
      <trkpt lat="47.78708" lon="6.6468">
        <ele>441.4</ele>
        <time>2026-08-23T12:30:56.000Z</time>
      </trkpt>
      <trkpt lat="47.78707" lon="6.64683">
        <ele>441.8</ele>
        <time>2026-08-23T12:30:58.000Z</time>
      </trkpt>
      <trkpt lat="47.78705" lon="6.64686">
        <ele>442.2</ele>
        <time>2026-08-23T12:31:00.000Z</time>
      </trkpt>
      <trkpt lat="47.78704" lon="6.64689">
        <ele>442.6</ele>
        <time>2026-08-23T12:31:02.000Z</time>
      </trkpt>
      <trkpt lat="47.78702" lon="6.64691">
        <ele>443</ele>
        <time>2026-08-23T12:31:04.000Z</time>
      </trkpt>
      <trkpt lat="47.787" lon="6.64693">
        <ele>443.4</ele>
        <time>2026-08-23T12:31:06.000Z</time>
      </trkpt>
      <trkpt lat="47.78698" lon="6.64696">
        <ele>443.8</ele>
        <time>2026-08-23T12:31:08.000Z</time>
      </trkpt>
      <trkpt lat="47.78697" lon="6.64698">
        <ele>444</ele>
        <time>2026-08-23T12:31:10.000Z</time>
      </trkpt>
      <trkpt lat="47.78695" lon="6.64701">
        <ele>444.4</ele>
        <time>2026-08-23T12:31:13.000Z</time>
      </trkpt>
      <trkpt lat="47.78692" lon="6.64701">
        <ele>444.8</ele>
        <time>2026-08-23T12:31:15.000Z</time>
      </trkpt>
      <trkpt lat="47.78689" lon="6.64702">
        <ele>445.4</ele>
        <time>2026-08-23T12:31:17.000Z</time>
      </trkpt>
      <trkpt lat="47.78687" lon="6.64702">
        <ele>445.8</ele>
        <time>2026-08-23T12:31:19.000Z</time>
      </trkpt>
      <trkpt lat="47.78685" lon="6.64702">
        <ele>446.2</ele>
        <time>2026-08-23T12:31:21.000Z</time>
      </trkpt>
      <trkpt lat="47.78683" lon="6.647">
        <ele>446.6</ele>
        <time>2026-08-23T12:31:23.000Z</time>
      </trkpt>
      <trkpt lat="47.78681" lon="6.64697">
        <ele>447</ele>
        <time>2026-08-23T12:31:25.000Z</time>
      </trkpt>
      <trkpt lat="47.7868" lon="6.64693">
        <ele>447.4</ele>
        <time>2026-08-23T12:31:27.000Z</time>
      </trkpt>
      <trkpt lat="47.78679" lon="6.6469">
        <ele>447.8</ele>
        <time>2026-08-23T12:31:29.000Z</time>
      </trkpt>
      <trkpt lat="47.78679" lon="6.64686">
        <ele>448</ele>
        <time>2026-08-23T12:31:31.000Z</time>
      </trkpt>
      <trkpt lat="47.78678" lon="6.64683">
        <ele>448.2</ele>
        <time>2026-08-23T12:31:33.000Z</time>
      </trkpt>
      <trkpt lat="47.78677" lon="6.64679">
        <ele>448.4</ele>
        <time>2026-08-23T12:31:35.000Z</time>
      </trkpt>
      <trkpt lat="47.78678" lon="6.64675">
        <ele>448.6</ele>
        <time>2026-08-23T12:31:37.000Z</time>
      </trkpt>
      <trkpt lat="47.78677" lon="6.64669">
        <ele>448.8</ele>
        <time>2026-08-23T12:31:39.000Z</time>
      </trkpt>
      <trkpt lat="47.78677" lon="6.64664">
        <ele>449.2</ele>
        <time>2026-08-23T12:31:41.000Z</time>
      </trkpt>
      <trkpt lat="47.78676" lon="6.6466">
        <ele>449.4</ele>
        <time>2026-08-23T12:31:43.000Z</time>
      </trkpt>
      <trkpt lat="47.78675" lon="6.64656">
        <ele>449.6</ele>
        <time>2026-08-23T12:31:45.000Z</time>
      </trkpt>
      <trkpt lat="47.78675" lon="6.64652">
        <ele>450</ele>
        <time>2026-08-23T12:31:47.000Z</time>
      </trkpt>
      <trkpt lat="47.78675" lon="6.64647">
        <ele>450</ele>
        <time>2026-08-23T12:31:49.000Z</time>
      </trkpt>
      <trkpt lat="47.78674" lon="6.64643">
        <ele>450.2</ele>
        <time>2026-08-23T12:31:51.000Z</time>
      </trkpt>
      <trkpt lat="47.78673" lon="6.64639">
        <ele>450.4</ele>
        <time>2026-08-23T12:31:53.000Z</time>
      </trkpt>
      <trkpt lat="47.78672" lon="6.64634">
        <ele>450.8</ele>
        <time>2026-08-23T12:31:55.000Z</time>
      </trkpt>
      <trkpt lat="47.78671" lon="6.6463">
        <ele>451</ele>
        <time>2026-08-23T12:31:57.000Z</time>
      </trkpt>
      <trkpt lat="47.7867" lon="6.64625">
        <ele>451.2</ele>
        <time>2026-08-23T12:31:59.000Z</time>
      </trkpt>
      <trkpt lat="47.78669" lon="6.64621">
        <ele>451.6</ele>
        <time>2026-08-23T12:32:01.000Z</time>
      </trkpt>
      <trkpt lat="47.78668" lon="6.64618">
        <ele>451.8</ele>
        <time>2026-08-23T12:32:03.000Z</time>
      </trkpt>
      <trkpt lat="47.78666" lon="6.64614">
        <ele>452.2</ele>
        <time>2026-08-23T12:32:05.000Z</time>
      </trkpt>
      <trkpt lat="47.78665" lon="6.64609">
        <ele>452.4</ele>
        <time>2026-08-23T12:32:07.000Z</time>
      </trkpt>
      <trkpt lat="47.78664" lon="6.64605">
        <ele>452.6</ele>
        <time>2026-08-23T12:32:09.000Z</time>
      </trkpt>
      <trkpt lat="47.78663" lon="6.64601">
        <ele>452.8</ele>
        <time>2026-08-23T12:32:11.000Z</time>
      </trkpt>
      <trkpt lat="47.78661" lon="6.64597">
        <ele>453</ele>
        <time>2026-08-23T12:32:13.000Z</time>
      </trkpt>
      <trkpt lat="47.7866" lon="6.64593">
        <ele>453.4</ele>
        <time>2026-08-23T12:32:15.000Z</time>
      </trkpt>
      <trkpt lat="47.78659" lon="6.64589">
        <ele>453.6</ele>
        <time>2026-08-23T12:32:17.000Z</time>
      </trkpt>
      <trkpt lat="47.78658" lon="6.64585">
        <ele>453.8</ele>
        <time>2026-08-23T12:32:19.000Z</time>
      </trkpt>
      <trkpt lat="47.78656" lon="6.64581">
        <ele>454.2</ele>
        <time>2026-08-23T12:32:21.000Z</time>
      </trkpt>
      <trkpt lat="47.78655" lon="6.64576">
        <ele>454.4</ele>
        <time>2026-08-23T12:32:23.000Z</time>
      </trkpt>
      <trkpt lat="47.78654" lon="6.64572">
        <ele>454.6</ele>
        <time>2026-08-23T12:32:25.000Z</time>
      </trkpt>
      <trkpt lat="47.78653" lon="6.64568">
        <ele>455</ele>
        <time>2026-08-23T12:32:27.000Z</time>
      </trkpt>
      <trkpt lat="47.78652" lon="6.64564">
        <ele>455.2</ele>
        <time>2026-08-23T12:32:30.000Z</time>
      </trkpt>
      <trkpt lat="47.78651" lon="6.6456">
        <ele>455.6</ele>
        <time>2026-08-23T12:32:32.000Z</time>
      </trkpt>
      <trkpt lat="47.78651" lon="6.64556">
        <ele>456</ele>
        <time>2026-08-23T12:32:34.000Z</time>
      </trkpt>
      <trkpt lat="47.7865" lon="6.64551">
        <ele>456.2</ele>
        <time>2026-08-23T12:32:36.000Z</time>
      </trkpt>
      <trkpt lat="47.78649" lon="6.64547">
        <ele>456.6</ele>
        <time>2026-08-23T12:32:38.000Z</time>
      </trkpt>
      <trkpt lat="47.78648" lon="6.64543">
        <ele>456.8</ele>
        <time>2026-08-23T12:32:40.000Z</time>
      </trkpt>
      <trkpt lat="47.78647" lon="6.64539">
        <ele>457.2</ele>
        <time>2026-08-23T12:32:42.000Z</time>
      </trkpt>
      <trkpt lat="47.78646" lon="6.64536">
        <ele>457.6</ele>
        <time>2026-08-23T12:32:44.000Z</time>
      </trkpt>
      <trkpt lat="47.78645" lon="6.64532">
        <ele>457.8</ele>
        <time>2026-08-23T12:32:46.000Z</time>
      </trkpt>
      <trkpt lat="47.78643" lon="6.64528">
        <ele>458.2</ele>
        <time>2026-08-23T12:32:48.000Z</time>
      </trkpt>
      <trkpt lat="47.78642" lon="6.64525">
        <ele>458.4</ele>
        <time>2026-08-23T12:32:50.000Z</time>
      </trkpt>
      <trkpt lat="47.7864" lon="6.64521">
        <ele>458.8</ele>
        <time>2026-08-23T12:32:52.000Z</time>
      </trkpt>
      <trkpt lat="47.78639" lon="6.64516">
        <ele>459</ele>
        <time>2026-08-23T12:32:54.000Z</time>
      </trkpt>
      <trkpt lat="47.78637" lon="6.64512">
        <ele>459.2</ele>
        <time>2026-08-23T12:32:56.000Z</time>
      </trkpt>
      <trkpt lat="47.78636" lon="6.64508">
        <ele>459.4</ele>
        <time>2026-08-23T12:32:58.000Z</time>
      </trkpt>
      <trkpt lat="47.78635" lon="6.64503">
        <ele>459.8</ele>
        <time>2026-08-23T12:33:00.000Z</time>
      </trkpt>
      <trkpt lat="47.78633" lon="6.64499">
        <ele>460</ele>
        <time>2026-08-23T12:33:02.000Z</time>
      </trkpt>
      <trkpt lat="47.78632" lon="6.64495">
        <ele>460.4</ele>
        <time>2026-08-23T12:33:04.000Z</time>
      </trkpt>
      <trkpt lat="47.78631" lon="6.6449">
        <ele>460.8</ele>
        <time>2026-08-23T12:33:06.000Z</time>
      </trkpt>
      <trkpt lat="47.7863" lon="6.64486">
        <ele>461</ele>
        <time>2026-08-23T12:33:08.000Z</time>
      </trkpt>
      <trkpt lat="47.78629" lon="6.64481">
        <ele>461.4</ele>
        <time>2026-08-23T12:33:10.000Z</time>
      </trkpt>
      <trkpt lat="47.78629" lon="6.64476">
        <ele>461.6</ele>
        <time>2026-08-23T12:33:12.000Z</time>
      </trkpt>
      <trkpt lat="47.78628" lon="6.64472">
        <ele>462</ele>
        <time>2026-08-23T12:33:14.000Z</time>
      </trkpt>
      <trkpt lat="47.78627" lon="6.64467">
        <ele>462.2</ele>
        <time>2026-08-23T12:33:16.000Z</time>
      </trkpt>
      <trkpt lat="47.78626" lon="6.64462">
        <ele>462.6</ele>
        <time>2026-08-23T12:33:18.000Z</time>
      </trkpt>
      <trkpt lat="47.78625" lon="6.64458">
        <ele>462.8</ele>
        <time>2026-08-23T12:33:20.000Z</time>
      </trkpt>
      <trkpt lat="47.78624" lon="6.64452">
        <ele>463.2</ele>
        <time>2026-08-23T12:33:22.000Z</time>
      </trkpt>
      <trkpt lat="47.78623" lon="6.64446">
        <ele>463.4</ele>
        <time>2026-08-23T12:33:24.000Z</time>
      </trkpt>
      <trkpt lat="47.78622" lon="6.64441">
        <ele>463.8</ele>
        <time>2026-08-23T12:33:26.000Z</time>
      </trkpt>
      <trkpt lat="47.7862" lon="6.64437">
        <ele>464</ele>
        <time>2026-08-23T12:33:28.000Z</time>
      </trkpt>
      <trkpt lat="47.78619" lon="6.64432">
        <ele>464.2</ele>
        <time>2026-08-23T12:33:30.000Z</time>
      </trkpt>
      <trkpt lat="47.78618" lon="6.64428">
        <ele>464.6</ele>
        <time>2026-08-23T12:33:32.000Z</time>
      </trkpt>
      <trkpt lat="47.78616" lon="6.64424">
        <ele>464.8</ele>
        <time>2026-08-23T12:33:34.000Z</time>
      </trkpt>
      <trkpt lat="47.78614" lon="6.64419">
        <ele>465.2</ele>
        <time>2026-08-23T12:33:36.000Z</time>
      </trkpt>
      <trkpt lat="47.78612" lon="6.64415">
        <ele>465.4</ele>
        <time>2026-08-23T12:33:38.000Z</time>
      </trkpt>
      <trkpt lat="47.7861" lon="6.64412">
        <ele>465.8</ele>
        <time>2026-08-23T12:33:40.000Z</time>
      </trkpt>
      <trkpt lat="47.78607" lon="6.6441">
        <ele>466</ele>
        <time>2026-08-23T12:33:42.000Z</time>
      </trkpt>
      <trkpt lat="47.78605" lon="6.64408">
        <ele>466.4</ele>
        <time>2026-08-23T12:33:44.000Z</time>
      </trkpt>
      <trkpt lat="47.78602" lon="6.64407">
        <ele>466.8</ele>
        <time>2026-08-23T12:33:46.000Z</time>
      </trkpt>
      <trkpt lat="47.78599" lon="6.64406">
        <ele>467</ele>
        <time>2026-08-23T12:33:48.000Z</time>
      </trkpt>
      <trkpt lat="47.78596" lon="6.64405">
        <ele>467.6</ele>
        <time>2026-08-23T12:33:50.000Z</time>
      </trkpt>
      <trkpt lat="47.78593" lon="6.64406">
        <ele>467.8</ele>
        <time>2026-08-23T12:33:52.000Z</time>
      </trkpt>
      <trkpt lat="47.7859" lon="6.64406">
        <ele>468.2</ele>
        <time>2026-08-23T12:33:54.000Z</time>
      </trkpt>
      <trkpt lat="47.78587" lon="6.64408">
        <ele>468.6</ele>
        <time>2026-08-23T12:33:56.000Z</time>
      </trkpt>
      <trkpt lat="47.78585" lon="6.64409">
        <ele>469</ele>
        <time>2026-08-23T12:33:58.000Z</time>
      </trkpt>
      <trkpt lat="47.78582" lon="6.64412">
        <ele>469.4</ele>
        <time>2026-08-23T12:34:00.000Z</time>
      </trkpt>
      <trkpt lat="47.78581" lon="6.64415">
        <ele>469.8</ele>
        <time>2026-08-23T12:34:02.000Z</time>
      </trkpt>
      <trkpt lat="47.78579" lon="6.64419">
        <ele>470.2</ele>
        <time>2026-08-23T12:34:04.000Z</time>
      </trkpt>
      <trkpt lat="47.78578" lon="6.64422">
        <ele>470.6</ele>
        <time>2026-08-23T12:34:06.000Z</time>
      </trkpt>
      <trkpt lat="47.78576" lon="6.64426">
        <ele>471</ele>
        <time>2026-08-23T12:34:08.000Z</time>
      </trkpt>
      <trkpt lat="47.78575" lon="6.6443">
        <ele>471.4</ele>
        <time>2026-08-23T12:34:10.000Z</time>
      </trkpt>
      <trkpt lat="47.78575" lon="6.64434">
        <ele>471.8</ele>
        <time>2026-08-23T12:34:12.000Z</time>
      </trkpt>
      <trkpt lat="47.78574" lon="6.64438">
        <ele>472.2</ele>
        <time>2026-08-23T12:34:14.000Z</time>
      </trkpt>
      <trkpt lat="47.78573" lon="6.64442">
        <ele>472.6</ele>
        <time>2026-08-23T12:34:16.000Z</time>
      </trkpt>
      <trkpt lat="47.78573" lon="6.64446">
        <ele>473</ele>
        <time>2026-08-23T12:34:18.000Z</time>
      </trkpt>
      <trkpt lat="47.78572" lon="6.6445">
        <ele>473.4</ele>
        <time>2026-08-23T12:34:20.000Z</time>
      </trkpt>
      <trkpt lat="47.78572" lon="6.64454">
        <ele>473.6</ele>
        <time>2026-08-23T12:34:23.000Z</time>
      </trkpt>
      <trkpt lat="47.78572" lon="6.64458">
        <ele>474</ele>
        <time>2026-08-23T12:34:25.000Z</time>
      </trkpt>
      <trkpt lat="47.78571" lon="6.64462">
        <ele>474.4</ele>
        <time>2026-08-23T12:34:27.000Z</time>
      </trkpt>
      <trkpt lat="47.78571" lon="6.64466">
        <ele>474.8</ele>
        <time>2026-08-23T12:34:29.000Z</time>
      </trkpt>
      <trkpt lat="47.7857" lon="6.64471">
        <ele>475.2</ele>
        <time>2026-08-23T12:34:31.000Z</time>
      </trkpt>
      <trkpt lat="47.7857" lon="6.64475">
        <ele>475.6</ele>
        <time>2026-08-23T12:34:33.000Z</time>
      </trkpt>
      <trkpt lat="47.78569" lon="6.64479">
        <ele>475.8</ele>
        <time>2026-08-23T12:34:35.000Z</time>
      </trkpt>
      <trkpt lat="47.78569" lon="6.64484">
        <ele>476.2</ele>
        <time>2026-08-23T12:34:37.000Z</time>
      </trkpt>
      <trkpt lat="47.78568" lon="6.64488">
        <ele>476.6</ele>
        <time>2026-08-23T12:34:39.000Z</time>
      </trkpt>
      <trkpt lat="47.78568" lon="6.64492">
        <ele>477</ele>
        <time>2026-08-23T12:34:41.000Z</time>
      </trkpt>
      <trkpt lat="47.78567" lon="6.64496">
        <ele>477.4</ele>
        <time>2026-08-23T12:34:43.000Z</time>
      </trkpt>
      <trkpt lat="47.78566" lon="6.645">
        <ele>477.6</ele>
        <time>2026-08-23T12:34:45.000Z</time>
      </trkpt>
      <trkpt lat="47.78565" lon="6.64505">
        <ele>478</ele>
        <time>2026-08-23T12:34:47.000Z</time>
      </trkpt>
      <trkpt lat="47.78565" lon="6.64509">
        <ele>478.4</ele>
        <time>2026-08-23T12:34:49.000Z</time>
      </trkpt>
      <trkpt lat="47.78564" lon="6.64515">
        <ele>478.8</ele>
        <time>2026-08-23T12:34:51.000Z</time>
      </trkpt>
      <trkpt lat="47.78563" lon="6.64521">
        <ele>479.2</ele>
        <time>2026-08-23T12:34:53.000Z</time>
      </trkpt>
      <trkpt lat="47.78562" lon="6.64525">
        <ele>479.6</ele>
        <time>2026-08-23T12:34:55.000Z</time>
      </trkpt>
      <trkpt lat="47.78561" lon="6.64529">
        <ele>479.8</ele>
        <time>2026-08-23T12:34:57.000Z</time>
      </trkpt>
      <trkpt lat="47.7856" lon="6.64534">
        <ele>480.2</ele>
        <time>2026-08-23T12:34:59.000Z</time>
      </trkpt>
      <trkpt lat="47.78559" lon="6.64538">
        <ele>480.6</ele>
        <time>2026-08-23T12:35:01.000Z</time>
      </trkpt>
      <trkpt lat="47.78558" lon="6.64542">
        <ele>480.8</ele>
        <time>2026-08-23T12:35:03.000Z</time>
      </trkpt>
      <trkpt lat="47.78557" lon="6.64547">
        <ele>481.2</ele>
        <time>2026-08-23T12:35:05.000Z</time>
      </trkpt>
      <trkpt lat="47.78556" lon="6.64551">
        <ele>481.6</ele>
        <time>2026-08-23T12:35:07.000Z</time>
      </trkpt>
      <trkpt lat="47.78556" lon="6.64556">
        <ele>481.8</ele>
        <time>2026-08-23T12:35:09.000Z</time>
      </trkpt>
      <trkpt lat="47.78556" lon="6.6456">
        <ele>482.2</ele>
        <time>2026-08-23T12:35:11.000Z</time>
      </trkpt>
      <trkpt lat="47.78556" lon="6.64564">
        <ele>482.6</ele>
        <time>2026-08-23T12:35:13.000Z</time>
      </trkpt>
      <trkpt lat="47.78556" lon="6.64568">
        <ele>483</ele>
        <time>2026-08-23T12:35:15.000Z</time>
      </trkpt>
      <trkpt lat="47.78556" lon="6.64572">
        <ele>483.4</ele>
        <time>2026-08-23T12:35:17.000Z</time>
      </trkpt>
      <trkpt lat="47.78556" lon="6.64577">
        <ele>483.8</ele>
        <time>2026-08-23T12:35:19.000Z</time>
      </trkpt>
      <trkpt lat="47.78556" lon="6.64581">
        <ele>484.2</ele>
        <time>2026-08-23T12:35:21.000Z</time>
      </trkpt>
      <trkpt lat="47.78556" lon="6.64586">
        <ele>484.6</ele>
        <time>2026-08-23T12:35:23.000Z</time>
      </trkpt>
      <trkpt lat="47.78556" lon="6.6459">
        <ele>484.8</ele>
        <time>2026-08-23T12:35:25.000Z</time>
      </trkpt>
      <trkpt lat="47.78557" lon="6.64594">
        <ele>485.2</ele>
        <time>2026-08-23T12:35:27.000Z</time>
      </trkpt>
      <trkpt lat="47.78557" lon="6.64598">
        <ele>485.6</ele>
        <time>2026-08-23T12:35:29.000Z</time>
      </trkpt>
      <trkpt lat="47.78557" lon="6.64603">
        <ele>486</ele>
        <time>2026-08-23T12:35:31.000Z</time>
      </trkpt>
      <trkpt lat="47.78558" lon="6.64607">
        <ele>486.4</ele>
        <time>2026-08-23T12:35:33.000Z</time>
      </trkpt>
      <trkpt lat="47.78558" lon="6.64612">
        <ele>486.8</ele>
        <time>2026-08-23T12:35:35.000Z</time>
      </trkpt>
      <trkpt lat="47.78557" lon="6.64616">
        <ele>487.2</ele>
        <time>2026-08-23T12:35:37.000Z</time>
      </trkpt>
      <trkpt lat="47.78557" lon="6.6462">
        <ele>487.4</ele>
        <time>2026-08-23T12:35:39.000Z</time>
      </trkpt>
      <trkpt lat="47.78556" lon="6.64624">
        <ele>487.8</ele>
        <time>2026-08-23T12:35:41.000Z</time>
      </trkpt>
      <trkpt lat="47.78555" lon="6.64628">
        <ele>488</ele>
        <time>2026-08-23T12:35:43.000Z</time>
      </trkpt>
      <trkpt lat="47.78555" lon="6.64631">
        <ele>488.4</ele>
        <time>2026-08-23T12:35:45.000Z</time>
      </trkpt>
      <trkpt lat="47.78555" lon="6.64636">
        <ele>488.8</ele>
        <time>2026-08-23T12:35:47.000Z</time>
      </trkpt>
      <trkpt lat="47.78555" lon="6.64641">
        <ele>489</ele>
        <time>2026-08-23T12:35:49.000Z</time>
      </trkpt>
      <trkpt lat="47.78554" lon="6.64645">
        <ele>489.4</ele>
        <time>2026-08-23T12:35:51.000Z</time>
      </trkpt>
      <trkpt lat="47.78554" lon="6.6465">
        <ele>489.8</ele>
        <time>2026-08-23T12:35:53.000Z</time>
      </trkpt>
      <trkpt lat="47.78553" lon="6.64654">
        <ele>490</ele>
        <time>2026-08-23T12:35:56.000Z</time>
      </trkpt>
      <trkpt lat="47.78552" lon="6.64659">
        <ele>490.4</ele>
        <time>2026-08-23T12:35:58.000Z</time>
      </trkpt>
      <trkpt lat="47.78552" lon="6.64662">
        <ele>490.8</ele>
        <time>2026-08-23T12:36:00.000Z</time>
      </trkpt>
      <trkpt lat="47.78551" lon="6.64667">
        <ele>491.2</ele>
        <time>2026-08-23T12:36:02.000Z</time>
      </trkpt>
      <trkpt lat="47.78551" lon="6.64671">
        <ele>491.6</ele>
        <time>2026-08-23T12:36:04.000Z</time>
      </trkpt>
      <trkpt lat="47.7855" lon="6.64676">
        <ele>491.8</ele>
        <time>2026-08-23T12:36:06.000Z</time>
      </trkpt>
      <trkpt lat="47.78549" lon="6.6468">
        <ele>492.2</ele>
        <time>2026-08-23T12:36:08.000Z</time>
      </trkpt>
      <trkpt lat="47.78547" lon="6.64685">
        <ele>492.4</ele>
        <time>2026-08-23T12:36:10.000Z</time>
      </trkpt>
      <trkpt lat="47.78546" lon="6.6469">
        <ele>492.8</ele>
        <time>2026-08-23T12:36:12.000Z</time>
      </trkpt>
      <trkpt lat="47.78545" lon="6.64694">
        <ele>493.2</ele>
        <time>2026-08-23T12:36:14.000Z</time>
      </trkpt>
      <trkpt lat="47.78544" lon="6.64698">
        <ele>493.4</ele>
        <time>2026-08-23T12:36:16.000Z</time>
      </trkpt>
      <trkpt lat="47.78542" lon="6.64703">
        <ele>493.8</ele>
        <time>2026-08-23T12:36:18.000Z</time>
      </trkpt>
      <trkpt lat="47.7854" lon="6.64707">
        <ele>494.2</ele>
        <time>2026-08-23T12:36:20.000Z</time>
      </trkpt>
      <trkpt lat="47.78539" lon="6.64711">
        <ele>494.4</ele>
        <time>2026-08-23T12:36:22.000Z</time>
      </trkpt>
      <trkpt lat="47.78538" lon="6.64716">
        <ele>494.8</ele>
        <time>2026-08-23T12:36:24.000Z</time>
      </trkpt>
      <trkpt lat="47.78537" lon="6.6472">
        <ele>495.2</ele>
        <time>2026-08-23T12:36:26.000Z</time>
      </trkpt>
      <trkpt lat="47.78535" lon="6.64724">
        <ele>495.4</ele>
        <time>2026-08-23T12:36:28.000Z</time>
      </trkpt>
      <trkpt lat="47.78533" lon="6.64728">
        <ele>495.8</ele>
        <time>2026-08-23T12:36:30.000Z</time>
      </trkpt>
      <trkpt lat="47.78531" lon="6.64733">
        <ele>496.2</ele>
        <time>2026-08-23T12:36:32.000Z</time>
      </trkpt>
      <trkpt lat="47.78529" lon="6.64737">
        <ele>496.4</ele>
        <time>2026-08-23T12:36:34.000Z</time>
      </trkpt>
      <trkpt lat="47.78527" lon="6.6474">
        <ele>496.8</ele>
        <time>2026-08-23T12:36:36.000Z</time>
      </trkpt>
      <trkpt lat="47.78525" lon="6.64744">
        <ele>497.2</ele>
        <time>2026-08-23T12:36:38.000Z</time>
      </trkpt>
      <trkpt lat="47.78524" lon="6.64749">
        <ele>497.4</ele>
        <time>2026-08-23T12:36:40.000Z</time>
      </trkpt>
      <trkpt lat="47.78522" lon="6.64755">
        <ele>497.8</ele>
        <time>2026-08-23T12:36:42.000Z</time>
      </trkpt>
      <trkpt lat="47.7852" lon="6.64759">
        <ele>498.2</ele>
        <time>2026-08-23T12:36:44.000Z</time>
      </trkpt>
      <trkpt lat="47.78519" lon="6.64764">
        <ele>498.4</ele>
        <time>2026-08-23T12:36:46.000Z</time>
      </trkpt>
      <trkpt lat="47.78517" lon="6.64767">
        <ele>498.8</ele>
        <time>2026-08-23T12:36:48.000Z</time>
      </trkpt>
      <trkpt lat="47.78515" lon="6.64771">
        <ele>499.2</ele>
        <time>2026-08-23T12:36:50.000Z</time>
      </trkpt>
      <trkpt lat="47.78514" lon="6.64775">
        <ele>499.6</ele>
        <time>2026-08-23T12:36:52.000Z</time>
      </trkpt>
      <trkpt lat="47.78512" lon="6.64779">
        <ele>500</ele>
        <time>2026-08-23T12:36:54.000Z</time>
      </trkpt>
      <trkpt lat="47.78511" lon="6.64783">
        <ele>500.4</ele>
        <time>2026-08-23T12:36:56.000Z</time>
      </trkpt>
      <trkpt lat="47.78509" lon="6.64787">
        <ele>500.6</ele>
        <time>2026-08-23T12:36:58.000Z</time>
      </trkpt>
      <trkpt lat="47.78508" lon="6.64791">
        <ele>501</ele>
        <time>2026-08-23T12:37:00.000Z</time>
      </trkpt>
      <trkpt lat="47.78506" lon="6.64795">
        <ele>501.4</ele>
        <time>2026-08-23T12:37:02.000Z</time>
      </trkpt>
      <trkpt lat="47.78504" lon="6.64799">
        <ele>501.8</ele>
        <time>2026-08-23T12:37:04.000Z</time>
      </trkpt>
      <trkpt lat="47.78502" lon="6.64803">
        <ele>502</ele>
        <time>2026-08-23T12:37:06.000Z</time>
      </trkpt>
      <trkpt lat="47.785" lon="6.64807">
        <ele>502.4</ele>
        <time>2026-08-23T12:37:08.000Z</time>
      </trkpt>
      <trkpt lat="47.78498" lon="6.6481">
        <ele>502.8</ele>
        <time>2026-08-23T12:37:10.000Z</time>
      </trkpt>
      <trkpt lat="47.78497" lon="6.64814">
        <ele>503</ele>
        <time>2026-08-23T12:37:12.000Z</time>
      </trkpt>
      <trkpt lat="47.78495" lon="6.64817">
        <ele>503.4</ele>
        <time>2026-08-23T12:37:14.000Z</time>
      </trkpt>
      <trkpt lat="47.78492" lon="6.6482">
        <ele>503.8</ele>
        <time>2026-08-23T12:37:16.000Z</time>
      </trkpt>
      <trkpt lat="47.7849" lon="6.64823">
        <ele>504</ele>
        <time>2026-08-23T12:37:18.000Z</time>
      </trkpt>
      <trkpt lat="47.78488" lon="6.64826">
        <ele>504.2</ele>
        <time>2026-08-23T12:37:20.000Z</time>
      </trkpt>
      <trkpt lat="47.78486" lon="6.6483">
        <ele>504.6</ele>
        <time>2026-08-23T12:37:22.000Z</time>
      </trkpt>
      <trkpt lat="47.78484" lon="6.64833">
        <ele>504.8</ele>
        <time>2026-08-23T12:37:25.000Z</time>
      </trkpt>
      <trkpt lat="47.78483" lon="6.64837">
        <ele>505.2</ele>
        <time>2026-08-23T12:37:27.000Z</time>
      </trkpt>
      <trkpt lat="47.78481" lon="6.64841">
        <ele>505.6</ele>
        <time>2026-08-23T12:37:29.000Z</time>
      </trkpt>
      <trkpt lat="47.7848" lon="6.64845">
        <ele>505.8</ele>
        <time>2026-08-23T12:37:31.000Z</time>
      </trkpt>
      <trkpt lat="47.78479" lon="6.6485">
        <ele>506.2</ele>
        <time>2026-08-23T12:37:33.000Z</time>
      </trkpt>
      <trkpt lat="47.78478" lon="6.64854">
        <ele>506.4</ele>
        <time>2026-08-23T12:37:35.000Z</time>
      </trkpt>
      <trkpt lat="47.78477" lon="6.64859">
        <ele>506.8</ele>
        <time>2026-08-23T12:37:37.000Z</time>
      </trkpt>
      <trkpt lat="47.78477" lon="6.64863">
        <ele>507.2</ele>
        <time>2026-08-23T12:37:39.000Z</time>
      </trkpt>
      <trkpt lat="47.78476" lon="6.64868">
        <ele>507.6</ele>
        <time>2026-08-23T12:37:41.000Z</time>
      </trkpt>
      <trkpt lat="47.78476" lon="6.64873">
        <ele>508</ele>
        <time>2026-08-23T12:37:43.000Z</time>
      </trkpt>
      <trkpt lat="47.78476" lon="6.64878">
        <ele>508.2</ele>
        <time>2026-08-23T12:37:45.000Z</time>
      </trkpt>
      <trkpt lat="47.78475" lon="6.64883">
        <ele>508.6</ele>
        <time>2026-08-23T12:37:47.000Z</time>
      </trkpt>
      <trkpt lat="47.78475" lon="6.64887">
        <ele>509</ele>
        <time>2026-08-23T12:37:49.000Z</time>
      </trkpt>
      <trkpt lat="47.78474" lon="6.64891">
        <ele>509.2</ele>
        <time>2026-08-23T12:37:51.000Z</time>
      </trkpt>
      <trkpt lat="47.78474" lon="6.64896">
        <ele>509.6</ele>
        <time>2026-08-23T12:37:53.000Z</time>
      </trkpt>
      <trkpt lat="47.78473" lon="6.649">
        <ele>510</ele>
        <time>2026-08-23T12:37:55.000Z</time>
      </trkpt>
      <trkpt lat="47.78473" lon="6.64904">
        <ele>510.4</ele>
        <time>2026-08-23T12:37:57.000Z</time>
      </trkpt>
      <trkpt lat="47.78472" lon="6.64908">
        <ele>510.8</ele>
        <time>2026-08-23T12:37:59.000Z</time>
      </trkpt>
      <trkpt lat="47.78471" lon="6.6491">
        <ele>511</ele>
        <time>2026-08-23T12:38:01.000Z</time>
      </trkpt>
      <trkpt lat="47.78469" lon="6.64913">
        <ele>511.4</ele>
        <time>2026-08-23T12:38:03.000Z</time>
      </trkpt>
      <trkpt lat="47.78468" lon="6.64916">
        <ele>511.8</ele>
        <time>2026-08-23T12:38:05.000Z</time>
      </trkpt>
      <trkpt lat="47.78466" lon="6.64919">
        <ele>512</ele>
        <time>2026-08-23T12:38:07.000Z</time>
      </trkpt>
      <trkpt lat="47.78463" lon="6.64923">
        <ele>512.4</ele>
        <time>2026-08-23T12:38:09.000Z</time>
      </trkpt>
      <trkpt lat="47.7846" lon="6.64927">
        <ele>512.6</ele>
        <time>2026-08-23T12:38:11.000Z</time>
      </trkpt>
      <trkpt lat="47.78457" lon="6.6493">
        <ele>512.8</ele>
        <time>2026-08-23T12:38:13.000Z</time>
      </trkpt>
      <trkpt lat="47.78455" lon="6.64933">
        <ele>513.2</ele>
        <time>2026-08-23T12:38:15.000Z</time>
      </trkpt>
      <trkpt lat="47.78453" lon="6.64936">
        <ele>513.4</ele>
        <time>2026-08-23T12:38:17.000Z</time>
      </trkpt>
      <trkpt lat="47.78452" lon="6.64938">
        <ele>513.8</ele>
        <time>2026-08-23T12:38:19.000Z</time>
      </trkpt>
      <trkpt lat="47.7845" lon="6.6494">
        <ele>514.2</ele>
        <time>2026-08-23T12:38:21.000Z</time>
      </trkpt>
      <trkpt lat="47.78448" lon="6.64942">
        <ele>514.6</ele>
        <time>2026-08-23T12:38:23.000Z</time>
      </trkpt>
      <trkpt lat="47.78446" lon="6.64945">
        <ele>514.8</ele>
        <time>2026-08-23T12:38:25.000Z</time>
      </trkpt>
      <trkpt lat="47.78443" lon="6.64948">
        <ele>515.2</ele>
        <time>2026-08-23T12:38:27.000Z</time>
      </trkpt>
      <trkpt lat="47.78439" lon="6.64952">
        <ele>515.6</ele>
        <time>2026-08-23T12:38:29.000Z</time>
      </trkpt>
      <trkpt lat="47.78436" lon="6.64955">
        <ele>516</ele>
        <time>2026-08-23T12:38:31.000Z</time>
      </trkpt>
      <trkpt lat="47.78433" lon="6.64957">
        <ele>516.2</ele>
        <time>2026-08-23T12:38:33.000Z</time>
      </trkpt>
      <trkpt lat="47.7843" lon="6.6496">
        <ele>516.6</ele>
        <time>2026-08-23T12:38:35.000Z</time>
      </trkpt>
      <trkpt lat="47.78427" lon="6.64963">
        <ele>516.8</ele>
        <time>2026-08-23T12:38:37.000Z</time>
      </trkpt>
      <trkpt lat="47.78424" lon="6.64966">
        <ele>517</ele>
        <time>2026-08-23T12:38:39.000Z</time>
      </trkpt>
      <trkpt lat="47.78421" lon="6.64968">
        <ele>517.4</ele>
        <time>2026-08-23T12:38:41.000Z</time>
      </trkpt>
      <trkpt lat="47.78419" lon="6.64971">
        <ele>517.6</ele>
        <time>2026-08-23T12:38:43.000Z</time>
      </trkpt>
      <trkpt lat="47.78416" lon="6.64973">
        <ele>518</ele>
        <time>2026-08-23T12:38:45.000Z</time>
      </trkpt>
      <trkpt lat="47.78413" lon="6.64975">
        <ele>518.2</ele>
        <time>2026-08-23T12:38:47.000Z</time>
      </trkpt>
      <trkpt lat="47.7841" lon="6.64978">
        <ele>518.6</ele>
        <time>2026-08-23T12:38:49.000Z</time>
      </trkpt>
      <trkpt lat="47.78407" lon="6.64981">
        <ele>518.8</ele>
        <time>2026-08-23T12:38:51.000Z</time>
      </trkpt>
      <trkpt lat="47.78405" lon="6.64983">
        <ele>519.2</ele>
        <time>2026-08-23T12:38:53.000Z</time>
      </trkpt>
      <trkpt lat="47.78403" lon="6.64986">
        <ele>519.6</ele>
        <time>2026-08-23T12:38:55.000Z</time>
      </trkpt>
      <trkpt lat="47.784" lon="6.64988">
        <ele>520</ele>
        <time>2026-08-23T12:38:57.000Z</time>
      </trkpt>
      <trkpt lat="47.78398" lon="6.6499">
        <ele>520.4</ele>
        <time>2026-08-23T12:38:59.000Z</time>
      </trkpt>
      <trkpt lat="47.78396" lon="6.64992">
        <ele>520.6</ele>
        <time>2026-08-23T12:39:01.000Z</time>
      </trkpt>
      <trkpt lat="47.78394" lon="6.64994">
        <ele>520.8</ele>
        <time>2026-08-23T12:39:03.000Z</time>
      </trkpt>
      <trkpt lat="47.78392" lon="6.64997">
        <ele>521.2</ele>
        <time>2026-08-23T12:39:05.000Z</time>
      </trkpt>
      <trkpt lat="47.78389" lon="6.65001">
        <ele>521.4</ele>
        <time>2026-08-23T12:39:07.000Z</time>
      </trkpt>
      <trkpt lat="47.78387" lon="6.65005">
        <ele>521.8</ele>
        <time>2026-08-23T12:39:09.000Z</time>
      </trkpt>
      <trkpt lat="47.78385" lon="6.65009">
        <ele>522</ele>
        <time>2026-08-23T12:39:11.000Z</time>
      </trkpt>
      <trkpt lat="47.78384" lon="6.65014">
        <ele>522.4</ele>
        <time>2026-08-23T12:39:13.000Z</time>
      </trkpt>
      <trkpt lat="47.78382" lon="6.65019">
        <ele>522.8</ele>
        <time>2026-08-23T12:39:15.000Z</time>
      </trkpt>
      <trkpt lat="47.78382" lon="6.65024">
        <ele>523</ele>
        <time>2026-08-23T12:39:18.000Z</time>
      </trkpt>
      <trkpt lat="47.78381" lon="6.65029">
        <ele>523.4</ele>
        <time>2026-08-23T12:39:20.000Z</time>
      </trkpt>
      <trkpt lat="47.78381" lon="6.65035">
        <ele>523.8</ele>
        <time>2026-08-23T12:39:22.000Z</time>
      </trkpt>
      <trkpt lat="47.7838" lon="6.65041">
        <ele>524.2</ele>
        <time>2026-08-23T12:39:24.000Z</time>
      </trkpt>
      <trkpt lat="47.7838" lon="6.65047">
        <ele>524.6</ele>
        <time>2026-08-23T12:39:26.000Z</time>
      </trkpt>
      <trkpt lat="47.7838" lon="6.65052">
        <ele>524.8</ele>
        <time>2026-08-23T12:39:28.000Z</time>
      </trkpt>
      <trkpt lat="47.7838" lon="6.65057">
        <ele>525.2</ele>
        <time>2026-08-23T12:39:30.000Z</time>
      </trkpt>
      <trkpt lat="47.7838" lon="6.65061">
        <ele>525.6</ele>
        <time>2026-08-23T12:39:32.000Z</time>
      </trkpt>
      <trkpt lat="47.7838" lon="6.65066">
        <ele>526</ele>
        <time>2026-08-23T12:39:34.000Z</time>
      </trkpt>
      <trkpt lat="47.78379" lon="6.65072">
        <ele>526.4</ele>
        <time>2026-08-23T12:39:36.000Z</time>
      </trkpt>
      <trkpt lat="47.78378" lon="6.65076">
        <ele>526.8</ele>
        <time>2026-08-23T12:39:38.000Z</time>
      </trkpt>
      <trkpt lat="47.78378" lon="6.65081">
        <ele>527</ele>
        <time>2026-08-23T12:39:40.000Z</time>
      </trkpt>
      <trkpt lat="47.78377" lon="6.65086">
        <ele>527.4</ele>
        <time>2026-08-23T12:39:42.000Z</time>
      </trkpt>
      <trkpt lat="47.78377" lon="6.65091">
        <ele>527.6</ele>
        <time>2026-08-23T12:39:44.000Z</time>
      </trkpt>
      <trkpt lat="47.78376" lon="6.65096">
        <ele>528</ele>
        <time>2026-08-23T12:39:46.000Z</time>
      </trkpt>
      <trkpt lat="47.78376" lon="6.65101">
        <ele>528.2</ele>
        <time>2026-08-23T12:39:48.000Z</time>
      </trkpt>
      <trkpt lat="47.78376" lon="6.65106">
        <ele>528.6</ele>
        <time>2026-08-23T12:39:50.000Z</time>
      </trkpt>
      <trkpt lat="47.78376" lon="6.65111">
        <ele>528.8</ele>
        <time>2026-08-23T12:39:52.000Z</time>
      </trkpt>
      <trkpt lat="47.78376" lon="6.65117">
        <ele>529.2</ele>
        <time>2026-08-23T12:39:54.000Z</time>
      </trkpt>
      <trkpt lat="47.78376" lon="6.65122">
        <ele>529.6</ele>
        <time>2026-08-23T12:39:56.000Z</time>
      </trkpt>
      <trkpt lat="47.78376" lon="6.65127">
        <ele>529.8</ele>
        <time>2026-08-23T12:39:58.000Z</time>
      </trkpt>
      <trkpt lat="47.78376" lon="6.65132">
        <ele>530.2</ele>
        <time>2026-08-23T12:40:00.000Z</time>
      </trkpt>
      <trkpt lat="47.78375" lon="6.65138">
        <ele>530.6</ele>
        <time>2026-08-23T12:40:02.000Z</time>
      </trkpt>
      <trkpt lat="47.78375" lon="6.65143">
        <ele>530.8</ele>
        <time>2026-08-23T12:40:04.000Z</time>
      </trkpt>
      <trkpt lat="47.78375" lon="6.65148">
        <ele>531.2</ele>
        <time>2026-08-23T12:40:06.000Z</time>
      </trkpt>
      <trkpt lat="47.78375" lon="6.65153">
        <ele>531.6</ele>
        <time>2026-08-23T12:40:08.000Z</time>
      </trkpt>
      <trkpt lat="47.78375" lon="6.6516">
        <ele>532</ele>
        <time>2026-08-23T12:40:10.000Z</time>
      </trkpt>
      <trkpt lat="47.78375" lon="6.65165">
        <ele>532.2</ele>
        <time>2026-08-23T12:40:12.000Z</time>
      </trkpt>
      <trkpt lat="47.78375" lon="6.65171">
        <ele>532.6</ele>
        <time>2026-08-23T12:40:14.000Z</time>
      </trkpt>
      <trkpt lat="47.78375" lon="6.65176">
        <ele>532.8</ele>
        <time>2026-08-23T12:40:16.000Z</time>
      </trkpt>
      <trkpt lat="47.78375" lon="6.65182">
        <ele>533.2</ele>
        <time>2026-08-23T12:40:18.000Z</time>
      </trkpt>
      <trkpt lat="47.78375" lon="6.65187">
        <ele>533.4</ele>
        <time>2026-08-23T12:40:20.000Z</time>
      </trkpt>
      <trkpt lat="47.78376" lon="6.65193">
        <ele>533.8</ele>
        <time>2026-08-23T12:40:22.000Z</time>
      </trkpt>
      <trkpt lat="47.78376" lon="6.65199">
        <ele>534</ele>
        <time>2026-08-23T12:40:24.000Z</time>
      </trkpt>
      <trkpt lat="47.78377" lon="6.65205">
        <ele>534.4</ele>
        <time>2026-08-23T12:40:26.000Z</time>
      </trkpt>
      <trkpt lat="47.78378" lon="6.65211">
        <ele>534.6</ele>
        <time>2026-08-23T12:40:28.000Z</time>
      </trkpt>
      <trkpt lat="47.78378" lon="6.65217">
        <ele>535</ele>
        <time>2026-08-23T12:40:30.000Z</time>
      </trkpt>
      <trkpt lat="47.78379" lon="6.65223">
        <ele>535.2</ele>
        <time>2026-08-23T12:40:32.000Z</time>
      </trkpt>
      <trkpt lat="47.78379" lon="6.65229">
        <ele>535.4</ele>
        <time>2026-08-23T12:40:34.000Z</time>
      </trkpt>
      <trkpt lat="47.7838" lon="6.65235">
        <ele>535.6</ele>
        <time>2026-08-23T12:40:36.000Z</time>
      </trkpt>
      <trkpt lat="47.7838" lon="6.65242">
        <ele>535.8</ele>
        <time>2026-08-23T12:40:38.000Z</time>
      </trkpt>
      <trkpt lat="47.7838" lon="6.65248">
        <ele>536</ele>
        <time>2026-08-23T12:40:40.000Z</time>
      </trkpt>
      <trkpt lat="47.78381" lon="6.65255">
        <ele>536.2</ele>
        <time>2026-08-23T12:40:42.000Z</time>
      </trkpt>
      <trkpt lat="47.78381" lon="6.65261">
        <ele>536.4</ele>
        <time>2026-08-23T12:40:44.000Z</time>
      </trkpt>
      <trkpt lat="47.78382" lon="6.65268">
        <ele>536.6</ele>
        <time>2026-08-23T12:40:46.000Z</time>
      </trkpt>
      <trkpt lat="47.78382" lon="6.65274">
        <ele>537</ele>
        <time>2026-08-23T12:40:48.000Z</time>
      </trkpt>
      <trkpt lat="47.78382" lon="6.6528">
        <ele>537.2</ele>
        <time>2026-08-23T12:40:50.000Z</time>
      </trkpt>
      <trkpt lat="47.78382" lon="6.65286">
        <ele>537.6</ele>
        <time>2026-08-23T12:40:53.000Z</time>
      </trkpt>
      <trkpt lat="47.78381" lon="6.65292">
        <ele>537.8</ele>
        <time>2026-08-23T12:40:55.000Z</time>
      </trkpt>
      <trkpt lat="47.7838" lon="6.65298">
        <ele>538</ele>
        <time>2026-08-23T12:40:57.000Z</time>
      </trkpt>
      <trkpt lat="47.78379" lon="6.65304">
        <ele>538.2</ele>
        <time>2026-08-23T12:40:59.000Z</time>
      </trkpt>
      <trkpt lat="47.78378" lon="6.6531">
        <ele>538.4</ele>
        <time>2026-08-23T12:41:01.000Z</time>
      </trkpt>
      <trkpt lat="47.78377" lon="6.65315">
        <ele>538.6</ele>
        <time>2026-08-23T12:41:03.000Z</time>
      </trkpt>
      <trkpt lat="47.78375" lon="6.65321">
        <ele>538.6</ele>
        <time>2026-08-23T12:41:05.000Z</time>
      </trkpt>
      <trkpt lat="47.78373" lon="6.65326">
        <ele>538.8</ele>
        <time>2026-08-23T12:41:07.000Z</time>
      </trkpt>
      <trkpt lat="47.7837" lon="6.65332">
        <ele>539</ele>
        <time>2026-08-23T12:41:09.000Z</time>
      </trkpt>
      <trkpt lat="47.78368" lon="6.65337">
        <ele>539.2</ele>
        <time>2026-08-23T12:41:11.000Z</time>
      </trkpt>
      <trkpt lat="47.78366" lon="6.65342">
        <ele>539.4</ele>
        <time>2026-08-23T12:41:13.000Z</time>
      </trkpt>
      <trkpt lat="47.78364" lon="6.65346">
        <ele>539.8</ele>
        <time>2026-08-23T12:41:15.000Z</time>
      </trkpt>
      <trkpt lat="47.78362" lon="6.65351">
        <ele>540</ele>
        <time>2026-08-23T12:41:17.000Z</time>
      </trkpt>
      <trkpt lat="47.7836" lon="6.65355">
        <ele>540.4</ele>
        <time>2026-08-23T12:41:19.000Z</time>
      </trkpt>
      <trkpt lat="47.78357" lon="6.65359">
        <ele>540.6</ele>
        <time>2026-08-23T12:41:21.000Z</time>
      </trkpt>
      <trkpt lat="47.78355" lon="6.65364">
        <ele>541</ele>
        <time>2026-08-23T12:41:23.000Z</time>
      </trkpt>
      <trkpt lat="47.78352" lon="6.65367">
        <ele>541.2</ele>
        <time>2026-08-23T12:41:25.000Z</time>
      </trkpt>
      <trkpt lat="47.78349" lon="6.65371">
        <ele>541.6</ele>
        <time>2026-08-23T12:41:27.000Z</time>
      </trkpt>
      <trkpt lat="47.78346" lon="6.65374">
        <ele>541.8</ele>
        <time>2026-08-23T12:41:29.000Z</time>
      </trkpt>
      <trkpt lat="47.78343" lon="6.65377">
        <ele>542.2</ele>
        <time>2026-08-23T12:41:31.000Z</time>
      </trkpt>
      <trkpt lat="47.7834" lon="6.65379">
        <ele>542.6</ele>
        <time>2026-08-23T12:41:33.000Z</time>
      </trkpt>
      <trkpt lat="47.78338" lon="6.65382">
        <ele>543</ele>
        <time>2026-08-23T12:41:35.000Z</time>
      </trkpt>
      <trkpt lat="47.78335" lon="6.65384">
        <ele>543.4</ele>
        <time>2026-08-23T12:41:37.000Z</time>
      </trkpt>
      <trkpt lat="47.78332" lon="6.65387">
        <ele>543.8</ele>
        <time>2026-08-23T12:41:39.000Z</time>
      </trkpt>
      <trkpt lat="47.7833" lon="6.65389">
        <ele>544.2</ele>
        <time>2026-08-23T12:41:41.000Z</time>
      </trkpt>
      <trkpt lat="47.78327" lon="6.65391">
        <ele>544.4</ele>
        <time>2026-08-23T12:41:43.000Z</time>
      </trkpt>
      <trkpt lat="47.78324" lon="6.65394">
        <ele>544.8</ele>
        <time>2026-08-23T12:41:45.000Z</time>
      </trkpt>
      <trkpt lat="47.78321" lon="6.65396">
        <ele>545.2</ele>
        <time>2026-08-23T12:41:47.000Z</time>
      </trkpt>
      <trkpt lat="47.78317" lon="6.65399">
        <ele>545.6</ele>
        <time>2026-08-23T12:41:49.000Z</time>
      </trkpt>
      <trkpt lat="47.78314" lon="6.65402">
        <ele>546</ele>
        <time>2026-08-23T12:41:51.000Z</time>
      </trkpt>
      <trkpt lat="47.78311" lon="6.65404">
        <ele>546.4</ele>
        <time>2026-08-23T12:41:53.000Z</time>
      </trkpt>
      <trkpt lat="47.78309" lon="6.65407">
        <ele>546.8</ele>
        <time>2026-08-23T12:41:55.000Z</time>
      </trkpt>
      <trkpt lat="47.78306" lon="6.65409">
        <ele>547.2</ele>
        <time>2026-08-23T12:41:57.000Z</time>
      </trkpt>
      <trkpt lat="47.78304" lon="6.65412">
        <ele>547.4</ele>
        <time>2026-08-23T12:41:59.000Z</time>
      </trkpt>
      <trkpt lat="47.78301" lon="6.65414">
        <ele>547.8</ele>
        <time>2026-08-23T12:42:01.000Z</time>
      </trkpt>
      <trkpt lat="47.78298" lon="6.65416">
        <ele>548.2</ele>
        <time>2026-08-23T12:42:03.000Z</time>
      </trkpt>
      <trkpt lat="47.78296" lon="6.65419">
        <ele>548.6</ele>
        <time>2026-08-23T12:42:05.000Z</time>
      </trkpt>
      <trkpt lat="47.78293" lon="6.65421">
        <ele>549</ele>
        <time>2026-08-23T12:42:07.000Z</time>
      </trkpt>
      <trkpt lat="47.78291" lon="6.65423">
        <ele>549.4</ele>
        <time>2026-08-23T12:42:09.000Z</time>
      </trkpt>
      <trkpt lat="47.78288" lon="6.65426">
        <ele>549.8</ele>
        <time>2026-08-23T12:42:11.000Z</time>
      </trkpt>
      <trkpt lat="47.78286" lon="6.65429">
        <ele>550</ele>
        <time>2026-08-23T12:42:13.000Z</time>
      </trkpt>
      <trkpt lat="47.78284" lon="6.65431">
        <ele>550.4</ele>
        <time>2026-08-23T12:42:15.000Z</time>
      </trkpt>
      <trkpt lat="47.78281" lon="6.65434">
        <ele>550.8</ele>
        <time>2026-08-23T12:42:17.000Z</time>
      </trkpt>
      <trkpt lat="47.78279" lon="6.65436">
        <ele>551</ele>
        <time>2026-08-23T12:42:19.000Z</time>
      </trkpt>
      <trkpt lat="47.78276" lon="6.65439">
        <ele>551.4</ele>
        <time>2026-08-23T12:42:21.000Z</time>
      </trkpt>
      <trkpt lat="47.78274" lon="6.65441">
        <ele>551.8</ele>
        <time>2026-08-23T12:42:23.000Z</time>
      </trkpt>
      <trkpt lat="47.78272" lon="6.65444">
        <ele>552.2</ele>
        <time>2026-08-23T12:42:25.000Z</time>
      </trkpt>
      <trkpt lat="47.78269" lon="6.65446">
        <ele>552.6</ele>
        <time>2026-08-23T12:42:27.000Z</time>
      </trkpt>
      <trkpt lat="47.78267" lon="6.65449">
        <ele>552.8</ele>
        <time>2026-08-23T12:42:29.000Z</time>
      </trkpt>
      <trkpt lat="47.78264" lon="6.65451">
        <ele>553.2</ele>
        <time>2026-08-23T12:42:31.000Z</time>
      </trkpt>
      <trkpt lat="47.78262" lon="6.65454">
        <ele>553.6</ele>
        <time>2026-08-23T12:42:33.000Z</time>
      </trkpt>
      <trkpt lat="47.7826" lon="6.65456">
        <ele>554</ele>
        <time>2026-08-23T12:42:35.000Z</time>
      </trkpt>
      <trkpt lat="47.78257" lon="6.65459">
        <ele>554.4</ele>
        <time>2026-08-23T12:42:37.000Z</time>
      </trkpt>
      <trkpt lat="47.78255" lon="6.65461">
        <ele>554.8</ele>
        <time>2026-08-23T12:42:39.000Z</time>
      </trkpt>
      <trkpt lat="47.78253" lon="6.65463">
        <ele>555.2</ele>
        <time>2026-08-23T12:42:42.000Z</time>
      </trkpt>
      <trkpt lat="47.7825" lon="6.65466">
        <ele>555.4</ele>
        <time>2026-08-23T12:42:44.000Z</time>
      </trkpt>
      <trkpt lat="47.78248" lon="6.65468">
        <ele>555.8</ele>
        <time>2026-08-23T12:42:46.000Z</time>
      </trkpt>
      <trkpt lat="47.78246" lon="6.65471">
        <ele>556.2</ele>
        <time>2026-08-23T12:42:48.000Z</time>
      </trkpt>
      <trkpt lat="47.78243" lon="6.65473">
        <ele>556.6</ele>
        <time>2026-08-23T12:42:50.000Z</time>
      </trkpt>
      <trkpt lat="47.78241" lon="6.65476">
        <ele>556.8</ele>
        <time>2026-08-23T12:42:52.000Z</time>
      </trkpt>
      <trkpt lat="47.78238" lon="6.65478">
        <ele>557.2</ele>
        <time>2026-08-23T12:42:54.000Z</time>
      </trkpt>
      <trkpt lat="47.78236" lon="6.65481">
        <ele>557.6</ele>
        <time>2026-08-23T12:42:56.000Z</time>
      </trkpt>
      <trkpt lat="47.78234" lon="6.65484">
        <ele>558</ele>
        <time>2026-08-23T12:42:58.000Z</time>
      </trkpt>
      <trkpt lat="47.78231" lon="6.65486">
        <ele>558.2</ele>
        <time>2026-08-23T12:43:00.000Z</time>
      </trkpt>
      <trkpt lat="47.78228" lon="6.65489">
        <ele>558.6</ele>
        <time>2026-08-23T12:43:02.000Z</time>
      </trkpt>
      <trkpt lat="47.78226" lon="6.65491">
        <ele>559</ele>
        <time>2026-08-23T12:43:04.000Z</time>
      </trkpt>
      <trkpt lat="47.78224" lon="6.65493">
        <ele>559.4</ele>
        <time>2026-08-23T12:43:06.000Z</time>
      </trkpt>
      <trkpt lat="47.78221" lon="6.65496">
        <ele>559.8</ele>
        <time>2026-08-23T12:43:08.000Z</time>
      </trkpt>
      <trkpt lat="47.78219" lon="6.65498">
        <ele>560</ele>
        <time>2026-08-23T12:43:10.000Z</time>
      </trkpt>
      <trkpt lat="47.78217" lon="6.65501">
        <ele>560.4</ele>
        <time>2026-08-23T12:43:12.000Z</time>
      </trkpt>
      <trkpt lat="47.78214" lon="6.65503">
        <ele>560.8</ele>
        <time>2026-08-23T12:43:14.000Z</time>
      </trkpt>
      <trkpt lat="47.78212" lon="6.65506">
        <ele>561</ele>
        <time>2026-08-23T12:43:16.000Z</time>
      </trkpt>
      <trkpt lat="47.78209" lon="6.65508">
        <ele>561.4</ele>
        <time>2026-08-23T12:43:18.000Z</time>
      </trkpt>
      <trkpt lat="47.78207" lon="6.65511">
        <ele>561.6</ele>
        <time>2026-08-23T12:43:20.000Z</time>
      </trkpt>
      <trkpt lat="47.78204" lon="6.65513">
        <ele>562</ele>
        <time>2026-08-23T12:43:22.000Z</time>
      </trkpt>
      <trkpt lat="47.78202" lon="6.65515">
        <ele>562.4</ele>
        <time>2026-08-23T12:43:24.000Z</time>
      </trkpt>
      <trkpt lat="47.78199" lon="6.65517">
        <ele>562.8</ele>
        <time>2026-08-23T12:43:26.000Z</time>
      </trkpt>
      <trkpt lat="47.78196" lon="6.6552">
        <ele>563</ele>
        <time>2026-08-23T12:43:28.000Z</time>
      </trkpt>
      <trkpt lat="47.78192" lon="6.65522">
        <ele>563.6</ele>
        <time>2026-08-23T12:43:30.000Z</time>
      </trkpt>
      <trkpt lat="47.7819" lon="6.65525">
        <ele>564</ele>
        <time>2026-08-23T12:43:32.000Z</time>
      </trkpt>
      <trkpt lat="47.78187" lon="6.65527">
        <ele>564.4</ele>
        <time>2026-08-23T12:43:34.000Z</time>
      </trkpt>
      <trkpt lat="47.78185" lon="6.65528">
        <ele>564.8</ele>
        <time>2026-08-23T12:43:36.000Z</time>
      </trkpt>
      <trkpt lat="47.78182" lon="6.65529">
        <ele>565.2</ele>
        <time>2026-08-23T12:43:38.000Z</time>
      </trkpt>
      <trkpt lat="47.78179" lon="6.6553">
        <ele>565.4</ele>
        <time>2026-08-23T12:43:40.000Z</time>
      </trkpt>
      <trkpt lat="47.78176" lon="6.65532">
        <ele>565.8</ele>
        <time>2026-08-23T12:43:42.000Z</time>
      </trkpt>
      <trkpt lat="47.78173" lon="6.65533">
        <ele>566</ele>
        <time>2026-08-23T12:43:44.000Z</time>
      </trkpt>
      <trkpt lat="47.78171" lon="6.65535">
        <ele>566.4</ele>
        <time>2026-08-23T12:43:46.000Z</time>
      </trkpt>
      <trkpt lat="47.78168" lon="6.65536">
        <ele>566.8</ele>
        <time>2026-08-23T12:43:48.000Z</time>
      </trkpt>
      <trkpt lat="47.78165" lon="6.65537">
        <ele>567.2</ele>
        <time>2026-08-23T12:43:50.000Z</time>
      </trkpt>
      <trkpt lat="47.78162" lon="6.65538">
        <ele>567.4</ele>
        <time>2026-08-23T12:43:52.000Z</time>
      </trkpt>
      <trkpt lat="47.78159" lon="6.65539">
        <ele>567.8</ele>
        <time>2026-08-23T12:43:54.000Z</time>
      </trkpt>
      <trkpt lat="47.78156" lon="6.6554">
        <ele>568.2</ele>
        <time>2026-08-23T12:43:56.000Z</time>
      </trkpt>
      <trkpt lat="47.78153" lon="6.65541">
        <ele>568.6</ele>
        <time>2026-08-23T12:43:58.000Z</time>
      </trkpt>
      <trkpt lat="47.7815" lon="6.65542">
        <ele>569</ele>
        <time>2026-08-23T12:44:00.000Z</time>
      </trkpt>
      <trkpt lat="47.78147" lon="6.65543">
        <ele>569.4</ele>
        <time>2026-08-23T12:44:02.000Z</time>
      </trkpt>
      <trkpt lat="47.78145" lon="6.65545">
        <ele>569.8</ele>
        <time>2026-08-23T12:44:04.000Z</time>
      </trkpt>
      <trkpt lat="47.78142" lon="6.65546">
        <ele>570.2</ele>
        <time>2026-08-23T12:44:06.000Z</time>
      </trkpt>
      <trkpt lat="47.78139" lon="6.65547">
        <ele>570.6</ele>
        <time>2026-08-23T12:44:08.000Z</time>
      </trkpt>
      <trkpt lat="47.78136" lon="6.65549">
        <ele>571</ele>
        <time>2026-08-23T12:44:10.000Z</time>
      </trkpt>
      <trkpt lat="47.78133" lon="6.65551">
        <ele>571.4</ele>
        <time>2026-08-23T12:44:12.000Z</time>
      </trkpt>
      <trkpt lat="47.7813" lon="6.65552">
        <ele>571.8</ele>
        <time>2026-08-23T12:44:14.000Z</time>
      </trkpt>
      <trkpt lat="47.78127" lon="6.65554">
        <ele>572</ele>
        <time>2026-08-23T12:44:16.000Z</time>
      </trkpt>
      <trkpt lat="47.78124" lon="6.65556">
        <ele>572.4</ele>
        <time>2026-08-23T12:44:18.000Z</time>
      </trkpt>
      <trkpt lat="47.78121" lon="6.65558">
        <ele>572.8</ele>
        <time>2026-08-23T12:44:20.000Z</time>
      </trkpt>
      <trkpt lat="47.78119" lon="6.65561">
        <ele>573</ele>
        <time>2026-08-23T12:44:22.000Z</time>
      </trkpt>
      <trkpt lat="47.78116" lon="6.65563">
        <ele>573.4</ele>
        <time>2026-08-23T12:44:25.000Z</time>
      </trkpt>
      <trkpt lat="47.78113" lon="6.65566">
        <ele>573.6</ele>
        <time>2026-08-23T12:44:27.000Z</time>
      </trkpt>
      <trkpt lat="47.78111" lon="6.6557">
        <ele>573.8</ele>
        <time>2026-08-23T12:44:29.000Z</time>
      </trkpt>
      <trkpt lat="47.78109" lon="6.65574">
        <ele>574.2</ele>
        <time>2026-08-23T12:44:31.000Z</time>
      </trkpt>
      <trkpt lat="47.78107" lon="6.65579">
        <ele>574.4</ele>
        <time>2026-08-23T12:44:33.000Z</time>
      </trkpt>
      <trkpt lat="47.78105" lon="6.65584">
        <ele>574.6</ele>
        <time>2026-08-23T12:44:35.000Z</time>
      </trkpt>
      <trkpt lat="47.78103" lon="6.65588">
        <ele>574.8</ele>
        <time>2026-08-23T12:44:37.000Z</time>
      </trkpt>
      <trkpt lat="47.78102" lon="6.65593">
        <ele>575.2</ele>
        <time>2026-08-23T12:44:39.000Z</time>
      </trkpt>
      <trkpt lat="47.781" lon="6.65598">
        <ele>575.6</ele>
        <time>2026-08-23T12:44:41.000Z</time>
      </trkpt>
      <trkpt lat="47.78099" lon="6.65602">
        <ele>575.8</ele>
        <time>2026-08-23T12:44:43.000Z</time>
      </trkpt>
      <trkpt lat="47.78098" lon="6.65606">
        <ele>576</ele>
        <time>2026-08-23T12:44:45.000Z</time>
      </trkpt>
      <trkpt lat="47.78097" lon="6.6561">
        <ele>576.2</ele>
        <time>2026-08-23T12:44:47.000Z</time>
      </trkpt>
      <trkpt lat="47.78096" lon="6.65615">
        <ele>576.4</ele>
        <time>2026-08-23T12:44:49.000Z</time>
      </trkpt>
      <trkpt lat="47.78095" lon="6.65621">
        <ele>576.4</ele>
        <time>2026-08-23T12:44:51.000Z</time>
      </trkpt>
      <trkpt lat="47.78094" lon="6.65627">
        <ele>576.6</ele>
        <time>2026-08-23T12:44:53.000Z</time>
      </trkpt>
      <trkpt lat="47.78093" lon="6.65633">
        <ele>576.6</ele>
        <time>2026-08-23T12:44:55.000Z</time>
      </trkpt>
      <trkpt lat="47.78092" lon="6.65639">
        <ele>576.8</ele>
        <time>2026-08-23T12:44:57.000Z</time>
      </trkpt>
      <trkpt lat="47.78091" lon="6.65646">
        <ele>577</ele>
        <time>2026-08-23T12:44:59.000Z</time>
      </trkpt>
      <trkpt lat="47.78091" lon="6.65652">
        <ele>577</ele>
        <time>2026-08-23T12:45:01.000Z</time>
      </trkpt>
      <trkpt lat="47.78091" lon="6.65658">
        <ele>577.2</ele>
        <time>2026-08-23T12:45:03.000Z</time>
      </trkpt>
      <trkpt lat="47.78092" lon="6.65663">
        <ele>577.2</ele>
        <time>2026-08-23T12:45:05.000Z</time>
      </trkpt>
      <trkpt lat="47.78093" lon="6.65669">
        <ele>577.4</ele>
        <time>2026-08-23T12:45:07.000Z</time>
      </trkpt>
      <trkpt lat="47.78094" lon="6.65676">
        <ele>577.4</ele>
        <time>2026-08-23T12:45:09.000Z</time>
      </trkpt>
      <trkpt lat="47.78095" lon="6.65682">
        <ele>577.6</ele>
        <time>2026-08-23T12:45:11.000Z</time>
      </trkpt>
      <trkpt lat="47.78097" lon="6.65688">
        <ele>577.8</ele>
        <time>2026-08-23T12:45:13.000Z</time>
      </trkpt>
      <trkpt lat="47.78098" lon="6.65693">
        <ele>578</ele>
        <time>2026-08-23T12:45:15.000Z</time>
      </trkpt>
      <trkpt lat="47.781" lon="6.65699">
        <ele>578.2</ele>
        <time>2026-08-23T12:45:17.000Z</time>
      </trkpt>
      <trkpt lat="47.78102" lon="6.65705">
        <ele>578.4</ele>
        <time>2026-08-23T12:45:19.000Z</time>
      </trkpt>
      <trkpt lat="47.78105" lon="6.65711">
        <ele>578.6</ele>
        <time>2026-08-23T12:45:21.000Z</time>
      </trkpt>
      <trkpt lat="47.78108" lon="6.65717">
        <ele>578.6</ele>
        <time>2026-08-23T12:45:23.000Z</time>
      </trkpt>
      <trkpt lat="47.78112" lon="6.65724">
        <ele>578.6</ele>
        <time>2026-08-23T12:45:25.000Z</time>
      </trkpt>
      <trkpt lat="47.78116" lon="6.65728">
        <ele>578.8</ele>
        <time>2026-08-23T12:45:27.000Z</time>
      </trkpt>
      <trkpt lat="47.7812" lon="6.65731">
        <ele>579</ele>
        <time>2026-08-23T12:45:29.000Z</time>
      </trkpt>
      <trkpt lat="47.78124" lon="6.65734">
        <ele>579.2</ele>
        <time>2026-08-23T12:45:31.000Z</time>
      </trkpt>
      <trkpt lat="47.78127" lon="6.65737">
        <ele>579.4</ele>
        <time>2026-08-23T12:45:33.000Z</time>
      </trkpt>
      <trkpt lat="47.78131" lon="6.65739">
        <ele>579.6</ele>
        <time>2026-08-23T12:45:35.000Z</time>
      </trkpt>
      <trkpt lat="47.78136" lon="6.6574">
        <ele>579.8</ele>
        <time>2026-08-23T12:45:37.000Z</time>
      </trkpt>
      <trkpt lat="47.7814" lon="6.65742">
        <ele>579.8</ele>
        <time>2026-08-23T12:45:39.000Z</time>
      </trkpt>
      <trkpt lat="47.78145" lon="6.65743">
        <ele>579.8</ele>
        <time>2026-08-23T12:45:41.000Z</time>
      </trkpt>
      <trkpt lat="47.7815" lon="6.65746">
        <ele>579.8</ele>
        <time>2026-08-23T12:45:43.000Z</time>
      </trkpt>
      <trkpt lat="47.78155" lon="6.65748">
        <ele>579.8</ele>
        <time>2026-08-23T12:45:45.000Z</time>
      </trkpt>
      <trkpt lat="47.78159" lon="6.65751">
        <ele>579.8</ele>
        <time>2026-08-23T12:45:47.000Z</time>
      </trkpt>
      <trkpt lat="47.78164" lon="6.65753">
        <ele>580</ele>
        <time>2026-08-23T12:45:49.000Z</time>
      </trkpt>
      <trkpt lat="47.7817" lon="6.65756">
        <ele>580</ele>
        <time>2026-08-23T12:45:51.000Z</time>
      </trkpt>
      <trkpt lat="47.78175" lon="6.6576">
        <ele>580</ele>
        <time>2026-08-23T12:45:53.000Z</time>
      </trkpt>
      <trkpt lat="47.78181" lon="6.65764">
        <ele>580.2</ele>
        <time>2026-08-23T12:45:55.000Z</time>
      </trkpt>
      <trkpt lat="47.78186" lon="6.65767">
        <ele>580.4</ele>
        <time>2026-08-23T12:45:57.000Z</time>
      </trkpt>
      <trkpt lat="47.78191" lon="6.65771">
        <ele>580.6</ele>
        <time>2026-08-23T12:45:59.000Z</time>
      </trkpt>
      <trkpt lat="47.78196" lon="6.65774">
        <ele>581</ele>
        <time>2026-08-23T12:46:01.000Z</time>
      </trkpt>
      <trkpt lat="47.782" lon="6.65778">
        <ele>581.2</ele>
        <time>2026-08-23T12:46:03.000Z</time>
      </trkpt>
      <trkpt lat="47.78205" lon="6.65782">
        <ele>581.4</ele>
        <time>2026-08-23T12:46:05.000Z</time>
      </trkpt>
      <trkpt lat="47.78209" lon="6.65786">
        <ele>581.6</ele>
        <time>2026-08-23T12:46:07.000Z</time>
      </trkpt>
      <trkpt lat="47.78213" lon="6.6579">
        <ele>582</ele>
        <time>2026-08-23T12:46:09.000Z</time>
      </trkpt>
      <trkpt lat="47.78217" lon="6.65795">
        <ele>582.4</ele>
        <time>2026-08-23T12:46:11.000Z</time>
      </trkpt>
      <trkpt lat="47.78221" lon="6.658">
        <ele>582.8</ele>
        <time>2026-08-23T12:46:13.000Z</time>
      </trkpt>
      <trkpt lat="47.78225" lon="6.65805">
        <ele>583.2</ele>
        <time>2026-08-23T12:46:15.000Z</time>
      </trkpt>
      <trkpt lat="47.78228" lon="6.6581">
        <ele>583.6</ele>
        <time>2026-08-23T12:46:17.000Z</time>
      </trkpt>
      <trkpt lat="47.78231" lon="6.65816">
        <ele>584</ele>
        <time>2026-08-23T12:46:19.000Z</time>
      </trkpt>
      <trkpt lat="47.78235" lon="6.65821">
        <ele>584.4</ele>
        <time>2026-08-23T12:46:21.000Z</time>
      </trkpt>
      <trkpt lat="47.78238" lon="6.65826">
        <ele>584.8</ele>
        <time>2026-08-23T12:46:23.000Z</time>
      </trkpt>
      <trkpt lat="47.78241" lon="6.65831">
        <ele>585</ele>
        <time>2026-08-23T12:46:25.000Z</time>
      </trkpt>
      <trkpt lat="47.78244" lon="6.65836">
        <ele>585.4</ele>
        <time>2026-08-23T12:46:27.000Z</time>
      </trkpt>
      <trkpt lat="47.78247" lon="6.65841">
        <ele>585.8</ele>
        <time>2026-08-23T12:46:30.000Z</time>
      </trkpt>
      <trkpt lat="47.78249" lon="6.65846">
        <ele>586</ele>
        <time>2026-08-23T12:46:32.000Z</time>
      </trkpt>
      <trkpt lat="47.78253" lon="6.65851">
        <ele>586.2</ele>
        <time>2026-08-23T12:46:34.000Z</time>
      </trkpt>
      <trkpt lat="47.78256" lon="6.65856">
        <ele>586.6</ele>
        <time>2026-08-23T12:46:36.000Z</time>
      </trkpt>
      <trkpt lat="47.78259" lon="6.65861">
        <ele>586.8</ele>
        <time>2026-08-23T12:46:38.000Z</time>
      </trkpt>
      <trkpt lat="47.78263" lon="6.65866">
        <ele>587</ele>
        <time>2026-08-23T12:46:40.000Z</time>
      </trkpt>
      <trkpt lat="47.78265" lon="6.65872">
        <ele>587.2</ele>
        <time>2026-08-23T12:46:42.000Z</time>
      </trkpt>
      <trkpt lat="47.78268" lon="6.65877">
        <ele>587.6</ele>
        <time>2026-08-23T12:46:44.000Z</time>
      </trkpt>
      <trkpt lat="47.78271" lon="6.65883">
        <ele>587.8</ele>
        <time>2026-08-23T12:46:46.000Z</time>
      </trkpt>
      <trkpt lat="47.78274" lon="6.65889">
        <ele>588</ele>
        <time>2026-08-23T12:46:48.000Z</time>
      </trkpt>
      <trkpt lat="47.78276" lon="6.65896">
        <ele>588.2</ele>
        <time>2026-08-23T12:46:50.000Z</time>
      </trkpt>
      <trkpt lat="47.78278" lon="6.65902">
        <ele>588.6</ele>
        <time>2026-08-23T12:46:52.000Z</time>
      </trkpt>
      <trkpt lat="47.78281" lon="6.65908">
        <ele>589</ele>
        <time>2026-08-23T12:46:54.000Z</time>
      </trkpt>
      <trkpt lat="47.78283" lon="6.65915">
        <ele>589.2</ele>
        <time>2026-08-23T12:46:56.000Z</time>
      </trkpt>
      <trkpt lat="47.78285" lon="6.65921">
        <ele>589.6</ele>
        <time>2026-08-23T12:46:58.000Z</time>
      </trkpt>
      <trkpt lat="47.78286" lon="6.65928">
        <ele>589.8</ele>
        <time>2026-08-23T12:47:00.000Z</time>
      </trkpt>
      <trkpt lat="47.78286" lon="6.65935">
        <ele>590.2</ele>
        <time>2026-08-23T12:47:02.000Z</time>
      </trkpt>
      <trkpt lat="47.78287" lon="6.65942">
        <ele>590.4</ele>
        <time>2026-08-23T12:47:04.000Z</time>
      </trkpt>
      <trkpt lat="47.78288" lon="6.65949">
        <ele>590.8</ele>
        <time>2026-08-23T12:47:06.000Z</time>
      </trkpt>
      <trkpt lat="47.78288" lon="6.65958">
        <ele>591</ele>
        <time>2026-08-23T12:47:08.000Z</time>
      </trkpt>
      <trkpt lat="47.78288" lon="6.65967">
        <ele>591.4</ele>
        <time>2026-08-23T12:47:10.000Z</time>
      </trkpt>
      <trkpt lat="47.78288" lon="6.65974">
        <ele>591.6</ele>
        <time>2026-08-23T12:47:12.000Z</time>
      </trkpt>
      <trkpt lat="47.78288" lon="6.65981">
        <ele>592</ele>
        <time>2026-08-23T12:47:14.000Z</time>
      </trkpt>
      <trkpt lat="47.78287" lon="6.65988">
        <ele>592.4</ele>
        <time>2026-08-23T12:47:16.000Z</time>
      </trkpt>
      <trkpt lat="47.78288" lon="6.65994">
        <ele>592.8</ele>
        <time>2026-08-23T12:47:18.000Z</time>
      </trkpt>
      <trkpt lat="47.78288" lon="6.66">
        <ele>593.2</ele>
        <time>2026-08-23T12:47:20.000Z</time>
      </trkpt>
      <trkpt lat="47.78288" lon="6.66006">
        <ele>593.6</ele>
        <time>2026-08-23T12:47:22.000Z</time>
      </trkpt>
      <trkpt lat="47.78288" lon="6.66012">
        <ele>594</ele>
        <time>2026-08-23T12:47:24.000Z</time>
      </trkpt>
      <trkpt lat="47.78287" lon="6.66017">
        <ele>594.4</ele>
        <time>2026-08-23T12:47:26.000Z</time>
      </trkpt>
      <trkpt lat="47.78286" lon="6.66023">
        <ele>594.8</ele>
        <time>2026-08-23T12:47:28.000Z</time>
      </trkpt>
      <trkpt lat="47.78285" lon="6.66028">
        <ele>595.2</ele>
        <time>2026-08-23T12:47:30.000Z</time>
      </trkpt>
      <trkpt lat="47.78284" lon="6.66032">
        <ele>595.6</ele>
        <time>2026-08-23T12:47:32.000Z</time>
      </trkpt>
      <trkpt lat="47.78283" lon="6.66036">
        <ele>596</ele>
        <time>2026-08-23T12:47:34.000Z</time>
      </trkpt>
      <trkpt lat="47.78281" lon="6.6604">
        <ele>596.4</ele>
        <time>2026-08-23T12:47:36.000Z</time>
      </trkpt>
      <trkpt lat="47.78281" lon="6.66041">
        <ele>596.6</ele>
        <time>2026-08-23T12:47:38.000Z</time>
      </trkpt>
      <trkpt lat="47.78281" lon="6.66041">
        <ele>596.8</ele>
        <time>2026-08-23T12:47:40.000Z</time>
      </trkpt>
      <trkpt lat="47.78281" lon="6.66041">
        <ele>597</ele>
        <time>2026-08-23T12:47:42.000Z</time>
      </trkpt>
      <trkpt lat="47.78282" lon="6.6604">
        <ele>597</ele>
        <time>2026-08-23T12:47:44.000Z</time>
      </trkpt>
      <trkpt lat="47.78281" lon="6.66041">
        <ele>597</ele>
        <time>2026-08-23T12:47:46.000Z</time>
      </trkpt>
      <trkpt lat="47.78281" lon="6.66041">
        <ele>597</ele>
        <time>2026-08-23T12:47:48.000Z</time>
      </trkpt>
      <trkpt lat="47.78281" lon="6.66041">
        <ele>597</ele>
        <time>2026-08-23T12:47:50.000Z</time>
      </trkpt>
      <trkpt lat="47.78281" lon="6.66041">
        <ele>597</ele>
        <time>2026-08-23T12:47:52.000Z</time>
      </trkpt>
      <trkpt lat="47.78281" lon="6.66041">
        <ele>597</ele>
        <time>2026-08-23T12:47:54.000Z</time>
      </trkpt>
      <trkpt lat="47.78281" lon="6.66041">
        <ele>597</ele>
        <time>2026-08-23T12:47:56.000Z</time>
      </trkpt>
      <trkpt lat="47.78281" lon="6.66041">
        <ele>597</ele>
        <time>2026-08-23T12:47:58.000Z</time>
      </trkpt>
      <trkpt lat="47.78281" lon="6.66041">
        <ele>597</ele>
        <time>2026-08-23T12:48:00.000Z</time>
      </trkpt>
      <trkpt lat="47.78281" lon="6.66041">
        <ele>597</ele>
        <time>2026-08-23T12:48:02.000Z</time>
      </trkpt>
      <trkpt lat="47.78281" lon="6.66041">
        <ele>597</ele>
        <time>2026-08-23T12:48:04.000Z</time>
      </trkpt>
      <trkpt lat="47.78281" lon="6.66041">
        <ele>597</ele>
        <time>2026-08-23T12:48:06.000Z</time>
      </trkpt>
      <trkpt lat="47.78282" lon="6.66041">
        <ele>597</ele>
        <time>2026-08-23T12:48:08.000Z</time>
      </trkpt>
      <trkpt lat="47.78282" lon="6.66042">
        <ele>597</ele>
        <time>2026-08-23T12:48:10.000Z</time>
      </trkpt>
      <trkpt lat="47.78282" lon="6.66042">
        <ele>597</ele>
        <time>2026-08-23T12:48:12.000Z</time>
      </trkpt>
      <trkpt lat="47.78282" lon="6.66042">
        <ele>597</ele>
        <time>2026-08-23T12:48:15.000Z</time>
      </trkpt>
      <trkpt lat="47.78282" lon="6.66042">
        <ele>597</ele>
        <time>2026-08-23T12:48:17.000Z</time>
      </trkpt>
      <trkpt lat="47.78282" lon="6.66043">
        <ele>597</ele>
        <time>2026-08-23T12:48:19.000Z</time>
      </trkpt>
      <trkpt lat="47.78282" lon="6.66043">
        <ele>597</ele>
        <time>2026-08-23T12:48:21.000Z</time>
      </trkpt>
      <trkpt lat="47.78282" lon="6.66043">
        <ele>597</ele>
        <time>2026-08-23T12:48:23.000Z</time>
      </trkpt>
      <trkpt lat="47.78282" lon="6.66043">
        <ele>597</ele>
        <time>2026-08-23T12:48:25.000Z</time>
      </trkpt>
      <trkpt lat="47.78282" lon="6.66043">
        <ele>597</ele>
        <time>2026-08-23T12:48:27.000Z</time>
      </trkpt>
      <trkpt lat="47.78282" lon="6.66043">
        <ele>597.2</ele>
        <time>2026-08-23T12:48:29.000Z</time>
      </trkpt>
      <trkpt lat="47.78282" lon="6.66044">
        <ele>597.2</ele>
        <time>2026-08-23T12:48:31.000Z</time>
      </trkpt>
      <trkpt lat="47.78282" lon="6.66044">
        <ele>597.2</ele>
        <time>2026-08-23T12:48:33.000Z</time>
      </trkpt>
      <trkpt lat="47.78282" lon="6.66044">
        <ele>597.2</ele>
        <time>2026-08-23T12:48:35.000Z</time>
      </trkpt>
      <trkpt lat="47.78282" lon="6.66044">
        <ele>597.2</ele>
        <time>2026-08-23T12:48:37.000Z</time>
      </trkpt>
      <trkpt lat="47.78282" lon="6.66044">
        <ele>597.2</ele>
        <time>2026-08-23T12:48:39.000Z</time>
      </trkpt>
      <trkpt lat="47.78282" lon="6.66044">
        <ele>597.2</ele>
        <time>2026-08-23T12:48:41.000Z</time>
      </trkpt>
      <trkpt lat="47.78282" lon="6.66044">
        <ele>597.2</ele>
        <time>2026-08-23T12:48:43.000Z</time>
      </trkpt>
      <trkpt lat="47.78282" lon="6.66044">
        <ele>597.2</ele>
        <time>2026-08-23T12:48:45.000Z</time>
      </trkpt>
      <trkpt lat="47.78282" lon="6.66044">
        <ele>597.2</ele>
        <time>2026-08-23T12:48:47.000Z</time>
      </trkpt>
      <trkpt lat="47.78282" lon="6.66045">
        <ele>597.2</ele>
        <time>2026-08-23T12:48:49.000Z</time>
      </trkpt>
      <trkpt lat="47.78282" lon="6.66045">
        <ele>597.2</ele>
        <time>2026-08-23T12:48:51.000Z</time>
      </trkpt>
      <trkpt lat="47.78282" lon="6.66045">
        <ele>597.2</ele>
        <time>2026-08-23T12:48:53.000Z</time>
      </trkpt>
      <trkpt lat="47.78282" lon="6.66045">
        <ele>597.2</ele>
        <time>2026-08-23T12:48:55.000Z</time>
      </trkpt>
      <trkpt lat="47.78282" lon="6.66045">
        <ele>597.2</ele>
        <time>2026-08-23T12:48:57.000Z</time>
      </trkpt>
      <trkpt lat="47.78282" lon="6.66045">
        <ele>597.2</ele>
        <time>2026-08-23T12:48:59.000Z</time>
      </trkpt>
      <trkpt lat="47.78282" lon="6.66045">
        <ele>597.2</ele>
        <time>2026-08-23T12:49:01.000Z</time>
      </trkpt>
      <trkpt lat="47.78282" lon="6.66045">
        <ele>597.2</ele>
        <time>2026-08-23T12:49:03.000Z</time>
      </trkpt>
      <trkpt lat="47.78282" lon="6.66045">
        <ele>597.2</ele>
        <time>2026-08-23T12:49:05.000Z</time>
      </trkpt>
      <trkpt lat="47.78282" lon="6.66045">
        <ele>597.2</ele>
        <time>2026-08-23T12:49:07.000Z</time>
      </trkpt>
      <trkpt lat="47.78282" lon="6.66045">
        <ele>597.2</ele>
        <time>2026-08-23T12:49:09.000Z</time>
      </trkpt>
      <trkpt lat="47.78282" lon="6.66045">
        <ele>597.2</ele>
        <time>2026-08-23T12:49:11.000Z</time>
      </trkpt>
      <trkpt lat="47.78282" lon="6.66046">
        <ele>597.2</ele>
        <time>2026-08-23T12:49:13.000Z</time>
      </trkpt>
      <trkpt lat="47.78282" lon="6.66046">
        <ele>597.2</ele>
        <time>2026-08-23T12:49:15.000Z</time>
      </trkpt>
      <trkpt lat="47.78282" lon="6.66046">
        <ele>597.2</ele>
        <time>2026-08-23T12:49:17.000Z</time>
      </trkpt>
      <trkpt lat="47.78281" lon="6.66048">
        <ele>597.2</ele>
        <time>2026-08-23T12:49:19.000Z</time>
      </trkpt>
      <trkpt lat="47.7828" lon="6.66051">
        <ele>597.4</ele>
        <time>2026-08-23T12:49:21.000Z</time>
      </trkpt>
      <trkpt lat="47.78278" lon="6.66056">
        <ele>597.6</ele>
        <time>2026-08-23T12:49:23.000Z</time>
      </trkpt>
      <trkpt lat="47.78276" lon="6.6606">
        <ele>598</ele>
        <time>2026-08-23T12:49:25.000Z</time>
      </trkpt>
      <trkpt lat="47.78273" lon="6.66065">
        <ele>598.6</ele>
        <time>2026-08-23T12:49:27.000Z</time>
      </trkpt>
      <trkpt lat="47.78271" lon="6.6607">
        <ele>599</ele>
        <time>2026-08-23T12:49:29.000Z</time>
      </trkpt>
      <trkpt lat="47.78269" lon="6.66075">
        <ele>599.6</ele>
        <time>2026-08-23T12:49:31.000Z</time>
      </trkpt>
      <trkpt lat="47.78267" lon="6.6608">
        <ele>600.2</ele>
        <time>2026-08-23T12:49:33.000Z</time>
      </trkpt>
      <trkpt lat="47.78264" lon="6.66085">
        <ele>600.6</ele>
        <time>2026-08-23T12:49:35.000Z</time>
      </trkpt>
      <trkpt lat="47.78263" lon="6.6609">
        <ele>601.2</ele>
        <time>2026-08-23T12:49:37.000Z</time>
      </trkpt>
      <trkpt lat="47.78261" lon="6.66095">
        <ele>601.8</ele>
        <time>2026-08-23T12:49:39.000Z</time>
      </trkpt>
      <trkpt lat="47.78259" lon="6.661">
        <ele>602.4</ele>
        <time>2026-08-23T12:49:41.000Z</time>
      </trkpt>
      <trkpt lat="47.78258" lon="6.66105">
        <ele>602.8</ele>
        <time>2026-08-23T12:49:43.000Z</time>
      </trkpt>
      <trkpt lat="47.78255" lon="6.66111">
        <ele>603.4</ele>
        <time>2026-08-23T12:49:45.000Z</time>
      </trkpt>
      <trkpt lat="47.78254" lon="6.66117">
        <ele>603.8</ele>
        <time>2026-08-23T12:49:47.000Z</time>
      </trkpt>
      <trkpt lat="47.78252" lon="6.66123">
        <ele>604.2</ele>
        <time>2026-08-23T12:49:49.000Z</time>
      </trkpt>
      <trkpt lat="47.78251" lon="6.66129">
        <ele>604.8</ele>
        <time>2026-08-23T12:49:51.000Z</time>
      </trkpt>
      <trkpt lat="47.7825" lon="6.66135">
        <ele>605.2</ele>
        <time>2026-08-23T12:49:53.000Z</time>
      </trkpt>
      <trkpt lat="47.78249" lon="6.66142">
        <ele>605.6</ele>
        <time>2026-08-23T12:49:55.000Z</time>
      </trkpt>
      <trkpt lat="47.78249" lon="6.66148">
        <ele>605.8</ele>
        <time>2026-08-23T12:49:57.000Z</time>
      </trkpt>
      <trkpt lat="47.78248" lon="6.66154">
        <ele>606.2</ele>
        <time>2026-08-23T12:49:59.000Z</time>
      </trkpt>
      <trkpt lat="47.78247" lon="6.6616">
        <ele>606.4</ele>
        <time>2026-08-23T12:50:01.000Z</time>
      </trkpt>
      <trkpt lat="47.78247" lon="6.66167">
        <ele>606.8</ele>
        <time>2026-08-23T12:50:03.000Z</time>
      </trkpt>
      <trkpt lat="47.78246" lon="6.66173">
        <ele>607</ele>
        <time>2026-08-23T12:50:05.000Z</time>
      </trkpt>
      <trkpt lat="47.78245" lon="6.66178">
        <ele>607.2</ele>
        <time>2026-08-23T12:50:08.000Z</time>
      </trkpt>
      <trkpt lat="47.78243" lon="6.66184">
        <ele>607.2</ele>
        <time>2026-08-23T12:50:10.000Z</time>
      </trkpt>
      <trkpt lat="47.7824" lon="6.66189">
        <ele>607.4</ele>
        <time>2026-08-23T12:50:12.000Z</time>
      </trkpt>
      <trkpt lat="47.78237" lon="6.66193">
        <ele>607.6</ele>
        <time>2026-08-23T12:50:14.000Z</time>
      </trkpt>
      <trkpt lat="47.78234" lon="6.66197">
        <ele>608</ele>
        <time>2026-08-23T12:50:16.000Z</time>
      </trkpt>
      <trkpt lat="47.78231" lon="6.662">
        <ele>608.6</ele>
        <time>2026-08-23T12:50:18.000Z</time>
      </trkpt>
      <trkpt lat="47.78228" lon="6.66203">
        <ele>609.2</ele>
        <time>2026-08-23T12:50:20.000Z</time>
      </trkpt>
      <trkpt lat="47.78226" lon="6.66207">
        <ele>609.8</ele>
        <time>2026-08-23T12:50:22.000Z</time>
      </trkpt>
      <trkpt lat="47.78223" lon="6.6621">
        <ele>610.4</ele>
        <time>2026-08-23T12:50:24.000Z</time>
      </trkpt>
      <trkpt lat="47.78221" lon="6.66214">
        <ele>611</ele>
        <time>2026-08-23T12:50:26.000Z</time>
      </trkpt>
      <trkpt lat="47.78218" lon="6.66217">
        <ele>611.6</ele>
        <time>2026-08-23T12:50:28.000Z</time>
      </trkpt>
      <trkpt lat="47.78216" lon="6.66221">
        <ele>612.4</ele>
        <time>2026-08-23T12:50:30.000Z</time>
      </trkpt>
      <trkpt lat="47.78214" lon="6.66224">
        <ele>613</ele>
        <time>2026-08-23T12:50:32.000Z</time>
      </trkpt>
      <trkpt lat="47.78212" lon="6.66228">
        <ele>613.6</ele>
        <time>2026-08-23T12:50:34.000Z</time>
      </trkpt>
      <trkpt lat="47.78209" lon="6.66232">
        <ele>614.2</ele>
        <time>2026-08-23T12:50:36.000Z</time>
      </trkpt>
      <trkpt lat="47.78207" lon="6.66236">
        <ele>614.6</ele>
        <time>2026-08-23T12:50:38.000Z</time>
      </trkpt>
      <trkpt lat="47.78205" lon="6.6624">
        <ele>615.2</ele>
        <time>2026-08-23T12:50:40.000Z</time>
      </trkpt>
      <trkpt lat="47.78202" lon="6.66245">
        <ele>615.6</ele>
        <time>2026-08-23T12:50:42.000Z</time>
      </trkpt>
      <trkpt lat="47.782" lon="6.6625">
        <ele>616</ele>
        <time>2026-08-23T12:50:44.000Z</time>
      </trkpt>
      <trkpt lat="47.78198" lon="6.66255">
        <ele>616.4</ele>
        <time>2026-08-23T12:50:46.000Z</time>
      </trkpt>
      <trkpt lat="47.78196" lon="6.66259">
        <ele>616.8</ele>
        <time>2026-08-23T12:50:48.000Z</time>
      </trkpt>
      <trkpt lat="47.78194" lon="6.66265">
        <ele>617</ele>
        <time>2026-08-23T12:50:50.000Z</time>
      </trkpt>
      <trkpt lat="47.78192" lon="6.6627">
        <ele>617.4</ele>
        <time>2026-08-23T12:50:52.000Z</time>
      </trkpt>
      <trkpt lat="47.78189" lon="6.66275">
        <ele>617.6</ele>
        <time>2026-08-23T12:50:54.000Z</time>
      </trkpt>
      <trkpt lat="47.78186" lon="6.6628">
        <ele>617.8</ele>
        <time>2026-08-23T12:50:56.000Z</time>
      </trkpt>
      <trkpt lat="47.78183" lon="6.66288">
        <ele>618</ele>
        <time>2026-08-23T12:50:58.000Z</time>
      </trkpt>
      <trkpt lat="47.78179" lon="6.66296">
        <ele>618</ele>
        <time>2026-08-23T12:51:00.000Z</time>
      </trkpt>
      <trkpt lat="47.78175" lon="6.66303">
        <ele>618</ele>
        <time>2026-08-23T12:51:02.000Z</time>
      </trkpt>
      <trkpt lat="47.78171" lon="6.66309">
        <ele>618.2</ele>
        <time>2026-08-23T12:51:04.000Z</time>
      </trkpt>
      <trkpt lat="47.78167" lon="6.66314">
        <ele>618.4</ele>
        <time>2026-08-23T12:51:06.000Z</time>
      </trkpt>
      <trkpt lat="47.78164" lon="6.66318">
        <ele>618.8</ele>
        <time>2026-08-23T12:51:08.000Z</time>
      </trkpt>
      <trkpt lat="47.78161" lon="6.66321">
        <ele>619.4</ele>
        <time>2026-08-23T12:51:10.000Z</time>
      </trkpt>
      <trkpt lat="47.78158" lon="6.66324">
        <ele>619.8</ele>
        <time>2026-08-23T12:51:12.000Z</time>
      </trkpt>
      <trkpt lat="47.78155" lon="6.66327">
        <ele>620.2</ele>
        <time>2026-08-23T12:51:14.000Z</time>
      </trkpt>
      <trkpt lat="47.78152" lon="6.66329">
        <ele>620.6</ele>
        <time>2026-08-23T12:51:16.000Z</time>
      </trkpt>
      <trkpt lat="47.78148" lon="6.66331">
        <ele>621</ele>
        <time>2026-08-23T12:51:18.000Z</time>
      </trkpt>
      <trkpt lat="47.78146" lon="6.66334">
        <ele>621.4</ele>
        <time>2026-08-23T12:51:20.000Z</time>
      </trkpt>
      <trkpt lat="47.78143" lon="6.66338">
        <ele>622</ele>
        <time>2026-08-23T12:51:22.000Z</time>
      </trkpt>
      <trkpt lat="47.7814" lon="6.66342">
        <ele>622.2</ele>
        <time>2026-08-23T12:51:24.000Z</time>
      </trkpt>
      <trkpt lat="47.78137" lon="6.66346">
        <ele>622.6</ele>
        <time>2026-08-23T12:51:26.000Z</time>
      </trkpt>
      <trkpt lat="47.78134" lon="6.66349">
        <ele>623</ele>
        <time>2026-08-23T12:51:28.000Z</time>
      </trkpt>
      <trkpt lat="47.78131" lon="6.66354">
        <ele>623.6</ele>
        <time>2026-08-23T12:51:30.000Z</time>
      </trkpt>
      <trkpt lat="47.78128" lon="6.66358">
        <ele>624</ele>
        <time>2026-08-23T12:51:32.000Z</time>
      </trkpt>
      <trkpt lat="47.78126" lon="6.66363">
        <ele>624.4</ele>
        <time>2026-08-23T12:51:34.000Z</time>
      </trkpt>
      <trkpt lat="47.78123" lon="6.66368">
        <ele>624.6</ele>
        <time>2026-08-23T12:51:36.000Z</time>
      </trkpt>
      <trkpt lat="47.78121" lon="6.66374">
        <ele>625</ele>
        <time>2026-08-23T12:51:38.000Z</time>
      </trkpt>
      <trkpt lat="47.78118" lon="6.66379">
        <ele>625.2</ele>
        <time>2026-08-23T12:51:40.000Z</time>
      </trkpt>
      <trkpt lat="47.78115" lon="6.66385">
        <ele>625.2</ele>
        <time>2026-08-23T12:51:42.000Z</time>
      </trkpt>
      <trkpt lat="47.78111" lon="6.66394">
        <ele>624.8</ele>
        <time>2026-08-23T12:51:44.000Z</time>
      </trkpt>
      <trkpt lat="47.78106" lon="6.66405">
        <ele>624.4</ele>
        <time>2026-08-23T12:51:46.000Z</time>
      </trkpt>
      <trkpt lat="47.78102" lon="6.66417">
        <ele>624</ele>
        <time>2026-08-23T12:51:48.000Z</time>
      </trkpt>
      <trkpt lat="47.78099" lon="6.66431">
        <ele>623.6</ele>
        <time>2026-08-23T12:51:50.000Z</time>
      </trkpt>
      <trkpt lat="47.78101" lon="6.66445">
        <ele>623.6</ele>
        <time>2026-08-23T12:51:52.000Z</time>
      </trkpt>
      <trkpt lat="47.78106" lon="6.66455">
        <ele>623.6</ele>
        <time>2026-08-23T12:51:54.000Z</time>
      </trkpt>
      <trkpt lat="47.78112" lon="6.66462">
        <ele>623.8</ele>
        <time>2026-08-23T12:51:56.000Z</time>
      </trkpt>
      <trkpt lat="47.78117" lon="6.66467">
        <ele>624</ele>
        <time>2026-08-23T12:51:58.000Z</time>
      </trkpt>
      <trkpt lat="47.78121" lon="6.6647">
        <ele>624.4</ele>
        <time>2026-08-23T12:52:00.000Z</time>
      </trkpt>
      <trkpt lat="47.78125" lon="6.66473">
        <ele>625</ele>
        <time>2026-08-23T12:52:02.000Z</time>
      </trkpt>
      <trkpt lat="47.78128" lon="6.66475">
        <ele>625.6</ele>
        <time>2026-08-23T12:52:04.000Z</time>
      </trkpt>
      <trkpt lat="47.7813" lon="6.66477">
        <ele>626.2</ele>
        <time>2026-08-23T12:52:06.000Z</time>
      </trkpt>
      <trkpt lat="47.78133" lon="6.6648">
        <ele>626.8</ele>
        <time>2026-08-23T12:52:08.000Z</time>
      </trkpt>
      <trkpt lat="47.78135" lon="6.66483">
        <ele>627.2</ele>
        <time>2026-08-23T12:52:10.000Z</time>
      </trkpt>
      <trkpt lat="47.78137" lon="6.66487">
        <ele>627.8</ele>
        <time>2026-08-23T12:52:12.000Z</time>
      </trkpt>
      <trkpt lat="47.78139" lon="6.66491">
        <ele>628.6</ele>
        <time>2026-08-23T12:52:14.000Z</time>
      </trkpt>
      <trkpt lat="47.78141" lon="6.66495">
        <ele>629</ele>
        <time>2026-08-23T12:52:16.000Z</time>
      </trkpt>
      <trkpt lat="47.78142" lon="6.665">
        <ele>629.6</ele>
        <time>2026-08-23T12:52:19.000Z</time>
      </trkpt>
      <trkpt lat="47.78142" lon="6.66504">
        <ele>630</ele>
        <time>2026-08-23T12:52:21.000Z</time>
      </trkpt>
      <trkpt lat="47.78143" lon="6.66509">
        <ele>630.6</ele>
        <time>2026-08-23T12:52:23.000Z</time>
      </trkpt>
      <trkpt lat="47.78142" lon="6.66514">
        <ele>631</ele>
        <time>2026-08-23T12:52:25.000Z</time>
      </trkpt>
      <trkpt lat="47.78142" lon="6.66518">
        <ele>631.4</ele>
        <time>2026-08-23T12:52:27.000Z</time>
      </trkpt>
      <trkpt lat="47.78141" lon="6.66523">
        <ele>632</ele>
        <time>2026-08-23T12:52:29.000Z</time>
      </trkpt>
      <trkpt lat="47.7814" lon="6.66527">
        <ele>632.4</ele>
        <time>2026-08-23T12:52:31.000Z</time>
      </trkpt>
      <trkpt lat="47.7814" lon="6.66532">
        <ele>633</ele>
        <time>2026-08-23T12:52:33.000Z</time>
      </trkpt>
      <trkpt lat="47.78139" lon="6.66536">
        <ele>633.4</ele>
        <time>2026-08-23T12:52:35.000Z</time>
      </trkpt>
      <trkpt lat="47.78138" lon="6.66541">
        <ele>633.8</ele>
        <time>2026-08-23T12:52:37.000Z</time>
      </trkpt>
      <trkpt lat="47.78138" lon="6.66546">
        <ele>634.2</ele>
        <time>2026-08-23T12:52:39.000Z</time>
      </trkpt>
      <trkpt lat="47.78138" lon="6.66551">
        <ele>634.4</ele>
        <time>2026-08-23T12:52:41.000Z</time>
      </trkpt>
      <trkpt lat="47.78138" lon="6.66555">
        <ele>634.8</ele>
        <time>2026-08-23T12:52:43.000Z</time>
      </trkpt>
      <trkpt lat="47.78139" lon="6.6656">
        <ele>635</ele>
        <time>2026-08-23T12:52:45.000Z</time>
      </trkpt>
      <trkpt lat="47.78141" lon="6.66564">
        <ele>635.4</ele>
        <time>2026-08-23T12:52:47.000Z</time>
      </trkpt>
      <trkpt lat="47.78142" lon="6.66568">
        <ele>635.6</ele>
        <time>2026-08-23T12:52:49.000Z</time>
      </trkpt>
      <trkpt lat="47.78144" lon="6.66572">
        <ele>635.8</ele>
        <time>2026-08-23T12:52:51.000Z</time>
      </trkpt>
      <trkpt lat="47.78147" lon="6.66576">
        <ele>636.2</ele>
        <time>2026-08-23T12:52:53.000Z</time>
      </trkpt>
      <trkpt lat="47.7815" lon="6.6658">
        <ele>636.4</ele>
        <time>2026-08-23T12:52:55.000Z</time>
      </trkpt>
      <trkpt lat="47.78152" lon="6.66583">
        <ele>636.8</ele>
        <time>2026-08-23T12:52:57.000Z</time>
      </trkpt>
      <trkpt lat="47.78154" lon="6.66586">
        <ele>637.2</ele>
        <time>2026-08-23T12:52:59.000Z</time>
      </trkpt>
      <trkpt lat="47.78157" lon="6.66588">
        <ele>637.6</ele>
        <time>2026-08-23T12:53:01.000Z</time>
      </trkpt>
      <trkpt lat="47.78159" lon="6.66591">
        <ele>638.2</ele>
        <time>2026-08-23T12:53:03.000Z</time>
      </trkpt>
      <trkpt lat="47.78161" lon="6.66594">
        <ele>638.6</ele>
        <time>2026-08-23T12:53:05.000Z</time>
      </trkpt>
      <trkpt lat="47.78163" lon="6.66598">
        <ele>638.8</ele>
        <time>2026-08-23T12:53:07.000Z</time>
      </trkpt>
      <trkpt lat="47.78165" lon="6.666">
        <ele>639</ele>
        <time>2026-08-23T12:53:09.000Z</time>
      </trkpt>
      <trkpt lat="47.78167" lon="6.66603">
        <ele>639.2</ele>
        <time>2026-08-23T12:53:11.000Z</time>
      </trkpt>
      <trkpt lat="47.78169" lon="6.66606">
        <ele>639.4</ele>
        <time>2026-08-23T12:53:13.000Z</time>
      </trkpt>
      <trkpt lat="47.78171" lon="6.66609">
        <ele>639.6</ele>
        <time>2026-08-23T12:53:15.000Z</time>
      </trkpt>
      <trkpt lat="47.78172" lon="6.66613">
        <ele>639.8</ele>
        <time>2026-08-23T12:53:17.000Z</time>
      </trkpt>
      <trkpt lat="47.78174" lon="6.66616">
        <ele>640.2</ele>
        <time>2026-08-23T12:53:19.000Z</time>
      </trkpt>
      <trkpt lat="47.78176" lon="6.66619">
        <ele>640.4</ele>
        <time>2026-08-23T12:53:21.000Z</time>
      </trkpt>
      <trkpt lat="47.78178" lon="6.66623">
        <ele>640.8</ele>
        <time>2026-08-23T12:53:23.000Z</time>
      </trkpt>
      <trkpt lat="47.78179" lon="6.66626">
        <ele>641</ele>
        <time>2026-08-23T12:53:25.000Z</time>
      </trkpt>
      <trkpt lat="47.78181" lon="6.6663">
        <ele>641.4</ele>
        <time>2026-08-23T12:53:27.000Z</time>
      </trkpt>
      <trkpt lat="47.78182" lon="6.66634">
        <ele>641.8</ele>
        <time>2026-08-23T12:53:29.000Z</time>
      </trkpt>
      <trkpt lat="47.78184" lon="6.66638">
        <ele>642.2</ele>
        <time>2026-08-23T12:53:31.000Z</time>
      </trkpt>
      <trkpt lat="47.78185" lon="6.66641">
        <ele>642.6</ele>
        <time>2026-08-23T12:53:33.000Z</time>
      </trkpt>
      <trkpt lat="47.78186" lon="6.66645">
        <ele>643</ele>
        <time>2026-08-23T12:53:35.000Z</time>
      </trkpt>
      <trkpt lat="47.78188" lon="6.66648">
        <ele>643.2</ele>
        <time>2026-08-23T12:53:37.000Z</time>
      </trkpt>
      <trkpt lat="47.78189" lon="6.66652">
        <ele>643.6</ele>
        <time>2026-08-23T12:53:39.000Z</time>
      </trkpt>
      <trkpt lat="47.78191" lon="6.66655">
        <ele>644</ele>
        <time>2026-08-23T12:53:41.000Z</time>
      </trkpt>
      <trkpt lat="47.78192" lon="6.66659">
        <ele>644.4</ele>
        <time>2026-08-23T12:53:43.000Z</time>
      </trkpt>
      <trkpt lat="47.78194" lon="6.66663">
        <ele>644.8</ele>
        <time>2026-08-23T12:53:45.000Z</time>
      </trkpt>
      <trkpt lat="47.78195" lon="6.66666">
        <ele>645.2</ele>
        <time>2026-08-23T12:53:47.000Z</time>
      </trkpt>
      <trkpt lat="47.78197" lon="6.66669">
        <ele>645.6</ele>
        <time>2026-08-23T12:53:49.000Z</time>
      </trkpt>
      <trkpt lat="47.78198" lon="6.66673">
        <ele>646</ele>
        <time>2026-08-23T12:53:51.000Z</time>
      </trkpt>
      <trkpt lat="47.78199" lon="6.66676">
        <ele>646.6</ele>
        <time>2026-08-23T12:53:54.000Z</time>
      </trkpt>
      <trkpt lat="47.782" lon="6.6668">
        <ele>647</ele>
        <time>2026-08-23T12:53:56.000Z</time>
      </trkpt>
      <trkpt lat="47.78201" lon="6.66684">
        <ele>647.4</ele>
        <time>2026-08-23T12:53:58.000Z</time>
      </trkpt>
      <trkpt lat="47.78201" lon="6.66687">
        <ele>648</ele>
        <time>2026-08-23T12:54:00.000Z</time>
      </trkpt>
      <trkpt lat="47.78201" lon="6.66691">
        <ele>648.4</ele>
        <time>2026-08-23T12:54:02.000Z</time>
      </trkpt>
      <trkpt lat="47.782" lon="6.66693">
        <ele>649</ele>
        <time>2026-08-23T12:54:04.000Z</time>
      </trkpt>
      <trkpt lat="47.78198" lon="6.66694">
        <ele>649.4</ele>
        <time>2026-08-23T12:54:06.000Z</time>
      </trkpt>
      <trkpt lat="47.78195" lon="6.66694">
        <ele>649.8</ele>
        <time>2026-08-23T12:54:08.000Z</time>
      </trkpt>
      <trkpt lat="47.78193" lon="6.66693">
        <ele>650.2</ele>
        <time>2026-08-23T12:54:10.000Z</time>
      </trkpt>
      <trkpt lat="47.78191" lon="6.66693">
        <ele>650.4</ele>
        <time>2026-08-23T12:54:12.000Z</time>
      </trkpt>
      <trkpt lat="47.78188" lon="6.66693">
        <ele>650.8</ele>
        <time>2026-08-23T12:54:14.000Z</time>
      </trkpt>
      <trkpt lat="47.78186" lon="6.66693">
        <ele>651</ele>
        <time>2026-08-23T12:54:16.000Z</time>
      </trkpt>
      <trkpt lat="47.78184" lon="6.66692">
        <ele>651.2</ele>
        <time>2026-08-23T12:54:18.000Z</time>
      </trkpt>
      <trkpt lat="47.78181" lon="6.66692">
        <ele>651.4</ele>
        <time>2026-08-23T12:54:20.000Z</time>
      </trkpt>
      <trkpt lat="47.78179" lon="6.66692">
        <ele>651.6</ele>
        <time>2026-08-23T12:54:22.000Z</time>
      </trkpt>
      <trkpt lat="47.78177" lon="6.66691">
        <ele>651.8</ele>
        <time>2026-08-23T12:54:24.000Z</time>
      </trkpt>
      <trkpt lat="47.78174" lon="6.66691">
        <ele>652</ele>
        <time>2026-08-23T12:54:26.000Z</time>
      </trkpt>
      <trkpt lat="47.78172" lon="6.66691">
        <ele>652.4</ele>
        <time>2026-08-23T12:54:28.000Z</time>
      </trkpt>
      <trkpt lat="47.78169" lon="6.66691">
        <ele>652.6</ele>
        <time>2026-08-23T12:54:30.000Z</time>
      </trkpt>
      <trkpt lat="47.78167" lon="6.6669">
        <ele>653</ele>
        <time>2026-08-23T12:54:32.000Z</time>
      </trkpt>
      <trkpt lat="47.78164" lon="6.6669">
        <ele>653.2</ele>
        <time>2026-08-23T12:54:34.000Z</time>
      </trkpt>
      <trkpt lat="47.78162" lon="6.6669">
        <ele>653.8</ele>
        <time>2026-08-23T12:54:36.000Z</time>
      </trkpt>
      <trkpt lat="47.78159" lon="6.66691">
        <ele>654.2</ele>
        <time>2026-08-23T12:54:38.000Z</time>
      </trkpt>
      <trkpt lat="47.78157" lon="6.66691">
        <ele>654.6</ele>
        <time>2026-08-23T12:54:40.000Z</time>
      </trkpt>
      <trkpt lat="47.78155" lon="6.66692">
        <ele>655.2</ele>
        <time>2026-08-23T12:54:42.000Z</time>
      </trkpt>
      <trkpt lat="47.78152" lon="6.66692">
        <ele>655.8</ele>
        <time>2026-08-23T12:54:44.000Z</time>
      </trkpt>
      <trkpt lat="47.7815" lon="6.66692">
        <ele>656.4</ele>
        <time>2026-08-23T12:54:46.000Z</time>
      </trkpt>
      <trkpt lat="47.78148" lon="6.66692">
        <ele>657</ele>
        <time>2026-08-23T12:54:48.000Z</time>
      </trkpt>
      <trkpt lat="47.78144" lon="6.66692">
        <ele>657.6</ele>
        <time>2026-08-23T12:54:50.000Z</time>
      </trkpt>
      <trkpt lat="47.78142" lon="6.66692">
        <ele>658.2</ele>
        <time>2026-08-23T12:54:52.000Z</time>
      </trkpt>
      <trkpt lat="47.7814" lon="6.66692">
        <ele>658.8</ele>
        <time>2026-08-23T12:54:54.000Z</time>
      </trkpt>
      <trkpt lat="47.78137" lon="6.66692">
        <ele>659.4</ele>
        <time>2026-08-23T12:54:56.000Z</time>
      </trkpt>
      <trkpt lat="47.78134" lon="6.66691">
        <ele>660</ele>
        <time>2026-08-23T12:54:58.000Z</time>
      </trkpt>
      <trkpt lat="47.78131" lon="6.6669">
        <ele>660.6</ele>
        <time>2026-08-23T12:55:00.000Z</time>
      </trkpt>
      <trkpt lat="47.78131" lon="6.66689">
        <ele>661</ele>
        <time>2026-08-23T12:55:02.000Z</time>
      </trkpt>
      <trkpt lat="47.78131" lon="6.66689">
        <ele>661.2</ele>
        <time>2026-08-23T12:55:04.000Z</time>
      </trkpt>
      <trkpt lat="47.78132" lon="6.66689">
        <ele>661.2</ele>
        <time>2026-08-23T12:55:06.000Z</time>
      </trkpt>
      <trkpt lat="47.78131" lon="6.6669">
        <ele>661.4</ele>
        <time>2026-08-23T12:55:08.000Z</time>
      </trkpt>
      <trkpt lat="47.7813" lon="6.6669">
        <ele>661.4</ele>
        <time>2026-08-23T12:55:10.000Z</time>
      </trkpt>
      <trkpt lat="47.7813" lon="6.66689">
        <ele>661.4</ele>
        <time>2026-08-23T12:55:12.000Z</time>
      </trkpt>
      <trkpt lat="47.7813" lon="6.66689">
        <ele>661.6</ele>
        <time>2026-08-23T12:55:14.000Z</time>
      </trkpt>
      <trkpt lat="47.78128" lon="6.66689">
        <ele>661.6</ele>
        <time>2026-08-23T12:55:16.000Z</time>
      </trkpt>
      <trkpt lat="47.78125" lon="6.66687">
        <ele>661.8</ele>
        <time>2026-08-23T12:55:18.000Z</time>
      </trkpt>
      <trkpt lat="47.78122" lon="6.66686">
        <ele>662.2</ele>
        <time>2026-08-23T12:55:20.000Z</time>
      </trkpt>
      <trkpt lat="47.7812" lon="6.66685">
        <ele>662.6</ele>
        <time>2026-08-23T12:55:22.000Z</time>
      </trkpt>
      <trkpt lat="47.78117" lon="6.66684">
        <ele>663</ele>
        <time>2026-08-23T12:55:24.000Z</time>
      </trkpt>
      <trkpt lat="47.78115" lon="6.66683">
        <ele>663.4</ele>
        <time>2026-08-23T12:55:26.000Z</time>
      </trkpt>
      <trkpt lat="47.78112" lon="6.66682">
        <ele>663.8</ele>
        <time>2026-08-23T12:55:28.000Z</time>
      </trkpt>
      <trkpt lat="47.7811" lon="6.66682">
        <ele>664.2</ele>
        <time>2026-08-23T12:55:30.000Z</time>
      </trkpt>
      <trkpt lat="47.78107" lon="6.66681">
        <ele>664.6</ele>
        <time>2026-08-23T12:55:32.000Z</time>
      </trkpt>
      <trkpt lat="47.78105" lon="6.66681">
        <ele>665.2</ele>
        <time>2026-08-23T12:55:34.000Z</time>
      </trkpt>
      <trkpt lat="47.78102" lon="6.66681">
        <ele>665.4</ele>
        <time>2026-08-23T12:55:36.000Z</time>
      </trkpt>
      <trkpt lat="47.781" lon="6.66681">
        <ele>665.8</ele>
        <time>2026-08-23T12:55:38.000Z</time>
      </trkpt>
      <trkpt lat="47.78097" lon="6.66681">
        <ele>666.2</ele>
        <time>2026-08-23T12:55:40.000Z</time>
      </trkpt>
      <trkpt lat="47.78094" lon="6.66681">
        <ele>666.6</ele>
        <time>2026-08-23T12:55:42.000Z</time>
      </trkpt>
      <trkpt lat="47.78092" lon="6.66681">
        <ele>666.8</ele>
        <time>2026-08-23T12:55:44.000Z</time>
      </trkpt>
      <trkpt lat="47.7809" lon="6.66682">
        <ele>667.2</ele>
        <time>2026-08-23T12:55:46.000Z</time>
      </trkpt>
      <trkpt lat="47.78087" lon="6.66682">
        <ele>667.6</ele>
        <time>2026-08-23T12:55:48.000Z</time>
      </trkpt>
      <trkpt lat="47.78084" lon="6.66683">
        <ele>668</ele>
        <time>2026-08-23T12:55:50.000Z</time>
      </trkpt>
      <trkpt lat="47.78082" lon="6.66684">
        <ele>668.2</ele>
        <time>2026-08-23T12:55:52.000Z</time>
      </trkpt>
      <trkpt lat="47.78079" lon="6.66685">
        <ele>668.6</ele>
        <time>2026-08-23T12:55:55.000Z</time>
      </trkpt>
      <trkpt lat="47.78077" lon="6.66685">
        <ele>669</ele>
        <time>2026-08-23T12:55:57.000Z</time>
      </trkpt>
      <trkpt lat="47.78075" lon="6.66686">
        <ele>669.4</ele>
        <time>2026-08-23T12:55:59.000Z</time>
      </trkpt>
      <trkpt lat="47.78073" lon="6.66687">
        <ele>669.8</ele>
        <time>2026-08-23T12:56:01.000Z</time>
      </trkpt>
      <trkpt lat="47.7807" lon="6.66689">
        <ele>670.4</ele>
        <time>2026-08-23T12:56:03.000Z</time>
      </trkpt>
      <trkpt lat="47.78068" lon="6.6669">
        <ele>670.8</ele>
        <time>2026-08-23T12:56:05.000Z</time>
      </trkpt>
      <trkpt lat="47.78066" lon="6.66691">
        <ele>671.2</ele>
        <time>2026-08-23T12:56:07.000Z</time>
      </trkpt>
      <trkpt lat="47.78064" lon="6.66693">
        <ele>671.8</ele>
        <time>2026-08-23T12:56:09.000Z</time>
      </trkpt>
      <trkpt lat="47.78062" lon="6.66694">
        <ele>672.2</ele>
        <time>2026-08-23T12:56:11.000Z</time>
      </trkpt>
      <trkpt lat="47.7806" lon="6.66695">
        <ele>672.6</ele>
        <time>2026-08-23T12:56:13.000Z</time>
      </trkpt>
      <trkpt lat="47.78058" lon="6.66697">
        <ele>673.2</ele>
        <time>2026-08-23T12:56:15.000Z</time>
      </trkpt>
      <trkpt lat="47.78056" lon="6.66699">
        <ele>673.6</ele>
        <time>2026-08-23T12:56:17.000Z</time>
      </trkpt>
      <trkpt lat="47.78055" lon="6.66701">
        <ele>674.2</ele>
        <time>2026-08-23T12:56:19.000Z</time>
      </trkpt>
      <trkpt lat="47.78053" lon="6.66703">
        <ele>674.6</ele>
        <time>2026-08-23T12:56:21.000Z</time>
      </trkpt>
      <trkpt lat="47.78051" lon="6.66705">
        <ele>675.2</ele>
        <time>2026-08-23T12:56:23.000Z</time>
      </trkpt>
      <trkpt lat="47.7805" lon="6.66707">
        <ele>675.6</ele>
        <time>2026-08-23T12:56:25.000Z</time>
      </trkpt>
      <trkpt lat="47.78049" lon="6.6671">
        <ele>676.2</ele>
        <time>2026-08-23T12:56:27.000Z</time>
      </trkpt>
      <trkpt lat="47.78048" lon="6.66713">
        <ele>676.6</ele>
        <time>2026-08-23T12:56:29.000Z</time>
      </trkpt>
      <trkpt lat="47.78047" lon="6.66715">
        <ele>677</ele>
        <time>2026-08-23T12:56:31.000Z</time>
      </trkpt>
      <trkpt lat="47.78047" lon="6.66717">
        <ele>677.2</ele>
        <time>2026-08-23T12:56:33.000Z</time>
      </trkpt>
      <trkpt lat="47.78046" lon="6.66719">
        <ele>677.6</ele>
        <time>2026-08-23T12:56:35.000Z</time>
      </trkpt>
      <trkpt lat="47.78046" lon="6.66722">
        <ele>677.8</ele>
        <time>2026-08-23T12:56:37.000Z</time>
      </trkpt>
      <trkpt lat="47.78047" lon="6.66725">
        <ele>678.2</ele>
        <time>2026-08-23T12:56:39.000Z</time>
      </trkpt>
      <trkpt lat="47.78047" lon="6.66728">
        <ele>678.4</ele>
        <time>2026-08-23T12:56:41.000Z</time>
      </trkpt>
      <trkpt lat="47.78048" lon="6.6673">
        <ele>678.6</ele>
        <time>2026-08-23T12:56:43.000Z</time>
      </trkpt>
      <trkpt lat="47.78049" lon="6.66733">
        <ele>679</ele>
        <time>2026-08-23T12:56:45.000Z</time>
      </trkpt>
      <trkpt lat="47.7805" lon="6.66734">
        <ele>679.2</ele>
        <time>2026-08-23T12:56:47.000Z</time>
      </trkpt>
      <trkpt lat="47.78052" lon="6.66736">
        <ele>679.4</ele>
        <time>2026-08-23T12:56:49.000Z</time>
      </trkpt>
      <trkpt lat="47.78053" lon="6.66737">
        <ele>679.8</ele>
        <time>2026-08-23T12:56:51.000Z</time>
      </trkpt>
      <trkpt lat="47.78055" lon="6.66738">
        <ele>680.2</ele>
        <time>2026-08-23T12:56:53.000Z</time>
      </trkpt>
      <trkpt lat="47.78057" lon="6.66738">
        <ele>680.4</ele>
        <time>2026-08-23T12:56:55.000Z</time>
      </trkpt>
      <trkpt lat="47.78059" lon="6.66739">
        <ele>680.8</ele>
        <time>2026-08-23T12:56:57.000Z</time>
      </trkpt>
      <trkpt lat="47.78061" lon="6.6674">
        <ele>681.2</ele>
        <time>2026-08-23T12:56:59.000Z</time>
      </trkpt>
      <trkpt lat="47.78063" lon="6.66741">
        <ele>681.6</ele>
        <time>2026-08-23T12:57:01.000Z</time>
      </trkpt>
      <trkpt lat="47.78065" lon="6.66743">
        <ele>682</ele>
        <time>2026-08-23T12:57:03.000Z</time>
      </trkpt>
      <trkpt lat="47.78066" lon="6.66745">
        <ele>682.4</ele>
        <time>2026-08-23T12:57:05.000Z</time>
      </trkpt>
      <trkpt lat="47.78066" lon="6.66748">
        <ele>683</ele>
        <time>2026-08-23T12:57:07.000Z</time>
      </trkpt>
      <trkpt lat="47.78066" lon="6.66752">
        <ele>683.4</ele>
        <time>2026-08-23T12:57:09.000Z</time>
      </trkpt>
      <trkpt lat="47.78067" lon="6.66755">
        <ele>684</ele>
        <time>2026-08-23T12:57:11.000Z</time>
      </trkpt>
      <trkpt lat="47.78068" lon="6.66758">
        <ele>684.4</ele>
        <time>2026-08-23T12:57:13.000Z</time>
      </trkpt>
      <trkpt lat="47.78068" lon="6.6676">
        <ele>685</ele>
        <time>2026-08-23T12:57:15.000Z</time>
      </trkpt>
      <trkpt lat="47.78069" lon="6.66763">
        <ele>685.4</ele>
        <time>2026-08-23T12:57:17.000Z</time>
      </trkpt>
      <trkpt lat="47.78068" lon="6.66765">
        <ele>685.8</ele>
        <time>2026-08-23T12:57:19.000Z</time>
      </trkpt>
      <trkpt lat="47.78067" lon="6.66767">
        <ele>686.2</ele>
        <time>2026-08-23T12:57:21.000Z</time>
      </trkpt>
      <trkpt lat="47.78066" lon="6.66769">
        <ele>686.6</ele>
        <time>2026-08-23T12:57:23.000Z</time>
      </trkpt>
      <trkpt lat="47.78065" lon="6.66772">
        <ele>687</ele>
        <time>2026-08-23T12:57:25.000Z</time>
      </trkpt>
      <trkpt lat="47.78065" lon="6.66775">
        <ele>687.4</ele>
        <time>2026-08-23T12:57:27.000Z</time>
      </trkpt>
      <trkpt lat="47.78064" lon="6.66777">
        <ele>687.8</ele>
        <time>2026-08-23T12:57:29.000Z</time>
      </trkpt>
      <trkpt lat="47.78062" lon="6.66779">
        <ele>688</ele>
        <time>2026-08-23T12:57:31.000Z</time>
      </trkpt>
      <trkpt lat="47.78061" lon="6.66782">
        <ele>688.4</ele>
        <time>2026-08-23T12:57:33.000Z</time>
      </trkpt>
      <trkpt lat="47.7806" lon="6.66784">
        <ele>689</ele>
        <time>2026-08-23T12:57:35.000Z</time>
      </trkpt>
      <trkpt lat="47.78058" lon="6.66786">
        <ele>689.4</ele>
        <time>2026-08-23T12:57:37.000Z</time>
      </trkpt>
      <trkpt lat="47.78057" lon="6.66788">
        <ele>689.8</ele>
        <time>2026-08-23T12:57:39.000Z</time>
      </trkpt>
      <trkpt lat="47.78055" lon="6.66791">
        <ele>690.2</ele>
        <time>2026-08-23T12:57:41.000Z</time>
      </trkpt>
      <trkpt lat="47.78054" lon="6.66793">
        <ele>690.8</ele>
        <time>2026-08-23T12:57:43.000Z</time>
      </trkpt>
      <trkpt lat="47.78052" lon="6.66795">
        <ele>691</ele>
        <time>2026-08-23T12:57:45.000Z</time>
      </trkpt>
      <trkpt lat="47.78051" lon="6.66796">
        <ele>691.4</ele>
        <time>2026-08-23T12:57:47.000Z</time>
      </trkpt>
      <trkpt lat="47.7805" lon="6.66797">
        <ele>691.8</ele>
        <time>2026-08-23T12:57:49.000Z</time>
      </trkpt>
      <trkpt lat="47.78049" lon="6.668">
        <ele>692.4</ele>
        <time>2026-08-23T12:57:51.000Z</time>
      </trkpt>
      <trkpt lat="47.78047" lon="6.66802">
        <ele>692.8</ele>
        <time>2026-08-23T12:57:53.000Z</time>
      </trkpt>
      <trkpt lat="47.78046" lon="6.66804">
        <ele>693.4</ele>
        <time>2026-08-23T12:57:55.000Z</time>
      </trkpt>
      <trkpt lat="47.78044" lon="6.66806">
        <ele>693.8</ele>
        <time>2026-08-23T12:57:57.000Z</time>
      </trkpt>
      <trkpt lat="47.78042" lon="6.66807">
        <ele>694.2</ele>
        <time>2026-08-23T12:57:59.000Z</time>
      </trkpt>
      <trkpt lat="47.7804" lon="6.66809">
        <ele>694.6</ele>
        <time>2026-08-23T12:58:01.000Z</time>
      </trkpt>
      <trkpt lat="47.78039" lon="6.66811">
        <ele>695</ele>
        <time>2026-08-23T12:58:03.000Z</time>
      </trkpt>
      <trkpt lat="47.78037" lon="6.66812">
        <ele>695.2</ele>
        <time>2026-08-23T12:58:05.000Z</time>
      </trkpt>
      <trkpt lat="47.78035" lon="6.66813">
        <ele>695.6</ele>
        <time>2026-08-23T12:58:07.000Z</time>
      </trkpt>
      <trkpt lat="47.78033" lon="6.66814">
        <ele>696</ele>
        <time>2026-08-23T12:58:09.000Z</time>
      </trkpt>
      <trkpt lat="47.78031" lon="6.66814">
        <ele>696.4</ele>
        <time>2026-08-23T12:58:11.000Z</time>
      </trkpt>
      <trkpt lat="47.78029" lon="6.66815">
        <ele>697</ele>
        <time>2026-08-23T12:58:13.000Z</time>
      </trkpt>
      <trkpt lat="47.78027" lon="6.66814">
        <ele>697.4</ele>
        <time>2026-08-23T12:58:15.000Z</time>
      </trkpt>
      <trkpt lat="47.78025" lon="6.66813">
        <ele>697.8</ele>
        <time>2026-08-23T12:58:17.000Z</time>
      </trkpt>
      <trkpt lat="47.78023" lon="6.66812">
        <ele>698.2</ele>
        <time>2026-08-23T12:58:19.000Z</time>
      </trkpt>
      <trkpt lat="47.78021" lon="6.66811">
        <ele>698.6</ele>
        <time>2026-08-23T12:58:21.000Z</time>
      </trkpt>
      <trkpt lat="47.78019" lon="6.6681">
        <ele>698.8</ele>
        <time>2026-08-23T12:58:24.000Z</time>
      </trkpt>
      <trkpt lat="47.78017" lon="6.6681">
        <ele>699.2</ele>
        <time>2026-08-23T12:58:26.000Z</time>
      </trkpt>
      <trkpt lat="47.78015" lon="6.66809">
        <ele>699.4</ele>
        <time>2026-08-23T12:58:28.000Z</time>
      </trkpt>
      <trkpt lat="47.78013" lon="6.66808">
        <ele>699.8</ele>
        <time>2026-08-23T12:58:30.000Z</time>
      </trkpt>
      <trkpt lat="47.78011" lon="6.66808">
        <ele>700.2</ele>
        <time>2026-08-23T12:58:32.000Z</time>
      </trkpt>
      <trkpt lat="47.78008" lon="6.66808">
        <ele>700.4</ele>
        <time>2026-08-23T12:58:34.000Z</time>
      </trkpt>
      <trkpt lat="47.78006" lon="6.66807">
        <ele>700.8</ele>
        <time>2026-08-23T12:58:36.000Z</time>
      </trkpt>
      <trkpt lat="47.78004" lon="6.66806">
        <ele>701.2</ele>
        <time>2026-08-23T12:58:38.000Z</time>
      </trkpt>
      <trkpt lat="47.78002" lon="6.66806">
        <ele>701.4</ele>
        <time>2026-08-23T12:58:40.000Z</time>
      </trkpt>
      <trkpt lat="47.78" lon="6.66806">
        <ele>701.8</ele>
        <time>2026-08-23T12:58:42.000Z</time>
      </trkpt>
      <trkpt lat="47.77998" lon="6.66804">
        <ele>702</ele>
        <time>2026-08-23T12:58:44.000Z</time>
      </trkpt>
      <trkpt lat="47.77996" lon="6.66804">
        <ele>702.4</ele>
        <time>2026-08-23T12:58:46.000Z</time>
      </trkpt>
      <trkpt lat="47.77994" lon="6.66803">
        <ele>702.6</ele>
        <time>2026-08-23T12:58:48.000Z</time>
      </trkpt>
      <trkpt lat="47.77992" lon="6.66803">
        <ele>702.8</ele>
        <time>2026-08-23T12:58:50.000Z</time>
      </trkpt>
      <trkpt lat="47.7799" lon="6.66802">
        <ele>703.2</ele>
        <time>2026-08-23T12:58:52.000Z</time>
      </trkpt>
      <trkpt lat="47.77988" lon="6.66802">
        <ele>703.4</ele>
        <time>2026-08-23T12:58:54.000Z</time>
      </trkpt>
      <trkpt lat="47.77986" lon="6.66801">
        <ele>703.8</ele>
        <time>2026-08-23T12:58:56.000Z</time>
      </trkpt>
      <trkpt lat="47.77984" lon="6.668">
        <ele>704</ele>
        <time>2026-08-23T12:58:58.000Z</time>
      </trkpt>
      <trkpt lat="47.77982" lon="6.668">
        <ele>704.4</ele>
        <time>2026-08-23T12:59:00.000Z</time>
      </trkpt>
      <trkpt lat="47.7798" lon="6.668">
        <ele>704.6</ele>
        <time>2026-08-23T12:59:02.000Z</time>
      </trkpt>
      <trkpt lat="47.77978" lon="6.66799">
        <ele>704.8</ele>
        <time>2026-08-23T12:59:04.000Z</time>
      </trkpt>
      <trkpt lat="47.77975" lon="6.66798">
        <ele>705</ele>
        <time>2026-08-23T12:59:06.000Z</time>
      </trkpt>
      <trkpt lat="47.77973" lon="6.66797">
        <ele>705.2</ele>
        <time>2026-08-23T12:59:08.000Z</time>
      </trkpt>
      <trkpt lat="47.77971" lon="6.66797">
        <ele>705.4</ele>
        <time>2026-08-23T12:59:10.000Z</time>
      </trkpt>
      <trkpt lat="47.77968" lon="6.66796">
        <ele>705.6</ele>
        <time>2026-08-23T12:59:12.000Z</time>
      </trkpt>
      <trkpt lat="47.77966" lon="6.66795">
        <ele>705.8</ele>
        <time>2026-08-23T12:59:14.000Z</time>
      </trkpt>
      <trkpt lat="47.77963" lon="6.66795">
        <ele>706</ele>
        <time>2026-08-23T12:59:16.000Z</time>
      </trkpt>
      <trkpt lat="47.77961" lon="6.66795">
        <ele>706.2</ele>
        <time>2026-08-23T12:59:18.000Z</time>
      </trkpt>
      <trkpt lat="47.77959" lon="6.66795">
        <ele>706.4</ele>
        <time>2026-08-23T12:59:20.000Z</time>
      </trkpt>
      <trkpt lat="47.77957" lon="6.66794">
        <ele>706.8</ele>
        <time>2026-08-23T12:59:22.000Z</time>
      </trkpt>
      <trkpt lat="47.77954" lon="6.66793">
        <ele>707</ele>
        <time>2026-08-23T12:59:24.000Z</time>
      </trkpt>
      <trkpt lat="47.77952" lon="6.66793">
        <ele>707.2</ele>
        <time>2026-08-23T12:59:26.000Z</time>
      </trkpt>
      <trkpt lat="47.7795" lon="6.66792">
        <ele>707.6</ele>
        <time>2026-08-23T12:59:28.000Z</time>
      </trkpt>
      <trkpt lat="47.77947" lon="6.66791">
        <ele>707.8</ele>
        <time>2026-08-23T12:59:30.000Z</time>
      </trkpt>
      <trkpt lat="47.77945" lon="6.66791">
        <ele>708</ele>
        <time>2026-08-23T12:59:32.000Z</time>
      </trkpt>
      <trkpt lat="47.77942" lon="6.6679">
        <ele>708.2</ele>
        <time>2026-08-23T12:59:34.000Z</time>
      </trkpt>
      <trkpt lat="47.7794" lon="6.66789">
        <ele>708.4</ele>
        <time>2026-08-23T12:59:36.000Z</time>
      </trkpt>
      <trkpt lat="47.77937" lon="6.66789">
        <ele>708.8</ele>
        <time>2026-08-23T12:59:38.000Z</time>
      </trkpt>
      <trkpt lat="47.77934" lon="6.66789">
        <ele>709</ele>
        <time>2026-08-23T12:59:40.000Z</time>
      </trkpt>
      <trkpt lat="47.77932" lon="6.66788">
        <ele>709.2</ele>
        <time>2026-08-23T12:59:42.000Z</time>
      </trkpt>
      <trkpt lat="47.7793" lon="6.66787">
        <ele>709.4</ele>
        <time>2026-08-23T12:59:44.000Z</time>
      </trkpt>
      <trkpt lat="47.77927" lon="6.66785">
        <ele>709.6</ele>
        <time>2026-08-23T12:59:46.000Z</time>
      </trkpt>
      <trkpt lat="47.77925" lon="6.66783">
        <ele>709.8</ele>
        <time>2026-08-23T12:59:48.000Z</time>
      </trkpt>
      <trkpt lat="47.77922" lon="6.66782">
        <ele>710</ele>
        <time>2026-08-23T12:59:50.000Z</time>
      </trkpt>
      <trkpt lat="47.77919" lon="6.66782">
        <ele>710.2</ele>
        <time>2026-08-23T12:59:52.000Z</time>
      </trkpt>
      <trkpt lat="47.77917" lon="6.66781">
        <ele>710.4</ele>
        <time>2026-08-23T12:59:54.000Z</time>
      </trkpt>
      <trkpt lat="47.77914" lon="6.6678">
        <ele>710.8</ele>
        <time>2026-08-23T12:59:56.000Z</time>
      </trkpt>
      <trkpt lat="47.77911" lon="6.6678">
        <ele>711.2</ele>
        <time>2026-08-23T12:59:58.000Z</time>
      </trkpt>
      <trkpt lat="47.77909" lon="6.6678">
        <ele>711.4</ele>
        <time>2026-08-23T13:00:00.000Z</time>
      </trkpt>
      <trkpt lat="47.77906" lon="6.6678">
        <ele>711.8</ele>
        <time>2026-08-23T13:00:02.000Z</time>
      </trkpt>
      <trkpt lat="47.77904" lon="6.66779">
        <ele>712.2</ele>
        <time>2026-08-23T13:00:04.000Z</time>
      </trkpt>
      <trkpt lat="47.77902" lon="6.66778">
        <ele>712.6</ele>
        <time>2026-08-23T13:00:06.000Z</time>
      </trkpt>
      <trkpt lat="47.77899" lon="6.66778">
        <ele>713</ele>
        <time>2026-08-23T13:00:08.000Z</time>
      </trkpt>
      <trkpt lat="47.77897" lon="6.66778">
        <ele>713.4</ele>
        <time>2026-08-23T13:00:10.000Z</time>
      </trkpt>
      <trkpt lat="47.77894" lon="6.66778">
        <ele>713.8</ele>
        <time>2026-08-23T13:00:12.000Z</time>
      </trkpt>
      <trkpt lat="47.77892" lon="6.66778">
        <ele>714.2</ele>
        <time>2026-08-23T13:00:14.000Z</time>
      </trkpt>
      <trkpt lat="47.7789" lon="6.66778">
        <ele>714.6</ele>
        <time>2026-08-23T13:00:16.000Z</time>
      </trkpt>
      <trkpt lat="47.77888" lon="6.66779">
        <ele>715</ele>
        <time>2026-08-23T13:00:18.000Z</time>
      </trkpt>
      <trkpt lat="47.77886" lon="6.66781">
        <ele>715.4</ele>
        <time>2026-08-23T13:00:20.000Z</time>
      </trkpt>
      <trkpt lat="47.77883" lon="6.66782">
        <ele>715.6</ele>
        <time>2026-08-23T13:00:22.000Z</time>
      </trkpt>
      <trkpt lat="47.77881" lon="6.66783">
        <ele>716</ele>
        <time>2026-08-23T13:00:24.000Z</time>
      </trkpt>
      <trkpt lat="47.77879" lon="6.66784">
        <ele>716.2</ele>
        <time>2026-08-23T13:00:26.000Z</time>
      </trkpt>
      <trkpt lat="47.77877" lon="6.66784">
        <ele>716.4</ele>
        <time>2026-08-23T13:00:28.000Z</time>
      </trkpt>
      <trkpt lat="47.77875" lon="6.66784">
        <ele>716.6</ele>
        <time>2026-08-23T13:00:31.000Z</time>
      </trkpt>
      <trkpt lat="47.77873" lon="6.66784">
        <ele>716.6</ele>
        <time>2026-08-23T13:00:33.000Z</time>
      </trkpt>
      <trkpt lat="47.77871" lon="6.66785">
        <ele>716.6</ele>
        <time>2026-08-23T13:00:35.000Z</time>
      </trkpt>
      <trkpt lat="47.77869" lon="6.66783">
        <ele>717</ele>
        <time>2026-08-23T13:00:37.000Z</time>
      </trkpt>
      <trkpt lat="47.77868" lon="6.66783">
        <ele>717.2</ele>
        <time>2026-08-23T13:00:39.000Z</time>
      </trkpt>
      <trkpt lat="47.77868" lon="6.66782">
        <ele>717.2</ele>
        <time>2026-08-23T13:00:41.000Z</time>
      </trkpt>
      <trkpt lat="47.77868" lon="6.66782">
        <ele>717.2</ele>
        <time>2026-08-23T13:00:43.000Z</time>
      </trkpt>
      <trkpt lat="47.77869" lon="6.66782">
        <ele>717.2</ele>
        <time>2026-08-23T13:00:45.000Z</time>
      </trkpt>
      <trkpt lat="47.77869" lon="6.66782">
        <ele>717.4</ele>
        <time>2026-08-23T13:00:47.000Z</time>
      </trkpt>
      <trkpt lat="47.77869" lon="6.66782">
        <ele>717.6</ele>
        <time>2026-08-23T13:00:49.000Z</time>
      </trkpt>
      <trkpt lat="47.77869" lon="6.66782">
        <ele>717.6</ele>
        <time>2026-08-23T13:00:51.000Z</time>
      </trkpt>
      <trkpt lat="47.77869" lon="6.66782">
        <ele>717.6</ele>
        <time>2026-08-23T13:00:53.000Z</time>
      </trkpt>
      <trkpt lat="47.77869" lon="6.66782">
        <ele>717.6</ele>
        <time>2026-08-23T13:00:55.000Z</time>
      </trkpt>
      <trkpt lat="47.77869" lon="6.66783">
        <ele>717.6</ele>
        <time>2026-08-23T13:00:57.000Z</time>
      </trkpt>
      <trkpt lat="47.77869" lon="6.66783">
        <ele>717.4</ele>
        <time>2026-08-23T13:00:59.000Z</time>
      </trkpt>
      <trkpt lat="47.77869" lon="6.66783">
        <ele>717.4</ele>
        <time>2026-08-23T13:01:01.000Z</time>
      </trkpt>
      <trkpt lat="47.7787" lon="6.66784">
        <ele>717.4</ele>
        <time>2026-08-23T13:01:03.000Z</time>
      </trkpt>
      <trkpt lat="47.77871" lon="6.66784">
        <ele>717.4</ele>
        <time>2026-08-23T13:01:05.000Z</time>
      </trkpt>
      <trkpt lat="47.77874" lon="6.66785">
        <ele>717.4</ele>
        <time>2026-08-23T13:01:07.000Z</time>
      </trkpt>
      <trkpt lat="47.77877" lon="6.66785">
        <ele>717.2</ele>
        <time>2026-08-23T13:01:09.000Z</time>
      </trkpt>
      <trkpt lat="47.77879" lon="6.66785">
        <ele>717.2</ele>
        <time>2026-08-23T13:01:11.000Z</time>
      </trkpt>
      <trkpt lat="47.77879" lon="6.66785">
        <ele>717</ele>
        <time>2026-08-23T13:01:13.000Z</time>
      </trkpt>
      <trkpt lat="47.77879" lon="6.66785">
        <ele>717</ele>
        <time>2026-08-23T13:01:15.000Z</time>
      </trkpt>
      <trkpt lat="47.77879" lon="6.66785">
        <ele>717</ele>
        <time>2026-08-23T13:01:17.000Z</time>
      </trkpt>
      <trkpt lat="47.77879" lon="6.66785">
        <ele>716.8</ele>
        <time>2026-08-23T13:01:19.000Z</time>
      </trkpt>
      <trkpt lat="47.77878" lon="6.66785">
        <ele>716.8</ele>
        <time>2026-08-23T13:01:21.000Z</time>
      </trkpt>
      <trkpt lat="47.77878" lon="6.66785">
        <ele>716.8</ele>
        <time>2026-08-23T13:01:23.000Z</time>
      </trkpt>
      <trkpt lat="47.77878" lon="6.66785">
        <ele>716.8</ele>
        <time>2026-08-23T13:01:25.000Z</time>
      </trkpt>
      <trkpt lat="47.77878" lon="6.66785">
        <ele>716.8</ele>
        <time>2026-08-23T13:01:27.000Z</time>
      </trkpt>
      <trkpt lat="47.77878" lon="6.66785">
        <ele>716.8</ele>
        <time>2026-08-23T13:01:29.000Z</time>
      </trkpt>
      <trkpt lat="47.77878" lon="6.66785">
        <ele>716.8</ele>
        <time>2026-08-23T13:01:31.000Z</time>
      </trkpt>
      <trkpt lat="47.77878" lon="6.66785">
        <ele>716.8</ele>
        <time>2026-08-23T13:01:33.000Z</time>
      </trkpt>
      <trkpt lat="47.77878" lon="6.66785">
        <ele>717</ele>
        <time>2026-08-23T13:01:35.000Z</time>
      </trkpt>
      <trkpt lat="47.77878" lon="6.66785">
        <ele>717</ele>
        <time>2026-08-23T13:01:37.000Z</time>
      </trkpt>
      <trkpt lat="47.77878" lon="6.66785">
        <ele>717</ele>
        <time>2026-08-23T13:01:39.000Z</time>
      </trkpt>
      <trkpt lat="47.77878" lon="6.66785">
        <ele>717</ele>
        <time>2026-08-23T13:01:41.000Z</time>
      </trkpt>
      <trkpt lat="47.77879" lon="6.66785">
        <ele>717</ele>
        <time>2026-08-23T13:01:43.000Z</time>
      </trkpt>
      <trkpt lat="47.77879" lon="6.66783">
        <ele>716.8</ele>
        <time>2026-08-23T13:01:45.000Z</time>
      </trkpt>
      <trkpt lat="47.77877" lon="6.66782">
        <ele>716.8</ele>
        <time>2026-08-23T13:01:47.000Z</time>
      </trkpt>
      <trkpt lat="47.77873" lon="6.66783">
        <ele>716.8</ele>
        <time>2026-08-23T13:01:49.000Z</time>
      </trkpt>
      <trkpt lat="47.77869" lon="6.66784">
        <ele>717</ele>
        <time>2026-08-23T13:01:51.000Z</time>
      </trkpt>
      <trkpt lat="47.77865" lon="6.66786">
        <ele>717.2</ele>
        <time>2026-08-23T13:01:53.000Z</time>
      </trkpt>
      <trkpt lat="47.77861" lon="6.66788">
        <ele>717.2</ele>
        <time>2026-08-23T13:01:55.000Z</time>
      </trkpt>
      <trkpt lat="47.77858" lon="6.6679">
        <ele>717.2</ele>
        <time>2026-08-23T13:01:57.000Z</time>
      </trkpt>
      <trkpt lat="47.77853" lon="6.66792">
        <ele>717.2</ele>
        <time>2026-08-23T13:01:59.000Z</time>
      </trkpt>
      <trkpt lat="47.77849" lon="6.66795">
        <ele>717</ele>
        <time>2026-08-23T13:02:01.000Z</time>
      </trkpt>
      <trkpt lat="47.77846" lon="6.66799">
        <ele>717</ele>
        <time>2026-08-23T13:02:03.000Z</time>
      </trkpt>
      <trkpt lat="47.77845" lon="6.66802">
        <ele>716.8</ele>
        <time>2026-08-23T13:02:05.000Z</time>
      </trkpt>
      <trkpt lat="47.77846" lon="6.66803">
        <ele>716.8</ele>
        <time>2026-08-23T13:02:07.000Z</time>
      </trkpt>
      <trkpt lat="47.77846" lon="6.66803">
        <ele>716.8</ele>
        <time>2026-08-23T13:02:09.000Z</time>
      </trkpt>
      <trkpt lat="47.77847" lon="6.66802">
        <ele>716.8</ele>
        <time>2026-08-23T13:02:11.000Z</time>
      </trkpt>
      <trkpt lat="47.77847" lon="6.66802">
        <ele>716.8</ele>
        <time>2026-08-23T13:02:13.000Z</time>
      </trkpt>
      <trkpt lat="47.77847" lon="6.66802">
        <ele>716.6</ele>
        <time>2026-08-23T13:02:15.000Z</time>
      </trkpt>
      <trkpt lat="47.77847" lon="6.66802">
        <ele>716.6</ele>
        <time>2026-08-23T13:02:18.000Z</time>
      </trkpt>
      <trkpt lat="47.77847" lon="6.66802">
        <ele>716.6</ele>
        <time>2026-08-23T13:02:20.000Z</time>
      </trkpt>
      <trkpt lat="47.77847" lon="6.66802">
        <ele>716.6</ele>
        <time>2026-08-23T13:02:22.000Z</time>
      </trkpt>
      <trkpt lat="47.77847" lon="6.66802">
        <ele>716.6</ele>
        <time>2026-08-23T13:02:24.000Z</time>
      </trkpt>
      <trkpt lat="47.77847" lon="6.66802">
        <ele>716.6</ele>
        <time>2026-08-23T13:02:26.000Z</time>
      </trkpt>
      <trkpt lat="47.77847" lon="6.66802">
        <ele>716.6</ele>
        <time>2026-08-23T13:02:28.000Z</time>
      </trkpt>
      <trkpt lat="47.77847" lon="6.66802">
        <ele>716.8</ele>
        <time>2026-08-23T13:02:30.000Z</time>
      </trkpt>
      <trkpt lat="47.77847" lon="6.66802">
        <ele>716.8</ele>
        <time>2026-08-23T13:02:32.000Z</time>
      </trkpt>
      <trkpt lat="47.77847" lon="6.66802">
        <ele>716.8</ele>
        <time>2026-08-23T13:02:34.000Z</time>
      </trkpt>
      <trkpt lat="47.77847" lon="6.66802">
        <ele>716.8</ele>
        <time>2026-08-23T13:02:36.000Z</time>
      </trkpt>
      <trkpt lat="47.77847" lon="6.66802">
        <ele>716.8</ele>
        <time>2026-08-23T13:02:38.000Z</time>
      </trkpt>
      <trkpt lat="47.77847" lon="6.66802">
        <ele>716.8</ele>
        <time>2026-08-23T13:02:40.000Z</time>
      </trkpt>
      <trkpt lat="47.77847" lon="6.66802">
        <ele>716.8</ele>
        <time>2026-08-23T13:02:42.000Z</time>
      </trkpt>
      <trkpt lat="47.77847" lon="6.66801">
        <ele>716.8</ele>
        <time>2026-08-23T13:02:44.000Z</time>
      </trkpt>
      <trkpt lat="47.77847" lon="6.66801">
        <ele>716.8</ele>
        <time>2026-08-23T13:02:46.000Z</time>
      </trkpt>
      <trkpt lat="47.77847" lon="6.66801">
        <ele>716.8</ele>
        <time>2026-08-23T13:02:48.000Z</time>
      </trkpt>
      <trkpt lat="47.77847" lon="6.66802">
        <ele>716.8</ele>
        <time>2026-08-23T13:02:50.000Z</time>
      </trkpt>
      <trkpt lat="47.77847" lon="6.66802">
        <ele>716.8</ele>
        <time>2026-08-23T13:02:52.000Z</time>
      </trkpt>
      <trkpt lat="47.77847" lon="6.66802">
        <ele>716.8</ele>
        <time>2026-08-23T13:02:54.000Z</time>
      </trkpt>
      <trkpt lat="47.77847" lon="6.66802">
        <ele>716.8</ele>
        <time>2026-08-23T13:02:56.000Z</time>
      </trkpt>
      <trkpt lat="47.77847" lon="6.66802">
        <ele>716.8</ele>
        <time>2026-08-23T13:02:58.000Z</time>
      </trkpt>
      <trkpt lat="47.77847" lon="6.66802">
        <ele>716.8</ele>
        <time>2026-08-23T13:03:00.000Z</time>
      </trkpt>
      <trkpt lat="47.77847" lon="6.66802">
        <ele>716.8</ele>
        <time>2026-08-23T13:03:02.000Z</time>
      </trkpt>
      <trkpt lat="47.77847" lon="6.66802">
        <ele>716.8</ele>
        <time>2026-08-23T13:03:04.000Z</time>
      </trkpt>
      <trkpt lat="47.77847" lon="6.66802">
        <ele>716.6</ele>
        <time>2026-08-23T13:03:06.000Z</time>
      </trkpt>
      <trkpt lat="47.77847" lon="6.66802">
        <ele>716.6</ele>
        <time>2026-08-23T13:03:08.000Z</time>
      </trkpt>
      <trkpt lat="47.77847" lon="6.66802">
        <ele>716.8</ele>
        <time>2026-08-23T13:03:10.000Z</time>
      </trkpt>
      <trkpt lat="47.77847" lon="6.66802">
        <ele>716.8</ele>
        <time>2026-08-23T13:03:12.000Z</time>
      </trkpt>
      <trkpt lat="47.77847" lon="6.66802">
        <ele>716.6</ele>
        <time>2026-08-23T13:03:14.000Z</time>
      </trkpt>
      <trkpt lat="47.77847" lon="6.66802">
        <ele>716.6</ele>
        <time>2026-08-23T13:03:16.000Z</time>
      </trkpt>
      <trkpt lat="47.77847" lon="6.66802">
        <ele>716.6</ele>
        <time>2026-08-23T13:03:18.000Z</time>
      </trkpt>
      <trkpt lat="47.77846" lon="6.66803">
        <ele>716.6</ele>
        <time>2026-08-23T13:03:20.000Z</time>
      </trkpt>
      <trkpt lat="47.77843" lon="6.66804">
        <ele>716.4</ele>
        <time>2026-08-23T13:03:22.000Z</time>
      </trkpt>
      <trkpt lat="47.77837" lon="6.66806">
        <ele>716.2</ele>
        <time>2026-08-23T13:03:24.000Z</time>
      </trkpt>
      <trkpt lat="47.77831" lon="6.66809">
        <ele>715.8</ele>
        <time>2026-08-23T13:03:26.000Z</time>
      </trkpt>
      <trkpt lat="47.77824" lon="6.66817">
        <ele>715.2</ele>
        <time>2026-08-23T13:03:28.000Z</time>
      </trkpt>
      <trkpt lat="47.77816" lon="6.66826">
        <ele>714.4</ele>
        <time>2026-08-23T13:03:30.000Z</time>
      </trkpt>
      <trkpt lat="47.77809" lon="6.66836">
        <ele>713.4</ele>
        <time>2026-08-23T13:03:32.000Z</time>
      </trkpt>
      <trkpt lat="47.77802" lon="6.66849">
        <ele>712</ele>
        <time>2026-08-23T13:03:34.000Z</time>
      </trkpt>
      <trkpt lat="47.77798" lon="6.66867">
        <ele>710.4</ele>
        <time>2026-08-23T13:03:36.000Z</time>
      </trkpt>
      <trkpt lat="47.77796" lon="6.66888">
        <ele>709</ele>
        <time>2026-08-23T13:03:38.000Z</time>
      </trkpt>
      <trkpt lat="47.77797" lon="6.66909">
        <ele>708</ele>
        <time>2026-08-23T13:03:40.000Z</time>
      </trkpt>
      <trkpt lat="47.77799" lon="6.6693">
        <ele>706.8</ele>
        <time>2026-08-23T13:03:42.000Z</time>
      </trkpt>
      <trkpt lat="47.77801" lon="6.66952">
        <ele>705.4</ele>
        <time>2026-08-23T13:03:44.000Z</time>
      </trkpt>
      <trkpt lat="47.77802" lon="6.66974">
        <ele>704</ele>
        <time>2026-08-23T13:03:46.000Z</time>
      </trkpt>
      <trkpt lat="47.77802" lon="6.66995">
        <ele>702.8</ele>
        <time>2026-08-23T13:03:48.000Z</time>
      </trkpt>
      <trkpt lat="47.77799" lon="6.67011">
        <ele>701.6</ele>
        <time>2026-08-23T13:03:50.000Z</time>
      </trkpt>
      <trkpt lat="47.77794" lon="6.67021">
        <ele>700.4</ele>
        <time>2026-08-23T13:03:52.000Z</time>
      </trkpt>
      <trkpt lat="47.77787" lon="6.67027">
        <ele>699</ele>
        <time>2026-08-23T13:03:54.000Z</time>
      </trkpt>
      <trkpt lat="47.77779" lon="6.67031">
        <ele>697.6</ele>
        <time>2026-08-23T13:03:56.000Z</time>
      </trkpt>
      <trkpt lat="47.7777" lon="6.67035">
        <ele>696.2</ele>
        <time>2026-08-23T13:03:58.000Z</time>
      </trkpt>
      <trkpt lat="47.77761" lon="6.67042">
        <ele>694.6</ele>
        <time>2026-08-23T13:04:00.000Z</time>
      </trkpt>
      <trkpt lat="47.77753" lon="6.67051">
        <ele>693.2</ele>
        <time>2026-08-23T13:04:02.000Z</time>
      </trkpt>
      <trkpt lat="47.77748" lon="6.67059">
        <ele>691.8</ele>
        <time>2026-08-23T13:04:04.000Z</time>
      </trkpt>
      <trkpt lat="47.77742" lon="6.67063">
        <ele>690.4</ele>
        <time>2026-08-23T13:04:06.000Z</time>
      </trkpt>
      <trkpt lat="47.77738" lon="6.67056">
        <ele>688.8</ele>
        <time>2026-08-23T13:04:08.000Z</time>
      </trkpt>
      <trkpt lat="47.7774" lon="6.67042">
        <ele>687.4</ele>
        <time>2026-08-23T13:04:10.000Z</time>
      </trkpt>
      <trkpt lat="47.77744" lon="6.67026">
        <ele>686</ele>
        <time>2026-08-23T13:04:12.000Z</time>
      </trkpt>
      <trkpt lat="47.77744" lon="6.67013">
        <ele>684.6</ele>
        <time>2026-08-23T13:04:14.000Z</time>
      </trkpt>
      <trkpt lat="47.77737" lon="6.67002">
        <ele>683.2</ele>
        <time>2026-08-23T13:04:16.000Z</time>
      </trkpt>
      <trkpt lat="47.77728" lon="6.66997">
        <ele>682.2</ele>
        <time>2026-08-23T13:04:18.000Z</time>
      </trkpt>
      <trkpt lat="47.77719" lon="6.66995">
        <ele>681.2</ele>
        <time>2026-08-23T13:04:20.000Z</time>
      </trkpt>
      <trkpt lat="47.77712" lon="6.66991">
        <ele>680.2</ele>
        <time>2026-08-23T13:04:22.000Z</time>
      </trkpt>
      <trkpt lat="47.77707" lon="6.66983">
        <ele>678.8</ele>
        <time>2026-08-23T13:04:24.000Z</time>
      </trkpt>
      <trkpt lat="47.77701" lon="6.66972">
        <ele>677.4</ele>
        <time>2026-08-23T13:04:26.000Z</time>
      </trkpt>
      <trkpt lat="47.77694" lon="6.66966">
        <ele>675.8</ele>
        <time>2026-08-23T13:04:28.000Z</time>
      </trkpt>
      <trkpt lat="47.77684" lon="6.66965">
        <ele>674.4</ele>
        <time>2026-08-23T13:04:30.000Z</time>
      </trkpt>
      <trkpt lat="47.77673" lon="6.66967">
        <ele>673</ele>
        <time>2026-08-23T13:04:32.000Z</time>
      </trkpt>
      <trkpt lat="47.77662" lon="6.66968">
        <ele>671.6</ele>
        <time>2026-08-23T13:04:34.000Z</time>
      </trkpt>
      <trkpt lat="47.77653" lon="6.66964">
        <ele>670.2</ele>
        <time>2026-08-23T13:04:36.000Z</time>
      </trkpt>
      <trkpt lat="47.77643" lon="6.66955">
        <ele>668.6</ele>
        <time>2026-08-23T13:04:39.000Z</time>
      </trkpt>
      <trkpt lat="47.77634" lon="6.66943">
        <ele>667.4</ele>
        <time>2026-08-23T13:04:41.000Z</time>
      </trkpt>
      <trkpt lat="47.77626" lon="6.66931">
        <ele>665.8</ele>
        <time>2026-08-23T13:04:43.000Z</time>
      </trkpt>
      <trkpt lat="47.77618" lon="6.66921">
        <ele>664.6</ele>
        <time>2026-08-23T13:04:45.000Z</time>
      </trkpt>
      <trkpt lat="47.77609" lon="6.66918">
        <ele>663.4</ele>
        <time>2026-08-23T13:04:47.000Z</time>
      </trkpt>
      <trkpt lat="47.77601" lon="6.66922">
        <ele>661.8</ele>
        <time>2026-08-23T13:04:49.000Z</time>
      </trkpt>
      <trkpt lat="47.77594" lon="6.66932">
        <ele>660.2</ele>
        <time>2026-08-23T13:04:51.000Z</time>
      </trkpt>
      <trkpt lat="47.77589" lon="6.66945">
        <ele>658.6</ele>
        <time>2026-08-23T13:04:53.000Z</time>
      </trkpt>
      <trkpt lat="47.77586" lon="6.66958">
        <ele>656.8</ele>
        <time>2026-08-23T13:04:55.000Z</time>
      </trkpt>
      <trkpt lat="47.77585" lon="6.66967">
        <ele>655.2</ele>
        <time>2026-08-23T13:04:57.000Z</time>
      </trkpt>
      <trkpt lat="47.77584" lon="6.66975">
        <ele>653.8</ele>
        <time>2026-08-23T13:04:59.000Z</time>
      </trkpt>
      <trkpt lat="47.77582" lon="6.66984">
        <ele>652.2</ele>
        <time>2026-08-23T13:05:01.000Z</time>
      </trkpt>
      <trkpt lat="47.7758" lon="6.66993">
        <ele>650.8</ele>
        <time>2026-08-23T13:05:03.000Z</time>
      </trkpt>
      <trkpt lat="47.77577" lon="6.67003">
        <ele>649.2</ele>
        <time>2026-08-23T13:05:05.000Z</time>
      </trkpt>
      <trkpt lat="47.77573" lon="6.67011">
        <ele>647.4</ele>
        <time>2026-08-23T13:05:07.000Z</time>
      </trkpt>
      <trkpt lat="47.77567" lon="6.67017">
        <ele>645.8</ele>
        <time>2026-08-23T13:05:09.000Z</time>
      </trkpt>
      <trkpt lat="47.77559" lon="6.67022">
        <ele>644.2</ele>
        <time>2026-08-23T13:05:11.000Z</time>
      </trkpt>
      <trkpt lat="47.7755" lon="6.67023">
        <ele>642.8</ele>
        <time>2026-08-23T13:05:13.000Z</time>
      </trkpt>
      <trkpt lat="47.77541" lon="6.6702">
        <ele>641.4</ele>
        <time>2026-08-23T13:05:15.000Z</time>
      </trkpt>
      <trkpt lat="47.77533" lon="6.67015">
        <ele>640.2</ele>
        <time>2026-08-23T13:05:17.000Z</time>
      </trkpt>
      <trkpt lat="47.77526" lon="6.6701">
        <ele>639</ele>
        <time>2026-08-23T13:05:19.000Z</time>
      </trkpt>
      <trkpt lat="47.77517" lon="6.67007">
        <ele>637.8</ele>
        <time>2026-08-23T13:05:21.000Z</time>
      </trkpt>
      <trkpt lat="47.77509" lon="6.67007">
        <ele>636.6</ele>
        <time>2026-08-23T13:05:23.000Z</time>
      </trkpt>
      <trkpt lat="47.77501" lon="6.67011">
        <ele>635.4</ele>
        <time>2026-08-23T13:05:25.000Z</time>
      </trkpt>
      <trkpt lat="47.77495" lon="6.67017">
        <ele>634</ele>
        <time>2026-08-23T13:05:27.000Z</time>
      </trkpt>
      <trkpt lat="47.7749" lon="6.67025">
        <ele>632.8</ele>
        <time>2026-08-23T13:05:29.000Z</time>
      </trkpt>
      <trkpt lat="47.77486" lon="6.67038">
        <ele>631.8</ele>
        <time>2026-08-23T13:05:31.000Z</time>
      </trkpt>
      <trkpt lat="47.77481" lon="6.67049">
        <ele>630.4</ele>
        <time>2026-08-23T13:05:33.000Z</time>
      </trkpt>
      <trkpt lat="47.77476" lon="6.67063">
        <ele>628.8</ele>
        <time>2026-08-23T13:05:35.000Z</time>
      </trkpt>
      <trkpt lat="47.7747" lon="6.67078">
        <ele>627</ele>
        <time>2026-08-23T13:05:37.000Z</time>
      </trkpt>
      <trkpt lat="47.77464" lon="6.67094">
        <ele>624.8</ele>
        <time>2026-08-23T13:05:39.000Z</time>
      </trkpt>
      <trkpt lat="47.77458" lon="6.6711">
        <ele>623</ele>
        <time>2026-08-23T13:05:41.000Z</time>
      </trkpt>
      <trkpt lat="47.77451" lon="6.67127">
        <ele>621.4</ele>
        <time>2026-08-23T13:05:43.000Z</time>
      </trkpt>
      <trkpt lat="47.77446" lon="6.67142">
        <ele>620</ele>
        <time>2026-08-23T13:05:45.000Z</time>
      </trkpt>
      <trkpt lat="47.77441" lon="6.67157">
        <ele>618.6</ele>
        <time>2026-08-23T13:05:47.000Z</time>
      </trkpt>
      <trkpt lat="47.77438" lon="6.67171">
        <ele>617.2</ele>
        <time>2026-08-23T13:05:49.000Z</time>
      </trkpt>
      <trkpt lat="47.77434" lon="6.67186">
        <ele>615.8</ele>
        <time>2026-08-23T13:05:51.000Z</time>
      </trkpt>
      <trkpt lat="47.77429" lon="6.67202">
        <ele>614.2</ele>
        <time>2026-08-23T13:05:53.000Z</time>
      </trkpt>
      <trkpt lat="47.77424" lon="6.67217">
        <ele>612.8</ele>
        <time>2026-08-23T13:05:55.000Z</time>
      </trkpt>
      <trkpt lat="47.77422" lon="6.67229">
        <ele>611.6</ele>
        <time>2026-08-23T13:05:57.000Z</time>
      </trkpt>
      <trkpt lat="47.77421" lon="6.67244">
        <ele>610.6</ele>
        <time>2026-08-23T13:05:59.000Z</time>
      </trkpt>
      <trkpt lat="47.7742" lon="6.6726">
        <ele>609.8</ele>
        <time>2026-08-23T13:06:01.000Z</time>
      </trkpt>
      <trkpt lat="47.77419" lon="6.67276">
        <ele>609.4</ele>
        <time>2026-08-23T13:06:03.000Z</time>
      </trkpt>
      <trkpt lat="47.77418" lon="6.67287">
        <ele>609.2</ele>
        <time>2026-08-23T13:06:05.000Z</time>
      </trkpt>
      <trkpt lat="47.77416" lon="6.67296">
        <ele>608.8</ele>
        <time>2026-08-23T13:06:07.000Z</time>
      </trkpt>
      <trkpt lat="47.77412" lon="6.67305">
        <ele>608.2</ele>
        <time>2026-08-23T13:06:09.000Z</time>
      </trkpt>
      <trkpt lat="47.77408" lon="6.67316">
        <ele>607.6</ele>
        <time>2026-08-23T13:06:11.000Z</time>
      </trkpt>
      <trkpt lat="47.77405" lon="6.67326">
        <ele>607</ele>
        <time>2026-08-23T13:06:13.000Z</time>
      </trkpt>
      <trkpt lat="47.77402" lon="6.67336">
        <ele>606.4</ele>
        <time>2026-08-23T13:06:15.000Z</time>
      </trkpt>
      <trkpt lat="47.77399" lon="6.67346">
        <ele>605.8</ele>
        <time>2026-08-23T13:06:17.000Z</time>
      </trkpt>
      <trkpt lat="47.77395" lon="6.67358">
        <ele>605</ele>
        <time>2026-08-23T13:06:19.000Z</time>
      </trkpt>
      <trkpt lat="47.77392" lon="6.6737">
        <ele>604.2</ele>
        <time>2026-08-23T13:06:21.000Z</time>
      </trkpt>
      <trkpt lat="47.77388" lon="6.67382">
        <ele>603.2</ele>
        <time>2026-08-23T13:06:23.000Z</time>
      </trkpt>
      <trkpt lat="47.77384" lon="6.67395">
        <ele>602</ele>
        <time>2026-08-23T13:06:25.000Z</time>
      </trkpt>
      <trkpt lat="47.77379" lon="6.67408">
        <ele>600</ele>
        <time>2026-08-23T13:06:27.000Z</time>
      </trkpt>
      <trkpt lat="47.77374" lon="6.67423">
        <ele>598</ele>
        <time>2026-08-23T13:06:29.000Z</time>
      </trkpt>
      <trkpt lat="47.77369" lon="6.67438">
        <ele>596</ele>
        <time>2026-08-23T13:06:31.000Z</time>
      </trkpt>
      <trkpt lat="47.77364" lon="6.67453">
        <ele>594</ele>
        <time>2026-08-23T13:06:33.000Z</time>
      </trkpt>
      <trkpt lat="47.77361" lon="6.67467">
        <ele>592</ele>
        <time>2026-08-23T13:06:35.000Z</time>
      </trkpt>
      <trkpt lat="47.77357" lon="6.67479">
        <ele>590</ele>
        <time>2026-08-23T13:06:37.000Z</time>
      </trkpt>
      <trkpt lat="47.77353" lon="6.6749">
        <ele>588</ele>
        <time>2026-08-23T13:06:39.000Z</time>
      </trkpt>
      <trkpt lat="47.7735" lon="6.675">
        <ele>586</ele>
        <time>2026-08-23T13:06:41.000Z</time>
      </trkpt>
      <trkpt lat="47.77345" lon="6.67508">
        <ele>584</ele>
        <time>2026-08-23T13:06:43.000Z</time>
      </trkpt>
      <trkpt lat="47.77338" lon="6.67516">
        <ele>581.8</ele>
        <time>2026-08-23T13:06:45.000Z</time>
      </trkpt>
      <trkpt lat="47.7733" lon="6.67524">
        <ele>579.8</ele>
        <time>2026-08-23T13:06:48.000Z</time>
      </trkpt>
      <trkpt lat="47.77322" lon="6.67529">
        <ele>578</ele>
        <time>2026-08-23T13:06:50.000Z</time>
      </trkpt>
      <trkpt lat="47.77314" lon="6.67535">
        <ele>576.2</ele>
        <time>2026-08-23T13:06:52.000Z</time>
      </trkpt>
      <trkpt lat="47.77306" lon="6.6754">
        <ele>574.4</ele>
        <time>2026-08-23T13:06:54.000Z</time>
      </trkpt>
      <trkpt lat="47.77299" lon="6.67545">
        <ele>572.6</ele>
        <time>2026-08-23T13:06:56.000Z</time>
      </trkpt>
      <trkpt lat="47.77291" lon="6.67552">
        <ele>570.6</ele>
        <time>2026-08-23T13:06:58.000Z</time>
      </trkpt>
      <trkpt lat="47.77283" lon="6.67561">
        <ele>568.8</ele>
        <time>2026-08-23T13:07:00.000Z</time>
      </trkpt>
      <trkpt lat="47.77274" lon="6.67573">
        <ele>567.2</ele>
        <time>2026-08-23T13:07:02.000Z</time>
      </trkpt>
      <trkpt lat="47.77266" lon="6.6759">
        <ele>565</ele>
        <time>2026-08-23T13:07:04.000Z</time>
      </trkpt>
      <trkpt lat="47.77258" lon="6.67606">
        <ele>562.8</ele>
        <time>2026-08-23T13:07:06.000Z</time>
      </trkpt>
      <trkpt lat="47.77248" lon="6.67621">
        <ele>560.8</ele>
        <time>2026-08-23T13:07:08.000Z</time>
      </trkpt>
      <trkpt lat="47.77238" lon="6.67635">
        <ele>558.6</ele>
        <time>2026-08-23T13:07:10.000Z</time>
      </trkpt>
      <trkpt lat="47.77228" lon="6.6765">
        <ele>556.8</ele>
        <time>2026-08-23T13:07:12.000Z</time>
      </trkpt>
      <trkpt lat="47.7722" lon="6.67664">
        <ele>555.2</ele>
        <time>2026-08-23T13:07:14.000Z</time>
      </trkpt>
      <trkpt lat="47.77211" lon="6.67678">
        <ele>553.4</ele>
        <time>2026-08-23T13:07:16.000Z</time>
      </trkpt>
      <trkpt lat="47.77203" lon="6.6769">
        <ele>551.8</ele>
        <time>2026-08-23T13:07:18.000Z</time>
      </trkpt>
      <trkpt lat="47.77193" lon="6.67701">
        <ele>550.2</ele>
        <time>2026-08-23T13:07:20.000Z</time>
      </trkpt>
      <trkpt lat="47.77184" lon="6.67711">
        <ele>548.8</ele>
        <time>2026-08-23T13:07:22.000Z</time>
      </trkpt>
      <trkpt lat="47.77174" lon="6.67719">
        <ele>547.4</ele>
        <time>2026-08-23T13:07:24.000Z</time>
      </trkpt>
      <trkpt lat="47.77165" lon="6.67726">
        <ele>546.2</ele>
        <time>2026-08-23T13:07:26.000Z</time>
      </trkpt>
      <trkpt lat="47.77156" lon="6.67734">
        <ele>545.2</ele>
        <time>2026-08-23T13:07:28.000Z</time>
      </trkpt>
      <trkpt lat="47.77146" lon="6.67744">
        <ele>544.2</ele>
        <time>2026-08-23T13:07:30.000Z</time>
      </trkpt>
      <trkpt lat="47.77135" lon="6.67755">
        <ele>543</ele>
        <time>2026-08-23T13:07:32.000Z</time>
      </trkpt>
      <trkpt lat="47.77125" lon="6.67764">
        <ele>542.4</ele>
        <time>2026-08-23T13:07:34.000Z</time>
      </trkpt>
      <trkpt lat="47.77116" lon="6.67774">
        <ele>541.8</ele>
        <time>2026-08-23T13:07:36.000Z</time>
      </trkpt>
      <trkpt lat="47.77105" lon="6.67786">
        <ele>541.6</ele>
        <time>2026-08-23T13:07:38.000Z</time>
      </trkpt>
      <trkpt lat="47.77092" lon="6.67797">
        <ele>541.4</ele>
        <time>2026-08-23T13:07:40.000Z</time>
      </trkpt>
      <trkpt lat="47.77079" lon="6.67801">
        <ele>540.8</ele>
        <time>2026-08-23T13:07:42.000Z</time>
      </trkpt>
      <trkpt lat="47.77067" lon="6.67801">
        <ele>540.4</ele>
        <time>2026-08-23T13:07:44.000Z</time>
      </trkpt>
      <trkpt lat="47.77057" lon="6.678">
        <ele>540</ele>
        <time>2026-08-23T13:07:46.000Z</time>
      </trkpt>
      <trkpt lat="47.77049" lon="6.67799">
        <ele>540</ele>
        <time>2026-08-23T13:07:48.000Z</time>
      </trkpt>
      <trkpt lat="47.77043" lon="6.67796">
        <ele>540</ele>
        <time>2026-08-23T13:07:50.000Z</time>
      </trkpt>
      <trkpt lat="47.77037" lon="6.67792">
        <ele>539.8</ele>
        <time>2026-08-23T13:07:52.000Z</time>
      </trkpt>
      <trkpt lat="47.7703" lon="6.67788">
        <ele>539.6</ele>
        <time>2026-08-23T13:07:54.000Z</time>
      </trkpt>
      <trkpt lat="47.77023" lon="6.67783">
        <ele>539.6</ele>
        <time>2026-08-23T13:07:56.000Z</time>
      </trkpt>
      <trkpt lat="47.77016" lon="6.67778">
        <ele>539.4</ele>
        <time>2026-08-23T13:07:58.000Z</time>
      </trkpt>
      <trkpt lat="47.77009" lon="6.67773">
        <ele>539.2</ele>
        <time>2026-08-23T13:08:00.000Z</time>
      </trkpt>
      <trkpt lat="47.77001" lon="6.67768">
        <ele>539.2</ele>
        <time>2026-08-23T13:08:02.000Z</time>
      </trkpt>
      <trkpt lat="47.76993" lon="6.67764">
        <ele>539.2</ele>
        <time>2026-08-23T13:08:04.000Z</time>
      </trkpt>
      <trkpt lat="47.76985" lon="6.6776">
        <ele>539.2</ele>
        <time>2026-08-23T13:08:06.000Z</time>
      </trkpt>
      <trkpt lat="47.76977" lon="6.67758">
        <ele>539.4</ele>
        <time>2026-08-23T13:08:08.000Z</time>
      </trkpt>
      <trkpt lat="47.76969" lon="6.67758">
        <ele>539.6</ele>
        <time>2026-08-23T13:08:10.000Z</time>
      </trkpt>
      <trkpt lat="47.7696" lon="6.67758">
        <ele>539.8</ele>
        <time>2026-08-23T13:08:12.000Z</time>
      </trkpt>
      <trkpt lat="47.7695" lon="6.67757">
        <ele>539.8</ele>
        <time>2026-08-23T13:08:14.000Z</time>
      </trkpt>
      <trkpt lat="47.7694" lon="6.67753">
        <ele>539.8</ele>
        <time>2026-08-23T13:08:16.000Z</time>
      </trkpt>
      <trkpt lat="47.7693" lon="6.67749">
        <ele>539.8</ele>
        <time>2026-08-23T13:08:18.000Z</time>
      </trkpt>
      <trkpt lat="47.7692" lon="6.67745">
        <ele>539.8</ele>
        <time>2026-08-23T13:08:20.000Z</time>
      </trkpt>
      <trkpt lat="47.76911" lon="6.67742">
        <ele>539.8</ele>
        <time>2026-08-23T13:08:22.000Z</time>
      </trkpt>
      <trkpt lat="47.76901" lon="6.67738">
        <ele>539.8</ele>
        <time>2026-08-23T13:08:24.000Z</time>
      </trkpt>
      <trkpt lat="47.76891" lon="6.67735">
        <ele>539.8</ele>
        <time>2026-08-23T13:08:27.000Z</time>
      </trkpt>
      <trkpt lat="47.76881" lon="6.67733">
        <ele>539.6</ele>
        <time>2026-08-23T13:08:29.000Z</time>
      </trkpt>
      <trkpt lat="47.76871" lon="6.67733">
        <ele>539.6</ele>
        <time>2026-08-23T13:08:31.000Z</time>
      </trkpt>
      <trkpt lat="47.76861" lon="6.67732">
        <ele>539.6</ele>
        <time>2026-08-23T13:08:33.000Z</time>
      </trkpt>
      <trkpt lat="47.76851" lon="6.67733">
        <ele>539.6</ele>
        <time>2026-08-23T13:08:35.000Z</time>
      </trkpt>
      <trkpt lat="47.7684" lon="6.67734">
        <ele>539.8</ele>
        <time>2026-08-23T13:08:37.000Z</time>
      </trkpt>
      <trkpt lat="47.7683" lon="6.67732">
        <ele>540.2</ele>
        <time>2026-08-23T13:08:39.000Z</time>
      </trkpt>
      <trkpt lat="47.76822" lon="6.67728">
        <ele>540.8</ele>
        <time>2026-08-23T13:08:41.000Z</time>
      </trkpt>
      <trkpt lat="47.76815" lon="6.67723">
        <ele>541.4</ele>
        <time>2026-08-23T13:08:43.000Z</time>
      </trkpt>
      <trkpt lat="47.7681" lon="6.67719">
        <ele>542</ele>
        <time>2026-08-23T13:08:45.000Z</time>
      </trkpt>
      <trkpt lat="47.76804" lon="6.67717">
        <ele>542.4</ele>
        <time>2026-08-23T13:08:47.000Z</time>
      </trkpt>
      <trkpt lat="47.76799" lon="6.67715">
        <ele>542.6</ele>
        <time>2026-08-23T13:08:49.000Z</time>
      </trkpt>
      <trkpt lat="47.76792" lon="6.67713">
        <ele>543</ele>
        <time>2026-08-23T13:08:51.000Z</time>
      </trkpt>
      <trkpt lat="47.76785" lon="6.67711">
        <ele>543</ele>
        <time>2026-08-23T13:08:53.000Z</time>
      </trkpt>
      <trkpt lat="47.76777" lon="6.67711">
        <ele>543</ele>
        <time>2026-08-23T13:08:55.000Z</time>
      </trkpt>
      <trkpt lat="47.7677" lon="6.67711">
        <ele>543.2</ele>
        <time>2026-08-23T13:08:57.000Z</time>
      </trkpt>
      <trkpt lat="47.76762" lon="6.67712">
        <ele>543.4</ele>
        <time>2026-08-23T13:08:59.000Z</time>
      </trkpt>
      <trkpt lat="47.76755" lon="6.67712">
        <ele>543.6</ele>
        <time>2026-08-23T13:09:01.000Z</time>
      </trkpt>
      <trkpt lat="47.76749" lon="6.67712">
        <ele>543.8</ele>
        <time>2026-08-23T13:09:03.000Z</time>
      </trkpt>
      <trkpt lat="47.76742" lon="6.67712">
        <ele>543.6</ele>
        <time>2026-08-23T13:09:05.000Z</time>
      </trkpt>
      <trkpt lat="47.76734" lon="6.67713">
        <ele>543.2</ele>
        <time>2026-08-23T13:09:07.000Z</time>
      </trkpt>
      <trkpt lat="47.76723" lon="6.67713">
        <ele>542.6</ele>
        <time>2026-08-23T13:09:09.000Z</time>
      </trkpt>
      <trkpt lat="47.76712" lon="6.67712">
        <ele>542.2</ele>
        <time>2026-08-23T13:09:11.000Z</time>
      </trkpt>
      <trkpt lat="47.76702" lon="6.67711">
        <ele>542.2</ele>
        <time>2026-08-23T13:09:13.000Z</time>
      </trkpt>
      <trkpt lat="47.76693" lon="6.67709">
        <ele>542.2</ele>
        <time>2026-08-23T13:09:15.000Z</time>
      </trkpt>
      <trkpt lat="47.76686" lon="6.67707">
        <ele>542.6</ele>
        <time>2026-08-23T13:09:17.000Z</time>
      </trkpt>
      <trkpt lat="47.76678" lon="6.67705">
        <ele>543</ele>
        <time>2026-08-23T13:09:19.000Z</time>
      </trkpt>
      <trkpt lat="47.76672" lon="6.67704">
        <ele>543.4</ele>
        <time>2026-08-23T13:09:21.000Z</time>
      </trkpt>
      <trkpt lat="47.76665" lon="6.67701">
        <ele>543.8</ele>
        <time>2026-08-23T13:09:23.000Z</time>
      </trkpt>
      <trkpt lat="47.76659" lon="6.67699">
        <ele>544.2</ele>
        <time>2026-08-23T13:09:25.000Z</time>
      </trkpt>
      <trkpt lat="47.76654" lon="6.67697">
        <ele>544.2</ele>
        <time>2026-08-23T13:09:27.000Z</time>
      </trkpt>
      <trkpt lat="47.76649" lon="6.67693">
        <ele>544.2</ele>
        <time>2026-08-23T13:09:29.000Z</time>
      </trkpt>
      <trkpt lat="47.76643" lon="6.67689">
        <ele>543.8</ele>
        <time>2026-08-23T13:09:31.000Z</time>
      </trkpt>
      <trkpt lat="47.76638" lon="6.67686">
        <ele>543.6</ele>
        <time>2026-08-23T13:09:33.000Z</time>
      </trkpt>
      <trkpt lat="47.76634" lon="6.67682">
        <ele>543.4</ele>
        <time>2026-08-23T13:09:35.000Z</time>
      </trkpt>
      <trkpt lat="47.76632" lon="6.67678">
        <ele>543.2</ele>
        <time>2026-08-23T13:09:37.000Z</time>
      </trkpt>
      <trkpt lat="47.76629" lon="6.67674">
        <ele>542.8</ele>
        <time>2026-08-23T13:09:39.000Z</time>
      </trkpt>
      <trkpt lat="47.76626" lon="6.67669">
        <ele>542.4</ele>
        <time>2026-08-23T13:09:41.000Z</time>
      </trkpt>
      <trkpt lat="47.76623" lon="6.67665">
        <ele>542.2</ele>
        <time>2026-08-23T13:09:43.000Z</time>
      </trkpt>
      <trkpt lat="47.7662" lon="6.6766">
        <ele>541.8</ele>
        <time>2026-08-23T13:09:45.000Z</time>
      </trkpt>
      <trkpt lat="47.76617" lon="6.67655">
        <ele>541.6</ele>
        <time>2026-08-23T13:09:47.000Z</time>
      </trkpt>
      <trkpt lat="47.76614" lon="6.6765">
        <ele>541.2</ele>
        <time>2026-08-23T13:09:49.000Z</time>
      </trkpt>
      <trkpt lat="47.76611" lon="6.67645">
        <ele>540.8</ele>
        <time>2026-08-23T13:09:51.000Z</time>
      </trkpt>
      <trkpt lat="47.76608" lon="6.67641">
        <ele>540.6</ele>
        <time>2026-08-23T13:09:53.000Z</time>
      </trkpt>
      <trkpt lat="47.76605" lon="6.67638">
        <ele>540.4</ele>
        <time>2026-08-23T13:09:55.000Z</time>
      </trkpt>
      <trkpt lat="47.76602" lon="6.67634">
        <ele>540</ele>
        <time>2026-08-23T13:09:57.000Z</time>
      </trkpt>
      <trkpt lat="47.76597" lon="6.6763">
        <ele>539.6</ele>
        <time>2026-08-23T13:09:59.000Z</time>
      </trkpt>
      <trkpt lat="47.76592" lon="6.67625">
        <ele>539.2</ele>
        <time>2026-08-23T13:10:01.000Z</time>
      </trkpt>
      <trkpt lat="47.76587" lon="6.67619">
        <ele>538.6</ele>
        <time>2026-08-23T13:10:03.000Z</time>
      </trkpt>
      <trkpt lat="47.76583" lon="6.67612">
        <ele>538</ele>
        <time>2026-08-23T13:10:05.000Z</time>
      </trkpt>
      <trkpt lat="47.76578" lon="6.67607">
        <ele>537.4</ele>
        <time>2026-08-23T13:10:07.000Z</time>
      </trkpt>
      <trkpt lat="47.76574" lon="6.67602">
        <ele>536.8</ele>
        <time>2026-08-23T13:10:09.000Z</time>
      </trkpt>
      <trkpt lat="47.7657" lon="6.67597">
        <ele>536.4</ele>
        <time>2026-08-23T13:10:11.000Z</time>
      </trkpt>
      <trkpt lat="47.76565" lon="6.67591">
        <ele>535.8</ele>
        <time>2026-08-23T13:10:13.000Z</time>
      </trkpt>
      <trkpt lat="47.76561" lon="6.67584">
        <ele>535.2</ele>
        <time>2026-08-23T13:10:15.000Z</time>
      </trkpt>
      <trkpt lat="47.76557" lon="6.67577">
        <ele>534.8</ele>
        <time>2026-08-23T13:10:17.000Z</time>
      </trkpt>
      <trkpt lat="47.76553" lon="6.67571">
        <ele>534.6</ele>
        <time>2026-08-23T13:10:19.000Z</time>
      </trkpt>
      <trkpt lat="47.7655" lon="6.67565">
        <ele>534.2</ele>
        <time>2026-08-23T13:10:21.000Z</time>
      </trkpt>
      <trkpt lat="47.76547" lon="6.6756">
        <ele>533.8</ele>
        <time>2026-08-23T13:10:23.000Z</time>
      </trkpt>
      <trkpt lat="47.76544" lon="6.67555">
        <ele>533</ele>
        <time>2026-08-23T13:10:25.000Z</time>
      </trkpt>
      <trkpt lat="47.76539" lon="6.67549">
        <ele>532.4</ele>
        <time>2026-08-23T13:10:27.000Z</time>
      </trkpt>
      <trkpt lat="47.76534" lon="6.67542">
        <ele>532</ele>
        <time>2026-08-23T13:10:29.000Z</time>
      </trkpt>
      <trkpt lat="47.76527" lon="6.67533">
        <ele>531.2</ele>
        <time>2026-08-23T13:10:31.000Z</time>
      </trkpt>
      <trkpt lat="47.7652" lon="6.67523">
        <ele>530.4</ele>
        <time>2026-08-23T13:10:34.000Z</time>
      </trkpt>
      <trkpt lat="47.76512" lon="6.67511">
        <ele>529.2</ele>
        <time>2026-08-23T13:10:36.000Z</time>
      </trkpt>
      <trkpt lat="47.76503" lon="6.675">
        <ele>528.4</ele>
        <time>2026-08-23T13:10:38.000Z</time>
      </trkpt>
      <trkpt lat="47.76493" lon="6.67491">
        <ele>528</ele>
        <time>2026-08-23T13:10:40.000Z</time>
      </trkpt>
      <trkpt lat="47.76481" lon="6.67488">
        <ele>527.2</ele>
        <time>2026-08-23T13:10:42.000Z</time>
      </trkpt>
      <trkpt lat="47.76468" lon="6.67489">
        <ele>526.6</ele>
        <time>2026-08-23T13:10:44.000Z</time>
      </trkpt>
      <trkpt lat="47.76455" lon="6.6749">
        <ele>526.2</ele>
        <time>2026-08-23T13:10:46.000Z</time>
      </trkpt>
      <trkpt lat="47.76442" lon="6.67487">
        <ele>525.4</ele>
        <time>2026-08-23T13:10:48.000Z</time>
      </trkpt>
      <trkpt lat="47.76429" lon="6.67481">
        <ele>524.6</ele>
        <time>2026-08-23T13:10:50.000Z</time>
      </trkpt>
      <trkpt lat="47.76415" lon="6.67472">
        <ele>523.6</ele>
        <time>2026-08-23T13:10:52.000Z</time>
      </trkpt>
      <trkpt lat="47.76403" lon="6.67461">
        <ele>522.8</ele>
        <time>2026-08-23T13:10:54.000Z</time>
      </trkpt>
      <trkpt lat="47.76395" lon="6.67447">
        <ele>521.8</ele>
        <time>2026-08-23T13:10:56.000Z</time>
      </trkpt>
      <trkpt lat="47.76388" lon="6.67431">
        <ele>521.2</ele>
        <time>2026-08-23T13:10:58.000Z</time>
      </trkpt>
      <trkpt lat="47.76382" lon="6.67414">
        <ele>520.6</ele>
        <time>2026-08-23T13:11:00.000Z</time>
      </trkpt>
      <trkpt lat="47.76376" lon="6.67397">
        <ele>520.2</ele>
        <time>2026-08-23T13:11:02.000Z</time>
      </trkpt>
      <trkpt lat="47.76368" lon="6.67376">
        <ele>519.8</ele>
        <time>2026-08-23T13:11:04.000Z</time>
      </trkpt>
      <trkpt lat="47.76361" lon="6.6736">
        <ele>519.4</ele>
        <time>2026-08-23T13:11:06.000Z</time>
      </trkpt>
      <trkpt lat="47.76351" lon="6.67341">
        <ele>518.8</ele>
        <time>2026-08-23T13:11:08.000Z</time>
      </trkpt>
      <trkpt lat="47.7634" lon="6.67327">
        <ele>517.8</ele>
        <time>2026-08-23T13:11:10.000Z</time>
      </trkpt>
      <trkpt lat="47.76327" lon="6.67317">
        <ele>517</ele>
        <time>2026-08-23T13:11:12.000Z</time>
      </trkpt>
      <trkpt lat="47.76314" lon="6.67311">
        <ele>516</ele>
        <time>2026-08-23T13:11:14.000Z</time>
      </trkpt>
      <trkpt lat="47.763" lon="6.6731">
        <ele>515</ele>
        <time>2026-08-23T13:11:16.000Z</time>
      </trkpt>
      <trkpt lat="47.76288" lon="6.67313">
        <ele>514.2</ele>
        <time>2026-08-23T13:11:18.000Z</time>
      </trkpt>
      <trkpt lat="47.76277" lon="6.67317">
        <ele>513.2</ele>
        <time>2026-08-23T13:11:20.000Z</time>
      </trkpt>
      <trkpt lat="47.76268" lon="6.67324">
        <ele>512.6</ele>
        <time>2026-08-23T13:11:22.000Z</time>
      </trkpt>
      <trkpt lat="47.76261" lon="6.67336">
        <ele>512</ele>
        <time>2026-08-23T13:11:24.000Z</time>
      </trkpt>
      <trkpt lat="47.76255" lon="6.67351">
        <ele>511.4</ele>
        <time>2026-08-23T13:11:26.000Z</time>
      </trkpt>
      <trkpt lat="47.76252" lon="6.67369">
        <ele>510.8</ele>
        <time>2026-08-23T13:11:28.000Z</time>
      </trkpt>
      <trkpt lat="47.76251" lon="6.67389">
        <ele>510.2</ele>
        <time>2026-08-23T13:11:30.000Z</time>
      </trkpt>
      <trkpt lat="47.76253" lon="6.67407">
        <ele>509.4</ele>
        <time>2026-08-23T13:11:32.000Z</time>
      </trkpt>
      <trkpt lat="47.76254" lon="6.67425">
        <ele>508.8</ele>
        <time>2026-08-23T13:11:34.000Z</time>
      </trkpt>
      <trkpt lat="47.76255" lon="6.67442">
        <ele>508</ele>
        <time>2026-08-23T13:11:36.000Z</time>
      </trkpt>
      <trkpt lat="47.76254" lon="6.67459">
        <ele>507</ele>
        <time>2026-08-23T13:11:38.000Z</time>
      </trkpt>
      <trkpt lat="47.76248" lon="6.67471">
        <ele>505.6</ele>
        <time>2026-08-23T13:11:40.000Z</time>
      </trkpt>
      <trkpt lat="47.76237" lon="6.6747">
        <ele>504</ele>
        <time>2026-08-23T13:11:42.000Z</time>
      </trkpt>
      <trkpt lat="47.76227" lon="6.67456">
        <ele>502.6</ele>
        <time>2026-08-23T13:11:44.000Z</time>
      </trkpt>
      <trkpt lat="47.7622" lon="6.67438">
        <ele>501.6</ele>
        <time>2026-08-23T13:11:46.000Z</time>
      </trkpt>
      <trkpt lat="47.76215" lon="6.67422">
        <ele>500.6</ele>
        <time>2026-08-23T13:11:48.000Z</time>
      </trkpt>
      <trkpt lat="47.7621" lon="6.67412">
        <ele>500.2</ele>
        <time>2026-08-23T13:11:50.000Z</time>
      </trkpt>
      <trkpt lat="47.76205" lon="6.67407">
        <ele>499.8</ele>
        <time>2026-08-23T13:11:52.000Z</time>
      </trkpt>
      <trkpt lat="47.76201" lon="6.67404">
        <ele>499.8</ele>
        <time>2026-08-23T13:11:54.000Z</time>
      </trkpt>
      <trkpt lat="47.76199" lon="6.67404">
        <ele>499.6</ele>
        <time>2026-08-23T13:11:56.000Z</time>
      </trkpt>
      <trkpt lat="47.76198" lon="6.67405">
        <ele>499.6</ele>
        <time>2026-08-23T13:11:58.000Z</time>
      </trkpt>
      <trkpt lat="47.76199" lon="6.67405">
        <ele>499.6</ele>
        <time>2026-08-23T13:12:00.000Z</time>
      </trkpt>
      <trkpt lat="47.76199" lon="6.67406">
        <ele>499.6</ele>
        <time>2026-08-23T13:12:02.000Z</time>
      </trkpt>
      <trkpt lat="47.76199" lon="6.67406">
        <ele>499.6</ele>
        <time>2026-08-23T13:12:04.000Z</time>
      </trkpt>
      <trkpt lat="47.76199" lon="6.67405">
        <ele>499.6</ele>
        <time>2026-08-23T13:12:06.000Z</time>
      </trkpt>
      <trkpt lat="47.76199" lon="6.67405">
        <ele>499.4</ele>
        <time>2026-08-23T13:12:08.000Z</time>
      </trkpt>
      <trkpt lat="47.76199" lon="6.67406">
        <ele>499.4</ele>
        <time>2026-08-23T13:12:10.000Z</time>
      </trkpt>
      <trkpt lat="47.76199" lon="6.67406">
        <ele>499.4</ele>
        <time>2026-08-23T13:12:12.000Z</time>
      </trkpt>
      <trkpt lat="47.76199" lon="6.67405">
        <ele>499.4</ele>
        <time>2026-08-23T13:12:14.000Z</time>
      </trkpt>
      <trkpt lat="47.76199" lon="6.67405">
        <ele>499.4</ele>
        <time>2026-08-23T13:12:16.000Z</time>
      </trkpt>
      <trkpt lat="47.76199" lon="6.67405">
        <ele>499.4</ele>
        <time>2026-08-23T13:12:18.000Z</time>
      </trkpt>
      <trkpt lat="47.76199" lon="6.67405">
        <ele>499.4</ele>
        <time>2026-08-23T13:12:21.000Z</time>
      </trkpt>
      <trkpt lat="47.76199" lon="6.67405">
        <ele>499.4</ele>
        <time>2026-08-23T13:12:23.000Z</time>
      </trkpt>
      <trkpt lat="47.76199" lon="6.67405">
        <ele>499.4</ele>
        <time>2026-08-23T13:12:25.000Z</time>
      </trkpt>
      <trkpt lat="47.76199" lon="6.67405">
        <ele>499.4</ele>
        <time>2026-08-23T13:12:27.000Z</time>
      </trkpt>
      <trkpt lat="47.76198" lon="6.67406">
        <ele>499.4</ele>
        <time>2026-08-23T13:12:29.000Z</time>
      </trkpt>
      <trkpt lat="47.76196" lon="6.67409">
        <ele>499.4</ele>
        <time>2026-08-23T13:12:31.000Z</time>
      </trkpt>
      <trkpt lat="47.76195" lon="6.67416">
        <ele>499.4</ele>
        <time>2026-08-23T13:12:33.000Z</time>
      </trkpt>
      <trkpt lat="47.76196" lon="6.67427">
        <ele>499.2</ele>
        <time>2026-08-23T13:12:35.000Z</time>
      </trkpt>
      <trkpt lat="47.76197" lon="6.67438">
        <ele>499.2</ele>
        <time>2026-08-23T13:12:37.000Z</time>
      </trkpt>
      <trkpt lat="47.76199" lon="6.67448">
        <ele>499.2</ele>
        <time>2026-08-23T13:12:39.000Z</time>
      </trkpt>
      <trkpt lat="47.76201" lon="6.67459">
        <ele>499.2</ele>
        <time>2026-08-23T13:12:41.000Z</time>
      </trkpt>
      <trkpt lat="47.76204" lon="6.67469">
        <ele>499.4</ele>
        <time>2026-08-23T13:12:43.000Z</time>
      </trkpt>
      <trkpt lat="47.76208" lon="6.67478">
        <ele>499.6</ele>
        <time>2026-08-23T13:12:45.000Z</time>
      </trkpt>
      <trkpt lat="47.76213" lon="6.67485">
        <ele>500</ele>
        <time>2026-08-23T13:12:47.000Z</time>
      </trkpt>
      <trkpt lat="47.76219" lon="6.67491">
        <ele>500.4</ele>
        <time>2026-08-23T13:12:49.000Z</time>
      </trkpt>
      <trkpt lat="47.76224" lon="6.67497">
        <ele>500.6</ele>
        <time>2026-08-23T13:12:51.000Z</time>
      </trkpt>
      <trkpt lat="47.7623" lon="6.67502">
        <ele>500.8</ele>
        <time>2026-08-23T13:12:53.000Z</time>
      </trkpt>
      <trkpt lat="47.76236" lon="6.67506">
        <ele>500.8</ele>
        <time>2026-08-23T13:12:55.000Z</time>
      </trkpt>
      <trkpt lat="47.76243" lon="6.67512">
        <ele>501</ele>
        <time>2026-08-23T13:12:57.000Z</time>
      </trkpt>
      <trkpt lat="47.76248" lon="6.67519">
        <ele>501.2</ele>
        <time>2026-08-23T13:12:59.000Z</time>
      </trkpt>
      <trkpt lat="47.76252" lon="6.67526">
        <ele>501.6</ele>
        <time>2026-08-23T13:13:01.000Z</time>
      </trkpt>
      <trkpt lat="47.76256" lon="6.67535">
        <ele>501.8</ele>
        <time>2026-08-23T13:13:03.000Z</time>
      </trkpt>
      <trkpt lat="47.76259" lon="6.67544">
        <ele>502.2</ele>
        <time>2026-08-23T13:13:05.000Z</time>
      </trkpt>
      <trkpt lat="47.76261" lon="6.67553">
        <ele>502.6</ele>
        <time>2026-08-23T13:13:07.000Z</time>
      </trkpt>
      <trkpt lat="47.76263" lon="6.67562">
        <ele>503</ele>
        <time>2026-08-23T13:13:09.000Z</time>
      </trkpt>
      <trkpt lat="47.76265" lon="6.6757">
        <ele>503.4</ele>
        <time>2026-08-23T13:13:11.000Z</time>
      </trkpt>
      <trkpt lat="47.76267" lon="6.67582">
        <ele>503.6</ele>
        <time>2026-08-23T13:13:13.000Z</time>
      </trkpt>
      <trkpt lat="47.76269" lon="6.67591">
        <ele>504</ele>
        <time>2026-08-23T13:13:15.000Z</time>
      </trkpt>
      <trkpt lat="47.76271" lon="6.676">
        <ele>504.4</ele>
        <time>2026-08-23T13:13:17.000Z</time>
      </trkpt>
      <trkpt lat="47.76273" lon="6.67608">
        <ele>504.6</ele>
        <time>2026-08-23T13:13:19.000Z</time>
      </trkpt>
      <trkpt lat="47.76275" lon="6.67616">
        <ele>504.8</ele>
        <time>2026-08-23T13:13:21.000Z</time>
      </trkpt>
      <trkpt lat="47.76277" lon="6.67624">
        <ele>505.2</ele>
        <time>2026-08-23T13:13:23.000Z</time>
      </trkpt>
      <trkpt lat="47.76279" lon="6.67632">
        <ele>505.4</ele>
        <time>2026-08-23T13:13:25.000Z</time>
      </trkpt>
      <trkpt lat="47.76281" lon="6.67641">
        <ele>505.6</ele>
        <time>2026-08-23T13:13:27.000Z</time>
      </trkpt>
      <trkpt lat="47.76282" lon="6.67649">
        <ele>505.8</ele>
        <time>2026-08-23T13:13:29.000Z</time>
      </trkpt>
      <trkpt lat="47.76285" lon="6.67658">
        <ele>505.8</ele>
        <time>2026-08-23T13:13:31.000Z</time>
      </trkpt>
      <trkpt lat="47.76287" lon="6.67666">
        <ele>506</ele>
        <time>2026-08-23T13:13:33.000Z</time>
      </trkpt>
      <trkpt lat="47.7629" lon="6.67674">
        <ele>506.2</ele>
        <time>2026-08-23T13:13:35.000Z</time>
      </trkpt>
      <trkpt lat="47.76292" lon="6.67683">
        <ele>506.4</ele>
        <time>2026-08-23T13:13:37.000Z</time>
      </trkpt>
      <trkpt lat="47.76294" lon="6.67692">
        <ele>506.6</ele>
        <time>2026-08-23T13:13:39.000Z</time>
      </trkpt>
      <trkpt lat="47.76296" lon="6.67701">
        <ele>506.8</ele>
        <time>2026-08-23T13:13:41.000Z</time>
      </trkpt>
      <trkpt lat="47.76298" lon="6.67709">
        <ele>507</ele>
        <time>2026-08-23T13:13:43.000Z</time>
      </trkpt>
      <trkpt lat="47.76301" lon="6.67718">
        <ele>507.2</ele>
        <time>2026-08-23T13:13:45.000Z</time>
      </trkpt>
      <trkpt lat="47.76303" lon="6.67726">
        <ele>507.4</ele>
        <time>2026-08-23T13:13:47.000Z</time>
      </trkpt>
      <trkpt lat="47.76306" lon="6.67734">
        <ele>507.6</ele>
        <time>2026-08-23T13:13:49.000Z</time>
      </trkpt>
      <trkpt lat="47.7631" lon="6.67742">
        <ele>507.8</ele>
        <time>2026-08-23T13:13:51.000Z</time>
      </trkpt>
      <trkpt lat="47.76314" lon="6.6775">
        <ele>508</ele>
        <time>2026-08-23T13:13:53.000Z</time>
      </trkpt>
      <trkpt lat="47.76318" lon="6.67757">
        <ele>508.2</ele>
        <time>2026-08-23T13:13:55.000Z</time>
      </trkpt>
      <trkpt lat="47.76323" lon="6.67763">
        <ele>508.4</ele>
        <time>2026-08-23T13:13:57.000Z</time>
      </trkpt>
      <trkpt lat="47.76328" lon="6.67769">
        <ele>508.8</ele>
        <time>2026-08-23T13:14:00.000Z</time>
      </trkpt>
      <trkpt lat="47.76333" lon="6.67775">
        <ele>509</ele>
        <time>2026-08-23T13:14:02.000Z</time>
      </trkpt>
      <trkpt lat="47.76339" lon="6.6778">
        <ele>509.2</ele>
        <time>2026-08-23T13:14:04.000Z</time>
      </trkpt>
      <trkpt lat="47.76344" lon="6.67785">
        <ele>509.4</ele>
        <time>2026-08-23T13:14:06.000Z</time>
      </trkpt>
      <trkpt lat="47.7635" lon="6.6779">
        <ele>509.6</ele>
        <time>2026-08-23T13:14:08.000Z</time>
      </trkpt>
      <trkpt lat="47.76355" lon="6.67794">
        <ele>509.8</ele>
        <time>2026-08-23T13:14:10.000Z</time>
      </trkpt>
      <trkpt lat="47.7636" lon="6.67798">
        <ele>510.2</ele>
        <time>2026-08-23T13:14:12.000Z</time>
      </trkpt>
      <trkpt lat="47.76366" lon="6.67801">
        <ele>510.4</ele>
        <time>2026-08-23T13:14:14.000Z</time>
      </trkpt>
      <trkpt lat="47.76372" lon="6.67804">
        <ele>510.6</ele>
        <time>2026-08-23T13:14:16.000Z</time>
      </trkpt>
      <trkpt lat="47.76378" lon="6.67808">
        <ele>510.8</ele>
        <time>2026-08-23T13:14:18.000Z</time>
      </trkpt>
      <trkpt lat="47.76382" lon="6.67814">
        <ele>511.2</ele>
        <time>2026-08-23T13:14:20.000Z</time>
      </trkpt>
      <trkpt lat="47.76387" lon="6.67819">
        <ele>511.4</ele>
        <time>2026-08-23T13:14:22.000Z</time>
      </trkpt>
      <trkpt lat="47.76392" lon="6.67825">
        <ele>511.6</ele>
        <time>2026-08-23T13:14:24.000Z</time>
      </trkpt>
      <trkpt lat="47.76396" lon="6.67831">
        <ele>511.8</ele>
        <time>2026-08-23T13:14:26.000Z</time>
      </trkpt>
      <trkpt lat="47.764" lon="6.67838">
        <ele>512</ele>
        <time>2026-08-23T13:14:28.000Z</time>
      </trkpt>
      <trkpt lat="47.76403" lon="6.67846">
        <ele>512.2</ele>
        <time>2026-08-23T13:14:30.000Z</time>
      </trkpt>
      <trkpt lat="47.76406" lon="6.67853">
        <ele>512.4</ele>
        <time>2026-08-23T13:14:32.000Z</time>
      </trkpt>
      <trkpt lat="47.7641" lon="6.6786">
        <ele>512.8</ele>
        <time>2026-08-23T13:14:34.000Z</time>
      </trkpt>
      <trkpt lat="47.76413" lon="6.67868">
        <ele>513</ele>
        <time>2026-08-23T13:14:36.000Z</time>
      </trkpt>
      <trkpt lat="47.76416" lon="6.67876">
        <ele>513.2</ele>
        <time>2026-08-23T13:14:38.000Z</time>
      </trkpt>
      <trkpt lat="47.76419" lon="6.67883">
        <ele>513.4</ele>
        <time>2026-08-23T13:14:40.000Z</time>
      </trkpt>
      <trkpt lat="47.76423" lon="6.6789">
        <ele>513.8</ele>
        <time>2026-08-23T13:14:42.000Z</time>
      </trkpt>
      <trkpt lat="47.76426" lon="6.67897">
        <ele>514</ele>
        <time>2026-08-23T13:14:44.000Z</time>
      </trkpt>
      <trkpt lat="47.7643" lon="6.67903">
        <ele>514.4</ele>
        <time>2026-08-23T13:14:46.000Z</time>
      </trkpt>
      <trkpt lat="47.76433" lon="6.6791">
        <ele>514.6</ele>
        <time>2026-08-23T13:14:48.000Z</time>
      </trkpt>
      <trkpt lat="47.76437" lon="6.67916">
        <ele>514.8</ele>
        <time>2026-08-23T13:14:50.000Z</time>
      </trkpt>
      <trkpt lat="47.76441" lon="6.67922">
        <ele>515</ele>
        <time>2026-08-23T13:14:52.000Z</time>
      </trkpt>
      <trkpt lat="47.76446" lon="6.67928">
        <ele>515.4</ele>
        <time>2026-08-23T13:14:54.000Z</time>
      </trkpt>
      <trkpt lat="47.7645" lon="6.67936">
        <ele>515.8</ele>
        <time>2026-08-23T13:14:56.000Z</time>
      </trkpt>
      <trkpt lat="47.76455" lon="6.67943">
        <ele>516</ele>
        <time>2026-08-23T13:14:58.000Z</time>
      </trkpt>
      <trkpt lat="47.7646" lon="6.6795">
        <ele>516.4</ele>
        <time>2026-08-23T13:15:00.000Z</time>
      </trkpt>
      <trkpt lat="47.76464" lon="6.67955">
        <ele>516.8</ele>
        <time>2026-08-23T13:15:02.000Z</time>
      </trkpt>
      <trkpt lat="47.76468" lon="6.67961">
        <ele>517</ele>
        <time>2026-08-23T13:15:04.000Z</time>
      </trkpt>
      <trkpt lat="47.76471" lon="6.67968">
        <ele>517.4</ele>
        <time>2026-08-23T13:15:06.000Z</time>
      </trkpt>
      <trkpt lat="47.76473" lon="6.67976">
        <ele>517.8</ele>
        <time>2026-08-23T13:15:08.000Z</time>
      </trkpt>
      <trkpt lat="47.76476" lon="6.67984">
        <ele>518</ele>
        <time>2026-08-23T13:15:10.000Z</time>
      </trkpt>
      <trkpt lat="47.76478" lon="6.67992">
        <ele>518.4</ele>
        <time>2026-08-23T13:15:12.000Z</time>
      </trkpt>
      <trkpt lat="47.76479" lon="6.68">
        <ele>519</ele>
        <time>2026-08-23T13:15:14.000Z</time>
      </trkpt>
      <trkpt lat="47.7648" lon="6.68009">
        <ele>519.4</ele>
        <time>2026-08-23T13:15:16.000Z</time>
      </trkpt>
      <trkpt lat="47.7648" lon="6.68017">
        <ele>519.8</ele>
        <time>2026-08-23T13:15:18.000Z</time>
      </trkpt>
      <trkpt lat="47.76481" lon="6.68025">
        <ele>520.2</ele>
        <time>2026-08-23T13:15:20.000Z</time>
      </trkpt>
      <trkpt lat="47.76481" lon="6.68034">
        <ele>520.4</ele>
        <time>2026-08-23T13:15:22.000Z</time>
      </trkpt>
      <trkpt lat="47.76481" lon="6.68042">
        <ele>520.8</ele>
        <time>2026-08-23T13:15:24.000Z</time>
      </trkpt>
      <trkpt lat="47.7648" lon="6.68051">
        <ele>521</ele>
        <time>2026-08-23T13:15:26.000Z</time>
      </trkpt>
      <trkpt lat="47.76479" lon="6.68059">
        <ele>521.4</ele>
        <time>2026-08-23T13:15:28.000Z</time>
      </trkpt>
      <trkpt lat="47.76478" lon="6.68067">
        <ele>521.6</ele>
        <time>2026-08-23T13:15:30.000Z</time>
      </trkpt>
      <trkpt lat="47.76477" lon="6.68075">
        <ele>521.8</ele>
        <time>2026-08-23T13:15:32.000Z</time>
      </trkpt>
      <trkpt lat="47.76477" lon="6.68083">
        <ele>522</ele>
        <time>2026-08-23T13:15:34.000Z</time>
      </trkpt>
      <trkpt lat="47.76477" lon="6.68091">
        <ele>522.4</ele>
        <time>2026-08-23T13:15:36.000Z</time>
      </trkpt>
      <trkpt lat="47.76477" lon="6.68099">
        <ele>522.6</ele>
        <time>2026-08-23T13:15:38.000Z</time>
      </trkpt>
      <trkpt lat="47.76478" lon="6.68107">
        <ele>522.8</ele>
        <time>2026-08-23T13:15:40.000Z</time>
      </trkpt>
      <trkpt lat="47.76479" lon="6.68114">
        <ele>523</ele>
        <time>2026-08-23T13:15:42.000Z</time>
      </trkpt>
      <trkpt lat="47.7648" lon="6.68122">
        <ele>523.2</ele>
        <time>2026-08-23T13:15:44.000Z</time>
      </trkpt>
      <trkpt lat="47.76481" lon="6.68129">
        <ele>523.4</ele>
        <time>2026-08-23T13:15:46.000Z</time>
      </trkpt>
      <trkpt lat="47.76483" lon="6.68136">
        <ele>523.6</ele>
        <time>2026-08-23T13:15:48.000Z</time>
      </trkpt>
      <trkpt lat="47.76485" lon="6.68144">
        <ele>523.8</ele>
        <time>2026-08-23T13:15:50.000Z</time>
      </trkpt>
      <trkpt lat="47.76487" lon="6.68151">
        <ele>524</ele>
        <time>2026-08-23T13:15:52.000Z</time>
      </trkpt>
      <trkpt lat="47.76489" lon="6.68158">
        <ele>524.2</ele>
        <time>2026-08-23T13:15:54.000Z</time>
      </trkpt>
      <trkpt lat="47.76491" lon="6.68165">
        <ele>524.6</ele>
        <time>2026-08-23T13:15:56.000Z</time>
      </trkpt>
      <trkpt lat="47.76493" lon="6.68172">
        <ele>524.8</ele>
        <time>2026-08-23T13:15:58.000Z</time>
      </trkpt>
      <trkpt lat="47.76496" lon="6.68178">
        <ele>525.2</ele>
        <time>2026-08-23T13:16:00.000Z</time>
      </trkpt>
      <trkpt lat="47.76498" lon="6.68185">
        <ele>525.4</ele>
        <time>2026-08-23T13:16:02.000Z</time>
      </trkpt>
      <trkpt lat="47.76501" lon="6.68191">
        <ele>525.6</ele>
        <time>2026-08-23T13:16:04.000Z</time>
      </trkpt>
      <trkpt lat="47.76503" lon="6.68197">
        <ele>526</ele>
        <time>2026-08-23T13:16:06.000Z</time>
      </trkpt>
      <trkpt lat="47.76506" lon="6.68203">
        <ele>526.2</ele>
        <time>2026-08-23T13:16:08.000Z</time>
      </trkpt>
      <trkpt lat="47.76508" lon="6.6821">
        <ele>526.4</ele>
        <time>2026-08-23T13:16:10.000Z</time>
      </trkpt>
      <trkpt lat="47.7651" lon="6.68216">
        <ele>526.6</ele>
        <time>2026-08-23T13:16:12.000Z</time>
      </trkpt>
      <trkpt lat="47.76512" lon="6.68223">
        <ele>526.8</ele>
        <time>2026-08-23T13:16:15.000Z</time>
      </trkpt>
      <trkpt lat="47.76514" lon="6.6823">
        <ele>527.2</ele>
        <time>2026-08-23T13:16:17.000Z</time>
      </trkpt>
      <trkpt lat="47.76516" lon="6.68237">
        <ele>527.4</ele>
        <time>2026-08-23T13:16:19.000Z</time>
      </trkpt>
      <trkpt lat="47.76517" lon="6.68244">
        <ele>527.8</ele>
        <time>2026-08-23T13:16:21.000Z</time>
      </trkpt>
      <trkpt lat="47.76518" lon="6.68251">
        <ele>528.2</ele>
        <time>2026-08-23T13:16:23.000Z</time>
      </trkpt>
      <trkpt lat="47.76519" lon="6.68258">
        <ele>528.6</ele>
        <time>2026-08-23T13:16:25.000Z</time>
      </trkpt>
      <trkpt lat="47.7652" lon="6.68266">
        <ele>529</ele>
        <time>2026-08-23T13:16:27.000Z</time>
      </trkpt>
      <trkpt lat="47.76521" lon="6.68273">
        <ele>529.4</ele>
        <time>2026-08-23T13:16:29.000Z</time>
      </trkpt>
      <trkpt lat="47.76521" lon="6.68281">
        <ele>529.8</ele>
        <time>2026-08-23T13:16:31.000Z</time>
      </trkpt>
      <trkpt lat="47.76521" lon="6.68288">
        <ele>530</ele>
        <time>2026-08-23T13:16:33.000Z</time>
      </trkpt>
      <trkpt lat="47.76521" lon="6.68296">
        <ele>530.4</ele>
        <time>2026-08-23T13:16:35.000Z</time>
      </trkpt>
      <trkpt lat="47.76521" lon="6.68304">
        <ele>530.6</ele>
        <time>2026-08-23T13:16:37.000Z</time>
      </trkpt>
      <trkpt lat="47.76522" lon="6.68312">
        <ele>531</ele>
        <time>2026-08-23T13:16:39.000Z</time>
      </trkpt>
      <trkpt lat="47.76522" lon="6.6832">
        <ele>531.2</ele>
        <time>2026-08-23T13:16:41.000Z</time>
      </trkpt>
      <trkpt lat="47.76522" lon="6.68328">
        <ele>531.4</ele>
        <time>2026-08-23T13:16:43.000Z</time>
      </trkpt>
      <trkpt lat="47.76522" lon="6.68338">
        <ele>531.8</ele>
        <time>2026-08-23T13:16:45.000Z</time>
      </trkpt>
      <trkpt lat="47.76522" lon="6.68348">
        <ele>531.6</ele>
        <time>2026-08-23T13:16:47.000Z</time>
      </trkpt>
      <trkpt lat="47.76522" lon="6.68356">
        <ele>532.2</ele>
        <time>2026-08-23T13:16:49.000Z</time>
      </trkpt>
      <trkpt lat="47.76522" lon="6.68364">
        <ele>532.4</ele>
        <time>2026-08-23T13:16:51.000Z</time>
      </trkpt>
      <trkpt lat="47.76522" lon="6.68372">
        <ele>532.8</ele>
        <time>2026-08-23T13:16:53.000Z</time>
      </trkpt>
      <trkpt lat="47.76522" lon="6.6838">
        <ele>533.2</ele>
        <time>2026-08-23T13:16:55.000Z</time>
      </trkpt>
      <trkpt lat="47.76522" lon="6.68388">
        <ele>533.4</ele>
        <time>2026-08-23T13:16:57.000Z</time>
      </trkpt>
      <trkpt lat="47.76522" lon="6.68397">
        <ele>533.6</ele>
        <time>2026-08-23T13:16:59.000Z</time>
      </trkpt>
      <trkpt lat="47.76521" lon="6.68406">
        <ele>533.8</ele>
        <time>2026-08-23T13:17:01.000Z</time>
      </trkpt>
      <trkpt lat="47.76521" lon="6.68415">
        <ele>534</ele>
        <time>2026-08-23T13:17:03.000Z</time>
      </trkpt>
      <trkpt lat="47.76521" lon="6.68425">
        <ele>534</ele>
        <time>2026-08-23T13:17:05.000Z</time>
      </trkpt>
      <trkpt lat="47.76519" lon="6.68436">
        <ele>533.8</ele>
        <time>2026-08-23T13:17:07.000Z</time>
      </trkpt>
      <trkpt lat="47.76517" lon="6.68448">
        <ele>533.8</ele>
        <time>2026-08-23T13:17:09.000Z</time>
      </trkpt>
      <trkpt lat="47.76514" lon="6.6846">
        <ele>533.4</ele>
        <time>2026-08-23T13:17:11.000Z</time>
      </trkpt>
      <trkpt lat="47.7651" lon="6.68472">
        <ele>533.2</ele>
        <time>2026-08-23T13:17:13.000Z</time>
      </trkpt>
      <trkpt lat="47.76504" lon="6.68484">
        <ele>532.8</ele>
        <time>2026-08-23T13:17:15.000Z</time>
      </trkpt>
      <trkpt lat="47.76497" lon="6.68495">
        <ele>532.6</ele>
        <time>2026-08-23T13:17:17.000Z</time>
      </trkpt>
      <trkpt lat="47.7649" lon="6.68507">
        <ele>532.6</ele>
        <time>2026-08-23T13:17:19.000Z</time>
      </trkpt>
      <trkpt lat="47.76483" lon="6.68517">
        <ele>532.4</ele>
        <time>2026-08-23T13:17:21.000Z</time>
      </trkpt>
      <trkpt lat="47.76477" lon="6.68529">
        <ele>532.2</ele>
        <time>2026-08-23T13:17:23.000Z</time>
      </trkpt>
      <trkpt lat="47.76471" lon="6.68542">
        <ele>532.2</ele>
        <time>2026-08-23T13:17:25.000Z</time>
      </trkpt>
      <trkpt lat="47.76468" lon="6.68558">
        <ele>532</ele>
        <time>2026-08-23T13:17:27.000Z</time>
      </trkpt>
      <trkpt lat="47.76467" lon="6.68574">
        <ele>531.8</ele>
        <time>2026-08-23T13:17:29.000Z</time>
      </trkpt>
      <trkpt lat="47.76468" lon="6.68592">
        <ele>531.6</ele>
        <time>2026-08-23T13:17:31.000Z</time>
      </trkpt>
      <trkpt lat="47.76469" lon="6.68609">
        <ele>531.6</ele>
        <time>2026-08-23T13:17:33.000Z</time>
      </trkpt>
      <trkpt lat="47.76471" lon="6.68626">
        <ele>531.6</ele>
        <time>2026-08-23T13:17:35.000Z</time>
      </trkpt>
      <trkpt lat="47.76471" lon="6.68644">
        <ele>531.6</ele>
        <time>2026-08-23T13:17:37.000Z</time>
      </trkpt>
      <trkpt lat="47.76472" lon="6.68661">
        <ele>531.6</ele>
        <time>2026-08-23T13:17:39.000Z</time>
      </trkpt>
      <trkpt lat="47.76473" lon="6.68677">
        <ele>531.4</ele>
        <time>2026-08-23T13:17:41.000Z</time>
      </trkpt>
      <trkpt lat="47.76474" lon="6.68693">
        <ele>531.6</ele>
        <time>2026-08-23T13:17:43.000Z</time>
      </trkpt>
      <trkpt lat="47.76475" lon="6.68708">
        <ele>531.6</ele>
        <time>2026-08-23T13:17:45.000Z</time>
      </trkpt>
      <trkpt lat="47.76476" lon="6.68722">
        <ele>531.8</ele>
        <time>2026-08-23T13:17:47.000Z</time>
      </trkpt>
      <trkpt lat="47.76476" lon="6.68736">
        <ele>532</ele>
        <time>2026-08-23T13:17:49.000Z</time>
      </trkpt>
      <trkpt lat="47.76476" lon="6.68751">
        <ele>532.4</ele>
        <time>2026-08-23T13:17:51.000Z</time>
      </trkpt>
      <trkpt lat="47.76476" lon="6.68765">
        <ele>532.6</ele>
        <time>2026-08-23T13:17:53.000Z</time>
      </trkpt>
      <trkpt lat="47.76475" lon="6.6878">
        <ele>532.6</ele>
        <time>2026-08-23T13:17:56.000Z</time>
      </trkpt>
      <trkpt lat="47.76474" lon="6.68793">
        <ele>532.8</ele>
        <time>2026-08-23T13:17:58.000Z</time>
      </trkpt>
      <trkpt lat="47.76472" lon="6.68807">
        <ele>532.8</ele>
        <time>2026-08-23T13:18:00.000Z</time>
      </trkpt>
      <trkpt lat="47.76471" lon="6.6882">
        <ele>532.6</ele>
        <time>2026-08-23T13:18:02.000Z</time>
      </trkpt>
      <trkpt lat="47.76469" lon="6.68832">
        <ele>532.6</ele>
        <time>2026-08-23T13:18:04.000Z</time>
      </trkpt>
      <trkpt lat="47.76466" lon="6.68845">
        <ele>532.6</ele>
        <time>2026-08-23T13:18:06.000Z</time>
      </trkpt>
      <trkpt lat="47.76464" lon="6.6886">
        <ele>532.6</ele>
        <time>2026-08-23T13:18:08.000Z</time>
      </trkpt>
      <trkpt lat="47.76462" lon="6.68875">
        <ele>532.6</ele>
        <time>2026-08-23T13:18:10.000Z</time>
      </trkpt>
      <trkpt lat="47.7646" lon="6.68891">
        <ele>532.4</ele>
        <time>2026-08-23T13:18:12.000Z</time>
      </trkpt>
      <trkpt lat="47.76458" lon="6.68906">
        <ele>532.2</ele>
        <time>2026-08-23T13:18:14.000Z</time>
      </trkpt>
      <trkpt lat="47.76456" lon="6.68921">
        <ele>532.6</ele>
        <time>2026-08-23T13:18:16.000Z</time>
      </trkpt>
      <trkpt lat="47.76454" lon="6.68935">
        <ele>532.6</ele>
        <time>2026-08-23T13:18:18.000Z</time>
      </trkpt>
      <trkpt lat="47.76452" lon="6.6895">
        <ele>532.8</ele>
        <time>2026-08-23T13:18:20.000Z</time>
      </trkpt>
      <trkpt lat="47.76449" lon="6.68964">
        <ele>533</ele>
        <time>2026-08-23T13:18:22.000Z</time>
      </trkpt>
      <trkpt lat="47.76447" lon="6.68979">
        <ele>533</ele>
        <time>2026-08-23T13:18:24.000Z</time>
      </trkpt>
      <trkpt lat="47.76443" lon="6.68994">
        <ele>533</ele>
        <time>2026-08-23T13:18:26.000Z</time>
      </trkpt>
      <trkpt lat="47.76438" lon="6.6901">
        <ele>532.8</ele>
        <time>2026-08-23T13:18:28.000Z</time>
      </trkpt>
      <trkpt lat="47.76433" lon="6.69024">
        <ele>532.6</ele>
        <time>2026-08-23T13:18:30.000Z</time>
      </trkpt>
      <trkpt lat="47.76426" lon="6.69038">
        <ele>532.4</ele>
        <time>2026-08-23T13:18:32.000Z</time>
      </trkpt>
      <trkpt lat="47.7642" lon="6.69052">
        <ele>532.4</ele>
        <time>2026-08-23T13:18:34.000Z</time>
      </trkpt>
      <trkpt lat="47.76414" lon="6.69066">
        <ele>532.4</ele>
        <time>2026-08-23T13:18:36.000Z</time>
      </trkpt>
      <trkpt lat="47.76409" lon="6.69079">
        <ele>532.4</ele>
        <time>2026-08-23T13:18:38.000Z</time>
      </trkpt>
      <trkpt lat="47.76402" lon="6.69096">
        <ele>532.4</ele>
        <time>2026-08-23T13:18:40.000Z</time>
      </trkpt>
      <trkpt lat="47.76398" lon="6.69111">
        <ele>532.4</ele>
        <time>2026-08-23T13:18:42.000Z</time>
      </trkpt>
      <trkpt lat="47.76393" lon="6.69128">
        <ele>532</ele>
        <time>2026-08-23T13:18:44.000Z</time>
      </trkpt>
      <trkpt lat="47.7639" lon="6.69144">
        <ele>531.8</ele>
        <time>2026-08-23T13:18:46.000Z</time>
      </trkpt>
      <trkpt lat="47.76387" lon="6.69158">
        <ele>532</ele>
        <time>2026-08-23T13:18:48.000Z</time>
      </trkpt>
      <trkpt lat="47.76385" lon="6.69172">
        <ele>532</ele>
        <time>2026-08-23T13:18:50.000Z</time>
      </trkpt>
      <trkpt lat="47.76383" lon="6.69186">
        <ele>532</ele>
        <time>2026-08-23T13:18:52.000Z</time>
      </trkpt>
      <trkpt lat="47.7638" lon="6.69201">
        <ele>532.2</ele>
        <time>2026-08-23T13:18:54.000Z</time>
      </trkpt>
      <trkpt lat="47.76378" lon="6.69215">
        <ele>532.4</ele>
        <time>2026-08-23T13:18:56.000Z</time>
      </trkpt>
      <trkpt lat="47.76376" lon="6.69229">
        <ele>532.2</ele>
        <time>2026-08-23T13:18:58.000Z</time>
      </trkpt>
      <trkpt lat="47.76374" lon="6.69242">
        <ele>532.4</ele>
        <time>2026-08-23T13:19:00.000Z</time>
      </trkpt>
      <trkpt lat="47.76372" lon="6.69255">
        <ele>532.4</ele>
        <time>2026-08-23T13:19:02.000Z</time>
      </trkpt>
      <trkpt lat="47.7637" lon="6.69268">
        <ele>532.6</ele>
        <time>2026-08-23T13:19:04.000Z</time>
      </trkpt>
      <trkpt lat="47.76368" lon="6.69279">
        <ele>533</ele>
        <time>2026-08-23T13:19:06.000Z</time>
      </trkpt>
      <trkpt lat="47.76367" lon="6.6929">
        <ele>533.4</ele>
        <time>2026-08-23T13:19:08.000Z</time>
      </trkpt>
      <trkpt lat="47.76365" lon="6.69301">
        <ele>533.8</ele>
        <time>2026-08-23T13:19:10.000Z</time>
      </trkpt>
      <trkpt lat="47.76364" lon="6.69312">
        <ele>534</ele>
        <time>2026-08-23T13:19:12.000Z</time>
      </trkpt>
      <trkpt lat="47.76363" lon="6.69323">
        <ele>534.4</ele>
        <time>2026-08-23T13:19:14.000Z</time>
      </trkpt>
      <trkpt lat="47.76361" lon="6.69333">
        <ele>534.6</ele>
        <time>2026-08-23T13:19:16.000Z</time>
      </trkpt>
      <trkpt lat="47.76359" lon="6.69344">
        <ele>535</ele>
        <time>2026-08-23T13:19:18.000Z</time>
      </trkpt>
      <trkpt lat="47.76358" lon="6.69354">
        <ele>535.4</ele>
        <time>2026-08-23T13:19:20.000Z</time>
      </trkpt>
      <trkpt lat="47.76356" lon="6.69365">
        <ele>535.4</ele>
        <time>2026-08-23T13:19:22.000Z</time>
      </trkpt>
      <trkpt lat="47.76354" lon="6.69375">
        <ele>535.6</ele>
        <time>2026-08-23T13:19:24.000Z</time>
      </trkpt>
      <trkpt lat="47.76352" lon="6.69386">
        <ele>535.6</ele>
        <time>2026-08-23T13:19:26.000Z</time>
      </trkpt>
      <trkpt lat="47.7635" lon="6.69397">
        <ele>535.6</ele>
        <time>2026-08-23T13:19:28.000Z</time>
      </trkpt>
      <trkpt lat="47.76348" lon="6.69408">
        <ele>535.6</ele>
        <time>2026-08-23T13:19:30.000Z</time>
      </trkpt>
      <trkpt lat="47.76346" lon="6.69419">
        <ele>535.8</ele>
        <time>2026-08-23T13:19:32.000Z</time>
      </trkpt>
      <trkpt lat="47.76344" lon="6.6943">
        <ele>536</ele>
        <time>2026-08-23T13:19:34.000Z</time>
      </trkpt>
      <trkpt lat="47.76342" lon="6.69442">
        <ele>536</ele>
        <time>2026-08-23T13:19:36.000Z</time>
      </trkpt>
      <trkpt lat="47.76341" lon="6.69452">
        <ele>536</ele>
        <time>2026-08-23T13:19:38.000Z</time>
      </trkpt>
      <trkpt lat="47.76339" lon="6.69462">
        <ele>536.4</ele>
        <time>2026-08-23T13:19:40.000Z</time>
      </trkpt>
      <trkpt lat="47.76337" lon="6.69472">
        <ele>536.6</ele>
        <time>2026-08-23T13:19:42.000Z</time>
      </trkpt>
      <trkpt lat="47.76335" lon="6.69482">
        <ele>537.2</ele>
        <time>2026-08-23T13:19:44.000Z</time>
      </trkpt>
      <trkpt lat="47.76333" lon="6.69491">
        <ele>537.6</ele>
        <time>2026-08-23T13:19:47.000Z</time>
      </trkpt>
      <trkpt lat="47.76331" lon="6.695">
        <ele>538</ele>
        <time>2026-08-23T13:19:49.000Z</time>
      </trkpt>
      <trkpt lat="47.76329" lon="6.69509">
        <ele>538.4</ele>
        <time>2026-08-23T13:19:51.000Z</time>
      </trkpt>
      <trkpt lat="47.76328" lon="6.69518">
        <ele>538.6</ele>
        <time>2026-08-23T13:19:53.000Z</time>
      </trkpt>
      <trkpt lat="47.76326" lon="6.69527">
        <ele>538.8</ele>
        <time>2026-08-23T13:19:55.000Z</time>
      </trkpt>
      <trkpt lat="47.76324" lon="6.69536">
        <ele>539.4</ele>
        <time>2026-08-23T13:19:57.000Z</time>
      </trkpt>
      <trkpt lat="47.76323" lon="6.69545">
        <ele>539.6</ele>
        <time>2026-08-23T13:19:59.000Z</time>
      </trkpt>
      <trkpt lat="47.76321" lon="6.69553">
        <ele>539.6</ele>
        <time>2026-08-23T13:20:01.000Z</time>
      </trkpt>
      <trkpt lat="47.76319" lon="6.69562">
        <ele>539.8</ele>
        <time>2026-08-23T13:20:03.000Z</time>
      </trkpt>
      <trkpt lat="47.76318" lon="6.69571">
        <ele>539.8</ele>
        <time>2026-08-23T13:20:05.000Z</time>
      </trkpt>
      <trkpt lat="47.76317" lon="6.69581">
        <ele>540</ele>
        <time>2026-08-23T13:20:07.000Z</time>
      </trkpt>
      <trkpt lat="47.76315" lon="6.6959">
        <ele>540</ele>
        <time>2026-08-23T13:20:09.000Z</time>
      </trkpt>
      <trkpt lat="47.76314" lon="6.696">
        <ele>540</ele>
        <time>2026-08-23T13:20:11.000Z</time>
      </trkpt>
      <trkpt lat="47.76312" lon="6.69609">
        <ele>540</ele>
        <time>2026-08-23T13:20:13.000Z</time>
      </trkpt>
      <trkpt lat="47.76311" lon="6.69618">
        <ele>540.2</ele>
        <time>2026-08-23T13:20:15.000Z</time>
      </trkpt>
      <trkpt lat="47.7631" lon="6.69627">
        <ele>540.4</ele>
        <time>2026-08-23T13:20:17.000Z</time>
      </trkpt>
      <trkpt lat="47.76309" lon="6.69636">
        <ele>540.6</ele>
        <time>2026-08-23T13:20:19.000Z</time>
      </trkpt>
      <trkpt lat="47.76308" lon="6.69645">
        <ele>541</ele>
        <time>2026-08-23T13:20:21.000Z</time>
      </trkpt>
      <trkpt lat="47.76306" lon="6.69655">
        <ele>541.4</ele>
        <time>2026-08-23T13:20:23.000Z</time>
      </trkpt>
      <trkpt lat="47.76305" lon="6.69667">
        <ele>541.4</ele>
        <time>2026-08-23T13:20:25.000Z</time>
      </trkpt>
      <trkpt lat="47.76304" lon="6.69679">
        <ele>541.6</ele>
        <time>2026-08-23T13:20:27.000Z</time>
      </trkpt>
      <trkpt lat="47.76304" lon="6.6969">
        <ele>541.6</ele>
        <time>2026-08-23T13:20:29.000Z</time>
      </trkpt>
      <trkpt lat="47.76304" lon="6.697">
        <ele>541.8</ele>
        <time>2026-08-23T13:20:31.000Z</time>
      </trkpt>
      <trkpt lat="47.76304" lon="6.69709">
        <ele>542</ele>
        <time>2026-08-23T13:20:33.000Z</time>
      </trkpt>
      <trkpt lat="47.76305" lon="6.69719">
        <ele>542</ele>
        <time>2026-08-23T13:20:35.000Z</time>
      </trkpt>
      <trkpt lat="47.76306" lon="6.69728">
        <ele>542.2</ele>
        <time>2026-08-23T13:20:37.000Z</time>
      </trkpt>
      <trkpt lat="47.76308" lon="6.69738">
        <ele>542.4</ele>
        <time>2026-08-23T13:20:39.000Z</time>
      </trkpt>
      <trkpt lat="47.76309" lon="6.69747">
        <ele>542.8</ele>
        <time>2026-08-23T13:20:41.000Z</time>
      </trkpt>
      <trkpt lat="47.7631" lon="6.69757">
        <ele>543</ele>
        <time>2026-08-23T13:20:43.000Z</time>
      </trkpt>
      <trkpt lat="47.76311" lon="6.69766">
        <ele>543.4</ele>
        <time>2026-08-23T13:20:45.000Z</time>
      </trkpt>
      <trkpt lat="47.76312" lon="6.69776">
        <ele>543.6</ele>
        <time>2026-08-23T13:20:47.000Z</time>
      </trkpt>
      <trkpt lat="47.76312" lon="6.69785">
        <ele>543.8</ele>
        <time>2026-08-23T13:20:49.000Z</time>
      </trkpt>
      <trkpt lat="47.76313" lon="6.69796">
        <ele>544</ele>
        <time>2026-08-23T13:20:51.000Z</time>
      </trkpt>
      <trkpt lat="47.76313" lon="6.69806">
        <ele>544.2</ele>
        <time>2026-08-23T13:20:53.000Z</time>
      </trkpt>
      <trkpt lat="47.76313" lon="6.69817">
        <ele>544.2</ele>
        <time>2026-08-23T13:20:55.000Z</time>
      </trkpt>
      <trkpt lat="47.76314" lon="6.69828">
        <ele>544.2</ele>
        <time>2026-08-23T13:20:57.000Z</time>
      </trkpt>
      <trkpt lat="47.76314" lon="6.69838">
        <ele>544.4</ele>
        <time>2026-08-23T13:20:59.000Z</time>
      </trkpt>
      <trkpt lat="47.76315" lon="6.69848">
        <ele>544.8</ele>
        <time>2026-08-23T13:21:01.000Z</time>
      </trkpt>
      <trkpt lat="47.76315" lon="6.69858">
        <ele>545</ele>
        <time>2026-08-23T13:21:03.000Z</time>
      </trkpt>
      <trkpt lat="47.76316" lon="6.69868">
        <ele>545.2</ele>
        <time>2026-08-23T13:21:05.000Z</time>
      </trkpt>
      <trkpt lat="47.76317" lon="6.69878">
        <ele>545</ele>
        <time>2026-08-23T13:21:07.000Z</time>
      </trkpt>
      <trkpt lat="47.76318" lon="6.6989">
        <ele>545</ele>
        <time>2026-08-23T13:21:09.000Z</time>
      </trkpt>
      <trkpt lat="47.76319" lon="6.69902">
        <ele>544.8</ele>
        <time>2026-08-23T13:21:11.000Z</time>
      </trkpt>
      <trkpt lat="47.76319" lon="6.69915">
        <ele>544.8</ele>
        <time>2026-08-23T13:21:13.000Z</time>
      </trkpt>
      <trkpt lat="47.76318" lon="6.6993">
        <ele>544.2</ele>
        <time>2026-08-23T13:21:15.000Z</time>
      </trkpt>
      <trkpt lat="47.76315" lon="6.69944">
        <ele>543.8</ele>
        <time>2026-08-23T13:21:17.000Z</time>
      </trkpt>
      <trkpt lat="47.76311" lon="6.69957">
        <ele>543.6</ele>
        <time>2026-08-23T13:21:19.000Z</time>
      </trkpt>
      <trkpt lat="47.76308" lon="6.69968">
        <ele>543.6</ele>
        <time>2026-08-23T13:21:21.000Z</time>
      </trkpt>
      <trkpt lat="47.76305" lon="6.69978">
        <ele>543.4</ele>
        <time>2026-08-23T13:21:23.000Z</time>
      </trkpt>
      <trkpt lat="47.76301" lon="6.6999">
        <ele>543.4</ele>
        <time>2026-08-23T13:21:25.000Z</time>
      </trkpt>
      <trkpt lat="47.76298" lon="6.70002">
        <ele>543.4</ele>
        <time>2026-08-23T13:21:27.000Z</time>
      </trkpt>
      <trkpt lat="47.76295" lon="6.70015">
        <ele>543.4</ele>
        <time>2026-08-23T13:21:29.000Z</time>
      </trkpt>
      <trkpt lat="47.76291" lon="6.70028">
        <ele>543.4</ele>
        <time>2026-08-23T13:21:31.000Z</time>
      </trkpt>
      <trkpt lat="47.76287" lon="6.70041">
        <ele>543.4</ele>
        <time>2026-08-23T13:21:33.000Z</time>
      </trkpt>
      <trkpt lat="47.76283" lon="6.70052">
        <ele>543.2</ele>
        <time>2026-08-23T13:21:35.000Z</time>
      </trkpt>
      <trkpt lat="47.76278" lon="6.70063">
        <ele>543.2</ele>
        <time>2026-08-23T13:21:38.000Z</time>
      </trkpt>
      <trkpt lat="47.76274" lon="6.70074">
        <ele>543.4</ele>
        <time>2026-08-23T13:21:40.000Z</time>
      </trkpt>
      <trkpt lat="47.7627" lon="6.70084">
        <ele>543.2</ele>
        <time>2026-08-23T13:21:42.000Z</time>
      </trkpt>
      <trkpt lat="47.76265" lon="6.70093">
        <ele>543.2</ele>
        <time>2026-08-23T13:21:44.000Z</time>
      </trkpt>
      <trkpt lat="47.76261" lon="6.70103">
        <ele>543.6</ele>
        <time>2026-08-23T13:21:46.000Z</time>
      </trkpt>
      <trkpt lat="47.76257" lon="6.70113">
        <ele>543.8</ele>
        <time>2026-08-23T13:21:48.000Z</time>
      </trkpt>
      <trkpt lat="47.76253" lon="6.70123">
        <ele>544.2</ele>
        <time>2026-08-23T13:21:50.000Z</time>
      </trkpt>
      <trkpt lat="47.76249" lon="6.70133">
        <ele>544.4</ele>
        <time>2026-08-23T13:21:52.000Z</time>
      </trkpt>
      <trkpt lat="47.76244" lon="6.70143">
        <ele>544.8</ele>
        <time>2026-08-23T13:21:54.000Z</time>
      </trkpt>
      <trkpt lat="47.7624" lon="6.70153">
        <ele>545</ele>
        <time>2026-08-23T13:21:56.000Z</time>
      </trkpt>
      <trkpt lat="47.76235" lon="6.70162">
        <ele>545</ele>
        <time>2026-08-23T13:21:58.000Z</time>
      </trkpt>
      <trkpt lat="47.7623" lon="6.70171">
        <ele>544.8</ele>
        <time>2026-08-23T13:22:00.000Z</time>
      </trkpt>
      <trkpt lat="47.76224" lon="6.7018">
        <ele>544.8</ele>
        <time>2026-08-23T13:22:02.000Z</time>
      </trkpt>
      <trkpt lat="47.76219" lon="6.70188">
        <ele>545.2</ele>
        <time>2026-08-23T13:22:04.000Z</time>
      </trkpt>
      <trkpt lat="47.76214" lon="6.70197">
        <ele>546</ele>
        <time>2026-08-23T13:22:06.000Z</time>
      </trkpt>
      <trkpt lat="47.76209" lon="6.70206">
        <ele>546.6</ele>
        <time>2026-08-23T13:22:08.000Z</time>
      </trkpt>
      <trkpt lat="47.76204" lon="6.70216">
        <ele>547</ele>
        <time>2026-08-23T13:22:10.000Z</time>
      </trkpt>
      <trkpt lat="47.76199" lon="6.70225">
        <ele>547.6</ele>
        <time>2026-08-23T13:22:12.000Z</time>
      </trkpt>
      <trkpt lat="47.76194" lon="6.70235">
        <ele>547.6</ele>
        <time>2026-08-23T13:22:14.000Z</time>
      </trkpt>
      <trkpt lat="47.7619" lon="6.70244">
        <ele>547.6</ele>
        <time>2026-08-23T13:22:16.000Z</time>
      </trkpt>
      <trkpt lat="47.76185" lon="6.70257">
        <ele>547.6</ele>
        <time>2026-08-23T13:22:18.000Z</time>
      </trkpt>
      <trkpt lat="47.76181" lon="6.7027">
        <ele>547.8</ele>
        <time>2026-08-23T13:22:20.000Z</time>
      </trkpt>
      <trkpt lat="47.76179" lon="6.70281">
        <ele>548</ele>
        <time>2026-08-23T13:22:22.000Z</time>
      </trkpt>
      <trkpt lat="47.76177" lon="6.70292">
        <ele>548.2</ele>
        <time>2026-08-23T13:22:24.000Z</time>
      </trkpt>
      <trkpt lat="47.76177" lon="6.70303">
        <ele>548.4</ele>
        <time>2026-08-23T13:22:26.000Z</time>
      </trkpt>
      <trkpt lat="47.76177" lon="6.70315">
        <ele>548.4</ele>
        <time>2026-08-23T13:22:28.000Z</time>
      </trkpt>
      <trkpt lat="47.76177" lon="6.70327">
        <ele>548.6</ele>
        <time>2026-08-23T13:22:30.000Z</time>
      </trkpt>
      <trkpt lat="47.76177" lon="6.7034">
        <ele>548.2</ele>
        <time>2026-08-23T13:22:32.000Z</time>
      </trkpt>
      <trkpt lat="47.76177" lon="6.70354">
        <ele>548.4</ele>
        <time>2026-08-23T13:22:34.000Z</time>
      </trkpt>
      <trkpt lat="47.76176" lon="6.70367">
        <ele>548.2</ele>
        <time>2026-08-23T13:22:36.000Z</time>
      </trkpt>
      <trkpt lat="47.76175" lon="6.7038">
        <ele>548.2</ele>
        <time>2026-08-23T13:22:38.000Z</time>
      </trkpt>
      <trkpt lat="47.76174" lon="6.70393">
        <ele>548.2</ele>
        <time>2026-08-23T13:22:40.000Z</time>
      </trkpt>
      <trkpt lat="47.76174" lon="6.70404">
        <ele>548.4</ele>
        <time>2026-08-23T13:22:42.000Z</time>
      </trkpt>
      <trkpt lat="47.76173" lon="6.70415">
        <ele>548.8</ele>
        <time>2026-08-23T13:22:44.000Z</time>
      </trkpt>
      <trkpt lat="47.76173" lon="6.70426">
        <ele>549</ele>
        <time>2026-08-23T13:22:46.000Z</time>
      </trkpt>
      <trkpt lat="47.76172" lon="6.70438">
        <ele>549.2</ele>
        <time>2026-08-23T13:22:48.000Z</time>
      </trkpt>
      <trkpt lat="47.7617" lon="6.7045">
        <ele>549.6</ele>
        <time>2026-08-23T13:22:50.000Z</time>
      </trkpt>
      <trkpt lat="47.76169" lon="6.70461">
        <ele>549.8</ele>
        <time>2026-08-23T13:22:52.000Z</time>
      </trkpt>
      <trkpt lat="47.76167" lon="6.70472">
        <ele>550</ele>
        <time>2026-08-23T13:22:54.000Z</time>
      </trkpt>
      <trkpt lat="47.76165" lon="6.70482">
        <ele>550.2</ele>
        <time>2026-08-23T13:22:56.000Z</time>
      </trkpt>
      <trkpt lat="47.76163" lon="6.70493">
        <ele>550.6</ele>
        <time>2026-08-23T13:22:58.000Z</time>
      </trkpt>
      <trkpt lat="47.7616" lon="6.70505">
        <ele>550.8</ele>
        <time>2026-08-23T13:23:00.000Z</time>
      </trkpt>
      <trkpt lat="47.76156" lon="6.70516">
        <ele>551</ele>
        <time>2026-08-23T13:23:02.000Z</time>
      </trkpt>
      <trkpt lat="47.76152" lon="6.70528">
        <ele>551.2</ele>
        <time>2026-08-23T13:23:04.000Z</time>
      </trkpt>
      <trkpt lat="47.76149" lon="6.70539">
        <ele>551.4</ele>
        <time>2026-08-23T13:23:06.000Z</time>
      </trkpt>
      <trkpt lat="47.76145" lon="6.7055">
        <ele>551.6</ele>
        <time>2026-08-23T13:23:08.000Z</time>
      </trkpt>
      <trkpt lat="47.76142" lon="6.70561">
        <ele>551.8</ele>
        <time>2026-08-23T13:23:10.000Z</time>
      </trkpt>
      <trkpt lat="47.76139" lon="6.70573">
        <ele>552</ele>
        <time>2026-08-23T13:23:12.000Z</time>
      </trkpt>
      <trkpt lat="47.76136" lon="6.70584">
        <ele>552.2</ele>
        <time>2026-08-23T13:23:14.000Z</time>
      </trkpt>
      <trkpt lat="47.76133" lon="6.70594">
        <ele>552.4</ele>
        <time>2026-08-23T13:23:16.000Z</time>
      </trkpt>
      <trkpt lat="47.76131" lon="6.70604">
        <ele>552.6</ele>
        <time>2026-08-23T13:23:19.000Z</time>
      </trkpt>
      <trkpt lat="47.76128" lon="6.70614">
        <ele>553</ele>
        <time>2026-08-23T13:23:21.000Z</time>
      </trkpt>
      <trkpt lat="47.76126" lon="6.70622">
        <ele>553.4</ele>
        <time>2026-08-23T13:23:23.000Z</time>
      </trkpt>
      <trkpt lat="47.76124" lon="6.7063">
        <ele>553.8</ele>
        <time>2026-08-23T13:23:25.000Z</time>
      </trkpt>
      <trkpt lat="47.76122" lon="6.70638">
        <ele>554.2</ele>
        <time>2026-08-23T13:23:27.000Z</time>
      </trkpt>
      <trkpt lat="47.7612" lon="6.70646">
        <ele>554.4</ele>
        <time>2026-08-23T13:23:29.000Z</time>
      </trkpt>
      <trkpt lat="47.76118" lon="6.70655">
        <ele>554.8</ele>
        <time>2026-08-23T13:23:31.000Z</time>
      </trkpt>
      <trkpt lat="47.76116" lon="6.70663">
        <ele>555</ele>
        <time>2026-08-23T13:23:33.000Z</time>
      </trkpt>
      <trkpt lat="47.76114" lon="6.70672">
        <ele>555.2</ele>
        <time>2026-08-23T13:23:35.000Z</time>
      </trkpt>
      <trkpt lat="47.76113" lon="6.7068">
        <ele>555.6</ele>
        <time>2026-08-23T13:23:37.000Z</time>
      </trkpt>
      <trkpt lat="47.76111" lon="6.70689">
        <ele>555.8</ele>
        <time>2026-08-23T13:23:39.000Z</time>
      </trkpt>
      <trkpt lat="47.76109" lon="6.70697">
        <ele>556.2</ele>
        <time>2026-08-23T13:23:41.000Z</time>
      </trkpt>
      <trkpt lat="47.76107" lon="6.70705">
        <ele>556.6</ele>
        <time>2026-08-23T13:23:43.000Z</time>
      </trkpt>
      <trkpt lat="47.76105" lon="6.70713">
        <ele>557</ele>
        <time>2026-08-23T13:23:45.000Z</time>
      </trkpt>
      <trkpt lat="47.76103" lon="6.70722">
        <ele>557.2</ele>
        <time>2026-08-23T13:23:47.000Z</time>
      </trkpt>
      <trkpt lat="47.76101" lon="6.70731">
        <ele>557.6</ele>
        <time>2026-08-23T13:23:49.000Z</time>
      </trkpt>
      <trkpt lat="47.76098" lon="6.70739">
        <ele>557.8</ele>
        <time>2026-08-23T13:23:51.000Z</time>
      </trkpt>
      <trkpt lat="47.76096" lon="6.70747">
        <ele>558.2</ele>
        <time>2026-08-23T13:23:53.000Z</time>
      </trkpt>
      <trkpt lat="47.76093" lon="6.70755">
        <ele>558.2</ele>
        <time>2026-08-23T13:23:55.000Z</time>
      </trkpt>
      <trkpt lat="47.76091" lon="6.70763">
        <ele>558.6</ele>
        <time>2026-08-23T13:23:57.000Z</time>
      </trkpt>
      <trkpt lat="47.76088" lon="6.70771">
        <ele>559</ele>
        <time>2026-08-23T13:23:59.000Z</time>
      </trkpt>
      <trkpt lat="47.76086" lon="6.70779">
        <ele>559.2</ele>
        <time>2026-08-23T13:24:01.000Z</time>
      </trkpt>
      <trkpt lat="47.76084" lon="6.70786">
        <ele>559.8</ele>
        <time>2026-08-23T13:24:03.000Z</time>
      </trkpt>
      <trkpt lat="47.7608" lon="6.70796">
        <ele>560.2</ele>
        <time>2026-08-23T13:24:05.000Z</time>
      </trkpt>
      <trkpt lat="47.76077" lon="6.70806">
        <ele>560.4</ele>
        <time>2026-08-23T13:24:07.000Z</time>
      </trkpt>
      <trkpt lat="47.76074" lon="6.70814">
        <ele>560.8</ele>
        <time>2026-08-23T13:24:09.000Z</time>
      </trkpt>
      <trkpt lat="47.76072" lon="6.70822">
        <ele>561.2</ele>
        <time>2026-08-23T13:24:11.000Z</time>
      </trkpt>
      <trkpt lat="47.76069" lon="6.70831">
        <ele>561.6</ele>
        <time>2026-08-23T13:24:13.000Z</time>
      </trkpt>
      <trkpt lat="47.76067" lon="6.70839">
        <ele>561.8</ele>
        <time>2026-08-23T13:24:15.000Z</time>
      </trkpt>
      <trkpt lat="47.76065" lon="6.70847">
        <ele>562.2</ele>
        <time>2026-08-23T13:24:17.000Z</time>
      </trkpt>
      <trkpt lat="47.76063" lon="6.70856">
        <ele>562.4</ele>
        <time>2026-08-23T13:24:19.000Z</time>
      </trkpt>
      <trkpt lat="47.76061" lon="6.70864">
        <ele>562.6</ele>
        <time>2026-08-23T13:24:21.000Z</time>
      </trkpt>
      <trkpt lat="47.76059" lon="6.70872">
        <ele>562.8</ele>
        <time>2026-08-23T13:24:23.000Z</time>
      </trkpt>
      <trkpt lat="47.76057" lon="6.70881">
        <ele>563</ele>
        <time>2026-08-23T13:24:25.000Z</time>
      </trkpt>
      <trkpt lat="47.76054" lon="6.70889">
        <ele>563</ele>
        <time>2026-08-23T13:24:27.000Z</time>
      </trkpt>
      <trkpt lat="47.76052" lon="6.70897">
        <ele>563.2</ele>
        <time>2026-08-23T13:24:29.000Z</time>
      </trkpt>
      <trkpt lat="47.7605" lon="6.70906">
        <ele>563.2</ele>
        <time>2026-08-23T13:24:31.000Z</time>
      </trkpt>
      <trkpt lat="47.76047" lon="6.70914">
        <ele>563.2</ele>
        <time>2026-08-23T13:24:33.000Z</time>
      </trkpt>
      <trkpt lat="47.76045" lon="6.70922">
        <ele>563.2</ele>
        <time>2026-08-23T13:24:35.000Z</time>
      </trkpt>
      <trkpt lat="47.76043" lon="6.70931">
        <ele>563.2</ele>
        <time>2026-08-23T13:24:37.000Z</time>
      </trkpt>
      <trkpt lat="47.76041" lon="6.70939">
        <ele>563.2</ele>
        <time>2026-08-23T13:24:39.000Z</time>
      </trkpt>
      <trkpt lat="47.76039" lon="6.70948">
        <ele>563.2</ele>
        <time>2026-08-23T13:24:41.000Z</time>
      </trkpt>
      <trkpt lat="47.76036" lon="6.70956">
        <ele>563.6</ele>
        <time>2026-08-23T13:24:43.000Z</time>
      </trkpt>
      <trkpt lat="47.76033" lon="6.70963">
        <ele>564</ele>
        <time>2026-08-23T13:24:45.000Z</time>
      </trkpt>
      <trkpt lat="47.7603" lon="6.70971">
        <ele>564.4</ele>
        <time>2026-08-23T13:24:47.000Z</time>
      </trkpt>
      <trkpt lat="47.76027" lon="6.70978">
        <ele>565</ele>
        <time>2026-08-23T13:24:49.000Z</time>
      </trkpt>
      <trkpt lat="47.76023" lon="6.70985">
        <ele>565.6</ele>
        <time>2026-08-23T13:24:51.000Z</time>
      </trkpt>
      <trkpt lat="47.76019" lon="6.70991">
        <ele>566.2</ele>
        <time>2026-08-23T13:24:53.000Z</time>
      </trkpt>
      <trkpt lat="47.76015" lon="6.70996">
        <ele>566.4</ele>
        <time>2026-08-23T13:24:55.000Z</time>
      </trkpt>
      <trkpt lat="47.7601" lon="6.71002">
        <ele>566.8</ele>
        <time>2026-08-23T13:24:57.000Z</time>
      </trkpt>
      <trkpt lat="47.76006" lon="6.71007">
        <ele>567</ele>
        <time>2026-08-23T13:24:59.000Z</time>
      </trkpt>
      <trkpt lat="47.76001" lon="6.71012">
        <ele>567.2</ele>
        <time>2026-08-23T13:25:01.000Z</time>
      </trkpt>
      <trkpt lat="47.75996" lon="6.71016">
        <ele>567.2</ele>
        <time>2026-08-23T13:25:03.000Z</time>
      </trkpt>
      <trkpt lat="47.7599" lon="6.71021">
        <ele>567.4</ele>
        <time>2026-08-23T13:25:05.000Z</time>
      </trkpt>
      <trkpt lat="47.75985" lon="6.71026">
        <ele>567.8</ele>
        <time>2026-08-23T13:25:07.000Z</time>
      </trkpt>
      <trkpt lat="47.7598" lon="6.71031">
        <ele>567.8</ele>
        <time>2026-08-23T13:25:09.000Z</time>
      </trkpt>
      <trkpt lat="47.75975" lon="6.71036">
        <ele>567.8</ele>
        <time>2026-08-23T13:25:11.000Z</time>
      </trkpt>
      <trkpt lat="47.7597" lon="6.71041">
        <ele>568.2</ele>
        <time>2026-08-23T13:25:13.000Z</time>
      </trkpt>
      <trkpt lat="47.75965" lon="6.71047">
        <ele>568.8</ele>
        <time>2026-08-23T13:25:15.000Z</time>
      </trkpt>
      <trkpt lat="47.75961" lon="6.71052">
        <ele>569.4</ele>
        <time>2026-08-23T13:25:17.000Z</time>
      </trkpt>
      <trkpt lat="47.75957" lon="6.71058">
        <ele>569.6</ele>
        <time>2026-08-23T13:25:19.000Z</time>
      </trkpt>
      <trkpt lat="47.75953" lon="6.71064">
        <ele>570</ele>
        <time>2026-08-23T13:25:21.000Z</time>
      </trkpt>
      <trkpt lat="47.7595" lon="6.7107">
        <ele>570.2</ele>
        <time>2026-08-23T13:25:23.000Z</time>
      </trkpt>
      <trkpt lat="47.75947" lon="6.71077">
        <ele>570.2</ele>
        <time>2026-08-23T13:25:26.000Z</time>
      </trkpt>
      <trkpt lat="47.75945" lon="6.71084">
        <ele>570.2</ele>
        <time>2026-08-23T13:25:28.000Z</time>
      </trkpt>
      <trkpt lat="47.75942" lon="6.71091">
        <ele>570.4</ele>
        <time>2026-08-23T13:25:30.000Z</time>
      </trkpt>
      <trkpt lat="47.75939" lon="6.71098">
        <ele>570.4</ele>
        <time>2026-08-23T13:25:32.000Z</time>
      </trkpt>
      <trkpt lat="47.75937" lon="6.71106">
        <ele>570.6</ele>
        <time>2026-08-23T13:25:34.000Z</time>
      </trkpt>
      <trkpt lat="47.75935" lon="6.71113">
        <ele>570.4</ele>
        <time>2026-08-23T13:25:36.000Z</time>
      </trkpt>
      <trkpt lat="47.75932" lon="6.71121">
        <ele>570.6</ele>
        <time>2026-08-23T13:25:38.000Z</time>
      </trkpt>
      <trkpt lat="47.7593" lon="6.71128">
        <ele>570.8</ele>
        <time>2026-08-23T13:25:40.000Z</time>
      </trkpt>
      <trkpt lat="47.75927" lon="6.71135">
        <ele>571.2</ele>
        <time>2026-08-23T13:25:42.000Z</time>
      </trkpt>
      <trkpt lat="47.75925" lon="6.71143">
        <ele>571.6</ele>
        <time>2026-08-23T13:25:44.000Z</time>
      </trkpt>
      <trkpt lat="47.75923" lon="6.71151">
        <ele>572.2</ele>
        <time>2026-08-23T13:25:46.000Z</time>
      </trkpt>
      <trkpt lat="47.7592" lon="6.71159">
        <ele>572.6</ele>
        <time>2026-08-23T13:25:48.000Z</time>
      </trkpt>
      <trkpt lat="47.75917" lon="6.71169">
        <ele>572.8</ele>
        <time>2026-08-23T13:25:50.000Z</time>
      </trkpt>
      <trkpt lat="47.75914" lon="6.71178">
        <ele>573.2</ele>
        <time>2026-08-23T13:25:52.000Z</time>
      </trkpt>
      <trkpt lat="47.75911" lon="6.71187">
        <ele>573.6</ele>
        <time>2026-08-23T13:25:54.000Z</time>
      </trkpt>
      <trkpt lat="47.75909" lon="6.71195">
        <ele>573.8</ele>
        <time>2026-08-23T13:25:56.000Z</time>
      </trkpt>
      <trkpt lat="47.75907" lon="6.71202">
        <ele>574.2</ele>
        <time>2026-08-23T13:25:58.000Z</time>
      </trkpt>
      <trkpt lat="47.75905" lon="6.7121">
        <ele>574.4</ele>
        <time>2026-08-23T13:26:00.000Z</time>
      </trkpt>
      <trkpt lat="47.75903" lon="6.71218">
        <ele>574.6</ele>
        <time>2026-08-23T13:26:02.000Z</time>
      </trkpt>
      <trkpt lat="47.759" lon="6.71225">
        <ele>574.8</ele>
        <time>2026-08-23T13:26:04.000Z</time>
      </trkpt>
      <trkpt lat="47.75896" lon="6.71232">
        <ele>575</ele>
        <time>2026-08-23T13:26:06.000Z</time>
      </trkpt>
      <trkpt lat="47.7589" lon="6.71237">
        <ele>575.2</ele>
        <time>2026-08-23T13:26:08.000Z</time>
      </trkpt>
      <trkpt lat="47.75885" lon="6.71239">
        <ele>575.6</ele>
        <time>2026-08-23T13:26:10.000Z</time>
      </trkpt>
      <trkpt lat="47.7588" lon="6.7124">
        <ele>575.8</ele>
        <time>2026-08-23T13:26:12.000Z</time>
      </trkpt>
      <trkpt lat="47.75874" lon="6.71239">
        <ele>576.2</ele>
        <time>2026-08-23T13:26:14.000Z</time>
      </trkpt>
      <trkpt lat="47.7587" lon="6.71237">
        <ele>576.8</ele>
        <time>2026-08-23T13:26:16.000Z</time>
      </trkpt>
      <trkpt lat="47.75866" lon="6.71233">
        <ele>577.2</ele>
        <time>2026-08-23T13:26:18.000Z</time>
      </trkpt>
      <trkpt lat="47.75863" lon="6.71229">
        <ele>577.6</ele>
        <time>2026-08-23T13:26:20.000Z</time>
      </trkpt>
      <trkpt lat="47.7586" lon="6.71224">
        <ele>578.2</ele>
        <time>2026-08-23T13:26:22.000Z</time>
      </trkpt>
      <trkpt lat="47.75857" lon="6.71219">
        <ele>578.6</ele>
        <time>2026-08-23T13:26:24.000Z</time>
      </trkpt>
      <trkpt lat="47.75854" lon="6.71214">
        <ele>579</ele>
        <time>2026-08-23T13:26:26.000Z</time>
      </trkpt>
      <trkpt lat="47.75851" lon="6.71209">
        <ele>579.4</ele>
        <time>2026-08-23T13:26:28.000Z</time>
      </trkpt>
      <trkpt lat="47.75849" lon="6.71204">
        <ele>579.8</ele>
        <time>2026-08-23T13:26:30.000Z</time>
      </trkpt>
      <trkpt lat="47.75847" lon="6.71198">
        <ele>580.2</ele>
        <time>2026-08-23T13:26:32.000Z</time>
      </trkpt>
      <trkpt lat="47.75844" lon="6.71192">
        <ele>580.4</ele>
        <time>2026-08-23T13:26:34.000Z</time>
      </trkpt>
      <trkpt lat="47.75842" lon="6.71186">
        <ele>580.6</ele>
        <time>2026-08-23T13:26:36.000Z</time>
      </trkpt>
      <trkpt lat="47.7584" lon="6.71181">
        <ele>581</ele>
        <time>2026-08-23T13:26:38.000Z</time>
      </trkpt>
      <trkpt lat="47.75839" lon="6.71174">
        <ele>581.2</ele>
        <time>2026-08-23T13:26:40.000Z</time>
      </trkpt>
      <trkpt lat="47.75838" lon="6.71168">
        <ele>581.4</ele>
        <time>2026-08-23T13:26:42.000Z</time>
      </trkpt>
      <trkpt lat="47.75837" lon="6.71161">
        <ele>581.6</ele>
        <time>2026-08-23T13:26:44.000Z</time>
      </trkpt>
      <trkpt lat="47.75836" lon="6.71154">
        <ele>581.8</ele>
        <time>2026-08-23T13:26:46.000Z</time>
      </trkpt>
      <trkpt lat="47.75835" lon="6.71146">
        <ele>582</ele>
        <time>2026-08-23T13:26:48.000Z</time>
      </trkpt>
      <trkpt lat="47.75834" lon="6.71139">
        <ele>582.2</ele>
        <time>2026-08-23T13:26:50.000Z</time>
      </trkpt>
      <trkpt lat="47.75832" lon="6.71132">
        <ele>582.6</ele>
        <time>2026-08-23T13:26:52.000Z</time>
      </trkpt>
      <trkpt lat="47.7583" lon="6.71126">
        <ele>582.8</ele>
        <time>2026-08-23T13:26:54.000Z</time>
      </trkpt>
      <trkpt lat="47.75828" lon="6.7112">
        <ele>583</ele>
        <time>2026-08-23T13:26:56.000Z</time>
      </trkpt>
      <trkpt lat="47.75825" lon="6.71115">
        <ele>583.2</ele>
        <time>2026-08-23T13:26:59.000Z</time>
      </trkpt>
      <trkpt lat="47.75821" lon="6.71111">
        <ele>583.4</ele>
        <time>2026-08-23T13:27:01.000Z</time>
      </trkpt>
      <trkpt lat="47.75817" lon="6.71108">
        <ele>584</ele>
        <time>2026-08-23T13:27:03.000Z</time>
      </trkpt>
      <trkpt lat="47.75813" lon="6.71106">
        <ele>584.4</ele>
        <time>2026-08-23T13:27:05.000Z</time>
      </trkpt>
      <trkpt lat="47.75808" lon="6.71105">
        <ele>584.8</ele>
        <time>2026-08-23T13:27:07.000Z</time>
      </trkpt>
      <trkpt lat="47.75804" lon="6.71106">
        <ele>585.4</ele>
        <time>2026-08-23T13:27:09.000Z</time>
      </trkpt>
      <trkpt lat="47.758" lon="6.71107">
        <ele>585.8</ele>
        <time>2026-08-23T13:27:11.000Z</time>
      </trkpt>
      <trkpt lat="47.75795" lon="6.71109">
        <ele>586.4</ele>
        <time>2026-08-23T13:27:13.000Z</time>
      </trkpt>
      <trkpt lat="47.75791" lon="6.71113">
        <ele>587</ele>
        <time>2026-08-23T13:27:15.000Z</time>
      </trkpt>
      <trkpt lat="47.75788" lon="6.71117">
        <ele>587.4</ele>
        <time>2026-08-23T13:27:17.000Z</time>
      </trkpt>
      <trkpt lat="47.75785" lon="6.71123">
        <ele>587.8</ele>
        <time>2026-08-23T13:27:19.000Z</time>
      </trkpt>
      <trkpt lat="47.75783" lon="6.71128">
        <ele>588</ele>
        <time>2026-08-23T13:27:21.000Z</time>
      </trkpt>
      <trkpt lat="47.75782" lon="6.71134">
        <ele>588.2</ele>
        <time>2026-08-23T13:27:23.000Z</time>
      </trkpt>
      <trkpt lat="47.75781" lon="6.71141">
        <ele>588.4</ele>
        <time>2026-08-23T13:27:25.000Z</time>
      </trkpt>
      <trkpt lat="47.75781" lon="6.71148">
        <ele>588.6</ele>
        <time>2026-08-23T13:27:27.000Z</time>
      </trkpt>
      <trkpt lat="47.75781" lon="6.71155">
        <ele>588.6</ele>
        <time>2026-08-23T13:27:29.000Z</time>
      </trkpt>
      <trkpt lat="47.75781" lon="6.71162">
        <ele>588.8</ele>
        <time>2026-08-23T13:27:31.000Z</time>
      </trkpt>
      <trkpt lat="47.75781" lon="6.71169">
        <ele>588.8</ele>
        <time>2026-08-23T13:27:33.000Z</time>
      </trkpt>
      <trkpt lat="47.75781" lon="6.71176">
        <ele>588.8</ele>
        <time>2026-08-23T13:27:35.000Z</time>
      </trkpt>
      <trkpt lat="47.75782" lon="6.71183">
        <ele>589</ele>
        <time>2026-08-23T13:27:37.000Z</time>
      </trkpt>
      <trkpt lat="47.75782" lon="6.7119">
        <ele>589.2</ele>
        <time>2026-08-23T13:27:39.000Z</time>
      </trkpt>
      <trkpt lat="47.75782" lon="6.71197">
        <ele>589.4</ele>
        <time>2026-08-23T13:27:41.000Z</time>
      </trkpt>
      <trkpt lat="47.75782" lon="6.71205">
        <ele>589.6</ele>
        <time>2026-08-23T13:27:43.000Z</time>
      </trkpt>
      <trkpt lat="47.75782" lon="6.71212">
        <ele>589.8</ele>
        <time>2026-08-23T13:27:45.000Z</time>
      </trkpt>
      <trkpt lat="47.75782" lon="6.71219">
        <ele>590.2</ele>
        <time>2026-08-23T13:27:47.000Z</time>
      </trkpt>
      <trkpt lat="47.75781" lon="6.71227">
        <ele>590.6</ele>
        <time>2026-08-23T13:27:49.000Z</time>
      </trkpt>
      <trkpt lat="47.75781" lon="6.71232">
        <ele>591</ele>
        <time>2026-08-23T13:27:51.000Z</time>
      </trkpt>
      <trkpt lat="47.7578" lon="6.7124">
        <ele>591.2</ele>
        <time>2026-08-23T13:27:53.000Z</time>
      </trkpt>
      <trkpt lat="47.75779" lon="6.71245">
        <ele>591.4</ele>
        <time>2026-08-23T13:27:55.000Z</time>
      </trkpt>
      <trkpt lat="47.75778" lon="6.71255">
        <ele>591.8</ele>
        <time>2026-08-23T13:27:57.000Z</time>
      </trkpt>
      <trkpt lat="47.75777" lon="6.71261">
        <ele>592</ele>
        <time>2026-08-23T13:27:59.000Z</time>
      </trkpt>
      <trkpt lat="47.75776" lon="6.71268">
        <ele>592.2</ele>
        <time>2026-08-23T13:28:01.000Z</time>
      </trkpt>
      <trkpt lat="47.75775" lon="6.71275">
        <ele>592.4</ele>
        <time>2026-08-23T13:28:03.000Z</time>
      </trkpt>
      <trkpt lat="47.75773" lon="6.71282">
        <ele>592.6</ele>
        <time>2026-08-23T13:28:05.000Z</time>
      </trkpt>
      <trkpt lat="47.75772" lon="6.71289">
        <ele>593</ele>
        <time>2026-08-23T13:28:07.000Z</time>
      </trkpt>
      <trkpt lat="47.75771" lon="6.71295">
        <ele>593.2</ele>
        <time>2026-08-23T13:28:09.000Z</time>
      </trkpt>
      <trkpt lat="47.7577" lon="6.71302">
        <ele>593.6</ele>
        <time>2026-08-23T13:28:11.000Z</time>
      </trkpt>
      <trkpt lat="47.75768" lon="6.71308">
        <ele>593.8</ele>
        <time>2026-08-23T13:28:13.000Z</time>
      </trkpt>
      <trkpt lat="47.75767" lon="6.71315">
        <ele>594.2</ele>
        <time>2026-08-23T13:28:15.000Z</time>
      </trkpt>
      <trkpt lat="47.75765" lon="6.71322">
        <ele>594.4</ele>
        <time>2026-08-23T13:28:17.000Z</time>
      </trkpt>
      <trkpt lat="47.75764" lon="6.71328">
        <ele>594.8</ele>
        <time>2026-08-23T13:28:19.000Z</time>
      </trkpt>
      <trkpt lat="47.75763" lon="6.71335">
        <ele>595.2</ele>
        <time>2026-08-23T13:28:21.000Z</time>
      </trkpt>
      <trkpt lat="47.75761" lon="6.71341">
        <ele>595.6</ele>
        <time>2026-08-23T13:28:23.000Z</time>
      </trkpt>
      <trkpt lat="47.7576" lon="6.71348">
        <ele>595.6</ele>
        <time>2026-08-23T13:28:25.000Z</time>
      </trkpt>
      <trkpt lat="47.75759" lon="6.71355">
        <ele>595.8</ele>
        <time>2026-08-23T13:28:27.000Z</time>
      </trkpt>
      <trkpt lat="47.75758" lon="6.71362">
        <ele>596</ele>
        <time>2026-08-23T13:28:29.000Z</time>
      </trkpt>
      <trkpt lat="47.75757" lon="6.71369">
        <ele>596.2</ele>
        <time>2026-08-23T13:28:31.000Z</time>
      </trkpt>
      <trkpt lat="47.75756" lon="6.71376">
        <ele>596.4</ele>
        <time>2026-08-23T13:28:33.000Z</time>
      </trkpt>
      <trkpt lat="47.75755" lon="6.71382">
        <ele>596.8</ele>
        <time>2026-08-23T13:28:35.000Z</time>
      </trkpt>
      <trkpt lat="47.75754" lon="6.71389">
        <ele>597.2</ele>
        <time>2026-08-23T13:28:37.000Z</time>
      </trkpt>
      <trkpt lat="47.75754" lon="6.71396">
        <ele>597.6</ele>
        <time>2026-08-23T13:28:39.000Z</time>
      </trkpt>
      <trkpt lat="47.75753" lon="6.71403">
        <ele>598</ele>
        <time>2026-08-23T13:28:41.000Z</time>
      </trkpt>
      <trkpt lat="47.75752" lon="6.7141">
        <ele>598.4</ele>
        <time>2026-08-23T13:28:43.000Z</time>
      </trkpt>
      <trkpt lat="47.75751" lon="6.71417">
        <ele>598.8</ele>
        <time>2026-08-23T13:28:45.000Z</time>
      </trkpt>
      <trkpt lat="47.7575" lon="6.71424">
        <ele>599.2</ele>
        <time>2026-08-23T13:28:47.000Z</time>
      </trkpt>
      <trkpt lat="47.75749" lon="6.71431">
        <ele>599.4</ele>
        <time>2026-08-23T13:28:49.000Z</time>
      </trkpt>
      <trkpt lat="47.75747" lon="6.71439">
        <ele>599.8</ele>
        <time>2026-08-23T13:28:52.000Z</time>
      </trkpt>
      <trkpt lat="47.75746" lon="6.71446">
        <ele>600</ele>
        <time>2026-08-23T13:28:54.000Z</time>
      </trkpt>
      <trkpt lat="47.75745" lon="6.71454">
        <ele>600.2</ele>
        <time>2026-08-23T13:28:56.000Z</time>
      </trkpt>
      <trkpt lat="47.75744" lon="6.71461">
        <ele>600.6</ele>
        <time>2026-08-23T13:28:58.000Z</time>
      </trkpt>
      <trkpt lat="47.75742" lon="6.71468">
        <ele>601.4</ele>
        <time>2026-08-23T13:29:00.000Z</time>
      </trkpt>
      <trkpt lat="47.75741" lon="6.71475">
        <ele>601.8</ele>
        <time>2026-08-23T13:29:02.000Z</time>
      </trkpt>
      <trkpt lat="47.75739" lon="6.71481">
        <ele>602.2</ele>
        <time>2026-08-23T13:29:04.000Z</time>
      </trkpt>
      <trkpt lat="47.75738" lon="6.71489">
        <ele>602.4</ele>
        <time>2026-08-23T13:29:06.000Z</time>
      </trkpt>
      <trkpt lat="47.75737" lon="6.71496">
        <ele>602.6</ele>
        <time>2026-08-23T13:29:08.000Z</time>
      </trkpt>
      <trkpt lat="47.75736" lon="6.71502">
        <ele>602.8</ele>
        <time>2026-08-23T13:29:10.000Z</time>
      </trkpt>
      <trkpt lat="47.75734" lon="6.7151">
        <ele>602.8</ele>
        <time>2026-08-23T13:29:12.000Z</time>
      </trkpt>
      <trkpt lat="47.75733" lon="6.71517">
        <ele>603</ele>
        <time>2026-08-23T13:29:14.000Z</time>
      </trkpt>
      <trkpt lat="47.75732" lon="6.71524">
        <ele>603.2</ele>
        <time>2026-08-23T13:29:16.000Z</time>
      </trkpt>
      <trkpt lat="47.7573" lon="6.71531">
        <ele>603.4</ele>
        <time>2026-08-23T13:29:18.000Z</time>
      </trkpt>
      <trkpt lat="47.75729" lon="6.71539">
        <ele>603.6</ele>
        <time>2026-08-23T13:29:20.000Z</time>
      </trkpt>
      <trkpt lat="47.75727" lon="6.71546">
        <ele>603.8</ele>
        <time>2026-08-23T13:29:22.000Z</time>
      </trkpt>
      <trkpt lat="47.75724" lon="6.71555">
        <ele>603.8</ele>
        <time>2026-08-23T13:29:24.000Z</time>
      </trkpt>
      <trkpt lat="47.75721" lon="6.71567">
        <ele>603.8</ele>
        <time>2026-08-23T13:29:26.000Z</time>
      </trkpt>
      <trkpt lat="47.75718" lon="6.71581">
        <ele>603.6</ele>
        <time>2026-08-23T13:29:28.000Z</time>
      </trkpt>
      <trkpt lat="47.75719" lon="6.71592">
        <ele>603.6</ele>
        <time>2026-08-23T13:29:30.000Z</time>
      </trkpt>
      <trkpt lat="47.75721" lon="6.71602">
        <ele>603.6</ele>
        <time>2026-08-23T13:29:32.000Z</time>
      </trkpt>
      <trkpt lat="47.75724" lon="6.71609">
        <ele>603.8</ele>
        <time>2026-08-23T13:29:34.000Z</time>
      </trkpt>
      <trkpt lat="47.75728" lon="6.71615">
        <ele>604</ele>
        <time>2026-08-23T13:29:36.000Z</time>
      </trkpt>
      <trkpt lat="47.75732" lon="6.71621">
        <ele>604.2</ele>
        <time>2026-08-23T13:29:38.000Z</time>
      </trkpt>
      <trkpt lat="47.75736" lon="6.71627">
        <ele>604.6</ele>
        <time>2026-08-23T13:29:40.000Z</time>
      </trkpt>
      <trkpt lat="47.7574" lon="6.71633">
        <ele>604.8</ele>
        <time>2026-08-23T13:29:42.000Z</time>
      </trkpt>
      <trkpt lat="47.75744" lon="6.71639">
        <ele>605</ele>
        <time>2026-08-23T13:29:44.000Z</time>
      </trkpt>
      <trkpt lat="47.75748" lon="6.71645">
        <ele>605.2</ele>
        <time>2026-08-23T13:29:46.000Z</time>
      </trkpt>
      <trkpt lat="47.75752" lon="6.71651">
        <ele>605.6</ele>
        <time>2026-08-23T13:29:48.000Z</time>
      </trkpt>
      <trkpt lat="47.75755" lon="6.71657">
        <ele>605.8</ele>
        <time>2026-08-23T13:29:50.000Z</time>
      </trkpt>
      <trkpt lat="47.75759" lon="6.71663">
        <ele>606.2</ele>
        <time>2026-08-23T13:29:52.000Z</time>
      </trkpt>
      <trkpt lat="47.75762" lon="6.7167">
        <ele>606.6</ele>
        <time>2026-08-23T13:29:54.000Z</time>
      </trkpt>
      <trkpt lat="47.75766" lon="6.71677">
        <ele>607</ele>
        <time>2026-08-23T13:29:56.000Z</time>
      </trkpt>
      <trkpt lat="47.75769" lon="6.71684">
        <ele>607.4</ele>
        <time>2026-08-23T13:29:58.000Z</time>
      </trkpt>
      <trkpt lat="47.75773" lon="6.7169">
        <ele>607.8</ele>
        <time>2026-08-23T13:30:00.000Z</time>
      </trkpt>
      <trkpt lat="47.75776" lon="6.71697">
        <ele>608.2</ele>
        <time>2026-08-23T13:30:02.000Z</time>
      </trkpt>
      <trkpt lat="47.75779" lon="6.71705">
        <ele>608.4</ele>
        <time>2026-08-23T13:30:04.000Z</time>
      </trkpt>
      <trkpt lat="47.7578" lon="6.71713">
        <ele>608.8</ele>
        <time>2026-08-23T13:30:06.000Z</time>
      </trkpt>
      <trkpt lat="47.7578" lon="6.71721">
        <ele>609.2</ele>
        <time>2026-08-23T13:30:08.000Z</time>
      </trkpt>
      <trkpt lat="47.75779" lon="6.71728">
        <ele>609.8</ele>
        <time>2026-08-23T13:30:10.000Z</time>
      </trkpt>
      <trkpt lat="47.75777" lon="6.71735">
        <ele>610.2</ele>
        <time>2026-08-23T13:30:12.000Z</time>
      </trkpt>
      <trkpt lat="47.75774" lon="6.7174">
        <ele>610.6</ele>
        <time>2026-08-23T13:30:14.000Z</time>
      </trkpt>
      <trkpt lat="47.7577" lon="6.71744">
        <ele>611</ele>
        <time>2026-08-23T13:30:16.000Z</time>
      </trkpt>
      <trkpt lat="47.75766" lon="6.71747">
        <ele>611.4</ele>
        <time>2026-08-23T13:30:18.000Z</time>
      </trkpt>
      <trkpt lat="47.75761" lon="6.71748">
        <ele>611.6</ele>
        <time>2026-08-23T13:30:20.000Z</time>
      </trkpt>
      <trkpt lat="47.75756" lon="6.71749">
        <ele>612</ele>
        <time>2026-08-23T13:30:22.000Z</time>
      </trkpt>
      <trkpt lat="47.75751" lon="6.71748">
        <ele>612.4</ele>
        <time>2026-08-23T13:30:24.000Z</time>
      </trkpt>
      <trkpt lat="47.75747" lon="6.71746">
        <ele>612.6</ele>
        <time>2026-08-23T13:30:26.000Z</time>
      </trkpt>
      <trkpt lat="47.75743" lon="6.71742">
        <ele>612.8</ele>
        <time>2026-08-23T13:30:28.000Z</time>
      </trkpt>
      <trkpt lat="47.75739" lon="6.71739">
        <ele>613.2</ele>
        <time>2026-08-23T13:30:30.000Z</time>
      </trkpt>
      <trkpt lat="47.75735" lon="6.71734">
        <ele>613.6</ele>
        <time>2026-08-23T13:30:32.000Z</time>
      </trkpt>
      <trkpt lat="47.75732" lon="6.7173">
        <ele>614</ele>
        <time>2026-08-23T13:30:34.000Z</time>
      </trkpt>
      <trkpt lat="47.75729" lon="6.71724">
        <ele>614.2</ele>
        <time>2026-08-23T13:30:36.000Z</time>
      </trkpt>
      <trkpt lat="47.75726" lon="6.71719">
        <ele>614.4</ele>
        <time>2026-08-23T13:30:38.000Z</time>
      </trkpt>
      <trkpt lat="47.75724" lon="6.71713">
        <ele>614.8</ele>
        <time>2026-08-23T13:30:40.000Z</time>
      </trkpt>
      <trkpt lat="47.75721" lon="6.71708">
        <ele>615</ele>
        <time>2026-08-23T13:30:42.000Z</time>
      </trkpt>
      <trkpt lat="47.75718" lon="6.71702">
        <ele>615.4</ele>
        <time>2026-08-23T13:30:45.000Z</time>
      </trkpt>
      <trkpt lat="47.75715" lon="6.71697">
        <ele>615.6</ele>
        <time>2026-08-23T13:30:47.000Z</time>
      </trkpt>
      <trkpt lat="47.75712" lon="6.71692">
        <ele>615.8</ele>
        <time>2026-08-23T13:30:49.000Z</time>
      </trkpt>
      <trkpt lat="47.75709" lon="6.71687">
        <ele>616</ele>
        <time>2026-08-23T13:30:51.000Z</time>
      </trkpt>
      <trkpt lat="47.75706" lon="6.71681">
        <ele>616.2</ele>
        <time>2026-08-23T13:30:53.000Z</time>
      </trkpt>
      <trkpt lat="47.75703" lon="6.71676">
        <ele>616.4</ele>
        <time>2026-08-23T13:30:55.000Z</time>
      </trkpt>
      <trkpt lat="47.75701" lon="6.7167">
        <ele>616.6</ele>
        <time>2026-08-23T13:30:57.000Z</time>
      </trkpt>
      <trkpt lat="47.75698" lon="6.71665">
        <ele>617</ele>
        <time>2026-08-23T13:30:59.000Z</time>
      </trkpt>
      <trkpt lat="47.75695" lon="6.71659">
        <ele>617.2</ele>
        <time>2026-08-23T13:31:01.000Z</time>
      </trkpt>
      <trkpt lat="47.75692" lon="6.71654">
        <ele>617.2</ele>
        <time>2026-08-23T13:31:03.000Z</time>
      </trkpt>
      <trkpt lat="47.75689" lon="6.71649">
        <ele>617.4</ele>
        <time>2026-08-23T13:31:05.000Z</time>
      </trkpt>
      <trkpt lat="47.75685" lon="6.71644">
        <ele>617.8</ele>
        <time>2026-08-23T13:31:07.000Z</time>
      </trkpt>
      <trkpt lat="47.75682" lon="6.71639">
        <ele>618.2</ele>
        <time>2026-08-23T13:31:09.000Z</time>
      </trkpt>
      <trkpt lat="47.75678" lon="6.71635">
        <ele>618.2</ele>
        <time>2026-08-23T13:31:11.000Z</time>
      </trkpt>
      <trkpt lat="47.75674" lon="6.71631">
        <ele>618.4</ele>
        <time>2026-08-23T13:31:13.000Z</time>
      </trkpt>
      <trkpt lat="47.7567" lon="6.71626">
        <ele>618.8</ele>
        <time>2026-08-23T13:31:15.000Z</time>
      </trkpt>
      <trkpt lat="47.75667" lon="6.71622">
        <ele>619.2</ele>
        <time>2026-08-23T13:31:17.000Z</time>
      </trkpt>
      <trkpt lat="47.75663" lon="6.71618">
        <ele>619.6</ele>
        <time>2026-08-23T13:31:19.000Z</time>
      </trkpt>
      <trkpt lat="47.75658" lon="6.71615">
        <ele>620.2</ele>
        <time>2026-08-23T13:31:21.000Z</time>
      </trkpt>
      <trkpt lat="47.75654" lon="6.71612">
        <ele>620.6</ele>
        <time>2026-08-23T13:31:23.000Z</time>
      </trkpt>
      <trkpt lat="47.75651" lon="6.71609">
        <ele>621</ele>
        <time>2026-08-23T13:31:25.000Z</time>
      </trkpt>
      <trkpt lat="47.75646" lon="6.71607">
        <ele>621.4</ele>
        <time>2026-08-23T13:31:27.000Z</time>
      </trkpt>
      <trkpt lat="47.75642" lon="6.71605">
        <ele>621.6</ele>
        <time>2026-08-23T13:31:29.000Z</time>
      </trkpt>
      <trkpt lat="47.75637" lon="6.71603">
        <ele>621.8</ele>
        <time>2026-08-23T13:31:31.000Z</time>
      </trkpt>
      <trkpt lat="47.75633" lon="6.71602">
        <ele>622.2</ele>
        <time>2026-08-23T13:31:33.000Z</time>
      </trkpt>
      <trkpt lat="47.75627" lon="6.71603">
        <ele>622.4</ele>
        <time>2026-08-23T13:31:35.000Z</time>
      </trkpt>
      <trkpt lat="47.75622" lon="6.71604">
        <ele>622.6</ele>
        <time>2026-08-23T13:31:37.000Z</time>
      </trkpt>
      <trkpt lat="47.75617" lon="6.71606">
        <ele>622.6</ele>
        <time>2026-08-23T13:31:39.000Z</time>
      </trkpt>
      <trkpt lat="47.75612" lon="6.71608">
        <ele>622.6</ele>
        <time>2026-08-23T13:31:41.000Z</time>
      </trkpt>
      <trkpt lat="47.75604" lon="6.7161">
        <ele>622.4</ele>
        <time>2026-08-23T13:31:43.000Z</time>
      </trkpt>
      <trkpt lat="47.75595" lon="6.71613">
        <ele>621.8</ele>
        <time>2026-08-23T13:31:45.000Z</time>
      </trkpt>
      <trkpt lat="47.75583" lon="6.71618">
        <ele>621</ele>
        <time>2026-08-23T13:31:47.000Z</time>
      </trkpt>
      <trkpt lat="47.7557" lon="6.71626">
        <ele>620</ele>
        <time>2026-08-23T13:31:49.000Z</time>
      </trkpt>
      <trkpt lat="47.75557" lon="6.71636">
        <ele>619.4</ele>
        <time>2026-08-23T13:31:51.000Z</time>
      </trkpt>
      <trkpt lat="47.75544" lon="6.71649">
        <ele>618.4</ele>
        <time>2026-08-23T13:31:53.000Z</time>
      </trkpt>
      <trkpt lat="47.75532" lon="6.71664">
        <ele>617</ele>
        <time>2026-08-23T13:31:55.000Z</time>
      </trkpt>
      <trkpt lat="47.7552" lon="6.71682">
        <ele>615.4</ele>
        <time>2026-08-23T13:31:57.000Z</time>
      </trkpt>
      <trkpt lat="47.75508" lon="6.71702">
        <ele>614.6</ele>
        <time>2026-08-23T13:31:59.000Z</time>
      </trkpt>
      <trkpt lat="47.75498" lon="6.71725">
        <ele>613.4</ele>
        <time>2026-08-23T13:32:01.000Z</time>
      </trkpt>
      <trkpt lat="47.7549" lon="6.71751">
        <ele>611.6</ele>
        <time>2026-08-23T13:32:03.000Z</time>
      </trkpt>
      <trkpt lat="47.75482" lon="6.71777">
        <ele>610.6</ele>
        <time>2026-08-23T13:32:05.000Z</time>
      </trkpt>
      <trkpt lat="47.75472" lon="6.71804">
        <ele>609.2</ele>
        <time>2026-08-23T13:32:07.000Z</time>
      </trkpt>
      <trkpt lat="47.75462" lon="6.7183">
        <ele>607.8</ele>
        <time>2026-08-23T13:32:09.000Z</time>
      </trkpt>
      <trkpt lat="47.75455" lon="6.71858">
        <ele>606.4</ele>
        <time>2026-08-23T13:32:11.000Z</time>
      </trkpt>
      <trkpt lat="47.75451" lon="6.71889">
        <ele>605</ele>
        <time>2026-08-23T13:32:13.000Z</time>
      </trkpt>
      <trkpt lat="47.75453" lon="6.71922">
        <ele>603.6</ele>
        <time>2026-08-23T13:32:15.000Z</time>
      </trkpt>
      <trkpt lat="47.75457" lon="6.71955">
        <ele>602</ele>
        <time>2026-08-23T13:32:17.000Z</time>
      </trkpt>
      <trkpt lat="47.75464" lon="6.71988">
        <ele>601</ele>
        <time>2026-08-23T13:32:19.000Z</time>
      </trkpt>
      <trkpt lat="47.75473" lon="6.7202">
        <ele>599.6</ele>
        <time>2026-08-23T13:32:21.000Z</time>
      </trkpt>
      <trkpt lat="47.75486" lon="6.7205">
        <ele>598.2</ele>
        <time>2026-08-23T13:32:23.000Z</time>
      </trkpt>
      <trkpt lat="47.75503" lon="6.72076">
        <ele>597</ele>
        <time>2026-08-23T13:32:25.000Z</time>
      </trkpt>
      <trkpt lat="47.75523" lon="6.72099">
        <ele>595.4</ele>
        <time>2026-08-23T13:32:27.000Z</time>
      </trkpt>
      <trkpt lat="47.75544" lon="6.72122">
        <ele>593.6</ele>
        <time>2026-08-23T13:32:30.000Z</time>
      </trkpt>
      <trkpt lat="47.75563" lon="6.72147">
        <ele>591.8</ele>
        <time>2026-08-23T13:32:32.000Z</time>
      </trkpt>
      <trkpt lat="47.7558" lon="6.72177">
        <ele>589.8</ele>
        <time>2026-08-23T13:32:34.000Z</time>
      </trkpt>
      <trkpt lat="47.75593" lon="6.72211">
        <ele>588.2</ele>
        <time>2026-08-23T13:32:36.000Z</time>
      </trkpt>
      <trkpt lat="47.75601" lon="6.72248">
        <ele>586.4</ele>
        <time>2026-08-23T13:32:38.000Z</time>
      </trkpt>
      <trkpt lat="47.75611" lon="6.72295">
        <ele>584.8</ele>
        <time>2026-08-23T13:32:40.000Z</time>
      </trkpt>
      <trkpt lat="47.75617" lon="6.72326">
        <ele>583.2</ele>
        <time>2026-08-23T13:32:42.000Z</time>
      </trkpt>
      <trkpt lat="47.75623" lon="6.72359">
        <ele>581.6</ele>
        <time>2026-08-23T13:32:44.000Z</time>
      </trkpt>
      <trkpt lat="47.75625" lon="6.72394">
        <ele>580.4</ele>
        <time>2026-08-23T13:32:46.000Z</time>
      </trkpt>
      <trkpt lat="47.75615" lon="6.72423">
        <ele>579.2</ele>
        <time>2026-08-23T13:32:48.000Z</time>
      </trkpt>
      <trkpt lat="47.75594" lon="6.72435">
        <ele>577.2</ele>
        <time>2026-08-23T13:32:50.000Z</time>
      </trkpt>
      <trkpt lat="47.7557" lon="6.72423">
        <ele>575.4</ele>
        <time>2026-08-23T13:32:52.000Z</time>
      </trkpt>
      <trkpt lat="47.75542" lon="6.72389">
        <ele>573.8</ele>
        <time>2026-08-23T13:32:54.000Z</time>
      </trkpt>
      <trkpt lat="47.75521" lon="6.72359">
        <ele>572.2</ele>
        <time>2026-08-23T13:32:56.000Z</time>
      </trkpt>
      <trkpt lat="47.75502" lon="6.72336">
        <ele>570.6</ele>
        <time>2026-08-23T13:32:58.000Z</time>
      </trkpt>
      <trkpt lat="47.75485" lon="6.72313">
        <ele>569</ele>
        <time>2026-08-23T13:33:00.000Z</time>
      </trkpt>
      <trkpt lat="47.75469" lon="6.72288">
        <ele>567</ele>
        <time>2026-08-23T13:33:02.000Z</time>
      </trkpt>
      <trkpt lat="47.75455" lon="6.7226">
        <ele>565.2</ele>
        <time>2026-08-23T13:33:04.000Z</time>
      </trkpt>
      <trkpt lat="47.7544" lon="6.72231">
        <ele>563.4</ele>
        <time>2026-08-23T13:33:06.000Z</time>
      </trkpt>
      <trkpt lat="47.75424" lon="6.72204">
        <ele>561.8</ele>
        <time>2026-08-23T13:33:08.000Z</time>
      </trkpt>
      <trkpt lat="47.75407" lon="6.7218">
        <ele>560.4</ele>
        <time>2026-08-23T13:33:10.000Z</time>
      </trkpt>
      <trkpt lat="47.75388" lon="6.72158">
        <ele>558.8</ele>
        <time>2026-08-23T13:33:12.000Z</time>
      </trkpt>
      <trkpt lat="47.7537" lon="6.72135">
        <ele>557.2</ele>
        <time>2026-08-23T13:33:14.000Z</time>
      </trkpt>
      <trkpt lat="47.75351" lon="6.72117">
        <ele>555.8</ele>
        <time>2026-08-23T13:33:16.000Z</time>
      </trkpt>
      <trkpt lat="47.75329" lon="6.72116">
        <ele>554.6</ele>
        <time>2026-08-23T13:33:18.000Z</time>
      </trkpt>
      <trkpt lat="47.75309" lon="6.72136">
        <ele>553.4</ele>
        <time>2026-08-23T13:33:20.000Z</time>
      </trkpt>
      <trkpt lat="47.75296" lon="6.7217">
        <ele>551.8</ele>
        <time>2026-08-23T13:33:22.000Z</time>
      </trkpt>
      <trkpt lat="47.75288" lon="6.72208">
        <ele>550.6</ele>
        <time>2026-08-23T13:33:24.000Z</time>
      </trkpt>
      <trkpt lat="47.75276" lon="6.7224">
        <ele>549.2</ele>
        <time>2026-08-23T13:33:26.000Z</time>
      </trkpt>
      <trkpt lat="47.75257" lon="6.72253">
        <ele>547.8</ele>
        <time>2026-08-23T13:33:28.000Z</time>
      </trkpt>
      <trkpt lat="47.75235" lon="6.72243">
        <ele>546.4</ele>
        <time>2026-08-23T13:33:30.000Z</time>
      </trkpt>
      <trkpt lat="47.75217" lon="6.72217">
        <ele>545.2</ele>
        <time>2026-08-23T13:33:32.000Z</time>
      </trkpt>
      <trkpt lat="47.75206" lon="6.72183">
        <ele>543.8</ele>
        <time>2026-08-23T13:33:34.000Z</time>
      </trkpt>
      <trkpt lat="47.75201" lon="6.72146">
        <ele>542.4</ele>
        <time>2026-08-23T13:33:36.000Z</time>
      </trkpt>
      <trkpt lat="47.75198" lon="6.72111">
        <ele>541.4</ele>
        <time>2026-08-23T13:33:38.000Z</time>
      </trkpt>
      <trkpt lat="47.75196" lon="6.72076">
        <ele>540.4</ele>
        <time>2026-08-23T13:33:40.000Z</time>
      </trkpt>
      <trkpt lat="47.75186" lon="6.72049">
        <ele>539.4</ele>
        <time>2026-08-23T13:33:42.000Z</time>
      </trkpt>
      <trkpt lat="47.75167" lon="6.7204">
        <ele>538.2</ele>
        <time>2026-08-23T13:33:44.000Z</time>
      </trkpt>
      <trkpt lat="47.75146" lon="6.72055">
        <ele>537.2</ele>
        <time>2026-08-23T13:33:46.000Z</time>
      </trkpt>
      <trkpt lat="47.75131" lon="6.72084">
        <ele>535.8</ele>
        <time>2026-08-23T13:33:48.000Z</time>
      </trkpt>
      <trkpt lat="47.75116" lon="6.72114">
        <ele>534.2</ele>
        <time>2026-08-23T13:33:50.000Z</time>
      </trkpt>
      <trkpt lat="47.751" lon="6.72141">
        <ele>532.4</ele>
        <time>2026-08-23T13:33:52.000Z</time>
      </trkpt>
      <trkpt lat="47.75088" lon="6.7217">
        <ele>530.8</ele>
        <time>2026-08-23T13:33:54.000Z</time>
      </trkpt>
      <trkpt lat="47.75082" lon="6.72204">
        <ele>529.4</ele>
        <time>2026-08-23T13:33:56.000Z</time>
      </trkpt>
      <trkpt lat="47.75079" lon="6.72239">
        <ele>527.8</ele>
        <time>2026-08-23T13:33:58.000Z</time>
      </trkpt>
      <trkpt lat="47.7508" lon="6.72275">
        <ele>526.4</ele>
        <time>2026-08-23T13:34:01.000Z</time>
      </trkpt>
      <trkpt lat="47.75086" lon="6.7231">
        <ele>524.8</ele>
        <time>2026-08-23T13:34:03.000Z</time>
      </trkpt>
      <trkpt lat="47.751" lon="6.72338">
        <ele>523.4</ele>
        <time>2026-08-23T13:34:05.000Z</time>
      </trkpt>
      <trkpt lat="47.75122" lon="6.72357">
        <ele>522.2</ele>
        <time>2026-08-23T13:34:07.000Z</time>
      </trkpt>
      <trkpt lat="47.75146" lon="6.7237">
        <ele>521</ele>
        <time>2026-08-23T13:34:09.000Z</time>
      </trkpt>
      <trkpt lat="47.75171" lon="6.72383">
        <ele>519.8</ele>
        <time>2026-08-23T13:34:11.000Z</time>
      </trkpt>
      <trkpt lat="47.75193" lon="6.72401">
        <ele>518.2</ele>
        <time>2026-08-23T13:34:13.000Z</time>
      </trkpt>
      <trkpt lat="47.7521" lon="6.72429">
        <ele>516.4</ele>
        <time>2026-08-23T13:34:15.000Z</time>
      </trkpt>
      <trkpt lat="47.75218" lon="6.72467">
        <ele>514.6</ele>
        <time>2026-08-23T13:34:17.000Z</time>
      </trkpt>
      <trkpt lat="47.75216" lon="6.72508">
        <ele>513</ele>
        <time>2026-08-23T13:34:19.000Z</time>
      </trkpt>
      <trkpt lat="47.75205" lon="6.72546">
        <ele>511.4</ele>
        <time>2026-08-23T13:34:21.000Z</time>
      </trkpt>
      <trkpt lat="47.75186" lon="6.72573">
        <ele>509.6</ele>
        <time>2026-08-23T13:34:23.000Z</time>
      </trkpt>
      <trkpt lat="47.75165" lon="6.72591">
        <ele>508.2</ele>
        <time>2026-08-23T13:34:25.000Z</time>
      </trkpt>
      <trkpt lat="47.75151" lon="6.72614">
        <ele>506.8</ele>
        <time>2026-08-23T13:34:27.000Z</time>
      </trkpt>
      <trkpt lat="47.75144" lon="6.72643">
        <ele>505.2</ele>
        <time>2026-08-23T13:34:29.000Z</time>
      </trkpt>
      <trkpt lat="47.75141" lon="6.72674">
        <ele>503.4</ele>
        <time>2026-08-23T13:34:31.000Z</time>
      </trkpt>
      <trkpt lat="47.75144" lon="6.72707">
        <ele>502.2</ele>
        <time>2026-08-23T13:34:33.000Z</time>
      </trkpt>
      <trkpt lat="47.7515" lon="6.7274">
        <ele>500.4</ele>
        <time>2026-08-23T13:34:35.000Z</time>
      </trkpt>
      <trkpt lat="47.75145" lon="6.72768">
        <ele>499</ele>
        <time>2026-08-23T13:34:37.000Z</time>
      </trkpt>
      <trkpt lat="47.75131" lon="6.72786">
        <ele>497.8</ele>
        <time>2026-08-23T13:34:39.000Z</time>
      </trkpt>
      <trkpt lat="47.75118" lon="6.72799">
        <ele>496.8</ele>
        <time>2026-08-23T13:34:41.000Z</time>
      </trkpt>
      <trkpt lat="47.75108" lon="6.72815">
        <ele>496</ele>
        <time>2026-08-23T13:34:43.000Z</time>
      </trkpt>
      <trkpt lat="47.75103" lon="6.72836">
        <ele>494.8</ele>
        <time>2026-08-23T13:34:45.000Z</time>
      </trkpt>
      <trkpt lat="47.75098" lon="6.7286">
        <ele>494</ele>
        <time>2026-08-23T13:34:47.000Z</time>
      </trkpt>
      <trkpt lat="47.75093" lon="6.72884">
        <ele>493.2</ele>
        <time>2026-08-23T13:34:49.000Z</time>
      </trkpt>
      <trkpt lat="47.75087" lon="6.72914">
        <ele>492.8</ele>
        <time>2026-08-23T13:34:51.000Z</time>
      </trkpt>
      <trkpt lat="47.75081" lon="6.7294">
        <ele>492</ele>
        <time>2026-08-23T13:34:53.000Z</time>
      </trkpt>
      <trkpt lat="47.75076" lon="6.72968">
        <ele>491.6</ele>
        <time>2026-08-23T13:34:55.000Z</time>
      </trkpt>
      <trkpt lat="47.75072" lon="6.72992">
        <ele>491.2</ele>
        <time>2026-08-23T13:34:57.000Z</time>
      </trkpt>
      <trkpt lat="47.75068" lon="6.73014">
        <ele>490.8</ele>
        <time>2026-08-23T13:34:59.000Z</time>
      </trkpt>
      <trkpt lat="47.75064" lon="6.73035">
        <ele>490.6</ele>
        <time>2026-08-23T13:35:01.000Z</time>
      </trkpt>
      <trkpt lat="47.75061" lon="6.73054">
        <ele>490.6</ele>
        <time>2026-08-23T13:35:03.000Z</time>
      </trkpt>
      <trkpt lat="47.75057" lon="6.7307">
        <ele>490.2</ele>
        <time>2026-08-23T13:35:05.000Z</time>
      </trkpt>
      <trkpt lat="47.75051" lon="6.73077">
        <ele>490.2</ele>
        <time>2026-08-23T13:35:07.000Z</time>
      </trkpt>
      <trkpt lat="47.75043" lon="6.73077">
        <ele>490</ele>
        <time>2026-08-23T13:35:09.000Z</time>
      </trkpt>
      <trkpt lat="47.75033" lon="6.73075">
        <ele>490</ele>
        <time>2026-08-23T13:35:11.000Z</time>
      </trkpt>
      <trkpt lat="47.75023" lon="6.73074">
        <ele>489.8</ele>
        <time>2026-08-23T13:35:13.000Z</time>
      </trkpt>
      <trkpt lat="47.75011" lon="6.73074">
        <ele>489.6</ele>
        <time>2026-08-23T13:35:15.000Z</time>
      </trkpt>
      <trkpt lat="47.75" lon="6.73074">
        <ele>489.4</ele>
        <time>2026-08-23T13:35:17.000Z</time>
      </trkpt>
      <trkpt lat="47.74989" lon="6.73074">
        <ele>488.8</ele>
        <time>2026-08-23T13:35:19.000Z</time>
      </trkpt>
      <trkpt lat="47.74978" lon="6.73071">
        <ele>488.4</ele>
        <time>2026-08-23T13:35:21.000Z</time>
      </trkpt>
      <trkpt lat="47.74967" lon="6.73068">
        <ele>488.2</ele>
        <time>2026-08-23T13:35:23.000Z</time>
      </trkpt>
      <trkpt lat="47.74957" lon="6.73063">
        <ele>487.8</ele>
        <time>2026-08-23T13:35:25.000Z</time>
      </trkpt>
      <trkpt lat="47.74947" lon="6.73058">
        <ele>487.8</ele>
        <time>2026-08-23T13:35:27.000Z</time>
      </trkpt>
      <trkpt lat="47.74937" lon="6.73054">
        <ele>487.6</ele>
        <time>2026-08-23T13:35:29.000Z</time>
      </trkpt>
      <trkpt lat="47.74927" lon="6.7305">
        <ele>487.6</ele>
        <time>2026-08-23T13:35:31.000Z</time>
      </trkpt>
      <trkpt lat="47.74917" lon="6.73046">
        <ele>487.2</ele>
        <time>2026-08-23T13:35:33.000Z</time>
      </trkpt>
      <trkpt lat="47.74906" lon="6.73042">
        <ele>486.8</ele>
        <time>2026-08-23T13:35:35.000Z</time>
      </trkpt>
      <trkpt lat="47.74894" lon="6.73039">
        <ele>486.6</ele>
        <time>2026-08-23T13:35:37.000Z</time>
      </trkpt>
      <trkpt lat="47.74882" lon="6.73037">
        <ele>486.6</ele>
        <time>2026-08-23T13:35:40.000Z</time>
      </trkpt>
      <trkpt lat="47.7487" lon="6.73036">
        <ele>486.6</ele>
        <time>2026-08-23T13:35:42.000Z</time>
      </trkpt>
      <trkpt lat="47.74858" lon="6.73036">
        <ele>486.4</ele>
        <time>2026-08-23T13:35:44.000Z</time>
      </trkpt>
      <trkpt lat="47.74845" lon="6.73038">
        <ele>486.4</ele>
        <time>2026-08-23T13:35:46.000Z</time>
      </trkpt>
      <trkpt lat="47.74833" lon="6.7304">
        <ele>486.2</ele>
        <time>2026-08-23T13:35:48.000Z</time>
      </trkpt>
      <trkpt lat="47.74821" lon="6.73042">
        <ele>486.2</ele>
        <time>2026-08-23T13:35:50.000Z</time>
      </trkpt>
      <trkpt lat="47.74809" lon="6.73046">
        <ele>485.8</ele>
        <time>2026-08-23T13:35:52.000Z</time>
      </trkpt>
      <trkpt lat="47.74798" lon="6.7305">
        <ele>485.4</ele>
        <time>2026-08-23T13:35:54.000Z</time>
      </trkpt>
      <trkpt lat="47.74787" lon="6.73053">
        <ele>485</ele>
        <time>2026-08-23T13:35:56.000Z</time>
      </trkpt>
      <trkpt lat="47.74775" lon="6.73056">
        <ele>484.4</ele>
        <time>2026-08-23T13:35:58.000Z</time>
      </trkpt>
      <trkpt lat="47.74762" lon="6.73057">
        <ele>484</ele>
        <time>2026-08-23T13:36:00.000Z</time>
      </trkpt>
      <trkpt lat="47.7475" lon="6.73054">
        <ele>483.4</ele>
        <time>2026-08-23T13:36:02.000Z</time>
      </trkpt>
      <trkpt lat="47.74739" lon="6.73045">
        <ele>483.4</ele>
        <time>2026-08-23T13:36:04.000Z</time>
      </trkpt>
      <trkpt lat="47.74728" lon="6.73033">
        <ele>483.4</ele>
        <time>2026-08-23T13:36:06.000Z</time>
      </trkpt>
      <trkpt lat="47.74719" lon="6.73019">
        <ele>483.2</ele>
        <time>2026-08-23T13:36:08.000Z</time>
      </trkpt>
      <trkpt lat="47.74709" lon="6.73005">
        <ele>482.8</ele>
        <time>2026-08-23T13:36:10.000Z</time>
      </trkpt>
      <trkpt lat="47.74699" lon="6.72992">
        <ele>482.4</ele>
        <time>2026-08-23T13:36:12.000Z</time>
      </trkpt>
      <trkpt lat="47.74689" lon="6.72978">
        <ele>482</ele>
        <time>2026-08-23T13:36:14.000Z</time>
      </trkpt>
      <trkpt lat="47.74679" lon="6.72966">
        <ele>481.6</ele>
        <time>2026-08-23T13:36:16.000Z</time>
      </trkpt>
      <trkpt lat="47.74669" lon="6.72954">
        <ele>481.4</ele>
        <time>2026-08-23T13:36:18.000Z</time>
      </trkpt>
      <trkpt lat="47.74658" lon="6.72942">
        <ele>481.2</ele>
        <time>2026-08-23T13:36:20.000Z</time>
      </trkpt>
      <trkpt lat="47.74648" lon="6.7293">
        <ele>481</ele>
        <time>2026-08-23T13:36:22.000Z</time>
      </trkpt>
      <trkpt lat="47.74638" lon="6.7292">
        <ele>481</ele>
        <time>2026-08-23T13:36:24.000Z</time>
      </trkpt>
      <trkpt lat="47.74626" lon="6.72913">
        <ele>481</ele>
        <time>2026-08-23T13:36:26.000Z</time>
      </trkpt>
      <trkpt lat="47.74615" lon="6.72907">
        <ele>481</ele>
        <time>2026-08-23T13:36:28.000Z</time>
      </trkpt>
      <trkpt lat="47.74603" lon="6.72902">
        <ele>480.8</ele>
        <time>2026-08-23T13:36:30.000Z</time>
      </trkpt>
      <trkpt lat="47.74591" lon="6.72901">
        <ele>480.8</ele>
        <time>2026-08-23T13:36:32.000Z</time>
      </trkpt>
      <trkpt lat="47.74573" lon="6.72903">
        <ele>480.6</ele>
        <time>2026-08-23T13:36:34.000Z</time>
      </trkpt>
      <trkpt lat="47.74562" lon="6.72906">
        <ele>480.6</ele>
        <time>2026-08-23T13:36:36.000Z</time>
      </trkpt>
      <trkpt lat="47.74547" lon="6.72913">
        <ele>480.4</ele>
        <time>2026-08-23T13:36:38.000Z</time>
      </trkpt>
      <trkpt lat="47.74533" lon="6.7292">
        <ele>480.2</ele>
        <time>2026-08-23T13:36:40.000Z</time>
      </trkpt>
      <trkpt lat="47.7452" lon="6.72925">
        <ele>480</ele>
        <time>2026-08-23T13:36:42.000Z</time>
      </trkpt>
      <trkpt lat="47.74506" lon="6.72928">
        <ele>479.8</ele>
        <time>2026-08-23T13:36:44.000Z</time>
      </trkpt>
      <trkpt lat="47.74493" lon="6.72929">
        <ele>479.8</ele>
        <time>2026-08-23T13:36:46.000Z</time>
      </trkpt>
      <trkpt lat="47.74479" lon="6.72928">
        <ele>479.8</ele>
        <time>2026-08-23T13:36:48.000Z</time>
      </trkpt>
      <trkpt lat="47.74466" lon="6.72923">
        <ele>479.8</ele>
        <time>2026-08-23T13:36:50.000Z</time>
      </trkpt>
      <trkpt lat="47.74454" lon="6.72918">
        <ele>479.2</ele>
        <time>2026-08-23T13:36:52.000Z</time>
      </trkpt>
      <trkpt lat="47.74441" lon="6.72912">
        <ele>478.8</ele>
        <time>2026-08-23T13:36:54.000Z</time>
      </trkpt>
      <trkpt lat="47.7443" lon="6.72906">
        <ele>478.8</ele>
        <time>2026-08-23T13:36:56.000Z</time>
      </trkpt>
      <trkpt lat="47.74418" lon="6.729">
        <ele>478.8</ele>
        <time>2026-08-23T13:36:58.000Z</time>
      </trkpt>
      <trkpt lat="47.74406" lon="6.72895">
        <ele>478.8</ele>
        <time>2026-08-23T13:37:00.000Z</time>
      </trkpt>
      <trkpt lat="47.74394" lon="6.72891">
        <ele>478.8</ele>
        <time>2026-08-23T13:37:02.000Z</time>
      </trkpt>
      <trkpt lat="47.74382" lon="6.72887">
        <ele>478.8</ele>
        <time>2026-08-23T13:37:04.000Z</time>
      </trkpt>
      <trkpt lat="47.7437" lon="6.72885">
        <ele>478.8</ele>
        <time>2026-08-23T13:37:06.000Z</time>
      </trkpt>
      <trkpt lat="47.74359" lon="6.72884">
        <ele>478.8</ele>
        <time>2026-08-23T13:37:08.000Z</time>
      </trkpt>
      <trkpt lat="47.74348" lon="6.72885">
        <ele>479</ele>
        <time>2026-08-23T13:37:10.000Z</time>
      </trkpt>
      <trkpt lat="47.74337" lon="6.72887">
        <ele>479.2</ele>
        <time>2026-08-23T13:37:12.000Z</time>
      </trkpt>
      <trkpt lat="47.74325" lon="6.7289">
        <ele>479.2</ele>
        <time>2026-08-23T13:37:14.000Z</time>
      </trkpt>
      <trkpt lat="47.74313" lon="6.72893">
        <ele>479</ele>
        <time>2026-08-23T13:37:16.000Z</time>
      </trkpt>
      <trkpt lat="47.74301" lon="6.72894">
        <ele>478.8</ele>
        <time>2026-08-23T13:37:18.000Z</time>
      </trkpt>
      <trkpt lat="47.74288" lon="6.72893">
        <ele>478.6</ele>
        <time>2026-08-23T13:37:20.000Z</time>
      </trkpt>
      <trkpt lat="47.74276" lon="6.7289">
        <ele>478.4</ele>
        <time>2026-08-23T13:37:22.000Z</time>
      </trkpt>
      <trkpt lat="47.74264" lon="6.72886">
        <ele>478.2</ele>
        <time>2026-08-23T13:37:24.000Z</time>
      </trkpt>
      <trkpt lat="47.74253" lon="6.72882">
        <ele>478.2</ele>
        <time>2026-08-23T13:37:26.000Z</time>
      </trkpt>
      <trkpt lat="47.74242" lon="6.72878">
        <ele>478</ele>
        <time>2026-08-23T13:37:28.000Z</time>
      </trkpt>
      <trkpt lat="47.74232" lon="6.72875">
        <ele>477.8</ele>
        <time>2026-08-23T13:37:30.000Z</time>
      </trkpt>
      <trkpt lat="47.74221" lon="6.72871">
        <ele>477.8</ele>
        <time>2026-08-23T13:37:32.000Z</time>
      </trkpt>
      <trkpt lat="47.74211" lon="6.72867">
        <ele>477.6</ele>
        <time>2026-08-23T13:37:34.000Z</time>
      </trkpt>
      <trkpt lat="47.74199" lon="6.72863">
        <ele>477.4</ele>
        <time>2026-08-23T13:37:36.000Z</time>
      </trkpt>
      <trkpt lat="47.74187" lon="6.72859">
        <ele>477.2</ele>
        <time>2026-08-23T13:37:39.000Z</time>
      </trkpt>
      <trkpt lat="47.74175" lon="6.72856">
        <ele>477</ele>
        <time>2026-08-23T13:37:41.000Z</time>
      </trkpt>
      <trkpt lat="47.74164" lon="6.72853">
        <ele>477</ele>
        <time>2026-08-23T13:37:43.000Z</time>
      </trkpt>
      <trkpt lat="47.74152" lon="6.72849">
        <ele>477</ele>
        <time>2026-08-23T13:37:45.000Z</time>
      </trkpt>
      <trkpt lat="47.7414" lon="6.72845">
        <ele>477</ele>
        <time>2026-08-23T13:37:47.000Z</time>
      </trkpt>
      <trkpt lat="47.74128" lon="6.72841">
        <ele>476.6</ele>
        <time>2026-08-23T13:37:49.000Z</time>
      </trkpt>
      <trkpt lat="47.74115" lon="6.72837">
        <ele>476</ele>
        <time>2026-08-23T13:37:51.000Z</time>
      </trkpt>
      <trkpt lat="47.74103" lon="6.72832">
        <ele>476</ele>
        <time>2026-08-23T13:37:53.000Z</time>
      </trkpt>
      <trkpt lat="47.7409" lon="6.72829">
        <ele>475.8</ele>
        <time>2026-08-23T13:37:55.000Z</time>
      </trkpt>
      <trkpt lat="47.74077" lon="6.72825">
        <ele>475.4</ele>
        <time>2026-08-23T13:37:57.000Z</time>
      </trkpt>
      <trkpt lat="47.74064" lon="6.72822">
        <ele>475.4</ele>
        <time>2026-08-23T13:37:59.000Z</time>
      </trkpt>
      <trkpt lat="47.74052" lon="6.72819">
        <ele>475.2</ele>
        <time>2026-08-23T13:38:01.000Z</time>
      </trkpt>
      <trkpt lat="47.74039" lon="6.72816">
        <ele>475.2</ele>
        <time>2026-08-23T13:38:03.000Z</time>
      </trkpt>
      <trkpt lat="47.74027" lon="6.72813">
        <ele>475.2</ele>
        <time>2026-08-23T13:38:05.000Z</time>
      </trkpt>
      <trkpt lat="47.74014" lon="6.7281">
        <ele>475.2</ele>
        <time>2026-08-23T13:38:07.000Z</time>
      </trkpt>
      <trkpt lat="47.73996" lon="6.72806">
        <ele>475.2</ele>
        <time>2026-08-23T13:38:09.000Z</time>
      </trkpt>
      <trkpt lat="47.73982" lon="6.72802">
        <ele>475.4</ele>
        <time>2026-08-23T13:38:11.000Z</time>
      </trkpt>
      <trkpt lat="47.73969" lon="6.728">
        <ele>475.2</ele>
        <time>2026-08-23T13:38:13.000Z</time>
      </trkpt>
      <trkpt lat="47.73956" lon="6.72797">
        <ele>475.2</ele>
        <time>2026-08-23T13:38:15.000Z</time>
      </trkpt>
      <trkpt lat="47.73942" lon="6.72794">
        <ele>475.2</ele>
        <time>2026-08-23T13:38:17.000Z</time>
      </trkpt>
      <trkpt lat="47.73928" lon="6.72793">
        <ele>475</ele>
        <time>2026-08-23T13:38:19.000Z</time>
      </trkpt>
      <trkpt lat="47.73914" lon="6.72793">
        <ele>474.6</ele>
        <time>2026-08-23T13:38:21.000Z</time>
      </trkpt>
      <trkpt lat="47.73899" lon="6.72795">
        <ele>474</ele>
        <time>2026-08-23T13:38:23.000Z</time>
      </trkpt>
      <trkpt lat="47.73884" lon="6.72797">
        <ele>473.2</ele>
        <time>2026-08-23T13:38:25.000Z</time>
      </trkpt>
      <trkpt lat="47.73868" lon="6.728">
        <ele>472.4</ele>
        <time>2026-08-23T13:38:27.000Z</time>
      </trkpt>
      <trkpt lat="47.73853" lon="6.72804">
        <ele>471.8</ele>
        <time>2026-08-23T13:38:29.000Z</time>
      </trkpt>
      <trkpt lat="47.73837" lon="6.72807">
        <ele>471.2</ele>
        <time>2026-08-23T13:38:31.000Z</time>
      </trkpt>
      <trkpt lat="47.73822" lon="6.7281">
        <ele>470.8</ele>
        <time>2026-08-23T13:38:33.000Z</time>
      </trkpt>
      <trkpt lat="47.73806" lon="6.72813">
        <ele>470.2</ele>
        <time>2026-08-23T13:38:35.000Z</time>
      </trkpt>
      <trkpt lat="47.7379" lon="6.72816">
        <ele>469.6</ele>
        <time>2026-08-23T13:38:37.000Z</time>
      </trkpt>
      <trkpt lat="47.73774" lon="6.7282">
        <ele>469.2</ele>
        <time>2026-08-23T13:38:39.000Z</time>
      </trkpt>
      <trkpt lat="47.73758" lon="6.72823">
        <ele>469</ele>
        <time>2026-08-23T13:38:41.000Z</time>
      </trkpt>
      <trkpt lat="47.73742" lon="6.72827">
        <ele>468.8</ele>
        <time>2026-08-23T13:38:43.000Z</time>
      </trkpt>
      <trkpt lat="47.73727" lon="6.72832">
        <ele>468.6</ele>
        <time>2026-08-23T13:38:45.000Z</time>
      </trkpt>
      <trkpt lat="47.73712" lon="6.72838">
        <ele>468.2</ele>
        <time>2026-08-23T13:38:47.000Z</time>
      </trkpt>
      <trkpt lat="47.73698" lon="6.72845">
        <ele>468</ele>
        <time>2026-08-23T13:38:49.000Z</time>
      </trkpt>
      <trkpt lat="47.73684" lon="6.72851">
        <ele>468</ele>
        <time>2026-08-23T13:38:51.000Z</time>
      </trkpt>
      <trkpt lat="47.73669" lon="6.72857">
        <ele>467.8</ele>
        <time>2026-08-23T13:38:53.000Z</time>
      </trkpt>
      <trkpt lat="47.73654" lon="6.72861">
        <ele>467.4</ele>
        <time>2026-08-23T13:38:55.000Z</time>
      </trkpt>
      <trkpt lat="47.73638" lon="6.72863">
        <ele>467</ele>
        <time>2026-08-23T13:38:57.000Z</time>
      </trkpt>
      <trkpt lat="47.73622" lon="6.72864">
        <ele>466.8</ele>
        <time>2026-08-23T13:38:59.000Z</time>
      </trkpt>
      <trkpt lat="47.73606" lon="6.72863">
        <ele>466.4</ele>
        <time>2026-08-23T13:39:01.000Z</time>
      </trkpt>
      <trkpt lat="47.7359" lon="6.72861">
        <ele>466.2</ele>
        <time>2026-08-23T13:39:03.000Z</time>
      </trkpt>
      <trkpt lat="47.73574" lon="6.72859">
        <ele>465.6</ele>
        <time>2026-08-23T13:39:05.000Z</time>
      </trkpt>
      <trkpt lat="47.73559" lon="6.72856">
        <ele>465.2</ele>
        <time>2026-08-23T13:39:07.000Z</time>
      </trkpt>
      <trkpt lat="47.73544" lon="6.72853">
        <ele>465</ele>
        <time>2026-08-23T13:39:09.000Z</time>
      </trkpt>
      <trkpt lat="47.73529" lon="6.72853">
        <ele>464.8</ele>
        <time>2026-08-23T13:39:11.000Z</time>
      </trkpt>
      <trkpt lat="47.73514" lon="6.72856">
        <ele>464.6</ele>
        <time>2026-08-23T13:39:13.000Z</time>
      </trkpt>
      <trkpt lat="47.73499" lon="6.72862">
        <ele>464.4</ele>
        <time>2026-08-23T13:39:15.000Z</time>
      </trkpt>
      <trkpt lat="47.73485" lon="6.7287">
        <ele>464</ele>
        <time>2026-08-23T13:39:18.000Z</time>
      </trkpt>
      <trkpt lat="47.73472" lon="6.72879">
        <ele>463.6</ele>
        <time>2026-08-23T13:39:20.000Z</time>
      </trkpt>
      <trkpt lat="47.73458" lon="6.72888">
        <ele>463.6</ele>
        <time>2026-08-23T13:39:22.000Z</time>
      </trkpt>
      <trkpt lat="47.73445" lon="6.72896">
        <ele>463.2</ele>
        <time>2026-08-23T13:39:24.000Z</time>
      </trkpt>
      <trkpt lat="47.73431" lon="6.72905">
        <ele>463</ele>
        <time>2026-08-23T13:39:26.000Z</time>
      </trkpt>
      <trkpt lat="47.73417" lon="6.72912">
        <ele>462.8</ele>
        <time>2026-08-23T13:39:28.000Z</time>
      </trkpt>
      <trkpt lat="47.73404" lon="6.7292">
        <ele>462.6</ele>
        <time>2026-08-23T13:39:30.000Z</time>
      </trkpt>
      <trkpt lat="47.7339" lon="6.72927">
        <ele>462.4</ele>
        <time>2026-08-23T13:39:32.000Z</time>
      </trkpt>
      <trkpt lat="47.73376" lon="6.72935">
        <ele>462.2</ele>
        <time>2026-08-23T13:39:34.000Z</time>
      </trkpt>
      <trkpt lat="47.73362" lon="6.72942">
        <ele>461.8</ele>
        <time>2026-08-23T13:39:36.000Z</time>
      </trkpt>
      <trkpt lat="47.73348" lon="6.72948">
        <ele>461.8</ele>
        <time>2026-08-23T13:39:38.000Z</time>
      </trkpt>
      <trkpt lat="47.73334" lon="6.72954">
        <ele>461.6</ele>
        <time>2026-08-23T13:39:40.000Z</time>
      </trkpt>
      <trkpt lat="47.73319" lon="6.72958">
        <ele>461.4</ele>
        <time>2026-08-23T13:39:42.000Z</time>
      </trkpt>
      <trkpt lat="47.73305" lon="6.72962">
        <ele>461.2</ele>
        <time>2026-08-23T13:39:44.000Z</time>
      </trkpt>
      <trkpt lat="47.7329" lon="6.72965">
        <ele>461</ele>
        <time>2026-08-23T13:39:46.000Z</time>
      </trkpt>
      <trkpt lat="47.73276" lon="6.72969">
        <ele>460.8</ele>
        <time>2026-08-23T13:39:48.000Z</time>
      </trkpt>
      <trkpt lat="47.73261" lon="6.72973">
        <ele>460.8</ele>
        <time>2026-08-23T13:39:50.000Z</time>
      </trkpt>
      <trkpt lat="47.73247" lon="6.72977">
        <ele>460.6</ele>
        <time>2026-08-23T13:39:52.000Z</time>
      </trkpt>
      <trkpt lat="47.73232" lon="6.72981">
        <ele>460.4</ele>
        <time>2026-08-23T13:39:54.000Z</time>
      </trkpt>
      <trkpt lat="47.73217" lon="6.72985">
        <ele>460.4</ele>
        <time>2026-08-23T13:39:56.000Z</time>
      </trkpt>
      <trkpt lat="47.73203" lon="6.72989">
        <ele>460.2</ele>
        <time>2026-08-23T13:39:58.000Z</time>
      </trkpt>
      <trkpt lat="47.73188" lon="6.72994">
        <ele>460</ele>
        <time>2026-08-23T13:40:00.000Z</time>
      </trkpt>
      <trkpt lat="47.73166" lon="6.73001">
        <ele>459.4</ele>
        <time>2026-08-23T13:40:02.000Z</time>
      </trkpt>
      <trkpt lat="47.7315" lon="6.73008">
        <ele>459</ele>
        <time>2026-08-23T13:40:04.000Z</time>
      </trkpt>
      <trkpt lat="47.73135" lon="6.73016">
        <ele>458.6</ele>
        <time>2026-08-23T13:40:06.000Z</time>
      </trkpt>
      <trkpt lat="47.73122" lon="6.73025">
        <ele>458.4</ele>
        <time>2026-08-23T13:40:08.000Z</time>
      </trkpt>
      <trkpt lat="47.73109" lon="6.73036">
        <ele>458.2</ele>
        <time>2026-08-23T13:40:10.000Z</time>
      </trkpt>
      <trkpt lat="47.73096" lon="6.73049">
        <ele>458</ele>
        <time>2026-08-23T13:40:12.000Z</time>
      </trkpt>
      <trkpt lat="47.73084" lon="6.73065">
        <ele>457.4</ele>
        <time>2026-08-23T13:40:14.000Z</time>
      </trkpt>
      <trkpt lat="47.73073" lon="6.73081">
        <ele>457</ele>
        <time>2026-08-23T13:40:16.000Z</time>
      </trkpt>
      <trkpt lat="47.73061" lon="6.73097">
        <ele>456.6</ele>
        <time>2026-08-23T13:40:18.000Z</time>
      </trkpt>
      <trkpt lat="47.7305" lon="6.73113">
        <ele>456.4</ele>
        <time>2026-08-23T13:40:20.000Z</time>
      </trkpt>
      <trkpt lat="47.73038" lon="6.73126">
        <ele>456.2</ele>
        <time>2026-08-23T13:40:22.000Z</time>
      </trkpt>
      <trkpt lat="47.73026" lon="6.73137">
        <ele>455.8</ele>
        <time>2026-08-23T13:40:24.000Z</time>
      </trkpt>
      <trkpt lat="47.73013" lon="6.73147">
        <ele>456</ele>
        <time>2026-08-23T13:40:26.000Z</time>
      </trkpt>
      <trkpt lat="47.73" lon="6.73156">
        <ele>455.8</ele>
        <time>2026-08-23T13:40:28.000Z</time>
      </trkpt>
      <trkpt lat="47.72988" lon="6.73164">
        <ele>455.6</ele>
        <time>2026-08-23T13:40:30.000Z</time>
      </trkpt>
      <trkpt lat="47.72975" lon="6.73172">
        <ele>455.4</ele>
        <time>2026-08-23T13:40:32.000Z</time>
      </trkpt>
      <trkpt lat="47.72962" lon="6.73181">
        <ele>455.2</ele>
        <time>2026-08-23T13:40:34.000Z</time>
      </trkpt>
      <trkpt lat="47.7295" lon="6.7319">
        <ele>455</ele>
        <time>2026-08-23T13:40:36.000Z</time>
      </trkpt>
      <trkpt lat="47.72937" lon="6.73199">
        <ele>455.2</ele>
        <time>2026-08-23T13:40:38.000Z</time>
      </trkpt>
      <trkpt lat="47.72924" lon="6.73208">
        <ele>455.2</ele>
        <time>2026-08-23T13:40:40.000Z</time>
      </trkpt>
      <trkpt lat="47.72911" lon="6.73217">
        <ele>454.8</ele>
        <time>2026-08-23T13:40:42.000Z</time>
      </trkpt>
      <trkpt lat="47.72897" lon="6.73224">
        <ele>454.4</ele>
        <time>2026-08-23T13:40:44.000Z</time>
      </trkpt>
      <trkpt lat="47.72883" lon="6.73228">
        <ele>454.2</ele>
        <time>2026-08-23T13:40:46.000Z</time>
      </trkpt>
      <trkpt lat="47.72868" lon="6.73227">
        <ele>454.2</ele>
        <time>2026-08-23T13:40:48.000Z</time>
      </trkpt>
      <trkpt lat="47.72854" lon="6.73224">
        <ele>454</ele>
        <time>2026-08-23T13:40:50.000Z</time>
      </trkpt>
      <trkpt lat="47.72839" lon="6.73221">
        <ele>453.8</ele>
        <time>2026-08-23T13:40:52.000Z</time>
      </trkpt>
      <trkpt lat="47.72824" lon="6.73218">
        <ele>453.8</ele>
        <time>2026-08-23T13:40:54.000Z</time>
      </trkpt>
      <trkpt lat="47.7281" lon="6.73216">
        <ele>453.8</ele>
        <time>2026-08-23T13:40:56.000Z</time>
      </trkpt>
      <trkpt lat="47.72795" lon="6.73214">
        <ele>453.4</ele>
        <time>2026-08-23T13:40:58.000Z</time>
      </trkpt>
      <trkpt lat="47.72781" lon="6.73213">
        <ele>453.2</ele>
        <time>2026-08-23T13:41:01.000Z</time>
      </trkpt>
      <trkpt lat="47.72767" lon="6.73212">
        <ele>453.2</ele>
        <time>2026-08-23T13:41:03.000Z</time>
      </trkpt>
      <trkpt lat="47.72752" lon="6.73212">
        <ele>453.4</ele>
        <time>2026-08-23T13:41:05.000Z</time>
      </trkpt>
      <trkpt lat="47.72738" lon="6.73213">
        <ele>453.4</ele>
        <time>2026-08-23T13:41:07.000Z</time>
      </trkpt>
      <trkpt lat="47.72723" lon="6.73214">
        <ele>453</ele>
        <time>2026-08-23T13:41:09.000Z</time>
      </trkpt>
      <trkpt lat="47.72709" lon="6.73215">
        <ele>452.8</ele>
        <time>2026-08-23T13:41:11.000Z</time>
      </trkpt>
      <trkpt lat="47.72694" lon="6.73216">
        <ele>452.4</ele>
        <time>2026-08-23T13:41:13.000Z</time>
      </trkpt>
      <trkpt lat="47.7268" lon="6.73216">
        <ele>452.2</ele>
        <time>2026-08-23T13:41:15.000Z</time>
      </trkpt>
      <trkpt lat="47.72665" lon="6.73217">
        <ele>452.2</ele>
        <time>2026-08-23T13:41:17.000Z</time>
      </trkpt>
      <trkpt lat="47.72651" lon="6.73218">
        <ele>452</ele>
        <time>2026-08-23T13:41:19.000Z</time>
      </trkpt>
      <trkpt lat="47.72637" lon="6.73219">
        <ele>452</ele>
        <time>2026-08-23T13:41:21.000Z</time>
      </trkpt>
      <trkpt lat="47.72623" lon="6.73221">
        <ele>451.8</ele>
        <time>2026-08-23T13:41:23.000Z</time>
      </trkpt>
      <trkpt lat="47.72609" lon="6.73224">
        <ele>451.6</ele>
        <time>2026-08-23T13:41:25.000Z</time>
      </trkpt>
      <trkpt lat="47.72594" lon="6.73228">
        <ele>451.4</ele>
        <time>2026-08-23T13:41:27.000Z</time>
      </trkpt>
      <trkpt lat="47.7258" lon="6.73232">
        <ele>451.2</ele>
        <time>2026-08-23T13:41:29.000Z</time>
      </trkpt>
      <trkpt lat="47.72565" lon="6.73238">
        <ele>451</ele>
        <time>2026-08-23T13:41:31.000Z</time>
      </trkpt>
      <trkpt lat="47.7255" lon="6.73243">
        <ele>450.8</ele>
        <time>2026-08-23T13:41:33.000Z</time>
      </trkpt>
      <trkpt lat="47.72535" lon="6.73248">
        <ele>450.4</ele>
        <time>2026-08-23T13:41:35.000Z</time>
      </trkpt>
      <trkpt lat="47.7252" lon="6.73254">
        <ele>450</ele>
        <time>2026-08-23T13:41:37.000Z</time>
      </trkpt>
      <trkpt lat="47.72505" lon="6.73259">
        <ele>449.6</ele>
        <time>2026-08-23T13:41:39.000Z</time>
      </trkpt>
      <trkpt lat="47.72482" lon="6.73266">
        <ele>449.2</ele>
        <time>2026-08-23T13:41:41.000Z</time>
      </trkpt>
      <trkpt lat="47.72465" lon="6.73271">
        <ele>448.6</ele>
        <time>2026-08-23T13:41:43.000Z</time>
      </trkpt>
      <trkpt lat="47.72449" lon="6.73275">
        <ele>448.4</ele>
        <time>2026-08-23T13:41:45.000Z</time>
      </trkpt>
      <trkpt lat="47.72434" lon="6.73279">
        <ele>448</ele>
        <time>2026-08-23T13:41:47.000Z</time>
      </trkpt>
      <trkpt lat="47.72419" lon="6.73281">
        <ele>447.4</ele>
        <time>2026-08-23T13:41:49.000Z</time>
      </trkpt>
      <trkpt lat="47.72403" lon="6.73283">
        <ele>447.2</ele>
        <time>2026-08-23T13:41:51.000Z</time>
      </trkpt>
      <trkpt lat="47.72388" lon="6.73285">
        <ele>446.8</ele>
        <time>2026-08-23T13:41:53.000Z</time>
      </trkpt>
      <trkpt lat="47.72373" lon="6.73286">
        <ele>446.4</ele>
        <time>2026-08-23T13:41:55.000Z</time>
      </trkpt>
      <trkpt lat="47.72358" lon="6.73287">
        <ele>446.4</ele>
        <time>2026-08-23T13:41:57.000Z</time>
      </trkpt>
      <trkpt lat="47.72343" lon="6.73288">
        <ele>446.4</ele>
        <time>2026-08-23T13:41:59.000Z</time>
      </trkpt>
      <trkpt lat="47.72327" lon="6.73289">
        <ele>446</ele>
        <time>2026-08-23T13:42:01.000Z</time>
      </trkpt>
      <trkpt lat="47.72312" lon="6.73291">
        <ele>445.6</ele>
        <time>2026-08-23T13:42:03.000Z</time>
      </trkpt>
      <trkpt lat="47.72297" lon="6.73295">
        <ele>446</ele>
        <time>2026-08-23T13:42:05.000Z</time>
      </trkpt>
      <trkpt lat="47.72283" lon="6.733">
        <ele>446</ele>
        <time>2026-08-23T13:42:07.000Z</time>
      </trkpt>
      <trkpt lat="47.7227" lon="6.73308">
        <ele>446</ele>
        <time>2026-08-23T13:42:09.000Z</time>
      </trkpt>
      <trkpt lat="47.72258" lon="6.73317">
        <ele>445.6</ele>
        <time>2026-08-23T13:42:11.000Z</time>
      </trkpt>
      <trkpt lat="47.72245" lon="6.73327">
        <ele>445.6</ele>
        <time>2026-08-23T13:42:13.000Z</time>
      </trkpt>
      <trkpt lat="47.72233" lon="6.73337">
        <ele>445.6</ele>
        <time>2026-08-23T13:42:15.000Z</time>
      </trkpt>
      <trkpt lat="47.72222" lon="6.73347">
        <ele>445.4</ele>
        <time>2026-08-23T13:42:17.000Z</time>
      </trkpt>
      <trkpt lat="47.7221" lon="6.73357">
        <ele>445.4</ele>
        <time>2026-08-23T13:42:19.000Z</time>
      </trkpt>
      <trkpt lat="47.72198" lon="6.73367">
        <ele>445.2</ele>
        <time>2026-08-23T13:42:21.000Z</time>
      </trkpt>
      <trkpt lat="47.72186" lon="6.73377">
        <ele>445</ele>
        <time>2026-08-23T13:42:23.000Z</time>
      </trkpt>
      <trkpt lat="47.72174" lon="6.73387">
        <ele>445</ele>
        <time>2026-08-23T13:42:25.000Z</time>
      </trkpt>
      <trkpt lat="47.72162" lon="6.73397">
        <ele>445</ele>
        <time>2026-08-23T13:42:27.000Z</time>
      </trkpt>
      <trkpt lat="47.7215" lon="6.73407">
        <ele>445</ele>
        <time>2026-08-23T13:42:29.000Z</time>
      </trkpt>
      <trkpt lat="47.72138" lon="6.73417">
        <ele>444.8</ele>
        <time>2026-08-23T13:42:31.000Z</time>
      </trkpt>
      <trkpt lat="47.72126" lon="6.73427">
        <ele>444.6</ele>
        <time>2026-08-23T13:42:33.000Z</time>
      </trkpt>
      <trkpt lat="47.72114" lon="6.73437">
        <ele>444.6</ele>
        <time>2026-08-23T13:42:35.000Z</time>
      </trkpt>
      <trkpt lat="47.72102" lon="6.73447">
        <ele>444.4</ele>
        <time>2026-08-23T13:42:37.000Z</time>
      </trkpt>
      <trkpt lat="47.72091" lon="6.73457">
        <ele>444.2</ele>
        <time>2026-08-23T13:42:39.000Z</time>
      </trkpt>
      <trkpt lat="47.72079" lon="6.73467">
        <ele>444.2</ele>
        <time>2026-08-23T13:42:41.000Z</time>
      </trkpt>
      <trkpt lat="47.72069" lon="6.73478">
        <ele>444</ele>
        <time>2026-08-23T13:42:43.000Z</time>
      </trkpt>
      <trkpt lat="47.72058" lon="6.73489">
        <ele>443.8</ele>
        <time>2026-08-23T13:42:45.000Z</time>
      </trkpt>
      <trkpt lat="47.72047" lon="6.735">
        <ele>443.8</ele>
        <time>2026-08-23T13:42:47.000Z</time>
      </trkpt>
      <trkpt lat="47.72035" lon="6.73511">
        <ele>443.6</ele>
        <time>2026-08-23T13:42:49.000Z</time>
      </trkpt>
      <trkpt lat="47.72024" lon="6.73522">
        <ele>443.4</ele>
        <time>2026-08-23T13:42:51.000Z</time>
      </trkpt>
      <trkpt lat="47.72012" lon="6.73534">
        <ele>443.2</ele>
        <time>2026-08-23T13:42:53.000Z</time>
      </trkpt>
      <trkpt lat="47.72" lon="6.73545">
        <ele>442.8</ele>
        <time>2026-08-23T13:42:55.000Z</time>
      </trkpt>
      <trkpt lat="47.71989" lon="6.73556">
        <ele>442.4</ele>
        <time>2026-08-23T13:42:57.000Z</time>
      </trkpt>
      <trkpt lat="47.71978" lon="6.73567">
        <ele>442</ele>
        <time>2026-08-23T13:42:59.000Z</time>
      </trkpt>
      <trkpt lat="47.71967" lon="6.73578">
        <ele>441.8</ele>
        <time>2026-08-23T13:43:01.000Z</time>
      </trkpt>
      <trkpt lat="47.71956" lon="6.73589">
        <ele>441.8</ele>
        <time>2026-08-23T13:43:03.000Z</time>
      </trkpt>
      <trkpt lat="47.71945" lon="6.73599">
        <ele>442</ele>
        <time>2026-08-23T13:43:06.000Z</time>
      </trkpt>
      <trkpt lat="47.71933" lon="6.7361">
        <ele>442</ele>
        <time>2026-08-23T13:43:08.000Z</time>
      </trkpt>
      <trkpt lat="47.7192" lon="6.73619">
        <ele>442</ele>
        <time>2026-08-23T13:43:10.000Z</time>
      </trkpt>
      <trkpt lat="47.71907" lon="6.73627">
        <ele>441.6</ele>
        <time>2026-08-23T13:43:12.000Z</time>
      </trkpt>
      <trkpt lat="47.71893" lon="6.73632">
        <ele>441.2</ele>
        <time>2026-08-23T13:43:14.000Z</time>
      </trkpt>
      <trkpt lat="47.71878" lon="6.73636">
        <ele>440.8</ele>
        <time>2026-08-23T13:43:16.000Z</time>
      </trkpt>
      <trkpt lat="47.71864" lon="6.73637">
        <ele>440.8</ele>
        <time>2026-08-23T13:43:18.000Z</time>
      </trkpt>
      <trkpt lat="47.71849" lon="6.73636">
        <ele>440.6</ele>
        <time>2026-08-23T13:43:20.000Z</time>
      </trkpt>
      <trkpt lat="47.71834" lon="6.73633">
        <ele>440.4</ele>
        <time>2026-08-23T13:43:22.000Z</time>
      </trkpt>
      <trkpt lat="47.7182" lon="6.73627">
        <ele>440</ele>
        <time>2026-08-23T13:43:24.000Z</time>
      </trkpt>
      <trkpt lat="47.71805" lon="6.7362">
        <ele>439.8</ele>
        <time>2026-08-23T13:43:26.000Z</time>
      </trkpt>
      <trkpt lat="47.7179" lon="6.73611">
        <ele>439.2</ele>
        <time>2026-08-23T13:43:28.000Z</time>
      </trkpt>
      <trkpt lat="47.71775" lon="6.73606">
        <ele>438.8</ele>
        <time>2026-08-23T13:43:30.000Z</time>
      </trkpt>
      <trkpt lat="47.71758" lon="6.73606">
        <ele>438.2</ele>
        <time>2026-08-23T13:43:32.000Z</time>
      </trkpt>
      <trkpt lat="47.71742" lon="6.7361">
        <ele>437.2</ele>
        <time>2026-08-23T13:43:34.000Z</time>
      </trkpt>
      <trkpt lat="47.71727" lon="6.73615">
        <ele>436.6</ele>
        <time>2026-08-23T13:43:36.000Z</time>
      </trkpt>
      <trkpt lat="47.71718" lon="6.73629">
        <ele>436.2</ele>
        <time>2026-08-23T13:43:38.000Z</time>
      </trkpt>
      <trkpt lat="47.7172" lon="6.73648">
        <ele>436.4</ele>
        <time>2026-08-23T13:43:40.000Z</time>
      </trkpt>
      <trkpt lat="47.71727" lon="6.73668">
        <ele>436.6</ele>
        <time>2026-08-23T13:43:42.000Z</time>
      </trkpt>
      <trkpt lat="47.71734" lon="6.7369">
        <ele>437</ele>
        <time>2026-08-23T13:43:44.000Z</time>
      </trkpt>
      <trkpt lat="47.71739" lon="6.73709">
        <ele>437.4</ele>
        <time>2026-08-23T13:43:46.000Z</time>
      </trkpt>
      <trkpt lat="47.71742" lon="6.73721">
        <ele>438</ele>
        <time>2026-08-23T13:43:48.000Z</time>
      </trkpt>
      <trkpt lat="47.71745" lon="6.73731">
        <ele>438.6</ele>
        <time>2026-08-23T13:43:50.000Z</time>
      </trkpt>
      <trkpt lat="47.71749" lon="6.7374">
        <ele>439</ele>
        <time>2026-08-23T13:43:52.000Z</time>
      </trkpt>
      <trkpt lat="47.71753" lon="6.73749">
        <ele>439.4</ele>
        <time>2026-08-23T13:43:54.000Z</time>
      </trkpt>
      <trkpt lat="47.71757" lon="6.73758">
        <ele>439.6</ele>
        <time>2026-08-23T13:43:56.000Z</time>
      </trkpt>
      <trkpt lat="47.71761" lon="6.73766">
        <ele>440.2</ele>
        <time>2026-08-23T13:43:58.000Z</time>
      </trkpt>
      <trkpt lat="47.71765" lon="6.73774">
        <ele>440.8</ele>
        <time>2026-08-23T13:44:00.000Z</time>
      </trkpt>
      <trkpt lat="47.7177" lon="6.73782">
        <ele>441.2</ele>
        <time>2026-08-23T13:44:02.000Z</time>
      </trkpt>
      <trkpt lat="47.71775" lon="6.7379">
        <ele>441.4</ele>
        <time>2026-08-23T13:44:04.000Z</time>
      </trkpt>
      <trkpt lat="47.7178" lon="6.73798">
        <ele>441.8</ele>
        <time>2026-08-23T13:44:06.000Z</time>
      </trkpt>
      <trkpt lat="47.71785" lon="6.73805">
        <ele>442</ele>
        <time>2026-08-23T13:44:08.000Z</time>
      </trkpt>
      <trkpt lat="47.71791" lon="6.73812">
        <ele>442.4</ele>
        <time>2026-08-23T13:44:10.000Z</time>
      </trkpt>
      <trkpt lat="47.71798" lon="6.73819">
        <ele>442.6</ele>
        <time>2026-08-23T13:44:12.000Z</time>
      </trkpt>
      <trkpt lat="47.71804" lon="6.73826">
        <ele>442.8</ele>
        <time>2026-08-23T13:44:14.000Z</time>
      </trkpt>
      <trkpt lat="47.7181" lon="6.73833">
        <ele>443.2</ele>
        <time>2026-08-23T13:44:16.000Z</time>
      </trkpt>
      <trkpt lat="47.71816" lon="6.7384">
        <ele>443.2</ele>
        <time>2026-08-23T13:44:18.000Z</time>
      </trkpt>
      <trkpt lat="47.71822" lon="6.73848">
        <ele>443.4</ele>
        <time>2026-08-23T13:44:20.000Z</time>
      </trkpt>
      <trkpt lat="47.71828" lon="6.73856">
        <ele>443.4</ele>
        <time>2026-08-23T13:44:22.000Z</time>
      </trkpt>
      <trkpt lat="47.71834" lon="6.73864">
        <ele>443.6</ele>
        <time>2026-08-23T13:44:24.000Z</time>
      </trkpt>
      <trkpt lat="47.71841" lon="6.73872">
        <ele>443.6</ele>
        <time>2026-08-23T13:44:26.000Z</time>
      </trkpt>
      <trkpt lat="47.71847" lon="6.7388">
        <ele>443.6</ele>
        <time>2026-08-23T13:44:28.000Z</time>
      </trkpt>
      <trkpt lat="47.71854" lon="6.73889">
        <ele>443.6</ele>
        <time>2026-08-23T13:44:30.000Z</time>
      </trkpt>
      <trkpt lat="47.71861" lon="6.73898">
        <ele>443.6</ele>
        <time>2026-08-23T13:44:32.000Z</time>
      </trkpt>
      <trkpt lat="47.71869" lon="6.73907">
        <ele>443.6</ele>
        <time>2026-08-23T13:44:34.000Z</time>
      </trkpt>
      <trkpt lat="47.71877" lon="6.73916">
        <ele>443.6</ele>
        <time>2026-08-23T13:44:36.000Z</time>
      </trkpt>
      <trkpt lat="47.71887" lon="6.73923">
        <ele>443.6</ele>
        <time>2026-08-23T13:44:38.000Z</time>
      </trkpt>
      <trkpt lat="47.71897" lon="6.7393">
        <ele>443.4</ele>
        <time>2026-08-23T13:44:41.000Z</time>
      </trkpt>
      <trkpt lat="47.71907" lon="6.73934">
        <ele>443.2</ele>
        <time>2026-08-23T13:44:43.000Z</time>
      </trkpt>
      <trkpt lat="47.71919" lon="6.73938">
        <ele>443.2</ele>
        <time>2026-08-23T13:44:45.000Z</time>
      </trkpt>
      <trkpt lat="47.71931" lon="6.73939">
        <ele>443</ele>
        <time>2026-08-23T13:44:47.000Z</time>
      </trkpt>
      <trkpt lat="47.71944" lon="6.7394">
        <ele>442.6</ele>
        <time>2026-08-23T13:44:49.000Z</time>
      </trkpt>
      <trkpt lat="47.71958" lon="6.73941">
        <ele>442.2</ele>
        <time>2026-08-23T13:44:51.000Z</time>
      </trkpt>
      <trkpt lat="47.71971" lon="6.73942">
        <ele>441.8</ele>
        <time>2026-08-23T13:44:53.000Z</time>
      </trkpt>
      <trkpt lat="47.71984" lon="6.73943">
        <ele>441.6</ele>
        <time>2026-08-23T13:44:55.000Z</time>
      </trkpt>
      <trkpt lat="47.71997" lon="6.73943">
        <ele>441.2</ele>
        <time>2026-08-23T13:44:57.000Z</time>
      </trkpt>
      <trkpt lat="47.7201" lon="6.73943">
        <ele>440.8</ele>
        <time>2026-08-23T13:44:59.000Z</time>
      </trkpt>
      <trkpt lat="47.72023" lon="6.73943">
        <ele>440.8</ele>
        <time>2026-08-23T13:45:01.000Z</time>
      </trkpt>
      <trkpt lat="47.72037" lon="6.73943">
        <ele>440.8</ele>
        <time>2026-08-23T13:45:03.000Z</time>
      </trkpt>
      <trkpt lat="47.7205" lon="6.73944">
        <ele>440.8</ele>
        <time>2026-08-23T13:45:05.000Z</time>
      </trkpt>
      <trkpt lat="47.72064" lon="6.73949">
        <ele>440.8</ele>
        <time>2026-08-23T13:45:07.000Z</time>
      </trkpt>
      <trkpt lat="47.72076" lon="6.73958">
        <ele>441</ele>
        <time>2026-08-23T13:45:09.000Z</time>
      </trkpt>
      <trkpt lat="47.72087" lon="6.7397">
        <ele>441.2</ele>
        <time>2026-08-23T13:45:11.000Z</time>
      </trkpt>
      <trkpt lat="47.72096" lon="6.73984">
        <ele>441.2</ele>
        <time>2026-08-23T13:45:13.000Z</time>
      </trkpt>
      <trkpt lat="47.72105" lon="6.73997">
        <ele>441.2</ele>
        <time>2026-08-23T13:45:15.000Z</time>
      </trkpt>
      <trkpt lat="47.72113" lon="6.74009">
        <ele>441.6</ele>
        <time>2026-08-23T13:45:17.000Z</time>
      </trkpt>
      <trkpt lat="47.72121" lon="6.74019">
        <ele>442</ele>
        <time>2026-08-23T13:45:19.000Z</time>
      </trkpt>
      <trkpt lat="47.72128" lon="6.7403">
        <ele>442.2</ele>
        <time>2026-08-23T13:45:21.000Z</time>
      </trkpt>
      <trkpt lat="47.72136" lon="6.74039">
        <ele>442.6</ele>
        <time>2026-08-23T13:45:23.000Z</time>
      </trkpt>
      <trkpt lat="47.72143" lon="6.74049">
        <ele>443.2</ele>
        <time>2026-08-23T13:45:25.000Z</time>
      </trkpt>
      <trkpt lat="47.72149" lon="6.74058">
        <ele>443.4</ele>
        <time>2026-08-23T13:45:27.000Z</time>
      </trkpt>
      <trkpt lat="47.72156" lon="6.74067">
        <ele>443.8</ele>
        <time>2026-08-23T13:45:29.000Z</time>
      </trkpt>
      <trkpt lat="47.72163" lon="6.74076">
        <ele>444.4</ele>
        <time>2026-08-23T13:45:31.000Z</time>
      </trkpt>
      <trkpt lat="47.7217" lon="6.74086">
        <ele>444.8</ele>
        <time>2026-08-23T13:45:33.000Z</time>
      </trkpt>
      <trkpt lat="47.72177" lon="6.74095">
        <ele>445.2</ele>
        <time>2026-08-23T13:45:35.000Z</time>
      </trkpt>
      <trkpt lat="47.72183" lon="6.74102">
        <ele>445.6</ele>
        <time>2026-08-23T13:45:37.000Z</time>
      </trkpt>
      <trkpt lat="47.72188" lon="6.74109">
        <ele>446</ele>
        <time>2026-08-23T13:45:39.000Z</time>
      </trkpt>
      <trkpt lat="47.72193" lon="6.74116">
        <ele>446.2</ele>
        <time>2026-08-23T13:45:41.000Z</time>
      </trkpt>
      <trkpt lat="47.72198" lon="6.74122">
        <ele>446.6</ele>
        <time>2026-08-23T13:45:43.000Z</time>
      </trkpt>
      <trkpt lat="47.72203" lon="6.74129">
        <ele>446.8</ele>
        <time>2026-08-23T13:45:45.000Z</time>
      </trkpt>
      <trkpt lat="47.72208" lon="6.74136">
        <ele>447.2</ele>
        <time>2026-08-23T13:45:47.000Z</time>
      </trkpt>
      <trkpt lat="47.72213" lon="6.74143">
        <ele>447.4</ele>
        <time>2026-08-23T13:45:49.000Z</time>
      </trkpt>
      <trkpt lat="47.72218" lon="6.7415">
        <ele>447.8</ele>
        <time>2026-08-23T13:45:51.000Z</time>
      </trkpt>
      <trkpt lat="47.72223" lon="6.74158">
        <ele>448.2</ele>
        <time>2026-08-23T13:45:53.000Z</time>
      </trkpt>
      <trkpt lat="47.72228" lon="6.74165">
        <ele>448.6</ele>
        <time>2026-08-23T13:45:55.000Z</time>
      </trkpt>
      <trkpt lat="47.72232" lon="6.74173">
        <ele>448.8</ele>
        <time>2026-08-23T13:45:57.000Z</time>
      </trkpt>
      <trkpt lat="47.72237" lon="6.74182">
        <ele>449.2</ele>
        <time>2026-08-23T13:45:59.000Z</time>
      </trkpt>
      <trkpt lat="47.72241" lon="6.74191">
        <ele>449.6</ele>
        <time>2026-08-23T13:46:01.000Z</time>
      </trkpt>
      <trkpt lat="47.72245" lon="6.742">
        <ele>450</ele>
        <time>2026-08-23T13:46:03.000Z</time>
      </trkpt>
      <trkpt lat="47.72248" lon="6.74209">
        <ele>450.4</ele>
        <time>2026-08-23T13:46:05.000Z</time>
      </trkpt>
      <trkpt lat="47.72252" lon="6.74219">
        <ele>450.6</ele>
        <time>2026-08-23T13:46:07.000Z</time>
      </trkpt>
      <trkpt lat="47.72255" lon="6.74228">
        <ele>451</ele>
        <time>2026-08-23T13:46:09.000Z</time>
      </trkpt>
      <trkpt lat="47.72259" lon="6.74237">
        <ele>451.2</ele>
        <time>2026-08-23T13:46:11.000Z</time>
      </trkpt>
      <trkpt lat="47.72262" lon="6.74247">
        <ele>451.6</ele>
        <time>2026-08-23T13:46:13.000Z</time>
      </trkpt>
      <trkpt lat="47.72266" lon="6.74257">
        <ele>451.8</ele>
        <time>2026-08-23T13:46:15.000Z</time>
      </trkpt>
      <trkpt lat="47.72269" lon="6.74266">
        <ele>452.2</ele>
        <time>2026-08-23T13:46:17.000Z</time>
      </trkpt>
      <trkpt lat="47.72272" lon="6.74276">
        <ele>452.4</ele>
        <time>2026-08-23T13:46:19.000Z</time>
      </trkpt>
      <trkpt lat="47.72276" lon="6.74286">
        <ele>452.6</ele>
        <time>2026-08-23T13:46:21.000Z</time>
      </trkpt>
      <trkpt lat="47.72279" lon="6.74296">
        <ele>452.8</ele>
        <time>2026-08-23T13:46:23.000Z</time>
      </trkpt>
      <trkpt lat="47.72283" lon="6.74306">
        <ele>453</ele>
        <time>2026-08-23T13:46:25.000Z</time>
      </trkpt>
      <trkpt lat="47.72287" lon="6.74316">
        <ele>453</ele>
        <time>2026-08-23T13:46:27.000Z</time>
      </trkpt>
      <trkpt lat="47.7229" lon="6.74326">
        <ele>453</ele>
        <time>2026-08-23T13:46:29.000Z</time>
      </trkpt>
      <trkpt lat="47.72294" lon="6.74334">
        <ele>453</ele>
        <time>2026-08-23T13:46:31.000Z</time>
      </trkpt>
      <trkpt lat="47.72297" lon="6.74342">
        <ele>453</ele>
        <time>2026-08-23T13:46:33.000Z</time>
      </trkpt>
      <trkpt lat="47.723" lon="6.74351">
        <ele>453</ele>
        <time>2026-08-23T13:46:35.000Z</time>
      </trkpt>
      <trkpt lat="47.72303" lon="6.74361">
        <ele>453</ele>
        <time>2026-08-23T13:46:37.000Z</time>
      </trkpt>
      <trkpt lat="47.72307" lon="6.74371">
        <ele>452.6</ele>
        <time>2026-08-23T13:46:39.000Z</time>
      </trkpt>
      <trkpt lat="47.72311" lon="6.74382">
        <ele>452.4</ele>
        <time>2026-08-23T13:46:42.000Z</time>
      </trkpt>
      <trkpt lat="47.72315" lon="6.74393">
        <ele>452.4</ele>
        <time>2026-08-23T13:46:44.000Z</time>
      </trkpt>
      <trkpt lat="47.7232" lon="6.74405">
        <ele>452.2</ele>
        <time>2026-08-23T13:46:46.000Z</time>
      </trkpt>
      <trkpt lat="47.72324" lon="6.74417">
        <ele>452</ele>
        <time>2026-08-23T13:46:48.000Z</time>
      </trkpt>
      <trkpt lat="47.72329" lon="6.74429">
        <ele>451.8</ele>
        <time>2026-08-23T13:46:50.000Z</time>
      </trkpt>
      <trkpt lat="47.72334" lon="6.74443">
        <ele>451.6</ele>
        <time>2026-08-23T13:46:52.000Z</time>
      </trkpt>
      <trkpt lat="47.72339" lon="6.74456">
        <ele>451.2</ele>
        <time>2026-08-23T13:46:54.000Z</time>
      </trkpt>
      <trkpt lat="47.72344" lon="6.7447">
        <ele>451</ele>
        <time>2026-08-23T13:46:56.000Z</time>
      </trkpt>
      <trkpt lat="47.72349" lon="6.74484">
        <ele>451</ele>
        <time>2026-08-23T13:46:58.000Z</time>
      </trkpt>
      <trkpt lat="47.72354" lon="6.74497">
        <ele>450.8</ele>
        <time>2026-08-23T13:47:00.000Z</time>
      </trkpt>
      <trkpt lat="47.7236" lon="6.74512">
        <ele>451</ele>
        <time>2026-08-23T13:47:02.000Z</time>
      </trkpt>
      <trkpt lat="47.72365" lon="6.74526">
        <ele>450.8</ele>
        <time>2026-08-23T13:47:04.000Z</time>
      </trkpt>
      <trkpt lat="47.7237" lon="6.74541">
        <ele>450.8</ele>
        <time>2026-08-23T13:47:06.000Z</time>
      </trkpt>
      <trkpt lat="47.72376" lon="6.74555">
        <ele>450.8</ele>
        <time>2026-08-23T13:47:08.000Z</time>
      </trkpt>
      <trkpt lat="47.72383" lon="6.74574">
        <ele>450.4</ele>
        <time>2026-08-23T13:47:10.000Z</time>
      </trkpt>
      <trkpt lat="47.7239" lon="6.74592">
        <ele>450.2</ele>
        <time>2026-08-23T13:47:12.000Z</time>
      </trkpt>
      <trkpt lat="47.72395" lon="6.74607">
        <ele>450</ele>
        <time>2026-08-23T13:47:14.000Z</time>
      </trkpt>
      <trkpt lat="47.724" lon="6.7462">
        <ele>449.8</ele>
        <time>2026-08-23T13:47:16.000Z</time>
      </trkpt>
      <trkpt lat="47.72405" lon="6.74633">
        <ele>449.8</ele>
        <time>2026-08-23T13:47:18.000Z</time>
      </trkpt>
      <trkpt lat="47.7241" lon="6.74647">
        <ele>449.6</ele>
        <time>2026-08-23T13:47:20.000Z</time>
      </trkpt>
      <trkpt lat="47.72414" lon="6.7466">
        <ele>450</ele>
        <time>2026-08-23T13:47:22.000Z</time>
      </trkpt>
      <trkpt lat="47.72418" lon="6.74675">
        <ele>450.2</ele>
        <time>2026-08-23T13:47:24.000Z</time>
      </trkpt>
      <trkpt lat="47.7242" lon="6.74689">
        <ele>450.4</ele>
        <time>2026-08-23T13:47:26.000Z</time>
      </trkpt>
      <trkpt lat="47.72422" lon="6.74704">
        <ele>450.6</ele>
        <time>2026-08-23T13:47:28.000Z</time>
      </trkpt>
      <trkpt lat="47.72423" lon="6.74719">
        <ele>450.8</ele>
        <time>2026-08-23T13:47:30.000Z</time>
      </trkpt>
      <trkpt lat="47.72422" lon="6.74733">
        <ele>451.2</ele>
        <time>2026-08-23T13:47:32.000Z</time>
      </trkpt>
      <trkpt lat="47.72421" lon="6.74747">
        <ele>451.4</ele>
        <time>2026-08-23T13:47:34.000Z</time>
      </trkpt>
      <trkpt lat="47.72419" lon="6.74762">
        <ele>451.8</ele>
        <time>2026-08-23T13:47:36.000Z</time>
      </trkpt>
      <trkpt lat="47.72417" lon="6.74776">
        <ele>452.4</ele>
        <time>2026-08-23T13:47:38.000Z</time>
      </trkpt>
      <trkpt lat="47.72414" lon="6.74791">
        <ele>452.8</ele>
        <time>2026-08-23T13:47:40.000Z</time>
      </trkpt>
      <trkpt lat="47.72412" lon="6.74805">
        <ele>453</ele>
        <time>2026-08-23T13:47:42.000Z</time>
      </trkpt>
      <trkpt lat="47.72409" lon="6.7482">
        <ele>453</ele>
        <time>2026-08-23T13:47:44.000Z</time>
      </trkpt>
      <trkpt lat="47.72407" lon="6.74834">
        <ele>453</ele>
        <time>2026-08-23T13:47:46.000Z</time>
      </trkpt>
      <trkpt lat="47.72405" lon="6.74848">
        <ele>453</ele>
        <time>2026-08-23T13:47:48.000Z</time>
      </trkpt>
      <trkpt lat="47.72403" lon="6.74862">
        <ele>453</ele>
        <time>2026-08-23T13:47:50.000Z</time>
      </trkpt>
      <trkpt lat="47.72402" lon="6.74876">
        <ele>453.2</ele>
        <time>2026-08-23T13:47:52.000Z</time>
      </trkpt>
      <trkpt lat="47.72401" lon="6.7489">
        <ele>453.2</ele>
        <time>2026-08-23T13:47:54.000Z</time>
      </trkpt>
      <trkpt lat="47.724" lon="6.74904">
        <ele>453.2</ele>
        <time>2026-08-23T13:47:56.000Z</time>
      </trkpt>
      <trkpt lat="47.724" lon="6.74918">
        <ele>453.2</ele>
        <time>2026-08-23T13:47:58.000Z</time>
      </trkpt>
      <trkpt lat="47.72401" lon="6.74933">
        <ele>452.8</ele>
        <time>2026-08-23T13:48:00.000Z</time>
      </trkpt>
      <trkpt lat="47.72402" lon="6.74948">
        <ele>452.8</ele>
        <time>2026-08-23T13:48:02.000Z</time>
      </trkpt>
      <trkpt lat="47.72404" lon="6.74963">
        <ele>452.8</ele>
        <time>2026-08-23T13:48:04.000Z</time>
      </trkpt>
      <trkpt lat="47.72406" lon="6.74977">
        <ele>453</ele>
        <time>2026-08-23T13:48:06.000Z</time>
      </trkpt>
      <trkpt lat="47.72408" lon="6.74992">
        <ele>453</ele>
        <time>2026-08-23T13:48:08.000Z</time>
      </trkpt>
      <trkpt lat="47.7241" lon="6.75006">
        <ele>453.2</ele>
        <time>2026-08-23T13:48:10.000Z</time>
      </trkpt>
      <trkpt lat="47.72412" lon="6.75021">
        <ele>453.2</ele>
        <time>2026-08-23T13:48:12.000Z</time>
      </trkpt>
      <trkpt lat="47.72415" lon="6.75035">
        <ele>453.2</ele>
        <time>2026-08-23T13:48:14.000Z</time>
      </trkpt>
      <trkpt lat="47.72417" lon="6.75049">
        <ele>453</ele>
        <time>2026-08-23T13:48:16.000Z</time>
      </trkpt>
      <trkpt lat="47.72419" lon="6.75062">
        <ele>453.2</ele>
        <time>2026-08-23T13:48:18.000Z</time>
      </trkpt>
      <trkpt lat="47.72421" lon="6.75076">
        <ele>453.4</ele>
        <time>2026-08-23T13:48:20.000Z</time>
      </trkpt>
      <trkpt lat="47.72423" lon="6.75089">
        <ele>453.2</ele>
        <time>2026-08-23T13:48:23.000Z</time>
      </trkpt>
      <trkpt lat="47.72425" lon="6.75103">
        <ele>453.4</ele>
        <time>2026-08-23T13:48:25.000Z</time>
      </trkpt>
      <trkpt lat="47.72427" lon="6.75116">
        <ele>453.6</ele>
        <time>2026-08-23T13:48:27.000Z</time>
      </trkpt>
      <trkpt lat="47.72429" lon="6.7513">
        <ele>453.6</ele>
        <time>2026-08-23T13:48:29.000Z</time>
      </trkpt>
      <trkpt lat="47.72431" lon="6.75143">
        <ele>453.6</ele>
        <time>2026-08-23T13:48:31.000Z</time>
      </trkpt>
      <trkpt lat="47.72433" lon="6.75156">
        <ele>453.4</ele>
        <time>2026-08-23T13:48:33.000Z</time>
      </trkpt>
      <trkpt lat="47.72435" lon="6.75168">
        <ele>453.4</ele>
        <time>2026-08-23T13:48:35.000Z</time>
      </trkpt>
      <trkpt lat="47.72437" lon="6.7518">
        <ele>453.6</ele>
        <time>2026-08-23T13:48:37.000Z</time>
      </trkpt>
      <trkpt lat="47.72439" lon="6.75192">
        <ele>453.8</ele>
        <time>2026-08-23T13:48:39.000Z</time>
      </trkpt>
      <trkpt lat="47.72442" lon="6.75204">
        <ele>454.2</ele>
        <time>2026-08-23T13:48:41.000Z</time>
      </trkpt>
      <trkpt lat="47.72445" lon="6.75217">
        <ele>454.2</ele>
        <time>2026-08-23T13:48:43.000Z</time>
      </trkpt>
      <trkpt lat="47.72448" lon="6.75229">
        <ele>454.2</ele>
        <time>2026-08-23T13:48:45.000Z</time>
      </trkpt>
      <trkpt lat="47.72451" lon="6.75241">
        <ele>454.4</ele>
        <time>2026-08-23T13:48:47.000Z</time>
      </trkpt>
      <trkpt lat="47.72454" lon="6.75253">
        <ele>454.8</ele>
        <time>2026-08-23T13:48:49.000Z</time>
      </trkpt>
      <trkpt lat="47.72457" lon="6.75266">
        <ele>455</ele>
        <time>2026-08-23T13:48:51.000Z</time>
      </trkpt>
      <trkpt lat="47.7246" lon="6.75278">
        <ele>455.2</ele>
        <time>2026-08-23T13:48:53.000Z</time>
      </trkpt>
      <trkpt lat="47.72464" lon="6.7529">
        <ele>455.2</ele>
        <time>2026-08-23T13:48:55.000Z</time>
      </trkpt>
      <trkpt lat="47.72467" lon="6.75303">
        <ele>455.4</ele>
        <time>2026-08-23T13:48:57.000Z</time>
      </trkpt>
      <trkpt lat="47.7247" lon="6.75315">
        <ele>455.6</ele>
        <time>2026-08-23T13:48:59.000Z</time>
      </trkpt>
      <trkpt lat="47.72473" lon="6.75327">
        <ele>455.6</ele>
        <time>2026-08-23T13:49:01.000Z</time>
      </trkpt>
      <trkpt lat="47.72476" lon="6.7534">
        <ele>455.8</ele>
        <time>2026-08-23T13:49:03.000Z</time>
      </trkpt>
      <trkpt lat="47.72479" lon="6.75353">
        <ele>455.8</ele>
        <time>2026-08-23T13:49:05.000Z</time>
      </trkpt>
      <trkpt lat="47.72482" lon="6.75365">
        <ele>455.8</ele>
        <time>2026-08-23T13:49:07.000Z</time>
      </trkpt>
      <trkpt lat="47.72485" lon="6.75377">
        <ele>456</ele>
        <time>2026-08-23T13:49:09.000Z</time>
      </trkpt>
      <trkpt lat="47.72489" lon="6.75393">
        <ele>456</ele>
        <time>2026-08-23T13:49:11.000Z</time>
      </trkpt>
      <trkpt lat="47.72493" lon="6.75407">
        <ele>456.2</ele>
        <time>2026-08-23T13:49:13.000Z</time>
      </trkpt>
      <trkpt lat="47.72496" lon="6.75421">
        <ele>456.4</ele>
        <time>2026-08-23T13:49:15.000Z</time>
      </trkpt>
      <trkpt lat="47.72499" lon="6.75434">
        <ele>456.6</ele>
        <time>2026-08-23T13:49:17.000Z</time>
      </trkpt>
      <trkpt lat="47.72501" lon="6.75446">
        <ele>456.8</ele>
        <time>2026-08-23T13:49:19.000Z</time>
      </trkpt>
      <trkpt lat="47.72504" lon="6.75458">
        <ele>457.4</ele>
        <time>2026-08-23T13:49:21.000Z</time>
      </trkpt>
      <trkpt lat="47.72506" lon="6.75471">
        <ele>457.6</ele>
        <time>2026-08-23T13:49:23.000Z</time>
      </trkpt>
      <trkpt lat="47.72507" lon="6.75484">
        <ele>458</ele>
        <time>2026-08-23T13:49:25.000Z</time>
      </trkpt>
      <trkpt lat="47.72508" lon="6.75497">
        <ele>458.4</ele>
        <time>2026-08-23T13:49:27.000Z</time>
      </trkpt>
      <trkpt lat="47.72508" lon="6.7551">
        <ele>458.8</ele>
        <time>2026-08-23T13:49:29.000Z</time>
      </trkpt>
      <trkpt lat="47.72507" lon="6.75523">
        <ele>459.2</ele>
        <time>2026-08-23T13:49:31.000Z</time>
      </trkpt>
      <trkpt lat="47.72506" lon="6.75536">
        <ele>459.2</ele>
        <time>2026-08-23T13:49:33.000Z</time>
      </trkpt>
      <trkpt lat="47.72503" lon="6.75549">
        <ele>459.4</ele>
        <time>2026-08-23T13:49:35.000Z</time>
      </trkpt>
      <trkpt lat="47.72501" lon="6.75562">
        <ele>459.4</ele>
        <time>2026-08-23T13:49:37.000Z</time>
      </trkpt>
      <trkpt lat="47.72498" lon="6.75575">
        <ele>459.4</ele>
        <time>2026-08-23T13:49:39.000Z</time>
      </trkpt>
      <trkpt lat="47.72495" lon="6.75588">
        <ele>459.6</ele>
        <time>2026-08-23T13:49:41.000Z</time>
      </trkpt>
      <trkpt lat="47.72492" lon="6.756">
        <ele>459.6</ele>
        <time>2026-08-23T13:49:43.000Z</time>
      </trkpt>
      <trkpt lat="47.72489" lon="6.75612">
        <ele>459.8</ele>
        <time>2026-08-23T13:49:45.000Z</time>
      </trkpt>
      <trkpt lat="47.72487" lon="6.75624">
        <ele>460</ele>
        <time>2026-08-23T13:49:47.000Z</time>
      </trkpt>
      <trkpt lat="47.72485" lon="6.75636">
        <ele>460.6</ele>
        <time>2026-08-23T13:49:49.000Z</time>
      </trkpt>
      <trkpt lat="47.72485" lon="6.75648">
        <ele>461.2</ele>
        <time>2026-08-23T13:49:51.000Z</time>
      </trkpt>
      <trkpt lat="47.72486" lon="6.75659">
        <ele>461.8</ele>
        <time>2026-08-23T13:49:53.000Z</time>
      </trkpt>
      <trkpt lat="47.72488" lon="6.75668">
        <ele>462.4</ele>
        <time>2026-08-23T13:49:55.000Z</time>
      </trkpt>
      <trkpt lat="47.72491" lon="6.75677">
        <ele>463</ele>
        <time>2026-08-23T13:49:57.000Z</time>
      </trkpt>
      <trkpt lat="47.72494" lon="6.75686">
        <ele>463.6</ele>
        <time>2026-08-23T13:49:59.000Z</time>
      </trkpt>
      <trkpt lat="47.72498" lon="6.75694">
        <ele>463.8</ele>
        <time>2026-08-23T13:50:01.000Z</time>
      </trkpt>
      <trkpt lat="47.72501" lon="6.75702">
        <ele>464.2</ele>
        <time>2026-08-23T13:50:03.000Z</time>
      </trkpt>
      <trkpt lat="47.72505" lon="6.75708">
        <ele>464.6</ele>
        <time>2026-08-23T13:50:05.000Z</time>
      </trkpt>
      <trkpt lat="47.72508" lon="6.75713">
        <ele>465</ele>
        <time>2026-08-23T13:50:07.000Z</time>
      </trkpt>
      <trkpt lat="47.72512" lon="6.75718">
        <ele>465.2</ele>
        <time>2026-08-23T13:50:09.000Z</time>
      </trkpt>
      <trkpt lat="47.72515" lon="6.75723">
        <ele>465.6</ele>
        <time>2026-08-23T13:50:11.000Z</time>
      </trkpt>
      <trkpt lat="47.72519" lon="6.75728">
        <ele>466</ele>
        <time>2026-08-23T13:50:13.000Z</time>
      </trkpt>
      <trkpt lat="47.72522" lon="6.75733">
        <ele>466.2</ele>
        <time>2026-08-23T13:50:16.000Z</time>
      </trkpt>
      <trkpt lat="47.72526" lon="6.75739">
        <ele>466.6</ele>
        <time>2026-08-23T13:50:18.000Z</time>
      </trkpt>
      <trkpt lat="47.7253" lon="6.75743">
        <ele>467</ele>
        <time>2026-08-23T13:50:20.000Z</time>
      </trkpt>
      <trkpt lat="47.72534" lon="6.75748">
        <ele>467.2</ele>
        <time>2026-08-23T13:50:22.000Z</time>
      </trkpt>
      <trkpt lat="47.72538" lon="6.75752">
        <ele>467.6</ele>
        <time>2026-08-23T13:50:24.000Z</time>
      </trkpt>
      <trkpt lat="47.72543" lon="6.75756">
        <ele>467.8</ele>
        <time>2026-08-23T13:50:26.000Z</time>
      </trkpt>
      <trkpt lat="47.72547" lon="6.75759">
        <ele>468</ele>
        <time>2026-08-23T13:50:28.000Z</time>
      </trkpt>
      <trkpt lat="47.72551" lon="6.75762">
        <ele>468.2</ele>
        <time>2026-08-23T13:50:30.000Z</time>
      </trkpt>
      <trkpt lat="47.72555" lon="6.75765">
        <ele>468.4</ele>
        <time>2026-08-23T13:50:32.000Z</time>
      </trkpt>
      <trkpt lat="47.72559" lon="6.75768">
        <ele>468.8</ele>
        <time>2026-08-23T13:50:34.000Z</time>
      </trkpt>
      <trkpt lat="47.72564" lon="6.7577">
        <ele>469.4</ele>
        <time>2026-08-23T13:50:36.000Z</time>
      </trkpt>
      <trkpt lat="47.72568" lon="6.75773">
        <ele>469.8</ele>
        <time>2026-08-23T13:50:38.000Z</time>
      </trkpt>
      <trkpt lat="47.72573" lon="6.75775">
        <ele>470</ele>
        <time>2026-08-23T13:50:40.000Z</time>
      </trkpt>
      <trkpt lat="47.72577" lon="6.75776">
        <ele>470.4</ele>
        <time>2026-08-23T13:50:42.000Z</time>
      </trkpt>
      <trkpt lat="47.72581" lon="6.75777">
        <ele>470.8</ele>
        <time>2026-08-23T13:50:44.000Z</time>
      </trkpt>
      <trkpt lat="47.72586" lon="6.75778">
        <ele>471</ele>
        <time>2026-08-23T13:50:46.000Z</time>
      </trkpt>
      <trkpt lat="47.7259" lon="6.75779">
        <ele>471.2</ele>
        <time>2026-08-23T13:50:48.000Z</time>
      </trkpt>
      <trkpt lat="47.72595" lon="6.7578">
        <ele>471.6</ele>
        <time>2026-08-23T13:50:50.000Z</time>
      </trkpt>
      <trkpt lat="47.72599" lon="6.7578">
        <ele>471.8</ele>
        <time>2026-08-23T13:50:52.000Z</time>
      </trkpt>
      <trkpt lat="47.72604" lon="6.75781">
        <ele>472</ele>
        <time>2026-08-23T13:50:54.000Z</time>
      </trkpt>
      <trkpt lat="47.72609" lon="6.75782">
        <ele>472.4</ele>
        <time>2026-08-23T13:50:56.000Z</time>
      </trkpt>
      <trkpt lat="47.72614" lon="6.75783">
        <ele>472.8</ele>
        <time>2026-08-23T13:50:58.000Z</time>
      </trkpt>
      <trkpt lat="47.72619" lon="6.75784">
        <ele>473</ele>
        <time>2026-08-23T13:51:00.000Z</time>
      </trkpt>
      <trkpt lat="47.72623" lon="6.75786">
        <ele>473.4</ele>
        <time>2026-08-23T13:51:02.000Z</time>
      </trkpt>
      <trkpt lat="47.72627" lon="6.75788">
        <ele>473.6</ele>
        <time>2026-08-23T13:51:04.000Z</time>
      </trkpt>
      <trkpt lat="47.72632" lon="6.7579">
        <ele>474</ele>
        <time>2026-08-23T13:51:06.000Z</time>
      </trkpt>
      <trkpt lat="47.72636" lon="6.75792">
        <ele>474.4</ele>
        <time>2026-08-23T13:51:08.000Z</time>
      </trkpt>
      <trkpt lat="47.72641" lon="6.75794">
        <ele>474.8</ele>
        <time>2026-08-23T13:51:10.000Z</time>
      </trkpt>
      <trkpt lat="47.72646" lon="6.75797">
        <ele>475</ele>
        <time>2026-08-23T13:51:12.000Z</time>
      </trkpt>
      <trkpt lat="47.7265" lon="6.75799">
        <ele>475.2</ele>
        <time>2026-08-23T13:51:14.000Z</time>
      </trkpt>
      <trkpt lat="47.72655" lon="6.75802">
        <ele>475.2</ele>
        <time>2026-08-23T13:51:16.000Z</time>
      </trkpt>
      <trkpt lat="47.72659" lon="6.75805">
        <ele>475.4</ele>
        <time>2026-08-23T13:51:18.000Z</time>
      </trkpt>
      <trkpt lat="47.72663" lon="6.75808">
        <ele>475.6</ele>
        <time>2026-08-23T13:51:20.000Z</time>
      </trkpt>
      <trkpt lat="47.72667" lon="6.75811">
        <ele>476</ele>
        <time>2026-08-23T13:51:22.000Z</time>
      </trkpt>
      <trkpt lat="47.72672" lon="6.75814">
        <ele>476.2</ele>
        <time>2026-08-23T13:51:24.000Z</time>
      </trkpt>
      <trkpt lat="47.72676" lon="6.75817">
        <ele>476.4</ele>
        <time>2026-08-23T13:51:26.000Z</time>
      </trkpt>
      <trkpt lat="47.7268" lon="6.75821">
        <ele>476.6</ele>
        <time>2026-08-23T13:51:28.000Z</time>
      </trkpt>
      <trkpt lat="47.72684" lon="6.75825">
        <ele>477</ele>
        <time>2026-08-23T13:51:30.000Z</time>
      </trkpt>
      <trkpt lat="47.72688" lon="6.7583">
        <ele>477.4</ele>
        <time>2026-08-23T13:51:32.000Z</time>
      </trkpt>
      <trkpt lat="47.72692" lon="6.75835">
        <ele>477.6</ele>
        <time>2026-08-23T13:51:34.000Z</time>
      </trkpt>
      <trkpt lat="47.72695" lon="6.7584">
        <ele>478</ele>
        <time>2026-08-23T13:51:36.000Z</time>
      </trkpt>
      <trkpt lat="47.72699" lon="6.75845">
        <ele>478.2</ele>
        <time>2026-08-23T13:51:38.000Z</time>
      </trkpt>
      <trkpt lat="47.72702" lon="6.7585">
        <ele>478.6</ele>
        <time>2026-08-23T13:51:40.000Z</time>
      </trkpt>
      <trkpt lat="47.72705" lon="6.75856">
        <ele>478.8</ele>
        <time>2026-08-23T13:51:42.000Z</time>
      </trkpt>
      <trkpt lat="47.72708" lon="6.75862">
        <ele>479.2</ele>
        <time>2026-08-23T13:51:44.000Z</time>
      </trkpt>
      <trkpt lat="47.72711" lon="6.75868">
        <ele>479.6</ele>
        <time>2026-08-23T13:51:46.000Z</time>
      </trkpt>
      <trkpt lat="47.72713" lon="6.75874">
        <ele>479.8</ele>
        <time>2026-08-23T13:51:48.000Z</time>
      </trkpt>
      <trkpt lat="47.72716" lon="6.75881">
        <ele>480.4</ele>
        <time>2026-08-23T13:51:50.000Z</time>
      </trkpt>
      <trkpt lat="47.72719" lon="6.75887">
        <ele>480.8</ele>
        <time>2026-08-23T13:51:52.000Z</time>
      </trkpt>
      <trkpt lat="47.72721" lon="6.75893">
        <ele>481</ele>
        <time>2026-08-23T13:51:54.000Z</time>
      </trkpt>
      <trkpt lat="47.72723" lon="6.75899">
        <ele>481.4</ele>
        <time>2026-08-23T13:51:56.000Z</time>
      </trkpt>
      <trkpt lat="47.72726" lon="6.75904">
        <ele>481.6</ele>
        <time>2026-08-23T13:51:58.000Z</time>
      </trkpt>
      <trkpt lat="47.72728" lon="6.7591">
        <ele>481.8</ele>
        <time>2026-08-23T13:52:00.000Z</time>
      </trkpt>
      <trkpt lat="47.7273" lon="6.75916">
        <ele>482</ele>
        <time>2026-08-23T13:52:02.000Z</time>
      </trkpt>
      <trkpt lat="47.72733" lon="6.75921">
        <ele>482.2</ele>
        <time>2026-08-23T13:52:04.000Z</time>
      </trkpt>
      <trkpt lat="47.72735" lon="6.75927">
        <ele>482.6</ele>
        <time>2026-08-23T13:52:06.000Z</time>
      </trkpt>
      <trkpt lat="47.72737" lon="6.75932">
        <ele>482.8</ele>
        <time>2026-08-23T13:52:08.000Z</time>
      </trkpt>
      <trkpt lat="47.7274" lon="6.75938">
        <ele>483</ele>
        <time>2026-08-23T13:52:10.000Z</time>
      </trkpt>
      <trkpt lat="47.72742" lon="6.75944">
        <ele>483.4</ele>
        <time>2026-08-23T13:52:12.000Z</time>
      </trkpt>
      <trkpt lat="47.72744" lon="6.7595">
        <ele>483.8</ele>
        <time>2026-08-23T13:52:14.000Z</time>
      </trkpt>
      <trkpt lat="47.72747" lon="6.75956">
        <ele>484</ele>
        <time>2026-08-23T13:52:17.000Z</time>
      </trkpt>
      <trkpt lat="47.72749" lon="6.75962">
        <ele>484.2</ele>
        <time>2026-08-23T13:52:19.000Z</time>
      </trkpt>
      <trkpt lat="47.72752" lon="6.75968">
        <ele>484.4</ele>
        <time>2026-08-23T13:52:21.000Z</time>
      </trkpt>
      <trkpt lat="47.72754" lon="6.75974">
        <ele>484.8</ele>
        <time>2026-08-23T13:52:23.000Z</time>
      </trkpt>
      <trkpt lat="47.72757" lon="6.7598">
        <ele>485.2</ele>
        <time>2026-08-23T13:52:25.000Z</time>
      </trkpt>
      <trkpt lat="47.72759" lon="6.75986">
        <ele>485.4</ele>
        <time>2026-08-23T13:52:27.000Z</time>
      </trkpt>
      <trkpt lat="47.72761" lon="6.75992">
        <ele>485.6</ele>
        <time>2026-08-23T13:52:29.000Z</time>
      </trkpt>
      <trkpt lat="47.72763" lon="6.75999">
        <ele>486</ele>
        <time>2026-08-23T13:52:31.000Z</time>
      </trkpt>
      <trkpt lat="47.72766" lon="6.76005">
        <ele>486.4</ele>
        <time>2026-08-23T13:52:33.000Z</time>
      </trkpt>
      <trkpt lat="47.72768" lon="6.76011">
        <ele>486.6</ele>
        <time>2026-08-23T13:52:35.000Z</time>
      </trkpt>
      <trkpt lat="47.7277" lon="6.76018">
        <ele>487</ele>
        <time>2026-08-23T13:52:37.000Z</time>
      </trkpt>
      <trkpt lat="47.72772" lon="6.76024">
        <ele>487.2</ele>
        <time>2026-08-23T13:52:39.000Z</time>
      </trkpt>
      <trkpt lat="47.72774" lon="6.76031">
        <ele>487.6</ele>
        <time>2026-08-23T13:52:41.000Z</time>
      </trkpt>
      <trkpt lat="47.72776" lon="6.76037">
        <ele>487.8</ele>
        <time>2026-08-23T13:52:43.000Z</time>
      </trkpt>
      <trkpt lat="47.72778" lon="6.76044">
        <ele>488</ele>
        <time>2026-08-23T13:52:45.000Z</time>
      </trkpt>
      <trkpt lat="47.7278" lon="6.7605">
        <ele>488.2</ele>
        <time>2026-08-23T13:52:47.000Z</time>
      </trkpt>
      <trkpt lat="47.72782" lon="6.76057">
        <ele>488.4</ele>
        <time>2026-08-23T13:52:49.000Z</time>
      </trkpt>
      <trkpt lat="47.72784" lon="6.76064">
        <ele>488.6</ele>
        <time>2026-08-23T13:52:51.000Z</time>
      </trkpt>
      <trkpt lat="47.72786" lon="6.7607">
        <ele>488.8</ele>
        <time>2026-08-23T13:52:53.000Z</time>
      </trkpt>
      <trkpt lat="47.72788" lon="6.76077">
        <ele>489</ele>
        <time>2026-08-23T13:52:55.000Z</time>
      </trkpt>
      <trkpt lat="47.7279" lon="6.76083">
        <ele>489.4</ele>
        <time>2026-08-23T13:52:57.000Z</time>
      </trkpt>
      <trkpt lat="47.72792" lon="6.7609">
        <ele>489.6</ele>
        <time>2026-08-23T13:52:59.000Z</time>
      </trkpt>
      <trkpt lat="47.72793" lon="6.76096">
        <ele>489.8</ele>
        <time>2026-08-23T13:53:01.000Z</time>
      </trkpt>
      <trkpt lat="47.72795" lon="6.76103">
        <ele>490.2</ele>
        <time>2026-08-23T13:53:03.000Z</time>
      </trkpt>
      <trkpt lat="47.72797" lon="6.76111">
        <ele>490.4</ele>
        <time>2026-08-23T13:53:05.000Z</time>
      </trkpt>
      <trkpt lat="47.728" lon="6.7612">
        <ele>490.8</ele>
        <time>2026-08-23T13:53:07.000Z</time>
      </trkpt>
      <trkpt lat="47.72802" lon="6.76126">
        <ele>491</ele>
        <time>2026-08-23T13:53:09.000Z</time>
      </trkpt>
      <trkpt lat="47.72803" lon="6.76132">
        <ele>491.2</ele>
        <time>2026-08-23T13:53:11.000Z</time>
      </trkpt>
      <trkpt lat="47.72805" lon="6.76139">
        <ele>491.6</ele>
        <time>2026-08-23T13:53:13.000Z</time>
      </trkpt>
      <trkpt lat="47.72806" lon="6.76145">
        <ele>491.8</ele>
        <time>2026-08-23T13:53:15.000Z</time>
      </trkpt>
      <trkpt lat="47.72808" lon="6.76151">
        <ele>492</ele>
        <time>2026-08-23T13:53:17.000Z</time>
      </trkpt>
      <trkpt lat="47.72809" lon="6.76158">
        <ele>492.4</ele>
        <time>2026-08-23T13:53:19.000Z</time>
      </trkpt>
      <trkpt lat="47.72811" lon="6.76165">
        <ele>492.6</ele>
        <time>2026-08-23T13:53:21.000Z</time>
      </trkpt>
      <trkpt lat="47.72812" lon="6.76172">
        <ele>493</ele>
        <time>2026-08-23T13:53:23.000Z</time>
      </trkpt>
      <trkpt lat="47.72814" lon="6.76178">
        <ele>493.2</ele>
        <time>2026-08-23T13:53:25.000Z</time>
      </trkpt>
      <trkpt lat="47.72816" lon="6.76186">
        <ele>493.6</ele>
        <time>2026-08-23T13:53:27.000Z</time>
      </trkpt>
      <trkpt lat="47.72817" lon="6.76194">
        <ele>494</ele>
        <time>2026-08-23T13:53:29.000Z</time>
      </trkpt>
      <trkpt lat="47.72819" lon="6.76202">
        <ele>494.2</ele>
        <time>2026-08-23T13:53:31.000Z</time>
      </trkpt>
      <trkpt lat="47.7282" lon="6.76209">
        <ele>494.6</ele>
        <time>2026-08-23T13:53:33.000Z</time>
      </trkpt>
      <trkpt lat="47.72822" lon="6.76216">
        <ele>494.8</ele>
        <time>2026-08-23T13:53:35.000Z</time>
      </trkpt>
      <trkpt lat="47.72823" lon="6.76223">
        <ele>495</ele>
        <time>2026-08-23T13:53:37.000Z</time>
      </trkpt>
      <trkpt lat="47.72825" lon="6.76231">
        <ele>495.2</ele>
        <time>2026-08-23T13:53:39.000Z</time>
      </trkpt>
      <trkpt lat="47.72826" lon="6.76238">
        <ele>495.6</ele>
        <time>2026-08-23T13:53:41.000Z</time>
      </trkpt>
      <trkpt lat="47.72828" lon="6.76245">
        <ele>495.8</ele>
        <time>2026-08-23T13:53:43.000Z</time>
      </trkpt>
      <trkpt lat="47.72829" lon="6.76253">
        <ele>496</ele>
        <time>2026-08-23T13:53:45.000Z</time>
      </trkpt>
      <trkpt lat="47.72831" lon="6.7626">
        <ele>496.2</ele>
        <time>2026-08-23T13:53:47.000Z</time>
      </trkpt>
      <trkpt lat="47.72833" lon="6.76268">
        <ele>496.4</ele>
        <time>2026-08-23T13:53:49.000Z</time>
      </trkpt>
      <trkpt lat="47.72835" lon="6.76276">
        <ele>496.6</ele>
        <time>2026-08-23T13:53:51.000Z</time>
      </trkpt>
      <trkpt lat="47.72836" lon="6.76283">
        <ele>497</ele>
        <time>2026-08-23T13:53:53.000Z</time>
      </trkpt>
      <trkpt lat="47.72838" lon="6.76291">
        <ele>497.2</ele>
        <time>2026-08-23T13:53:55.000Z</time>
      </trkpt>
      <trkpt lat="47.7284" lon="6.76298">
        <ele>497.6</ele>
        <time>2026-08-23T13:53:57.000Z</time>
      </trkpt>
      <trkpt lat="47.72842" lon="6.76305">
        <ele>498</ele>
        <time>2026-08-23T13:53:59.000Z</time>
      </trkpt>
      <trkpt lat="47.72843" lon="6.76313">
        <ele>498.4</ele>
        <time>2026-08-23T13:54:01.000Z</time>
      </trkpt>
      <trkpt lat="47.72845" lon="6.7632">
        <ele>498.6</ele>
        <time>2026-08-23T13:54:04.000Z</time>
      </trkpt>
      <trkpt lat="47.72847" lon="6.76327">
        <ele>499</ele>
        <time>2026-08-23T13:54:06.000Z</time>
      </trkpt>
      <trkpt lat="47.72849" lon="6.76334">
        <ele>499.2</ele>
        <time>2026-08-23T13:54:08.000Z</time>
      </trkpt>
      <trkpt lat="47.72851" lon="6.76341">
        <ele>499.6</ele>
        <time>2026-08-23T13:54:10.000Z</time>
      </trkpt>
      <trkpt lat="47.72853" lon="6.76347">
        <ele>499.8</ele>
        <time>2026-08-23T13:54:12.000Z</time>
      </trkpt>
      <trkpt lat="47.72855" lon="6.76354">
        <ele>500.2</ele>
        <time>2026-08-23T13:54:14.000Z</time>
      </trkpt>
      <trkpt lat="47.72857" lon="6.76361">
        <ele>500.4</ele>
        <time>2026-08-23T13:54:16.000Z</time>
      </trkpt>
      <trkpt lat="47.72859" lon="6.76368">
        <ele>500.8</ele>
        <time>2026-08-23T13:54:18.000Z</time>
      </trkpt>
      <trkpt lat="47.7286" lon="6.76375">
        <ele>501.2</ele>
        <time>2026-08-23T13:54:20.000Z</time>
      </trkpt>
      <trkpt lat="47.72863" lon="6.76382">
        <ele>501.4</ele>
        <time>2026-08-23T13:54:22.000Z</time>
      </trkpt>
      <trkpt lat="47.72865" lon="6.76389">
        <ele>501.8</ele>
        <time>2026-08-23T13:54:24.000Z</time>
      </trkpt>
      <trkpt lat="47.72867" lon="6.76396">
        <ele>502.2</ele>
        <time>2026-08-23T13:54:26.000Z</time>
      </trkpt>
      <trkpt lat="47.72869" lon="6.76403">
        <ele>502.6</ele>
        <time>2026-08-23T13:54:28.000Z</time>
      </trkpt>
      <trkpt lat="47.72871" lon="6.7641">
        <ele>503</ele>
        <time>2026-08-23T13:54:30.000Z</time>
      </trkpt>
      <trkpt lat="47.72873" lon="6.76417">
        <ele>503.4</ele>
        <time>2026-08-23T13:54:32.000Z</time>
      </trkpt>
      <trkpt lat="47.72876" lon="6.76424">
        <ele>503.4</ele>
        <time>2026-08-23T13:54:34.000Z</time>
      </trkpt>
      <trkpt lat="47.72878" lon="6.76431">
        <ele>503.6</ele>
        <time>2026-08-23T13:54:36.000Z</time>
      </trkpt>
      <trkpt lat="47.72881" lon="6.76438">
        <ele>503.8</ele>
        <time>2026-08-23T13:54:38.000Z</time>
      </trkpt>
      <trkpt lat="47.72884" lon="6.76446">
        <ele>504.2</ele>
        <time>2026-08-23T13:54:40.000Z</time>
      </trkpt>
      <trkpt lat="47.72886" lon="6.76452">
        <ele>504.4</ele>
        <time>2026-08-23T13:54:42.000Z</time>
      </trkpt>
      <trkpt lat="47.72889" lon="6.76462">
        <ele>504.8</ele>
        <time>2026-08-23T13:54:44.000Z</time>
      </trkpt>
      <trkpt lat="47.72893" lon="6.76469">
        <ele>505.2</ele>
        <time>2026-08-23T13:54:46.000Z</time>
      </trkpt>
      <trkpt lat="47.72895" lon="6.76476">
        <ele>505.6</ele>
        <time>2026-08-23T13:54:48.000Z</time>
      </trkpt>
      <trkpt lat="47.72898" lon="6.76482">
        <ele>506</ele>
        <time>2026-08-23T13:54:50.000Z</time>
      </trkpt>
      <trkpt lat="47.72901" lon="6.76488">
        <ele>506.4</ele>
        <time>2026-08-23T13:54:52.000Z</time>
      </trkpt>
      <trkpt lat="47.72903" lon="6.76494">
        <ele>506.6</ele>
        <time>2026-08-23T13:54:54.000Z</time>
      </trkpt>
      <trkpt lat="47.72905" lon="6.76499">
        <ele>507</ele>
        <time>2026-08-23T13:54:56.000Z</time>
      </trkpt>
      <trkpt lat="47.72908" lon="6.76503">
        <ele>507</ele>
        <time>2026-08-23T13:54:58.000Z</time>
      </trkpt>
      <trkpt lat="47.7291" lon="6.76508">
        <ele>507.2</ele>
        <time>2026-08-23T13:55:00.000Z</time>
      </trkpt>
      <trkpt lat="47.72912" lon="6.76513">
        <ele>507.4</ele>
        <time>2026-08-23T13:55:02.000Z</time>
      </trkpt>
      <trkpt lat="47.72914" lon="6.76519">
        <ele>507.6</ele>
        <time>2026-08-23T13:55:04.000Z</time>
      </trkpt>
      <trkpt lat="47.72917" lon="6.76524">
        <ele>507.8</ele>
        <time>2026-08-23T13:55:06.000Z</time>
      </trkpt>
      <trkpt lat="47.72919" lon="6.76529">
        <ele>508</ele>
        <time>2026-08-23T13:55:08.000Z</time>
      </trkpt>
      <trkpt lat="47.72922" lon="6.76534">
        <ele>508.4</ele>
        <time>2026-08-23T13:55:10.000Z</time>
      </trkpt>
      <trkpt lat="47.72925" lon="6.76538">
        <ele>508.8</ele>
        <time>2026-08-23T13:55:12.000Z</time>
      </trkpt>
      <trkpt lat="47.72928" lon="6.76543">
        <ele>509</ele>
        <time>2026-08-23T13:55:14.000Z</time>
      </trkpt>
      <trkpt lat="47.72932" lon="6.76546">
        <ele>509.2</ele>
        <time>2026-08-23T13:55:16.000Z</time>
      </trkpt>
      <trkpt lat="47.72936" lon="6.7655">
        <ele>509.6</ele>
        <time>2026-08-23T13:55:18.000Z</time>
      </trkpt>
      <trkpt lat="47.7294" lon="6.76555">
        <ele>509.8</ele>
        <time>2026-08-23T13:55:20.000Z</time>
      </trkpt>
      <trkpt lat="47.72945" lon="6.76558">
        <ele>510</ele>
        <time>2026-08-23T13:55:22.000Z</time>
      </trkpt>
      <trkpt lat="47.7295" lon="6.7656">
        <ele>510.2</ele>
        <time>2026-08-23T13:55:24.000Z</time>
      </trkpt>
      <trkpt lat="47.72955" lon="6.76562">
        <ele>510.4</ele>
        <time>2026-08-23T13:55:26.000Z</time>
      </trkpt>
      <trkpt lat="47.7296" lon="6.76563">
        <ele>510.8</ele>
        <time>2026-08-23T13:55:28.000Z</time>
      </trkpt>
      <trkpt lat="47.72965" lon="6.76563">
        <ele>511.2</ele>
        <time>2026-08-23T13:55:30.000Z</time>
      </trkpt>
      <trkpt lat="47.7297" lon="6.76562">
        <ele>511.4</ele>
        <time>2026-08-23T13:55:32.000Z</time>
      </trkpt>
      <trkpt lat="47.72976" lon="6.76561">
        <ele>511.6</ele>
        <time>2026-08-23T13:55:34.000Z</time>
      </trkpt>
      <trkpt lat="47.72981" lon="6.7656">
        <ele>512</ele>
        <time>2026-08-23T13:55:36.000Z</time>
      </trkpt>
      <trkpt lat="47.72986" lon="6.76558">
        <ele>512.2</ele>
        <time>2026-08-23T13:55:38.000Z</time>
      </trkpt>
      <trkpt lat="47.72991" lon="6.76556">
        <ele>512.4</ele>
        <time>2026-08-23T13:55:40.000Z</time>
      </trkpt>
      <trkpt lat="47.72996" lon="6.76555">
        <ele>512.6</ele>
        <time>2026-08-23T13:55:42.000Z</time>
      </trkpt>
      <trkpt lat="47.73001" lon="6.76554">
        <ele>512.8</ele>
        <time>2026-08-23T13:55:44.000Z</time>
      </trkpt>
      <trkpt lat="47.73005" lon="6.76553">
        <ele>513</ele>
        <time>2026-08-23T13:55:46.000Z</time>
      </trkpt>
      <trkpt lat="47.7301" lon="6.76552">
        <ele>513</ele>
        <time>2026-08-23T13:55:48.000Z</time>
      </trkpt>
      <trkpt lat="47.73015" lon="6.76551">
        <ele>513.4</ele>
        <time>2026-08-23T13:55:50.000Z</time>
      </trkpt>
      <trkpt lat="47.73021" lon="6.7655">
        <ele>513.6</ele>
        <time>2026-08-23T13:55:52.000Z</time>
      </trkpt>
      <trkpt lat="47.73026" lon="6.76549">
        <ele>513.8</ele>
        <time>2026-08-23T13:55:54.000Z</time>
      </trkpt>
      <trkpt lat="47.73031" lon="6.76548">
        <ele>514</ele>
        <time>2026-08-23T13:55:57.000Z</time>
      </trkpt>
      <trkpt lat="47.73037" lon="6.76547">
        <ele>514.2</ele>
        <time>2026-08-23T13:55:59.000Z</time>
      </trkpt>
      <trkpt lat="47.73042" lon="6.76547">
        <ele>514.6</ele>
        <time>2026-08-23T13:56:01.000Z</time>
      </trkpt>
      <trkpt lat="47.73048" lon="6.76547">
        <ele>515</ele>
        <time>2026-08-23T13:56:03.000Z</time>
      </trkpt>
      <trkpt lat="47.73053" lon="6.76549">
        <ele>515.2</ele>
        <time>2026-08-23T13:56:05.000Z</time>
      </trkpt>
      <trkpt lat="47.73059" lon="6.76551">
        <ele>515.4</ele>
        <time>2026-08-23T13:56:07.000Z</time>
      </trkpt>
      <trkpt lat="47.73064" lon="6.76554">
        <ele>515.8</ele>
        <time>2026-08-23T13:56:09.000Z</time>
      </trkpt>
      <trkpt lat="47.73068" lon="6.76559">
        <ele>516</ele>
        <time>2026-08-23T13:56:11.000Z</time>
      </trkpt>
      <trkpt lat="47.73073" lon="6.76564">
        <ele>516.2</ele>
        <time>2026-08-23T13:56:13.000Z</time>
      </trkpt>
      <trkpt lat="47.73076" lon="6.76569">
        <ele>516.6</ele>
        <time>2026-08-23T13:56:15.000Z</time>
      </trkpt>
      <trkpt lat="47.7308" lon="6.76575">
        <ele>516.8</ele>
        <time>2026-08-23T13:56:17.000Z</time>
      </trkpt>
      <trkpt lat="47.73083" lon="6.76581">
        <ele>517.2</ele>
        <time>2026-08-23T13:56:19.000Z</time>
      </trkpt>
      <trkpt lat="47.73086" lon="6.76587">
        <ele>517.6</ele>
        <time>2026-08-23T13:56:21.000Z</time>
      </trkpt>
      <trkpt lat="47.7309" lon="6.76593">
        <ele>517.8</ele>
        <time>2026-08-23T13:56:23.000Z</time>
      </trkpt>
      <trkpt lat="47.73093" lon="6.76599">
        <ele>518</ele>
        <time>2026-08-23T13:56:25.000Z</time>
      </trkpt>
      <trkpt lat="47.73096" lon="6.76605">
        <ele>518.4</ele>
        <time>2026-08-23T13:56:27.000Z</time>
      </trkpt>
      <trkpt lat="47.731" lon="6.76612">
        <ele>518.6</ele>
        <time>2026-08-23T13:56:29.000Z</time>
      </trkpt>
      <trkpt lat="47.73104" lon="6.76619">
        <ele>519</ele>
        <time>2026-08-23T13:56:31.000Z</time>
      </trkpt>
      <trkpt lat="47.73107" lon="6.76624">
        <ele>519.2</ele>
        <time>2026-08-23T13:56:33.000Z</time>
      </trkpt>
      <trkpt lat="47.73111" lon="6.7663">
        <ele>519.6</ele>
        <time>2026-08-23T13:56:35.000Z</time>
      </trkpt>
      <trkpt lat="47.73114" lon="6.76636">
        <ele>520</ele>
        <time>2026-08-23T13:56:37.000Z</time>
      </trkpt>
      <trkpt lat="47.73117" lon="6.76642">
        <ele>520.2</ele>
        <time>2026-08-23T13:56:39.000Z</time>
      </trkpt>
      <trkpt lat="47.7312" lon="6.76648">
        <ele>520.6</ele>
        <time>2026-08-23T13:56:41.000Z</time>
      </trkpt>
      <trkpt lat="47.73124" lon="6.76654">
        <ele>520.8</ele>
        <time>2026-08-23T13:56:43.000Z</time>
      </trkpt>
      <trkpt lat="47.73127" lon="6.7666">
        <ele>521</ele>
        <time>2026-08-23T13:56:45.000Z</time>
      </trkpt>
      <trkpt lat="47.7313" lon="6.76666">
        <ele>521.2</ele>
        <time>2026-08-23T13:56:47.000Z</time>
      </trkpt>
      <trkpt lat="47.73133" lon="6.76672">
        <ele>521.4</ele>
        <time>2026-08-23T13:56:49.000Z</time>
      </trkpt>
      <trkpt lat="47.73136" lon="6.76678">
        <ele>522</ele>
        <time>2026-08-23T13:56:51.000Z</time>
      </trkpt>
      <trkpt lat="47.73139" lon="6.76684">
        <ele>522.2</ele>
        <time>2026-08-23T13:56:53.000Z</time>
      </trkpt>
      <trkpt lat="47.73142" lon="6.7669">
        <ele>522.6</ele>
        <time>2026-08-23T13:56:55.000Z</time>
      </trkpt>
      <trkpt lat="47.73145" lon="6.76697">
        <ele>523</ele>
        <time>2026-08-23T13:56:57.000Z</time>
      </trkpt>
      <trkpt lat="47.73148" lon="6.76703">
        <ele>523.4</ele>
        <time>2026-08-23T13:56:59.000Z</time>
      </trkpt>
      <trkpt lat="47.73151" lon="6.7671">
        <ele>523.8</ele>
        <time>2026-08-23T13:57:01.000Z</time>
      </trkpt>
      <trkpt lat="47.73154" lon="6.76717">
        <ele>524.2</ele>
        <time>2026-08-23T13:57:03.000Z</time>
      </trkpt>
      <trkpt lat="47.73156" lon="6.76723">
        <ele>524.6</ele>
        <time>2026-08-23T13:57:05.000Z</time>
      </trkpt>
      <trkpt lat="47.73159" lon="6.7673">
        <ele>524.8</ele>
        <time>2026-08-23T13:57:07.000Z</time>
      </trkpt>
      <trkpt lat="47.73162" lon="6.76737">
        <ele>525.2</ele>
        <time>2026-08-23T13:57:09.000Z</time>
      </trkpt>
      <trkpt lat="47.73164" lon="6.76744">
        <ele>525.4</ele>
        <time>2026-08-23T13:57:11.000Z</time>
      </trkpt>
      <trkpt lat="47.73167" lon="6.76751">
        <ele>525.6</ele>
        <time>2026-08-23T13:57:13.000Z</time>
      </trkpt>
      <trkpt lat="47.7317" lon="6.76758">
        <ele>525.8</ele>
        <time>2026-08-23T13:57:15.000Z</time>
      </trkpt>
      <trkpt lat="47.73173" lon="6.76765">
        <ele>526</ele>
        <time>2026-08-23T13:57:17.000Z</time>
      </trkpt>
      <trkpt lat="47.73176" lon="6.76772">
        <ele>526.2</ele>
        <time>2026-08-23T13:57:19.000Z</time>
      </trkpt>
      <trkpt lat="47.73179" lon="6.76779">
        <ele>526.6</ele>
        <time>2026-08-23T13:57:21.000Z</time>
      </trkpt>
      <trkpt lat="47.73182" lon="6.76787">
        <ele>526.8</ele>
        <time>2026-08-23T13:57:23.000Z</time>
      </trkpt>
      <trkpt lat="47.73184" lon="6.76794">
        <ele>527.2</ele>
        <time>2026-08-23T13:57:25.000Z</time>
      </trkpt>
      <trkpt lat="47.73187" lon="6.76801">
        <ele>527.6</ele>
        <time>2026-08-23T13:57:27.000Z</time>
      </trkpt>
      <trkpt lat="47.7319" lon="6.76808">
        <ele>527.8</ele>
        <time>2026-08-23T13:57:29.000Z</time>
      </trkpt>
      <trkpt lat="47.73193" lon="6.76815">
        <ele>528.2</ele>
        <time>2026-08-23T13:57:31.000Z</time>
      </trkpt>
      <trkpt lat="47.73195" lon="6.76823">
        <ele>528.4</ele>
        <time>2026-08-23T13:57:33.000Z</time>
      </trkpt>
      <trkpt lat="47.73198" lon="6.7683">
        <ele>528.6</ele>
        <time>2026-08-23T13:57:35.000Z</time>
      </trkpt>
      <trkpt lat="47.73201" lon="6.76839">
        <ele>528.6</ele>
        <time>2026-08-23T13:57:37.000Z</time>
      </trkpt>
      <trkpt lat="47.73203" lon="6.76848">
        <ele>528.6</ele>
        <time>2026-08-23T13:57:39.000Z</time>
      </trkpt>
      <trkpt lat="47.73206" lon="6.76859">
        <ele>528.4</ele>
        <time>2026-08-23T13:57:41.000Z</time>
      </trkpt>
      <trkpt lat="47.73209" lon="6.76872">
        <ele>528</ele>
        <time>2026-08-23T13:57:43.000Z</time>
      </trkpt>
      <trkpt lat="47.73212" lon="6.76886">
        <ele>527.6</ele>
        <time>2026-08-23T13:57:45.000Z</time>
      </trkpt>
      <trkpt lat="47.73215" lon="6.76899">
        <ele>527.2</ele>
        <time>2026-08-23T13:57:47.000Z</time>
      </trkpt>
      <trkpt lat="47.73219" lon="6.7691">
        <ele>526.8</ele>
        <time>2026-08-23T13:57:49.000Z</time>
      </trkpt>
      <trkpt lat="47.7322" lon="6.7692">
        <ele>526.4</ele>
        <time>2026-08-23T13:57:52.000Z</time>
      </trkpt>
      <trkpt lat="47.73221" lon="6.76929">
        <ele>526.2</ele>
        <time>2026-08-23T13:57:54.000Z</time>
      </trkpt>
      <trkpt lat="47.73225" lon="6.76935">
        <ele>525.8</ele>
        <time>2026-08-23T13:57:56.000Z</time>
      </trkpt>
      <trkpt lat="47.73227" lon="6.76937">
        <ele>525.6</ele>
        <time>2026-08-23T13:57:58.000Z</time>
      </trkpt>
      <trkpt lat="47.73227" lon="6.76936">
        <ele>525.4</ele>
        <time>2026-08-23T13:58:00.000Z</time>
      </trkpt>
      <trkpt lat="47.73227" lon="6.76935">
        <ele>525.4</ele>
        <time>2026-08-23T13:58:02.000Z</time>
      </trkpt>
      <trkpt lat="47.73227" lon="6.76934">
        <ele>525.4</ele>
        <time>2026-08-23T13:58:04.000Z</time>
      </trkpt>
      <trkpt lat="47.73227" lon="6.76934">
        <ele>525.4</ele>
        <time>2026-08-23T13:58:06.000Z</time>
      </trkpt>
      <trkpt lat="47.73227" lon="6.76934">
        <ele>525.4</ele>
        <time>2026-08-23T13:58:08.000Z</time>
      </trkpt>
      <trkpt lat="47.73227" lon="6.76934">
        <ele>525.4</ele>
        <time>2026-08-23T13:58:10.000Z</time>
      </trkpt>
      <trkpt lat="47.73227" lon="6.76934">
        <ele>525.4</ele>
        <time>2026-08-23T13:58:12.000Z</time>
      </trkpt>
      <trkpt lat="47.73227" lon="6.76934">
        <ele>525.4</ele>
        <time>2026-08-23T13:58:14.000Z</time>
      </trkpt>
      <trkpt lat="47.73227" lon="6.76934">
        <ele>525.4</ele>
        <time>2026-08-23T13:58:16.000Z</time>
      </trkpt>
      <trkpt lat="47.73227" lon="6.76934">
        <ele>525.4</ele>
        <time>2026-08-23T13:58:18.000Z</time>
      </trkpt>
      <trkpt lat="47.73227" lon="6.76934">
        <ele>525.4</ele>
        <time>2026-08-23T13:58:20.000Z</time>
      </trkpt>
      <trkpt lat="47.73227" lon="6.76934">
        <ele>525.4</ele>
        <time>2026-08-23T13:58:22.000Z</time>
      </trkpt>
      <trkpt lat="47.73227" lon="6.76934">
        <ele>525.4</ele>
        <time>2026-08-23T13:58:24.000Z</time>
      </trkpt>
      <trkpt lat="47.73227" lon="6.76934">
        <ele>525.6</ele>
        <time>2026-08-23T13:58:26.000Z</time>
      </trkpt>
      <trkpt lat="47.73227" lon="6.76934">
        <ele>525.6</ele>
        <time>2026-08-23T13:58:28.000Z</time>
      </trkpt>
      <trkpt lat="47.73227" lon="6.76933">
        <ele>525.8</ele>
        <time>2026-08-23T13:58:30.000Z</time>
      </trkpt>
      <trkpt lat="47.73227" lon="6.76933">
        <ele>525.8</ele>
        <time>2026-08-23T13:58:32.000Z</time>
      </trkpt>
      <trkpt lat="47.73227" lon="6.76933">
        <ele>525.8</ele>
        <time>2026-08-23T13:58:34.000Z</time>
      </trkpt>
      <trkpt lat="47.73227" lon="6.76933">
        <ele>525.8</ele>
        <time>2026-08-23T13:58:36.000Z</time>
      </trkpt>
      <trkpt lat="47.73227" lon="6.76933">
        <ele>525.8</ele>
        <time>2026-08-23T13:58:38.000Z</time>
      </trkpt>
      <trkpt lat="47.73227" lon="6.76933">
        <ele>525.8</ele>
        <time>2026-08-23T13:58:40.000Z</time>
      </trkpt>
      <trkpt lat="47.73228" lon="6.76935">
        <ele>525.8</ele>
        <time>2026-08-23T13:58:42.000Z</time>
      </trkpt>
      <trkpt lat="47.73229" lon="6.76939">
        <ele>525.6</ele>
        <time>2026-08-23T13:58:44.000Z</time>
      </trkpt>
      <trkpt lat="47.73231" lon="6.76947">
        <ele>525.4</ele>
        <time>2026-08-23T13:58:46.000Z</time>
      </trkpt>
      <trkpt lat="47.73234" lon="6.76956">
        <ele>525</ele>
        <time>2026-08-23T13:58:48.000Z</time>
      </trkpt>
      <trkpt lat="47.73238" lon="6.76967">
        <ele>524.4</ele>
        <time>2026-08-23T13:58:50.000Z</time>
      </trkpt>
      <trkpt lat="47.73242" lon="6.7698">
        <ele>524</ele>
        <time>2026-08-23T13:58:52.000Z</time>
      </trkpt>
      <trkpt lat="47.73247" lon="6.76995">
        <ele>523.4</ele>
        <time>2026-08-23T13:58:54.000Z</time>
      </trkpt>
      <trkpt lat="47.73251" lon="6.77012">
        <ele>522.6</ele>
        <time>2026-08-23T13:58:56.000Z</time>
      </trkpt>
      <trkpt lat="47.73257" lon="6.7703">
        <ele>521.8</ele>
        <time>2026-08-23T13:58:58.000Z</time>
      </trkpt>
      <trkpt lat="47.73262" lon="6.77049">
        <ele>520.8</ele>
        <time>2026-08-23T13:59:00.000Z</time>
      </trkpt>
      <trkpt lat="47.73268" lon="6.77069">
        <ele>520</ele>
        <time>2026-08-23T13:59:02.000Z</time>
      </trkpt>
      <trkpt lat="47.73273" lon="6.7709">
        <ele>519.2</ele>
        <time>2026-08-23T13:59:04.000Z</time>
      </trkpt>
      <trkpt lat="47.73279" lon="6.77111">
        <ele>518.4</ele>
        <time>2026-08-23T13:59:06.000Z</time>
      </trkpt>
      <trkpt lat="47.73285" lon="6.77133">
        <ele>517.6</ele>
        <time>2026-08-23T13:59:08.000Z</time>
      </trkpt>
      <trkpt lat="47.73291" lon="6.77155">
        <ele>517.2</ele>
        <time>2026-08-23T13:59:10.000Z</time>
      </trkpt>
      <trkpt lat="47.73297" lon="6.77178">
        <ele>516.4</ele>
        <time>2026-08-23T13:59:12.000Z</time>
      </trkpt>
      <trkpt lat="47.73303" lon="6.77201">
        <ele>515</ele>
        <time>2026-08-23T13:59:14.000Z</time>
      </trkpt>
      <trkpt lat="47.73308" lon="6.77226">
        <ele>513.8</ele>
        <time>2026-08-23T13:59:16.000Z</time>
      </trkpt>
      <trkpt lat="47.73313" lon="6.77251">
        <ele>512.6</ele>
        <time>2026-08-23T13:59:18.000Z</time>
      </trkpt>
      <trkpt lat="47.73318" lon="6.77276">
        <ele>511.4</ele>
        <time>2026-08-23T13:59:20.000Z</time>
      </trkpt>
      <trkpt lat="47.7332" lon="6.77303">
        <ele>510.6</ele>
        <time>2026-08-23T13:59:22.000Z</time>
      </trkpt>
      <trkpt lat="47.73323" lon="6.77329">
        <ele>509.8</ele>
        <time>2026-08-23T13:59:24.000Z</time>
      </trkpt>
      <trkpt lat="47.73327" lon="6.77356">
        <ele>509.2</ele>
        <time>2026-08-23T13:59:26.000Z</time>
      </trkpt>
      <trkpt lat="47.73331" lon="6.77383">
        <ele>508.6</ele>
        <time>2026-08-23T13:59:28.000Z</time>
      </trkpt>
      <trkpt lat="47.73335" lon="6.77409">
        <ele>508</ele>
        <time>2026-08-23T13:59:31.000Z</time>
      </trkpt>
      <trkpt lat="47.73339" lon="6.77434">
        <ele>508</ele>
        <time>2026-08-23T13:59:33.000Z</time>
      </trkpt>
      <trkpt lat="47.73343" lon="6.77457">
        <ele>508</ele>
        <time>2026-08-23T13:59:35.000Z</time>
      </trkpt>
      <trkpt lat="47.73349" lon="6.77477">
        <ele>508.4</ele>
        <time>2026-08-23T13:59:37.000Z</time>
      </trkpt>
      <trkpt lat="47.73356" lon="6.77495">
        <ele>508.8</ele>
        <time>2026-08-23T13:59:39.000Z</time>
      </trkpt>
      <trkpt lat="47.73366" lon="6.7751">
        <ele>509</ele>
        <time>2026-08-23T13:59:41.000Z</time>
      </trkpt>
      <trkpt lat="47.73376" lon="6.77523">
        <ele>509.2</ele>
        <time>2026-08-23T13:59:43.000Z</time>
      </trkpt>
      <trkpt lat="47.73388" lon="6.77535">
        <ele>509.4</ele>
        <time>2026-08-23T13:59:45.000Z</time>
      </trkpt>
      <trkpt lat="47.734" lon="6.77548">
        <ele>509.6</ele>
        <time>2026-08-23T13:59:47.000Z</time>
      </trkpt>
      <trkpt lat="47.73412" lon="6.77561">
        <ele>509.4</ele>
        <time>2026-08-23T13:59:49.000Z</time>
      </trkpt>
      <trkpt lat="47.73423" lon="6.77574">
        <ele>509.4</ele>
        <time>2026-08-23T13:59:51.000Z</time>
      </trkpt>
      <trkpt lat="47.73432" lon="6.77589">
        <ele>509.4</ele>
        <time>2026-08-23T13:59:53.000Z</time>
      </trkpt>
      <trkpt lat="47.7344" lon="6.77607">
        <ele>509.4</ele>
        <time>2026-08-23T13:59:55.000Z</time>
      </trkpt>
      <trkpt lat="47.73446" lon="6.77626">
        <ele>509.4</ele>
        <time>2026-08-23T13:59:57.000Z</time>
      </trkpt>
      <trkpt lat="47.73448" lon="6.77646">
        <ele>509.2</ele>
        <time>2026-08-23T13:59:59.000Z</time>
      </trkpt>
      <trkpt lat="47.73448" lon="6.77667">
        <ele>508.8</ele>
        <time>2026-08-23T14:00:01.000Z</time>
      </trkpt>
      <trkpt lat="47.73445" lon="6.77687">
        <ele>508.2</ele>
        <time>2026-08-23T14:00:03.000Z</time>
      </trkpt>
      <trkpt lat="47.7344" lon="6.77707">
        <ele>507.6</ele>
        <time>2026-08-23T14:00:05.000Z</time>
      </trkpt>
      <trkpt lat="47.73433" lon="6.77726">
        <ele>507.2</ele>
        <time>2026-08-23T14:00:07.000Z</time>
      </trkpt>
      <trkpt lat="47.73427" lon="6.77745">
        <ele>506.8</ele>
        <time>2026-08-23T14:00:09.000Z</time>
      </trkpt>
      <trkpt lat="47.7342" lon="6.77765">
        <ele>506</ele>
        <time>2026-08-23T14:00:11.000Z</time>
      </trkpt>
      <trkpt lat="47.73413" lon="6.77786">
        <ele>505.2</ele>
        <time>2026-08-23T14:00:13.000Z</time>
      </trkpt>
      <trkpt lat="47.73407" lon="6.77808">
        <ele>504.6</ele>
        <time>2026-08-23T14:00:15.000Z</time>
      </trkpt>
      <trkpt lat="47.734" lon="6.77831">
        <ele>503.8</ele>
        <time>2026-08-23T14:00:17.000Z</time>
      </trkpt>
      <trkpt lat="47.73392" lon="6.77852">
        <ele>503.4</ele>
        <time>2026-08-23T14:00:19.000Z</time>
      </trkpt>
      <trkpt lat="47.7338" lon="6.77878">
        <ele>503</ele>
        <time>2026-08-23T14:00:21.000Z</time>
      </trkpt>
      <trkpt lat="47.7337" lon="6.77904">
        <ele>502.4</ele>
        <time>2026-08-23T14:00:23.000Z</time>
      </trkpt>
      <trkpt lat="47.73361" lon="6.77925">
        <ele>502.2</ele>
        <time>2026-08-23T14:00:25.000Z</time>
      </trkpt>
      <trkpt lat="47.73354" lon="6.77944">
        <ele>502</ele>
        <time>2026-08-23T14:00:27.000Z</time>
      </trkpt>
      <trkpt lat="47.73346" lon="6.77962">
        <ele>501.6</ele>
        <time>2026-08-23T14:00:29.000Z</time>
      </trkpt>
      <trkpt lat="47.73339" lon="6.77981">
        <ele>501.2</ele>
        <time>2026-08-23T14:00:31.000Z</time>
      </trkpt>
      <trkpt lat="47.73331" lon="6.78">
        <ele>500.6</ele>
        <time>2026-08-23T14:00:33.000Z</time>
      </trkpt>
      <trkpt lat="47.73324" lon="6.78018">
        <ele>500.4</ele>
        <time>2026-08-23T14:00:35.000Z</time>
      </trkpt>
      <trkpt lat="47.73317" lon="6.78037">
        <ele>500.4</ele>
        <time>2026-08-23T14:00:37.000Z</time>
      </trkpt>
      <trkpt lat="47.73311" lon="6.78056">
        <ele>500.4</ele>
        <time>2026-08-23T14:00:39.000Z</time>
      </trkpt>
      <trkpt lat="47.73306" lon="6.78077">
        <ele>500.4</ele>
        <time>2026-08-23T14:00:41.000Z</time>
      </trkpt>
      <trkpt lat="47.73304" lon="6.78099">
        <ele>500.4</ele>
        <time>2026-08-23T14:00:43.000Z</time>
      </trkpt>
      <trkpt lat="47.73303" lon="6.78121">
        <ele>500.2</ele>
        <time>2026-08-23T14:00:45.000Z</time>
      </trkpt>
      <trkpt lat="47.73304" lon="6.78142">
        <ele>500</ele>
        <time>2026-08-23T14:00:47.000Z</time>
      </trkpt>
      <trkpt lat="47.73306" lon="6.78161">
        <ele>500.2</ele>
        <time>2026-08-23T14:00:49.000Z</time>
      </trkpt>
      <trkpt lat="47.73308" lon="6.78178">
        <ele>500.4</ele>
        <time>2026-08-23T14:00:51.000Z</time>
      </trkpt>
      <trkpt lat="47.73307" lon="6.78192">
        <ele>500.6</ele>
        <time>2026-08-23T14:00:53.000Z</time>
      </trkpt>
      <trkpt lat="47.73302" lon="6.78204">
        <ele>501.2</ele>
        <time>2026-08-23T14:00:55.000Z</time>
      </trkpt>
      <trkpt lat="47.73294" lon="6.7821">
        <ele>501.4</ele>
        <time>2026-08-23T14:00:57.000Z</time>
      </trkpt>
      <trkpt lat="47.73285" lon="6.78212">
        <ele>501.4</ele>
        <time>2026-08-23T14:00:59.000Z</time>
      </trkpt>
      <trkpt lat="47.73276" lon="6.78213">
        <ele>501.6</ele>
        <time>2026-08-23T14:01:01.000Z</time>
      </trkpt>
      <trkpt lat="47.73268" lon="6.78215">
        <ele>501.8</ele>
        <time>2026-08-23T14:01:03.000Z</time>
      </trkpt>
      <trkpt lat="47.7326" lon="6.78217">
        <ele>501.8</ele>
        <time>2026-08-23T14:01:05.000Z</time>
      </trkpt>
      <trkpt lat="47.73253" lon="6.7822">
        <ele>502.2</ele>
        <time>2026-08-23T14:01:07.000Z</time>
      </trkpt>
      <trkpt lat="47.73246" lon="6.78223">
        <ele>502.4</ele>
        <time>2026-08-23T14:01:09.000Z</time>
      </trkpt>
      <trkpt lat="47.7324" lon="6.78225">
        <ele>502.8</ele>
        <time>2026-08-23T14:01:11.000Z</time>
      </trkpt>
      <trkpt lat="47.73234" lon="6.78226">
        <ele>503.2</ele>
        <time>2026-08-23T14:01:13.000Z</time>
      </trkpt>
      <trkpt lat="47.73228" lon="6.78228">
        <ele>503.4</ele>
        <time>2026-08-23T14:01:15.000Z</time>
      </trkpt>
      <trkpt lat="47.73222" lon="6.78231">
        <ele>503.8</ele>
        <time>2026-08-23T14:01:17.000Z</time>
      </trkpt>
      <trkpt lat="47.73217" lon="6.78234">
        <ele>504</ele>
        <time>2026-08-23T14:01:19.000Z</time>
      </trkpt>
      <trkpt lat="47.73212" lon="6.78238">
        <ele>504.4</ele>
        <time>2026-08-23T14:01:21.000Z</time>
      </trkpt>
      <trkpt lat="47.73207" lon="6.78243">
        <ele>504.8</ele>
        <time>2026-08-23T14:01:23.000Z</time>
      </trkpt>
      <trkpt lat="47.73203" lon="6.78247">
        <ele>505.2</ele>
        <time>2026-08-23T14:01:25.000Z</time>
      </trkpt>
      <trkpt lat="47.73199" lon="6.78252">
        <ele>505.6</ele>
        <time>2026-08-23T14:01:27.000Z</time>
      </trkpt>
      <trkpt lat="47.73195" lon="6.78257">
        <ele>506</ele>
        <time>2026-08-23T14:01:29.000Z</time>
      </trkpt>
      <trkpt lat="47.73192" lon="6.78262">
        <ele>506.4</ele>
        <time>2026-08-23T14:01:32.000Z</time>
      </trkpt>
      <trkpt lat="47.73189" lon="6.78268">
        <ele>506.8</ele>
        <time>2026-08-23T14:01:34.000Z</time>
      </trkpt>
      <trkpt lat="47.73186" lon="6.78274">
        <ele>507.2</ele>
        <time>2026-08-23T14:01:36.000Z</time>
      </trkpt>
      <trkpt lat="47.73183" lon="6.78281">
        <ele>507.4</ele>
        <time>2026-08-23T14:01:38.000Z</time>
      </trkpt>
      <trkpt lat="47.7318" lon="6.78287">
        <ele>507.4</ele>
        <time>2026-08-23T14:01:40.000Z</time>
      </trkpt>
      <trkpt lat="47.73178" lon="6.78294">
        <ele>507.6</ele>
        <time>2026-08-23T14:01:42.000Z</time>
      </trkpt>
      <trkpt lat="47.73175" lon="6.78301">
        <ele>508</ele>
        <time>2026-08-23T14:01:44.000Z</time>
      </trkpt>
      <trkpt lat="47.73172" lon="6.78308">
        <ele>508.4</ele>
        <time>2026-08-23T14:01:46.000Z</time>
      </trkpt>
      <trkpt lat="47.73168" lon="6.78316">
        <ele>508.8</ele>
        <time>2026-08-23T14:01:48.000Z</time>
      </trkpt>
      <trkpt lat="47.73166" lon="6.78323">
        <ele>509.2</ele>
        <time>2026-08-23T14:01:50.000Z</time>
      </trkpt>
      <trkpt lat="47.73163" lon="6.7833">
        <ele>509.8</ele>
        <time>2026-08-23T14:01:52.000Z</time>
      </trkpt>
      <trkpt lat="47.73161" lon="6.78337">
        <ele>510.2</ele>
        <time>2026-08-23T14:01:54.000Z</time>
      </trkpt>
      <trkpt lat="47.73158" lon="6.78344">
        <ele>510.4</ele>
        <time>2026-08-23T14:01:56.000Z</time>
      </trkpt>
      <trkpt lat="47.73155" lon="6.7835">
        <ele>510.6</ele>
        <time>2026-08-23T14:01:58.000Z</time>
      </trkpt>
      <trkpt lat="47.73151" lon="6.78356">
        <ele>510.6</ele>
        <time>2026-08-23T14:02:00.000Z</time>
      </trkpt>
      <trkpt lat="47.73147" lon="6.78362">
        <ele>510.4</ele>
        <time>2026-08-23T14:02:02.000Z</time>
      </trkpt>
      <trkpt lat="47.73143" lon="6.78368">
        <ele>510.2</ele>
        <time>2026-08-23T14:02:04.000Z</time>
      </trkpt>
      <trkpt lat="47.73139" lon="6.78374">
        <ele>510.2</ele>
        <time>2026-08-23T14:02:06.000Z</time>
      </trkpt>
      <trkpt lat="47.73135" lon="6.7838">
        <ele>510.2</ele>
        <time>2026-08-23T14:02:08.000Z</time>
      </trkpt>
      <trkpt lat="47.73129" lon="6.78387">
        <ele>509.8</ele>
        <time>2026-08-23T14:02:10.000Z</time>
      </trkpt>
      <trkpt lat="47.73122" lon="6.78394">
        <ele>509.6</ele>
        <time>2026-08-23T14:02:12.000Z</time>
      </trkpt>
      <trkpt lat="47.73116" lon="6.784">
        <ele>509.4</ele>
        <time>2026-08-23T14:02:14.000Z</time>
      </trkpt>
      <trkpt lat="47.7311" lon="6.78405">
        <ele>509.2</ele>
        <time>2026-08-23T14:02:16.000Z</time>
      </trkpt>
      <trkpt lat="47.73103" lon="6.7841">
        <ele>508.8</ele>
        <time>2026-08-23T14:02:18.000Z</time>
      </trkpt>
      <trkpt lat="47.73096" lon="6.78414">
        <ele>508.4</ele>
        <time>2026-08-23T14:02:20.000Z</time>
      </trkpt>
      <trkpt lat="47.7309" lon="6.78419">
        <ele>508.4</ele>
        <time>2026-08-23T14:02:22.000Z</time>
      </trkpt>
      <trkpt lat="47.73084" lon="6.78424">
        <ele>508.4</ele>
        <time>2026-08-23T14:02:24.000Z</time>
      </trkpt>
      <trkpt lat="47.73077" lon="6.78429">
        <ele>508.4</ele>
        <time>2026-08-23T14:02:26.000Z</time>
      </trkpt>
      <trkpt lat="47.7307" lon="6.78434">
        <ele>508.2</ele>
        <time>2026-08-23T14:02:28.000Z</time>
      </trkpt>
      <trkpt lat="47.73062" lon="6.78439">
        <ele>508</ele>
        <time>2026-08-23T14:02:30.000Z</time>
      </trkpt>
      <trkpt lat="47.73054" lon="6.78446">
        <ele>507.8</ele>
        <time>2026-08-23T14:02:32.000Z</time>
      </trkpt>
      <trkpt lat="47.73044" lon="6.78453">
        <ele>507.6</ele>
        <time>2026-08-23T14:02:34.000Z</time>
      </trkpt>
      <trkpt lat="47.73034" lon="6.78461">
        <ele>507.2</ele>
        <time>2026-08-23T14:02:36.000Z</time>
      </trkpt>
      <trkpt lat="47.73024" lon="6.78471">
        <ele>506.6</ele>
        <time>2026-08-23T14:02:38.000Z</time>
      </trkpt>
      <trkpt lat="47.73013" lon="6.7848">
        <ele>506</ele>
        <time>2026-08-23T14:02:40.000Z</time>
      </trkpt>
      <trkpt lat="47.73003" lon="6.7849">
        <ele>505.8</ele>
        <time>2026-08-23T14:02:42.000Z</time>
      </trkpt>
      <trkpt lat="47.72992" lon="6.785">
        <ele>505.4</ele>
        <time>2026-08-23T14:02:44.000Z</time>
      </trkpt>
      <trkpt lat="47.72981" lon="6.7851">
        <ele>504.6</ele>
        <time>2026-08-23T14:02:46.000Z</time>
      </trkpt>
      <trkpt lat="47.7297" lon="6.78521">
        <ele>503.8</ele>
        <time>2026-08-23T14:02:48.000Z</time>
      </trkpt>
      <trkpt lat="47.72959" lon="6.78531">
        <ele>503.2</ele>
        <time>2026-08-23T14:02:50.000Z</time>
      </trkpt>
      <trkpt lat="47.72948" lon="6.78541">
        <ele>502.8</ele>
        <time>2026-08-23T14:02:52.000Z</time>
      </trkpt>
      <trkpt lat="47.72937" lon="6.78551">
        <ele>502.6</ele>
        <time>2026-08-23T14:02:54.000Z</time>
      </trkpt>
      <trkpt lat="47.72926" lon="6.78562">
        <ele>502.2</ele>
        <time>2026-08-23T14:02:56.000Z</time>
      </trkpt>
      <trkpt lat="47.72916" lon="6.78576">
        <ele>501.8</ele>
        <time>2026-08-23T14:02:58.000Z</time>
      </trkpt>
      <trkpt lat="47.72905" lon="6.78592">
        <ele>501.4</ele>
        <time>2026-08-23T14:03:00.000Z</time>
      </trkpt>
      <trkpt lat="47.72895" lon="6.78609">
        <ele>500.8</ele>
        <time>2026-08-23T14:03:02.000Z</time>
      </trkpt>
      <trkpt lat="47.72885" lon="6.78627">
        <ele>500.2</ele>
        <time>2026-08-23T14:03:04.000Z</time>
      </trkpt>
      <trkpt lat="47.72874" lon="6.78646">
        <ele>499.4</ele>
        <time>2026-08-23T14:03:06.000Z</time>
      </trkpt>
      <trkpt lat="47.72863" lon="6.78665">
        <ele>498.6</ele>
        <time>2026-08-23T14:03:08.000Z</time>
      </trkpt>
      <trkpt lat="47.72851" lon="6.78685">
        <ele>497.8</ele>
        <time>2026-08-23T14:03:10.000Z</time>
      </trkpt>
      <trkpt lat="47.7284" lon="6.78706">
        <ele>496.8</ele>
        <time>2026-08-23T14:03:12.000Z</time>
      </trkpt>
      <trkpt lat="47.72829" lon="6.78729">
        <ele>496</ele>
        <time>2026-08-23T14:03:14.000Z</time>
      </trkpt>
      <trkpt lat="47.72821" lon="6.78753">
        <ele>495.2</ele>
        <time>2026-08-23T14:03:16.000Z</time>
      </trkpt>
      <trkpt lat="47.72815" lon="6.7878">
        <ele>494.4</ele>
        <time>2026-08-23T14:03:18.000Z</time>
      </trkpt>
      <trkpt lat="47.72811" lon="6.78807">
        <ele>494</ele>
        <time>2026-08-23T14:03:21.000Z</time>
      </trkpt>
      <trkpt lat="47.72807" lon="6.78834">
        <ele>493.6</ele>
        <time>2026-08-23T14:03:23.000Z</time>
      </trkpt>
      <trkpt lat="47.72803" lon="6.78859">
        <ele>492.8</ele>
        <time>2026-08-23T14:03:25.000Z</time>
      </trkpt>
      <trkpt lat="47.72799" lon="6.78884">
        <ele>492.6</ele>
        <time>2026-08-23T14:03:27.000Z</time>
      </trkpt>
      <trkpt lat="47.72795" lon="6.78908">
        <ele>492.6</ele>
        <time>2026-08-23T14:03:29.000Z</time>
      </trkpt>
      <trkpt lat="47.72791" lon="6.78932">
        <ele>492.2</ele>
        <time>2026-08-23T14:03:31.000Z</time>
      </trkpt>
      <trkpt lat="47.72786" lon="6.78957">
        <ele>492</ele>
        <time>2026-08-23T14:03:33.000Z</time>
      </trkpt>
      <trkpt lat="47.72782" lon="6.78981">
        <ele>491.6</ele>
        <time>2026-08-23T14:03:35.000Z</time>
      </trkpt>
      <trkpt lat="47.72776" lon="6.79005">
        <ele>490.8</ele>
        <time>2026-08-23T14:03:37.000Z</time>
      </trkpt>
      <trkpt lat="47.72769" lon="6.79029">
        <ele>490.2</ele>
        <time>2026-08-23T14:03:39.000Z</time>
      </trkpt>
      <trkpt lat="47.72762" lon="6.79053">
        <ele>489.6</ele>
        <time>2026-08-23T14:03:41.000Z</time>
      </trkpt>
      <trkpt lat="47.72754" lon="6.79075">
        <ele>488.6</ele>
        <time>2026-08-23T14:03:43.000Z</time>
      </trkpt>
      <trkpt lat="47.72747" lon="6.79097">
        <ele>488</ele>
        <time>2026-08-23T14:03:45.000Z</time>
      </trkpt>
      <trkpt lat="47.72739" lon="6.79118">
        <ele>488</ele>
        <time>2026-08-23T14:03:47.000Z</time>
      </trkpt>
      <trkpt lat="47.72732" lon="6.79139">
        <ele>487.8</ele>
        <time>2026-08-23T14:03:49.000Z</time>
      </trkpt>
      <trkpt lat="47.72725" lon="6.79161">
        <ele>487.6</ele>
        <time>2026-08-23T14:03:51.000Z</time>
      </trkpt>
      <trkpt lat="47.72717" lon="6.79184">
        <ele>486.8</ele>
        <time>2026-08-23T14:03:53.000Z</time>
      </trkpt>
      <trkpt lat="47.7271" lon="6.79206">
        <ele>485.8</ele>
        <time>2026-08-23T14:03:55.000Z</time>
      </trkpt>
      <trkpt lat="47.72702" lon="6.79229">
        <ele>485</ele>
        <time>2026-08-23T14:03:57.000Z</time>
      </trkpt>
      <trkpt lat="47.72695" lon="6.79251">
        <ele>484.4</ele>
        <time>2026-08-23T14:03:59.000Z</time>
      </trkpt>
      <trkpt lat="47.72686" lon="6.79277">
        <ele>484</ele>
        <time>2026-08-23T14:04:01.000Z</time>
      </trkpt>
      <trkpt lat="47.72677" lon="6.79303">
        <ele>484</ele>
        <time>2026-08-23T14:04:03.000Z</time>
      </trkpt>
      <trkpt lat="47.7267" lon="6.79325">
        <ele>483.6</ele>
        <time>2026-08-23T14:04:05.000Z</time>
      </trkpt>
      <trkpt lat="47.72663" lon="6.79345">
        <ele>483</ele>
        <time>2026-08-23T14:04:07.000Z</time>
      </trkpt>
      <trkpt lat="47.72657" lon="6.79364">
        <ele>483.2</ele>
        <time>2026-08-23T14:04:09.000Z</time>
      </trkpt>
      <trkpt lat="47.72651" lon="6.79385">
        <ele>483.2</ele>
        <time>2026-08-23T14:04:11.000Z</time>
      </trkpt>
      <trkpt lat="47.72645" lon="6.79406">
        <ele>482.8</ele>
        <time>2026-08-23T14:04:13.000Z</time>
      </trkpt>
      <trkpt lat="47.72638" lon="6.79429">
        <ele>482.4</ele>
        <time>2026-08-23T14:04:15.000Z</time>
      </trkpt>
      <trkpt lat="47.72631" lon="6.79451">
        <ele>482</ele>
        <time>2026-08-23T14:04:17.000Z</time>
      </trkpt>
      <trkpt lat="47.72625" lon="6.79474">
        <ele>481.6</ele>
        <time>2026-08-23T14:04:19.000Z</time>
      </trkpt>
      <trkpt lat="47.72618" lon="6.79498">
        <ele>481</ele>
        <time>2026-08-23T14:04:21.000Z</time>
      </trkpt>
      <trkpt lat="47.72611" lon="6.79521">
        <ele>480.2</ele>
        <time>2026-08-23T14:04:23.000Z</time>
      </trkpt>
      <trkpt lat="47.72604" lon="6.79544">
        <ele>479.6</ele>
        <time>2026-08-23T14:04:25.000Z</time>
      </trkpt>
      <trkpt lat="47.72597" lon="6.79568">
        <ele>479.2</ele>
        <time>2026-08-23T14:04:27.000Z</time>
      </trkpt>
      <trkpt lat="47.7259" lon="6.79591">
        <ele>478.8</ele>
        <time>2026-08-23T14:04:29.000Z</time>
      </trkpt>
      <trkpt lat="47.72583" lon="6.79616">
        <ele>478.6</ele>
        <time>2026-08-23T14:04:31.000Z</time>
      </trkpt>
      <trkpt lat="47.72576" lon="6.7964">
        <ele>478</ele>
        <time>2026-08-23T14:04:33.000Z</time>
      </trkpt>
      <trkpt lat="47.72569" lon="6.79665">
        <ele>477.4</ele>
        <time>2026-08-23T14:04:35.000Z</time>
      </trkpt>
      <trkpt lat="47.72563" lon="6.79689">
        <ele>477</ele>
        <time>2026-08-23T14:04:37.000Z</time>
      </trkpt>
      <trkpt lat="47.72556" lon="6.79714">
        <ele>476.4</ele>
        <time>2026-08-23T14:04:39.000Z</time>
      </trkpt>
      <trkpt lat="47.72549" lon="6.79739">
        <ele>476</ele>
        <time>2026-08-23T14:04:41.000Z</time>
      </trkpt>
      <trkpt lat="47.72542" lon="6.79764">
        <ele>475.6</ele>
        <time>2026-08-23T14:04:43.000Z</time>
      </trkpt>
      <trkpt lat="47.72535" lon="6.7979">
        <ele>475.2</ele>
        <time>2026-08-23T14:04:45.000Z</time>
      </trkpt>
      <trkpt lat="47.72528" lon="6.79815">
        <ele>474.6</ele>
        <time>2026-08-23T14:04:47.000Z</time>
      </trkpt>
      <trkpt lat="47.72521" lon="6.79841">
        <ele>473.8</ele>
        <time>2026-08-23T14:04:49.000Z</time>
      </trkpt>
      <trkpt lat="47.72513" lon="6.79866">
        <ele>473.4</ele>
        <time>2026-08-23T14:04:51.000Z</time>
      </trkpt>
      <trkpt lat="47.72505" lon="6.79891">
        <ele>472.8</ele>
        <time>2026-08-23T14:04:53.000Z</time>
      </trkpt>
      <trkpt lat="47.72497" lon="6.79916">
        <ele>472.2</ele>
        <time>2026-08-23T14:04:55.000Z</time>
      </trkpt>
      <trkpt lat="47.72489" lon="6.7994">
        <ele>471.8</ele>
        <time>2026-08-23T14:04:57.000Z</time>
      </trkpt>
      <trkpt lat="47.72481" lon="6.79964">
        <ele>471.4</ele>
        <time>2026-08-23T14:04:59.000Z</time>
      </trkpt>
      <trkpt lat="47.72472" lon="6.79987">
        <ele>471</ele>
        <time>2026-08-23T14:05:01.000Z</time>
      </trkpt>
      <trkpt lat="47.72463" lon="6.80011">
        <ele>470.6</ele>
        <time>2026-08-23T14:05:03.000Z</time>
      </trkpt>
      <trkpt lat="47.72454" lon="6.80033">
        <ele>470</ele>
        <time>2026-08-23T14:05:05.000Z</time>
      </trkpt>
      <trkpt lat="47.72444" lon="6.80056">
        <ele>469.2</ele>
        <time>2026-08-23T14:05:07.000Z</time>
      </trkpt>
      <trkpt lat="47.72435" lon="6.80077">
        <ele>468.6</ele>
        <time>2026-08-23T14:05:09.000Z</time>
      </trkpt>
      <trkpt lat="47.72425" lon="6.80099">
        <ele>467.8</ele>
        <time>2026-08-23T14:05:12.000Z</time>
      </trkpt>
      <trkpt lat="47.72415" lon="6.8012">
        <ele>467.2</ele>
        <time>2026-08-23T14:05:14.000Z</time>
      </trkpt>
      <trkpt lat="47.72405" lon="6.80141">
        <ele>466.8</ele>
        <time>2026-08-23T14:05:16.000Z</time>
      </trkpt>
      <trkpt lat="47.72394" lon="6.80162">
        <ele>466.2</ele>
        <time>2026-08-23T14:05:18.000Z</time>
      </trkpt>
      <trkpt lat="47.72384" lon="6.80184">
        <ele>465.6</ele>
        <time>2026-08-23T14:05:20.000Z</time>
      </trkpt>
      <trkpt lat="47.72374" lon="6.80205">
        <ele>464.8</ele>
        <time>2026-08-23T14:05:22.000Z</time>
      </trkpt>
      <trkpt lat="47.72363" lon="6.80227">
        <ele>464.6</ele>
        <time>2026-08-23T14:05:24.000Z</time>
      </trkpt>
      <trkpt lat="47.72353" lon="6.80248">
        <ele>464.2</ele>
        <time>2026-08-23T14:05:26.000Z</time>
      </trkpt>
      <trkpt lat="47.72343" lon="6.80269">
        <ele>463.6</ele>
        <time>2026-08-23T14:05:28.000Z</time>
      </trkpt>
      <trkpt lat="47.72333" lon="6.8029">
        <ele>463</ele>
        <time>2026-08-23T14:05:30.000Z</time>
      </trkpt>
      <trkpt lat="47.72322" lon="6.8031">
        <ele>462.4</ele>
        <time>2026-08-23T14:05:32.000Z</time>
      </trkpt>
      <trkpt lat="47.72311" lon="6.80329">
        <ele>462.6</ele>
        <time>2026-08-23T14:05:34.000Z</time>
      </trkpt>
      <trkpt lat="47.72299" lon="6.80348">
        <ele>461.8</ele>
        <time>2026-08-23T14:05:36.000Z</time>
      </trkpt>
      <trkpt lat="47.72287" lon="6.80366">
        <ele>460.8</ele>
        <time>2026-08-23T14:05:38.000Z</time>
      </trkpt>
      <trkpt lat="47.72275" lon="6.80383">
        <ele>460.2</ele>
        <time>2026-08-23T14:05:40.000Z</time>
      </trkpt>
      <trkpt lat="47.72264" lon="6.80399">
        <ele>460.2</ele>
        <time>2026-08-23T14:05:42.000Z</time>
      </trkpt>
      <trkpt lat="47.72248" lon="6.80423">
        <ele>460.4</ele>
        <time>2026-08-23T14:05:44.000Z</time>
      </trkpt>
      <trkpt lat="47.72235" lon="6.80441">
        <ele>460.6</ele>
        <time>2026-08-23T14:05:46.000Z</time>
      </trkpt>
      <trkpt lat="47.72223" lon="6.80458">
        <ele>460.6</ele>
        <time>2026-08-23T14:05:48.000Z</time>
      </trkpt>
      <trkpt lat="47.72212" lon="6.80473">
        <ele>460.2</ele>
        <time>2026-08-23T14:05:50.000Z</time>
      </trkpt>
      <trkpt lat="47.72199" lon="6.80488">
        <ele>460</ele>
        <time>2026-08-23T14:05:52.000Z</time>
      </trkpt>
      <trkpt lat="47.72187" lon="6.80502">
        <ele>459.6</ele>
        <time>2026-08-23T14:05:54.000Z</time>
      </trkpt>
      <trkpt lat="47.72174" lon="6.80517">
        <ele>459.4</ele>
        <time>2026-08-23T14:05:56.000Z</time>
      </trkpt>
      <trkpt lat="47.72161" lon="6.80531">
        <ele>459.2</ele>
        <time>2026-08-23T14:05:58.000Z</time>
      </trkpt>
      <trkpt lat="47.72148" lon="6.80545">
        <ele>459</ele>
        <time>2026-08-23T14:06:00.000Z</time>
      </trkpt>
      <trkpt lat="47.72135" lon="6.8056">
        <ele>458</ele>
        <time>2026-08-23T14:06:02.000Z</time>
      </trkpt>
      <trkpt lat="47.72122" lon="6.80574">
        <ele>457.8</ele>
        <time>2026-08-23T14:06:04.000Z</time>
      </trkpt>
      <trkpt lat="47.72109" lon="6.80588">
        <ele>457.6</ele>
        <time>2026-08-23T14:06:06.000Z</time>
      </trkpt>
      <trkpt lat="47.72096" lon="6.80603">
        <ele>457.4</ele>
        <time>2026-08-23T14:06:08.000Z</time>
      </trkpt>
      <trkpt lat="47.72083" lon="6.80618">
        <ele>457</ele>
        <time>2026-08-23T14:06:10.000Z</time>
      </trkpt>
      <trkpt lat="47.72069" lon="6.80633">
        <ele>456.4</ele>
        <time>2026-08-23T14:06:12.000Z</time>
      </trkpt>
      <trkpt lat="47.72056" lon="6.80648">
        <ele>456</ele>
        <time>2026-08-23T14:06:14.000Z</time>
      </trkpt>
      <trkpt lat="47.72042" lon="6.80663">
        <ele>455.4</ele>
        <time>2026-08-23T14:06:16.000Z</time>
      </trkpt>
      <trkpt lat="47.72028" lon="6.80679">
        <ele>455.2</ele>
        <time>2026-08-23T14:06:18.000Z</time>
      </trkpt>
      <trkpt lat="47.72015" lon="6.80694">
        <ele>454.8</ele>
        <time>2026-08-23T14:06:20.000Z</time>
      </trkpt>
      <trkpt lat="47.72001" lon="6.80709">
        <ele>454.2</ele>
        <time>2026-08-23T14:06:22.000Z</time>
      </trkpt>
      <trkpt lat="47.71988" lon="6.80724">
        <ele>453.6</ele>
        <time>2026-08-23T14:06:24.000Z</time>
      </trkpt>
      <trkpt lat="47.71974" lon="6.80738">
        <ele>453.6</ele>
        <time>2026-08-23T14:06:26.000Z</time>
      </trkpt>
      <trkpt lat="47.71961" lon="6.80753">
        <ele>453.6</ele>
        <time>2026-08-23T14:06:28.000Z</time>
      </trkpt>
      <trkpt lat="47.71947" lon="6.80768">
        <ele>453.2</ele>
        <time>2026-08-23T14:06:30.000Z</time>
      </trkpt>
      <trkpt lat="47.71933" lon="6.80784">
        <ele>452.8</ele>
        <time>2026-08-23T14:06:32.000Z</time>
      </trkpt>
      <trkpt lat="47.7192" lon="6.80799">
        <ele>452.2</ele>
        <time>2026-08-23T14:06:34.000Z</time>
      </trkpt>
      <trkpt lat="47.71906" lon="6.80814">
        <ele>451.6</ele>
        <time>2026-08-23T14:06:36.000Z</time>
      </trkpt>
      <trkpt lat="47.71892" lon="6.8083">
        <ele>451.6</ele>
        <time>2026-08-23T14:06:38.000Z</time>
      </trkpt>
      <trkpt lat="47.71878" lon="6.80845">
        <ele>451.4</ele>
        <time>2026-08-23T14:06:40.000Z</time>
      </trkpt>
      <trkpt lat="47.71865" lon="6.8086">
        <ele>451</ele>
        <time>2026-08-23T14:06:42.000Z</time>
      </trkpt>
      <trkpt lat="47.71851" lon="6.80876">
        <ele>450.8</ele>
        <time>2026-08-23T14:06:44.000Z</time>
      </trkpt>
      <trkpt lat="47.71836" lon="6.80891">
        <ele>450</ele>
        <time>2026-08-23T14:06:46.000Z</time>
      </trkpt>
      <trkpt lat="47.71822" lon="6.80907">
        <ele>449.4</ele>
        <time>2026-08-23T14:06:48.000Z</time>
      </trkpt>
      <trkpt lat="47.71809" lon="6.80922">
        <ele>448.8</ele>
        <time>2026-08-23T14:06:50.000Z</time>
      </trkpt>
      <trkpt lat="47.71795" lon="6.80938">
        <ele>448</ele>
        <time>2026-08-23T14:06:52.000Z</time>
      </trkpt>
      <trkpt lat="47.71781" lon="6.80953">
        <ele>447.4</ele>
        <time>2026-08-23T14:06:54.000Z</time>
      </trkpt>
      <trkpt lat="47.71767" lon="6.80969">
        <ele>446.4</ele>
        <time>2026-08-23T14:06:56.000Z</time>
      </trkpt>
      <trkpt lat="47.71753" lon="6.80985">
        <ele>445.8</ele>
        <time>2026-08-23T14:06:58.000Z</time>
      </trkpt>
      <trkpt lat="47.71739" lon="6.81">
        <ele>445.2</ele>
        <time>2026-08-23T14:07:01.000Z</time>
      </trkpt>
      <trkpt lat="47.71725" lon="6.81016">
        <ele>444.8</ele>
        <time>2026-08-23T14:07:03.000Z</time>
      </trkpt>
      <trkpt lat="47.7171" lon="6.81032">
        <ele>444</ele>
        <time>2026-08-23T14:07:05.000Z</time>
      </trkpt>
      <trkpt lat="47.71694" lon="6.81049">
        <ele>443.4</ele>
        <time>2026-08-23T14:07:07.000Z</time>
      </trkpt>
      <trkpt lat="47.71678" lon="6.81067">
        <ele>442.6</ele>
        <time>2026-08-23T14:07:09.000Z</time>
      </trkpt>
      <trkpt lat="47.71661" lon="6.81084">
        <ele>441.2</ele>
        <time>2026-08-23T14:07:11.000Z</time>
      </trkpt>
      <trkpt lat="47.71643" lon="6.811">
        <ele>439.4</ele>
        <time>2026-08-23T14:07:13.000Z</time>
      </trkpt>
      <trkpt lat="47.71624" lon="6.81114">
        <ele>437.8</ele>
        <time>2026-08-23T14:07:15.000Z</time>
      </trkpt>
      <trkpt lat="47.71603" lon="6.81126">
        <ele>436.8</ele>
        <time>2026-08-23T14:07:17.000Z</time>
      </trkpt>
      <trkpt lat="47.71583" lon="6.81139">
        <ele>436</ele>
        <time>2026-08-23T14:07:19.000Z</time>
      </trkpt>
      <trkpt lat="47.71564" lon="6.81156">
        <ele>434.6</ele>
        <time>2026-08-23T14:07:21.000Z</time>
      </trkpt>
      <trkpt lat="47.71548" lon="6.81177">
        <ele>433.6</ele>
        <time>2026-08-23T14:07:23.000Z</time>
      </trkpt>
      <trkpt lat="47.71534" lon="6.81201">
        <ele>433.2</ele>
        <time>2026-08-23T14:07:25.000Z</time>
      </trkpt>
      <trkpt lat="47.71522" lon="6.81225">
        <ele>432.8</ele>
        <time>2026-08-23T14:07:27.000Z</time>
      </trkpt>
      <trkpt lat="47.71512" lon="6.81251">
        <ele>432.8</ele>
        <time>2026-08-23T14:07:29.000Z</time>
      </trkpt>
      <trkpt lat="47.71505" lon="6.81276">
        <ele>432.8</ele>
        <time>2026-08-23T14:07:31.000Z</time>
      </trkpt>
      <trkpt lat="47.715" lon="6.81302">
        <ele>432.6</ele>
        <time>2026-08-23T14:07:33.000Z</time>
      </trkpt>
      <trkpt lat="47.71496" lon="6.81328">
        <ele>432.6</ele>
        <time>2026-08-23T14:07:35.000Z</time>
      </trkpt>
      <trkpt lat="47.71493" lon="6.81353">
        <ele>433</ele>
        <time>2026-08-23T14:07:37.000Z</time>
      </trkpt>
      <trkpt lat="47.7149" lon="6.81377">
        <ele>433.6</ele>
        <time>2026-08-23T14:07:39.000Z</time>
      </trkpt>
      <trkpt lat="47.71487" lon="6.81404">
        <ele>434.4</ele>
        <time>2026-08-23T14:07:41.000Z</time>
      </trkpt>
      <trkpt lat="47.71482" lon="6.81431">
        <ele>434.4</ele>
        <time>2026-08-23T14:07:43.000Z</time>
      </trkpt>
      <trkpt lat="47.71477" lon="6.81453">
        <ele>434.2</ele>
        <time>2026-08-23T14:07:45.000Z</time>
      </trkpt>
      <trkpt lat="47.71472" lon="6.81472">
        <ele>434.2</ele>
        <time>2026-08-23T14:07:47.000Z</time>
      </trkpt>
      <trkpt lat="47.71465" lon="6.81489">
        <ele>434</ele>
        <time>2026-08-23T14:07:49.000Z</time>
      </trkpt>
      <trkpt lat="47.71458" lon="6.81506">
        <ele>434</ele>
        <time>2026-08-23T14:07:51.000Z</time>
      </trkpt>
      <trkpt lat="47.7145" lon="6.81522">
        <ele>434.2</ele>
        <time>2026-08-23T14:07:53.000Z</time>
      </trkpt>
      <trkpt lat="47.71442" lon="6.81536">
        <ele>434.4</ele>
        <time>2026-08-23T14:07:55.000Z</time>
      </trkpt>
      <trkpt lat="47.71434" lon="6.8155">
        <ele>434.6</ele>
        <time>2026-08-23T14:07:57.000Z</time>
      </trkpt>
      <trkpt lat="47.71425" lon="6.81562">
        <ele>434.8</ele>
        <time>2026-08-23T14:07:59.000Z</time>
      </trkpt>
      <trkpt lat="47.71417" lon="6.81575">
        <ele>434.8</ele>
        <time>2026-08-23T14:08:01.000Z</time>
      </trkpt>
      <trkpt lat="47.71409" lon="6.81587">
        <ele>435</ele>
        <time>2026-08-23T14:08:03.000Z</time>
      </trkpt>
      <trkpt lat="47.71401" lon="6.81598">
        <ele>435.4</ele>
        <time>2026-08-23T14:08:05.000Z</time>
      </trkpt>
      <trkpt lat="47.71393" lon="6.8161">
        <ele>435.8</ele>
        <time>2026-08-23T14:08:07.000Z</time>
      </trkpt>
      <trkpt lat="47.71386" lon="6.81621">
        <ele>436.2</ele>
        <time>2026-08-23T14:08:09.000Z</time>
      </trkpt>
      <trkpt lat="47.71379" lon="6.81631">
        <ele>436.6</ele>
        <time>2026-08-23T14:08:11.000Z</time>
      </trkpt>
      <trkpt lat="47.71372" lon="6.81641">
        <ele>436.8</ele>
        <time>2026-08-23T14:08:13.000Z</time>
      </trkpt>
      <trkpt lat="47.71366" lon="6.81649">
        <ele>437.2</ele>
        <time>2026-08-23T14:08:15.000Z</time>
      </trkpt>
      <trkpt lat="47.71359" lon="6.81658">
        <ele>437.4</ele>
        <time>2026-08-23T14:08:17.000Z</time>
      </trkpt>
      <trkpt lat="47.71352" lon="6.81667">
        <ele>437.8</ele>
        <time>2026-08-23T14:08:19.000Z</time>
      </trkpt>
      <trkpt lat="47.71345" lon="6.81676">
        <ele>438.2</ele>
        <time>2026-08-23T14:08:21.000Z</time>
      </trkpt>
      <trkpt lat="47.71337" lon="6.81684">
        <ele>438.4</ele>
        <time>2026-08-23T14:08:23.000Z</time>
      </trkpt>
      <trkpt lat="47.7133" lon="6.8169">
        <ele>438.6</ele>
        <time>2026-08-23T14:08:25.000Z</time>
      </trkpt>
      <trkpt lat="47.71321" lon="6.81696">
        <ele>439</ele>
        <time>2026-08-23T14:08:27.000Z</time>
      </trkpt>
      <trkpt lat="47.71313" lon="6.81702">
        <ele>439.2</ele>
        <time>2026-08-23T14:08:29.000Z</time>
      </trkpt>
      <trkpt lat="47.71304" lon="6.81708">
        <ele>439.4</ele>
        <time>2026-08-23T14:08:32.000Z</time>
      </trkpt>
      <trkpt lat="47.71295" lon="6.81714">
        <ele>439.4</ele>
        <time>2026-08-23T14:08:34.000Z</time>
      </trkpt>
      <trkpt lat="47.71286" lon="6.8172">
        <ele>439.6</ele>
        <time>2026-08-23T14:08:36.000Z</time>
      </trkpt>
      <trkpt lat="47.71277" lon="6.81726">
        <ele>439.6</ele>
        <time>2026-08-23T14:08:38.000Z</time>
      </trkpt>
      <trkpt lat="47.71268" lon="6.81733">
        <ele>439.8</ele>
        <time>2026-08-23T14:08:40.000Z</time>
      </trkpt>
      <trkpt lat="47.71259" lon="6.81739">
        <ele>439.8</ele>
        <time>2026-08-23T14:08:42.000Z</time>
      </trkpt>
      <trkpt lat="47.71249" lon="6.81746">
        <ele>439.8</ele>
        <time>2026-08-23T14:08:44.000Z</time>
      </trkpt>
      <trkpt lat="47.7124" lon="6.81753">
        <ele>439.6</ele>
        <time>2026-08-23T14:08:46.000Z</time>
      </trkpt>
      <trkpt lat="47.7123" lon="6.8176">
        <ele>439.4</ele>
        <time>2026-08-23T14:08:48.000Z</time>
      </trkpt>
      <trkpt lat="47.71219" lon="6.81768">
        <ele>439.2</ele>
        <time>2026-08-23T14:08:50.000Z</time>
      </trkpt>
      <trkpt lat="47.71208" lon="6.81775">
        <ele>438.8</ele>
        <time>2026-08-23T14:08:52.000Z</time>
      </trkpt>
      <trkpt lat="47.71197" lon="6.81783">
        <ele>438.6</ele>
        <time>2026-08-23T14:08:54.000Z</time>
      </trkpt>
      <trkpt lat="47.71186" lon="6.81791">
        <ele>438.4</ele>
        <time>2026-08-23T14:08:56.000Z</time>
      </trkpt>
      <trkpt lat="47.71175" lon="6.81799">
        <ele>438.4</ele>
        <time>2026-08-23T14:08:58.000Z</time>
      </trkpt>
      <trkpt lat="47.71163" lon="6.81808">
        <ele>438</ele>
        <time>2026-08-23T14:09:00.000Z</time>
      </trkpt>
      <trkpt lat="47.71152" lon="6.81816">
        <ele>437.6</ele>
        <time>2026-08-23T14:09:02.000Z</time>
      </trkpt>
      <trkpt lat="47.71141" lon="6.81824">
        <ele>437.4</ele>
        <time>2026-08-23T14:09:04.000Z</time>
      </trkpt>
      <trkpt lat="47.71131" lon="6.81833">
        <ele>437</ele>
        <time>2026-08-23T14:09:06.000Z</time>
      </trkpt>
      <trkpt lat="47.7112" lon="6.81842">
        <ele>436.6</ele>
        <time>2026-08-23T14:09:08.000Z</time>
      </trkpt>
      <trkpt lat="47.71109" lon="6.81851">
        <ele>436</ele>
        <time>2026-08-23T14:09:10.000Z</time>
      </trkpt>
      <trkpt lat="47.71098" lon="6.8186">
        <ele>435.8</ele>
        <time>2026-08-23T14:09:12.000Z</time>
      </trkpt>
      <trkpt lat="47.71084" lon="6.81873">
        <ele>435.2</ele>
        <time>2026-08-23T14:09:14.000Z</time>
      </trkpt>
      <trkpt lat="47.71073" lon="6.81883">
        <ele>434.2</ele>
        <time>2026-08-23T14:09:16.000Z</time>
      </trkpt>
      <trkpt lat="47.7106" lon="6.81898">
        <ele>433</ele>
        <time>2026-08-23T14:09:18.000Z</time>
      </trkpt>
      <trkpt lat="47.71046" lon="6.81917">
        <ele>431.8</ele>
        <time>2026-08-23T14:09:20.000Z</time>
      </trkpt>
      <trkpt lat="47.71035" lon="6.81934">
        <ele>431</ele>
        <time>2026-08-23T14:09:22.000Z</time>
      </trkpt>
      <trkpt lat="47.71026" lon="6.81949">
        <ele>430.8</ele>
        <time>2026-08-23T14:09:24.000Z</time>
      </trkpt>
      <trkpt lat="47.71018" lon="6.81963">
        <ele>430.6</ele>
        <time>2026-08-23T14:09:26.000Z</time>
      </trkpt>
      <trkpt lat="47.71009" lon="6.81977">
        <ele>430.8</ele>
        <time>2026-08-23T14:09:28.000Z</time>
      </trkpt>
      <trkpt lat="47.71001" lon="6.81989">
        <ele>431</ele>
        <time>2026-08-23T14:09:30.000Z</time>
      </trkpt>
      <trkpt lat="47.70993" lon="6.82002">
        <ele>431.2</ele>
        <time>2026-08-23T14:09:32.000Z</time>
      </trkpt>
      <trkpt lat="47.70984" lon="6.82014">
        <ele>431.2</ele>
        <time>2026-08-23T14:09:34.000Z</time>
      </trkpt>
      <trkpt lat="47.70974" lon="6.82025">
        <ele>431.4</ele>
        <time>2026-08-23T14:09:36.000Z</time>
      </trkpt>
      <trkpt lat="47.70964" lon="6.82034">
        <ele>431.2</ele>
        <time>2026-08-23T14:09:38.000Z</time>
      </trkpt>
      <trkpt lat="47.70954" lon="6.82043">
        <ele>431.4</ele>
        <time>2026-08-23T14:09:40.000Z</time>
      </trkpt>
      <trkpt lat="47.70943" lon="6.8205">
        <ele>431.2</ele>
        <time>2026-08-23T14:09:42.000Z</time>
      </trkpt>
      <trkpt lat="47.70932" lon="6.82057">
        <ele>431.4</ele>
        <time>2026-08-23T14:09:44.000Z</time>
      </trkpt>
      <trkpt lat="47.70921" lon="6.82062">
        <ele>431.4</ele>
        <time>2026-08-23T14:09:46.000Z</time>
      </trkpt>
      <trkpt lat="47.7091" lon="6.82068">
        <ele>431.2</ele>
        <time>2026-08-23T14:09:48.000Z</time>
      </trkpt>
      <trkpt lat="47.70898" lon="6.82073">
        <ele>431.4</ele>
        <time>2026-08-23T14:09:50.000Z</time>
      </trkpt>
      <trkpt lat="47.70887" lon="6.82078">
        <ele>431.4</ele>
        <time>2026-08-23T14:09:52.000Z</time>
      </trkpt>
      <trkpt lat="47.70876" lon="6.82085">
        <ele>431.2</ele>
        <time>2026-08-23T14:09:54.000Z</time>
      </trkpt>
      <trkpt lat="47.70864" lon="6.82091">
        <ele>431.2</ele>
        <time>2026-08-23T14:09:56.000Z</time>
      </trkpt>
      <trkpt lat="47.70853" lon="6.82097">
        <ele>431.4</ele>
        <time>2026-08-23T14:09:58.000Z</time>
      </trkpt>
      <trkpt lat="47.70842" lon="6.82103">
        <ele>431.4</ele>
        <time>2026-08-23T14:10:00.000Z</time>
      </trkpt>
      <trkpt lat="47.7083" lon="6.82109">
        <ele>431.4</ele>
        <time>2026-08-23T14:10:02.000Z</time>
      </trkpt>
      <trkpt lat="47.70819" lon="6.82115">
        <ele>431.4</ele>
        <time>2026-08-23T14:10:04.000Z</time>
      </trkpt>
      <trkpt lat="47.70807" lon="6.82121">
        <ele>431.4</ele>
        <time>2026-08-23T14:10:06.000Z</time>
      </trkpt>
      <trkpt lat="47.70795" lon="6.82127">
        <ele>431.2</ele>
        <time>2026-08-23T14:10:08.000Z</time>
      </trkpt>
      <trkpt lat="47.70784" lon="6.82132">
        <ele>431</ele>
        <time>2026-08-23T14:10:10.000Z</time>
      </trkpt>
      <trkpt lat="47.70772" lon="6.82138">
        <ele>431</ele>
        <time>2026-08-23T14:10:12.000Z</time>
      </trkpt>
      <trkpt lat="47.70761" lon="6.82144">
        <ele>431</ele>
        <time>2026-08-23T14:10:14.000Z</time>
      </trkpt>
      <trkpt lat="47.70749" lon="6.8215">
        <ele>430.8</ele>
        <time>2026-08-23T14:10:16.000Z</time>
      </trkpt>
      <trkpt lat="47.70737" lon="6.82156">
        <ele>430.4</ele>
        <time>2026-08-23T14:10:18.000Z</time>
      </trkpt>
      <trkpt lat="47.70725" lon="6.82161">
        <ele>430.2</ele>
        <time>2026-08-23T14:10:20.000Z</time>
      </trkpt>
      <trkpt lat="47.70713" lon="6.82167">
        <ele>430</ele>
        <time>2026-08-23T14:10:22.000Z</time>
      </trkpt>
      <trkpt lat="47.70701" lon="6.82173">
        <ele>430</ele>
        <time>2026-08-23T14:10:24.000Z</time>
      </trkpt>
      <trkpt lat="47.7069" lon="6.82178">
        <ele>430</ele>
        <time>2026-08-23T14:10:26.000Z</time>
      </trkpt>
      <trkpt lat="47.70678" lon="6.82184">
        <ele>430</ele>
        <time>2026-08-23T14:10:28.000Z</time>
      </trkpt>
      <trkpt lat="47.70667" lon="6.8219">
        <ele>429.8</ele>
        <time>2026-08-23T14:10:30.000Z</time>
      </trkpt>
      <trkpt lat="47.70655" lon="6.82196">
        <ele>429.6</ele>
        <time>2026-08-23T14:10:32.000Z</time>
      </trkpt>
      <trkpt lat="47.70644" lon="6.82201">
        <ele>429.6</ele>
        <time>2026-08-23T14:10:34.000Z</time>
      </trkpt>
      <trkpt lat="47.70632" lon="6.82207">
        <ele>429.4</ele>
        <time>2026-08-23T14:10:36.000Z</time>
      </trkpt>
      <trkpt lat="47.7062" lon="6.82212">
        <ele>429.4</ele>
        <time>2026-08-23T14:10:39.000Z</time>
      </trkpt>
      <trkpt lat="47.70608" lon="6.82217">
        <ele>429.2</ele>
        <time>2026-08-23T14:10:41.000Z</time>
      </trkpt>
      <trkpt lat="47.70595" lon="6.8222">
        <ele>429.2</ele>
        <time>2026-08-23T14:10:43.000Z</time>
      </trkpt>
      <trkpt lat="47.70582" lon="6.82222">
        <ele>429.2</ele>
        <time>2026-08-23T14:10:45.000Z</time>
      </trkpt>
      <trkpt lat="47.70569" lon="6.82222">
        <ele>429</ele>
        <time>2026-08-23T14:10:47.000Z</time>
      </trkpt>
      <trkpt lat="47.70556" lon="6.8222">
        <ele>429</ele>
        <time>2026-08-23T14:10:49.000Z</time>
      </trkpt>
      <trkpt lat="47.70542" lon="6.82219">
        <ele>428.6</ele>
        <time>2026-08-23T14:10:51.000Z</time>
      </trkpt>
      <trkpt lat="47.70529" lon="6.82218">
        <ele>428.4</ele>
        <time>2026-08-23T14:10:53.000Z</time>
      </trkpt>
      <trkpt lat="47.70516" lon="6.82221">
        <ele>428.4</ele>
        <time>2026-08-23T14:10:55.000Z</time>
      </trkpt>
      <trkpt lat="47.70504" lon="6.82227">
        <ele>428.2</ele>
        <time>2026-08-23T14:10:57.000Z</time>
      </trkpt>
      <trkpt lat="47.70492" lon="6.82236">
        <ele>428</ele>
        <time>2026-08-23T14:10:59.000Z</time>
      </trkpt>
      <trkpt lat="47.7048" lon="6.82246">
        <ele>427.8</ele>
        <time>2026-08-23T14:11:01.000Z</time>
      </trkpt>
      <trkpt lat="47.70469" lon="6.82256">
        <ele>427.8</ele>
        <time>2026-08-23T14:11:03.000Z</time>
      </trkpt>
      <trkpt lat="47.70458" lon="6.82266">
        <ele>427.6</ele>
        <time>2026-08-23T14:11:05.000Z</time>
      </trkpt>
      <trkpt lat="47.70448" lon="6.82276">
        <ele>427.4</ele>
        <time>2026-08-23T14:11:07.000Z</time>
      </trkpt>
      <trkpt lat="47.70437" lon="6.82287">
        <ele>427.2</ele>
        <time>2026-08-23T14:11:09.000Z</time>
      </trkpt>
      <trkpt lat="47.70426" lon="6.82298">
        <ele>427.2</ele>
        <time>2026-08-23T14:11:11.000Z</time>
      </trkpt>
      <trkpt lat="47.70412" lon="6.82309">
        <ele>427.6</ele>
        <time>2026-08-23T14:11:13.000Z</time>
      </trkpt>
      <trkpt lat="47.70397" lon="6.8232">
        <ele>427.4</ele>
        <time>2026-08-23T14:11:15.000Z</time>
      </trkpt>
      <trkpt lat="47.70385" lon="6.8233">
        <ele>427.2</ele>
        <time>2026-08-23T14:11:17.000Z</time>
      </trkpt>
      <trkpt lat="47.70374" lon="6.82338">
        <ele>427</ele>
        <time>2026-08-23T14:11:19.000Z</time>
      </trkpt>
      <trkpt lat="47.70363" lon="6.82346">
        <ele>426.6</ele>
        <time>2026-08-23T14:11:21.000Z</time>
      </trkpt>
      <trkpt lat="47.70352" lon="6.82354">
        <ele>426.6</ele>
        <time>2026-08-23T14:11:23.000Z</time>
      </trkpt>
      <trkpt lat="47.70341" lon="6.82362">
        <ele>426.6</ele>
        <time>2026-08-23T14:11:25.000Z</time>
      </trkpt>
      <trkpt lat="47.7033" lon="6.8237">
        <ele>426.6</ele>
        <time>2026-08-23T14:11:27.000Z</time>
      </trkpt>
      <trkpt lat="47.70319" lon="6.82379">
        <ele>426.6</ele>
        <time>2026-08-23T14:11:29.000Z</time>
      </trkpt>
      <trkpt lat="47.70308" lon="6.82388">
        <ele>426.6</ele>
        <time>2026-08-23T14:11:31.000Z</time>
      </trkpt>
      <trkpt lat="47.70296" lon="6.82397">
        <ele>426.4</ele>
        <time>2026-08-23T14:11:33.000Z</time>
      </trkpt>
      <trkpt lat="47.70285" lon="6.82405">
        <ele>426.2</ele>
        <time>2026-08-23T14:11:35.000Z</time>
      </trkpt>
      <trkpt lat="47.70274" lon="6.82414">
        <ele>426.4</ele>
        <time>2026-08-23T14:11:37.000Z</time>
      </trkpt>
      <trkpt lat="47.70263" lon="6.82423">
        <ele>426.2</ele>
        <time>2026-08-23T14:11:39.000Z</time>
      </trkpt>
      <trkpt lat="47.70252" lon="6.82431">
        <ele>426</ele>
        <time>2026-08-23T14:11:41.000Z</time>
      </trkpt>
      <trkpt lat="47.70241" lon="6.8244">
        <ele>426</ele>
        <time>2026-08-23T14:11:43.000Z</time>
      </trkpt>
      <trkpt lat="47.70229" lon="6.82448">
        <ele>426</ele>
        <time>2026-08-23T14:11:45.000Z</time>
      </trkpt>
      <trkpt lat="47.70218" lon="6.82457">
        <ele>425.8</ele>
        <time>2026-08-23T14:11:47.000Z</time>
      </trkpt>
      <trkpt lat="47.70207" lon="6.82465">
        <ele>425.8</ele>
        <time>2026-08-23T14:11:49.000Z</time>
      </trkpt>
      <trkpt lat="47.70196" lon="6.82474">
        <ele>425.6</ele>
        <time>2026-08-23T14:11:51.000Z</time>
      </trkpt>
      <trkpt lat="47.70185" lon="6.82482">
        <ele>425.6</ele>
        <time>2026-08-23T14:11:53.000Z</time>
      </trkpt>
      <trkpt lat="47.70173" lon="6.82491">
        <ele>425.2</ele>
        <time>2026-08-23T14:11:55.000Z</time>
      </trkpt>
      <trkpt lat="47.70162" lon="6.82501">
        <ele>425</ele>
        <time>2026-08-23T14:11:57.000Z</time>
      </trkpt>
      <trkpt lat="47.70151" lon="6.8251">
        <ele>424.8</ele>
        <time>2026-08-23T14:11:59.000Z</time>
      </trkpt>
      <trkpt lat="47.7014" lon="6.82519">
        <ele>424.6</ele>
        <time>2026-08-23T14:12:01.000Z</time>
      </trkpt>
      <trkpt lat="47.7013" lon="6.82527">
        <ele>424.6</ele>
        <time>2026-08-23T14:12:03.000Z</time>
      </trkpt>
      <trkpt lat="47.70119" lon="6.82536">
        <ele>425</ele>
        <time>2026-08-23T14:12:05.000Z</time>
      </trkpt>
      <trkpt lat="47.70108" lon="6.82544">
        <ele>425</ele>
        <time>2026-08-23T14:12:07.000Z</time>
      </trkpt>
      <trkpt lat="47.70096" lon="6.82553">
        <ele>424.8</ele>
        <time>2026-08-23T14:12:10.000Z</time>
      </trkpt>
      <trkpt lat="47.70085" lon="6.82563">
        <ele>424</ele>
        <time>2026-08-23T14:12:12.000Z</time>
      </trkpt>
      <trkpt lat="47.70073" lon="6.82572">
        <ele>424</ele>
        <time>2026-08-23T14:12:14.000Z</time>
      </trkpt>
      <trkpt lat="47.70062" lon="6.82582">
        <ele>423.8</ele>
        <time>2026-08-23T14:12:16.000Z</time>
      </trkpt>
      <trkpt lat="47.7005" lon="6.82591">
        <ele>423.6</ele>
        <time>2026-08-23T14:12:18.000Z</time>
      </trkpt>
      <trkpt lat="47.70038" lon="6.826">
        <ele>423.4</ele>
        <time>2026-08-23T14:12:20.000Z</time>
      </trkpt>
      <trkpt lat="47.70027" lon="6.82609">
        <ele>423.2</ele>
        <time>2026-08-23T14:12:22.000Z</time>
      </trkpt>
      <trkpt lat="47.70015" lon="6.82618">
        <ele>423.2</ele>
        <time>2026-08-23T14:12:24.000Z</time>
      </trkpt>
      <trkpt lat="47.70004" lon="6.82627">
        <ele>423.2</ele>
        <time>2026-08-23T14:12:26.000Z</time>
      </trkpt>
      <trkpt lat="47.69992" lon="6.82636">
        <ele>423.2</ele>
        <time>2026-08-23T14:12:28.000Z</time>
      </trkpt>
      <trkpt lat="47.69981" lon="6.82645">
        <ele>423.2</ele>
        <time>2026-08-23T14:12:30.000Z</time>
      </trkpt>
      <trkpt lat="47.69971" lon="6.82653">
        <ele>423.4</ele>
        <time>2026-08-23T14:12:32.000Z</time>
      </trkpt>
      <trkpt lat="47.69961" lon="6.82661">
        <ele>423.8</ele>
        <time>2026-08-23T14:12:34.000Z</time>
      </trkpt>
      <trkpt lat="47.69952" lon="6.82668">
        <ele>424</ele>
        <time>2026-08-23T14:12:36.000Z</time>
      </trkpt>
      <trkpt lat="47.69943" lon="6.82675">
        <ele>424</ele>
        <time>2026-08-23T14:12:38.000Z</time>
      </trkpt>
      <trkpt lat="47.69935" lon="6.82681">
        <ele>424</ele>
        <time>2026-08-23T14:12:40.000Z</time>
      </trkpt>
      <trkpt lat="47.69927" lon="6.8269">
        <ele>424</ele>
        <time>2026-08-23T14:12:42.000Z</time>
      </trkpt>
      <trkpt lat="47.69918" lon="6.82697">
        <ele>423.6</ele>
        <time>2026-08-23T14:12:44.000Z</time>
      </trkpt>
      <trkpt lat="47.69908" lon="6.82703">
        <ele>423.6</ele>
        <time>2026-08-23T14:12:46.000Z</time>
      </trkpt>
      <trkpt lat="47.69898" lon="6.82711">
        <ele>423.2</ele>
        <time>2026-08-23T14:12:48.000Z</time>
      </trkpt>
      <trkpt lat="47.6989" lon="6.82721">
        <ele>422.8</ele>
        <time>2026-08-23T14:12:50.000Z</time>
      </trkpt>
      <trkpt lat="47.69881" lon="6.82732">
        <ele>422.2</ele>
        <time>2026-08-23T14:12:52.000Z</time>
      </trkpt>
      <trkpt lat="47.69872" lon="6.82742">
        <ele>421.8</ele>
        <time>2026-08-23T14:12:54.000Z</time>
      </trkpt>
      <trkpt lat="47.6986" lon="6.8275">
        <ele>421.4</ele>
        <time>2026-08-23T14:12:56.000Z</time>
      </trkpt>
      <trkpt lat="47.69851" lon="6.82756">
        <ele>421</ele>
        <time>2026-08-23T14:12:58.000Z</time>
      </trkpt>
      <trkpt lat="47.69841" lon="6.82767">
        <ele>420.6</ele>
        <time>2026-08-23T14:13:00.000Z</time>
      </trkpt>
      <trkpt lat="47.69832" lon="6.82779">
        <ele>420.6</ele>
        <time>2026-08-23T14:13:02.000Z</time>
      </trkpt>
      <trkpt lat="47.69822" lon="6.82793">
        <ele>420.4</ele>
        <time>2026-08-23T14:13:04.000Z</time>
      </trkpt>
      <trkpt lat="47.69813" lon="6.82804">
        <ele>420.4</ele>
        <time>2026-08-23T14:13:06.000Z</time>
      </trkpt>
      <trkpt lat="47.69804" lon="6.82815">
        <ele>420.4</ele>
        <time>2026-08-23T14:13:08.000Z</time>
      </trkpt>
      <trkpt lat="47.69795" lon="6.82825">
        <ele>420.2</ele>
        <time>2026-08-23T14:13:10.000Z</time>
      </trkpt>
      <trkpt lat="47.69787" lon="6.82835">
        <ele>420.2</ele>
        <time>2026-08-23T14:13:12.000Z</time>
      </trkpt>
      <trkpt lat="47.69779" lon="6.82845">
        <ele>420.2</ele>
        <time>2026-08-23T14:13:14.000Z</time>
      </trkpt>
      <trkpt lat="47.69771" lon="6.82854">
        <ele>420.4</ele>
        <time>2026-08-23T14:13:16.000Z</time>
      </trkpt>
      <trkpt lat="47.69764" lon="6.82863">
        <ele>420.4</ele>
        <time>2026-08-23T14:13:18.000Z</time>
      </trkpt>
      <trkpt lat="47.69756" lon="6.82872">
        <ele>420.4</ele>
        <time>2026-08-23T14:13:20.000Z</time>
      </trkpt>
      <trkpt lat="47.69748" lon="6.82882">
        <ele>420.6</ele>
        <time>2026-08-23T14:13:22.000Z</time>
      </trkpt>
      <trkpt lat="47.6974" lon="6.82891">
        <ele>420.6</ele>
        <time>2026-08-23T14:13:24.000Z</time>
      </trkpt>
      <trkpt lat="47.69732" lon="6.82901">
        <ele>420.6</ele>
        <time>2026-08-23T14:13:26.000Z</time>
      </trkpt>
      <trkpt lat="47.69724" lon="6.82911">
        <ele>420.6</ele>
        <time>2026-08-23T14:13:28.000Z</time>
      </trkpt>
      <trkpt lat="47.69716" lon="6.82921">
        <ele>420.2</ele>
        <time>2026-08-23T14:13:30.000Z</time>
      </trkpt>
      <trkpt lat="47.69708" lon="6.82931">
        <ele>420.2</ele>
        <time>2026-08-23T14:13:32.000Z</time>
      </trkpt>
      <trkpt lat="47.69699" lon="6.82941">
        <ele>420</ele>
        <time>2026-08-23T14:13:34.000Z</time>
      </trkpt>
      <trkpt lat="47.69691" lon="6.82952">
        <ele>419.8</ele>
        <time>2026-08-23T14:13:36.000Z</time>
      </trkpt>
      <trkpt lat="47.69682" lon="6.82962">
        <ele>419.8</ele>
        <time>2026-08-23T14:13:38.000Z</time>
      </trkpt>
      <trkpt lat="47.69674" lon="6.82972">
        <ele>419.6</ele>
        <time>2026-08-23T14:13:40.000Z</time>
      </trkpt>
      <trkpt lat="47.69666" lon="6.82982">
        <ele>419.6</ele>
        <time>2026-08-23T14:13:42.000Z</time>
      </trkpt>
      <trkpt lat="47.69657" lon="6.82992">
        <ele>419.4</ele>
        <time>2026-08-23T14:13:44.000Z</time>
      </trkpt>
      <trkpt lat="47.69649" lon="6.83002">
        <ele>419.2</ele>
        <time>2026-08-23T14:13:46.000Z</time>
      </trkpt>
      <trkpt lat="47.69641" lon="6.83012">
        <ele>419</ele>
        <time>2026-08-23T14:13:48.000Z</time>
      </trkpt>
      <trkpt lat="47.69632" lon="6.83022">
        <ele>419</ele>
        <time>2026-08-23T14:13:50.000Z</time>
      </trkpt>
      <trkpt lat="47.69624" lon="6.83032">
        <ele>419</ele>
        <time>2026-08-23T14:13:52.000Z</time>
      </trkpt>
      <trkpt lat="47.69615" lon="6.83043">
        <ele>418.8</ele>
        <time>2026-08-23T14:13:54.000Z</time>
      </trkpt>
      <trkpt lat="47.69606" lon="6.83053">
        <ele>418.8</ele>
        <time>2026-08-23T14:13:56.000Z</time>
      </trkpt>
      <trkpt lat="47.69597" lon="6.83064">
        <ele>418.8</ele>
        <time>2026-08-23T14:13:58.000Z</time>
      </trkpt>
      <trkpt lat="47.69588" lon="6.83074">
        <ele>418.8</ele>
        <time>2026-08-23T14:14:00.000Z</time>
      </trkpt>
      <trkpt lat="47.69579" lon="6.83084">
        <ele>418.6</ele>
        <time>2026-08-23T14:14:02.000Z</time>
      </trkpt>
      <trkpt lat="47.6957" lon="6.83095">
        <ele>418.2</ele>
        <time>2026-08-23T14:14:04.000Z</time>
      </trkpt>
      <trkpt lat="47.6956" lon="6.83106">
        <ele>417.8</ele>
        <time>2026-08-23T14:14:06.000Z</time>
      </trkpt>
      <trkpt lat="47.6955" lon="6.83118">
        <ele>417.4</ele>
        <time>2026-08-23T14:14:08.000Z</time>
      </trkpt>
      <trkpt lat="47.6954" lon="6.83129">
        <ele>417.4</ele>
        <time>2026-08-23T14:14:10.000Z</time>
      </trkpt>
      <trkpt lat="47.6953" lon="6.8314">
        <ele>417.4</ele>
        <time>2026-08-23T14:14:13.000Z</time>
      </trkpt>
      <trkpt lat="47.6952" lon="6.8315">
        <ele>417.2</ele>
        <time>2026-08-23T14:14:15.000Z</time>
      </trkpt>
      <trkpt lat="47.6951" lon="6.83159">
        <ele>417.2</ele>
        <time>2026-08-23T14:14:17.000Z</time>
      </trkpt>
      <trkpt lat="47.69501" lon="6.83168">
        <ele>417</ele>
        <time>2026-08-23T14:14:19.000Z</time>
      </trkpt>
      <trkpt lat="47.69492" lon="6.83178">
        <ele>416.8</ele>
        <time>2026-08-23T14:14:21.000Z</time>
      </trkpt>
      <trkpt lat="47.69483" lon="6.83188">
        <ele>417</ele>
        <time>2026-08-23T14:14:23.000Z</time>
      </trkpt>
      <trkpt lat="47.69474" lon="6.832">
        <ele>417.2</ele>
        <time>2026-08-23T14:14:25.000Z</time>
      </trkpt>
      <trkpt lat="47.69465" lon="6.83212">
        <ele>417</ele>
        <time>2026-08-23T14:14:27.000Z</time>
      </trkpt>
      <trkpt lat="47.69454" lon="6.83222">
        <ele>416.8</ele>
        <time>2026-08-23T14:14:29.000Z</time>
      </trkpt>
      <trkpt lat="47.69442" lon="6.83223">
        <ele>416.6</ele>
        <time>2026-08-23T14:14:31.000Z</time>
      </trkpt>
      <trkpt lat="47.69428" lon="6.8322">
        <ele>416.4</ele>
        <time>2026-08-23T14:14:33.000Z</time>
      </trkpt>
      <trkpt lat="47.69415" lon="6.83215">
        <ele>416.4</ele>
        <time>2026-08-23T14:14:35.000Z</time>
      </trkpt>
      <trkpt lat="47.69402" lon="6.8321">
        <ele>416.4</ele>
        <time>2026-08-23T14:14:37.000Z</time>
      </trkpt>
      <trkpt lat="47.69389" lon="6.83206">
        <ele>416.4</ele>
        <time>2026-08-23T14:14:39.000Z</time>
      </trkpt>
      <trkpt lat="47.69376" lon="6.83203">
        <ele>416.2</ele>
        <time>2026-08-23T14:14:41.000Z</time>
      </trkpt>
      <trkpt lat="47.69359" lon="6.83198">
        <ele>416</ele>
        <time>2026-08-23T14:14:43.000Z</time>
      </trkpt>
      <trkpt lat="47.69342" lon="6.83193">
        <ele>415.6</ele>
        <time>2026-08-23T14:14:45.000Z</time>
      </trkpt>
      <trkpt lat="47.69328" lon="6.8319">
        <ele>415.4</ele>
        <time>2026-08-23T14:14:47.000Z</time>
      </trkpt>
      <trkpt lat="47.69316" lon="6.83187">
        <ele>415.6</ele>
        <time>2026-08-23T14:14:49.000Z</time>
      </trkpt>
      <trkpt lat="47.69305" lon="6.83185">
        <ele>415.6</ele>
        <time>2026-08-23T14:14:51.000Z</time>
      </trkpt>
      <trkpt lat="47.69295" lon="6.83184">
        <ele>415.4</ele>
        <time>2026-08-23T14:14:53.000Z</time>
      </trkpt>
      <trkpt lat="47.69285" lon="6.83183">
        <ele>415.2</ele>
        <time>2026-08-23T14:14:55.000Z</time>
      </trkpt>
      <trkpt lat="47.69274" lon="6.83181">
        <ele>415</ele>
        <time>2026-08-23T14:14:57.000Z</time>
      </trkpt>
      <trkpt lat="47.69262" lon="6.83179">
        <ele>415</ele>
        <time>2026-08-23T14:14:59.000Z</time>
      </trkpt>
      <trkpt lat="47.69249" lon="6.83176">
        <ele>415</ele>
        <time>2026-08-23T14:15:01.000Z</time>
      </trkpt>
      <trkpt lat="47.69236" lon="6.83175">
        <ele>414.8</ele>
        <time>2026-08-23T14:15:03.000Z</time>
      </trkpt>
      <trkpt lat="47.69223" lon="6.83174">
        <ele>414.6</ele>
        <time>2026-08-23T14:15:05.000Z</time>
      </trkpt>
      <trkpt lat="47.69211" lon="6.83174">
        <ele>414.4</ele>
        <time>2026-08-23T14:15:07.000Z</time>
      </trkpt>
      <trkpt lat="47.69198" lon="6.83174">
        <ele>414.2</ele>
        <time>2026-08-23T14:15:09.000Z</time>
      </trkpt>
      <trkpt lat="47.69185" lon="6.83176">
        <ele>414</ele>
        <time>2026-08-23T14:15:11.000Z</time>
      </trkpt>
      <trkpt lat="47.69171" lon="6.83179">
        <ele>413.8</ele>
        <time>2026-08-23T14:15:13.000Z</time>
      </trkpt>
      <trkpt lat="47.69158" lon="6.83183">
        <ele>413.6</ele>
        <time>2026-08-23T14:15:15.000Z</time>
      </trkpt>
      <trkpt lat="47.69144" lon="6.83186">
        <ele>413.4</ele>
        <time>2026-08-23T14:15:17.000Z</time>
      </trkpt>
      <trkpt lat="47.6913" lon="6.83187">
        <ele>413.2</ele>
        <time>2026-08-23T14:15:19.000Z</time>
      </trkpt>
      <trkpt lat="47.69117" lon="6.83187">
        <ele>412.8</ele>
        <time>2026-08-23T14:15:21.000Z</time>
      </trkpt>
      <trkpt lat="47.69103" lon="6.83187">
        <ele>412.8</ele>
        <time>2026-08-23T14:15:23.000Z</time>
      </trkpt>
      <trkpt lat="47.6909" lon="6.83187">
        <ele>412.8</ele>
        <time>2026-08-23T14:15:25.000Z</time>
      </trkpt>
      <trkpt lat="47.69077" lon="6.83186">
        <ele>412.6</ele>
        <time>2026-08-23T14:15:27.000Z</time>
      </trkpt>
      <trkpt lat="47.69064" lon="6.83184">
        <ele>412.4</ele>
        <time>2026-08-23T14:15:29.000Z</time>
      </trkpt>
      <trkpt lat="47.6905" lon="6.83181">
        <ele>412.4</ele>
        <time>2026-08-23T14:15:31.000Z</time>
      </trkpt>
      <trkpt lat="47.69037" lon="6.83178">
        <ele>412.2</ele>
        <time>2026-08-23T14:15:33.000Z</time>
      </trkpt>
      <trkpt lat="47.69024" lon="6.83172">
        <ele>411.8</ele>
        <time>2026-08-23T14:15:35.000Z</time>
      </trkpt>
      <trkpt lat="47.69011" lon="6.83165">
        <ele>411.8</ele>
        <time>2026-08-23T14:15:37.000Z</time>
      </trkpt>
      <trkpt lat="47.69" lon="6.83156">
        <ele>411.8</ele>
        <time>2026-08-23T14:15:39.000Z</time>
      </trkpt>
      <trkpt lat="47.6899" lon="6.83145">
        <ele>411.8</ele>
        <time>2026-08-23T14:15:41.000Z</time>
      </trkpt>
      <trkpt lat="47.68981" lon="6.83133">
        <ele>412</ele>
        <time>2026-08-23T14:15:43.000Z</time>
      </trkpt>
      <trkpt lat="47.68972" lon="6.8312">
        <ele>411.8</ele>
        <time>2026-08-23T14:15:45.000Z</time>
      </trkpt>
      <trkpt lat="47.68962" lon="6.83108">
        <ele>411.6</ele>
        <time>2026-08-23T14:15:47.000Z</time>
      </trkpt>
      <trkpt lat="47.68951" lon="6.83098">
        <ele>411.4</ele>
        <time>2026-08-23T14:15:50.000Z</time>
      </trkpt>
      <trkpt lat="47.6894" lon="6.83089">
        <ele>411.2</ele>
        <time>2026-08-23T14:15:52.000Z</time>
      </trkpt>
      <trkpt lat="47.68928" lon="6.83082">
        <ele>411</ele>
        <time>2026-08-23T14:15:54.000Z</time>
      </trkpt>
      <trkpt lat="47.68915" lon="6.83076">
        <ele>410.6</ele>
        <time>2026-08-23T14:15:56.000Z</time>
      </trkpt>
      <trkpt lat="47.68902" lon="6.83074">
        <ele>410.6</ele>
        <time>2026-08-23T14:15:58.000Z</time>
      </trkpt>
      <trkpt lat="47.68889" lon="6.83077">
        <ele>410.6</ele>
        <time>2026-08-23T14:16:00.000Z</time>
      </trkpt>
      <trkpt lat="47.68876" lon="6.83083">
        <ele>410.4</ele>
        <time>2026-08-23T14:16:02.000Z</time>
      </trkpt>
      <trkpt lat="47.68864" lon="6.83091">
        <ele>410.4</ele>
        <time>2026-08-23T14:16:04.000Z</time>
      </trkpt>
      <trkpt lat="47.68853" lon="6.831">
        <ele>410.6</ele>
        <time>2026-08-23T14:16:06.000Z</time>
      </trkpt>
      <trkpt lat="47.68842" lon="6.83111">
        <ele>410.4</ele>
        <time>2026-08-23T14:16:08.000Z</time>
      </trkpt>
      <trkpt lat="47.68832" lon="6.83122">
        <ele>410.6</ele>
        <time>2026-08-23T14:16:10.000Z</time>
      </trkpt>
      <trkpt lat="47.68823" lon="6.83134">
        <ele>410.6</ele>
        <time>2026-08-23T14:16:12.000Z</time>
      </trkpt>
      <trkpt lat="47.68814" lon="6.83145">
        <ele>410.6</ele>
        <time>2026-08-23T14:16:14.000Z</time>
      </trkpt>
      <trkpt lat="47.68806" lon="6.83155">
        <ele>410.6</ele>
        <time>2026-08-23T14:16:16.000Z</time>
      </trkpt>
      <trkpt lat="47.68798" lon="6.83159">
        <ele>410.6</ele>
        <time>2026-08-23T14:16:18.000Z</time>
      </trkpt>
      <trkpt lat="47.68791" lon="6.83153">
        <ele>410.6</ele>
        <time>2026-08-23T14:16:20.000Z</time>
      </trkpt>
      <trkpt lat="47.68789" lon="6.83139">
        <ele>410.4</ele>
        <time>2026-08-23T14:16:22.000Z</time>
      </trkpt>
      <trkpt lat="47.68789" lon="6.83124">
        <ele>410.4</ele>
        <time>2026-08-23T14:16:24.000Z</time>
      </trkpt>
      <trkpt lat="47.68788" lon="6.8311">
        <ele>410.4</ele>
        <time>2026-08-23T14:16:26.000Z</time>
      </trkpt>
      <trkpt lat="47.68787" lon="6.83095">
        <ele>410.2</ele>
        <time>2026-08-23T14:16:28.000Z</time>
      </trkpt>
      <trkpt lat="47.68785" lon="6.8308">
        <ele>410</ele>
        <time>2026-08-23T14:16:30.000Z</time>
      </trkpt>
      <trkpt lat="47.68782" lon="6.83063">
        <ele>409.8</ele>
        <time>2026-08-23T14:16:32.000Z</time>
      </trkpt>
      <trkpt lat="47.6878" lon="6.83045">
        <ele>409.6</ele>
        <time>2026-08-23T14:16:34.000Z</time>
      </trkpt>
      <trkpt lat="47.68777" lon="6.83027">
        <ele>409.4</ele>
        <time>2026-08-23T14:16:36.000Z</time>
      </trkpt>
      <trkpt lat="47.68775" lon="6.83009">
        <ele>409.2</ele>
        <time>2026-08-23T14:16:38.000Z</time>
      </trkpt>
      <trkpt lat="47.68772" lon="6.8299">
        <ele>409</ele>
        <time>2026-08-23T14:16:40.000Z</time>
      </trkpt>
      <trkpt lat="47.68769" lon="6.82971">
        <ele>409</ele>
        <time>2026-08-23T14:16:42.000Z</time>
      </trkpt>
      <trkpt lat="47.68766" lon="6.82948">
        <ele>409</ele>
        <time>2026-08-23T14:16:44.000Z</time>
      </trkpt>
      <trkpt lat="47.68762" lon="6.82928">
        <ele>408.8</ele>
        <time>2026-08-23T14:16:46.000Z</time>
      </trkpt>
      <trkpt lat="47.68758" lon="6.82903">
        <ele>408.8</ele>
        <time>2026-08-23T14:16:48.000Z</time>
      </trkpt>
      <trkpt lat="47.68754" lon="6.82882">
        <ele>409</ele>
        <time>2026-08-23T14:16:50.000Z</time>
      </trkpt>
      <trkpt lat="47.68749" lon="6.82863">
        <ele>408.8</ele>
        <time>2026-08-23T14:16:52.000Z</time>
      </trkpt>
      <trkpt lat="47.68744" lon="6.82845">
        <ele>408.8</ele>
        <time>2026-08-23T14:16:54.000Z</time>
      </trkpt>
      <trkpt lat="47.68737" lon="6.82827">
        <ele>408.8</ele>
        <time>2026-08-23T14:16:56.000Z</time>
      </trkpt>
      <trkpt lat="47.68729" lon="6.8281">
        <ele>408.6</ele>
        <time>2026-08-23T14:16:58.000Z</time>
      </trkpt>
      <trkpt lat="47.68722" lon="6.82793">
        <ele>408.4</ele>
        <time>2026-08-23T14:17:00.000Z</time>
      </trkpt>
      <trkpt lat="47.68716" lon="6.82776">
        <ele>408.4</ele>
        <time>2026-08-23T14:17:02.000Z</time>
      </trkpt>
      <trkpt lat="47.68709" lon="6.82759">
        <ele>408.8</ele>
        <time>2026-08-23T14:17:04.000Z</time>
      </trkpt>
      <trkpt lat="47.68703" lon="6.82743">
        <ele>409.2</ele>
        <time>2026-08-23T14:17:06.000Z</time>
      </trkpt>
      <trkpt lat="47.68697" lon="6.82727">
        <ele>409.6</ele>
        <time>2026-08-23T14:17:08.000Z</time>
      </trkpt>
      <trkpt lat="47.68692" lon="6.82714">
        <ele>410</ele>
        <time>2026-08-23T14:17:10.000Z</time>
      </trkpt>
      <trkpt lat="47.68687" lon="6.82701">
        <ele>410</ele>
        <time>2026-08-23T14:17:12.000Z</time>
      </trkpt>
      <trkpt lat="47.68682" lon="6.82688">
        <ele>410</ele>
        <time>2026-08-23T14:17:14.000Z</time>
      </trkpt>
      <trkpt lat="47.68676" lon="6.82673">
        <ele>409.8</ele>
        <time>2026-08-23T14:17:16.000Z</time>
      </trkpt>
      <trkpt lat="47.6867" lon="6.82658">
        <ele>409.8</ele>
        <time>2026-08-23T14:17:18.000Z</time>
      </trkpt>
      <trkpt lat="47.68665" lon="6.82642">
        <ele>409.6</ele>
        <time>2026-08-23T14:17:20.000Z</time>
      </trkpt>
      <trkpt lat="47.68666" lon="6.82625">
        <ele>409.2</ele>
        <time>2026-08-23T14:17:22.000Z</time>
      </trkpt>
      <trkpt lat="47.68674" lon="6.82609">
        <ele>409</ele>
        <time>2026-08-23T14:17:24.000Z</time>
      </trkpt>
      <trkpt lat="47.68683" lon="6.82594">
        <ele>408.8</ele>
        <time>2026-08-23T14:17:26.000Z</time>
      </trkpt>
      <trkpt lat="47.6869" lon="6.82578">
        <ele>409</ele>
        <time>2026-08-23T14:17:28.000Z</time>
      </trkpt>
      <trkpt lat="47.68696" lon="6.82563">
        <ele>409</ele>
        <time>2026-08-23T14:17:30.000Z</time>
      </trkpt>
      <trkpt lat="47.68702" lon="6.82548">
        <ele>409</ele>
        <time>2026-08-23T14:17:32.000Z</time>
      </trkpt>
      <trkpt lat="47.6871" lon="6.82534">
        <ele>409.2</ele>
        <time>2026-08-23T14:17:34.000Z</time>
      </trkpt>
      <trkpt lat="47.68718" lon="6.82521">
        <ele>409.2</ele>
        <time>2026-08-23T14:17:36.000Z</time>
      </trkpt>
      <trkpt lat="47.68728" lon="6.82508">
        <ele>409.4</ele>
        <time>2026-08-23T14:17:38.000Z</time>
      </trkpt>
      <trkpt lat="47.68738" lon="6.82498">
        <ele>409.6</ele>
        <time>2026-08-23T14:17:40.000Z</time>
      </trkpt>
      <trkpt lat="47.6875" lon="6.8249">
        <ele>409.8</ele>
        <time>2026-08-23T14:17:42.000Z</time>
      </trkpt>
      <trkpt lat="47.68763" lon="6.82485">
        <ele>409.8</ele>
        <time>2026-08-23T14:17:45.000Z</time>
      </trkpt>
      <trkpt lat="47.68775" lon="6.8248">
        <ele>410</ele>
        <time>2026-08-23T14:17:47.000Z</time>
      </trkpt>
      <trkpt lat="47.68787" lon="6.82474">
        <ele>410.2</ele>
        <time>2026-08-23T14:17:49.000Z</time>
      </trkpt>
      <trkpt lat="47.68798" lon="6.82467">
        <ele>410.6</ele>
        <time>2026-08-23T14:17:51.000Z</time>
      </trkpt>
      <trkpt lat="47.68805" lon="6.82457">
        <ele>411</ele>
        <time>2026-08-23T14:17:53.000Z</time>
      </trkpt>
      <trkpt lat="47.68803" lon="6.82443">
        <ele>411.4</ele>
        <time>2026-08-23T14:17:55.000Z</time>
      </trkpt>
      <trkpt lat="47.68796" lon="6.82429">
        <ele>411.4</ele>
        <time>2026-08-23T14:17:57.000Z</time>
      </trkpt>
      <trkpt lat="47.68785" lon="6.82418">
        <ele>410.6</ele>
        <time>2026-08-23T14:17:59.000Z</time>
      </trkpt>
      <trkpt lat="47.68773" lon="6.82408">
        <ele>410.6</ele>
        <time>2026-08-23T14:18:01.000Z</time>
      </trkpt>
      <trkpt lat="47.68762" lon="6.82396">
        <ele>410.4</ele>
        <time>2026-08-23T14:18:03.000Z</time>
      </trkpt>
      <trkpt lat="47.68751" lon="6.82384">
        <ele>410</ele>
        <time>2026-08-23T14:18:05.000Z</time>
      </trkpt>
      <trkpt lat="47.68741" lon="6.82372">
        <ele>409.6</ele>
        <time>2026-08-23T14:18:07.000Z</time>
      </trkpt>
      <trkpt lat="47.68731" lon="6.82359">
        <ele>409.4</ele>
        <time>2026-08-23T14:18:09.000Z</time>
      </trkpt>
      <trkpt lat="47.68721" lon="6.82345">
        <ele>409.2</ele>
        <time>2026-08-23T14:18:11.000Z</time>
      </trkpt>
      <trkpt lat="47.68711" lon="6.82331">
        <ele>409</ele>
        <time>2026-08-23T14:18:13.000Z</time>
      </trkpt>
      <trkpt lat="47.68702" lon="6.82317">
        <ele>409</ele>
        <time>2026-08-23T14:18:15.000Z</time>
      </trkpt>
      <trkpt lat="47.68693" lon="6.82302">
        <ele>408.8</ele>
        <time>2026-08-23T14:18:17.000Z</time>
      </trkpt>
      <trkpt lat="47.68685" lon="6.82288">
        <ele>408.8</ele>
        <time>2026-08-23T14:18:19.000Z</time>
      </trkpt>
      <trkpt lat="47.68677" lon="6.82275">
        <ele>408.6</ele>
        <time>2026-08-23T14:18:21.000Z</time>
      </trkpt>
      <trkpt lat="47.68669" lon="6.8226">
        <ele>408.6</ele>
        <time>2026-08-23T14:18:23.000Z</time>
      </trkpt>
      <trkpt lat="47.6866" lon="6.82246">
        <ele>408.6</ele>
        <time>2026-08-23T14:18:25.000Z</time>
      </trkpt>
      <trkpt lat="47.68651" lon="6.82232">
        <ele>408.4</ele>
        <time>2026-08-23T14:18:27.000Z</time>
      </trkpt>
      <trkpt lat="47.68643" lon="6.82217">
        <ele>408.2</ele>
        <time>2026-08-23T14:18:29.000Z</time>
      </trkpt>
      <trkpt lat="47.68634" lon="6.82202">
        <ele>408</ele>
        <time>2026-08-23T14:18:31.000Z</time>
      </trkpt>
      <trkpt lat="47.68626" lon="6.82187">
        <ele>408</ele>
        <time>2026-08-23T14:18:33.000Z</time>
      </trkpt>
      <trkpt lat="47.68618" lon="6.82173">
        <ele>407.8</ele>
        <time>2026-08-23T14:18:35.000Z</time>
      </trkpt>
      <trkpt lat="47.68608" lon="6.82156">
        <ele>407.8</ele>
        <time>2026-08-23T14:18:37.000Z</time>
      </trkpt>
      <trkpt lat="47.68598" lon="6.8214">
        <ele>407.6</ele>
        <time>2026-08-23T14:18:39.000Z</time>
      </trkpt>
      <trkpt lat="47.68589" lon="6.82126">
        <ele>407.6</ele>
        <time>2026-08-23T14:18:41.000Z</time>
      </trkpt>
      <trkpt lat="47.68581" lon="6.82112">
        <ele>407.6</ele>
        <time>2026-08-23T14:18:43.000Z</time>
      </trkpt>
      <trkpt lat="47.68573" lon="6.82097">
        <ele>407.4</ele>
        <time>2026-08-23T14:18:45.000Z</time>
      </trkpt>
      <trkpt lat="47.68564" lon="6.82082">
        <ele>407.2</ele>
        <time>2026-08-23T14:18:47.000Z</time>
      </trkpt>
      <trkpt lat="47.68555" lon="6.82067">
        <ele>407.2</ele>
        <time>2026-08-23T14:18:49.000Z</time>
      </trkpt>
      <trkpt lat="47.68546" lon="6.82053">
        <ele>407.4</ele>
        <time>2026-08-23T14:18:51.000Z</time>
      </trkpt>
      <trkpt lat="47.6854" lon="6.8204">
        <ele>407.8</ele>
        <time>2026-08-23T14:18:53.000Z</time>
      </trkpt>
      <trkpt lat="47.68538" lon="6.82027">
        <ele>408</ele>
        <time>2026-08-23T14:18:55.000Z</time>
      </trkpt>
      <trkpt lat="47.68539" lon="6.82011">
        <ele>408.4</ele>
        <time>2026-08-23T14:18:57.000Z</time>
      </trkpt>
      <trkpt lat="47.68538" lon="6.81995">
        <ele>408.4</ele>
        <time>2026-08-23T14:18:59.000Z</time>
      </trkpt>
      <trkpt lat="47.68535" lon="6.81979">
        <ele>408.6</ele>
        <time>2026-08-23T14:19:01.000Z</time>
      </trkpt>
      <trkpt lat="47.68531" lon="6.81963">
        <ele>408.6</ele>
        <time>2026-08-23T14:19:03.000Z</time>
      </trkpt>
      <trkpt lat="47.68525" lon="6.81949">
        <ele>408.8</ele>
        <time>2026-08-23T14:19:05.000Z</time>
      </trkpt>
      <trkpt lat="47.68519" lon="6.81936">
        <ele>408.8</ele>
        <time>2026-08-23T14:19:07.000Z</time>
      </trkpt>
      <trkpt lat="47.68513" lon="6.81922">
        <ele>408.6</ele>
        <time>2026-08-23T14:19:09.000Z</time>
      </trkpt>
      <trkpt lat="47.68507" lon="6.81907">
        <ele>408.4</ele>
        <time>2026-08-23T14:19:11.000Z</time>
      </trkpt>
      <trkpt lat="47.68502" lon="6.81892">
        <ele>408</ele>
        <time>2026-08-23T14:19:13.000Z</time>
      </trkpt>
      <trkpt lat="47.68496" lon="6.81876">
        <ele>407.8</ele>
        <time>2026-08-23T14:19:15.000Z</time>
      </trkpt>
      <trkpt lat="47.68491" lon="6.81861">
        <ele>407.4</ele>
        <time>2026-08-23T14:19:17.000Z</time>
      </trkpt>
      <trkpt lat="47.68486" lon="6.81845">
        <ele>407.4</ele>
        <time>2026-08-23T14:19:19.000Z</time>
      </trkpt>
      <trkpt lat="47.68481" lon="6.81829">
        <ele>407.2</ele>
        <time>2026-08-23T14:19:21.000Z</time>
      </trkpt>
      <trkpt lat="47.68475" lon="6.81812">
        <ele>407</ele>
        <time>2026-08-23T14:19:23.000Z</time>
      </trkpt>
      <trkpt lat="47.6847" lon="6.81795">
        <ele>406.8</ele>
        <time>2026-08-23T14:19:25.000Z</time>
      </trkpt>
      <trkpt lat="47.68467" lon="6.81777">
        <ele>406.8</ele>
        <time>2026-08-23T14:19:27.000Z</time>
      </trkpt>
      <trkpt lat="47.68466" lon="6.81758">
        <ele>407</ele>
        <time>2026-08-23T14:19:29.000Z</time>
      </trkpt>
      <trkpt lat="47.68464" lon="6.8174">
        <ele>407</ele>
        <time>2026-08-23T14:19:31.000Z</time>
      </trkpt>
      <trkpt lat="47.68461" lon="6.81721">
        <ele>406.8</ele>
        <time>2026-08-23T14:19:33.000Z</time>
      </trkpt>
      <trkpt lat="47.68457" lon="6.81703">
        <ele>406.6</ele>
        <time>2026-08-23T14:19:35.000Z</time>
      </trkpt>
      <trkpt lat="47.68452" lon="6.81685">
        <ele>406.4</ele>
        <time>2026-08-23T14:19:37.000Z</time>
      </trkpt>
      <trkpt lat="47.6845" lon="6.81666">
        <ele>406.4</ele>
        <time>2026-08-23T14:19:39.000Z</time>
      </trkpt>
      <trkpt lat="47.68448" lon="6.81647">
        <ele>406.2</ele>
        <time>2026-08-23T14:19:41.000Z</time>
      </trkpt>
      <trkpt lat="47.68443" lon="6.81628">
        <ele>406</ele>
        <time>2026-08-23T14:19:43.000Z</time>
      </trkpt>
      <trkpt lat="47.68437" lon="6.81609">
        <ele>405.6</ele>
        <time>2026-08-23T14:19:45.000Z</time>
      </trkpt>
      <trkpt lat="47.68433" lon="6.81589">
        <ele>405.4</ele>
        <time>2026-08-23T14:19:47.000Z</time>
      </trkpt>
      <trkpt lat="47.6843" lon="6.81568">
        <ele>405</ele>
        <time>2026-08-23T14:19:49.000Z</time>
      </trkpt>
      <trkpt lat="47.68426" lon="6.81548">
        <ele>405</ele>
        <time>2026-08-23T14:19:51.000Z</time>
      </trkpt>
      <trkpt lat="47.68421" lon="6.81528">
        <ele>405</ele>
        <time>2026-08-23T14:19:53.000Z</time>
      </trkpt>
      <trkpt lat="47.68414" lon="6.81511">
        <ele>405</ele>
        <time>2026-08-23T14:19:56.000Z</time>
      </trkpt>
      <trkpt lat="47.68407" lon="6.81496">
        <ele>404.8</ele>
        <time>2026-08-23T14:19:58.000Z</time>
      </trkpt>
      <trkpt lat="47.68403" lon="6.8148">
        <ele>404.8</ele>
        <time>2026-08-23T14:20:00.000Z</time>
      </trkpt>
      <trkpt lat="47.68399" lon="6.81464">
        <ele>404.6</ele>
        <time>2026-08-23T14:20:02.000Z</time>
      </trkpt>
      <trkpt lat="47.68396" lon="6.81449">
        <ele>404.4</ele>
        <time>2026-08-23T14:20:04.000Z</time>
      </trkpt>
      <trkpt lat="47.68393" lon="6.81434">
        <ele>404.6</ele>
        <time>2026-08-23T14:20:06.000Z</time>
      </trkpt>
      <trkpt lat="47.68389" lon="6.81421">
        <ele>404.6</ele>
        <time>2026-08-23T14:20:08.000Z</time>
      </trkpt>
      <trkpt lat="47.68387" lon="6.81409">
        <ele>404.6</ele>
        <time>2026-08-23T14:20:10.000Z</time>
      </trkpt>
      <trkpt lat="47.68384" lon="6.81397">
        <ele>404.6</ele>
        <time>2026-08-23T14:20:12.000Z</time>
      </trkpt>
      <trkpt lat="47.68381" lon="6.81386">
        <ele>404.8</ele>
        <time>2026-08-23T14:20:14.000Z</time>
      </trkpt>
      <trkpt lat="47.68376" lon="6.81378">
        <ele>404.8</ele>
        <time>2026-08-23T14:20:16.000Z</time>
      </trkpt>
      <trkpt lat="47.68372" lon="6.81374">
        <ele>404.8</ele>
        <time>2026-08-23T14:20:18.000Z</time>
      </trkpt>
      <trkpt lat="47.6837" lon="6.81373">
        <ele>405</ele>
        <time>2026-08-23T14:20:20.000Z</time>
      </trkpt>
      <trkpt lat="47.68369" lon="6.81374">
        <ele>405</ele>
        <time>2026-08-23T14:20:22.000Z</time>
      </trkpt>
      <trkpt lat="47.68366" lon="6.81376">
        <ele>405</ele>
        <time>2026-08-23T14:20:24.000Z</time>
      </trkpt>
      <trkpt lat="47.68361" lon="6.8138">
        <ele>405</ele>
        <time>2026-08-23T14:20:26.000Z</time>
      </trkpt>
      <trkpt lat="47.68357" lon="6.81392">
        <ele>404.8</ele>
        <time>2026-08-23T14:20:28.000Z</time>
      </trkpt>
      <trkpt lat="47.68354" lon="6.81405">
        <ele>404.8</ele>
        <time>2026-08-23T14:20:30.000Z</time>
      </trkpt>
      <trkpt lat="47.68348" lon="6.81415">
        <ele>404.6</ele>
        <time>2026-08-23T14:20:32.000Z</time>
      </trkpt>
      <trkpt lat="47.68341" lon="6.81418">
        <ele>404.6</ele>
        <time>2026-08-23T14:20:34.000Z</time>
      </trkpt>
      <trkpt lat="47.68335" lon="6.81419">
        <ele>404.8</ele>
        <time>2026-08-23T14:20:36.000Z</time>
      </trkpt>
      <trkpt lat="47.68329" lon="6.81422">
        <ele>404.8</ele>
        <time>2026-08-23T14:20:38.000Z</time>
      </trkpt>
      <trkpt lat="47.68324" lon="6.81424">
        <ele>404.8</ele>
        <time>2026-08-23T14:20:40.000Z</time>
      </trkpt>
      <trkpt lat="47.6832" lon="6.81425">
        <ele>404.8</ele>
        <time>2026-08-23T14:20:42.000Z</time>
      </trkpt>
      <trkpt lat="47.68317" lon="6.81425">
        <ele>404.8</ele>
        <time>2026-08-23T14:20:44.000Z</time>
      </trkpt>
      <trkpt lat="47.68316" lon="6.81425">
        <ele>405</ele>
        <time>2026-08-23T14:20:46.000Z</time>
      </trkpt>
      <trkpt lat="47.68317" lon="6.81425">
        <ele>405</ele>
        <time>2026-08-23T14:20:48.000Z</time>
      </trkpt>
      <trkpt lat="47.68317" lon="6.81425">
        <ele>405</ele>
        <time>2026-08-23T14:20:50.000Z</time>
      </trkpt>
      <trkpt lat="47.68317" lon="6.81425">
        <ele>405</ele>
        <time>2026-08-23T14:20:52.000Z</time>
      </trkpt>
      <trkpt lat="47.68316" lon="6.81425">
        <ele>404.8</ele>
        <time>2026-08-23T14:20:54.000Z</time>
      </trkpt>
      <trkpt lat="47.68316" lon="6.81424">
        <ele>404.8</ele>
        <time>2026-08-23T14:20:56.000Z</time>
      </trkpt>
      <trkpt lat="47.68316" lon="6.81424">
        <ele>404.6</ele>
        <time>2026-08-23T14:20:58.000Z</time>
      </trkpt>
      <trkpt lat="47.68316" lon="6.81424">
        <ele>404.6</ele>
        <time>2026-08-23T14:21:00.000Z</time>
      </trkpt>
      <trkpt lat="47.68316" lon="6.81424">
        <ele>404.8</ele>
        <time>2026-08-23T14:21:02.000Z</time>
      </trkpt>
      <trkpt lat="47.68316" lon="6.81424">
        <ele>405</ele>
        <time>2026-08-23T14:21:04.000Z</time>
      </trkpt>
      <trkpt lat="47.68316" lon="6.81424">
        <ele>405.2</ele>
        <time>2026-08-23T14:21:06.000Z</time>
      </trkpt>
      <trkpt lat="47.68316" lon="6.81425">
        <ele>405.2</ele>
        <time>2026-08-23T14:21:08.000Z</time>
      </trkpt>
      <trkpt lat="47.68316" lon="6.81425">
        <ele>405.2</ele>
        <time>2026-08-23T14:21:10.000Z</time>
      </trkpt>
      <trkpt lat="47.68316" lon="6.81424">
        <ele>405.2</ele>
        <time>2026-08-23T14:21:12.000Z</time>
      </trkpt>
      <trkpt lat="47.68316" lon="6.81424">
        <ele>405.2</ele>
        <time>2026-08-23T14:21:14.000Z</time>
      </trkpt>
      <trkpt lat="47.68316" lon="6.81424">
        <ele>405</ele>
        <time>2026-08-23T14:21:16.000Z</time>
      </trkpt>
      <trkpt lat="47.68316" lon="6.81424">
        <ele>404.8</ele>
        <time>2026-08-23T14:21:18.000Z</time>
      </trkpt>
      <trkpt lat="47.68316" lon="6.81424">
        <ele>404.8</ele>
        <time>2026-08-23T14:21:20.000Z</time>
      </trkpt>
      <trkpt lat="47.68316" lon="6.81424">
        <ele>404.8</ele>
        <time>2026-08-23T14:21:22.000Z</time>
      </trkpt>
      <trkpt lat="47.68316" lon="6.81424">
        <ele>404.8</ele>
        <time>2026-08-23T14:21:24.000Z</time>
      </trkpt>
      <trkpt lat="47.68316" lon="6.81424">
        <ele>404.8</ele>
        <time>2026-08-23T14:21:26.000Z</time>
      </trkpt>
      <trkpt lat="47.68316" lon="6.81424">
        <ele>404.8</ele>
        <time>2026-08-23T14:21:28.000Z</time>
      </trkpt>
      <trkpt lat="47.68316" lon="6.81424">
        <ele>404.8</ele>
        <time>2026-08-23T14:21:30.000Z</time>
      </trkpt>
      <trkpt lat="47.68316" lon="6.81424">
        <ele>404.6</ele>
        <time>2026-08-23T14:21:32.000Z</time>
      </trkpt>
      <trkpt lat="47.68316" lon="6.81424">
        <ele>404.6</ele>
        <time>2026-08-23T14:21:34.000Z</time>
      </trkpt>
      <trkpt lat="47.68316" lon="6.81424">
        <ele>404.6</ele>
        <time>2026-08-23T14:21:36.000Z</time>
      </trkpt>
      <trkpt lat="47.68316" lon="6.81424">
        <ele>404.4</ele>
        <time>2026-08-23T14:21:38.000Z</time>
      </trkpt>
      <trkpt lat="47.68316" lon="6.81424">
        <ele>404.6</ele>
        <time>2026-08-23T14:21:40.000Z</time>
      </trkpt>
      <trkpt lat="47.68316" lon="6.81424">
        <ele>404.6</ele>
        <time>2026-08-23T14:21:42.000Z</time>
      </trkpt>
      <trkpt lat="47.68316" lon="6.81424">
        <ele>404.6</ele>
        <time>2026-08-23T14:21:44.000Z</time>
      </trkpt>
      <trkpt lat="47.68316" lon="6.81424">
        <ele>404.4</ele>
        <time>2026-08-23T14:21:46.000Z</time>
      </trkpt>
      <trkpt lat="47.68316" lon="6.81424">
        <ele>404.6</ele>
        <time>2026-08-23T14:21:49.000Z</time>
      </trkpt>
      <trkpt lat="47.68316" lon="6.81424">
        <ele>404.6</ele>
        <time>2026-08-23T14:21:51.000Z</time>
      </trkpt>
      <trkpt lat="47.68316" lon="6.81424">
        <ele>404.4</ele>
        <time>2026-08-23T14:21:53.000Z</time>
      </trkpt>
      <trkpt lat="47.68316" lon="6.81424">
        <ele>404.2</ele>
        <time>2026-08-23T14:21:55.000Z</time>
      </trkpt>
      <trkpt lat="47.68316" lon="6.81424">
        <ele>404.4</ele>
        <time>2026-08-23T14:21:57.000Z</time>
      </trkpt>
      <trkpt lat="47.68316" lon="6.81424">
        <ele>404.6</ele>
        <time>2026-08-23T14:21:59.000Z</time>
      </trkpt>
      <trkpt lat="47.68316" lon="6.81424">
        <ele>404.8</ele>
        <time>2026-08-23T14:22:01.000Z</time>
      </trkpt>
      <trkpt lat="47.68316" lon="6.81424">
        <ele>405</ele>
        <time>2026-08-23T14:22:03.000Z</time>
      </trkpt>
      <trkpt lat="47.68316" lon="6.81424">
        <ele>405</ele>
        <time>2026-08-23T14:22:05.000Z</time>
      </trkpt>
      <trkpt lat="47.68316" lon="6.81424">
        <ele>405</ele>
        <time>2026-08-23T14:22:07.000Z</time>
      </trkpt>
      <trkpt lat="47.68316" lon="6.81424">
        <ele>405</ele>
        <time>2026-08-23T14:22:09.000Z</time>
      </trkpt>
      <trkpt lat="47.68316" lon="6.81424">
        <ele>405</ele>
        <time>2026-08-23T14:22:11.000Z</time>
      </trkpt>
      <trkpt lat="47.68316" lon="6.81424">
        <ele>405</ele>
        <time>2026-08-23T14:22:13.000Z</time>
      </trkpt>
      <trkpt lat="47.68316" lon="6.81424">
        <ele>405</ele>
        <time>2026-08-23T14:22:15.000Z</time>
      </trkpt>
      <trkpt lat="47.68316" lon="6.81424">
        <ele>405</ele>
        <time>2026-08-23T14:22:17.000Z</time>
      </trkpt>
    </trkseg>
  </trk>
</gpx>